<?xml version="1.0" encoding="UTF-8" standalone="no" ?>
<gpx xmlns="http://www.topografix.com/GPX/1/1" xmlns:xsi="http://www.w3.org/2001/XMLSchema-instance" xsi:schemaLocation="http://www.topografix.com/GPX/1/1 http://www.topografix.com/GPX/1/1/gpx.xsd" version="1.1" creator="VisuGPX - https://www.visugpx.com">
  <metadata>
    <name>tour des combrailles</name>
    <desc><![CDATA[Tour des Combrailles à VTT 300 km]]></desc>
  </metadata>
  <trk>
    <name><![CDATA[tour des combrailles 300 km]]></name>
    <extensions>
      <line xmlns="http://www.topografix.com/GPX/gpx_style/0/2">
        <color>ff8000</color>
        <opacity>0.8</opacity>
        <width>10.0</width>
      </line>
    </extensions>
    <trkseg>
      <trkpt lat="45.90844" lon="3.05534">
        <ele>455.3</ele>
      </trkpt>
      <trkpt lat="45.90105" lon="3.05824">
        <ele>479.2</ele>
      </trkpt>
      <trkpt lat="45.90371" lon="3.05344">
        <ele>504.9</ele>
      </trkpt>
      <trkpt lat="45.90617" lon="3.04928">
        <ele>542.6</ele>
      </trkpt>
      <trkpt lat="45.90593" lon="3.04715">
        <ele>554.9</ele>
      </trkpt>
      <trkpt lat="45.90682" lon="3.04555">
        <ele>569.3</ele>
      </trkpt>
      <trkpt lat="45.90669" lon="3.04394">
        <ele>578.2</ele>
      </trkpt>
      <trkpt lat="45.90751" lon="3.04311">
        <ele>570</ele>
      </trkpt>
      <trkpt lat="45.90698" lon="3.04185">
        <ele>568</ele>
      </trkpt>
      <trkpt lat="45.90554" lon="3.04086">
        <ele>581.3</ele>
      </trkpt>
      <trkpt lat="45.9036" lon="3.04287">
        <ele>594.5</ele>
      </trkpt>
      <trkpt lat="45.90324" lon="3.04151">
        <ele>630.6</ele>
      </trkpt>
      <trkpt lat="45.90417" lon="3.04049">
        <ele>629.7</ele>
      </trkpt>
      <trkpt lat="45.90405" lon="3.03923">
        <ele>645</ele>
      </trkpt>
      <trkpt lat="45.90538" lon="3.03828">
        <ele>651.7</ele>
      </trkpt>
      <trkpt lat="45.90514" lon="3.0367">
        <ele>664.3</ele>
      </trkpt>
      <trkpt lat="45.90329" lon="3.03397">
        <ele>698.8</ele>
      </trkpt>
      <trkpt lat="45.90326" lon="3.02888">
        <ele>719.4</ele>
      </trkpt>
      <trkpt lat="45.90505" lon="3.02591">
        <ele>726.9</ele>
      </trkpt>
      <trkpt lat="45.90638" lon="3.02493">
        <ele>723.7</ele>
      </trkpt>
      <trkpt lat="45.90577" lon="3.02302">
        <ele>722.9</ele>
      </trkpt>
      <trkpt lat="45.90588" lon="3.01902">
        <ele>730.1</ele>
      </trkpt>
      <trkpt lat="45.90652" lon="3.01787">
        <ele>722.3</ele>
      </trkpt>
      <trkpt lat="45.90742" lon="3.00967">
        <ele>720.3</ele>
      </trkpt>
      <trkpt lat="45.90724" lon="3.00593">
        <ele>711.1</ele>
      </trkpt>
      <trkpt lat="45.90519" lon="3.00597">
        <ele>706.5</ele>
      </trkpt>
      <trkpt lat="45.90316" lon="3.00778">
        <ele>724.9</ele>
      </trkpt>
      <trkpt lat="45.90286" lon="3.00935">
        <ele>728.3</ele>
      </trkpt>
      <trkpt lat="45.90042" lon="3.01122">
        <ele>720.2</ele>
      </trkpt>
      <trkpt lat="45.8999" lon="3.01054">
        <ele>727.8</ele>
      </trkpt>
      <trkpt lat="45.8997" lon="3.00648">
        <ele>751.5</ele>
      </trkpt>
      <trkpt lat="45.89809" lon="3.0014">
        <ele>771.6</ele>
      </trkpt>
      <trkpt lat="45.89791" lon="3.00114">
        <ele>772.7</ele>
      </trkpt>
      <trkpt lat="45.89619" lon="2.9998">
        <ele>781</ele>
      </trkpt>
      <trkpt lat="45.89519" lon="2.99682">
        <ele>788</ele>
      </trkpt>
      <trkpt lat="45.89508" lon="2.99676">
        <ele>788.2</ele>
      </trkpt>
      <trkpt lat="45.89421" lon="2.99179">
        <ele>785.9</ele>
      </trkpt>
      <trkpt lat="45.89572" lon="2.98672">
        <ele>788.6</ele>
      </trkpt>
      <trkpt lat="45.89996" lon="2.98213">
        <ele>784.7</ele>
      </trkpt>
      <trkpt lat="45.90156" lon="2.97744">
        <ele>787.6</ele>
      </trkpt>
      <trkpt lat="45.89868" lon="2.96919">
        <ele>801.8</ele>
      </trkpt>
      <trkpt lat="45.89861" lon="2.96913">
        <ele>802.1</ele>
      </trkpt>
      <trkpt lat="45.8981" lon="2.964">
        <ele>809.2</ele>
      </trkpt>
      <trkpt lat="45.89716" lon="2.95552">
        <ele>812.2</ele>
      </trkpt>
      <trkpt lat="45.89712" lon="2.95539">
        <ele>812.4</ele>
      </trkpt>
      <trkpt lat="45.89951" lon="2.95303">
        <ele>807.8</ele>
      </trkpt>
      <trkpt lat="45.90253" lon="2.95703">
        <ele>799.6</ele>
      </trkpt>
      <trkpt lat="45.90347" lon="2.95356">
        <ele>818.2</ele>
      </trkpt>
      <trkpt lat="45.90347" lon="2.94963">
        <ele>831.8</ele>
      </trkpt>
      <trkpt lat="45.90197" lon="2.94803">
        <ele>842.3</ele>
      </trkpt>
      <trkpt lat="45.90379" lon="2.94473">
        <ele>856</ele>
      </trkpt>
      <trkpt lat="45.90254" lon="2.94221">
        <ele>858.2</ele>
      </trkpt>
      <trkpt lat="45.90245" lon="2.94211">
        <ele>859.5</ele>
      </trkpt>
      <trkpt lat="45.90214" lon="2.93344">
        <ele>876.1</ele>
      </trkpt>
      <trkpt lat="45.90466" lon="2.9325">
        <ele>871.7</ele>
      </trkpt>
      <trkpt lat="45.90549" lon="2.92903">
        <ele>874.6</ele>
      </trkpt>
      <trkpt lat="45.90733" lon="2.92931">
        <ele>882</ele>
      </trkpt>
      <trkpt lat="45.91048" lon="2.93398">
        <ele>885.2</ele>
      </trkpt>
      <trkpt lat="45.91063" lon="2.93409">
        <ele>887</ele>
        <time>2017-10-11T05:02:46Z</time>
      </trkpt>
      <trkpt lat="45.91073" lon="2.9342">
        <ele>886</ele>
        <time>2017-10-11T05:04:46Z</time>
      </trkpt>
      <trkpt lat="45.91078" lon="2.93427">
        <ele>886</ele>
        <time>2017-10-11T05:06:46Z</time>
      </trkpt>
      <trkpt lat="45.91084" lon="2.93428">
        <ele>886</ele>
        <time>2017-10-11T05:08:46Z</time>
      </trkpt>
      <trkpt lat="45.91087" lon="2.93424">
        <ele>887</ele>
        <time>2017-10-11T05:10:46Z</time>
      </trkpt>
      <trkpt lat="45.91092" lon="2.93419">
        <ele>888</ele>
        <time>2017-10-11T05:12:46Z</time>
      </trkpt>
      <trkpt lat="45.91095" lon="2.93418">
        <ele>888</ele>
        <time>2017-10-11T05:14:46Z</time>
      </trkpt>
      <trkpt lat="45.91097" lon="2.93419">
        <ele>888</ele>
        <time>2017-10-11T05:16:46Z</time>
      </trkpt>
      <trkpt lat="45.91101" lon="2.93422">
        <ele>888</ele>
        <time>2017-10-11T05:18:46Z</time>
      </trkpt>
      <trkpt lat="45.91107" lon="2.93428">
        <ele>889</ele>
        <time>2017-10-11T05:20:46Z</time>
      </trkpt>
      <trkpt lat="45.9111" lon="2.93433">
        <ele>889</ele>
        <time>2017-10-11T05:22:46Z</time>
      </trkpt>
      <trkpt lat="45.91116" lon="2.93442">
        <ele>888</ele>
        <time>2017-10-11T05:24:46Z</time>
      </trkpt>
      <trkpt lat="45.91118" lon="2.93444">
        <ele>888</ele>
        <time>2017-10-11T05:26:46Z</time>
      </trkpt>
      <trkpt lat="45.91123" lon="2.93452">
        <ele>888</ele>
        <time>2017-10-11T05:28:46Z</time>
      </trkpt>
      <trkpt lat="45.91132" lon="2.93464">
        <ele>888</ele>
        <time>2017-10-11T05:30:46Z</time>
      </trkpt>
      <trkpt lat="45.91138" lon="2.93471">
        <ele>888</ele>
        <time>2017-10-11T05:32:46Z</time>
      </trkpt>
      <trkpt lat="45.91148" lon="2.9348">
        <ele>889</ele>
        <time>2017-10-11T05:34:46Z</time>
      </trkpt>
      <trkpt lat="45.91178" lon="2.935">
        <ele>890</ele>
        <time>2017-10-11T05:36:46Z</time>
      </trkpt>
      <trkpt lat="45.91182" lon="2.93504">
        <ele>889</ele>
        <time>2017-10-11T05:38:46Z</time>
      </trkpt>
      <trkpt lat="45.91184" lon="2.93506">
        <ele>889</ele>
        <time>2017-10-11T05:40:46Z</time>
      </trkpt>
      <trkpt lat="45.91203" lon="2.93518">
        <ele>889</ele>
        <time>2017-10-11T05:42:46Z</time>
      </trkpt>
      <trkpt lat="45.9121" lon="2.93522">
        <ele>889</ele>
        <time>2017-10-11T05:44:46Z</time>
      </trkpt>
      <trkpt lat="45.91224" lon="2.93529">
        <ele>888</ele>
        <time>2017-10-11T05:46:46Z</time>
      </trkpt>
      <trkpt lat="45.91253" lon="2.93541">
        <ele>888</ele>
        <time>2017-10-11T05:48:46Z</time>
      </trkpt>
      <trkpt lat="45.91264" lon="2.93543">
        <ele>888</ele>
        <time>2017-10-11T05:50:46Z</time>
      </trkpt>
      <trkpt lat="45.91273" lon="2.93543">
        <ele>888</ele>
        <time>2017-10-11T05:52:46Z</time>
      </trkpt>
      <trkpt lat="45.91293" lon="2.93538">
        <ele>889</ele>
        <time>2017-10-11T05:54:46Z</time>
      </trkpt>
      <trkpt lat="45.91305" lon="2.93536">
        <ele>889</ele>
        <time>2017-10-11T05:56:46Z</time>
      </trkpt>
      <trkpt lat="45.91309" lon="2.93537">
        <ele>889</ele>
        <time>2017-10-11T05:58:46Z</time>
      </trkpt>
      <trkpt lat="45.91327" lon="2.93542">
        <ele>888</ele>
        <time>2017-10-11T06:00:46Z</time>
      </trkpt>
      <trkpt lat="45.91347" lon="2.93551">
        <ele>888</ele>
        <time>2017-10-11T06:02:46Z</time>
      </trkpt>
      <trkpt lat="45.91376" lon="2.93562">
        <ele>889</ele>
        <time>2017-10-11T06:04:46Z</time>
      </trkpt>
      <trkpt lat="45.91404" lon="2.93575">
        <ele>890</ele>
        <time>2017-10-11T06:06:46Z</time>
      </trkpt>
      <trkpt lat="45.9144" lon="2.93593">
        <ele>890</ele>
        <time>2017-10-11T06:08:46Z</time>
      </trkpt>
      <trkpt lat="45.91451" lon="2.93599">
        <ele>890</ele>
        <time>2017-10-11T06:10:46Z</time>
      </trkpt>
      <trkpt lat="45.91455" lon="2.93598">
        <ele>890</ele>
        <time>2017-10-11T06:12:46Z</time>
      </trkpt>
      <trkpt lat="45.91461" lon="2.93598">
        <ele>890</ele>
        <time>2017-10-11T06:14:46Z</time>
      </trkpt>
      <trkpt lat="45.91472" lon="2.93594">
        <ele>890</ele>
        <time>2017-10-11T06:16:46Z</time>
      </trkpt>
      <trkpt lat="45.91492" lon="2.93586">
        <ele>891</ele>
        <time>2017-10-11T06:18:46Z</time>
      </trkpt>
      <trkpt lat="45.91532" lon="2.93574">
        <ele>891</ele>
        <time>2017-10-11T06:20:46Z</time>
      </trkpt>
      <trkpt lat="45.91541" lon="2.93574">
        <ele>891</ele>
        <time>2017-10-11T06:22:46Z</time>
      </trkpt>
      <trkpt lat="45.91557" lon="2.93575">
        <ele>891</ele>
        <time>2017-10-11T06:24:46Z</time>
      </trkpt>
      <trkpt lat="45.91594" lon="2.93587">
        <ele>890</ele>
        <time>2017-10-11T06:26:46Z</time>
      </trkpt>
      <trkpt lat="45.91616" lon="2.93591">
        <ele>890</ele>
        <time>2017-10-11T06:28:46Z</time>
      </trkpt>
      <trkpt lat="45.91632" lon="2.93594">
        <ele>890</ele>
        <time>2017-10-11T06:30:46Z</time>
      </trkpt>
      <trkpt lat="45.91672" lon="2.93598">
        <ele>890</ele>
        <time>2017-10-11T06:32:46Z</time>
      </trkpt>
      <trkpt lat="45.91693" lon="2.93596">
        <ele>889</ele>
        <time>2017-10-11T06:34:46Z</time>
      </trkpt>
      <trkpt lat="45.91716" lon="2.93587">
        <ele>890</ele>
        <time>2017-10-11T06:36:46Z</time>
      </trkpt>
      <trkpt lat="45.91724" lon="2.93583">
        <ele>890</ele>
        <time>2017-10-11T06:38:46Z</time>
      </trkpt>
      <trkpt lat="45.91733" lon="2.93579">
        <ele>891</ele>
        <time>2017-10-11T06:40:46Z</time>
      </trkpt>
      <trkpt lat="45.91743" lon="2.93577">
        <ele>891</ele>
        <time>2017-10-11T06:42:46Z</time>
      </trkpt>
      <trkpt lat="45.91749" lon="2.93578">
        <ele>891</ele>
        <time>2017-10-11T06:44:46Z</time>
      </trkpt>
      <trkpt lat="45.91758" lon="2.93583">
        <ele>891</ele>
        <time>2017-10-11T06:46:46Z</time>
      </trkpt>
      <trkpt lat="45.91762" lon="2.93588">
        <ele>890</ele>
        <time>2017-10-11T06:48:46Z</time>
      </trkpt>
      <trkpt lat="45.91775" lon="2.93608">
        <ele>889</ele>
        <time>2017-10-11T06:50:46Z</time>
      </trkpt>
      <trkpt lat="45.91788" lon="2.93632">
        <ele>888</ele>
        <time>2017-10-11T06:52:46Z</time>
      </trkpt>
      <trkpt lat="45.91796" lon="2.93647">
        <ele>887</ele>
        <time>2017-10-11T06:54:46Z</time>
      </trkpt>
      <trkpt lat="45.9182" lon="2.937">
        <ele>885</ele>
        <time>2017-10-11T06:56:46Z</time>
      </trkpt>
      <trkpt lat="45.91828" lon="2.93724">
        <ele>884</ele>
        <time>2017-10-11T06:58:46Z</time>
      </trkpt>
      <trkpt lat="45.91838" lon="2.93759">
        <ele>882</ele>
        <time>2017-10-11T07:00:46Z</time>
      </trkpt>
      <trkpt lat="45.9184" lon="2.9377">
        <ele>881</ele>
        <time>2017-10-11T07:02:46Z</time>
      </trkpt>
      <trkpt lat="45.91842" lon="2.93781">
        <ele>881</ele>
        <time>2017-10-11T07:04:46Z</time>
      </trkpt>
      <trkpt lat="45.91843" lon="2.93787">
        <ele>881</ele>
        <time>2017-10-11T07:06:46Z</time>
      </trkpt>
      <trkpt lat="45.91845" lon="2.93791">
        <ele>881</ele>
        <time>2017-10-11T07:08:46Z</time>
      </trkpt>
      <trkpt lat="45.9185" lon="2.938">
        <ele>880</ele>
        <time>2017-10-11T07:10:46Z</time>
      </trkpt>
      <trkpt lat="45.91856" lon="2.9381">
        <ele>880</ele>
        <time>2017-10-11T07:12:46Z</time>
      </trkpt>
      <trkpt lat="45.91865" lon="2.93824">
        <ele>880</ele>
        <time>2017-10-11T07:14:46Z</time>
      </trkpt>
      <trkpt lat="45.91875" lon="2.93833">
        <ele>881</ele>
        <time>2017-10-11T07:16:46Z</time>
      </trkpt>
      <trkpt lat="45.9189" lon="2.93848">
        <ele>881</ele>
        <time>2017-10-11T07:18:46Z</time>
      </trkpt>
      <trkpt lat="45.91903" lon="2.93857">
        <ele>881</ele>
        <time>2017-10-11T07:20:46Z</time>
      </trkpt>
      <trkpt lat="45.91917" lon="2.93866">
        <ele>881</ele>
        <time>2017-10-11T07:22:46Z</time>
      </trkpt>
      <trkpt lat="45.91947" lon="2.93883">
        <ele>880</ele>
        <time>2017-10-11T07:24:46Z</time>
      </trkpt>
      <trkpt lat="45.91967" lon="2.93894">
        <ele>879</ele>
        <time>2017-10-11T07:26:46Z</time>
      </trkpt>
      <trkpt lat="45.91983" lon="2.93904">
        <ele>879</ele>
        <time>2017-10-11T07:28:46Z</time>
      </trkpt>
      <trkpt lat="45.92002" lon="2.93913">
        <ele>879</ele>
        <time>2017-10-11T07:30:46Z</time>
      </trkpt>
      <trkpt lat="45.92016" lon="2.93926">
        <ele>879</ele>
        <time>2017-10-11T07:32:46Z</time>
      </trkpt>
      <trkpt lat="45.92037" lon="2.9394">
        <ele>879</ele>
        <time>2017-10-11T07:34:46Z</time>
      </trkpt>
      <trkpt lat="45.92047" lon="2.93946">
        <ele>879</ele>
        <time>2017-10-11T07:36:46Z</time>
      </trkpt>
      <trkpt lat="45.92057" lon="2.93953">
        <ele>879</ele>
        <time>2017-10-11T07:38:46Z</time>
      </trkpt>
      <trkpt lat="45.92076" lon="2.93964">
        <ele>879</ele>
        <time>2017-10-11T07:40:46Z</time>
      </trkpt>
      <trkpt lat="45.92089" lon="2.93971">
        <ele>879</ele>
        <time>2017-10-11T07:42:46Z</time>
      </trkpt>
      <trkpt lat="45.92106" lon="2.93979">
        <ele>879</ele>
        <time>2017-10-11T07:44:46Z</time>
      </trkpt>
      <trkpt lat="45.92114" lon="2.93982">
        <ele>879</ele>
        <time>2017-10-11T07:46:46Z</time>
      </trkpt>
      <trkpt lat="45.92142" lon="2.93994">
        <ele>879</ele>
        <time>2017-10-11T07:48:46Z</time>
      </trkpt>
      <trkpt lat="45.92155" lon="2.93998">
        <ele>880</ele>
        <time>2017-10-11T07:50:46Z</time>
      </trkpt>
      <trkpt lat="45.92164" lon="2.94001">
        <ele>880</ele>
        <time>2017-10-11T07:52:46Z</time>
      </trkpt>
      <trkpt lat="45.92172" lon="2.94004">
        <ele>880</ele>
        <time>2017-10-11T07:54:46Z</time>
      </trkpt>
      <trkpt lat="45.92184" lon="2.94008">
        <ele>879</ele>
        <time>2017-10-11T07:56:46Z</time>
      </trkpt>
      <trkpt lat="45.92192" lon="2.94011">
        <ele>879</ele>
        <time>2017-10-11T07:58:46Z</time>
      </trkpt>
      <trkpt lat="45.92208" lon="2.94019">
        <ele>879</ele>
        <time>2017-10-11T08:00:46Z</time>
      </trkpt>
      <trkpt lat="45.92227" lon="2.94029">
        <ele>879</ele>
        <time>2017-10-11T08:02:46Z</time>
      </trkpt>
      <trkpt lat="45.92235" lon="2.94033">
        <ele>879</ele>
        <time>2017-10-11T08:04:46Z</time>
      </trkpt>
      <trkpt lat="45.92271" lon="2.94049">
        <ele>879</ele>
        <time>2017-10-11T08:06:46Z</time>
      </trkpt>
      <trkpt lat="45.92305" lon="2.94066">
        <ele>879</ele>
        <time>2017-10-11T08:08:46Z</time>
      </trkpt>
      <trkpt lat="45.92323" lon="2.94074">
        <ele>879</ele>
        <time>2017-10-11T08:10:46Z</time>
      </trkpt>
      <trkpt lat="45.92333" lon="2.94076">
        <ele>879</ele>
        <time>2017-10-11T08:12:46Z</time>
      </trkpt>
      <trkpt lat="45.92342" lon="2.94078">
        <ele>879</ele>
        <time>2017-10-11T08:14:46Z</time>
      </trkpt>
      <trkpt lat="45.92355" lon="2.94083">
        <ele>878</ele>
        <time>2017-10-11T08:16:46Z</time>
      </trkpt>
      <trkpt lat="45.92365" lon="2.94085">
        <ele>877</ele>
        <time>2017-10-11T08:18:46Z</time>
      </trkpt>
      <trkpt lat="45.92389" lon="2.94089">
        <ele>876</ele>
        <time>2017-10-11T08:20:46Z</time>
      </trkpt>
      <trkpt lat="45.92405" lon="2.9409">
        <ele>876</ele>
        <time>2017-10-11T08:22:46Z</time>
      </trkpt>
      <trkpt lat="45.92428" lon="2.94094">
        <ele>874</ele>
        <time>2017-10-11T08:24:46Z</time>
      </trkpt>
      <trkpt lat="45.92452" lon="2.941">
        <ele>873</ele>
        <time>2017-10-11T08:26:46Z</time>
      </trkpt>
      <trkpt lat="45.92465" lon="2.94102">
        <ele>872</ele>
        <time>2017-10-11T08:28:46Z</time>
      </trkpt>
      <trkpt lat="45.92492" lon="2.94107">
        <ele>870</ele>
        <time>2017-10-11T08:30:46Z</time>
      </trkpt>
      <trkpt lat="45.92519" lon="2.9411">
        <ele>869</ele>
        <time>2017-10-11T08:32:46Z</time>
      </trkpt>
      <trkpt lat="45.92532" lon="2.94113">
        <ele>868</ele>
        <time>2017-10-11T08:34:46Z</time>
      </trkpt>
      <trkpt lat="45.92545" lon="2.9412">
        <ele>868</ele>
        <time>2017-10-11T08:36:46Z</time>
      </trkpt>
      <trkpt lat="45.92573" lon="2.94138">
        <ele>866</ele>
        <time>2017-10-11T08:38:46Z</time>
      </trkpt>
      <trkpt lat="45.92579" lon="2.94141">
        <ele>866</ele>
        <time>2017-10-11T08:40:46Z</time>
      </trkpt>
      <trkpt lat="45.92588" lon="2.94137">
        <ele>866</ele>
        <time>2017-10-11T08:42:46Z</time>
      </trkpt>
      <trkpt lat="45.92589" lon="2.94114">
        <ele>865</ele>
        <time>2017-10-11T08:44:46Z</time>
      </trkpt>
      <trkpt lat="45.9259" lon="2.94068">
        <ele>865</ele>
        <time>2017-10-11T08:46:46Z</time>
      </trkpt>
      <trkpt lat="45.92591" lon="2.9403">
        <ele>864</ele>
        <time>2017-10-11T08:48:46Z</time>
      </trkpt>
      <trkpt lat="45.92593" lon="2.94014">
        <ele>863</ele>
        <time>2017-10-11T08:50:46Z</time>
      </trkpt>
      <trkpt lat="45.92595" lon="2.93996">
        <ele>863</ele>
        <time>2017-10-11T08:52:46Z</time>
      </trkpt>
      <trkpt lat="45.92602" lon="2.93951">
        <ele>861</ele>
        <time>2017-10-11T08:54:46Z</time>
      </trkpt>
      <trkpt lat="45.92606" lon="2.93932">
        <ele>861</ele>
        <time>2017-10-11T08:56:46Z</time>
      </trkpt>
      <trkpt lat="45.9261" lon="2.93913">
        <ele>860</ele>
        <time>2017-10-11T08:58:46Z</time>
      </trkpt>
      <trkpt lat="45.92616" lon="2.93887">
        <ele>859</ele>
        <time>2017-10-11T09:00:46Z</time>
      </trkpt>
      <trkpt lat="45.92633" lon="2.93831">
        <ele>858</ele>
        <time>2017-10-11T09:02:46Z</time>
      </trkpt>
      <trkpt lat="45.92637" lon="2.93814">
        <ele>858</ele>
        <time>2017-10-11T09:04:46Z</time>
      </trkpt>
      <trkpt lat="45.92639" lon="2.93798">
        <ele>858</ele>
        <time>2017-10-11T09:06:46Z</time>
      </trkpt>
      <trkpt lat="45.92641" lon="2.93767">
        <ele>858</ele>
        <time>2017-10-11T09:08:46Z</time>
      </trkpt>
      <trkpt lat="45.92642" lon="2.93757">
        <ele>858</ele>
        <time>2017-10-11T09:10:46Z</time>
      </trkpt>
      <trkpt lat="45.92643" lon="2.93744">
        <ele>858</ele>
        <time>2017-10-11T09:12:46Z</time>
      </trkpt>
      <trkpt lat="45.92643" lon="2.93732">
        <ele>858</ele>
        <time>2017-10-11T09:14:46Z</time>
      </trkpt>
      <trkpt lat="45.92636" lon="2.93704">
        <ele>857</ele>
        <time>2017-10-11T09:16:46Z</time>
      </trkpt>
      <trkpt lat="45.92633" lon="2.93692">
        <ele>856</ele>
        <time>2017-10-11T09:18:46Z</time>
      </trkpt>
      <trkpt lat="45.92632" lon="2.93686">
        <ele>856</ele>
        <time>2017-10-11T09:20:46Z</time>
      </trkpt>
      <trkpt lat="45.92633" lon="2.93672">
        <ele>856</ele>
        <time>2017-10-11T09:22:46Z</time>
      </trkpt>
      <trkpt lat="45.92634" lon="2.93665">
        <ele>856</ele>
        <time>2017-10-11T09:24:46Z</time>
      </trkpt>
      <trkpt lat="45.92638" lon="2.93642">
        <ele>855</ele>
        <time>2017-10-11T09:26:46Z</time>
      </trkpt>
      <trkpt lat="45.9264" lon="2.93621">
        <ele>854</ele>
        <time>2017-10-11T09:28:46Z</time>
      </trkpt>
      <trkpt lat="45.92642" lon="2.9361">
        <ele>854</ele>
        <time>2017-10-11T09:30:46Z</time>
      </trkpt>
      <trkpt lat="45.92645" lon="2.93599">
        <ele>853</ele>
        <time>2017-10-11T09:32:46Z</time>
      </trkpt>
      <trkpt lat="45.92652" lon="2.93588">
        <ele>853</ele>
        <time>2017-10-11T09:34:46Z</time>
      </trkpt>
      <trkpt lat="45.92658" lon="2.93581">
        <ele>852</ele>
        <time>2017-10-11T09:36:46Z</time>
      </trkpt>
      <trkpt lat="45.92667" lon="2.93571">
        <ele>852</ele>
        <time>2017-10-11T09:38:46Z</time>
      </trkpt>
      <trkpt lat="45.92671" lon="2.93569">
        <ele>852</ele>
        <time>2017-10-11T09:40:46Z</time>
      </trkpt>
      <trkpt lat="45.92686" lon="2.9356">
        <ele>851</ele>
        <time>2017-10-11T09:42:46Z</time>
      </trkpt>
      <trkpt lat="45.9269" lon="2.93559">
        <ele>851</ele>
        <time>2017-10-11T09:44:46Z</time>
      </trkpt>
      <trkpt lat="45.92698" lon="2.93553">
        <ele>850</ele>
        <time>2017-10-11T09:46:46Z</time>
      </trkpt>
      <trkpt lat="45.92723" lon="2.93541">
        <ele>848</ele>
        <time>2017-10-11T09:48:46Z</time>
      </trkpt>
      <trkpt lat="45.9274" lon="2.93534">
        <ele>847</ele>
        <time>2017-10-11T09:50:46Z</time>
      </trkpt>
      <trkpt lat="45.92748" lon="2.93528">
        <ele>845</ele>
        <time>2017-10-11T09:52:46Z</time>
      </trkpt>
      <trkpt lat="45.92755" lon="2.9352">
        <ele>844</ele>
        <time>2017-10-11T09:54:46Z</time>
      </trkpt>
      <trkpt lat="45.92757" lon="2.93517">
        <ele>844</ele>
        <time>2017-10-11T09:56:46Z</time>
      </trkpt>
      <trkpt lat="45.92762" lon="2.93514">
        <ele>843</ele>
        <time>2017-10-11T09:58:46Z</time>
      </trkpt>
      <trkpt lat="45.92775" lon="2.93505">
        <ele>841</ele>
        <time>2017-10-11T10:00:46Z</time>
      </trkpt>
      <trkpt lat="45.92784" lon="2.935">
        <ele>839</ele>
        <time>2017-10-11T10:02:46Z</time>
      </trkpt>
      <trkpt lat="45.92793" lon="2.93496">
        <ele>838</ele>
        <time>2017-10-11T10:04:46Z</time>
      </trkpt>
      <trkpt lat="45.92807" lon="2.9349">
        <ele>836</ele>
        <time>2017-10-11T10:06:46Z</time>
      </trkpt>
      <trkpt lat="45.92835" lon="2.93477">
        <ele>832</ele>
        <time>2017-10-11T10:08:46Z</time>
      </trkpt>
      <trkpt lat="45.92854" lon="2.93472">
        <ele>831</ele>
        <time>2017-10-11T10:10:46Z</time>
      </trkpt>
      <trkpt lat="45.92867" lon="2.93469">
        <ele>830</ele>
        <time>2017-10-11T10:12:46Z</time>
      </trkpt>
      <trkpt lat="45.92897" lon="2.93462">
        <ele>829</ele>
        <time>2017-10-11T10:14:46Z</time>
      </trkpt>
      <trkpt lat="45.92903" lon="2.93459">
        <ele>828</ele>
        <time>2017-10-11T10:16:46Z</time>
      </trkpt>
      <trkpt lat="45.92909" lon="2.93455">
        <ele>828</ele>
        <time>2017-10-11T10:18:46Z</time>
      </trkpt>
      <trkpt lat="45.92914" lon="2.93449">
        <ele>827</ele>
        <time>2017-10-11T10:20:46Z</time>
      </trkpt>
      <trkpt lat="45.92918" lon="2.9344">
        <ele>826</ele>
        <time>2017-10-11T10:22:46Z</time>
      </trkpt>
      <trkpt lat="45.9293" lon="2.93407">
        <ele>826</ele>
        <time>2017-10-11T10:24:46Z</time>
      </trkpt>
      <trkpt lat="45.92944" lon="2.93358">
        <ele>825</ele>
        <time>2017-10-11T10:26:46Z</time>
      </trkpt>
      <trkpt lat="45.92951" lon="2.93335">
        <ele>825</ele>
        <time>2017-10-11T10:28:46Z</time>
      </trkpt>
      <trkpt lat="45.92954" lon="2.93324">
        <ele>825</ele>
        <time>2017-10-11T10:30:46Z</time>
      </trkpt>
      <trkpt lat="45.9296" lon="2.93304">
        <ele>825</ele>
        <time>2017-10-11T10:32:46Z</time>
      </trkpt>
      <trkpt lat="45.92972" lon="2.9327">
        <ele>824</ele>
        <time>2017-10-11T10:34:46Z</time>
      </trkpt>
      <trkpt lat="45.9298" lon="2.93246">
        <ele>823</ele>
        <time>2017-10-11T10:36:46Z</time>
      </trkpt>
      <trkpt lat="45.93009" lon="2.93174">
        <ele>815</ele>
        <time>2017-10-11T10:38:46Z</time>
      </trkpt>
      <trkpt lat="45.93013" lon="2.93166">
        <ele>814</ele>
        <time>2017-10-11T10:40:46Z</time>
      </trkpt>
      <trkpt lat="45.93015" lon="2.93148">
        <ele>813</ele>
        <time>2017-10-11T10:42:46Z</time>
      </trkpt>
      <trkpt lat="45.93015" lon="2.93139">
        <ele>812</ele>
        <time>2017-10-11T10:44:46Z</time>
      </trkpt>
      <trkpt lat="45.93016" lon="2.9313">
        <ele>812</ele>
        <time>2017-10-11T10:46:46Z</time>
      </trkpt>
      <trkpt lat="45.93017" lon="2.93122">
        <ele>811</ele>
        <time>2017-10-11T10:48:46Z</time>
      </trkpt>
      <trkpt lat="45.93021" lon="2.93114">
        <ele>810</ele>
        <time>2017-10-11T10:50:46Z</time>
      </trkpt>
      <trkpt lat="45.93029" lon="2.931">
        <ele>809</ele>
        <time>2017-10-11T10:52:46Z</time>
      </trkpt>
      <trkpt lat="45.93038" lon="2.93088">
        <ele>807</ele>
        <time>2017-10-11T10:54:46Z</time>
      </trkpt>
      <trkpt lat="45.93044" lon="2.93077">
        <ele>806</ele>
        <time>2017-10-11T10:56:46Z</time>
      </trkpt>
      <trkpt lat="45.9305" lon="2.93067">
        <ele>805</ele>
        <time>2017-10-11T10:58:46Z</time>
      </trkpt>
      <trkpt lat="45.93056" lon="2.93059">
        <ele>804</ele>
        <time>2017-10-11T11:00:46Z</time>
      </trkpt>
      <trkpt lat="45.93065" lon="2.93051">
        <ele>803</ele>
        <time>2017-10-11T11:02:46Z</time>
      </trkpt>
      <trkpt lat="45.93071" lon="2.93049">
        <ele>802</ele>
        <time>2017-10-11T11:04:46Z</time>
      </trkpt>
      <trkpt lat="45.93077" lon="2.93051">
        <ele>802</ele>
        <time>2017-10-11T11:06:46Z</time>
      </trkpt>
      <trkpt lat="45.93084" lon="2.93052">
        <ele>801</ele>
        <time>2017-10-11T11:08:46Z</time>
      </trkpt>
      <trkpt lat="45.93105" lon="2.9305">
        <ele>800</ele>
        <time>2017-10-11T11:10:46Z</time>
      </trkpt>
      <trkpt lat="45.93111" lon="2.93051">
        <ele>799</ele>
        <time>2017-10-11T11:12:46Z</time>
      </trkpt>
      <trkpt lat="45.93124" lon="2.93055">
        <ele>799</ele>
        <time>2017-10-11T11:14:46Z</time>
      </trkpt>
      <trkpt lat="45.93139" lon="2.9306">
        <ele>798</ele>
        <time>2017-10-11T11:16:46Z</time>
      </trkpt>
      <trkpt lat="45.93153" lon="2.93065">
        <ele>798</ele>
        <time>2017-10-11T11:18:46Z</time>
      </trkpt>
      <trkpt lat="45.9316" lon="2.93068">
        <ele>797</ele>
        <time>2017-10-11T11:20:46Z</time>
      </trkpt>
      <trkpt lat="45.93166" lon="2.93072">
        <ele>797</ele>
        <time>2017-10-11T11:22:46Z</time>
      </trkpt>
      <trkpt lat="45.93179" lon="2.93081">
        <ele>796</ele>
        <time>2017-10-11T11:24:46Z</time>
      </trkpt>
      <trkpt lat="45.9319" lon="2.93092">
        <ele>795</ele>
        <time>2017-10-11T11:26:46Z</time>
      </trkpt>
      <trkpt lat="45.93196" lon="2.93098">
        <ele>795</ele>
        <time>2017-10-11T11:28:46Z</time>
      </trkpt>
      <trkpt lat="45.93206" lon="2.93112">
        <ele>794</ele>
        <time>2017-10-11T11:30:46Z</time>
      </trkpt>
      <trkpt lat="45.93216" lon="2.93121">
        <ele>794</ele>
        <time>2017-10-11T11:32:46Z</time>
      </trkpt>
      <trkpt lat="45.93222" lon="2.93123">
        <ele>793</ele>
        <time>2017-10-11T11:34:46Z</time>
      </trkpt>
      <trkpt lat="45.93228" lon="2.93122">
        <ele>792</ele>
        <time>2017-10-11T11:36:46Z</time>
      </trkpt>
      <trkpt lat="45.93234" lon="2.9312">
        <ele>791</ele>
        <time>2017-10-11T11:38:46Z</time>
      </trkpt>
      <trkpt lat="45.93247" lon="2.93114">
        <ele>789</ele>
        <time>2017-10-11T11:40:46Z</time>
      </trkpt>
      <trkpt lat="45.93254" lon="2.9311">
        <ele>790</ele>
        <time>2017-10-11T11:42:46Z</time>
      </trkpt>
      <trkpt lat="45.9326" lon="2.93105">
        <ele>790</ele>
        <time>2017-10-11T11:44:46Z</time>
      </trkpt>
      <trkpt lat="45.93271" lon="2.93094">
        <ele>792</ele>
        <time>2017-10-11T11:46:46Z</time>
      </trkpt>
      <trkpt lat="45.9328" lon="2.93083">
        <ele>793</ele>
        <time>2017-10-11T11:48:46Z</time>
      </trkpt>
      <trkpt lat="45.93286" lon="2.93074">
        <ele>793</ele>
        <time>2017-10-11T11:50:46Z</time>
      </trkpt>
      <trkpt lat="45.93292" lon="2.93063">
        <ele>794</ele>
        <time>2017-10-11T11:52:46Z</time>
      </trkpt>
      <trkpt lat="45.93298" lon="2.93046">
        <ele>795</ele>
        <time>2017-10-11T11:54:46Z</time>
      </trkpt>
      <trkpt lat="45.93301" lon="2.93039">
        <ele>795</ele>
        <time>2017-10-11T11:56:46Z</time>
      </trkpt>
      <trkpt lat="45.93304" lon="2.93034">
        <ele>795</ele>
        <time>2017-10-11T11:58:46Z</time>
      </trkpt>
      <trkpt lat="45.93315" lon="2.93023">
        <ele>796</ele>
        <time>2017-10-11T12:00:46Z</time>
      </trkpt>
      <trkpt lat="45.9332" lon="2.93019">
        <ele>797</ele>
        <time>2017-10-11T12:02:46Z</time>
      </trkpt>
      <trkpt lat="45.93327" lon="2.93015">
        <ele>798</ele>
        <time>2017-10-11T12:04:46Z</time>
      </trkpt>
      <trkpt lat="45.93331" lon="2.93014">
        <ele>798</ele>
        <time>2017-10-11T12:06:46Z</time>
      </trkpt>
      <trkpt lat="45.93335" lon="2.93011">
        <ele>799</ele>
        <time>2017-10-11T12:08:46Z</time>
      </trkpt>
      <trkpt lat="45.9334" lon="2.93008">
        <ele>799</ele>
        <time>2017-10-11T12:10:46Z</time>
      </trkpt>
      <trkpt lat="45.93351" lon="2.93005">
        <ele>801</ele>
        <time>2017-10-11T12:12:46Z</time>
      </trkpt>
      <trkpt lat="45.93358" lon="2.93005">
        <ele>802</ele>
        <time>2017-10-11T12:14:46Z</time>
      </trkpt>
      <trkpt lat="45.9337" lon="2.93006">
        <ele>804</ele>
        <time>2017-10-11T12:16:46Z</time>
      </trkpt>
      <trkpt lat="45.9339" lon="2.9301">
        <ele>807</ele>
        <time>2017-10-11T12:18:46Z</time>
      </trkpt>
      <trkpt lat="45.93397" lon="2.93012">
        <ele>808</ele>
        <time>2017-10-11T12:20:46Z</time>
      </trkpt>
      <trkpt lat="45.93401" lon="2.93014">
        <ele>809</ele>
        <time>2017-10-11T12:22:46Z</time>
      </trkpt>
      <trkpt lat="45.93408" lon="2.93016">
        <ele>810</ele>
        <time>2017-10-11T12:24:46Z</time>
      </trkpt>
      <trkpt lat="45.93415" lon="2.93019">
        <ele>811</ele>
        <time>2017-10-11T12:26:46Z</time>
      </trkpt>
      <trkpt lat="45.93424" lon="2.93017">
        <ele>812</ele>
        <time>2017-10-11T12:28:46Z</time>
      </trkpt>
      <trkpt lat="45.93429" lon="2.9301">
        <ele>813</ele>
        <time>2017-10-11T12:30:46Z</time>
      </trkpt>
      <trkpt lat="45.9343" lon="2.93007">
        <ele>813</ele>
        <time>2017-10-11T12:32:46Z</time>
      </trkpt>
      <trkpt lat="45.9343" lon="2.92999">
        <ele>812</ele>
        <time>2017-10-11T12:34:46Z</time>
      </trkpt>
      <trkpt lat="45.93428" lon="2.9299">
        <ele>812</ele>
        <time>2017-10-11T12:36:46Z</time>
      </trkpt>
      <trkpt lat="45.93428" lon="2.92983">
        <ele>812</ele>
        <time>2017-10-11T12:38:46Z</time>
      </trkpt>
      <trkpt lat="45.93429" lon="2.92975">
        <ele>812</ele>
        <time>2017-10-11T12:40:46Z</time>
      </trkpt>
      <trkpt lat="45.93431" lon="2.92958">
        <ele>812</ele>
        <time>2017-10-11T12:42:46Z</time>
      </trkpt>
      <trkpt lat="45.93432" lon="2.92941">
        <ele>812</ele>
        <time>2017-10-11T12:44:46Z</time>
      </trkpt>
      <trkpt lat="45.93434" lon="2.92929">
        <ele>812</ele>
        <time>2017-10-11T12:46:46Z</time>
      </trkpt>
      <trkpt lat="45.93435" lon="2.92922">
        <ele>812</ele>
        <time>2017-10-11T12:48:46Z</time>
      </trkpt>
      <trkpt lat="45.93439" lon="2.92906">
        <ele>812</ele>
        <time>2017-10-11T12:50:46Z</time>
      </trkpt>
      <trkpt lat="45.93442" lon="2.92887">
        <ele>812</ele>
        <time>2017-10-11T12:52:46Z</time>
      </trkpt>
      <trkpt lat="45.93443" lon="2.92877">
        <ele>812</ele>
        <time>2017-10-11T12:54:46Z</time>
      </trkpt>
      <trkpt lat="45.93444" lon="2.9287">
        <ele>811</ele>
        <time>2017-10-11T12:56:46Z</time>
      </trkpt>
      <trkpt lat="45.93446" lon="2.92867">
        <ele>811</ele>
        <time>2017-10-11T12:58:46Z</time>
      </trkpt>
      <trkpt lat="45.93447" lon="2.92862">
        <ele>811</ele>
        <time>2017-10-11T13:00:46Z</time>
      </trkpt>
      <trkpt lat="45.93448" lon="2.92856">
        <ele>811</ele>
        <time>2017-10-11T13:02:46Z</time>
      </trkpt>
      <trkpt lat="45.9345" lon="2.92846">
        <ele>811</ele>
        <time>2017-10-11T13:04:46Z</time>
      </trkpt>
      <trkpt lat="45.93455" lon="2.92831">
        <ele>811</ele>
        <time>2017-10-11T13:06:46Z</time>
      </trkpt>
      <trkpt lat="45.93459" lon="2.92818">
        <ele>811</ele>
        <time>2017-10-11T13:08:46Z</time>
      </trkpt>
      <trkpt lat="45.93468" lon="2.92803">
        <ele>811</ele>
        <time>2017-10-11T13:10:46Z</time>
      </trkpt>
      <trkpt lat="45.9347" lon="2.92799">
        <ele>811</ele>
        <time>2017-10-11T13:12:46Z</time>
      </trkpt>
      <trkpt lat="45.93474" lon="2.92788">
        <ele>811</ele>
        <time>2017-10-11T13:14:46Z</time>
      </trkpt>
      <trkpt lat="45.93474" lon="2.92778">
        <ele>811</ele>
        <time>2017-10-11T13:16:46Z</time>
      </trkpt>
      <trkpt lat="45.93475" lon="2.92755">
        <ele>811</ele>
        <time>2017-10-11T13:18:46Z</time>
      </trkpt>
      <trkpt lat="45.93475" lon="2.92706">
        <ele>810</ele>
        <time>2017-10-11T13:20:46Z</time>
      </trkpt>
      <trkpt lat="45.93475" lon="2.92675">
        <ele>810</ele>
        <time>2017-10-11T13:22:46Z</time>
      </trkpt>
      <trkpt lat="45.93476" lon="2.92666">
        <ele>811</ele>
        <time>2017-10-11T13:24:46Z</time>
      </trkpt>
      <trkpt lat="45.93479" lon="2.92653">
        <ele>811</ele>
        <time>2017-10-11T13:26:46Z</time>
      </trkpt>
      <trkpt lat="45.93482" lon="2.92643">
        <ele>811</ele>
        <time>2017-10-11T13:28:46Z</time>
      </trkpt>
      <trkpt lat="45.93499" lon="2.92609">
        <ele>813</ele>
        <time>2017-10-11T13:30:46Z</time>
      </trkpt>
      <trkpt lat="45.93506" lon="2.92596">
        <ele>813</ele>
        <time>2017-10-11T13:32:46Z</time>
      </trkpt>
      <trkpt lat="45.93511" lon="2.92583">
        <ele>814</ele>
        <time>2017-10-11T13:34:46Z</time>
      </trkpt>
      <trkpt lat="45.93518" lon="2.92569">
        <ele>814</ele>
        <time>2017-10-11T13:36:46Z</time>
      </trkpt>
      <trkpt lat="45.93525" lon="2.92555">
        <ele>815</ele>
        <time>2017-10-11T13:38:46Z</time>
      </trkpt>
      <trkpt lat="45.93526" lon="2.92551">
        <ele>815</ele>
        <time>2017-10-11T13:40:46Z</time>
      </trkpt>
      <trkpt lat="45.93536" lon="2.92533">
        <ele>816</ele>
        <time>2017-10-11T13:42:46Z</time>
      </trkpt>
      <trkpt lat="45.9354" lon="2.92525">
        <ele>817</ele>
        <time>2017-10-11T13:44:46Z</time>
      </trkpt>
      <trkpt lat="45.93549" lon="2.92511">
        <ele>818</ele>
        <time>2017-10-11T13:46:46Z</time>
      </trkpt>
      <trkpt lat="45.93564" lon="2.92487">
        <ele>820</ele>
        <time>2017-10-11T13:48:46Z</time>
      </trkpt>
      <trkpt lat="45.93577" lon="2.92468">
        <ele>822</ele>
        <time>2017-10-11T13:50:46Z</time>
      </trkpt>
      <trkpt lat="45.93584" lon="2.92457">
        <ele>823</ele>
        <time>2017-10-11T13:52:46Z</time>
      </trkpt>
      <trkpt lat="45.93594" lon="2.9244">
        <ele>823</ele>
        <time>2017-10-11T13:54:46Z</time>
      </trkpt>
      <trkpt lat="45.93608" lon="2.92421">
        <ele>824</ele>
        <time>2017-10-11T13:56:46Z</time>
      </trkpt>
      <trkpt lat="45.93614" lon="2.92414">
        <ele>825</ele>
        <time>2017-10-11T13:58:46Z</time>
      </trkpt>
      <trkpt lat="45.93625" lon="2.92404">
        <ele>826</ele>
        <time>2017-10-11T14:00:46Z</time>
      </trkpt>
      <trkpt lat="45.93634" lon="2.92398">
        <ele>827</ele>
        <time>2017-10-11T14:02:46Z</time>
      </trkpt>
      <trkpt lat="45.93646" lon="2.92392">
        <ele>828</ele>
        <time>2017-10-11T14:04:46Z</time>
      </trkpt>
      <trkpt lat="45.93668" lon="2.92384">
        <ele>831</ele>
        <time>2017-10-11T14:06:46Z</time>
      </trkpt>
      <trkpt lat="45.9371" lon="2.92371">
        <ele>834</ele>
        <time>2017-10-11T14:08:46Z</time>
      </trkpt>
      <trkpt lat="45.93724" lon="2.92366">
        <ele>836</ele>
        <time>2017-10-11T14:10:46Z</time>
      </trkpt>
      <trkpt lat="45.93735" lon="2.92363">
        <ele>837</ele>
        <time>2017-10-11T14:12:46Z</time>
      </trkpt>
      <trkpt lat="45.93762" lon="2.92358">
        <ele>838</ele>
        <time>2017-10-11T14:14:46Z</time>
      </trkpt>
      <trkpt lat="45.93769" lon="2.92356">
        <ele>838</ele>
        <time>2017-10-11T14:16:46Z</time>
      </trkpt>
      <trkpt lat="45.93777" lon="2.92355">
        <ele>838</ele>
        <time>2017-10-11T14:18:46Z</time>
      </trkpt>
      <trkpt lat="45.93783" lon="2.92358">
        <ele>839</ele>
        <time>2017-10-11T14:20:46Z</time>
      </trkpt>
      <trkpt lat="45.93786" lon="2.92362">
        <ele>839</ele>
        <time>2017-10-11T14:22:46Z</time>
      </trkpt>
      <trkpt lat="45.93787" lon="2.92367">
        <ele>839</ele>
        <time>2017-10-11T14:24:46Z</time>
      </trkpt>
      <trkpt lat="45.93785" lon="2.92374">
        <ele>839</ele>
        <time>2017-10-11T14:26:46Z</time>
      </trkpt>
      <trkpt lat="45.93784" lon="2.92385">
        <ele>840</ele>
        <time>2017-10-11T14:28:46Z</time>
      </trkpt>
      <trkpt lat="45.93781" lon="2.92398">
        <ele>840</ele>
        <time>2017-10-11T14:30:46Z</time>
      </trkpt>
      <trkpt lat="45.93777" lon="2.92429">
        <ele>842</ele>
        <time>2017-10-11T14:32:46Z</time>
      </trkpt>
      <trkpt lat="45.93776" lon="2.9244">
        <ele>843</ele>
        <time>2017-10-11T14:34:46Z</time>
      </trkpt>
      <trkpt lat="45.93777" lon="2.92456">
        <ele>845</ele>
        <time>2017-10-11T14:36:46Z</time>
      </trkpt>
      <trkpt lat="45.93779" lon="2.92472">
        <ele>846</ele>
        <time>2017-10-11T14:38:46Z</time>
      </trkpt>
      <trkpt lat="45.93781" lon="2.92482">
        <ele>847</ele>
        <time>2017-10-11T14:40:46Z</time>
      </trkpt>
      <trkpt lat="45.93782" lon="2.925">
        <ele>849</ele>
        <time>2017-10-11T14:42:46Z</time>
      </trkpt>
      <trkpt lat="45.93785" lon="2.9253">
        <ele>851</ele>
        <time>2017-10-11T14:44:46Z</time>
      </trkpt>
      <trkpt lat="45.93785" lon="2.92548">
        <ele>853</ele>
        <time>2017-10-11T14:46:46Z</time>
      </trkpt>
      <trkpt lat="45.93786" lon="2.92571">
        <ele>855</ele>
        <time>2017-10-11T14:48:46Z</time>
      </trkpt>
      <trkpt lat="45.93784" lon="2.92589">
        <ele>856</ele>
        <time>2017-10-11T14:50:46Z</time>
      </trkpt>
      <trkpt lat="45.93785" lon="2.92604">
        <ele>857</ele>
        <time>2017-10-11T14:52:46Z</time>
      </trkpt>
      <trkpt lat="45.93786" lon="2.92617">
        <ele>857</ele>
        <time>2017-10-11T14:54:46Z</time>
      </trkpt>
      <trkpt lat="45.93785" lon="2.92633">
        <ele>858</ele>
        <time>2017-10-11T14:56:46Z</time>
      </trkpt>
      <trkpt lat="45.93785" lon="2.92647">
        <ele>858</ele>
        <time>2017-10-11T14:58:46Z</time>
      </trkpt>
      <trkpt lat="45.93785" lon="2.92663">
        <ele>859</ele>
        <time>2017-10-11T15:00:46Z</time>
      </trkpt>
      <trkpt lat="45.93784" lon="2.92667">
        <ele>859</ele>
        <time>2017-10-11T15:02:46Z</time>
      </trkpt>
      <trkpt lat="45.93783" lon="2.92671">
        <ele>859</ele>
        <time>2017-10-11T15:04:46Z</time>
      </trkpt>
      <trkpt lat="45.93783" lon="2.92685">
        <ele>859</ele>
        <time>2017-10-11T15:06:46Z</time>
      </trkpt>
      <trkpt lat="45.93783" lon="2.92711">
        <ele>859</ele>
        <time>2017-10-11T15:08:46Z</time>
      </trkpt>
      <trkpt lat="45.93784" lon="2.92735">
        <ele>859</ele>
        <time>2017-10-11T15:10:46Z</time>
      </trkpt>
      <trkpt lat="45.93785" lon="2.9275">
        <ele>859</ele>
        <time>2017-10-11T15:12:46Z</time>
      </trkpt>
      <trkpt lat="45.9379" lon="2.92773">
        <ele>858</ele>
        <time>2017-10-11T15:14:46Z</time>
      </trkpt>
      <trkpt lat="45.93797" lon="2.92807">
        <ele>857</ele>
        <time>2017-10-11T15:16:46Z</time>
      </trkpt>
      <trkpt lat="45.93801" lon="2.92836">
        <ele>857</ele>
        <time>2017-10-11T15:18:46Z</time>
      </trkpt>
      <trkpt lat="45.93804" lon="2.92855">
        <ele>857</ele>
        <time>2017-10-11T15:20:46Z</time>
      </trkpt>
      <trkpt lat="45.93806" lon="2.92884">
        <ele>856</ele>
        <time>2017-10-11T15:22:46Z</time>
      </trkpt>
      <trkpt lat="45.93807" lon="2.92902">
        <ele>856</ele>
        <time>2017-10-11T15:24:46Z</time>
      </trkpt>
      <trkpt lat="45.93805" lon="2.9292">
        <ele>856</ele>
        <time>2017-10-11T15:26:46Z</time>
      </trkpt>
      <trkpt lat="45.938" lon="2.92953">
        <ele>855</ele>
        <time>2017-10-11T15:28:46Z</time>
      </trkpt>
      <trkpt lat="45.93795" lon="2.92976">
        <ele>855</ele>
        <time>2017-10-11T15:30:46Z</time>
      </trkpt>
      <trkpt lat="45.9379" lon="2.93011">
        <ele>854</ele>
        <time>2017-10-11T15:32:46Z</time>
      </trkpt>
      <trkpt lat="45.93784" lon="2.93055">
        <ele>852</ele>
        <time>2017-10-11T15:34:46Z</time>
      </trkpt>
      <trkpt lat="45.93774" lon="2.93103">
        <ele>850</ele>
        <time>2017-10-11T15:36:46Z</time>
      </trkpt>
      <trkpt lat="45.93768" lon="2.93129">
        <ele>849</ele>
        <time>2017-10-11T15:38:46Z</time>
      </trkpt>
      <trkpt lat="45.93761" lon="2.93155">
        <ele>848</ele>
        <time>2017-10-11T15:40:46Z</time>
      </trkpt>
      <trkpt lat="45.93751" lon="2.93188">
        <ele>847</ele>
        <time>2017-10-11T15:42:46Z</time>
      </trkpt>
      <trkpt lat="45.93743" lon="2.9321">
        <ele>847</ele>
        <time>2017-10-11T15:44:46Z</time>
      </trkpt>
      <trkpt lat="45.93732" lon="2.93236">
        <ele>847</ele>
        <time>2017-10-11T15:46:46Z</time>
      </trkpt>
      <trkpt lat="45.93716" lon="2.93263">
        <ele>847</ele>
        <time>2017-10-11T15:48:46Z</time>
      </trkpt>
      <trkpt lat="45.93706" lon="2.93277">
        <ele>848</ele>
        <time>2017-10-11T15:50:46Z</time>
      </trkpt>
      <trkpt lat="45.93696" lon="2.9329">
        <ele>848</ele>
        <time>2017-10-11T15:52:46Z</time>
      </trkpt>
      <trkpt lat="45.93684" lon="2.93303">
        <ele>849</ele>
        <time>2017-10-11T15:54:46Z</time>
      </trkpt>
      <trkpt lat="45.93671" lon="2.9332">
        <ele>851</ele>
        <time>2017-10-11T15:56:46Z</time>
      </trkpt>
      <trkpt lat="45.93666" lon="2.93329">
        <ele>852</ele>
        <time>2017-10-11T15:58:46Z</time>
      </trkpt>
      <trkpt lat="45.93657" lon="2.93353">
        <ele>851</ele>
        <time>2017-10-11T16:00:46Z</time>
      </trkpt>
      <trkpt lat="45.93653" lon="2.93368">
        <ele>851</ele>
        <time>2017-10-11T16:02:46Z</time>
      </trkpt>
      <trkpt lat="45.93649" lon="2.93384">
        <ele>850</ele>
        <time>2017-10-11T16:04:46Z</time>
      </trkpt>
      <trkpt lat="45.93646" lon="2.93403">
        <ele>850</ele>
        <time>2017-10-11T16:06:46Z</time>
      </trkpt>
      <trkpt lat="45.93644" lon="2.93413">
        <ele>850</ele>
        <time>2017-10-11T16:08:46Z</time>
      </trkpt>
      <trkpt lat="45.93642" lon="2.93432">
        <ele>849</ele>
        <time>2017-10-11T16:10:46Z</time>
      </trkpt>
      <trkpt lat="45.93641" lon="2.93455">
        <ele>848</ele>
        <time>2017-10-11T16:12:46Z</time>
      </trkpt>
      <trkpt lat="45.93639" lon="2.93523">
        <ele>845</ele>
        <time>2017-10-11T16:14:46Z</time>
      </trkpt>
      <trkpt lat="45.93637" lon="2.93538">
        <ele>845</ele>
        <time>2017-10-11T16:16:46Z</time>
      </trkpt>
      <trkpt lat="45.93644" lon="2.93586">
        <ele>843</ele>
        <time>2017-10-11T16:18:46Z</time>
      </trkpt>
      <trkpt lat="45.93647" lon="2.93606">
        <ele>841</ele>
        <time>2017-10-11T16:20:46Z</time>
      </trkpt>
      <trkpt lat="45.93651" lon="2.93637">
        <ele>839</ele>
        <time>2017-10-11T16:22:46Z</time>
      </trkpt>
      <trkpt lat="45.93652" lon="2.93661">
        <ele>836</ele>
        <time>2017-10-11T16:24:46Z</time>
      </trkpt>
      <trkpt lat="45.93653" lon="2.93684">
        <ele>835</ele>
        <time>2017-10-11T16:26:46Z</time>
      </trkpt>
      <trkpt lat="45.93652" lon="2.93696">
        <ele>835</ele>
        <time>2017-10-11T16:28:46Z</time>
      </trkpt>
      <trkpt lat="45.9365" lon="2.93718">
        <ele>834</ele>
        <time>2017-10-11T16:30:46Z</time>
      </trkpt>
      <trkpt lat="45.93641" lon="2.93772">
        <ele>833</ele>
        <time>2017-10-11T16:32:46Z</time>
      </trkpt>
      <trkpt lat="45.93641" lon="2.9378">
        <ele>833</ele>
        <time>2017-10-11T16:34:46Z</time>
      </trkpt>
      <trkpt lat="45.93637" lon="2.93794">
        <ele>834</ele>
        <time>2017-10-11T16:36:46Z</time>
      </trkpt>
      <trkpt lat="45.93624" lon="2.93812">
        <ele>834</ele>
        <time>2017-10-11T16:38:46Z</time>
      </trkpt>
      <trkpt lat="45.93613" lon="2.93822">
        <ele>833</ele>
        <time>2017-10-11T16:40:46Z</time>
      </trkpt>
      <trkpt lat="45.93597" lon="2.93835">
        <ele>833</ele>
        <time>2017-10-11T16:42:46Z</time>
      </trkpt>
      <trkpt lat="45.93576" lon="2.93849">
        <ele>833</ele>
        <time>2017-10-11T16:44:46Z</time>
      </trkpt>
      <trkpt lat="45.93558" lon="2.9386">
        <ele>833</ele>
        <time>2017-10-11T16:46:46Z</time>
      </trkpt>
      <trkpt lat="45.93548" lon="2.93869">
        <ele>833</ele>
        <time>2017-10-11T16:48:46Z</time>
      </trkpt>
      <trkpt lat="45.93541" lon="2.93877">
        <ele>833</ele>
        <time>2017-10-11T16:50:46Z</time>
      </trkpt>
      <trkpt lat="45.93531" lon="2.93888">
        <ele>833</ele>
        <time>2017-10-11T16:52:46Z</time>
      </trkpt>
      <trkpt lat="45.93526" lon="2.93898">
        <ele>834</ele>
        <time>2017-10-11T16:54:46Z</time>
      </trkpt>
      <trkpt lat="45.9352" lon="2.93919">
        <ele>835</ele>
        <time>2017-10-11T16:56:46Z</time>
      </trkpt>
      <trkpt lat="45.93514" lon="2.93941">
        <ele>836</ele>
        <time>2017-10-11T16:58:46Z</time>
      </trkpt>
      <trkpt lat="45.93511" lon="2.93951">
        <ele>836</ele>
        <time>2017-10-11T17:00:46Z</time>
      </trkpt>
      <trkpt lat="45.93507" lon="2.93961">
        <ele>836</ele>
        <time>2017-10-11T17:02:46Z</time>
      </trkpt>
      <trkpt lat="45.93504" lon="2.93978">
        <ele>837</ele>
        <time>2017-10-11T17:04:46Z</time>
      </trkpt>
      <trkpt lat="45.935" lon="2.93993">
        <ele>838</ele>
        <time>2017-10-11T17:06:46Z</time>
      </trkpt>
      <trkpt lat="45.93496" lon="2.94008">
        <ele>838</ele>
        <time>2017-10-11T17:08:46Z</time>
      </trkpt>
      <trkpt lat="45.93491" lon="2.94022">
        <ele>837</ele>
        <time>2017-10-11T17:10:46Z</time>
      </trkpt>
      <trkpt lat="45.93487" lon="2.94038">
        <ele>837</ele>
        <time>2017-10-11T17:12:46Z</time>
      </trkpt>
      <trkpt lat="45.93486" lon="2.94047">
        <ele>837</ele>
        <time>2017-10-11T17:14:46Z</time>
      </trkpt>
      <trkpt lat="45.93488" lon="2.94056">
        <ele>838</ele>
        <time>2017-10-11T17:16:46Z</time>
      </trkpt>
      <trkpt lat="45.93487" lon="2.94052">
        <ele>837</ele>
        <time>2017-10-11T17:18:46Z</time>
      </trkpt>
      <trkpt lat="45.93487" lon="2.94065">
        <ele>838</ele>
        <time>2017-10-11T17:20:46Z</time>
      </trkpt>
      <trkpt lat="45.93484" lon="2.94089">
        <ele>838</ele>
        <time>2017-10-11T17:22:46Z</time>
      </trkpt>
      <trkpt lat="45.93481" lon="2.94101">
        <ele>837</ele>
        <time>2017-10-11T17:24:46Z</time>
      </trkpt>
      <trkpt lat="45.93474" lon="2.94121">
        <ele>836</ele>
        <time>2017-10-11T17:26:46Z</time>
      </trkpt>
      <trkpt lat="45.93471" lon="2.94136">
        <ele>836</ele>
        <time>2017-10-11T17:28:46Z</time>
      </trkpt>
      <trkpt lat="45.93471" lon="2.94156">
        <ele>836</ele>
        <time>2017-10-11T17:30:46Z</time>
      </trkpt>
      <trkpt lat="45.93474" lon="2.9417">
        <ele>836</ele>
        <time>2017-10-11T17:32:46Z</time>
      </trkpt>
      <trkpt lat="45.93476" lon="2.94177">
        <ele>836</ele>
        <time>2017-10-11T17:34:46Z</time>
      </trkpt>
      <trkpt lat="45.93482" lon="2.94186">
        <ele>835</ele>
        <time>2017-10-11T17:36:46Z</time>
      </trkpt>
      <trkpt lat="45.93486" lon="2.94196">
        <ele>835</ele>
        <time>2017-10-11T17:38:46Z</time>
      </trkpt>
      <trkpt lat="45.93491" lon="2.94203">
        <ele>835</ele>
        <time>2017-10-11T17:40:46Z</time>
      </trkpt>
      <trkpt lat="45.93495" lon="2.94209">
        <ele>835</ele>
        <time>2017-10-11T17:42:46Z</time>
      </trkpt>
      <trkpt lat="45.93503" lon="2.94226">
        <ele>834</ele>
        <time>2017-10-11T17:44:46Z</time>
      </trkpt>
      <trkpt lat="45.93514" lon="2.94248">
        <ele>832</ele>
        <time>2017-10-11T17:46:46Z</time>
      </trkpt>
      <trkpt lat="45.93519" lon="2.9426">
        <ele>832</ele>
        <time>2017-10-11T17:48:46Z</time>
      </trkpt>
      <trkpt lat="45.93524" lon="2.9427">
        <ele>832</ele>
        <time>2017-10-11T17:50:46Z</time>
      </trkpt>
      <trkpt lat="45.93529" lon="2.94277">
        <ele>831</ele>
        <time>2017-10-11T17:52:46Z</time>
      </trkpt>
      <trkpt lat="45.93532" lon="2.94278">
        <ele>831</ele>
        <time>2017-10-11T17:54:46Z</time>
      </trkpt>
      <trkpt lat="45.93571" lon="2.94275">
        <ele>831</ele>
        <time>2017-10-11T17:56:46Z</time>
      </trkpt>
      <trkpt lat="45.9358" lon="2.94276">
        <ele>831</ele>
        <time>2017-10-11T17:58:46Z</time>
      </trkpt>
      <trkpt lat="45.93588" lon="2.94275">
        <ele>831</ele>
        <time>2017-10-11T18:00:46Z</time>
      </trkpt>
      <trkpt lat="45.93605" lon="2.94277">
        <ele>829</ele>
        <time>2017-10-11T18:02:46Z</time>
      </trkpt>
      <trkpt lat="45.93642" lon="2.94288">
        <ele>826</ele>
        <time>2017-10-11T18:04:46Z</time>
      </trkpt>
      <trkpt lat="45.93666" lon="2.94296">
        <ele>823</ele>
        <time>2017-10-11T18:06:46Z</time>
      </trkpt>
      <trkpt lat="45.93673" lon="2.94298">
        <ele>823</ele>
        <time>2017-10-11T18:08:46Z</time>
      </trkpt>
      <trkpt lat="45.93688" lon="2.94299">
        <ele>822</ele>
        <time>2017-10-11T18:10:46Z</time>
      </trkpt>
      <trkpt lat="45.93701" lon="2.94298">
        <ele>821</ele>
        <time>2017-10-11T18:12:46Z</time>
      </trkpt>
      <trkpt lat="45.93722" lon="2.94294">
        <ele>819</ele>
        <time>2017-10-11T18:14:46Z</time>
      </trkpt>
      <trkpt lat="45.93738" lon="2.94291">
        <ele>818</ele>
        <time>2017-10-11T18:16:46Z</time>
      </trkpt>
      <trkpt lat="45.93754" lon="2.94285">
        <ele>816</ele>
        <time>2017-10-11T18:18:46Z</time>
      </trkpt>
      <trkpt lat="45.93778" lon="2.94273">
        <ele>814</ele>
        <time>2017-10-11T18:20:46Z</time>
      </trkpt>
      <trkpt lat="45.93801" lon="2.94261">
        <ele>811</ele>
        <time>2017-10-11T18:22:46Z</time>
      </trkpt>
      <trkpt lat="45.93822" lon="2.94252">
        <ele>807</ele>
        <time>2017-10-11T18:24:46Z</time>
      </trkpt>
      <trkpt lat="45.93846" lon="2.94241">
        <ele>805</ele>
        <time>2017-10-11T18:26:46Z</time>
      </trkpt>
      <trkpt lat="45.93858" lon="2.94232">
        <ele>804</ele>
        <time>2017-10-11T18:28:46Z</time>
      </trkpt>
      <trkpt lat="45.93865" lon="2.94224">
        <ele>804</ele>
        <time>2017-10-11T18:30:46Z</time>
      </trkpt>
      <trkpt lat="45.93878" lon="2.94211">
        <ele>802</ele>
        <time>2017-10-11T18:32:46Z</time>
      </trkpt>
      <trkpt lat="45.93885" lon="2.94207">
        <ele>801</ele>
        <time>2017-10-11T18:34:46Z</time>
      </trkpt>
      <trkpt lat="45.93895" lon="2.942">
        <ele>800</ele>
        <time>2017-10-11T18:36:46Z</time>
      </trkpt>
      <trkpt lat="45.93905" lon="2.94193">
        <ele>799</ele>
        <time>2017-10-11T18:38:46Z</time>
      </trkpt>
      <trkpt lat="45.93921" lon="2.94187">
        <ele>797</ele>
        <time>2017-10-11T18:40:46Z</time>
      </trkpt>
      <trkpt lat="45.93933" lon="2.94184">
        <ele>795</ele>
        <time>2017-10-11T18:42:46Z</time>
      </trkpt>
      <trkpt lat="45.93939" lon="2.94184">
        <ele>795</ele>
        <time>2017-10-11T18:44:46Z</time>
      </trkpt>
      <trkpt lat="45.93945" lon="2.94185">
        <ele>794</ele>
        <time>2017-10-11T18:46:46Z</time>
      </trkpt>
      <trkpt lat="45.93952" lon="2.94186">
        <ele>794</ele>
        <time>2017-10-11T18:48:46Z</time>
      </trkpt>
      <trkpt lat="45.93958" lon="2.94187">
        <ele>793</ele>
        <time>2017-10-11T18:50:46Z</time>
      </trkpt>
      <trkpt lat="45.93974" lon="2.94188">
        <ele>792</ele>
        <time>2017-10-11T18:52:46Z</time>
      </trkpt>
      <trkpt lat="45.93982" lon="2.94188">
        <ele>791</ele>
        <time>2017-10-11T18:54:46Z</time>
      </trkpt>
      <trkpt lat="45.93991" lon="2.94186">
        <ele>790</ele>
        <time>2017-10-11T18:56:46Z</time>
      </trkpt>
      <trkpt lat="45.94028" lon="2.94175">
        <ele>786</ele>
        <time>2017-10-11T18:58:46Z</time>
      </trkpt>
      <trkpt lat="45.94048" lon="2.94173">
        <ele>783</ele>
        <time>2017-10-11T19:00:46Z</time>
      </trkpt>
      <trkpt lat="45.94069" lon="2.9417">
        <ele>781</ele>
        <time>2017-10-11T19:02:46Z</time>
      </trkpt>
      <trkpt lat="45.94093" lon="2.94168">
        <ele>779</ele>
        <time>2017-10-11T19:04:46Z</time>
      </trkpt>
      <trkpt lat="45.94111" lon="2.94167">
        <ele>777</ele>
        <time>2017-10-11T19:06:46Z</time>
      </trkpt>
      <trkpt lat="45.9412" lon="2.94165">
        <ele>777</ele>
        <time>2017-10-11T19:08:46Z</time>
      </trkpt>
      <trkpt lat="45.94129" lon="2.94163">
        <ele>776</ele>
        <time>2017-10-11T19:10:46Z</time>
      </trkpt>
      <trkpt lat="45.94147" lon="2.94157">
        <ele>774</ele>
        <time>2017-10-11T19:12:46Z</time>
      </trkpt>
      <trkpt lat="45.94155" lon="2.94153">
        <ele>773</ele>
        <time>2017-10-11T19:14:46Z</time>
      </trkpt>
      <trkpt lat="45.94192" lon="2.94136">
        <ele>770</ele>
        <time>2017-10-11T19:16:46Z</time>
      </trkpt>
      <trkpt lat="45.94206" lon="2.94127">
        <ele>769</ele>
        <time>2017-10-11T19:18:46Z</time>
      </trkpt>
      <trkpt lat="45.94228" lon="2.94112">
        <ele>767</ele>
        <time>2017-10-11T19:20:46Z</time>
      </trkpt>
      <trkpt lat="45.94243" lon="2.94099">
        <ele>766</ele>
        <time>2017-10-11T19:22:46Z</time>
      </trkpt>
      <trkpt lat="45.94273" lon="2.94072">
        <ele>764</ele>
        <time>2017-10-11T19:24:46Z</time>
      </trkpt>
      <trkpt lat="45.9428" lon="2.94065">
        <ele>763</ele>
        <time>2017-10-11T19:26:46Z</time>
      </trkpt>
      <trkpt lat="45.94306" lon="2.94034">
        <ele>760</ele>
        <time>2017-10-11T19:28:46Z</time>
      </trkpt>
      <trkpt lat="45.94319" lon="2.94019">
        <ele>758</ele>
        <time>2017-10-11T19:30:46Z</time>
      </trkpt>
      <trkpt lat="45.9434" lon="2.93989">
        <ele>754</ele>
        <time>2017-10-11T19:32:46Z</time>
      </trkpt>
      <trkpt lat="45.94345" lon="2.93984">
        <ele>753</ele>
        <time>2017-10-11T19:34:46Z</time>
      </trkpt>
      <trkpt lat="45.94354" lon="2.93973">
        <ele>751</ele>
        <time>2017-10-11T19:36:46Z</time>
      </trkpt>
      <trkpt lat="45.94358" lon="2.93969">
        <ele>751</ele>
        <time>2017-10-11T19:38:46Z</time>
      </trkpt>
      <trkpt lat="45.94364" lon="2.93965">
        <ele>749</ele>
        <time>2017-10-11T19:40:46Z</time>
      </trkpt>
      <trkpt lat="45.94373" lon="2.93962">
        <ele>748</ele>
        <time>2017-10-11T19:42:46Z</time>
      </trkpt>
      <trkpt lat="45.94383" lon="2.93961">
        <ele>747</ele>
        <time>2017-10-11T19:44:46Z</time>
      </trkpt>
      <trkpt lat="45.94388" lon="2.9396">
        <ele>747</ele>
        <time>2017-10-11T19:46:46Z</time>
      </trkpt>
      <trkpt lat="45.94396" lon="2.93958">
        <ele>745</ele>
        <time>2017-10-11T19:48:46Z</time>
      </trkpt>
      <trkpt lat="45.94402" lon="2.93956">
        <ele>745</ele>
        <time>2017-10-11T19:50:46Z</time>
      </trkpt>
      <trkpt lat="45.94409" lon="2.93955">
        <ele>744</ele>
        <time>2017-10-11T19:52:46Z</time>
      </trkpt>
      <trkpt lat="45.94412" lon="2.93956">
        <ele>744</ele>
        <time>2017-10-11T19:54:46Z</time>
      </trkpt>
      <trkpt lat="45.94417" lon="2.9396">
        <ele>744</ele>
        <time>2017-10-11T19:56:46Z</time>
      </trkpt>
      <trkpt lat="45.94425" lon="2.93969">
        <ele>744</ele>
        <time>2017-10-11T19:58:46Z</time>
      </trkpt>
      <trkpt lat="45.94438" lon="2.93986">
        <ele>745</ele>
        <time>2017-10-11T20:00:46Z</time>
      </trkpt>
      <trkpt lat="45.94441" lon="2.93989">
        <ele>745</ele>
        <time>2017-10-11T20:02:46Z</time>
      </trkpt>
      <trkpt lat="45.94446" lon="2.93998">
        <ele>746</ele>
        <time>2017-10-11T20:04:46Z</time>
      </trkpt>
      <trkpt lat="45.94449" lon="2.94003">
        <ele>746</ele>
        <time>2017-10-11T20:06:46Z</time>
      </trkpt>
      <trkpt lat="45.94451" lon="2.94005">
        <ele>746</ele>
        <time>2017-10-11T20:08:46Z</time>
      </trkpt>
      <trkpt lat="45.94458" lon="2.94018">
        <ele>746</ele>
        <time>2017-10-11T20:10:46Z</time>
      </trkpt>
      <trkpt lat="45.9446" lon="2.94023">
        <ele>746</ele>
        <time>2017-10-11T20:12:46Z</time>
      </trkpt>
      <trkpt lat="45.94462" lon="2.9403">
        <ele>746</ele>
        <time>2017-10-11T20:14:46Z</time>
      </trkpt>
      <trkpt lat="45.94462" lon="2.94034">
        <ele>747</ele>
        <time>2017-10-11T20:16:46Z</time>
      </trkpt>
      <trkpt lat="45.94467" lon="2.94042">
        <ele>746</ele>
        <time>2017-10-11T20:18:46Z</time>
      </trkpt>
      <trkpt lat="45.94469" lon="2.94044">
        <ele>746</ele>
        <time>2017-10-11T20:20:46Z</time>
      </trkpt>
      <trkpt lat="45.94471" lon="2.94048">
        <ele>746</ele>
        <time>2017-10-11T20:22:46Z</time>
      </trkpt>
      <trkpt lat="45.94471" lon="2.94053">
        <ele>746</ele>
        <time>2017-10-11T20:24:46Z</time>
      </trkpt>
      <trkpt lat="45.9447" lon="2.94058">
        <ele>747</ele>
        <time>2017-10-11T20:26:46Z</time>
      </trkpt>
      <trkpt lat="45.94469" lon="2.94065">
        <ele>747</ele>
        <time>2017-10-11T20:28:46Z</time>
      </trkpt>
      <trkpt lat="45.94466" lon="2.9407">
        <ele>749</ele>
        <time>2017-10-11T20:30:46Z</time>
      </trkpt>
      <trkpt lat="45.94463" lon="2.94077">
        <ele>750</ele>
        <time>2017-10-11T20:32:46Z</time>
      </trkpt>
      <trkpt lat="45.94455" lon="2.94087">
        <ele>752</ele>
        <time>2017-10-11T20:34:46Z</time>
      </trkpt>
      <trkpt lat="45.94446" lon="2.94102">
        <ele>755</ele>
        <time>2017-10-11T20:36:46Z</time>
      </trkpt>
      <trkpt lat="45.9444" lon="2.94111">
        <ele>757</ele>
        <time>2017-10-11T20:38:46Z</time>
      </trkpt>
      <trkpt lat="45.94435" lon="2.94118">
        <ele>758</ele>
        <time>2017-10-11T20:40:46Z</time>
      </trkpt>
      <trkpt lat="45.94433" lon="2.94123">
        <ele>758</ele>
        <time>2017-10-11T20:42:46Z</time>
      </trkpt>
      <trkpt lat="45.9443" lon="2.94129">
        <ele>759</ele>
        <time>2017-10-11T20:44:46Z</time>
      </trkpt>
      <trkpt lat="45.94426" lon="2.94136">
        <ele>760</ele>
        <time>2017-10-11T20:46:46Z</time>
      </trkpt>
      <trkpt lat="45.94418" lon="2.94148">
        <ele>761</ele>
        <time>2017-10-11T20:48:46Z</time>
      </trkpt>
      <trkpt lat="45.94416" lon="2.94158">
        <ele>761</ele>
        <time>2017-10-11T20:50:46Z</time>
      </trkpt>
      <trkpt lat="45.94417" lon="2.94162">
        <ele>761</ele>
        <time>2017-10-11T20:52:46Z</time>
      </trkpt>
      <trkpt lat="45.94421" lon="2.94172">
        <ele>761</ele>
        <time>2017-10-11T20:54:46Z</time>
      </trkpt>
      <trkpt lat="45.94424" lon="2.94177">
        <ele>760</ele>
        <time>2017-10-11T20:56:46Z</time>
      </trkpt>
      <trkpt lat="45.94427" lon="2.94182">
        <ele>760</ele>
        <time>2017-10-11T20:58:46Z</time>
      </trkpt>
      <trkpt lat="45.94429" lon="2.94187">
        <ele>760</ele>
        <time>2017-10-11T21:00:46Z</time>
      </trkpt>
      <trkpt lat="45.94432" lon="2.9419">
        <ele>760</ele>
        <time>2017-10-11T21:02:46Z</time>
      </trkpt>
      <trkpt lat="45.94435" lon="2.94193">
        <ele>760</ele>
        <time>2017-10-11T21:04:46Z</time>
      </trkpt>
      <trkpt lat="45.94445" lon="2.94199">
        <ele>760</ele>
        <time>2017-10-11T21:06:46Z</time>
      </trkpt>
      <trkpt lat="45.94448" lon="2.942">
        <ele>759</ele>
        <time>2017-10-11T21:08:46Z</time>
      </trkpt>
      <trkpt lat="45.94455" lon="2.94202">
        <ele>759</ele>
        <time>2017-10-11T21:10:46Z</time>
      </trkpt>
      <trkpt lat="45.9446" lon="2.94202">
        <ele>759</ele>
        <time>2017-10-11T21:12:46Z</time>
      </trkpt>
      <trkpt lat="45.94463" lon="2.94201">
        <ele>758</ele>
        <time>2017-10-11T21:14:46Z</time>
      </trkpt>
      <trkpt lat="45.94466" lon="2.94199">
        <ele>758</ele>
        <time>2017-10-11T21:16:46Z</time>
      </trkpt>
      <trkpt lat="45.94471" lon="2.94194">
        <ele>757</ele>
        <time>2017-10-11T21:18:46Z</time>
      </trkpt>
      <trkpt lat="45.94477" lon="2.94187">
        <ele>755</ele>
        <time>2017-10-11T21:20:46Z</time>
      </trkpt>
      <trkpt lat="45.9449" lon="2.94172">
        <ele>751</ele>
        <time>2017-10-11T21:22:46Z</time>
      </trkpt>
      <trkpt lat="45.94494" lon="2.94168">
        <ele>749</ele>
        <time>2017-10-11T21:24:46Z</time>
      </trkpt>
      <trkpt lat="45.94499" lon="2.94165">
        <ele>748</ele>
        <time>2017-10-11T21:26:46Z</time>
      </trkpt>
      <trkpt lat="45.94518" lon="2.94153">
        <ele>748</ele>
        <time>2017-10-11T21:28:46Z</time>
      </trkpt>
      <trkpt lat="45.94527" lon="2.94148">
        <ele>748</ele>
        <time>2017-10-11T21:30:46Z</time>
      </trkpt>
      <trkpt lat="45.94536" lon="2.94143">
        <ele>748</ele>
        <time>2017-10-11T21:32:46Z</time>
      </trkpt>
      <trkpt lat="45.94544" lon="2.94137">
        <ele>747</ele>
        <time>2017-10-11T21:34:46Z</time>
      </trkpt>
      <trkpt lat="45.94552" lon="2.9413">
        <ele>747</ele>
        <time>2017-10-11T21:36:46Z</time>
      </trkpt>
      <trkpt lat="45.9456" lon="2.94125">
        <ele>747</ele>
        <time>2017-10-11T21:38:46Z</time>
      </trkpt>
      <trkpt lat="45.94567" lon="2.94124">
        <ele>747</ele>
        <time>2017-10-11T21:40:46Z</time>
      </trkpt>
      <trkpt lat="45.94571" lon="2.94128">
        <ele>747</ele>
        <time>2017-10-11T21:42:46Z</time>
      </trkpt>
      <trkpt lat="45.94573" lon="2.94128">
        <ele>748</ele>
        <time>2017-10-11T21:44:46Z</time>
      </trkpt>
      <trkpt lat="45.94585" lon="2.94137">
        <ele>749</ele>
        <time>2017-10-11T21:46:46Z</time>
      </trkpt>
      <trkpt lat="45.94593" lon="2.94145">
        <ele>751</ele>
        <time>2017-10-11T21:48:46Z</time>
      </trkpt>
      <trkpt lat="45.94598" lon="2.94152">
        <ele>752</ele>
        <time>2017-10-11T21:50:46Z</time>
      </trkpt>
      <trkpt lat="45.94602" lon="2.94156">
        <ele>752</ele>
        <time>2017-10-11T21:52:46Z</time>
      </trkpt>
      <trkpt lat="45.94619" lon="2.94166">
        <ele>754</ele>
        <time>2017-10-11T21:54:46Z</time>
      </trkpt>
      <trkpt lat="45.94624" lon="2.9417">
        <ele>755</ele>
        <time>2017-10-11T21:56:46Z</time>
      </trkpt>
      <trkpt lat="45.94631" lon="2.94174">
        <ele>756</ele>
        <time>2017-10-11T21:58:46Z</time>
      </trkpt>
      <trkpt lat="45.9465" lon="2.94183">
        <ele>758</ele>
        <time>2017-10-11T22:00:46Z</time>
      </trkpt>
      <trkpt lat="45.94665" lon="2.94188">
        <ele>759</ele>
        <time>2017-10-11T22:02:46Z</time>
      </trkpt>
      <trkpt lat="45.94675" lon="2.94194">
        <ele>760</ele>
        <time>2017-10-11T22:04:46Z</time>
      </trkpt>
      <trkpt lat="45.94682" lon="2.94199">
        <ele>761</ele>
        <time>2017-10-11T22:06:46Z</time>
      </trkpt>
      <trkpt lat="45.9469" lon="2.94206">
        <ele>762</ele>
        <time>2017-10-11T22:08:46Z</time>
      </trkpt>
      <trkpt lat="45.94695" lon="2.94212">
        <ele>763</ele>
        <time>2017-10-11T22:10:46Z</time>
      </trkpt>
      <trkpt lat="45.94701" lon="2.94219">
        <ele>764</ele>
        <time>2017-10-11T22:12:46Z</time>
      </trkpt>
      <trkpt lat="45.94711" lon="2.94231">
        <ele>766</ele>
        <time>2017-10-11T22:14:46Z</time>
      </trkpt>
      <trkpt lat="45.94737" lon="2.94256">
        <ele>769</ele>
        <time>2017-10-11T22:16:46Z</time>
      </trkpt>
      <trkpt lat="45.9475" lon="2.94267">
        <ele>770</ele>
        <time>2017-10-11T22:18:46Z</time>
      </trkpt>
      <trkpt lat="45.9476" lon="2.94276">
        <ele>770</ele>
        <time>2017-10-11T22:20:46Z</time>
      </trkpt>
      <trkpt lat="45.94776" lon="2.94289">
        <ele>770</ele>
        <time>2017-10-11T22:22:46Z</time>
      </trkpt>
      <trkpt lat="45.9479" lon="2.943">
        <ele>770</ele>
        <time>2017-10-11T22:24:46Z</time>
      </trkpt>
      <trkpt lat="45.94801" lon="2.94308">
        <ele>770</ele>
        <time>2017-10-11T22:26:46Z</time>
      </trkpt>
      <trkpt lat="45.94826" lon="2.94324">
        <ele>771</ele>
        <time>2017-10-11T22:28:46Z</time>
      </trkpt>
      <trkpt lat="45.94851" lon="2.94339">
        <ele>771</ele>
        <time>2017-10-11T22:30:46Z</time>
      </trkpt>
      <trkpt lat="45.94952" lon="2.94397">
        <ele>770</ele>
        <time>2017-10-11T22:32:46Z</time>
      </trkpt>
      <trkpt lat="45.94958" lon="2.94397">
        <ele>769</ele>
        <time>2017-10-11T22:34:46Z</time>
      </trkpt>
      <trkpt lat="45.94962" lon="2.94393">
        <ele>768</ele>
        <time>2017-10-11T22:36:46Z</time>
      </trkpt>
      <trkpt lat="45.94964" lon="2.94385">
        <ele>767</ele>
        <time>2017-10-11T22:38:46Z</time>
      </trkpt>
      <trkpt lat="45.94965" lon="2.94372">
        <ele>765</ele>
        <time>2017-10-11T22:40:46Z</time>
      </trkpt>
      <trkpt lat="45.94966" lon="2.94353">
        <ele>762</ele>
        <time>2017-10-11T22:42:46Z</time>
      </trkpt>
      <trkpt lat="45.94967" lon="2.94349">
        <ele>761</ele>
        <time>2017-10-11T22:44:46Z</time>
      </trkpt>
      <trkpt lat="45.9497" lon="2.94348">
        <ele>761</ele>
        <time>2017-10-11T22:46:46Z</time>
      </trkpt>
      <trkpt lat="45.94979" lon="2.94352">
        <ele>760</ele>
        <time>2017-10-11T22:48:46Z</time>
      </trkpt>
      <trkpt lat="45.95001" lon="2.94366">
        <ele>760</ele>
        <time>2017-10-11T22:50:46Z</time>
      </trkpt>
      <trkpt lat="45.95055" lon="2.94398">
        <ele>765</ele>
        <time>2017-10-11T22:52:46Z</time>
      </trkpt>
      <trkpt lat="45.95071" lon="2.94407">
        <ele>766</ele>
        <time>2017-10-11T22:54:46Z</time>
      </trkpt>
      <trkpt lat="45.9508" lon="2.94412">
        <ele>767</ele>
        <time>2017-10-11T22:56:46Z</time>
      </trkpt>
      <trkpt lat="45.95089" lon="2.94418">
        <ele>767</ele>
        <time>2017-10-11T22:58:46Z</time>
      </trkpt>
      <trkpt lat="45.95094" lon="2.9442">
        <ele>767</ele>
        <time>2017-10-11T23:00:46Z</time>
      </trkpt>
      <trkpt lat="45.95099" lon="2.94421">
        <ele>767</ele>
        <time>2017-10-11T23:02:46Z</time>
      </trkpt>
      <trkpt lat="45.95102" lon="2.9442">
        <ele>767</ele>
        <time>2017-10-11T23:04:46Z</time>
      </trkpt>
      <trkpt lat="45.95105" lon="2.94417">
        <ele>766</ele>
        <time>2017-10-11T23:06:46Z</time>
      </trkpt>
      <trkpt lat="45.95108" lon="2.94409">
        <ele>765</ele>
        <time>2017-10-11T23:08:46Z</time>
      </trkpt>
      <trkpt lat="45.9511" lon="2.94398">
        <ele>764</ele>
        <time>2017-10-11T23:10:46Z</time>
      </trkpt>
      <trkpt lat="45.95112" lon="2.94388">
        <ele>762</ele>
        <time>2017-10-11T23:12:46Z</time>
      </trkpt>
      <trkpt lat="45.95119" lon="2.94382">
        <ele>761</ele>
        <time>2017-10-11T23:14:46Z</time>
      </trkpt>
      <trkpt lat="45.95123" lon="2.94383">
        <ele>761</ele>
        <time>2017-10-11T23:16:46Z</time>
      </trkpt>
      <trkpt lat="45.95127" lon="2.94385">
        <ele>761</ele>
        <time>2017-10-11T23:18:46Z</time>
      </trkpt>
      <trkpt lat="45.9513" lon="2.94389">
        <ele>762</ele>
        <time>2017-10-11T23:20:46Z</time>
      </trkpt>
      <trkpt lat="45.95134" lon="2.94394">
        <ele>762</ele>
        <time>2017-10-11T23:22:46Z</time>
      </trkpt>
      <trkpt lat="45.95142" lon="2.94401">
        <ele>763</ele>
        <time>2017-10-11T23:24:46Z</time>
      </trkpt>
      <trkpt lat="45.95148" lon="2.94409">
        <ele>764</ele>
        <time>2017-10-11T23:26:46Z</time>
      </trkpt>
      <trkpt lat="45.95158" lon="2.94423">
        <ele>765</ele>
        <time>2017-10-11T23:28:46Z</time>
      </trkpt>
      <trkpt lat="45.95163" lon="2.94429">
        <ele>765</ele>
        <time>2017-10-11T23:30:46Z</time>
      </trkpt>
      <trkpt lat="45.95171" lon="2.9444">
        <ele>766</ele>
        <time>2017-10-11T23:32:46Z</time>
      </trkpt>
      <trkpt lat="45.95182" lon="2.94455">
        <ele>766</ele>
        <time>2017-10-11T23:34:46Z</time>
      </trkpt>
      <trkpt lat="45.95203" lon="2.94487">
        <ele>767</ele>
        <time>2017-10-11T23:36:46Z</time>
      </trkpt>
      <trkpt lat="45.95208" lon="2.94493">
        <ele>768</ele>
        <time>2017-10-11T23:38:46Z</time>
      </trkpt>
      <trkpt lat="45.9522" lon="2.94508">
        <ele>769</ele>
        <time>2017-10-11T23:40:46Z</time>
      </trkpt>
      <trkpt lat="45.95231" lon="2.94517">
        <ele>769</ele>
        <time>2017-10-11T23:42:46Z</time>
      </trkpt>
      <trkpt lat="45.95246" lon="2.94528">
        <ele>770</ele>
        <time>2017-10-11T23:44:46Z</time>
      </trkpt>
      <trkpt lat="45.95268" lon="2.94541">
        <ele>772</ele>
        <time>2017-10-11T23:46:46Z</time>
      </trkpt>
      <trkpt lat="45.95282" lon="2.94549">
        <ele>773</ele>
        <time>2017-10-11T23:48:46Z</time>
      </trkpt>
      <trkpt lat="45.95292" lon="2.94554">
        <ele>773</ele>
        <time>2017-10-11T23:50:46Z</time>
      </trkpt>
      <trkpt lat="45.953" lon="2.94561">
        <ele>774</ele>
        <time>2017-10-11T23:52:46Z</time>
      </trkpt>
      <trkpt lat="45.95308" lon="2.94568">
        <ele>775</ele>
        <time>2017-10-11T23:54:46Z</time>
      </trkpt>
      <trkpt lat="45.9532" lon="2.94584">
        <ele>777</ele>
        <time>2017-10-11T23:56:46Z</time>
      </trkpt>
      <trkpt lat="45.95334" lon="2.94606">
        <ele>778</ele>
        <time>2017-10-11T23:58:46Z</time>
      </trkpt>
      <trkpt lat="45.95344" lon="2.94617">
        <ele>778</ele>
        <time>2017-10-12T00:00:46Z</time>
      </trkpt>
      <trkpt lat="45.9535" lon="2.94627">
        <ele>778</ele>
        <time>2017-10-12T00:02:46Z</time>
      </trkpt>
      <trkpt lat="45.95355" lon="2.94633">
        <ele>778</ele>
        <time>2017-10-12T00:04:46Z</time>
      </trkpt>
      <trkpt lat="45.95362" lon="2.94644">
        <ele>778</ele>
        <time>2017-10-12T00:06:46Z</time>
      </trkpt>
      <trkpt lat="45.95395" lon="2.94691">
        <ele>777</ele>
        <time>2017-10-12T00:08:46Z</time>
      </trkpt>
      <trkpt lat="45.95404" lon="2.94701">
        <ele>776</ele>
        <time>2017-10-12T00:10:46Z</time>
      </trkpt>
      <trkpt lat="45.95406" lon="2.94705">
        <ele>776</ele>
        <time>2017-10-12T00:12:46Z</time>
      </trkpt>
      <trkpt lat="45.9542" lon="2.94722">
        <ele>775</ele>
        <time>2017-10-12T00:14:46Z</time>
      </trkpt>
      <trkpt lat="45.95441" lon="2.94741">
        <ele>774</ele>
        <time>2017-10-12T00:16:46Z</time>
      </trkpt>
      <trkpt lat="45.95445" lon="2.94745">
        <ele>774</ele>
        <time>2017-10-12T00:18:46Z</time>
      </trkpt>
      <trkpt lat="45.95454" lon="2.94751">
        <ele>773</ele>
        <time>2017-10-12T00:20:46Z</time>
      </trkpt>
      <trkpt lat="45.95468" lon="2.94759">
        <ele>772</ele>
        <time>2017-10-12T00:22:46Z</time>
      </trkpt>
      <trkpt lat="45.95511" lon="2.94781">
        <ele>768</ele>
        <time>2017-10-12T00:24:46Z</time>
      </trkpt>
      <trkpt lat="45.95518" lon="2.94784">
        <ele>768</ele>
        <time>2017-10-12T00:26:46Z</time>
      </trkpt>
      <trkpt lat="45.95526" lon="2.94787">
        <ele>767</ele>
        <time>2017-10-12T00:28:46Z</time>
      </trkpt>
      <trkpt lat="45.95537" lon="2.94793">
        <ele>767</ele>
        <time>2017-10-12T00:30:46Z</time>
      </trkpt>
      <trkpt lat="45.95551" lon="2.94799">
        <ele>767</ele>
        <time>2017-10-12T00:32:46Z</time>
      </trkpt>
      <trkpt lat="45.95563" lon="2.94806">
        <ele>766</ele>
        <time>2017-10-12T00:34:46Z</time>
      </trkpt>
      <trkpt lat="45.95571" lon="2.9481">
        <ele>766</ele>
        <time>2017-10-12T00:36:46Z</time>
      </trkpt>
      <trkpt lat="45.9558" lon="2.94815">
        <ele>766</ele>
        <time>2017-10-12T00:38:46Z</time>
      </trkpt>
      <trkpt lat="45.95587" lon="2.94823">
        <ele>766</ele>
        <time>2017-10-12T00:40:46Z</time>
      </trkpt>
      <trkpt lat="45.95591" lon="2.94827">
        <ele>765</ele>
        <time>2017-10-12T00:42:46Z</time>
      </trkpt>
      <trkpt lat="45.95596" lon="2.94829">
        <ele>764</ele>
        <time>2017-10-12T00:44:46Z</time>
      </trkpt>
      <trkpt lat="45.956" lon="2.9483">
        <ele>764</ele>
        <time>2017-10-12T00:46:46Z</time>
      </trkpt>
      <trkpt lat="45.95604" lon="2.94831">
        <ele>763</ele>
        <time>2017-10-12T00:48:46Z</time>
      </trkpt>
      <trkpt lat="45.95613" lon="2.94834">
        <ele>762</ele>
        <time>2017-10-12T00:50:46Z</time>
      </trkpt>
      <trkpt lat="45.95624" lon="2.94838">
        <ele>760</ele>
        <time>2017-10-12T00:52:46Z</time>
      </trkpt>
      <trkpt lat="45.95629" lon="2.94839">
        <ele>759</ele>
        <time>2017-10-12T00:54:46Z</time>
      </trkpt>
      <trkpt lat="45.95635" lon="2.9484">
        <ele>758</ele>
        <time>2017-10-12T00:56:46Z</time>
      </trkpt>
      <trkpt lat="45.95646" lon="2.94839">
        <ele>757</ele>
        <time>2017-10-12T00:58:46Z</time>
      </trkpt>
      <trkpt lat="45.95657" lon="2.94837">
        <ele>755</ele>
        <time>2017-10-12T01:00:46Z</time>
      </trkpt>
      <trkpt lat="45.95667" lon="2.94833">
        <ele>754</ele>
        <time>2017-10-12T01:02:46Z</time>
      </trkpt>
      <trkpt lat="45.95672" lon="2.94831">
        <ele>753</ele>
        <time>2017-10-12T01:04:46Z</time>
      </trkpt>
      <trkpt lat="45.95692" lon="2.94825">
        <ele>751</ele>
        <time>2017-10-12T01:06:46Z</time>
      </trkpt>
      <trkpt lat="45.95702" lon="2.94819">
        <ele>750</ele>
        <time>2017-10-12T01:08:46Z</time>
      </trkpt>
      <trkpt lat="45.95706" lon="2.94815">
        <ele>749</ele>
        <time>2017-10-12T01:10:46Z</time>
      </trkpt>
      <trkpt lat="45.95709" lon="2.94809">
        <ele>748</ele>
        <time>2017-10-12T01:12:46Z</time>
      </trkpt>
      <trkpt lat="45.95716" lon="2.94799">
        <ele>747</ele>
        <time>2017-10-12T01:14:46Z</time>
      </trkpt>
      <trkpt lat="45.9573" lon="2.94785">
        <ele>744</ele>
        <time>2017-10-12T01:16:46Z</time>
      </trkpt>
      <trkpt lat="45.95736" lon="2.94777">
        <ele>743</ele>
        <time>2017-10-12T01:18:46Z</time>
      </trkpt>
      <trkpt lat="45.95741" lon="2.94767">
        <ele>742</ele>
        <time>2017-10-12T01:20:46Z</time>
      </trkpt>
      <trkpt lat="45.95742" lon="2.94762">
        <ele>741</ele>
        <time>2017-10-12T01:22:46Z</time>
      </trkpt>
      <trkpt lat="45.95743" lon="2.94756">
        <ele>741</ele>
        <time>2017-10-12T01:24:46Z</time>
      </trkpt>
      <trkpt lat="45.95743" lon="2.94744">
        <ele>739</ele>
        <time>2017-10-12T01:26:46Z</time>
      </trkpt>
      <trkpt lat="45.95742" lon="2.94734">
        <ele>738</ele>
        <time>2017-10-12T01:28:46Z</time>
      </trkpt>
      <trkpt lat="45.95741" lon="2.94724">
        <ele>737</ele>
        <time>2017-10-12T01:30:46Z</time>
      </trkpt>
      <trkpt lat="45.95741" lon="2.94712">
        <ele>736</ele>
        <time>2017-10-12T01:32:46Z</time>
      </trkpt>
      <trkpt lat="45.95741" lon="2.94704">
        <ele>735</ele>
        <time>2017-10-12T01:34:46Z</time>
      </trkpt>
      <trkpt lat="45.95739" lon="2.94681">
        <ele>732</ele>
        <time>2017-10-12T01:36:46Z</time>
      </trkpt>
      <trkpt lat="45.9574" lon="2.94673">
        <ele>731</ele>
        <time>2017-10-12T01:38:46Z</time>
      </trkpt>
      <trkpt lat="45.95741" lon="2.94659">
        <ele>729</ele>
        <time>2017-10-12T01:40:46Z</time>
      </trkpt>
      <trkpt lat="45.95742" lon="2.94644">
        <ele>726</ele>
        <time>2017-10-12T01:42:46Z</time>
      </trkpt>
      <trkpt lat="45.95742" lon="2.94638">
        <ele>726</ele>
        <time>2017-10-12T01:44:46Z</time>
      </trkpt>
      <trkpt lat="45.95739" lon="2.94627">
        <ele>724</ele>
        <time>2017-10-12T01:46:46Z</time>
      </trkpt>
      <trkpt lat="45.95735" lon="2.94617">
        <ele>723</ele>
        <time>2017-10-12T01:48:46Z</time>
      </trkpt>
      <trkpt lat="45.95731" lon="2.94605">
        <ele>722</ele>
        <time>2017-10-12T01:50:46Z</time>
      </trkpt>
      <trkpt lat="45.95725" lon="2.94585">
        <ele>719</ele>
        <time>2017-10-12T01:52:46Z</time>
      </trkpt>
      <trkpt lat="45.95724" lon="2.94571">
        <ele>717</ele>
        <time>2017-10-12T01:54:46Z</time>
      </trkpt>
      <trkpt lat="45.95726" lon="2.9456">
        <ele>715</ele>
        <time>2017-10-12T01:56:46Z</time>
      </trkpt>
      <trkpt lat="45.95731" lon="2.94548">
        <ele>713</ele>
        <time>2017-10-12T01:58:46Z</time>
      </trkpt>
      <trkpt lat="45.95736" lon="2.94536">
        <ele>711</ele>
        <time>2017-10-12T02:00:46Z</time>
      </trkpt>
      <trkpt lat="45.95744" lon="2.94513">
        <ele>707</ele>
        <time>2017-10-12T02:02:46Z</time>
      </trkpt>
      <trkpt lat="45.95763" lon="2.94467">
        <ele>698</ele>
        <time>2017-10-12T02:04:46Z</time>
      </trkpt>
      <trkpt lat="45.95772" lon="2.94445">
        <ele>693</ele>
        <time>2017-10-12T02:06:46Z</time>
      </trkpt>
      <trkpt lat="45.95804" lon="2.94366">
        <ele>679</ele>
        <time>2017-10-12T02:08:46Z</time>
      </trkpt>
      <trkpt lat="45.95808" lon="2.9436">
        <ele>678</ele>
        <time>2017-10-12T02:10:46Z</time>
      </trkpt>
      <trkpt lat="45.95815" lon="2.94358">
        <ele>677</ele>
        <time>2017-10-12T02:12:46Z</time>
      </trkpt>
      <trkpt lat="45.95819" lon="2.94358">
        <ele>677</ele>
        <time>2017-10-12T02:14:46Z</time>
      </trkpt>
      <trkpt lat="45.95828" lon="2.94363">
        <ele>676</ele>
        <time>2017-10-12T02:16:46Z</time>
      </trkpt>
      <trkpt lat="45.95837" lon="2.9437">
        <ele>675</ele>
        <time>2017-10-12T02:18:46Z</time>
      </trkpt>
      <trkpt lat="45.95846" lon="2.94379">
        <ele>674</ele>
        <time>2017-10-12T02:20:46Z</time>
      </trkpt>
      <trkpt lat="45.9587" lon="2.94402">
        <ele>672</ele>
        <time>2017-10-12T02:22:46Z</time>
      </trkpt>
      <trkpt lat="45.95883" lon="2.94415">
        <ele>671</ele>
        <time>2017-10-12T02:24:46Z</time>
      </trkpt>
      <trkpt lat="45.95891" lon="2.94424">
        <ele>671</ele>
        <time>2017-10-12T02:26:46Z</time>
      </trkpt>
      <trkpt lat="45.95898" lon="2.94431">
        <ele>670</ele>
        <time>2017-10-12T02:28:46Z</time>
      </trkpt>
      <trkpt lat="45.95903" lon="2.94432">
        <ele>670</ele>
        <time>2017-10-12T02:30:46Z</time>
      </trkpt>
      <trkpt lat="45.9591" lon="2.94428">
        <ele>668</ele>
        <time>2017-10-12T02:32:46Z</time>
      </trkpt>
      <trkpt lat="45.95943" lon="2.94401">
        <ele>661</ele>
        <time>2017-10-12T02:34:46Z</time>
      </trkpt>
      <trkpt lat="45.96023" lon="2.94335">
        <ele>646</ele>
        <time>2017-10-12T02:36:46Z</time>
      </trkpt>
      <trkpt lat="45.96037" lon="2.94324">
        <ele>644</ele>
        <time>2017-10-12T02:38:46Z</time>
      </trkpt>
      <trkpt lat="45.96051" lon="2.94293">
        <ele>640</ele>
        <time>2017-10-12T02:40:46Z</time>
      </trkpt>
      <trkpt lat="45.9605" lon="2.94281">
        <ele>640</ele>
        <time>2017-10-12T02:42:46Z</time>
      </trkpt>
      <trkpt lat="45.96052" lon="2.94275">
        <ele>639</ele>
        <time>2017-10-12T02:44:46Z</time>
      </trkpt>
      <trkpt lat="45.96066" lon="2.94249">
        <ele>635</ele>
        <time>2017-10-12T02:46:46Z</time>
      </trkpt>
      <trkpt lat="45.96075" lon="2.94237">
        <ele>634</ele>
        <time>2017-10-12T02:48:46Z</time>
      </trkpt>
      <trkpt lat="45.96082" lon="2.94231">
        <ele>633</ele>
        <time>2017-10-12T02:50:46Z</time>
      </trkpt>
      <trkpt lat="45.96085" lon="2.94234">
        <ele>633</ele>
        <time>2017-10-12T02:52:46Z</time>
      </trkpt>
      <trkpt lat="45.96088" lon="2.94238">
        <ele>632</ele>
        <time>2017-10-12T02:54:46Z</time>
      </trkpt>
      <trkpt lat="45.96088" lon="2.94243">
        <ele>633</ele>
        <time>2017-10-12T02:56:46Z</time>
      </trkpt>
      <trkpt lat="45.96088" lon="2.9425">
        <ele>633</ele>
        <time>2017-10-12T02:58:46Z</time>
      </trkpt>
      <trkpt lat="45.96093" lon="2.94272">
        <ele>633</ele>
        <time>2017-10-12T03:00:46Z</time>
      </trkpt>
      <trkpt lat="45.96099" lon="2.94282">
        <ele>633</ele>
        <time>2017-10-12T03:02:46Z</time>
      </trkpt>
      <trkpt lat="45.96123" lon="2.94329">
        <ele>634</ele>
        <time>2017-10-12T03:04:46Z</time>
      </trkpt>
      <trkpt lat="45.96133" lon="2.94337">
        <ele>633</ele>
        <time>2017-10-12T03:06:46Z</time>
      </trkpt>
      <trkpt lat="45.96139" lon="2.9434">
        <ele>633</ele>
        <time>2017-10-12T03:08:46Z</time>
      </trkpt>
      <trkpt lat="45.96166" lon="2.94343">
        <ele>630</ele>
        <time>2017-10-12T03:10:46Z</time>
      </trkpt>
      <trkpt lat="45.96171" lon="2.94343">
        <ele>630</ele>
        <time>2017-10-12T03:12:46Z</time>
      </trkpt>
      <trkpt lat="45.96201" lon="2.94333">
        <ele>627</ele>
        <time>2017-10-12T03:14:46Z</time>
      </trkpt>
      <trkpt lat="45.96274" lon="2.94294">
        <ele>623</ele>
        <time>2017-10-12T03:16:46Z</time>
      </trkpt>
      <trkpt lat="45.9628" lon="2.94289">
        <ele>622</ele>
        <time>2017-10-12T03:18:46Z</time>
      </trkpt>
      <trkpt lat="45.96285" lon="2.94288">
        <ele>622</ele>
        <time>2017-10-12T03:20:46Z</time>
      </trkpt>
      <trkpt lat="45.9629" lon="2.94291">
        <ele>622</ele>
        <time>2017-10-12T03:22:46Z</time>
      </trkpt>
      <trkpt lat="45.96298" lon="2.943">
        <ele>623</ele>
        <time>2017-10-12T03:24:46Z</time>
      </trkpt>
      <trkpt lat="45.96315" lon="2.94327">
        <ele>625</ele>
        <time>2017-10-12T03:26:46Z</time>
      </trkpt>
      <trkpt lat="45.96324" lon="2.94346">
        <ele>626</ele>
        <time>2017-10-12T03:28:46Z</time>
      </trkpt>
      <trkpt lat="45.96348" lon="2.94378">
        <ele>626</ele>
        <time>2017-10-12T03:30:46Z</time>
      </trkpt>
      <trkpt lat="45.96353" lon="2.94388">
        <ele>626</ele>
        <time>2017-10-12T03:32:46Z</time>
      </trkpt>
      <trkpt lat="45.96355" lon="2.94393">
        <ele>626</ele>
        <time>2017-10-12T03:34:46Z</time>
      </trkpt>
      <trkpt lat="45.96359" lon="2.94397">
        <ele>627</ele>
        <time>2017-10-12T03:36:46Z</time>
      </trkpt>
      <trkpt lat="45.96363" lon="2.944">
        <ele>627</ele>
        <time>2017-10-12T03:38:46Z</time>
      </trkpt>
      <trkpt lat="45.96394" lon="2.9445">
        <ele>628</ele>
        <time>2017-10-12T03:40:46Z</time>
      </trkpt>
      <trkpt lat="45.96411" lon="2.94511">
        <ele>629</ele>
        <time>2017-10-12T03:42:46Z</time>
      </trkpt>
      <trkpt lat="45.96422" lon="2.94559">
        <ele>629</ele>
        <time>2017-10-12T03:44:46Z</time>
      </trkpt>
      <trkpt lat="45.96447" lon="2.94667">
        <ele>630</ele>
        <time>2017-10-12T03:46:46Z</time>
      </trkpt>
      <trkpt lat="45.96469" lon="2.9473">
        <ele>628</ele>
        <time>2017-10-12T03:48:46Z</time>
      </trkpt>
      <trkpt lat="45.96475" lon="2.94743">
        <ele>628</ele>
        <time>2017-10-12T03:50:46Z</time>
      </trkpt>
      <trkpt lat="45.96499" lon="2.948">
        <ele>628</ele>
        <time>2017-10-12T03:52:46Z</time>
      </trkpt>
      <trkpt lat="45.96508" lon="2.94813">
        <ele>628</ele>
        <time>2017-10-12T03:54:46Z</time>
      </trkpt>
      <trkpt lat="45.96518" lon="2.94824">
        <ele>629</ele>
        <time>2017-10-12T03:56:46Z</time>
      </trkpt>
      <trkpt lat="45.96529" lon="2.94832">
        <ele>629</ele>
        <time>2017-10-12T03:58:46Z</time>
      </trkpt>
      <trkpt lat="45.96539" lon="2.94837">
        <ele>629</ele>
        <time>2017-10-12T04:00:46Z</time>
      </trkpt>
      <trkpt lat="45.9656" lon="2.94843">
        <ele>629</ele>
        <time>2017-10-12T04:02:46Z</time>
      </trkpt>
      <trkpt lat="45.96596" lon="2.94844">
        <ele>631</ele>
        <time>2017-10-12T04:04:46Z</time>
      </trkpt>
      <trkpt lat="45.96613" lon="2.94837">
        <ele>632</ele>
        <time>2017-10-12T04:06:46Z</time>
      </trkpt>
      <trkpt lat="45.96613" lon="2.94833">
        <ele>632</ele>
        <time>2017-10-12T04:08:46Z</time>
      </trkpt>
      <trkpt lat="45.96612" lon="2.94827">
        <ele>631</ele>
        <time>2017-10-12T04:10:46Z</time>
      </trkpt>
      <trkpt lat="45.96615" lon="2.94824">
        <ele>631</ele>
        <time>2017-10-12T04:12:46Z</time>
      </trkpt>
      <trkpt lat="45.9664" lon="2.94787">
        <ele>631</ele>
        <time>2017-10-12T04:14:46Z</time>
      </trkpt>
      <trkpt lat="45.96672" lon="2.94791">
        <ele>633</ele>
        <time>2017-10-12T04:16:46Z</time>
      </trkpt>
      <trkpt lat="45.96698" lon="2.9481">
        <ele>636</ele>
        <time>2017-10-12T04:18:46Z</time>
      </trkpt>
      <trkpt lat="45.96735" lon="2.9484">
        <ele>641</ele>
        <time>2017-10-12T04:20:46Z</time>
      </trkpt>
      <trkpt lat="45.96736" lon="2.94842">
        <ele>641</ele>
        <time>2017-10-12T04:22:46Z</time>
      </trkpt>
      <trkpt lat="45.96729" lon="2.94848">
        <ele>641</ele>
        <time>2017-10-12T04:24:46Z</time>
      </trkpt>
      <trkpt lat="45.96713" lon="2.94871">
        <ele>641</ele>
        <time>2017-10-12T04:26:46Z</time>
      </trkpt>
      <trkpt lat="45.96716" lon="2.94918">
        <ele>644</ele>
        <time>2017-10-12T04:28:46Z</time>
      </trkpt>
      <trkpt lat="45.96742" lon="2.9497">
        <ele>646</ele>
        <time>2017-10-12T04:30:46Z</time>
      </trkpt>
      <trkpt lat="45.96756" lon="2.95009">
        <ele>646</ele>
        <time>2017-10-12T04:32:46Z</time>
      </trkpt>
      <trkpt lat="45.96781" lon="2.95037">
        <ele>644</ele>
        <time>2017-10-12T04:34:46Z</time>
      </trkpt>
      <trkpt lat="45.96782" lon="2.95059">
        <ele>644</ele>
        <time>2017-10-12T04:36:46Z</time>
      </trkpt>
      <trkpt lat="45.96771" lon="2.95113">
        <ele>644</ele>
        <time>2017-10-12T04:38:46Z</time>
      </trkpt>
      <trkpt lat="45.96771" lon="2.95142">
        <ele>645</ele>
        <time>2017-10-12T04:40:46Z</time>
      </trkpt>
      <trkpt lat="45.96774" lon="2.95171">
        <ele>645</ele>
        <time>2017-10-12T04:42:46Z</time>
      </trkpt>
      <trkpt lat="45.96776" lon="2.95206">
        <ele>645</ele>
        <time>2017-10-12T04:44:46Z</time>
      </trkpt>
      <trkpt lat="45.96752" lon="2.95259">
        <ele>645</ele>
        <time>2017-10-12T04:46:46Z</time>
      </trkpt>
      <trkpt lat="45.96726" lon="2.95323">
        <ele>647</ele>
        <time>2017-10-12T04:48:46Z</time>
      </trkpt>
      <trkpt lat="45.96707" lon="2.95378">
        <ele>649</ele>
        <time>2017-10-12T04:50:46Z</time>
      </trkpt>
      <trkpt lat="45.96719" lon="2.95419">
        <ele>650</ele>
        <time>2017-10-12T04:52:46Z</time>
      </trkpt>
      <trkpt lat="45.96751" lon="2.95482">
        <ele>650</ele>
        <time>2017-10-12T04:54:46Z</time>
      </trkpt>
      <trkpt lat="45.96775" lon="2.95527">
        <ele>650</ele>
        <time>2017-10-12T04:56:46Z</time>
      </trkpt>
      <trkpt lat="45.96782" lon="2.95538">
        <ele>650</ele>
        <time>2017-10-12T04:58:46Z</time>
      </trkpt>
      <trkpt lat="45.96832" lon="2.95604">
        <ele>651</ele>
        <time>2017-10-12T05:00:46Z</time>
      </trkpt>
      <trkpt lat="45.96837" lon="2.95617">
        <ele>651</ele>
        <time>2017-10-12T05:02:46Z</time>
      </trkpt>
      <trkpt lat="45.96845" lon="2.95657">
        <ele>653</ele>
        <time>2017-10-12T05:04:46Z</time>
      </trkpt>
      <trkpt lat="45.96854" lon="2.95701">
        <ele>656</ele>
        <time>2017-10-12T05:06:46Z</time>
      </trkpt>
      <trkpt lat="45.96877" lon="2.95725">
        <ele>658</ele>
        <time>2017-10-12T05:08:46Z</time>
      </trkpt>
      <trkpt lat="45.96902" lon="2.95748">
        <ele>658</ele>
        <time>2017-10-12T05:10:46Z</time>
      </trkpt>
      <trkpt lat="45.96929" lon="2.95761">
        <ele>659</ele>
        <time>2017-10-12T05:12:46Z</time>
      </trkpt>
      <trkpt lat="45.96957" lon="2.95776">
        <ele>660</ele>
        <time>2017-10-12T05:14:46Z</time>
      </trkpt>
      <trkpt lat="45.96978" lon="2.95809">
        <ele>662</ele>
        <time>2017-10-12T05:16:46Z</time>
      </trkpt>
      <trkpt lat="45.96993" lon="2.95843">
        <ele>663</ele>
        <time>2017-10-12T05:18:46Z</time>
      </trkpt>
      <trkpt lat="45.97" lon="2.95882">
        <ele>664</ele>
        <time>2017-10-12T05:20:46Z</time>
      </trkpt>
      <trkpt lat="45.97003" lon="2.95888">
        <ele>664</ele>
        <time>2017-10-12T05:22:46Z</time>
      </trkpt>
      <trkpt lat="45.9701" lon="2.9589">
        <ele>664</ele>
        <time>2017-10-12T05:24:46Z</time>
      </trkpt>
      <trkpt lat="45.97014" lon="2.9589">
        <ele>664</ele>
        <time>2017-10-12T05:26:46Z</time>
      </trkpt>
      <trkpt lat="45.97026" lon="2.95888">
        <ele>664</ele>
        <time>2017-10-12T05:28:46Z</time>
      </trkpt>
      <trkpt lat="45.97034" lon="2.95889">
        <ele>664</ele>
        <time>2017-10-12T05:30:46Z</time>
      </trkpt>
      <trkpt lat="45.97051" lon="2.9588">
        <ele>664</ele>
        <time>2017-10-12T05:32:46Z</time>
      </trkpt>
      <trkpt lat="45.97074" lon="2.95891">
        <ele>664</ele>
        <time>2017-10-12T05:34:46Z</time>
      </trkpt>
      <trkpt lat="45.97125" lon="2.95982">
        <ele>663</ele>
        <time>2017-10-12T05:36:46Z</time>
      </trkpt>
      <trkpt lat="45.97143" lon="2.95993">
        <ele>663</ele>
        <time>2017-10-12T05:38:46Z</time>
      </trkpt>
      <trkpt lat="45.97145" lon="2.95989">
        <ele>662</ele>
        <time>2017-10-12T05:40:46Z</time>
      </trkpt>
      <trkpt lat="45.97157" lon="2.95981">
        <ele>662</ele>
        <time>2017-10-12T05:42:46Z</time>
      </trkpt>
      <trkpt lat="45.97169" lon="2.95985">
        <ele>661</ele>
        <time>2017-10-12T05:44:46Z</time>
      </trkpt>
      <trkpt lat="45.97191" lon="2.96033">
        <ele>661</ele>
        <time>2017-10-12T05:46:46Z</time>
      </trkpt>
      <trkpt lat="45.97211" lon="2.96081">
        <ele>660</ele>
        <time>2017-10-12T05:48:46Z</time>
      </trkpt>
      <trkpt lat="45.9723" lon="2.96127">
        <ele>659</ele>
        <time>2017-10-12T05:50:46Z</time>
      </trkpt>
      <trkpt lat="45.97232" lon="2.96174">
        <ele>658</ele>
        <time>2017-10-12T05:52:46Z</time>
      </trkpt>
      <trkpt lat="45.97225" lon="2.96232">
        <ele>657</ele>
        <time>2017-10-12T05:54:46Z</time>
      </trkpt>
      <trkpt lat="45.97224" lon="2.96241">
        <ele>657</ele>
        <time>2017-10-12T05:56:46Z</time>
      </trkpt>
      <trkpt lat="45.9723" lon="2.96295">
        <ele>656</ele>
        <time>2017-10-12T05:58:46Z</time>
      </trkpt>
      <trkpt lat="45.97216" lon="2.96313">
        <ele>655</ele>
        <time>2017-10-12T06:00:46Z</time>
      </trkpt>
      <trkpt lat="45.97159" lon="2.96369">
        <ele>658</ele>
        <time>2017-10-12T06:02:46Z</time>
      </trkpt>
      <trkpt lat="45.97139" lon="2.96381">
        <ele>660</ele>
        <time>2017-10-12T06:04:46Z</time>
      </trkpt>
      <trkpt lat="45.97135" lon="2.96384">
        <ele>661</ele>
        <time>2017-10-12T06:06:46Z</time>
      </trkpt>
      <trkpt lat="45.97115" lon="2.964">
        <ele>664</ele>
        <time>2017-10-12T06:08:46Z</time>
      </trkpt>
      <trkpt lat="45.971" lon="2.9642">
        <ele>666</ele>
        <time>2017-10-12T06:10:46Z</time>
      </trkpt>
      <trkpt lat="45.97085" lon="2.96441">
        <ele>668</ele>
        <time>2017-10-12T06:12:46Z</time>
      </trkpt>
      <trkpt lat="45.97078" lon="2.96449">
        <ele>668</ele>
        <time>2017-10-12T06:14:46Z</time>
      </trkpt>
      <trkpt lat="45.9706" lon="2.9648">
        <ele>667</ele>
        <time>2017-10-12T06:16:46Z</time>
      </trkpt>
      <trkpt lat="45.97043" lon="2.96507">
        <ele>665</ele>
        <time>2017-10-12T06:18:46Z</time>
      </trkpt>
      <trkpt lat="45.97029" lon="2.96516">
        <ele>664</ele>
        <time>2017-10-12T06:20:46Z</time>
      </trkpt>
      <trkpt lat="45.97008" lon="2.96537">
        <ele>661</ele>
        <time>2017-10-12T06:22:46Z</time>
      </trkpt>
      <trkpt lat="45.97011" lon="2.96548">
        <ele>660</ele>
        <time>2017-10-12T06:24:46Z</time>
      </trkpt>
      <trkpt lat="45.9704" lon="2.96552">
        <ele>660</ele>
        <time>2017-10-12T06:26:46Z</time>
      </trkpt>
      <trkpt lat="45.97097" lon="2.96554">
        <ele>658</ele>
        <time>2017-10-12T06:28:46Z</time>
      </trkpt>
      <trkpt lat="45.9716" lon="2.96596">
        <ele>647</ele>
        <time>2017-10-12T06:30:46Z</time>
      </trkpt>
      <trkpt lat="45.97228" lon="2.96633">
        <ele>642</ele>
        <time>2017-10-12T06:32:46Z</time>
      </trkpt>
      <trkpt lat="45.973" lon="2.96685">
        <ele>637</ele>
        <time>2017-10-12T06:34:46Z</time>
      </trkpt>
      <trkpt lat="45.97311" lon="2.96692">
        <ele>636</ele>
        <time>2017-10-12T06:36:46Z</time>
      </trkpt>
      <trkpt lat="45.97368" lon="2.96706">
        <ele>630</ele>
        <time>2017-10-12T06:38:46Z</time>
      </trkpt>
      <trkpt lat="45.97383" lon="2.96719">
        <ele>628</ele>
        <time>2017-10-12T06:40:46Z</time>
      </trkpt>
      <trkpt lat="45.97388" lon="2.96726">
        <ele>627</ele>
        <time>2017-10-12T06:42:46Z</time>
      </trkpt>
      <trkpt lat="45.97391" lon="2.96733">
        <ele>626</ele>
        <time>2017-10-12T06:44:46Z</time>
      </trkpt>
      <trkpt lat="45.97395" lon="2.96748">
        <ele>624</ele>
        <time>2017-10-12T06:46:46Z</time>
      </trkpt>
      <trkpt lat="45.97397" lon="2.96763">
        <ele>623</ele>
        <time>2017-10-12T06:48:46Z</time>
      </trkpt>
      <trkpt lat="45.97399" lon="2.96784">
        <ele>622</ele>
        <time>2017-10-12T06:50:46Z</time>
      </trkpt>
      <trkpt lat="45.97398" lon="2.96797">
        <ele>621</ele>
        <time>2017-10-12T06:52:46Z</time>
      </trkpt>
      <trkpt lat="45.97397" lon="2.96814">
        <ele>620</ele>
        <time>2017-10-12T06:54:46Z</time>
      </trkpt>
      <trkpt lat="45.9739" lon="2.96839">
        <ele>620</ele>
        <time>2017-10-12T06:56:46Z</time>
      </trkpt>
      <trkpt lat="45.97379" lon="2.96888">
        <ele>621</ele>
        <time>2017-10-12T06:58:46Z</time>
      </trkpt>
      <trkpt lat="45.9738" lon="2.96961">
        <ele>621</ele>
        <time>2017-10-12T07:00:46Z</time>
      </trkpt>
      <trkpt lat="45.974" lon="2.97007">
        <ele>621</ele>
        <time>2017-10-12T07:02:46Z</time>
      </trkpt>
      <trkpt lat="45.97403" lon="2.97045">
        <ele>623</ele>
        <time>2017-10-12T07:04:46Z</time>
      </trkpt>
      <trkpt lat="45.974" lon="2.9707">
        <ele>625</ele>
        <time>2017-10-12T07:06:46Z</time>
      </trkpt>
      <trkpt lat="45.97398" lon="2.97092">
        <ele>627</ele>
        <time>2017-10-12T07:08:46Z</time>
      </trkpt>
      <trkpt lat="45.97391" lon="2.97132">
        <ele>630</ele>
        <time>2017-10-12T07:10:46Z</time>
      </trkpt>
      <trkpt lat="45.97402" lon="2.97157">
        <ele>631</ele>
        <time>2017-10-12T07:12:46Z</time>
      </trkpt>
      <trkpt lat="45.97407" lon="2.9719">
        <ele>633</ele>
        <time>2017-10-12T07:14:46Z</time>
      </trkpt>
      <trkpt lat="45.97417" lon="2.97225">
        <ele>635</ele>
        <time>2017-10-12T07:16:46Z</time>
      </trkpt>
      <trkpt lat="45.97432" lon="2.97245">
        <ele>636</ele>
        <time>2017-10-12T07:18:46Z</time>
      </trkpt>
      <trkpt lat="45.97452" lon="2.97267">
        <ele>636</ele>
        <time>2017-10-12T07:20:46Z</time>
      </trkpt>
      <trkpt lat="45.97497" lon="2.97309">
        <ele>636</ele>
        <time>2017-10-12T07:22:46Z</time>
      </trkpt>
      <trkpt lat="45.97504" lon="2.97315">
        <ele>636</ele>
        <time>2017-10-12T07:24:46Z</time>
      </trkpt>
      <trkpt lat="45.97513" lon="2.97319">
        <ele>636</ele>
        <time>2017-10-12T07:26:46Z</time>
      </trkpt>
      <trkpt lat="45.97523" lon="2.9732">
        <ele>636</ele>
        <time>2017-10-12T07:28:46Z</time>
      </trkpt>
      <trkpt lat="45.97543" lon="2.97318">
        <ele>635</ele>
        <time>2017-10-12T07:30:46Z</time>
      </trkpt>
      <trkpt lat="45.97549" lon="2.97318">
        <ele>635</ele>
        <time>2017-10-12T07:32:46Z</time>
      </trkpt>
      <trkpt lat="45.97559" lon="2.97323">
        <ele>635</ele>
        <time>2017-10-12T07:34:46Z</time>
      </trkpt>
      <trkpt lat="45.97563" lon="2.97326">
        <ele>635</ele>
        <time>2017-10-12T07:36:46Z</time>
      </trkpt>
      <trkpt lat="45.97567" lon="2.97331">
        <ele>635</ele>
        <time>2017-10-12T07:38:46Z</time>
      </trkpt>
      <trkpt lat="45.97609" lon="2.97422">
        <ele>635</ele>
        <time>2017-10-12T07:40:46Z</time>
      </trkpt>
      <trkpt lat="45.97645" lon="2.97531">
        <ele>629</ele>
        <time>2017-10-12T07:42:46Z</time>
      </trkpt>
      <trkpt lat="45.97653" lon="2.97571">
        <ele>627</ele>
        <time>2017-10-12T07:44:46Z</time>
      </trkpt>
      <trkpt lat="45.97656" lon="2.97578">
        <ele>627</ele>
        <time>2017-10-12T07:46:46Z</time>
      </trkpt>
      <trkpt lat="45.97662" lon="2.97586">
        <ele>627</ele>
        <time>2017-10-12T07:48:46Z</time>
      </trkpt>
      <trkpt lat="45.97666" lon="2.97587">
        <ele>626</ele>
        <time>2017-10-12T07:50:46Z</time>
      </trkpt>
      <trkpt lat="45.97671" lon="2.97586">
        <ele>626</ele>
        <time>2017-10-12T07:52:46Z</time>
      </trkpt>
      <trkpt lat="45.97679" lon="2.97581">
        <ele>625</ele>
        <time>2017-10-12T07:54:46Z</time>
      </trkpt>
      <trkpt lat="45.97726" lon="2.97565">
        <ele>623</ele>
        <time>2017-10-12T07:56:46Z</time>
      </trkpt>
      <trkpt lat="45.97749" lon="2.97558">
        <ele>622</ele>
        <time>2017-10-12T07:58:46Z</time>
      </trkpt>
      <trkpt lat="45.97762" lon="2.97556">
        <ele>621</ele>
        <time>2017-10-12T08:00:46Z</time>
      </trkpt>
      <trkpt lat="45.97807" lon="2.97555">
        <ele>619</ele>
        <time>2017-10-12T08:02:46Z</time>
      </trkpt>
      <trkpt lat="45.97819" lon="2.97558">
        <ele>618</ele>
        <time>2017-10-12T08:04:46Z</time>
      </trkpt>
      <trkpt lat="45.9783" lon="2.97564">
        <ele>617</ele>
        <time>2017-10-12T08:06:46Z</time>
      </trkpt>
      <trkpt lat="45.97835" lon="2.97568">
        <ele>617</ele>
        <time>2017-10-12T08:08:46Z</time>
      </trkpt>
      <trkpt lat="45.97856" lon="2.9761">
        <ele>617</ele>
        <time>2017-10-12T08:10:46Z</time>
      </trkpt>
      <trkpt lat="45.97865" lon="2.97656">
        <ele>617</ele>
        <time>2017-10-12T08:12:46Z</time>
      </trkpt>
      <trkpt lat="45.97871" lon="2.97663">
        <ele>617</ele>
        <time>2017-10-12T08:14:46Z</time>
      </trkpt>
      <trkpt lat="45.9788" lon="2.97664">
        <ele>616</ele>
        <time>2017-10-12T08:16:46Z</time>
      </trkpt>
      <trkpt lat="45.9789" lon="2.97661">
        <ele>616</ele>
        <time>2017-10-12T08:18:46Z</time>
      </trkpt>
      <trkpt lat="45.97919" lon="2.97645">
        <ele>614</ele>
        <time>2017-10-12T08:20:46Z</time>
      </trkpt>
      <trkpt lat="45.97945" lon="2.9764">
        <ele>613</ele>
        <time>2017-10-12T08:22:46Z</time>
      </trkpt>
      <trkpt lat="45.97966" lon="2.97636">
        <ele>611</ele>
        <time>2017-10-12T08:24:46Z</time>
      </trkpt>
      <trkpt lat="45.97969" lon="2.97633">
        <ele>611</ele>
        <time>2017-10-12T08:26:46Z</time>
      </trkpt>
      <trkpt lat="45.97971" lon="2.97628">
        <ele>611</ele>
        <time>2017-10-12T08:28:46Z</time>
      </trkpt>
      <trkpt lat="45.97974" lon="2.97617">
        <ele>611</ele>
        <time>2017-10-12T08:30:46Z</time>
      </trkpt>
      <trkpt lat="45.97988" lon="2.97623">
        <ele>610</ele>
        <time>2017-10-12T08:32:46Z</time>
      </trkpt>
      <trkpt lat="45.97992" lon="2.97627">
        <ele>610</ele>
        <time>2017-10-12T08:34:46Z</time>
      </trkpt>
      <trkpt lat="45.98008" lon="2.9764">
        <ele>611</ele>
        <time>2017-10-12T08:36:46Z</time>
      </trkpt>
      <trkpt lat="45.98023" lon="2.97653">
        <ele>613</ele>
        <time>2017-10-12T08:38:46Z</time>
      </trkpt>
      <trkpt lat="45.9803" lon="2.97667">
        <ele>613</ele>
        <time>2017-10-12T08:40:46Z</time>
      </trkpt>
      <trkpt lat="45.98052" lon="2.97715">
        <ele>613</ele>
        <time>2017-10-12T08:42:46Z</time>
      </trkpt>
      <trkpt lat="45.98079" lon="2.97775">
        <ele>612</ele>
        <time>2017-10-12T08:44:46Z</time>
      </trkpt>
      <trkpt lat="45.9811" lon="2.97894">
        <ele>614</ele>
        <time>2017-10-12T08:46:46Z</time>
      </trkpt>
      <trkpt lat="45.98107" lon="2.97924">
        <ele>614</ele>
        <time>2017-10-12T08:48:46Z</time>
      </trkpt>
      <trkpt lat="45.98104" lon="2.97945">
        <ele>616</ele>
        <time>2017-10-12T08:50:46Z</time>
      </trkpt>
      <trkpt lat="45.98116" lon="2.97981">
        <ele>618</ele>
        <time>2017-10-12T08:52:46Z</time>
      </trkpt>
      <trkpt lat="45.98133" lon="2.98002">
        <ele>618</ele>
        <time>2017-10-12T08:54:46Z</time>
      </trkpt>
      <trkpt lat="45.98145" lon="2.9802">
        <ele>618</ele>
        <time>2017-10-12T08:56:46Z</time>
      </trkpt>
      <trkpt lat="45.98146" lon="2.98023">
        <ele>618</ele>
        <time>2017-10-12T08:58:46Z</time>
      </trkpt>
      <trkpt lat="45.98163" lon="2.98044">
        <ele>619</ele>
        <time>2017-10-12T09:00:46Z</time>
      </trkpt>
      <trkpt lat="45.98194" lon="2.98091">
        <ele>623</ele>
        <time>2017-10-12T09:02:46Z</time>
      </trkpt>
      <trkpt lat="45.98225" lon="2.98184">
        <ele>628</ele>
        <time>2017-10-12T09:04:46Z</time>
      </trkpt>
      <trkpt lat="45.98223" lon="2.98189">
        <ele>628</ele>
        <time>2017-10-12T09:06:46Z</time>
      </trkpt>
      <trkpt lat="45.98217" lon="2.98195">
        <ele>628</ele>
        <time>2017-10-12T09:08:46Z</time>
      </trkpt>
      <trkpt lat="45.98206" lon="2.98194">
        <ele>628</ele>
        <time>2017-10-12T09:10:46Z</time>
      </trkpt>
      <trkpt lat="45.982" lon="2.98191">
        <ele>628</ele>
        <time>2017-10-12T09:12:46Z</time>
      </trkpt>
      <trkpt lat="45.98175" lon="2.98173">
        <ele>628</ele>
        <time>2017-10-12T09:14:46Z</time>
      </trkpt>
      <trkpt lat="45.98155" lon="2.98167">
        <ele>629</ele>
        <time>2017-10-12T09:16:46Z</time>
      </trkpt>
      <trkpt lat="45.98087" lon="2.98218">
        <ele>632</ele>
        <time>2017-10-12T09:18:46Z</time>
      </trkpt>
      <trkpt lat="45.98052" lon="2.98227">
        <ele>634</ele>
        <time>2017-10-12T09:20:46Z</time>
      </trkpt>
      <trkpt lat="45.98046" lon="2.98223">
        <ele>634</ele>
        <time>2017-10-12T09:22:46Z</time>
      </trkpt>
      <trkpt lat="45.98039" lon="2.98231">
        <ele>634</ele>
        <time>2017-10-12T09:24:46Z</time>
      </trkpt>
      <trkpt lat="45.97991" lon="2.98257">
        <ele>636</ele>
        <time>2017-10-12T09:26:46Z</time>
      </trkpt>
      <trkpt lat="45.9795" lon="2.98261">
        <ele>639</ele>
        <time>2017-10-12T09:28:46Z</time>
      </trkpt>
      <trkpt lat="45.97941" lon="2.9829">
        <ele>640</ele>
        <time>2017-10-12T09:30:46Z</time>
      </trkpt>
      <trkpt lat="45.97936" lon="2.98333">
        <ele>640</ele>
        <time>2017-10-12T09:32:46Z</time>
      </trkpt>
      <trkpt lat="45.97933" lon="2.98371">
        <ele>642</ele>
        <time>2017-10-12T09:34:46Z</time>
      </trkpt>
      <trkpt lat="45.97935" lon="2.98389">
        <ele>643</ele>
        <time>2017-10-12T09:36:46Z</time>
      </trkpt>
      <trkpt lat="45.97988" lon="2.98456">
        <ele>639</ele>
        <time>2017-10-12T09:38:46Z</time>
      </trkpt>
      <trkpt lat="45.98053" lon="2.98516">
        <ele>636</ele>
        <time>2017-10-12T09:40:46Z</time>
      </trkpt>
      <trkpt lat="45.98074" lon="2.98538">
        <ele>635</ele>
        <time>2017-10-12T09:42:46Z</time>
      </trkpt>
      <trkpt lat="45.98075" lon="2.9854">
        <ele>635</ele>
        <time>2017-10-12T09:44:46Z</time>
      </trkpt>
      <trkpt lat="45.9807" lon="2.98537">
        <ele>635</ele>
        <time>2017-10-12T09:46:46Z</time>
      </trkpt>
      <trkpt lat="45.98066" lon="2.98536">
        <ele>636</ele>
        <time>2017-10-12T09:48:46Z</time>
      </trkpt>
      <trkpt lat="45.98063" lon="2.98539">
        <ele>636</ele>
        <time>2017-10-12T09:50:46Z</time>
      </trkpt>
      <trkpt lat="45.98062" lon="2.98548">
        <ele>637</ele>
        <time>2017-10-12T09:52:46Z</time>
      </trkpt>
      <trkpt lat="45.98055" lon="2.98586">
        <ele>639</ele>
        <time>2017-10-12T09:54:46Z</time>
      </trkpt>
      <trkpt lat="45.98069" lon="2.98628">
        <ele>637</ele>
        <time>2017-10-12T09:56:46Z</time>
      </trkpt>
      <trkpt lat="45.98086" lon="2.98657">
        <ele>635</ele>
        <time>2017-10-12T09:58:46Z</time>
      </trkpt>
      <trkpt lat="45.98108" lon="2.98672">
        <ele>634</ele>
        <time>2017-10-12T10:00:46Z</time>
      </trkpt>
      <trkpt lat="45.98111" lon="2.98675">
        <ele>634</ele>
        <time>2017-10-12T10:02:46Z</time>
      </trkpt>
      <trkpt lat="45.98141" lon="2.98676">
        <ele>633</ele>
        <time>2017-10-12T10:04:46Z</time>
      </trkpt>
      <trkpt lat="45.98143" lon="2.98674">
        <ele>633</ele>
        <time>2017-10-12T10:06:46Z</time>
      </trkpt>
      <trkpt lat="45.98145" lon="2.98673">
        <ele>633</ele>
        <time>2017-10-12T10:08:46Z</time>
      </trkpt>
      <trkpt lat="45.98184" lon="2.98668">
        <ele>633</ele>
        <time>2017-10-12T10:10:46Z</time>
      </trkpt>
      <trkpt lat="45.98212" lon="2.98667">
        <ele>636</ele>
        <time>2017-10-12T10:12:46Z</time>
      </trkpt>
      <trkpt lat="45.98233" lon="2.98663">
        <ele>637</ele>
        <time>2017-10-12T10:14:46Z</time>
      </trkpt>
      <trkpt lat="45.98255" lon="2.98666">
        <ele>639</ele>
        <time>2017-10-12T10:16:46Z</time>
      </trkpt>
      <trkpt lat="45.98278" lon="2.98678">
        <ele>640</ele>
        <time>2017-10-12T10:18:46Z</time>
      </trkpt>
      <trkpt lat="45.98292" lon="2.98691">
        <ele>641</ele>
        <time>2017-10-12T10:20:46Z</time>
      </trkpt>
      <trkpt lat="45.98307" lon="2.9871">
        <ele>642</ele>
        <time>2017-10-12T10:22:46Z</time>
      </trkpt>
      <trkpt lat="45.98336" lon="2.98738">
        <ele>645</ele>
        <time>2017-10-12T10:24:46Z</time>
      </trkpt>
      <trkpt lat="45.98348" lon="2.98755">
        <ele>646</ele>
        <time>2017-10-12T10:26:46Z</time>
      </trkpt>
      <trkpt lat="45.98364" lon="2.98773">
        <ele>647</ele>
        <time>2017-10-12T10:28:46Z</time>
      </trkpt>
      <trkpt lat="45.98375" lon="2.98783">
        <ele>649</ele>
        <time>2017-10-12T10:30:46Z</time>
      </trkpt>
      <trkpt lat="45.98401" lon="2.9881">
        <ele>653</ele>
        <time>2017-10-12T10:32:46Z</time>
      </trkpt>
      <trkpt lat="45.98418" lon="2.98833">
        <ele>656</ele>
        <time>2017-10-12T10:34:46Z</time>
      </trkpt>
      <trkpt lat="45.98433" lon="2.98851">
        <ele>656</ele>
        <time>2017-10-12T10:36:46Z</time>
      </trkpt>
      <trkpt lat="45.9844" lon="2.98854">
        <ele>657</ele>
        <time>2017-10-12T10:38:46Z</time>
      </trkpt>
      <trkpt lat="45.98441" lon="2.98853">
        <ele>657</ele>
        <time>2017-10-12T10:40:46Z</time>
      </trkpt>
      <trkpt lat="45.98444" lon="2.98846">
        <ele>656</ele>
        <time>2017-10-12T10:42:46Z</time>
      </trkpt>
      <trkpt lat="45.98448" lon="2.98835">
        <ele>656</ele>
        <time>2017-10-12T10:44:46Z</time>
      </trkpt>
      <trkpt lat="45.98454" lon="2.98823">
        <ele>655</ele>
        <time>2017-10-12T10:46:46Z</time>
      </trkpt>
      <trkpt lat="45.98491" lon="2.98766">
        <ele>652</ele>
        <time>2017-10-12T10:48:46Z</time>
      </trkpt>
      <trkpt lat="45.98494" lon="2.98762">
        <ele>652</ele>
        <time>2017-10-12T10:50:46Z</time>
      </trkpt>
      <trkpt lat="45.98517" lon="2.98714">
        <ele>652</ele>
        <time>2017-10-12T10:52:46Z</time>
      </trkpt>
      <trkpt lat="45.98552" lon="2.9863">
        <ele>653</ele>
        <time>2017-10-12T10:54:46Z</time>
      </trkpt>
      <trkpt lat="45.98581" lon="2.98567">
        <ele>654</ele>
        <time>2017-10-12T10:56:46Z</time>
      </trkpt>
      <trkpt lat="45.98583" lon="2.98561">
        <ele>654</ele>
        <time>2017-10-12T10:58:46Z</time>
      </trkpt>
      <trkpt lat="45.98619" lon="2.98473">
        <ele>648</ele>
        <time>2017-10-12T11:00:46Z</time>
      </trkpt>
      <trkpt lat="45.98685" lon="2.98378">
        <ele>644</ele>
        <time>2017-10-12T11:02:46Z</time>
      </trkpt>
      <trkpt lat="45.9869" lon="2.98374">
        <ele>644</ele>
        <time>2017-10-12T11:04:46Z</time>
      </trkpt>
      <trkpt lat="45.98695" lon="2.98372">
        <ele>644</ele>
        <time>2017-10-12T11:06:46Z</time>
      </trkpt>
      <trkpt lat="45.98701" lon="2.98374">
        <ele>644</ele>
        <time>2017-10-12T11:08:46Z</time>
      </trkpt>
      <trkpt lat="45.98706" lon="2.98379">
        <ele>644</ele>
        <time>2017-10-12T11:10:46Z</time>
      </trkpt>
      <trkpt lat="45.98709" lon="2.98383">
        <ele>644</ele>
        <time>2017-10-12T11:12:46Z</time>
      </trkpt>
      <trkpt lat="45.98712" lon="2.98388">
        <ele>644</ele>
        <time>2017-10-12T11:14:46Z</time>
      </trkpt>
      <trkpt lat="45.98752" lon="2.9844">
        <ele>644</ele>
        <time>2017-10-12T11:16:46Z</time>
      </trkpt>
      <trkpt lat="45.98791" lon="2.98478">
        <ele>644</ele>
        <time>2017-10-12T11:18:46Z</time>
      </trkpt>
      <trkpt lat="45.98843" lon="2.98559">
        <ele>641</ele>
        <time>2017-10-12T11:20:46Z</time>
      </trkpt>
      <trkpt lat="45.98858" lon="2.98583">
        <ele>640</ele>
        <time>2017-10-12T11:22:46Z</time>
      </trkpt>
      <trkpt lat="45.98919" lon="2.98646">
        <ele>639</ele>
        <time>2017-10-12T11:24:46Z</time>
      </trkpt>
      <trkpt lat="45.98933" lon="2.98663">
        <ele>638</ele>
        <time>2017-10-12T11:26:46Z</time>
      </trkpt>
      <trkpt lat="45.98949" lon="2.98691">
        <ele>637</ele>
        <time>2017-10-12T11:28:46Z</time>
      </trkpt>
      <trkpt lat="45.98999" lon="2.9877">
        <ele>633</ele>
        <time>2017-10-12T11:30:46Z</time>
      </trkpt>
      <trkpt lat="45.99005" lon="2.98777">
        <ele>633</ele>
        <time>2017-10-12T11:32:46Z</time>
      </trkpt>
      <trkpt lat="45.99011" lon="2.98782">
        <ele>633</ele>
        <time>2017-10-12T11:34:46Z</time>
      </trkpt>
      <trkpt lat="45.99028" lon="2.98805">
        <ele>632</ele>
        <time>2017-10-12T11:36:46Z</time>
      </trkpt>
      <trkpt lat="45.99049" lon="2.98835">
        <ele>630</ele>
        <time>2017-10-12T11:38:46Z</time>
      </trkpt>
      <trkpt lat="45.99062" lon="2.98857">
        <ele>628</ele>
        <time>2017-10-12T11:40:46Z</time>
      </trkpt>
      <trkpt lat="45.99092" lon="2.98947">
        <ele>620</ele>
        <time>2017-10-12T11:42:46Z</time>
      </trkpt>
      <trkpt lat="45.99109" lon="2.99008">
        <ele>615</ele>
        <time>2017-10-12T11:44:46Z</time>
      </trkpt>
      <trkpt lat="45.9911" lon="2.99017">
        <ele>614</ele>
        <time>2017-10-12T11:46:46Z</time>
      </trkpt>
      <trkpt lat="45.9911" lon="2.99026">
        <ele>614</ele>
        <time>2017-10-12T11:48:46Z</time>
      </trkpt>
      <trkpt lat="45.99103" lon="2.99148">
        <ele>608</ele>
        <time>2017-10-12T11:50:46Z</time>
      </trkpt>
      <trkpt lat="45.99102" lon="2.99172">
        <ele>607</ele>
        <time>2017-10-12T11:52:46Z</time>
      </trkpt>
      <trkpt lat="45.99101" lon="2.9919">
        <ele>607</ele>
        <time>2017-10-12T11:54:46Z</time>
      </trkpt>
      <trkpt lat="45.99102" lon="2.99199">
        <ele>607</ele>
        <time>2017-10-12T11:56:46Z</time>
      </trkpt>
      <trkpt lat="45.99104" lon="2.9921">
        <ele>607</ele>
        <time>2017-10-12T11:58:46Z</time>
      </trkpt>
      <trkpt lat="45.99106" lon="2.99219">
        <ele>606</ele>
        <time>2017-10-12T12:00:46Z</time>
      </trkpt>
      <trkpt lat="45.99109" lon="2.99228">
        <ele>606</ele>
        <time>2017-10-12T12:02:46Z</time>
      </trkpt>
      <trkpt lat="45.99113" lon="2.99237">
        <ele>606</ele>
        <time>2017-10-12T12:04:46Z</time>
      </trkpt>
      <trkpt lat="45.99121" lon="2.99252">
        <ele>605</ele>
        <time>2017-10-12T12:06:46Z</time>
      </trkpt>
      <trkpt lat="45.99126" lon="2.99258">
        <ele>604</ele>
        <time>2017-10-12T12:08:46Z</time>
      </trkpt>
      <trkpt lat="45.99148" lon="2.99283">
        <ele>602</ele>
        <time>2017-10-12T12:10:46Z</time>
      </trkpt>
      <trkpt lat="45.99154" lon="2.99287">
        <ele>602</ele>
        <time>2017-10-12T12:12:46Z</time>
      </trkpt>
      <trkpt lat="45.99209" lon="2.99315">
        <ele>599</ele>
        <time>2017-10-12T12:14:46Z</time>
      </trkpt>
      <trkpt lat="45.99214" lon="2.99317">
        <ele>598</ele>
        <time>2017-10-12T12:16:46Z</time>
      </trkpt>
      <trkpt lat="45.99224" lon="2.99324">
        <ele>598</ele>
        <time>2017-10-12T12:18:46Z</time>
      </trkpt>
      <trkpt lat="45.99228" lon="2.99323">
        <ele>598</ele>
        <time>2017-10-12T12:20:46Z</time>
      </trkpt>
      <trkpt lat="45.99235" lon="2.9933">
        <ele>598</ele>
        <time>2017-10-12T12:22:46Z</time>
      </trkpt>
      <trkpt lat="45.99238" lon="2.99333">
        <ele>598</ele>
        <time>2017-10-12T12:24:46Z</time>
      </trkpt>
      <trkpt lat="45.99242" lon="2.99341">
        <ele>598</ele>
        <time>2017-10-12T12:26:46Z</time>
      </trkpt>
      <trkpt lat="45.99247" lon="2.99347">
        <ele>598</ele>
        <time>2017-10-12T12:28:46Z</time>
      </trkpt>
      <trkpt lat="45.99267" lon="2.99376">
        <ele>598</ele>
        <time>2017-10-12T12:30:46Z</time>
      </trkpt>
      <trkpt lat="45.9929" lon="2.9942">
        <ele>598</ele>
        <time>2017-10-12T12:32:46Z</time>
      </trkpt>
      <trkpt lat="45.9931" lon="2.99464">
        <ele>599</ele>
        <time>2017-10-12T12:34:46Z</time>
      </trkpt>
      <trkpt lat="45.99327" lon="2.99496">
        <ele>600</ele>
        <time>2017-10-12T12:36:46Z</time>
      </trkpt>
      <trkpt lat="45.99347" lon="2.9953">
        <ele>602</ele>
        <time>2017-10-12T12:38:46Z</time>
      </trkpt>
      <trkpt lat="45.99385" lon="2.99609">
        <ele>606</ele>
        <time>2017-10-12T12:40:46Z</time>
      </trkpt>
      <trkpt lat="45.99392" lon="2.99635">
        <ele>608</ele>
        <time>2017-10-12T12:42:46Z</time>
      </trkpt>
      <trkpt lat="45.99401" lon="2.99649">
        <ele>609</ele>
        <time>2017-10-12T12:44:46Z</time>
      </trkpt>
      <trkpt lat="45.99407" lon="2.99651">
        <ele>609</ele>
        <time>2017-10-12T12:46:46Z</time>
      </trkpt>
      <trkpt lat="45.99418" lon="2.99658">
        <ele>609</ele>
        <time>2017-10-12T12:48:46Z</time>
      </trkpt>
      <trkpt lat="45.99439" lon="2.99669">
        <ele>611</ele>
        <time>2017-10-12T12:50:46Z</time>
      </trkpt>
      <trkpt lat="45.99455" lon="2.99675">
        <ele>612</ele>
        <time>2017-10-12T12:52:46Z</time>
      </trkpt>
      <trkpt lat="45.99472" lon="2.99677">
        <ele>613</ele>
        <time>2017-10-12T12:54:46Z</time>
      </trkpt>
      <trkpt lat="45.99477" lon="2.99677">
        <ele>614</ele>
        <time>2017-10-12T12:56:46Z</time>
      </trkpt>
      <trkpt lat="45.99478" lon="2.99673">
        <ele>613</ele>
        <time>2017-10-12T12:58:46Z</time>
      </trkpt>
      <trkpt lat="45.99484" lon="2.99668">
        <ele>613</ele>
        <time>2017-10-12T13:00:46Z</time>
      </trkpt>
      <trkpt lat="45.99488" lon="2.99664">
        <ele>613</ele>
        <time>2017-10-12T13:02:46Z</time>
      </trkpt>
      <trkpt lat="45.99512" lon="2.99659">
        <ele>614</ele>
        <time>2017-10-12T13:04:46Z</time>
      </trkpt>
      <trkpt lat="45.9954" lon="2.9967">
        <ele>616</ele>
        <time>2017-10-12T13:06:46Z</time>
      </trkpt>
      <trkpt lat="45.99544" lon="2.9967">
        <ele>616</ele>
        <time>2017-10-12T13:08:46Z</time>
      </trkpt>
      <trkpt lat="45.99574" lon="2.99646">
        <ele>616</ele>
        <time>2017-10-12T13:10:46Z</time>
      </trkpt>
      <trkpt lat="45.99614" lon="2.99608">
        <ele>618</ele>
        <time>2017-10-12T13:12:46Z</time>
      </trkpt>
      <trkpt lat="45.99626" lon="2.99594">
        <ele>618</ele>
        <time>2017-10-12T13:14:46Z</time>
      </trkpt>
      <trkpt lat="45.99629" lon="2.99591">
        <ele>618</ele>
        <time>2017-10-12T13:16:46Z</time>
      </trkpt>
      <trkpt lat="45.99634" lon="2.99593">
        <ele>619</ele>
        <time>2017-10-12T13:18:46Z</time>
      </trkpt>
      <trkpt lat="45.99637" lon="2.99593">
        <ele>619</ele>
        <time>2017-10-12T13:20:46Z</time>
      </trkpt>
      <trkpt lat="45.99646" lon="2.99591">
        <ele>619</ele>
        <time>2017-10-12T13:22:46Z</time>
      </trkpt>
      <trkpt lat="45.99649" lon="2.99591">
        <ele>619</ele>
        <time>2017-10-12T13:24:46Z</time>
      </trkpt>
      <trkpt lat="45.99657" lon="2.99592">
        <ele>619</ele>
        <time>2017-10-12T13:26:46Z</time>
      </trkpt>
      <trkpt lat="45.99716" lon="2.99609">
        <ele>619</ele>
        <time>2017-10-12T13:28:46Z</time>
      </trkpt>
      <trkpt lat="45.99765" lon="2.99618">
        <ele>617</ele>
        <time>2017-10-12T13:30:46Z</time>
      </trkpt>
      <trkpt lat="45.99792" lon="2.9962">
        <ele>614</ele>
        <time>2017-10-12T13:32:46Z</time>
      </trkpt>
      <trkpt lat="45.99847" lon="2.99651">
        <ele>609</ele>
        <time>2017-10-12T13:34:46Z</time>
      </trkpt>
      <trkpt lat="45.9986" lon="2.99655">
        <ele>608</ele>
        <time>2017-10-12T13:36:46Z</time>
      </trkpt>
      <trkpt lat="45.99897" lon="2.99663">
        <ele>604</ele>
        <time>2017-10-12T13:38:46Z</time>
      </trkpt>
      <trkpt lat="45.99944" lon="2.99686">
        <ele>600</ele>
        <time>2017-10-12T13:40:46Z</time>
      </trkpt>
      <trkpt lat="45.99945" lon="2.99688">
        <ele>600</ele>
        <time>2017-10-12T13:42:46Z</time>
      </trkpt>
      <trkpt lat="45.99987" lon="2.99694">
        <ele>597</ele>
        <time>2017-10-12T13:44:46Z</time>
      </trkpt>
      <trkpt lat="46.00017" lon="2.99704">
        <ele>596</ele>
        <time>2017-10-12T13:46:46Z</time>
      </trkpt>
      <trkpt lat="46.00061" lon="2.99706">
        <ele>595</ele>
        <time>2017-10-12T13:48:46Z</time>
      </trkpt>
      <trkpt lat="46.00077" lon="2.99718">
        <ele>595</ele>
        <time>2017-10-12T13:50:46Z</time>
      </trkpt>
      <trkpt lat="46.0008" lon="2.99718">
        <ele>595</ele>
        <time>2017-10-12T13:52:46Z</time>
      </trkpt>
      <trkpt lat="46.00096" lon="2.99727">
        <ele>596</ele>
        <time>2017-10-12T13:54:46Z</time>
      </trkpt>
      <trkpt lat="46.00114" lon="2.99742">
        <ele>597</ele>
        <time>2017-10-12T13:56:46Z</time>
      </trkpt>
      <trkpt lat="46.00127" lon="2.99755">
        <ele>599</ele>
        <time>2017-10-12T13:58:46Z</time>
      </trkpt>
      <trkpt lat="46.00143" lon="2.99767">
        <ele>600</ele>
        <time>2017-10-12T14:00:46Z</time>
      </trkpt>
      <trkpt lat="46.00156" lon="2.9978">
        <ele>601</ele>
        <time>2017-10-12T14:02:46Z</time>
      </trkpt>
      <trkpt lat="46.00159" lon="2.99786">
        <ele>601</ele>
        <time>2017-10-12T14:04:46Z</time>
      </trkpt>
      <trkpt lat="46.00178" lon="2.99813">
        <ele>603</ele>
        <time>2017-10-12T14:06:46Z</time>
      </trkpt>
      <trkpt lat="46.00179" lon="2.99817">
        <ele>603</ele>
        <time>2017-10-12T14:08:46Z</time>
      </trkpt>
      <trkpt lat="46.00178" lon="2.99821">
        <ele>603</ele>
        <time>2017-10-12T14:10:46Z</time>
      </trkpt>
      <trkpt lat="46.00177" lon="2.99825">
        <ele>603</ele>
        <time>2017-10-12T14:12:46Z</time>
      </trkpt>
      <trkpt lat="46.00176" lon="2.99836">
        <ele>604</ele>
        <time>2017-10-12T14:14:46Z</time>
      </trkpt>
      <trkpt lat="46.00173" lon="2.99847">
        <ele>604</ele>
        <time>2017-10-12T14:16:46Z</time>
      </trkpt>
      <trkpt lat="46.00169" lon="2.99889">
        <ele>605</ele>
        <time>2017-10-12T14:18:46Z</time>
      </trkpt>
      <trkpt lat="46.00166" lon="2.99914">
        <ele>605</ele>
        <time>2017-10-12T14:20:46Z</time>
      </trkpt>
      <trkpt lat="46.00159" lon="2.99942">
        <ele>606</ele>
        <time>2017-10-12T14:22:46Z</time>
      </trkpt>
      <trkpt lat="46.0016" lon="2.9997">
        <ele>607</ele>
        <time>2017-10-12T14:24:46Z</time>
      </trkpt>
      <trkpt lat="46.00175" lon="3">
        <ele>608</ele>
        <time>2017-10-12T14:26:46Z</time>
      </trkpt>
      <trkpt lat="46.00187" lon="3.00021">
        <ele>609</ele>
        <time>2017-10-12T14:28:46Z</time>
      </trkpt>
      <trkpt lat="46.00201" lon="3.00044">
        <ele>609</ele>
        <time>2017-10-12T14:30:46Z</time>
      </trkpt>
      <trkpt lat="46.00215" lon="3.00077">
        <ele>609</ele>
        <time>2017-10-12T14:32:46Z</time>
      </trkpt>
      <trkpt lat="46.00229" lon="3.00178">
        <ele>613</ele>
        <time>2017-10-12T14:34:46Z</time>
      </trkpt>
      <trkpt lat="46.00252" lon="3.00249">
        <ele>619</ele>
        <time>2017-10-12T14:36:46Z</time>
      </trkpt>
      <trkpt lat="46.00251" lon="3.00253">
        <ele>619</ele>
        <time>2017-10-12T14:38:46Z</time>
      </trkpt>
      <trkpt lat="46.00247" lon="3.00293">
        <ele>621</ele>
        <time>2017-10-12T14:40:46Z</time>
      </trkpt>
      <trkpt lat="46.00233" lon="3.00333">
        <ele>623</ele>
        <time>2017-10-12T14:42:46Z</time>
      </trkpt>
      <trkpt lat="46.00226" lon="3.00375">
        <ele>625</ele>
        <time>2017-10-12T14:44:46Z</time>
      </trkpt>
      <trkpt lat="46.00228" lon="3.00433">
        <ele>626</ele>
        <time>2017-10-12T14:46:46Z</time>
      </trkpt>
      <trkpt lat="46.00237" lon="3.00482">
        <ele>627</ele>
        <time>2017-10-12T14:48:46Z</time>
      </trkpt>
      <trkpt lat="46.00244" lon="3.00539">
        <ele>627</ele>
        <time>2017-10-12T14:50:46Z</time>
      </trkpt>
      <trkpt lat="46.00247" lon="3.00599">
        <ele>628</ele>
        <time>2017-10-12T14:52:46Z</time>
      </trkpt>
      <trkpt lat="46.00251" lon="3.0066">
        <ele>628</ele>
        <time>2017-10-12T14:54:46Z</time>
      </trkpt>
      <trkpt lat="46.00251" lon="3.00667">
        <ele>628</ele>
        <time>2017-10-12T14:56:46Z</time>
      </trkpt>
      <trkpt lat="46.00254" lon="3.0077">
        <ele>626</ele>
        <time>2017-10-12T14:58:46Z</time>
      </trkpt>
      <trkpt lat="46.00253" lon="3.00823">
        <ele>627</ele>
        <time>2017-10-12T15:00:46Z</time>
      </trkpt>
      <trkpt lat="46.00253" lon="3.0083">
        <ele>627</ele>
        <time>2017-10-12T15:02:46Z</time>
      </trkpt>
      <trkpt lat="46.00252" lon="3.0084">
        <ele>627</ele>
        <time>2017-10-12T15:04:46Z</time>
      </trkpt>
      <trkpt lat="46.00248" lon="3.00851">
        <ele>627</ele>
        <time>2017-10-12T15:06:46Z</time>
      </trkpt>
      <trkpt lat="46.00245" lon="3.00855">
        <ele>627</ele>
        <time>2017-10-12T15:08:46Z</time>
      </trkpt>
      <trkpt lat="46.00238" lon="3.00861">
        <ele>627</ele>
        <time>2017-10-12T15:10:46Z</time>
      </trkpt>
      <trkpt lat="46.0023" lon="3.00867">
        <ele>627</ele>
        <time>2017-10-12T15:12:46Z</time>
      </trkpt>
      <trkpt lat="46.00193" lon="3.00905">
        <ele>628</ele>
        <time>2017-10-12T15:14:46Z</time>
      </trkpt>
      <trkpt lat="46.00143" lon="3.00965">
        <ele>628</ele>
        <time>2017-10-12T15:16:46Z</time>
      </trkpt>
      <trkpt lat="46.00141" lon="3.0097">
        <ele>628</ele>
        <time>2017-10-12T15:18:46Z</time>
      </trkpt>
      <trkpt lat="46.00138" lon="3.00982">
        <ele>628</ele>
        <time>2017-10-12T15:20:46Z</time>
      </trkpt>
      <trkpt lat="46.00138" lon="3.00994">
        <ele>628</ele>
        <time>2017-10-12T15:22:46Z</time>
      </trkpt>
      <trkpt lat="46.00135" lon="3.01024">
        <ele>629</ele>
        <time>2017-10-12T15:24:46Z</time>
      </trkpt>
      <trkpt lat="46.00137" lon="3.01025">
        <ele>629</ele>
        <time>2017-10-12T15:26:46Z</time>
      </trkpt>
      <trkpt lat="46.00142" lon="3.01025">
        <ele>629</ele>
        <time>2017-10-12T15:28:46Z</time>
      </trkpt>
      <trkpt lat="46.00154" lon="3.01023">
        <ele>629</ele>
        <time>2017-10-12T15:30:46Z</time>
      </trkpt>
      <trkpt lat="46.00156" lon="3.01024">
        <ele>629</ele>
        <time>2017-10-12T15:32:46Z</time>
      </trkpt>
      <trkpt lat="46.00196" lon="3.01039">
        <ele>629</ele>
        <time>2017-10-12T15:34:46Z</time>
      </trkpt>
      <trkpt lat="46.00203" lon="3.01045">
        <ele>628</ele>
        <time>2017-10-12T15:36:46Z</time>
      </trkpt>
      <trkpt lat="46.00238" lon="3.0106">
        <ele>627</ele>
        <time>2017-10-12T15:38:46Z</time>
      </trkpt>
      <trkpt lat="46.00255" lon="3.01066">
        <ele>627</ele>
        <time>2017-10-12T15:40:46Z</time>
      </trkpt>
      <trkpt lat="46.00332" lon="3.01064">
        <ele>625</ele>
        <time>2017-10-12T15:42:46Z</time>
      </trkpt>
      <trkpt lat="46.00344" lon="3.0106">
        <ele>624</ele>
        <time>2017-10-12T15:44:46Z</time>
      </trkpt>
      <trkpt lat="46.00348" lon="3.01056">
        <ele>624</ele>
        <time>2017-10-12T15:46:46Z</time>
      </trkpt>
      <trkpt lat="46.00352" lon="3.01053">
        <ele>624</ele>
        <time>2017-10-12T15:48:46Z</time>
      </trkpt>
      <trkpt lat="46.00372" lon="3.01026">
        <ele>622</ele>
        <time>2017-10-12T15:50:46Z</time>
      </trkpt>
      <trkpt lat="46.00379" lon="3.01017">
        <ele>622</ele>
        <time>2017-10-12T15:52:46Z</time>
      </trkpt>
      <trkpt lat="46.00383" lon="3.01013">
        <ele>621</ele>
        <time>2017-10-12T15:54:46Z</time>
      </trkpt>
      <trkpt lat="46.00388" lon="3.0101">
        <ele>621</ele>
        <time>2017-10-12T15:56:46Z</time>
      </trkpt>
      <trkpt lat="46.00393" lon="3.01007">
        <ele>621</ele>
        <time>2017-10-12T15:58:46Z</time>
      </trkpt>
      <trkpt lat="46.00398" lon="3.01005">
        <ele>620</ele>
        <time>2017-10-12T16:00:46Z</time>
      </trkpt>
      <trkpt lat="46.00402" lon="3.01004">
        <ele>620</ele>
        <time>2017-10-12T16:02:46Z</time>
      </trkpt>
      <trkpt lat="46.00452" lon="3.00993">
        <ele>616</ele>
        <time>2017-10-12T16:04:46Z</time>
      </trkpt>
      <trkpt lat="46.00452" lon="3.00991">
        <ele>616</ele>
        <time>2017-10-12T16:06:46Z</time>
      </trkpt>
      <trkpt lat="46.00456" lon="3.00991">
        <ele>616</ele>
        <time>2017-10-12T16:08:46Z</time>
      </trkpt>
      <trkpt lat="46.00458" lon="3.00996">
        <ele>616</ele>
        <time>2017-10-12T16:10:46Z</time>
      </trkpt>
      <trkpt lat="46.00472" lon="3.00994">
        <ele>615</ele>
        <time>2017-10-12T16:12:46Z</time>
      </trkpt>
      <trkpt lat="46.00481" lon="3.00991">
        <ele>614</ele>
        <time>2017-10-12T16:14:46Z</time>
      </trkpt>
      <trkpt lat="46.00527" lon="3.00977">
        <ele>611</ele>
        <time>2017-10-12T16:16:46Z</time>
      </trkpt>
      <trkpt lat="46.0057" lon="3.00967">
        <ele>610</ele>
        <time>2017-10-12T16:18:46Z</time>
      </trkpt>
      <trkpt lat="46.00575" lon="3.00967">
        <ele>610</ele>
        <time>2017-10-12T16:20:46Z</time>
      </trkpt>
      <trkpt lat="46.0058" lon="3.00969">
        <ele>610</ele>
        <time>2017-10-12T16:22:46Z</time>
      </trkpt>
      <trkpt lat="46.00585" lon="3.00973">
        <ele>610</ele>
        <time>2017-10-12T16:24:46Z</time>
      </trkpt>
      <trkpt lat="46.00589" lon="3.00977">
        <ele>610</ele>
        <time>2017-10-12T16:26:46Z</time>
      </trkpt>
      <trkpt lat="46.00596" lon="3.00988">
        <ele>610</ele>
        <time>2017-10-12T16:28:46Z</time>
      </trkpt>
      <trkpt lat="46.006" lon="3.00992">
        <ele>610</ele>
        <time>2017-10-12T16:30:46Z</time>
      </trkpt>
      <trkpt lat="46.00604" lon="3.00994">
        <ele>610</ele>
        <time>2017-10-12T16:32:46Z</time>
      </trkpt>
      <trkpt lat="46.00607" lon="3.00994">
        <ele>610</ele>
        <time>2017-10-12T16:34:46Z</time>
      </trkpt>
      <trkpt lat="46.0061" lon="3.00992">
        <ele>610</ele>
        <time>2017-10-12T16:36:46Z</time>
      </trkpt>
      <trkpt lat="46.00615" lon="3.00987">
        <ele>610</ele>
        <time>2017-10-12T16:38:46Z</time>
      </trkpt>
      <trkpt lat="46.00655" lon="3.00963">
        <ele>607</ele>
        <time>2017-10-12T16:40:46Z</time>
      </trkpt>
      <trkpt lat="46.00692" lon="3.00966">
        <ele>607</ele>
        <time>2017-10-12T16:42:46Z</time>
      </trkpt>
      <trkpt lat="46.00738" lon="3.00973">
        <ele>607</ele>
        <time>2017-10-12T16:44:46Z</time>
      </trkpt>
      <trkpt lat="46.00785" lon="3.00995">
        <ele>606</ele>
        <time>2017-10-12T16:46:46Z</time>
      </trkpt>
      <trkpt lat="46.00836" lon="3.01024">
        <ele>605</ele>
        <time>2017-10-12T16:48:46Z</time>
      </trkpt>
      <trkpt lat="46.00852" lon="3.01027">
        <ele>605</ele>
        <time>2017-10-12T16:50:46Z</time>
      </trkpt>
      <trkpt lat="46.00909" lon="3.01017">
        <ele>603</ele>
        <time>2017-10-12T16:52:46Z</time>
      </trkpt>
      <trkpt lat="46.00914" lon="3.01019">
        <ele>603</ele>
        <time>2017-10-12T16:54:46Z</time>
      </trkpt>
      <trkpt lat="46.00978" lon="3.0104">
        <ele>604</ele>
        <time>2017-10-12T16:56:46Z</time>
      </trkpt>
      <trkpt lat="46.01077" lon="3.01088">
        <ele>608</ele>
        <time>2017-10-12T16:58:46Z</time>
      </trkpt>
      <trkpt lat="46.01127" lon="3.01104">
        <ele>607</ele>
        <time>2017-10-12T17:00:46Z</time>
      </trkpt>
      <trkpt lat="46.01161" lon="3.01104">
        <ele>605</ele>
        <time>2017-10-12T17:02:46Z</time>
      </trkpt>
      <trkpt lat="46.01207" lon="3.01086">
        <ele>600</ele>
        <time>2017-10-12T17:04:46Z</time>
      </trkpt>
      <trkpt lat="46.01212" lon="3.01085">
        <ele>600</ele>
        <time>2017-10-12T17:06:46Z</time>
      </trkpt>
      <trkpt lat="46.01216" lon="3.01085">
        <ele>600</ele>
        <time>2017-10-12T17:08:46Z</time>
      </trkpt>
      <trkpt lat="46.01221" lon="3.01086">
        <ele>599</ele>
        <time>2017-10-12T17:10:46Z</time>
      </trkpt>
      <trkpt lat="46.01224" lon="3.01088">
        <ele>599</ele>
        <time>2017-10-12T17:12:46Z</time>
      </trkpt>
      <trkpt lat="46.01239" lon="3.01104">
        <ele>599</ele>
        <time>2017-10-12T17:14:46Z</time>
      </trkpt>
      <trkpt lat="46.01239" lon="3.01118">
        <ele>600</ele>
        <time>2017-10-12T17:16:46Z</time>
      </trkpt>
      <trkpt lat="46.0124" lon="3.01122">
        <ele>600</ele>
        <time>2017-10-12T17:18:46Z</time>
      </trkpt>
      <trkpt lat="46.0124" lon="3.01127">
        <ele>601</ele>
        <time>2017-10-12T17:20:46Z</time>
      </trkpt>
      <trkpt lat="46.01242" lon="3.01167">
        <ele>604</ele>
        <time>2017-10-12T17:22:46Z</time>
      </trkpt>
      <trkpt lat="46.01247" lon="3.0121">
        <ele>606</ele>
        <time>2017-10-12T17:24:46Z</time>
      </trkpt>
      <trkpt lat="46.01248" lon="3.0125">
        <ele>608</ele>
        <time>2017-10-12T17:26:46Z</time>
      </trkpt>
      <trkpt lat="46.01246" lon="3.01293">
        <ele>609</ele>
        <time>2017-10-12T17:28:46Z</time>
      </trkpt>
      <trkpt lat="46.01241" lon="3.01336">
        <ele>610</ele>
        <time>2017-10-12T17:30:46Z</time>
      </trkpt>
      <trkpt lat="46.0123" lon="3.01374">
        <ele>611</ele>
        <time>2017-10-12T17:32:46Z</time>
      </trkpt>
      <trkpt lat="46.01218" lon="3.01401">
        <ele>612</ele>
        <time>2017-10-12T17:34:46Z</time>
      </trkpt>
      <trkpt lat="46.01204" lon="3.01423">
        <ele>614</ele>
        <time>2017-10-12T17:36:46Z</time>
      </trkpt>
      <trkpt lat="46.01183" lon="3.01447">
        <ele>617</ele>
        <time>2017-10-12T17:38:46Z</time>
      </trkpt>
      <trkpt lat="46.01169" lon="3.0146">
        <ele>619</ele>
        <time>2017-10-12T17:40:46Z</time>
      </trkpt>
      <trkpt lat="46.01157" lon="3.0147">
        <ele>620</ele>
        <time>2017-10-12T17:42:46Z</time>
      </trkpt>
      <trkpt lat="46.01129" lon="3.01487">
        <ele>621</ele>
        <time>2017-10-12T17:44:46Z</time>
      </trkpt>
      <trkpt lat="46.01102" lon="3.01499">
        <ele>623</ele>
        <time>2017-10-12T17:46:46Z</time>
      </trkpt>
      <trkpt lat="46.01037" lon="3.01508">
        <ele>627</ele>
        <time>2017-10-12T17:48:46Z</time>
      </trkpt>
      <trkpt lat="46.01002" lon="3.01516">
        <ele>629</ele>
        <time>2017-10-12T17:50:46Z</time>
      </trkpt>
      <trkpt lat="46.01007" lon="3.01585">
        <ele>629</ele>
        <time>2017-10-12T17:52:46Z</time>
      </trkpt>
      <trkpt lat="46.01013" lon="3.01636">
        <ele>630</ele>
        <time>2017-10-12T17:54:46Z</time>
      </trkpt>
      <trkpt lat="46.01021" lon="3.01686">
        <ele>631</ele>
        <time>2017-10-12T17:56:46Z</time>
      </trkpt>
      <trkpt lat="46.01038" lon="3.01723">
        <ele>630</ele>
        <time>2017-10-12T17:58:46Z</time>
      </trkpt>
      <trkpt lat="46.0106" lon="3.01795">
        <ele>629</ele>
        <time>2017-10-12T18:00:46Z</time>
      </trkpt>
      <trkpt lat="46.01075" lon="3.01883">
        <ele>627</ele>
        <time>2017-10-12T18:02:46Z</time>
      </trkpt>
      <trkpt lat="46.01077" lon="3.01906">
        <ele>626</ele>
        <time>2017-10-12T18:04:46Z</time>
      </trkpt>
      <trkpt lat="46.01067" lon="3.02044">
        <ele>626</ele>
        <time>2017-10-12T18:06:46Z</time>
      </trkpt>
      <trkpt lat="46.01067" lon="3.02064">
        <ele>625</ele>
        <time>2017-10-12T18:08:46Z</time>
      </trkpt>
      <trkpt lat="46.01069" lon="3.02066">
        <ele>625</ele>
        <time>2017-10-12T18:10:46Z</time>
      </trkpt>
      <trkpt lat="46.01116" lon="3.02063">
        <ele>624</ele>
        <time>2017-10-12T18:12:46Z</time>
      </trkpt>
      <trkpt lat="46.01181" lon="3.02054">
        <ele>622</ele>
        <time>2017-10-12T18:14:46Z</time>
      </trkpt>
      <trkpt lat="46.01223" lon="3.02051">
        <ele>619</ele>
        <time>2017-10-12T18:16:46Z</time>
      </trkpt>
      <trkpt lat="46.01241" lon="3.02044">
        <ele>618</ele>
        <time>2017-10-12T18:18:46Z</time>
      </trkpt>
      <trkpt lat="46.01318" lon="3.02028">
        <ele>611</ele>
        <time>2017-10-12T18:20:46Z</time>
      </trkpt>
      <trkpt lat="46.01373" lon="3.02005">
        <ele>607</ele>
        <time>2017-10-12T18:22:46Z</time>
      </trkpt>
      <trkpt lat="46.01378" lon="3.02003">
        <ele>607</ele>
        <time>2017-10-12T18:24:46Z</time>
      </trkpt>
      <trkpt lat="46.01385" lon="3.02001">
        <ele>607</ele>
        <time>2017-10-12T18:26:46Z</time>
      </trkpt>
      <trkpt lat="46.01397" lon="3.01995">
        <ele>606</ele>
        <time>2017-10-12T18:28:46Z</time>
      </trkpt>
      <trkpt lat="46.0142" lon="3.01981">
        <ele>603</ele>
        <time>2017-10-12T18:30:46Z</time>
      </trkpt>
      <trkpt lat="46.01425" lon="3.0198">
        <ele>603</ele>
        <time>2017-10-12T18:32:46Z</time>
      </trkpt>
      <trkpt lat="46.01479" lon="3.01953">
        <ele>596</ele>
        <time>2017-10-12T18:34:46Z</time>
      </trkpt>
      <trkpt lat="46.01486" lon="3.01945">
        <ele>595</ele>
        <time>2017-10-12T18:36:46Z</time>
      </trkpt>
      <trkpt lat="46.01502" lon="3.01931">
        <ele>593</ele>
        <time>2017-10-12T18:38:46Z</time>
      </trkpt>
      <trkpt lat="46.01506" lon="3.01928">
        <ele>592</ele>
        <time>2017-10-12T18:40:46Z</time>
      </trkpt>
      <trkpt lat="46.01526" lon="3.01917">
        <ele>589</ele>
        <time>2017-10-12T18:42:46Z</time>
      </trkpt>
      <trkpt lat="46.01536" lon="3.01911">
        <ele>587</ele>
        <time>2017-10-12T18:44:46Z</time>
      </trkpt>
      <trkpt lat="46.01566" lon="3.01889">
        <ele>581</ele>
        <time>2017-10-12T18:46:46Z</time>
      </trkpt>
      <trkpt lat="46.01569" lon="3.01889">
        <ele>581</ele>
        <time>2017-10-12T18:48:46Z</time>
      </trkpt>
      <trkpt lat="46.01574" lon="3.01894">
        <ele>580</ele>
        <time>2017-10-12T18:50:46Z</time>
      </trkpt>
      <trkpt lat="46.01576" lon="3.01898">
        <ele>580</ele>
        <time>2017-10-12T18:52:46Z</time>
      </trkpt>
      <trkpt lat="46.01578" lon="3.01907">
        <ele>580</ele>
        <time>2017-10-12T18:54:46Z</time>
      </trkpt>
      <trkpt lat="46.01578" lon="3.01917">
        <ele>581</ele>
        <time>2017-10-12T18:56:46Z</time>
      </trkpt>
      <trkpt lat="46.01581" lon="3.0193">
        <ele>580</ele>
        <time>2017-10-12T18:58:46Z</time>
      </trkpt>
      <trkpt lat="46.01584" lon="3.01932">
        <ele>580</ele>
        <time>2017-10-12T19:00:46Z</time>
      </trkpt>
      <trkpt lat="46.01586" lon="3.01933">
        <ele>579</ele>
        <time>2017-10-12T19:02:46Z</time>
      </trkpt>
      <trkpt lat="46.0159" lon="3.01932">
        <ele>578</ele>
        <time>2017-10-12T19:04:46Z</time>
      </trkpt>
      <trkpt lat="46.01597" lon="3.01926">
        <ele>577</ele>
        <time>2017-10-12T19:06:46Z</time>
      </trkpt>
      <trkpt lat="46.01624" lon="3.01912">
        <ele>573</ele>
        <time>2017-10-12T19:08:46Z</time>
      </trkpt>
      <trkpt lat="46.01654" lon="3.01864">
        <ele>566</ele>
        <time>2017-10-12T19:10:46Z</time>
      </trkpt>
      <trkpt lat="46.01664" lon="3.01846">
        <ele>564</ele>
        <time>2017-10-12T19:12:46Z</time>
      </trkpt>
      <trkpt lat="46.01666" lon="3.01841">
        <ele>563</ele>
        <time>2017-10-12T19:14:46Z</time>
      </trkpt>
      <trkpt lat="46.01667" lon="3.01836">
        <ele>563</ele>
        <time>2017-10-12T19:16:46Z</time>
      </trkpt>
      <trkpt lat="46.01671" lon="3.01821">
        <ele>561</ele>
        <time>2017-10-12T19:18:46Z</time>
      </trkpt>
      <trkpt lat="46.01671" lon="3.01813">
        <ele>560</ele>
        <time>2017-10-12T19:20:46Z</time>
      </trkpt>
      <trkpt lat="46.01658" lon="3.01779">
        <ele>558</ele>
        <time>2017-10-12T19:22:46Z</time>
      </trkpt>
      <trkpt lat="46.01638" lon="3.01755">
        <ele>558</ele>
        <time>2017-10-12T19:24:46Z</time>
      </trkpt>
      <trkpt lat="46.01631" lon="3.01738">
        <ele>555</ele>
        <time>2017-10-12T19:26:46Z</time>
      </trkpt>
      <trkpt lat="46.0163" lon="3.0174">
        <ele>556</ele>
        <time>2017-10-12T19:28:46Z</time>
      </trkpt>
      <trkpt lat="46.01628" lon="3.01741">
        <ele>556</ele>
        <time>2017-10-12T19:30:46Z</time>
      </trkpt>
      <trkpt lat="46.01613" lon="3.01729">
        <ele>555</ele>
        <time>2017-10-12T19:32:46Z</time>
      </trkpt>
      <trkpt lat="46.01565" lon="3.01698">
        <ele>553</ele>
        <time>2017-10-12T19:34:46Z</time>
      </trkpt>
      <trkpt lat="46.01536" lon="3.01685">
        <ele>554</ele>
        <time>2017-10-12T19:36:46Z</time>
      </trkpt>
      <trkpt lat="46.01533" lon="3.0168">
        <ele>554</ele>
        <time>2017-10-12T19:38:46Z</time>
      </trkpt>
      <trkpt lat="46.01533" lon="3.01674">
        <ele>553</ele>
        <time>2017-10-12T19:40:46Z</time>
      </trkpt>
      <trkpt lat="46.01556" lon="3.01656">
        <ele>548</ele>
        <time>2017-10-12T19:42:46Z</time>
      </trkpt>
      <trkpt lat="46.01585" lon="3.01649">
        <ele>543</ele>
        <time>2017-10-12T19:44:46Z</time>
      </trkpt>
      <trkpt lat="46.01601" lon="3.01649">
        <ele>541</ele>
        <time>2017-10-12T19:46:46Z</time>
      </trkpt>
      <trkpt lat="46.01608" lon="3.01645">
        <ele>540</ele>
        <time>2017-10-12T19:48:46Z</time>
      </trkpt>
      <trkpt lat="46.01638" lon="3.0163">
        <ele>535</ele>
        <time>2017-10-12T19:50:46Z</time>
      </trkpt>
      <trkpt lat="46.01674" lon="3.01618">
        <ele>529</ele>
        <time>2017-10-12T19:52:46Z</time>
      </trkpt>
      <trkpt lat="46.01694" lon="3.01609">
        <ele>524</ele>
        <time>2017-10-12T19:54:46Z</time>
      </trkpt>
      <trkpt lat="46.01732" lon="3.016">
        <ele>516</ele>
        <time>2017-10-12T19:56:46Z</time>
      </trkpt>
      <trkpt lat="46.01757" lon="3.01593">
        <ele>509</ele>
        <time>2017-10-12T19:58:46Z</time>
      </trkpt>
      <trkpt lat="46.01808" lon="3.01577">
        <ele>496</ele>
        <time>2017-10-12T20:00:46Z</time>
      </trkpt>
      <trkpt lat="46.0182" lon="3.01576">
        <ele>493</ele>
        <time>2017-10-12T20:02:46Z</time>
      </trkpt>
      <trkpt lat="46.01823" lon="3.01577">
        <ele>493</ele>
        <time>2017-10-12T20:04:46Z</time>
      </trkpt>
      <trkpt lat="46.01843" lon="3.01565">
        <ele>487</ele>
        <time>2017-10-12T20:06:46Z</time>
      </trkpt>
      <trkpt lat="46.01871" lon="3.01559">
        <ele>481</ele>
        <time>2017-10-12T20:08:46Z</time>
      </trkpt>
      <trkpt lat="46.01882" lon="3.01555">
        <ele>478</ele>
        <time>2017-10-12T20:10:46Z</time>
      </trkpt>
      <trkpt lat="46.01884" lon="3.01544">
        <ele>478</ele>
        <time>2017-10-12T20:12:46Z</time>
      </trkpt>
      <trkpt lat="46.01887" lon="3.01535">
        <ele>477</ele>
        <time>2017-10-12T20:14:46Z</time>
      </trkpt>
      <trkpt lat="46.0189" lon="3.01528">
        <ele>476</ele>
        <time>2017-10-12T20:16:46Z</time>
      </trkpt>
      <trkpt lat="46.01895" lon="3.01518">
        <ele>476</ele>
        <time>2017-10-12T20:18:46Z</time>
      </trkpt>
      <trkpt lat="46.019" lon="3.01509">
        <ele>475</ele>
        <time>2017-10-12T20:20:46Z</time>
      </trkpt>
      <trkpt lat="46.01918" lon="3.01472">
        <ele>473</ele>
        <time>2017-10-12T20:22:46Z</time>
      </trkpt>
      <trkpt lat="46.0193" lon="3.01436">
        <ele>474</ele>
        <time>2017-10-12T20:24:46Z</time>
      </trkpt>
      <trkpt lat="46.01939" lon="3.01397">
        <ele>477</ele>
        <time>2017-10-12T20:26:46Z</time>
      </trkpt>
      <trkpt lat="46.0193" lon="3.01347">
        <ele>478</ele>
        <time>2017-10-12T20:28:46Z</time>
      </trkpt>
      <trkpt lat="46.01927" lon="3.01336">
        <ele>478</ele>
        <time>2017-10-12T20:30:46Z</time>
      </trkpt>
      <trkpt lat="46.01927" lon="3.01333">
        <ele>478</ele>
        <time>2017-10-12T20:32:46Z</time>
      </trkpt>
      <trkpt lat="46.01925" lon="3.01327">
        <ele>478</ele>
        <time>2017-10-12T20:34:46Z</time>
      </trkpt>
      <trkpt lat="46.01924" lon="3.01321">
        <ele>477</ele>
        <time>2017-10-12T20:36:46Z</time>
      </trkpt>
      <trkpt lat="46.0192" lon="3.01311">
        <ele>477</ele>
        <time>2017-10-12T20:38:46Z</time>
      </trkpt>
      <trkpt lat="46.01912" lon="3.01267">
        <ele>477</ele>
        <time>2017-10-12T20:40:46Z</time>
      </trkpt>
      <trkpt lat="46.01906" lon="3.01209">
        <ele>481</ele>
        <time>2017-10-12T20:42:46Z</time>
      </trkpt>
      <trkpt lat="46.01888" lon="3.01155">
        <ele>484</ele>
        <time>2017-10-12T20:44:46Z</time>
      </trkpt>
      <trkpt lat="46.01871" lon="3.01101">
        <ele>484</ele>
        <time>2017-10-12T20:46:46Z</time>
      </trkpt>
      <trkpt lat="46.01869" lon="3.01091">
        <ele>484</ele>
        <time>2017-10-12T20:48:46Z</time>
      </trkpt>
      <trkpt lat="46.01865" lon="3.01055">
        <ele>485</ele>
        <time>2017-10-12T20:50:46Z</time>
      </trkpt>
      <trkpt lat="46.01867" lon="3.01042">
        <ele>486</ele>
        <time>2017-10-12T20:52:46Z</time>
      </trkpt>
      <trkpt lat="46.01869" lon="3.01037">
        <ele>486</ele>
        <time>2017-10-12T20:54:46Z</time>
      </trkpt>
      <trkpt lat="46.01885" lon="3.01013">
        <ele>490</ele>
        <time>2017-10-12T20:56:46Z</time>
      </trkpt>
      <trkpt lat="46.01899" lon="3.00996">
        <ele>493</ele>
        <time>2017-10-12T20:58:46Z</time>
      </trkpt>
      <trkpt lat="46.01908" lon="3.00994">
        <ele>495</ele>
        <time>2017-10-12T21:00:46Z</time>
      </trkpt>
      <trkpt lat="46.01911" lon="3.00997">
        <ele>495</ele>
        <time>2017-10-12T21:02:46Z</time>
      </trkpt>
      <trkpt lat="46.01913" lon="3.01008">
        <ele>494</ele>
        <time>2017-10-12T21:04:46Z</time>
      </trkpt>
      <trkpt lat="46.01911" lon="3.01027">
        <ele>493</ele>
        <time>2017-10-12T21:06:46Z</time>
      </trkpt>
      <trkpt lat="46.01912" lon="3.01047">
        <ele>493</ele>
        <time>2017-10-12T21:08:46Z</time>
      </trkpt>
      <trkpt lat="46.01913" lon="3.0107">
        <ele>492</ele>
        <time>2017-10-12T21:10:46Z</time>
      </trkpt>
      <trkpt lat="46.01918" lon="3.01085">
        <ele>492</ele>
        <time>2017-10-12T21:12:46Z</time>
      </trkpt>
      <trkpt lat="46.0193" lon="3.01095">
        <ele>494</ele>
        <time>2017-10-12T21:14:46Z</time>
      </trkpt>
      <trkpt lat="46.0194" lon="3.01097">
        <ele>496</ele>
        <time>2017-10-12T21:16:46Z</time>
      </trkpt>
      <trkpt lat="46.01953" lon="3.01093">
        <ele>499</ele>
        <time>2017-10-12T21:18:46Z</time>
      </trkpt>
      <trkpt lat="46.01967" lon="3.01088">
        <ele>503</ele>
        <time>2017-10-12T21:20:46Z</time>
      </trkpt>
      <trkpt lat="46.0198" lon="3.01085">
        <ele>506</ele>
        <time>2017-10-12T21:22:46Z</time>
      </trkpt>
      <trkpt lat="46.01994" lon="3.01081">
        <ele>509</ele>
        <time>2017-10-12T21:24:46Z</time>
      </trkpt>
      <trkpt lat="46.02011" lon="3.01079">
        <ele>512</ele>
        <time>2017-10-12T21:26:46Z</time>
      </trkpt>
      <trkpt lat="46.02012" lon="3.0108">
        <ele>512</ele>
        <time>2017-10-12T21:28:46Z</time>
      </trkpt>
      <trkpt lat="46.02027" lon="3.01086">
        <ele>515</ele>
        <time>2017-10-12T21:30:46Z</time>
      </trkpt>
      <trkpt lat="46.02039" lon="3.01099">
        <ele>516</ele>
        <time>2017-10-12T21:32:46Z</time>
      </trkpt>
      <trkpt lat="46.02043" lon="3.01101">
        <ele>517</ele>
        <time>2017-10-12T21:34:46Z</time>
      </trkpt>
      <trkpt lat="46.02057" lon="3.01113">
        <ele>519</ele>
        <time>2017-10-12T21:36:46Z</time>
      </trkpt>
      <trkpt lat="46.02073" lon="3.0113">
        <ele>521</ele>
        <time>2017-10-12T21:38:46Z</time>
      </trkpt>
      <trkpt lat="46.0209" lon="3.01143">
        <ele>523</ele>
        <time>2017-10-12T21:40:46Z</time>
      </trkpt>
      <trkpt lat="46.02108" lon="3.01152">
        <ele>525</ele>
        <time>2017-10-12T21:42:46Z</time>
      </trkpt>
      <trkpt lat="46.02128" lon="3.0116">
        <ele>528</ele>
        <time>2017-10-12T21:44:46Z</time>
      </trkpt>
      <trkpt lat="46.0215" lon="3.01167">
        <ele>531</ele>
        <time>2017-10-12T21:46:46Z</time>
      </trkpt>
      <trkpt lat="46.02155" lon="3.01169">
        <ele>532</ele>
        <time>2017-10-12T21:48:46Z</time>
      </trkpt>
      <trkpt lat="46.02169" lon="3.01172">
        <ele>534</ele>
        <time>2017-10-12T21:50:46Z</time>
      </trkpt>
      <trkpt lat="46.02198" lon="3.0118">
        <ele>538</ele>
        <time>2017-10-12T21:52:46Z</time>
      </trkpt>
      <trkpt lat="46.02216" lon="3.01183">
        <ele>541</ele>
        <time>2017-10-12T21:54:46Z</time>
      </trkpt>
      <trkpt lat="46.0223" lon="3.01186">
        <ele>543</ele>
        <time>2017-10-12T21:56:46Z</time>
      </trkpt>
      <trkpt lat="46.02246" lon="3.01188">
        <ele>546</ele>
        <time>2017-10-12T21:58:46Z</time>
      </trkpt>
      <trkpt lat="46.02262" lon="3.01191">
        <ele>548</ele>
        <time>2017-10-12T22:00:46Z</time>
      </trkpt>
      <trkpt lat="46.02277" lon="3.01192">
        <ele>549</ele>
        <time>2017-10-12T22:02:46Z</time>
      </trkpt>
      <trkpt lat="46.02317" lon="3.01192">
        <ele>554</ele>
        <time>2017-10-12T22:04:46Z</time>
      </trkpt>
      <trkpt lat="46.02341" lon="3.01195">
        <ele>557</ele>
        <time>2017-10-12T22:06:46Z</time>
      </trkpt>
      <trkpt lat="46.02363" lon="3.01204">
        <ele>557</ele>
        <time>2017-10-12T22:08:46Z</time>
      </trkpt>
      <trkpt lat="46.02372" lon="3.01215">
        <ele>558</ele>
        <time>2017-10-12T22:10:46Z</time>
      </trkpt>
      <trkpt lat="46.02371" lon="3.01219">
        <ele>557</ele>
        <time>2017-10-12T22:12:46Z</time>
      </trkpt>
      <trkpt lat="46.02379" lon="3.01232">
        <ele>558</ele>
        <time>2017-10-12T22:14:46Z</time>
      </trkpt>
      <trkpt lat="46.0238" lon="3.01236">
        <ele>558</ele>
        <time>2017-10-12T22:16:46Z</time>
      </trkpt>
      <trkpt lat="46.02377" lon="3.01241">
        <ele>558</ele>
        <time>2017-10-12T22:18:46Z</time>
      </trkpt>
      <trkpt lat="46.02376" lon="3.01244">
        <ele>558</ele>
        <time>2017-10-12T22:20:46Z</time>
      </trkpt>
      <trkpt lat="46.02379" lon="3.01249">
        <ele>558</ele>
        <time>2017-10-12T22:22:46Z</time>
      </trkpt>
      <trkpt lat="46.02381" lon="3.01253">
        <ele>558</ele>
        <time>2017-10-12T22:24:46Z</time>
      </trkpt>
      <trkpt lat="46.02382" lon="3.01255">
        <ele>558</ele>
        <time>2017-10-12T22:26:46Z</time>
      </trkpt>
      <trkpt lat="46.02403" lon="3.01307">
        <ele>558</ele>
        <time>2017-10-12T22:28:46Z</time>
      </trkpt>
      <trkpt lat="46.02429" lon="3.01361">
        <ele>559</ele>
        <time>2017-10-12T22:30:46Z</time>
      </trkpt>
      <trkpt lat="46.02445" lon="3.01383">
        <ele>559</ele>
        <time>2017-10-12T22:32:46Z</time>
      </trkpt>
      <trkpt lat="46.0245" lon="3.01382">
        <ele>559</ele>
        <time>2017-10-12T22:34:46Z</time>
      </trkpt>
      <trkpt lat="46.0248" lon="3.01422">
        <ele>559</ele>
        <time>2017-10-12T22:36:46Z</time>
      </trkpt>
      <trkpt lat="46.02519" lon="3.01468">
        <ele>560</ele>
        <time>2017-10-12T22:38:46Z</time>
      </trkpt>
      <trkpt lat="46.0254" lon="3.01529">
        <ele>559</ele>
        <time>2017-10-12T22:40:46Z</time>
      </trkpt>
      <trkpt lat="46.02524" lon="3.01588">
        <ele>561</ele>
        <time>2017-10-12T22:42:46Z</time>
      </trkpt>
      <trkpt lat="46.02516" lon="3.01625">
        <ele>560</ele>
        <time>2017-10-12T22:44:46Z</time>
      </trkpt>
      <trkpt lat="46.02515" lon="3.01631">
        <ele>560</ele>
        <time>2017-10-12T22:46:46Z</time>
      </trkpt>
      <trkpt lat="46.02511" lon="3.01691">
        <ele>559</ele>
        <time>2017-10-12T22:48:46Z</time>
      </trkpt>
      <trkpt lat="46.02525" lon="3.0178">
        <ele>557</ele>
        <time>2017-10-12T22:50:46Z</time>
      </trkpt>
      <trkpt lat="46.02526" lon="3.01787">
        <ele>557</ele>
        <time>2017-10-12T22:52:46Z</time>
      </trkpt>
      <trkpt lat="46.02542" lon="3.01907">
        <ele>553</ele>
        <time>2017-10-12T22:54:46Z</time>
      </trkpt>
      <trkpt lat="46.02555" lon="3.01999">
        <ele>552</ele>
        <time>2017-10-12T22:56:46Z</time>
      </trkpt>
      <trkpt lat="46.02564" lon="3.02062">
        <ele>550</ele>
        <time>2017-10-12T22:58:46Z</time>
      </trkpt>
      <trkpt lat="46.02578" lon="3.02114">
        <ele>552</ele>
        <time>2017-10-12T23:00:46Z</time>
      </trkpt>
      <trkpt lat="46.02586" lon="3.02141">
        <ele>553</ele>
        <time>2017-10-12T23:02:46Z</time>
      </trkpt>
      <trkpt lat="46.02616" lon="3.02178">
        <ele>554</ele>
        <time>2017-10-12T23:04:46Z</time>
      </trkpt>
      <trkpt lat="46.02644" lon="3.02199">
        <ele>554</ele>
        <time>2017-10-12T23:06:46Z</time>
      </trkpt>
      <trkpt lat="46.02647" lon="3.02204">
        <ele>554</ele>
        <time>2017-10-12T23:08:46Z</time>
      </trkpt>
      <trkpt lat="46.02653" lon="3.02215">
        <ele>554</ele>
        <time>2017-10-12T23:10:46Z</time>
      </trkpt>
      <trkpt lat="46.02659" lon="3.0223">
        <ele>554</ele>
        <time>2017-10-12T23:12:46Z</time>
      </trkpt>
      <trkpt lat="46.02672" lon="3.02253">
        <ele>554</ele>
        <time>2017-10-12T23:14:46Z</time>
      </trkpt>
      <trkpt lat="46.02676" lon="3.02258">
        <ele>553</ele>
        <time>2017-10-12T23:16:46Z</time>
      </trkpt>
      <trkpt lat="46.02679" lon="3.02262">
        <ele>553</ele>
        <time>2017-10-12T23:18:46Z</time>
      </trkpt>
      <trkpt lat="46.02683" lon="3.02264">
        <ele>553</ele>
        <time>2017-10-12T23:20:46Z</time>
      </trkpt>
      <trkpt lat="46.02687" lon="3.02265">
        <ele>552</ele>
        <time>2017-10-12T23:22:46Z</time>
      </trkpt>
      <trkpt lat="46.02697" lon="3.02263">
        <ele>551</ele>
        <time>2017-10-12T23:24:46Z</time>
      </trkpt>
      <trkpt lat="46.02714" lon="3.02258">
        <ele>549</ele>
        <time>2017-10-12T23:26:46Z</time>
      </trkpt>
      <trkpt lat="46.02726" lon="3.02257">
        <ele>548</ele>
        <time>2017-10-12T23:28:46Z</time>
      </trkpt>
      <trkpt lat="46.02731" lon="3.02258">
        <ele>548</ele>
        <time>2017-10-12T23:30:46Z</time>
      </trkpt>
      <trkpt lat="46.02737" lon="3.02259">
        <ele>547</ele>
        <time>2017-10-12T23:32:46Z</time>
      </trkpt>
      <trkpt lat="46.02743" lon="3.02261">
        <ele>547</ele>
        <time>2017-10-12T23:34:46Z</time>
      </trkpt>
      <trkpt lat="46.02749" lon="3.02264">
        <ele>546</ele>
        <time>2017-10-12T23:36:46Z</time>
      </trkpt>
      <trkpt lat="46.0276" lon="3.02268">
        <ele>544</ele>
        <time>2017-10-12T23:38:46Z</time>
      </trkpt>
      <trkpt lat="46.02765" lon="3.02269">
        <ele>544</ele>
        <time>2017-10-12T23:40:46Z</time>
      </trkpt>
      <trkpt lat="46.02771" lon="3.02269">
        <ele>543</ele>
        <time>2017-10-12T23:42:46Z</time>
      </trkpt>
      <trkpt lat="46.02777" lon="3.02268">
        <ele>542</ele>
        <time>2017-10-12T23:44:46Z</time>
      </trkpt>
      <trkpt lat="46.02783" lon="3.02266">
        <ele>541</ele>
        <time>2017-10-12T23:46:46Z</time>
      </trkpt>
      <trkpt lat="46.02809" lon="3.02263">
        <ele>536</ele>
        <time>2017-10-12T23:48:46Z</time>
      </trkpt>
      <trkpt lat="46.02849" lon="3.02271">
        <ele>529</ele>
        <time>2017-10-12T23:50:46Z</time>
      </trkpt>
      <trkpt lat="46.02872" lon="3.02271">
        <ele>522</ele>
        <time>2017-10-12T23:52:46Z</time>
      </trkpt>
      <trkpt lat="46.02881" lon="3.02263">
        <ele>519</ele>
        <time>2017-10-12T23:54:46Z</time>
      </trkpt>
      <trkpt lat="46.02885" lon="3.02262">
        <ele>518</ele>
        <time>2017-10-12T23:56:46Z</time>
      </trkpt>
      <trkpt lat="46.02886" lon="3.02264">
        <ele>518</ele>
        <time>2017-10-12T23:58:46Z</time>
      </trkpt>
      <trkpt lat="46.02887" lon="3.02266">
        <ele>518</ele>
        <time>2017-10-13T00:00:46Z</time>
      </trkpt>
      <trkpt lat="46.02906" lon="3.02288">
        <ele>515</ele>
        <time>2017-10-13T00:02:46Z</time>
      </trkpt>
      <trkpt lat="46.02909" lon="3.02293">
        <ele>514</ele>
        <time>2017-10-13T00:04:46Z</time>
      </trkpt>
      <trkpt lat="46.02913" lon="3.02299">
        <ele>514</ele>
        <time>2017-10-13T00:06:46Z</time>
      </trkpt>
      <trkpt lat="46.02915" lon="3.02305">
        <ele>514</ele>
        <time>2017-10-13T00:08:46Z</time>
      </trkpt>
      <trkpt lat="46.02917" lon="3.02312">
        <ele>514</ele>
        <time>2017-10-13T00:10:46Z</time>
      </trkpt>
      <trkpt lat="46.0292" lon="3.02328">
        <ele>515</ele>
        <time>2017-10-13T00:12:46Z</time>
      </trkpt>
      <trkpt lat="46.02922" lon="3.02336">
        <ele>515</ele>
        <time>2017-10-13T00:14:46Z</time>
      </trkpt>
      <trkpt lat="46.02931" lon="3.02365">
        <ele>515</ele>
        <time>2017-10-13T00:16:46Z</time>
      </trkpt>
      <trkpt lat="46.02932" lon="3.02372">
        <ele>515</ele>
        <time>2017-10-13T00:18:46Z</time>
      </trkpt>
      <trkpt lat="46.02933" lon="3.02386">
        <ele>516</ele>
        <time>2017-10-13T00:20:46Z</time>
      </trkpt>
      <trkpt lat="46.02935" lon="3.02397">
        <ele>516</ele>
        <time>2017-10-13T00:22:46Z</time>
      </trkpt>
      <trkpt lat="46.02939" lon="3.02413">
        <ele>515</ele>
        <time>2017-10-13T00:24:46Z</time>
      </trkpt>
      <trkpt lat="46.02942" lon="3.02422">
        <ele>514</ele>
        <time>2017-10-13T00:26:46Z</time>
      </trkpt>
      <trkpt lat="46.02944" lon="3.02426">
        <ele>513</ele>
        <time>2017-10-13T00:28:46Z</time>
      </trkpt>
      <trkpt lat="46.02953" lon="3.02465">
        <ele>507</ele>
        <time>2017-10-13T00:30:46Z</time>
      </trkpt>
      <trkpt lat="46.02968" lon="3.0252">
        <ele>496</ele>
        <time>2017-10-13T00:32:46Z</time>
      </trkpt>
      <trkpt lat="46.02968" lon="3.02527">
        <ele>495</ele>
        <time>2017-10-13T00:34:46Z</time>
      </trkpt>
      <trkpt lat="46.02968" lon="3.02547">
        <ele>494</ele>
        <time>2017-10-13T00:36:46Z</time>
      </trkpt>
      <trkpt lat="46.02975" lon="3.02614">
        <ele>484</ele>
        <time>2017-10-13T00:38:46Z</time>
      </trkpt>
      <trkpt lat="46.02981" lon="3.02632">
        <ele>480</ele>
        <time>2017-10-13T00:40:46Z</time>
      </trkpt>
      <trkpt lat="46.02987" lon="3.02644">
        <ele>476</ele>
        <time>2017-10-13T00:42:46Z</time>
      </trkpt>
      <trkpt lat="46.02997" lon="3.02652">
        <ele>472</ele>
        <time>2017-10-13T00:44:46Z</time>
      </trkpt>
      <trkpt lat="46.03002" lon="3.02654">
        <ele>471</ele>
        <time>2017-10-13T00:46:46Z</time>
      </trkpt>
      <trkpt lat="46.03012" lon="3.02659">
        <ele>472</ele>
        <time>2017-10-13T00:48:46Z</time>
      </trkpt>
      <trkpt lat="46.03016" lon="3.02665">
        <ele>472</ele>
        <time>2017-10-13T00:50:46Z</time>
      </trkpt>
      <trkpt lat="46.03018" lon="3.02675">
        <ele>472</ele>
        <time>2017-10-13T00:52:46Z</time>
      </trkpt>
      <trkpt lat="46.03016" lon="3.02677">
        <ele>471</ele>
        <time>2017-10-13T00:54:46Z</time>
      </trkpt>
      <trkpt lat="46.03017" lon="3.0269">
        <ele>471</ele>
        <time>2017-10-13T00:56:46Z</time>
      </trkpt>
      <trkpt lat="46.03" lon="3.02719">
        <ele>467</ele>
        <time>2017-10-13T00:58:46Z</time>
      </trkpt>
      <trkpt lat="46.02981" lon="3.02766">
        <ele>468</ele>
        <time>2017-10-13T01:00:46Z</time>
      </trkpt>
      <trkpt lat="46.02952" lon="3.02786">
        <ele>469</ele>
        <time>2017-10-13T01:02:46Z</time>
      </trkpt>
      <trkpt lat="46.02902" lon="3.02814">
        <ele>467</ele>
        <time>2017-10-13T01:04:46Z</time>
      </trkpt>
      <trkpt lat="46.02877" lon="3.02835">
        <ele>468</ele>
        <time>2017-10-13T01:06:46Z</time>
      </trkpt>
      <trkpt lat="46.02864" lon="3.02852">
        <ele>468</ele>
        <time>2017-10-13T01:08:46Z</time>
      </trkpt>
      <trkpt lat="46.02852" lon="3.02873">
        <ele>468</ele>
        <time>2017-10-13T01:10:46Z</time>
      </trkpt>
      <trkpt lat="46.02823" lon="3.02944">
        <ele>467</ele>
        <time>2017-10-13T01:12:46Z</time>
      </trkpt>
      <trkpt lat="46.02817" lon="3.02961">
        <ele>468</ele>
        <time>2017-10-13T01:14:46Z</time>
      </trkpt>
      <trkpt lat="46.02811" lon="3.02973">
        <ele>470</ele>
        <time>2017-10-13T01:16:46Z</time>
      </trkpt>
      <trkpt lat="46.02802" lon="3.03004">
        <ele>471</ele>
        <time>2017-10-13T01:18:46Z</time>
      </trkpt>
      <trkpt lat="46.02801" lon="3.03012">
        <ele>471</ele>
        <time>2017-10-13T01:20:46Z</time>
      </trkpt>
      <trkpt lat="46.02789" lon="3.03136">
        <ele>474</ele>
        <time>2017-10-13T01:22:46Z</time>
      </trkpt>
      <trkpt lat="46.02823" lon="3.03311">
        <ele>457</ele>
        <time>2017-10-13T01:24:46Z</time>
      </trkpt>
      <trkpt lat="46.02825" lon="3.0333">
        <ele>455</ele>
        <time>2017-10-13T01:26:46Z</time>
      </trkpt>
      <trkpt lat="46.02827" lon="3.0333">
        <ele>455</ele>
        <time>2017-10-13T01:28:46Z</time>
      </trkpt>
      <trkpt lat="46.0283" lon="3.03337">
        <ele>455</ele>
        <time>2017-10-13T01:30:46Z</time>
      </trkpt>
      <trkpt lat="46.02831" lon="3.03338">
        <ele>455</ele>
        <time>2017-10-13T01:32:46Z</time>
      </trkpt>
      <trkpt lat="46.0284" lon="3.0334">
        <ele>458</ele>
        <time>2017-10-13T01:34:46Z</time>
      </trkpt>
      <trkpt lat="46.02842" lon="3.03341">
        <ele>459</ele>
        <time>2017-10-13T01:36:46Z</time>
      </trkpt>
      <trkpt lat="46.02858" lon="3.03365">
        <ele>465</ele>
        <time>2017-10-13T01:38:46Z</time>
      </trkpt>
      <trkpt lat="46.0286" lon="3.03411">
        <ele>465</ele>
        <time>2017-10-13T01:40:46Z</time>
      </trkpt>
      <trkpt lat="46.02861" lon="3.03431">
        <ele>465</ele>
        <time>2017-10-13T01:42:46Z</time>
      </trkpt>
      <trkpt lat="46.02861" lon="3.03462">
        <ele>466</ele>
        <time>2017-10-13T01:44:46Z</time>
      </trkpt>
      <trkpt lat="46.02861" lon="3.03465">
        <ele>466</ele>
        <time>2017-10-13T01:46:46Z</time>
      </trkpt>
      <trkpt lat="46.02866" lon="3.03478">
        <ele>468</ele>
        <time>2017-10-13T01:48:46Z</time>
      </trkpt>
      <trkpt lat="46.02869" lon="3.03515">
        <ele>470</ele>
        <time>2017-10-13T01:50:46Z</time>
      </trkpt>
      <trkpt lat="46.0287" lon="3.0354">
        <ele>471</ele>
        <time>2017-10-13T01:52:46Z</time>
      </trkpt>
      <trkpt lat="46.02862" lon="3.0357">
        <ele>468</ele>
        <time>2017-10-13T01:54:46Z</time>
      </trkpt>
      <trkpt lat="46.02849" lon="3.03601">
        <ele>463</ele>
        <time>2017-10-13T01:56:46Z</time>
      </trkpt>
      <trkpt lat="46.02846" lon="3.03633">
        <ele>461</ele>
        <time>2017-10-13T01:58:46Z</time>
      </trkpt>
      <trkpt lat="46.02855" lon="3.0366">
        <ele>465</ele>
        <time>2017-10-13T02:00:46Z</time>
      </trkpt>
      <trkpt lat="46.02858" lon="3.03666">
        <ele>466</ele>
        <time>2017-10-13T02:02:46Z</time>
      </trkpt>
      <trkpt lat="46.02879" lon="3.03701">
        <ele>472</ele>
        <time>2017-10-13T02:04:46Z</time>
      </trkpt>
      <trkpt lat="46.02885" lon="3.03734">
        <ele>472</ele>
        <time>2017-10-13T02:06:46Z</time>
      </trkpt>
      <trkpt lat="46.02893" lon="3.03797">
        <ele>470</ele>
        <time>2017-10-13T02:08:46Z</time>
      </trkpt>
      <trkpt lat="46.02898" lon="3.03815">
        <ele>471</ele>
        <time>2017-10-13T02:10:46Z</time>
      </trkpt>
      <trkpt lat="46.02907" lon="3.03843">
        <ele>471</ele>
        <time>2017-10-13T02:12:46Z</time>
      </trkpt>
      <trkpt lat="46.02918" lon="3.0387">
        <ele>471</ele>
        <time>2017-10-13T02:14:46Z</time>
      </trkpt>
      <trkpt lat="46.02932" lon="3.03888">
        <ele>474</ele>
        <time>2017-10-13T02:16:46Z</time>
      </trkpt>
      <trkpt lat="46.02953" lon="3.03904">
        <ele>478</ele>
        <time>2017-10-13T02:18:46Z</time>
      </trkpt>
      <trkpt lat="46.02971" lon="3.03912">
        <ele>483</ele>
        <time>2017-10-13T02:20:46Z</time>
      </trkpt>
      <trkpt lat="46.0299" lon="3.03931">
        <ele>487</ele>
        <time>2017-10-13T02:22:46Z</time>
      </trkpt>
      <trkpt lat="46.02993" lon="3.0396">
        <ele>487</ele>
        <time>2017-10-13T02:24:46Z</time>
      </trkpt>
      <trkpt lat="46.02974" lon="3.03984">
        <ele>480</ele>
        <time>2017-10-13T02:26:46Z</time>
      </trkpt>
      <trkpt lat="46.02961" lon="3.0401">
        <ele>476</ele>
        <time>2017-10-13T02:28:46Z</time>
      </trkpt>
      <trkpt lat="46.02967" lon="3.04039">
        <ele>478</ele>
        <time>2017-10-13T02:30:46Z</time>
      </trkpt>
      <trkpt lat="46.02979" lon="3.04061">
        <ele>482</ele>
        <time>2017-10-13T02:32:46Z</time>
      </trkpt>
      <trkpt lat="46.02983" lon="3.04065">
        <ele>483</ele>
        <time>2017-10-13T02:34:46Z</time>
      </trkpt>
      <trkpt lat="46.02998" lon="3.04086">
        <ele>488</ele>
        <time>2017-10-13T02:36:46Z</time>
      </trkpt>
      <trkpt lat="46.0301" lon="3.04122">
        <ele>492</ele>
        <time>2017-10-13T02:38:46Z</time>
      </trkpt>
      <trkpt lat="46.03015" lon="3.04163">
        <ele>495</ele>
        <time>2017-10-13T02:40:46Z</time>
      </trkpt>
      <trkpt lat="46.03019" lon="3.04208">
        <ele>499</ele>
        <time>2017-10-13T02:42:46Z</time>
      </trkpt>
      <trkpt lat="46.03021" lon="3.04226">
        <ele>501</ele>
        <time>2017-10-13T02:44:46Z</time>
      </trkpt>
      <trkpt lat="46.0302" lon="3.0423">
        <ele>501</ele>
        <time>2017-10-13T02:46:46Z</time>
      </trkpt>
      <trkpt lat="46.03009" lon="3.04238">
        <ele>501</ele>
        <time>2017-10-13T02:48:46Z</time>
      </trkpt>
      <trkpt lat="46.03002" lon="3.04252">
        <ele>502</ele>
        <time>2017-10-13T02:50:46Z</time>
      </trkpt>
      <trkpt lat="46.02997" lon="3.04258">
        <ele>502</ele>
        <time>2017-10-13T02:52:46Z</time>
      </trkpt>
      <trkpt lat="46.02979" lon="3.04285">
        <ele>501</ele>
        <time>2017-10-13T02:54:46Z</time>
      </trkpt>
      <trkpt lat="46.02975" lon="3.04297">
        <ele>501</ele>
        <time>2017-10-13T02:56:46Z</time>
      </trkpt>
      <trkpt lat="46.02965" lon="3.04336">
        <ele>501</ele>
        <time>2017-10-13T02:58:46Z</time>
      </trkpt>
      <trkpt lat="46.02955" lon="3.04366">
        <ele>499</ele>
        <time>2017-10-13T03:00:46Z</time>
      </trkpt>
      <trkpt lat="46.02936" lon="3.04391">
        <ele>498</ele>
        <time>2017-10-13T03:02:46Z</time>
      </trkpt>
      <trkpt lat="46.02925" lon="3.04387">
        <ele>499</ele>
        <time>2017-10-13T03:04:46Z</time>
      </trkpt>
      <trkpt lat="46.02893" lon="3.0439">
        <ele>499</ele>
        <time>2017-10-13T03:06:46Z</time>
      </trkpt>
      <trkpt lat="46.02862" lon="3.04404">
        <ele>498</ele>
        <time>2017-10-13T03:08:46Z</time>
      </trkpt>
      <trkpt lat="46.02835" lon="3.04417">
        <ele>498</ele>
        <time>2017-10-13T03:10:46Z</time>
      </trkpt>
      <trkpt lat="46.02803" lon="3.04447">
        <ele>487</ele>
        <time>2017-10-13T03:12:46Z</time>
      </trkpt>
      <trkpt lat="46.02794" lon="3.04452">
        <ele>485</ele>
        <time>2017-10-13T03:14:46Z</time>
      </trkpt>
      <trkpt lat="46.02795" lon="3.04471">
        <ele>481</ele>
        <time>2017-10-13T03:16:46Z</time>
      </trkpt>
      <trkpt lat="46.02817" lon="3.04508">
        <ele>473</ele>
        <time>2017-10-13T03:18:46Z</time>
      </trkpt>
      <trkpt lat="46.02822" lon="3.04518">
        <ele>472</ele>
        <time>2017-10-13T03:20:46Z</time>
      </trkpt>
      <trkpt lat="46.02826" lon="3.04528">
        <ele>470</ele>
        <time>2017-10-13T03:22:46Z</time>
      </trkpt>
      <trkpt lat="46.02822" lon="3.04545">
        <ele>467</ele>
        <time>2017-10-13T03:24:46Z</time>
      </trkpt>
      <trkpt lat="46.02794" lon="3.04585">
        <ele>461</ele>
        <time>2017-10-13T03:26:46Z</time>
      </trkpt>
      <trkpt lat="46.02771" lon="3.04624">
        <ele>456</ele>
        <time>2017-10-13T03:28:46Z</time>
      </trkpt>
      <trkpt lat="46.02754" lon="3.0467">
        <ele>449</ele>
        <time>2017-10-13T03:30:46Z</time>
      </trkpt>
      <trkpt lat="46.02733" lon="3.04709">
        <ele>443</ele>
        <time>2017-10-13T03:32:46Z</time>
      </trkpt>
      <trkpt lat="46.02733" lon="3.04733">
        <ele>440</ele>
        <time>2017-10-13T03:34:46Z</time>
      </trkpt>
      <trkpt lat="46.02735" lon="3.04735">
        <ele>440</ele>
        <time>2017-10-13T03:36:46Z</time>
      </trkpt>
      <trkpt lat="46.02737" lon="3.04736">
        <ele>440</ele>
        <time>2017-10-13T03:38:46Z</time>
      </trkpt>
      <trkpt lat="46.02747" lon="3.0475">
        <ele>439</ele>
        <time>2017-10-13T03:40:46Z</time>
      </trkpt>
      <trkpt lat="46.02745" lon="3.04757">
        <ele>439</ele>
        <time>2017-10-13T03:42:46Z</time>
      </trkpt>
      <trkpt lat="46.02745" lon="3.04761">
        <ele>439</ele>
        <time>2017-10-13T03:44:46Z</time>
      </trkpt>
      <trkpt lat="46.02748" lon="3.04768">
        <ele>440</ele>
        <time>2017-10-13T03:46:46Z</time>
      </trkpt>
      <trkpt lat="46.02762" lon="3.04791">
        <ele>444</ele>
        <time>2017-10-13T03:48:46Z</time>
      </trkpt>
      <trkpt lat="46.02761" lon="3.04795">
        <ele>444</ele>
        <time>2017-10-13T03:50:46Z</time>
      </trkpt>
      <trkpt lat="46.02762" lon="3.04801">
        <ele>444</ele>
        <time>2017-10-13T03:52:46Z</time>
      </trkpt>
      <trkpt lat="46.02755" lon="3.04836">
        <ele>445</ele>
        <time>2017-10-13T03:54:46Z</time>
      </trkpt>
      <trkpt lat="46.02716" lon="3.04851">
        <ele>442</ele>
        <time>2017-10-13T03:56:46Z</time>
      </trkpt>
      <trkpt lat="46.02702" lon="3.04862">
        <ele>441</ele>
        <time>2017-10-13T03:58:46Z</time>
      </trkpt>
      <trkpt lat="46.02697" lon="3.04873">
        <ele>442</ele>
        <time>2017-10-13T04:00:46Z</time>
      </trkpt>
      <trkpt lat="46.02694" lon="3.04883">
        <ele>442</ele>
        <time>2017-10-13T04:02:46Z</time>
      </trkpt>
      <trkpt lat="46.02693" lon="3.04895">
        <ele>443</ele>
        <time>2017-10-13T04:04:46Z</time>
      </trkpt>
      <trkpt lat="46.02707" lon="3.04946">
        <ele>449</ele>
        <time>2017-10-13T04:06:46Z</time>
      </trkpt>
      <trkpt lat="46.0271" lon="3.04953">
        <ele>450</ele>
        <time>2017-10-13T04:08:46Z</time>
      </trkpt>
      <trkpt lat="46.02713" lon="3.04996">
        <ele>453</ele>
        <time>2017-10-13T04:10:46Z</time>
      </trkpt>
      <trkpt lat="46.02702" lon="3.05049">
        <ele>455</ele>
        <time>2017-10-13T04:12:46Z</time>
      </trkpt>
      <trkpt lat="46.02674" lon="3.05084">
        <ele>450</ele>
        <time>2017-10-13T04:14:46Z</time>
      </trkpt>
      <trkpt lat="46.02633" lon="3.05139">
        <ele>456</ele>
        <time>2017-10-13T04:16:46Z</time>
      </trkpt>
      <trkpt lat="46.0261" lon="3.05204">
        <ele>454</ele>
        <time>2017-10-13T04:18:46Z</time>
      </trkpt>
      <trkpt lat="46.02601" lon="3.05242">
        <ele>452</ele>
        <time>2017-10-13T04:20:46Z</time>
      </trkpt>
      <trkpt lat="46.02584" lon="3.05358">
        <ele>447</ele>
        <time>2017-10-13T04:22:46Z</time>
      </trkpt>
      <trkpt lat="46.02576" lon="3.05382">
        <ele>449</ele>
        <time>2017-10-13T04:24:46Z</time>
      </trkpt>
      <trkpt lat="46.02569" lon="3.05397">
        <ele>449</ele>
        <time>2017-10-13T04:26:46Z</time>
      </trkpt>
      <trkpt lat="46.02558" lon="3.05415">
        <ele>449</ele>
        <time>2017-10-13T04:28:46Z</time>
      </trkpt>
      <trkpt lat="46.02551" lon="3.05428">
        <ele>450</ele>
        <time>2017-10-13T04:30:46Z</time>
      </trkpt>
      <trkpt lat="46.02524" lon="3.05474">
        <ele>446</ele>
        <time>2017-10-13T04:32:46Z</time>
      </trkpt>
      <trkpt lat="46.02512" lon="3.05497">
        <ele>442</ele>
        <time>2017-10-13T04:34:46Z</time>
      </trkpt>
      <trkpt lat="46.02509" lon="3.05505">
        <ele>441</ele>
        <time>2017-10-13T04:36:46Z</time>
      </trkpt>
      <trkpt lat="46.02507" lon="3.05514">
        <ele>441</ele>
        <time>2017-10-13T04:38:46Z</time>
      </trkpt>
      <trkpt lat="46.02492" lon="3.05652">
        <ele>438</ele>
        <time>2017-10-13T04:40:46Z</time>
      </trkpt>
      <trkpt lat="46.02488" lon="3.05683">
        <ele>439</ele>
        <time>2017-10-13T04:42:46Z</time>
      </trkpt>
      <trkpt lat="46.02486" lon="3.05692">
        <ele>440</ele>
        <time>2017-10-13T04:44:46Z</time>
      </trkpt>
      <trkpt lat="46.02475" lon="3.05724">
        <ele>441</ele>
        <time>2017-10-13T04:46:46Z</time>
      </trkpt>
      <trkpt lat="46.02472" lon="3.05731">
        <ele>441</ele>
        <time>2017-10-13T04:48:46Z</time>
      </trkpt>
      <trkpt lat="46.02471" lon="3.05738">
        <ele>441</ele>
        <time>2017-10-13T04:50:46Z</time>
      </trkpt>
      <trkpt lat="46.02463" lon="3.05747">
        <ele>441</ele>
        <time>2017-10-13T04:52:46Z</time>
      </trkpt>
      <trkpt lat="46.02462" lon="3.05766">
        <ele>441</ele>
        <time>2017-10-13T04:54:46Z</time>
      </trkpt>
      <trkpt lat="46.02458" lon="3.05787">
        <ele>440</ele>
        <time>2017-10-13T04:56:46Z</time>
      </trkpt>
      <trkpt lat="46.02448" lon="3.05838">
        <ele>437</ele>
        <time>2017-10-13T04:58:46Z</time>
      </trkpt>
      <trkpt lat="46.02442" lon="3.05855">
        <ele>436</ele>
        <time>2017-10-13T05:00:46Z</time>
      </trkpt>
      <trkpt lat="46.02435" lon="3.05886">
        <ele>434</ele>
        <time>2017-10-13T05:02:46Z</time>
      </trkpt>
      <trkpt lat="46.02429" lon="3.05901">
        <ele>432</ele>
        <time>2017-10-13T05:04:46Z</time>
      </trkpt>
      <trkpt lat="46.02418" lon="3.05935">
        <ele>429</ele>
        <time>2017-10-13T05:06:46Z</time>
      </trkpt>
      <trkpt lat="46.02436" lon="3.05942">
        <ele>431</ele>
        <time>2017-10-13T05:08:46Z</time>
      </trkpt>
      <trkpt lat="46.02462" lon="3.05941">
        <ele>435</ele>
        <time>2017-10-13T05:10:46Z</time>
      </trkpt>
      <trkpt lat="46.02479" lon="3.0594">
        <ele>437</ele>
        <time>2017-10-13T05:12:46Z</time>
      </trkpt>
      <trkpt lat="46.02497" lon="3.05935">
        <ele>440</ele>
        <time>2017-10-13T05:14:46Z</time>
      </trkpt>
      <trkpt lat="46.02538" lon="3.05906">
        <ele>446</ele>
        <time>2017-10-13T05:16:46Z</time>
      </trkpt>
      <trkpt lat="46.02576" lon="3.05887">
        <ele>451</ele>
        <time>2017-10-13T05:18:46Z</time>
      </trkpt>
      <trkpt lat="46.02593" lon="3.05879">
        <ele>454</ele>
        <time>2017-10-13T05:20:46Z</time>
      </trkpt>
      <trkpt lat="46.02604" lon="3.05867">
        <ele>457</ele>
        <time>2017-10-13T05:22:46Z</time>
      </trkpt>
      <trkpt lat="46.02625" lon="3.05841">
        <ele>462</ele>
        <time>2017-10-13T05:24:46Z</time>
      </trkpt>
      <trkpt lat="46.02629" lon="3.05832">
        <ele>463</ele>
        <time>2017-10-13T05:26:46Z</time>
      </trkpt>
      <trkpt lat="46.02644" lon="3.05809">
        <ele>466</ele>
        <time>2017-10-13T05:28:46Z</time>
      </trkpt>
      <trkpt lat="46.02667" lon="3.05777">
        <ele>471</ele>
        <time>2017-10-13T05:30:46Z</time>
      </trkpt>
      <trkpt lat="46.02677" lon="3.05767">
        <ele>473</ele>
        <time>2017-10-13T05:32:46Z</time>
      </trkpt>
      <trkpt lat="46.02696" lon="3.05748">
        <ele>476</ele>
        <time>2017-10-13T05:34:46Z</time>
      </trkpt>
      <trkpt lat="46.02703" lon="3.05743">
        <ele>478</ele>
        <time>2017-10-13T05:36:46Z</time>
      </trkpt>
      <trkpt lat="46.02712" lon="3.05735">
        <ele>479</ele>
        <time>2017-10-13T05:38:46Z</time>
      </trkpt>
      <trkpt lat="46.02721" lon="3.05724">
        <ele>482</ele>
        <time>2017-10-13T05:40:46Z</time>
      </trkpt>
      <trkpt lat="46.02729" lon="3.05709">
        <ele>484</ele>
        <time>2017-10-13T05:42:46Z</time>
      </trkpt>
      <trkpt lat="46.02733" lon="3.05705">
        <ele>485</ele>
        <time>2017-10-13T05:44:46Z</time>
      </trkpt>
      <trkpt lat="46.02738" lon="3.05696">
        <ele>487</ele>
        <time>2017-10-13T05:46:46Z</time>
      </trkpt>
      <trkpt lat="46.02752" lon="3.0568">
        <ele>491</ele>
        <time>2017-10-13T05:48:46Z</time>
      </trkpt>
      <trkpt lat="46.02766" lon="3.05666">
        <ele>493</ele>
        <time>2017-10-13T05:50:46Z</time>
      </trkpt>
      <trkpt lat="46.02783" lon="3.05659">
        <ele>495</ele>
        <time>2017-10-13T05:52:46Z</time>
      </trkpt>
      <trkpt lat="46.02804" lon="3.05642">
        <ele>498</ele>
        <time>2017-10-13T05:54:46Z</time>
      </trkpt>
      <trkpt lat="46.02818" lon="3.05632">
        <ele>500</ele>
        <time>2017-10-13T05:56:46Z</time>
      </trkpt>
      <trkpt lat="46.02838" lon="3.05618">
        <ele>503</ele>
        <time>2017-10-13T05:58:46Z</time>
      </trkpt>
      <trkpt lat="46.02861" lon="3.05607">
        <ele>505</ele>
        <time>2017-10-13T06:00:46Z</time>
      </trkpt>
      <trkpt lat="46.0287" lon="3.05599">
        <ele>507</ele>
        <time>2017-10-13T06:02:46Z</time>
      </trkpt>
      <trkpt lat="46.02894" lon="3.05583">
        <ele>510</ele>
        <time>2017-10-13T06:04:46Z</time>
      </trkpt>
      <trkpt lat="46.02909" lon="3.05575">
        <ele>511</ele>
        <time>2017-10-13T06:06:46Z</time>
      </trkpt>
      <trkpt lat="46.02924" lon="3.05566">
        <ele>513</ele>
        <time>2017-10-13T06:08:46Z</time>
      </trkpt>
      <trkpt lat="46.02939" lon="3.05552">
        <ele>515</ele>
        <time>2017-10-13T06:10:46Z</time>
      </trkpt>
      <trkpt lat="46.02941" lon="3.05551">
        <ele>515</ele>
        <time>2017-10-13T06:12:46Z</time>
      </trkpt>
      <trkpt lat="46.02958" lon="3.05533">
        <ele>517</ele>
        <time>2017-10-13T06:14:46Z</time>
      </trkpt>
      <trkpt lat="46.02972" lon="3.05516">
        <ele>519</ele>
        <time>2017-10-13T06:16:46Z</time>
      </trkpt>
      <trkpt lat="46.02987" lon="3.05498">
        <ele>520</ele>
        <time>2017-10-13T06:18:46Z</time>
      </trkpt>
      <trkpt lat="46.02999" lon="3.05487">
        <ele>520</ele>
        <time>2017-10-13T06:20:46Z</time>
      </trkpt>
      <trkpt lat="46.03013" lon="3.05478">
        <ele>520</ele>
        <time>2017-10-13T06:22:46Z</time>
      </trkpt>
      <trkpt lat="46.03041" lon="3.05477">
        <ele>520</ele>
        <time>2017-10-13T06:24:46Z</time>
      </trkpt>
      <trkpt lat="46.03088" lon="3.0546">
        <ele>521</ele>
        <time>2017-10-13T06:26:46Z</time>
      </trkpt>
      <trkpt lat="46.03163" lon="3.05444">
        <ele>524</ele>
        <time>2017-10-13T06:28:46Z</time>
      </trkpt>
      <trkpt lat="46.03201" lon="3.05424">
        <ele>525</ele>
        <time>2017-10-13T06:30:46Z</time>
      </trkpt>
      <trkpt lat="46.03239" lon="3.05385">
        <ele>525</ele>
        <time>2017-10-13T06:32:46Z</time>
      </trkpt>
      <trkpt lat="46.03266" lon="3.05359">
        <ele>527</ele>
        <time>2017-10-13T06:34:46Z</time>
      </trkpt>
      <trkpt lat="46.03302" lon="3.05328">
        <ele>530</ele>
        <time>2017-10-13T06:36:46Z</time>
      </trkpt>
      <trkpt lat="46.03327" lon="3.05292">
        <ele>531</ele>
        <time>2017-10-13T06:38:46Z</time>
      </trkpt>
      <trkpt lat="46.03356" lon="3.05243">
        <ele>531</ele>
        <time>2017-10-13T06:40:46Z</time>
      </trkpt>
      <trkpt lat="46.03382" lon="3.05205">
        <ele>533</ele>
        <time>2017-10-13T06:42:46Z</time>
      </trkpt>
      <trkpt lat="46.03408" lon="3.05189">
        <ele>535</ele>
        <time>2017-10-13T06:44:46Z</time>
      </trkpt>
      <trkpt lat="46.03415" lon="3.05186">
        <ele>536</ele>
        <time>2017-10-13T06:46:46Z</time>
      </trkpt>
      <trkpt lat="46.03434" lon="3.05175">
        <ele>536</ele>
        <time>2017-10-13T06:48:46Z</time>
      </trkpt>
      <trkpt lat="46.03482" lon="3.05144">
        <ele>539</ele>
        <time>2017-10-13T06:50:46Z</time>
      </trkpt>
      <trkpt lat="46.03513" lon="3.05126">
        <ele>541</ele>
        <time>2017-10-13T06:52:46Z</time>
      </trkpt>
      <trkpt lat="46.03575" lon="3.0508">
        <ele>546</ele>
        <time>2017-10-13T06:54:46Z</time>
      </trkpt>
      <trkpt lat="46.03603" lon="3.0506">
        <ele>546</ele>
        <time>2017-10-13T06:56:46Z</time>
      </trkpt>
      <trkpt lat="46.03636" lon="3.05035">
        <ele>545</ele>
        <time>2017-10-13T06:58:46Z</time>
      </trkpt>
      <trkpt lat="46.03677" lon="3.04999">
        <ele>545</ele>
        <time>2017-10-13T07:00:46Z</time>
      </trkpt>
      <trkpt lat="46.03715" lon="3.04964">
        <ele>546</ele>
        <time>2017-10-13T07:02:46Z</time>
      </trkpt>
      <trkpt lat="46.03742" lon="3.04942">
        <ele>548</ele>
        <time>2017-10-13T07:04:46Z</time>
      </trkpt>
      <trkpt lat="46.03769" lon="3.04921">
        <ele>550</ele>
        <time>2017-10-13T07:06:46Z</time>
      </trkpt>
      <trkpt lat="46.03795" lon="3.04908">
        <ele>552</ele>
        <time>2017-10-13T07:08:46Z</time>
      </trkpt>
      <trkpt lat="46.03818" lon="3.04905">
        <ele>553</ele>
        <time>2017-10-13T07:10:46Z</time>
      </trkpt>
      <trkpt lat="46.03845" lon="3.04904">
        <ele>554</ele>
        <time>2017-10-13T07:12:46Z</time>
      </trkpt>
      <trkpt lat="46.03872" lon="3.04892">
        <ele>555</ele>
        <time>2017-10-13T07:14:46Z</time>
      </trkpt>
      <trkpt lat="46.03895" lon="3.04879">
        <ele>556</ele>
        <time>2017-10-13T07:16:46Z</time>
      </trkpt>
      <trkpt lat="46.03939" lon="3.04865">
        <ele>558</ele>
        <time>2017-10-13T07:18:46Z</time>
      </trkpt>
      <trkpt lat="46.03983" lon="3.04862">
        <ele>559</ele>
        <time>2017-10-13T07:20:46Z</time>
      </trkpt>
      <trkpt lat="46.04021" lon="3.04864">
        <ele>560</ele>
        <time>2017-10-13T07:22:46Z</time>
      </trkpt>
      <trkpt lat="46.04064" lon="3.04862">
        <ele>561</ele>
        <time>2017-10-13T07:24:46Z</time>
      </trkpt>
      <trkpt lat="46.04105" lon="3.04842">
        <ele>562</ele>
        <time>2017-10-13T07:26:46Z</time>
      </trkpt>
      <trkpt lat="46.0414" lon="3.04817">
        <ele>562</ele>
        <time>2017-10-13T07:28:46Z</time>
      </trkpt>
      <trkpt lat="46.0419" lon="3.04804">
        <ele>561</ele>
        <time>2017-10-13T07:30:46Z</time>
      </trkpt>
      <trkpt lat="46.04265" lon="3.04789">
        <ele>561</ele>
        <time>2017-10-13T07:32:46Z</time>
      </trkpt>
      <trkpt lat="46.04331" lon="3.04776">
        <ele>558</ele>
        <time>2017-10-13T07:34:46Z</time>
      </trkpt>
      <trkpt lat="46.0436" lon="3.04759">
        <ele>556</ele>
        <time>2017-10-13T07:36:46Z</time>
      </trkpt>
      <trkpt lat="46.04444" lon="3.04748">
        <ele>553</ele>
        <time>2017-10-13T07:38:46Z</time>
      </trkpt>
      <trkpt lat="46.04542" lon="3.04732">
        <ele>553</ele>
        <time>2017-10-13T07:40:46Z</time>
      </trkpt>
      <trkpt lat="46.04555" lon="3.04726">
        <ele>553</ele>
        <time>2017-10-13T07:42:46Z</time>
      </trkpt>
      <trkpt lat="46.04601" lon="3.04689">
        <ele>555</ele>
        <time>2017-10-13T07:44:46Z</time>
      </trkpt>
      <trkpt lat="46.0461" lon="3.04683">
        <ele>556</ele>
        <time>2017-10-13T07:46:46Z</time>
      </trkpt>
      <trkpt lat="46.04615" lon="3.04674">
        <ele>556</ele>
        <time>2017-10-13T07:48:46Z</time>
      </trkpt>
      <trkpt lat="46.04615" lon="3.04672">
        <ele>556</ele>
        <time>2017-10-13T07:50:46Z</time>
      </trkpt>
      <trkpt lat="46.04622" lon="3.04661">
        <ele>557</ele>
        <time>2017-10-13T07:52:46Z</time>
      </trkpt>
      <trkpt lat="46.04624" lon="3.04656">
        <ele>557</ele>
        <time>2017-10-13T07:54:46Z</time>
      </trkpt>
      <trkpt lat="46.0463" lon="3.0463">
        <ele>556</ele>
        <time>2017-10-13T07:56:46Z</time>
      </trkpt>
      <trkpt lat="46.04629" lon="3.04626">
        <ele>556</ele>
        <time>2017-10-13T07:58:46Z</time>
      </trkpt>
      <trkpt lat="46.04628" lon="3.04618">
        <ele>556</ele>
        <time>2017-10-13T08:00:46Z</time>
      </trkpt>
      <trkpt lat="46.04627" lon="3.0461">
        <ele>556</ele>
        <time>2017-10-13T08:02:46Z</time>
      </trkpt>
      <trkpt lat="46.04622" lon="3.04503">
        <ele>550</ele>
        <time>2017-10-13T08:04:46Z</time>
      </trkpt>
      <trkpt lat="46.04622" lon="3.04496">
        <ele>550</ele>
        <time>2017-10-13T08:06:46Z</time>
      </trkpt>
      <trkpt lat="46.04625" lon="3.04467">
        <ele>548</ele>
        <time>2017-10-13T08:08:46Z</time>
      </trkpt>
      <trkpt lat="46.04637" lon="3.04382">
        <ele>547</ele>
        <time>2017-10-13T08:10:46Z</time>
      </trkpt>
      <trkpt lat="46.04637" lon="3.04372">
        <ele>547</ele>
        <time>2017-10-13T08:12:46Z</time>
      </trkpt>
      <trkpt lat="46.04636" lon="3.04363">
        <ele>547</ele>
        <time>2017-10-13T08:14:46Z</time>
      </trkpt>
      <trkpt lat="46.04632" lon="3.04345">
        <ele>547</ele>
        <time>2017-10-13T08:16:46Z</time>
      </trkpt>
      <trkpt lat="46.04626" lon="3.04319">
        <ele>547</ele>
        <time>2017-10-13T08:18:46Z</time>
      </trkpt>
      <trkpt lat="46.04602" lon="3.04261">
        <ele>548</ele>
        <time>2017-10-13T08:20:46Z</time>
      </trkpt>
      <trkpt lat="46.04596" lon="3.04247">
        <ele>548</ele>
        <time>2017-10-13T08:22:46Z</time>
      </trkpt>
      <trkpt lat="46.04594" lon="3.04241">
        <ele>548</ele>
        <time>2017-10-13T08:24:46Z</time>
      </trkpt>
      <trkpt lat="46.04587" lon="3.04201">
        <ele>549</ele>
        <time>2017-10-13T08:26:46Z</time>
      </trkpt>
      <trkpt lat="46.04578" lon="3.04144">
        <ele>549</ele>
        <time>2017-10-13T08:28:46Z</time>
      </trkpt>
      <trkpt lat="46.04577" lon="3.04063">
        <ele>551</ele>
        <time>2017-10-13T08:30:46Z</time>
      </trkpt>
      <trkpt lat="46.0458" lon="3.03976">
        <ele>552</ele>
        <time>2017-10-13T08:32:46Z</time>
      </trkpt>
      <trkpt lat="46.04579" lon="3.03959">
        <ele>552</ele>
        <time>2017-10-13T08:34:46Z</time>
      </trkpt>
      <trkpt lat="46.0458" lon="3.03953">
        <ele>552</ele>
        <time>2017-10-13T08:36:46Z</time>
      </trkpt>
      <trkpt lat="46.04579" lon="3.03948">
        <ele>552</ele>
        <time>2017-10-13T08:38:46Z</time>
      </trkpt>
      <trkpt lat="46.04585" lon="3.0391">
        <ele>553</ele>
        <time>2017-10-13T08:40:46Z</time>
      </trkpt>
      <trkpt lat="46.04584" lon="3.03873">
        <ele>554</ele>
        <time>2017-10-13T08:42:46Z</time>
      </trkpt>
      <trkpt lat="46.04579" lon="3.03829">
        <ele>555</ele>
        <time>2017-10-13T08:44:46Z</time>
      </trkpt>
      <trkpt lat="46.04574" lon="3.03787">
        <ele>556</ele>
        <time>2017-10-13T08:46:46Z</time>
      </trkpt>
      <trkpt lat="46.0457" lon="3.03754">
        <ele>557</ele>
        <time>2017-10-13T08:48:46Z</time>
      </trkpt>
      <trkpt lat="46.04564" lon="3.03707">
        <ele>559</ele>
        <time>2017-10-13T08:50:46Z</time>
      </trkpt>
      <trkpt lat="46.04557" lon="3.03617">
        <ele>561</ele>
        <time>2017-10-13T08:52:46Z</time>
      </trkpt>
      <trkpt lat="46.04553" lon="3.03571">
        <ele>563</ele>
        <time>2017-10-13T08:54:46Z</time>
      </trkpt>
      <trkpt lat="46.04545" lon="3.03528">
        <ele>565</ele>
        <time>2017-10-13T08:56:46Z</time>
      </trkpt>
      <trkpt lat="46.04539" lon="3.0352">
        <ele>564</ele>
        <time>2017-10-13T08:58:46Z</time>
      </trkpt>
      <trkpt lat="46.04499" lon="3.03482">
        <ele>561</ele>
        <time>2017-10-13T09:00:46Z</time>
      </trkpt>
      <trkpt lat="46.04467" lon="3.03449">
        <ele>562</ele>
        <time>2017-10-13T09:02:46Z</time>
      </trkpt>
      <trkpt lat="46.04471" lon="3.03414">
        <ele>563</ele>
        <time>2017-10-13T09:04:46Z</time>
      </trkpt>
      <trkpt lat="46.04471" lon="3.03372">
        <ele>564</ele>
        <time>2017-10-13T09:06:46Z</time>
      </trkpt>
      <trkpt lat="46.04464" lon="3.03338">
        <ele>566</ele>
        <time>2017-10-13T09:08:46Z</time>
      </trkpt>
      <trkpt lat="46.04459" lon="3.03314">
        <ele>567</ele>
        <time>2017-10-13T09:10:46Z</time>
      </trkpt>
      <trkpt lat="46.04457" lon="3.03309">
        <ele>568</ele>
        <time>2017-10-13T09:12:46Z</time>
      </trkpt>
      <trkpt lat="46.04448" lon="3.03274">
        <ele>570</ele>
        <time>2017-10-13T09:14:46Z</time>
      </trkpt>
      <trkpt lat="46.04437" lon="3.03241">
        <ele>573</ele>
        <time>2017-10-13T09:16:46Z</time>
      </trkpt>
      <trkpt lat="46.04427" lon="3.03213">
        <ele>574</ele>
        <time>2017-10-13T09:18:46Z</time>
      </trkpt>
      <trkpt lat="46.04414" lon="3.03183">
        <ele>575</ele>
        <time>2017-10-13T09:20:46Z</time>
      </trkpt>
      <trkpt lat="46.044" lon="3.03158">
        <ele>576</ele>
        <time>2017-10-13T09:22:46Z</time>
      </trkpt>
      <trkpt lat="46.04387" lon="3.0313">
        <ele>578</ele>
        <time>2017-10-13T09:24:46Z</time>
      </trkpt>
      <trkpt lat="46.04374" lon="3.03102">
        <ele>579</ele>
        <time>2017-10-13T09:26:46Z</time>
      </trkpt>
      <trkpt lat="46.04361" lon="3.0307">
        <ele>581</ele>
        <time>2017-10-13T09:28:46Z</time>
      </trkpt>
      <trkpt lat="46.04329" lon="3.03004">
        <ele>586</ele>
        <time>2017-10-13T09:30:46Z</time>
      </trkpt>
      <trkpt lat="46.0431" lon="3.02971">
        <ele>587</ele>
        <time>2017-10-13T09:32:46Z</time>
      </trkpt>
      <trkpt lat="46.04296" lon="3.02949">
        <ele>589</ele>
        <time>2017-10-13T09:34:46Z</time>
      </trkpt>
      <trkpt lat="46.04278" lon="3.0292">
        <ele>591</ele>
        <time>2017-10-13T09:36:46Z</time>
      </trkpt>
      <trkpt lat="46.0426" lon="3.02891">
        <ele>593</ele>
        <time>2017-10-13T09:38:46Z</time>
      </trkpt>
      <trkpt lat="46.04255" lon="3.02882">
        <ele>594</ele>
        <time>2017-10-13T09:40:46Z</time>
      </trkpt>
      <trkpt lat="46.04242" lon="3.02851">
        <ele>596</ele>
        <time>2017-10-13T09:42:46Z</time>
      </trkpt>
      <trkpt lat="46.0424" lon="3.02822">
        <ele>599</ele>
        <time>2017-10-13T09:44:46Z</time>
      </trkpt>
      <trkpt lat="46.04243" lon="3.02789">
        <ele>603</ele>
        <time>2017-10-13T09:46:46Z</time>
      </trkpt>
      <trkpt lat="46.04247" lon="3.02763">
        <ele>606</ele>
        <time>2017-10-13T09:48:46Z</time>
      </trkpt>
      <trkpt lat="46.04257" lon="3.02761">
        <ele>607</ele>
        <time>2017-10-13T09:50:46Z</time>
      </trkpt>
      <trkpt lat="46.0427" lon="3.02756">
        <ele>609</ele>
        <time>2017-10-13T09:52:46Z</time>
      </trkpt>
      <trkpt lat="46.04282" lon="3.0275">
        <ele>611</ele>
        <time>2017-10-13T09:54:46Z</time>
      </trkpt>
      <trkpt lat="46.04295" lon="3.02742">
        <ele>613</ele>
        <time>2017-10-13T09:56:46Z</time>
      </trkpt>
      <trkpt lat="46.04311" lon="3.02732">
        <ele>615</ele>
        <time>2017-10-13T09:58:46Z</time>
      </trkpt>
      <trkpt lat="46.04326" lon="3.02725">
        <ele>618</ele>
        <time>2017-10-13T10:00:46Z</time>
      </trkpt>
      <trkpt lat="46.04341" lon="3.02724">
        <ele>619</ele>
        <time>2017-10-13T10:02:46Z</time>
      </trkpt>
      <trkpt lat="46.04348" lon="3.02725">
        <ele>620</ele>
        <time>2017-10-13T10:04:46Z</time>
      </trkpt>
      <trkpt lat="46.04358" lon="3.02726">
        <ele>622</ele>
        <time>2017-10-13T10:06:46Z</time>
      </trkpt>
      <trkpt lat="46.04381" lon="3.02725">
        <ele>625</ele>
        <time>2017-10-13T10:08:46Z</time>
      </trkpt>
      <trkpt lat="46.04401" lon="3.02727">
        <ele>627</ele>
        <time>2017-10-13T10:10:46Z</time>
      </trkpt>
      <trkpt lat="46.04439" lon="3.02732">
        <ele>631</ele>
        <time>2017-10-13T10:12:46Z</time>
      </trkpt>
      <trkpt lat="46.0446" lon="3.02734">
        <ele>632</ele>
        <time>2017-10-13T10:14:46Z</time>
      </trkpt>
      <trkpt lat="46.04462" lon="3.02733">
        <ele>632</ele>
        <time>2017-10-13T10:16:46Z</time>
      </trkpt>
      <trkpt lat="46.04482" lon="3.02734">
        <ele>634</ele>
        <time>2017-10-13T10:18:46Z</time>
      </trkpt>
      <trkpt lat="46.045" lon="3.02723">
        <ele>637</ele>
        <time>2017-10-13T10:20:46Z</time>
      </trkpt>
      <trkpt lat="46.04508" lon="3.02699">
        <ele>639</ele>
        <time>2017-10-13T10:22:46Z</time>
      </trkpt>
      <trkpt lat="46.04509" lon="3.02657">
        <ele>642</ele>
        <time>2017-10-13T10:24:46Z</time>
      </trkpt>
      <trkpt lat="46.04509" lon="3.02645">
        <ele>643</ele>
        <time>2017-10-13T10:26:46Z</time>
      </trkpt>
      <trkpt lat="46.04508" lon="3.0264">
        <ele>644</ele>
        <time>2017-10-13T10:28:46Z</time>
      </trkpt>
      <trkpt lat="46.04508" lon="3.02637">
        <ele>644</ele>
        <time>2017-10-13T10:30:46Z</time>
      </trkpt>
      <trkpt lat="46.0451" lon="3.02598">
        <ele>647</ele>
        <time>2017-10-13T10:32:46Z</time>
      </trkpt>
      <trkpt lat="46.04509" lon="3.02593">
        <ele>647</ele>
        <time>2017-10-13T10:34:46Z</time>
      </trkpt>
      <trkpt lat="46.04512" lon="3.0259">
        <ele>647</ele>
        <time>2017-10-13T10:36:46Z</time>
      </trkpt>
      <trkpt lat="46.04538" lon="3.02548">
        <ele>647</ele>
        <time>2017-10-13T10:38:46Z</time>
      </trkpt>
      <trkpt lat="46.04557" lon="3.02477">
        <ele>645</ele>
        <time>2017-10-13T10:40:46Z</time>
      </trkpt>
      <trkpt lat="46.04566" lon="3.02413">
        <ele>641</ele>
        <time>2017-10-13T10:42:46Z</time>
      </trkpt>
      <trkpt lat="46.04566" lon="3.02404">
        <ele>640</ele>
        <time>2017-10-13T10:44:46Z</time>
      </trkpt>
      <trkpt lat="46.04565" lon="3.02396">
        <ele>640</ele>
        <time>2017-10-13T10:46:46Z</time>
      </trkpt>
      <trkpt lat="46.04562" lon="3.02379">
        <ele>639</ele>
        <time>2017-10-13T10:48:46Z</time>
      </trkpt>
      <trkpt lat="46.04528" lon="3.02296">
        <ele>634</ele>
        <time>2017-10-13T10:50:46Z</time>
      </trkpt>
      <trkpt lat="46.04522" lon="3.02288">
        <ele>634</ele>
        <time>2017-10-13T10:52:46Z</time>
      </trkpt>
      <trkpt lat="46.04489" lon="3.02255">
        <ele>631</ele>
        <time>2017-10-13T10:54:46Z</time>
      </trkpt>
      <trkpt lat="46.04431" lon="3.02221">
        <ele>630</ele>
        <time>2017-10-13T10:56:46Z</time>
      </trkpt>
      <trkpt lat="46.04411" lon="3.02211">
        <ele>629</ele>
        <time>2017-10-13T10:58:46Z</time>
      </trkpt>
      <trkpt lat="46.04391" lon="3.02204">
        <ele>627</ele>
        <time>2017-10-13T11:00:46Z</time>
      </trkpt>
      <trkpt lat="46.04388" lon="3.02201">
        <ele>627</ele>
        <time>2017-10-13T11:02:46Z</time>
      </trkpt>
      <trkpt lat="46.04388" lon="3.02196">
        <ele>626</ele>
        <time>2017-10-13T11:04:46Z</time>
      </trkpt>
      <trkpt lat="46.04389" lon="3.02192">
        <ele>626</ele>
        <time>2017-10-13T11:06:46Z</time>
      </trkpt>
      <trkpt lat="46.04393" lon="3.02189">
        <ele>625</ele>
        <time>2017-10-13T11:08:46Z</time>
      </trkpt>
      <trkpt lat="46.0441" lon="3.02187">
        <ele>626</ele>
        <time>2017-10-13T11:10:46Z</time>
      </trkpt>
      <trkpt lat="46.04455" lon="3.02189">
        <ele>626</ele>
        <time>2017-10-13T11:12:46Z</time>
      </trkpt>
      <trkpt lat="46.04462" lon="3.02187">
        <ele>625</ele>
        <time>2017-10-13T11:14:46Z</time>
      </trkpt>
      <trkpt lat="46.04478" lon="3.02178">
        <ele>624</ele>
        <time>2017-10-13T11:16:46Z</time>
      </trkpt>
      <trkpt lat="46.0448" lon="3.02174">
        <ele>624</ele>
        <time>2017-10-13T11:18:46Z</time>
      </trkpt>
      <trkpt lat="46.04481" lon="3.02176">
        <ele>624</ele>
        <time>2017-10-13T11:20:46Z</time>
      </trkpt>
      <trkpt lat="46.04483" lon="3.02172">
        <ele>624</ele>
        <time>2017-10-13T11:22:46Z</time>
      </trkpt>
      <trkpt lat="46.04488" lon="3.02135">
        <ele>623</ele>
        <time>2017-10-13T11:24:46Z</time>
      </trkpt>
      <trkpt lat="46.04487" lon="3.02125">
        <ele>623</ele>
        <time>2017-10-13T11:26:46Z</time>
      </trkpt>
      <trkpt lat="46.04484" lon="3.02095">
        <ele>624</ele>
        <time>2017-10-13T11:28:46Z</time>
      </trkpt>
      <trkpt lat="46.04487" lon="3.0206">
        <ele>625</ele>
        <time>2017-10-13T11:30:46Z</time>
      </trkpt>
      <trkpt lat="46.04496" lon="3.02021">
        <ele>627</ele>
        <time>2017-10-13T11:32:46Z</time>
      </trkpt>
      <trkpt lat="46.04506" lon="3.01985">
        <ele>628</ele>
        <time>2017-10-13T11:34:46Z</time>
      </trkpt>
      <trkpt lat="46.04519" lon="3.01932">
        <ele>627</ele>
        <time>2017-10-13T11:36:46Z</time>
      </trkpt>
      <trkpt lat="46.04522" lon="3.01915">
        <ele>627</ele>
        <time>2017-10-13T11:38:46Z</time>
      </trkpt>
      <trkpt lat="46.04522" lon="3.01916">
        <ele>627</ele>
        <time>2017-10-13T11:40:46Z</time>
      </trkpt>
      <trkpt lat="46.04527" lon="3.01902">
        <ele>626</ele>
        <time>2017-10-13T11:42:46Z</time>
      </trkpt>
      <trkpt lat="46.04566" lon="3.01847">
        <ele>626</ele>
        <time>2017-10-13T11:44:46Z</time>
      </trkpt>
      <trkpt lat="46.04587" lon="3.01819">
        <ele>626</ele>
        <time>2017-10-13T11:46:46Z</time>
      </trkpt>
      <trkpt lat="46.04641" lon="3.01728">
        <ele>622</ele>
        <time>2017-10-13T11:48:46Z</time>
      </trkpt>
      <trkpt lat="46.0472" lon="3.01661">
        <ele>618</ele>
        <time>2017-10-13T11:50:46Z</time>
      </trkpt>
      <trkpt lat="46.04807" lon="3.01597">
        <ele>614</ele>
        <time>2017-10-13T11:52:46Z</time>
      </trkpt>
      <trkpt lat="46.04894" lon="3.01522">
        <ele>609</ele>
        <time>2017-10-13T11:54:46Z</time>
      </trkpt>
      <trkpt lat="46.04967" lon="3.0144">
        <ele>604</ele>
        <time>2017-10-13T11:56:46Z</time>
      </trkpt>
      <trkpt lat="46.0498" lon="3.01424">
        <ele>603</ele>
        <time>2017-10-13T11:58:46Z</time>
      </trkpt>
      <trkpt lat="46.04989" lon="3.01413">
        <ele>602</ele>
        <time>2017-10-13T12:00:46Z</time>
      </trkpt>
      <trkpt lat="46.04995" lon="3.01404">
        <ele>602</ele>
        <time>2017-10-13T12:02:46Z</time>
      </trkpt>
      <trkpt lat="46.05" lon="3.01394">
        <ele>602</ele>
        <time>2017-10-13T12:04:46Z</time>
      </trkpt>
      <trkpt lat="46.05004" lon="3.01383">
        <ele>602</ele>
        <time>2017-10-13T12:06:46Z</time>
      </trkpt>
      <trkpt lat="46.05009" lon="3.01364">
        <ele>603</ele>
        <time>2017-10-13T12:08:46Z</time>
      </trkpt>
      <trkpt lat="46.05011" lon="3.01357">
        <ele>603</ele>
        <time>2017-10-13T12:10:46Z</time>
      </trkpt>
      <trkpt lat="46.05014" lon="3.01351">
        <ele>603</ele>
        <time>2017-10-13T12:12:46Z</time>
      </trkpt>
      <trkpt lat="46.05043" lon="3.01318">
        <ele>606</ele>
        <time>2017-10-13T12:14:46Z</time>
      </trkpt>
      <trkpt lat="46.05063" lon="3.01299">
        <ele>608</ele>
        <time>2017-10-13T12:16:46Z</time>
      </trkpt>
      <trkpt lat="46.05083" lon="3.01274">
        <ele>611</ele>
        <time>2017-10-13T12:18:46Z</time>
      </trkpt>
      <trkpt lat="46.0509" lon="3.01264">
        <ele>612</ele>
        <time>2017-10-13T12:20:46Z</time>
      </trkpt>
      <trkpt lat="46.05091" lon="3.01263">
        <ele>612</ele>
        <time>2017-10-13T12:22:46Z</time>
      </trkpt>
      <trkpt lat="46.05107" lon="3.0124">
        <ele>613</ele>
        <time>2017-10-13T12:24:46Z</time>
      </trkpt>
      <trkpt lat="46.05128" lon="3.01226">
        <ele>614</ele>
        <time>2017-10-13T12:26:46Z</time>
      </trkpt>
      <trkpt lat="46.05152" lon="3.01209">
        <ele>616</ele>
        <time>2017-10-13T12:28:46Z</time>
      </trkpt>
      <trkpt lat="46.05177" lon="3.01194">
        <ele>617</ele>
        <time>2017-10-13T12:30:46Z</time>
      </trkpt>
      <trkpt lat="46.0518" lon="3.0119">
        <ele>618</ele>
        <time>2017-10-13T12:32:46Z</time>
      </trkpt>
      <trkpt lat="46.05183" lon="3.01188">
        <ele>618</ele>
        <time>2017-10-13T12:34:46Z</time>
      </trkpt>
      <trkpt lat="46.0519" lon="3.01185">
        <ele>618</ele>
        <time>2017-10-13T12:36:46Z</time>
      </trkpt>
      <trkpt lat="46.05217" lon="3.01164">
        <ele>618</ele>
        <time>2017-10-13T12:38:46Z</time>
      </trkpt>
      <trkpt lat="46.05254" lon="3.0113">
        <ele>617</ele>
        <time>2017-10-13T12:40:46Z</time>
      </trkpt>
      <trkpt lat="46.05255" lon="3.0113">
        <ele>617</ele>
        <time>2017-10-13T12:42:46Z</time>
      </trkpt>
      <trkpt lat="46.05265" lon="3.01137">
        <ele>617</ele>
        <time>2017-10-13T12:44:46Z</time>
      </trkpt>
      <trkpt lat="46.05298" lon="3.01159">
        <ele>617</ele>
        <time>2017-10-13T12:46:46Z</time>
      </trkpt>
      <trkpt lat="46.05352" lon="3.01187">
        <ele>617</ele>
        <time>2017-10-13T12:48:46Z</time>
      </trkpt>
      <trkpt lat="46.05398" lon="3.01186">
        <ele>618</ele>
        <time>2017-10-13T12:50:46Z</time>
      </trkpt>
      <trkpt lat="46.05461" lon="3.01187">
        <ele>619</ele>
        <time>2017-10-13T12:52:46Z</time>
      </trkpt>
      <trkpt lat="46.05502" lon="3.01193">
        <ele>619</ele>
        <time>2017-10-13T12:54:46Z</time>
      </trkpt>
      <trkpt lat="46.05552" lon="3.01223">
        <ele>620</ele>
        <time>2017-10-13T12:56:46Z</time>
      </trkpt>
      <trkpt lat="46.05595" lon="3.01276">
        <ele>621</ele>
        <time>2017-10-13T12:58:46Z</time>
      </trkpt>
      <trkpt lat="46.05607" lon="3.013">
        <ele>621</ele>
        <time>2017-10-13T13:00:46Z</time>
      </trkpt>
      <trkpt lat="46.05608" lon="3.01304">
        <ele>622</ele>
        <time>2017-10-13T13:02:46Z</time>
      </trkpt>
      <trkpt lat="46.05611" lon="3.01311">
        <ele>622</ele>
        <time>2017-10-13T13:04:46Z</time>
      </trkpt>
      <trkpt lat="46.05628" lon="3.01366">
        <ele>622</ele>
        <time>2017-10-13T13:06:46Z</time>
      </trkpt>
      <trkpt lat="46.05647" lon="3.01435">
        <ele>622</ele>
        <time>2017-10-13T13:08:46Z</time>
      </trkpt>
      <trkpt lat="46.05669" lon="3.01486">
        <ele>622</ele>
        <time>2017-10-13T13:10:46Z</time>
      </trkpt>
      <trkpt lat="46.05681" lon="3.01538">
        <ele>622</ele>
        <time>2017-10-13T13:12:46Z</time>
      </trkpt>
      <trkpt lat="46.05683" lon="3.01537">
        <ele>622</ele>
        <time>2017-10-13T13:14:46Z</time>
      </trkpt>
      <trkpt lat="46.05684" lon="3.01545">
        <ele>622</ele>
        <time>2017-10-13T13:16:46Z</time>
      </trkpt>
      <trkpt lat="46.05715" lon="3.01565">
        <ele>622</ele>
        <time>2017-10-13T13:18:46Z</time>
      </trkpt>
      <trkpt lat="46.05718" lon="3.01566">
        <ele>622</ele>
        <time>2017-10-13T13:20:46Z</time>
      </trkpt>
      <trkpt lat="46.0572" lon="3.01566">
        <ele>622</ele>
        <time>2017-10-13T13:22:46Z</time>
      </trkpt>
      <trkpt lat="46.05761" lon="3.01563">
        <ele>622</ele>
        <time>2017-10-13T13:24:46Z</time>
      </trkpt>
      <trkpt lat="46.05809" lon="3.0154">
        <ele>623</ele>
        <time>2017-10-13T13:26:46Z</time>
      </trkpt>
      <trkpt lat="46.05854" lon="3.01495">
        <ele>623</ele>
        <time>2017-10-13T13:28:46Z</time>
      </trkpt>
      <trkpt lat="46.05907" lon="3.01436">
        <ele>624</ele>
        <time>2017-10-13T13:30:46Z</time>
      </trkpt>
      <trkpt lat="46.05988" lon="3.01359">
        <ele>623</ele>
        <time>2017-10-13T13:32:46Z</time>
      </trkpt>
      <trkpt lat="46.0599" lon="3.01359">
        <ele>623</ele>
        <time>2017-10-13T13:34:46Z</time>
      </trkpt>
      <trkpt lat="46.05992" lon="3.01357">
        <ele>623</ele>
        <time>2017-10-13T13:36:46Z</time>
      </trkpt>
      <trkpt lat="46.05998" lon="3.01347">
        <ele>622</ele>
        <time>2017-10-13T13:38:46Z</time>
      </trkpt>
      <trkpt lat="46.06046" lon="3.01281">
        <ele>622</ele>
        <time>2017-10-13T13:40:46Z</time>
      </trkpt>
      <trkpt lat="46.06093" lon="3.01215">
        <ele>624</ele>
        <time>2017-10-13T13:42:46Z</time>
      </trkpt>
      <trkpt lat="46.0612" lon="3.0117">
        <ele>625</ele>
        <time>2017-10-13T13:44:46Z</time>
      </trkpt>
      <trkpt lat="46.0618" lon="3.01078">
        <ele>627</ele>
        <time>2017-10-13T13:46:46Z</time>
      </trkpt>
      <trkpt lat="46.06203" lon="3.01029">
        <ele>628</ele>
        <time>2017-10-13T13:48:46Z</time>
      </trkpt>
      <trkpt lat="46.06241" lon="3.00963">
        <ele>631</ele>
        <time>2017-10-13T13:50:46Z</time>
      </trkpt>
      <trkpt lat="46.06263" lon="3.00929">
        <ele>632</ele>
        <time>2017-10-13T13:52:46Z</time>
      </trkpt>
      <trkpt lat="46.06275" lon="3.00913">
        <ele>633</ele>
        <time>2017-10-13T13:54:46Z</time>
      </trkpt>
      <trkpt lat="46.06308" lon="3.00882">
        <ele>635</ele>
        <time>2017-10-13T13:56:46Z</time>
      </trkpt>
      <trkpt lat="46.06343" lon="3.00849">
        <ele>637</ele>
        <time>2017-10-13T13:58:46Z</time>
      </trkpt>
      <trkpt lat="46.06436" lon="3.00788">
        <ele>640</ele>
        <time>2017-10-13T14:00:46Z</time>
      </trkpt>
      <trkpt lat="46.06474" lon="3.00765">
        <ele>640</ele>
        <time>2017-10-13T14:02:46Z</time>
      </trkpt>
      <trkpt lat="46.06502" lon="3.00744">
        <ele>640</ele>
        <time>2017-10-13T14:04:46Z</time>
      </trkpt>
      <trkpt lat="46.06546" lon="3.0069">
        <ele>639</ele>
        <time>2017-10-13T14:06:46Z</time>
      </trkpt>
      <trkpt lat="46.06574" lon="3.00639">
        <ele>640</ele>
        <time>2017-10-13T14:08:46Z</time>
      </trkpt>
      <trkpt lat="46.06591" lon="3.00622">
        <ele>641</ele>
        <time>2017-10-13T14:10:46Z</time>
      </trkpt>
      <trkpt lat="46.06593" lon="3.00616">
        <ele>641</ele>
        <time>2017-10-13T14:12:46Z</time>
      </trkpt>
      <trkpt lat="46.06592" lon="3.00606">
        <ele>642</ele>
        <time>2017-10-13T14:14:46Z</time>
      </trkpt>
      <trkpt lat="46.06593" lon="3.00598">
        <ele>642</ele>
        <time>2017-10-13T14:16:46Z</time>
      </trkpt>
      <trkpt lat="46.066" lon="3.00569">
        <ele>642</ele>
        <time>2017-10-13T14:18:46Z</time>
      </trkpt>
      <trkpt lat="46.06622" lon="3.00458">
        <ele>637</ele>
        <time>2017-10-13T14:20:46Z</time>
      </trkpt>
      <trkpt lat="46.06624" lon="3.00452">
        <ele>637</ele>
        <time>2017-10-13T14:22:46Z</time>
      </trkpt>
      <trkpt lat="46.06631" lon="3.00441">
        <ele>636</ele>
        <time>2017-10-13T14:24:46Z</time>
      </trkpt>
      <trkpt lat="46.06639" lon="3.00432">
        <ele>635</ele>
        <time>2017-10-13T14:26:46Z</time>
      </trkpt>
      <trkpt lat="46.06691" lon="3.00407">
        <ele>631</ele>
        <time>2017-10-13T14:28:46Z</time>
      </trkpt>
      <trkpt lat="46.06737" lon="3.0039">
        <ele>630</ele>
        <time>2017-10-13T14:30:46Z</time>
      </trkpt>
      <trkpt lat="46.06758" lon="3.00376">
        <ele>629</ele>
        <time>2017-10-13T14:32:46Z</time>
      </trkpt>
      <trkpt lat="46.06763" lon="3.00371">
        <ele>628</ele>
        <time>2017-10-13T14:34:46Z</time>
      </trkpt>
      <trkpt lat="46.06768" lon="3.00365">
        <ele>628</ele>
        <time>2017-10-13T14:36:46Z</time>
      </trkpt>
      <trkpt lat="46.06777" lon="3.00352">
        <ele>627</ele>
        <time>2017-10-13T14:38:46Z</time>
      </trkpt>
      <trkpt lat="46.06784" lon="3.00337">
        <ele>627</ele>
        <time>2017-10-13T14:40:46Z</time>
      </trkpt>
      <trkpt lat="46.0679" lon="3.00319">
        <ele>627</ele>
        <time>2017-10-13T14:42:46Z</time>
      </trkpt>
      <trkpt lat="46.06793" lon="3.0031">
        <ele>626</ele>
        <time>2017-10-13T14:44:46Z</time>
      </trkpt>
      <trkpt lat="46.06803" lon="3.00221">
        <ele>625</ele>
        <time>2017-10-13T14:46:46Z</time>
      </trkpt>
      <trkpt lat="46.06806" lon="3.00199">
        <ele>625</ele>
        <time>2017-10-13T14:48:46Z</time>
      </trkpt>
      <trkpt lat="46.06811" lon="3.00181">
        <ele>624</ele>
        <time>2017-10-13T14:50:46Z</time>
      </trkpt>
      <trkpt lat="46.06813" lon="3.00175">
        <ele>624</ele>
        <time>2017-10-13T14:52:46Z</time>
      </trkpt>
      <trkpt lat="46.06816" lon="3.00169">
        <ele>623</ele>
        <time>2017-10-13T14:54:46Z</time>
      </trkpt>
      <trkpt lat="46.06823" lon="3.00158">
        <ele>623</ele>
        <time>2017-10-13T14:56:46Z</time>
      </trkpt>
      <trkpt lat="46.06874" lon="3.00096">
        <ele>622</ele>
        <time>2017-10-13T14:58:46Z</time>
      </trkpt>
      <trkpt lat="46.06892" lon="3.00085">
        <ele>621</ele>
        <time>2017-10-13T15:00:46Z</time>
      </trkpt>
      <trkpt lat="46.06946" lon="3.00061">
        <ele>618</ele>
        <time>2017-10-13T15:02:46Z</time>
      </trkpt>
      <trkpt lat="46.06947" lon="3.00057">
        <ele>618</ele>
        <time>2017-10-13T15:04:46Z</time>
      </trkpt>
      <trkpt lat="46.06933" lon="3.00018">
        <ele>619</ele>
        <time>2017-10-13T15:06:46Z</time>
      </trkpt>
      <trkpt lat="46.06912" lon="2.9997">
        <ele>622</ele>
        <time>2017-10-13T15:08:46Z</time>
      </trkpt>
      <trkpt lat="46.06894" lon="2.99922">
        <ele>625</ele>
        <time>2017-10-13T15:10:46Z</time>
      </trkpt>
      <trkpt lat="46.06876" lon="2.99879">
        <ele>627</ele>
        <time>2017-10-13T15:12:46Z</time>
      </trkpt>
      <trkpt lat="46.06853" lon="2.9982">
        <ele>629</ele>
        <time>2017-10-13T15:14:46Z</time>
      </trkpt>
      <trkpt lat="46.06824" lon="2.99748">
        <ele>630</ele>
        <time>2017-10-13T15:16:46Z</time>
      </trkpt>
      <trkpt lat="46.0681" lon="2.99714">
        <ele>628</ele>
        <time>2017-10-13T15:18:46Z</time>
      </trkpt>
      <trkpt lat="46.06801" lon="2.99689">
        <ele>628</ele>
        <time>2017-10-13T15:20:46Z</time>
      </trkpt>
      <trkpt lat="46.06793" lon="2.99664">
        <ele>627</ele>
        <time>2017-10-13T15:22:46Z</time>
      </trkpt>
      <trkpt lat="46.06791" lon="2.99658">
        <ele>627</ele>
        <time>2017-10-13T15:24:46Z</time>
      </trkpt>
      <trkpt lat="46.06789" lon="2.99651">
        <ele>627</ele>
        <time>2017-10-13T15:26:46Z</time>
      </trkpt>
      <trkpt lat="46.06788" lon="2.99645">
        <ele>627</ele>
        <time>2017-10-13T15:28:46Z</time>
      </trkpt>
      <trkpt lat="46.06789" lon="2.99638">
        <ele>627</ele>
        <time>2017-10-13T15:30:46Z</time>
      </trkpt>
      <trkpt lat="46.06793" lon="2.9963">
        <ele>627</ele>
        <time>2017-10-13T15:32:46Z</time>
      </trkpt>
      <trkpt lat="46.06795" lon="2.99627">
        <ele>627</ele>
        <time>2017-10-13T15:34:46Z</time>
      </trkpt>
      <trkpt lat="46.06819" lon="2.99556">
        <ele>630</ele>
        <time>2017-10-13T15:36:46Z</time>
      </trkpt>
      <trkpt lat="46.06828" lon="2.99486">
        <ele>634</ele>
        <time>2017-10-13T15:38:46Z</time>
      </trkpt>
      <trkpt lat="46.06829" lon="2.9948">
        <ele>634</ele>
        <time>2017-10-13T15:40:46Z</time>
      </trkpt>
      <trkpt lat="46.06828" lon="2.99379">
        <ele>633</ele>
        <time>2017-10-13T15:42:46Z</time>
      </trkpt>
      <trkpt lat="46.06826" lon="2.99354">
        <ele>632</ele>
        <time>2017-10-13T15:44:46Z</time>
      </trkpt>
      <trkpt lat="46.06811" lon="2.99241">
        <ele>628</ele>
        <time>2017-10-13T15:46:46Z</time>
      </trkpt>
      <trkpt lat="46.06791" lon="2.99166">
        <ele>626</ele>
        <time>2017-10-13T15:48:46Z</time>
      </trkpt>
      <trkpt lat="46.06792" lon="2.99162">
        <ele>627</ele>
        <time>2017-10-13T15:50:46Z</time>
      </trkpt>
      <trkpt lat="46.06789" lon="2.9915">
        <ele>626</ele>
        <time>2017-10-13T15:52:46Z</time>
      </trkpt>
      <trkpt lat="46.068" lon="2.99098">
        <ele>629</ele>
        <time>2017-10-13T15:54:46Z</time>
      </trkpt>
      <trkpt lat="46.06811" lon="2.99034">
        <ele>633</ele>
        <time>2017-10-13T15:56:46Z</time>
      </trkpt>
      <trkpt lat="46.06819" lon="2.98945">
        <ele>629</ele>
        <time>2017-10-13T15:58:46Z</time>
      </trkpt>
      <trkpt lat="46.06821" lon="2.98924">
        <ele>627</ele>
        <time>2017-10-13T16:00:46Z</time>
      </trkpt>
      <trkpt lat="46.0682" lon="2.98917">
        <ele>627</ele>
        <time>2017-10-13T16:02:46Z</time>
      </trkpt>
      <trkpt lat="46.06819" lon="2.9891">
        <ele>627</ele>
        <time>2017-10-13T16:04:46Z</time>
      </trkpt>
      <trkpt lat="46.06817" lon="2.98904">
        <ele>627</ele>
        <time>2017-10-13T16:06:46Z</time>
      </trkpt>
      <trkpt lat="46.06814" lon="2.98897">
        <ele>627</ele>
        <time>2017-10-13T16:08:46Z</time>
      </trkpt>
      <trkpt lat="46.06812" lon="2.98892">
        <ele>627</ele>
        <time>2017-10-13T16:10:46Z</time>
      </trkpt>
      <trkpt lat="46.06808" lon="2.98888">
        <ele>627</ele>
        <time>2017-10-13T16:12:46Z</time>
      </trkpt>
      <trkpt lat="46.06804" lon="2.98884">
        <ele>627</ele>
        <time>2017-10-13T16:14:46Z</time>
      </trkpt>
      <trkpt lat="46.068" lon="2.98882">
        <ele>627</ele>
        <time>2017-10-13T16:16:46Z</time>
      </trkpt>
      <trkpt lat="46.06797" lon="2.9888">
        <ele>627</ele>
        <time>2017-10-13T16:18:46Z</time>
      </trkpt>
      <trkpt lat="46.06789" lon="2.98878">
        <ele>626</ele>
        <time>2017-10-13T16:20:46Z</time>
      </trkpt>
      <trkpt lat="46.06746" lon="2.98873">
        <ele>626</ele>
        <time>2017-10-13T16:22:46Z</time>
      </trkpt>
      <trkpt lat="46.06714" lon="2.98833">
        <ele>627</ele>
        <time>2017-10-13T16:24:46Z</time>
      </trkpt>
      <trkpt lat="46.06689" lon="2.9878">
        <ele>628</ele>
        <time>2017-10-13T16:26:46Z</time>
      </trkpt>
      <trkpt lat="46.06681" lon="2.98776">
        <ele>628</ele>
        <time>2017-10-13T16:28:46Z</time>
      </trkpt>
      <trkpt lat="46.0665" lon="2.9881">
        <ele>626</ele>
        <time>2017-10-13T16:30:46Z</time>
      </trkpt>
      <trkpt lat="46.06588" lon="2.9888">
        <ele>621</ele>
        <time>2017-10-13T16:32:46Z</time>
      </trkpt>
      <trkpt lat="46.06507" lon="2.98903">
        <ele>618</ele>
        <time>2017-10-13T16:34:46Z</time>
      </trkpt>
      <trkpt lat="46.06486" lon="2.98885">
        <ele>618</ele>
        <time>2017-10-13T16:36:46Z</time>
      </trkpt>
      <trkpt lat="46.06471" lon="2.98809">
        <ele>619</ele>
        <time>2017-10-13T16:38:46Z</time>
      </trkpt>
      <trkpt lat="46.06457" lon="2.98739">
        <ele>620</ele>
        <time>2017-10-13T16:40:46Z</time>
      </trkpt>
      <trkpt lat="46.06439" lon="2.98658">
        <ele>621</ele>
        <time>2017-10-13T16:42:46Z</time>
      </trkpt>
      <trkpt lat="46.06411" lon="2.98561">
        <ele>619</ele>
        <time>2017-10-13T16:44:46Z</time>
      </trkpt>
      <trkpt lat="46.06395" lon="2.98489">
        <ele>617</ele>
        <time>2017-10-13T16:46:46Z</time>
      </trkpt>
      <trkpt lat="46.06405" lon="2.98374">
        <ele>620</ele>
        <time>2017-10-13T16:48:46Z</time>
      </trkpt>
      <trkpt lat="46.06416" lon="2.98314">
        <ele>622</ele>
        <time>2017-10-13T16:50:46Z</time>
      </trkpt>
      <trkpt lat="46.0643" lon="2.98278">
        <ele>624</ele>
        <time>2017-10-13T16:52:46Z</time>
      </trkpt>
      <trkpt lat="46.0644" lon="2.98254">
        <ele>625</ele>
        <time>2017-10-13T16:54:46Z</time>
      </trkpt>
      <trkpt lat="46.06451" lon="2.98219">
        <ele>627</ele>
        <time>2017-10-13T16:56:46Z</time>
      </trkpt>
      <trkpt lat="46.06465" lon="2.98178">
        <ele>629</ele>
        <time>2017-10-13T16:58:46Z</time>
      </trkpt>
      <trkpt lat="46.06477" lon="2.98146">
        <ele>630</ele>
        <time>2017-10-13T17:00:46Z</time>
      </trkpt>
      <trkpt lat="46.06489" lon="2.98114">
        <ele>631</ele>
        <time>2017-10-13T17:02:46Z</time>
      </trkpt>
      <trkpt lat="46.06502" lon="2.98066">
        <ele>632</ele>
        <time>2017-10-13T17:04:46Z</time>
      </trkpt>
      <trkpt lat="46.06502" lon="2.98004">
        <ele>633</ele>
        <time>2017-10-13T17:06:46Z</time>
      </trkpt>
      <trkpt lat="46.06505" lon="2.97922">
        <ele>635</ele>
        <time>2017-10-13T17:08:46Z</time>
      </trkpt>
      <trkpt lat="46.06515" lon="2.97873">
        <ele>636</ele>
        <time>2017-10-13T17:10:46Z</time>
      </trkpt>
      <trkpt lat="46.06512" lon="2.97866">
        <ele>636</ele>
        <time>2017-10-13T17:12:46Z</time>
      </trkpt>
      <trkpt lat="46.0651" lon="2.97864">
        <ele>636</ele>
        <time>2017-10-13T17:14:46Z</time>
      </trkpt>
      <trkpt lat="46.0647" lon="2.97857">
        <ele>635</ele>
        <time>2017-10-13T17:16:46Z</time>
      </trkpt>
      <trkpt lat="46.06405" lon="2.9784">
        <ele>634</ele>
        <time>2017-10-13T17:18:46Z</time>
      </trkpt>
      <trkpt lat="46.06333" lon="2.97807">
        <ele>634</ele>
        <time>2017-10-13T17:20:46Z</time>
      </trkpt>
      <trkpt lat="46.06263" lon="2.97764">
        <ele>634</ele>
        <time>2017-10-13T17:22:46Z</time>
      </trkpt>
      <trkpt lat="46.062" lon="2.97708">
        <ele>633</ele>
        <time>2017-10-13T17:24:46Z</time>
      </trkpt>
      <trkpt lat="46.06186" lon="2.97686">
        <ele>632</ele>
        <time>2017-10-13T17:26:46Z</time>
      </trkpt>
      <trkpt lat="46.06181" lon="2.97674">
        <ele>632</ele>
        <time>2017-10-13T17:28:46Z</time>
      </trkpt>
      <trkpt lat="46.06179" lon="2.97668">
        <ele>632</ele>
        <time>2017-10-13T17:30:46Z</time>
      </trkpt>
      <trkpt lat="46.06179" lon="2.97663">
        <ele>632</ele>
        <time>2017-10-13T17:32:46Z</time>
      </trkpt>
      <trkpt lat="46.06179" lon="2.97656">
        <ele>632</ele>
        <time>2017-10-13T17:34:46Z</time>
      </trkpt>
      <trkpt lat="46.06182" lon="2.97638">
        <ele>632</ele>
        <time>2017-10-13T17:36:46Z</time>
      </trkpt>
      <trkpt lat="46.06181" lon="2.97632">
        <ele>632</ele>
        <time>2017-10-13T17:38:46Z</time>
      </trkpt>
      <trkpt lat="46.06179" lon="2.97626">
        <ele>632</ele>
        <time>2017-10-13T17:40:46Z</time>
      </trkpt>
      <trkpt lat="46.06173" lon="2.97616">
        <ele>632</ele>
        <time>2017-10-13T17:42:46Z</time>
      </trkpt>
      <trkpt lat="46.06166" lon="2.97605">
        <ele>632</ele>
        <time>2017-10-13T17:44:46Z</time>
      </trkpt>
      <trkpt lat="46.06159" lon="2.97595">
        <ele>632</ele>
        <time>2017-10-13T17:46:46Z</time>
      </trkpt>
      <trkpt lat="46.06156" lon="2.97589">
        <ele>631</ele>
        <time>2017-10-13T17:48:46Z</time>
      </trkpt>
      <trkpt lat="46.06155" lon="2.97581">
        <ele>631</ele>
        <time>2017-10-13T17:50:46Z</time>
      </trkpt>
      <trkpt lat="46.06154" lon="2.97563">
        <ele>631</ele>
        <time>2017-10-13T17:52:46Z</time>
      </trkpt>
      <trkpt lat="46.06155" lon="2.97547">
        <ele>631</ele>
        <time>2017-10-13T17:54:46Z</time>
      </trkpt>
      <trkpt lat="46.06157" lon="2.97529">
        <ele>631</ele>
        <time>2017-10-13T17:56:46Z</time>
      </trkpt>
      <trkpt lat="46.0616" lon="2.97521">
        <ele>631</ele>
        <time>2017-10-13T17:58:46Z</time>
      </trkpt>
      <trkpt lat="46.06189" lon="2.97439">
        <ele>630</ele>
        <time>2017-10-13T18:00:46Z</time>
      </trkpt>
      <trkpt lat="46.06189" lon="2.97433">
        <ele>630</ele>
        <time>2017-10-13T18:02:46Z</time>
      </trkpt>
      <trkpt lat="46.06188" lon="2.97428">
        <ele>630</ele>
        <time>2017-10-13T18:04:46Z</time>
      </trkpt>
      <trkpt lat="46.06186" lon="2.97422">
        <ele>630</ele>
        <time>2017-10-13T18:06:46Z</time>
      </trkpt>
      <trkpt lat="46.06181" lon="2.97411">
        <ele>630</ele>
        <time>2017-10-13T18:08:46Z</time>
      </trkpt>
      <trkpt lat="46.06145" lon="2.97352">
        <ele>628</ele>
        <time>2017-10-13T18:10:46Z</time>
      </trkpt>
      <trkpt lat="46.06076" lon="2.97271">
        <ele>625</ele>
        <time>2017-10-13T18:12:46Z</time>
      </trkpt>
      <trkpt lat="46.06022" lon="2.97171">
        <ele>621</ele>
        <time>2017-10-13T18:14:46Z</time>
      </trkpt>
      <trkpt lat="46.05974" lon="2.97023">
        <ele>616</ele>
        <time>2017-10-13T18:16:46Z</time>
      </trkpt>
      <trkpt lat="46.05967" lon="2.96999">
        <ele>615</ele>
        <time>2017-10-13T18:18:46Z</time>
      </trkpt>
      <trkpt lat="46.05968" lon="2.96967">
        <ele>613</ele>
        <time>2017-10-13T18:20:46Z</time>
      </trkpt>
      <trkpt lat="46.05968" lon="2.96957">
        <ele>613</ele>
        <time>2017-10-13T18:22:46Z</time>
      </trkpt>
      <trkpt lat="46.0597" lon="2.96887">
        <ele>609</ele>
        <time>2017-10-13T18:24:46Z</time>
      </trkpt>
      <trkpt lat="46.05959" lon="2.96868">
        <ele>608</ele>
        <time>2017-10-13T18:26:46Z</time>
      </trkpt>
      <trkpt lat="46.0593" lon="2.96851">
        <ele>608</ele>
        <time>2017-10-13T18:28:46Z</time>
      </trkpt>
      <trkpt lat="46.05933" lon="2.9683">
        <ele>607</ele>
        <time>2017-10-13T18:30:46Z</time>
      </trkpt>
      <trkpt lat="46.05954" lon="2.96812">
        <ele>605</ele>
        <time>2017-10-13T18:32:46Z</time>
      </trkpt>
      <trkpt lat="46.05966" lon="2.96786">
        <ele>603</ele>
        <time>2017-10-13T18:34:46Z</time>
      </trkpt>
      <trkpt lat="46.05962" lon="2.96765">
        <ele>601</ele>
        <time>2017-10-13T18:36:46Z</time>
      </trkpt>
      <trkpt lat="46.0593" lon="2.96729">
        <ele>600</ele>
        <time>2017-10-13T18:38:46Z</time>
      </trkpt>
      <trkpt lat="46.05907" lon="2.96708">
        <ele>600</ele>
        <time>2017-10-13T18:40:46Z</time>
      </trkpt>
      <trkpt lat="46.05897" lon="2.96657">
        <ele>599</ele>
        <time>2017-10-13T18:42:46Z</time>
      </trkpt>
      <trkpt lat="46.05902" lon="2.96595">
        <ele>598</ele>
        <time>2017-10-13T18:44:46Z</time>
      </trkpt>
      <trkpt lat="46.05914" lon="2.9649">
        <ele>600</ele>
        <time>2017-10-13T18:46:46Z</time>
      </trkpt>
      <trkpt lat="46.05917" lon="2.96458">
        <ele>601</ele>
        <time>2017-10-13T18:48:46Z</time>
      </trkpt>
      <trkpt lat="46.05923" lon="2.96415">
        <ele>602</ele>
        <time>2017-10-13T18:50:46Z</time>
      </trkpt>
      <trkpt lat="46.05938" lon="2.96379">
        <ele>604</ele>
        <time>2017-10-13T18:52:46Z</time>
      </trkpt>
      <trkpt lat="46.05955" lon="2.96344">
        <ele>606</ele>
        <time>2017-10-13T18:54:46Z</time>
      </trkpt>
      <trkpt lat="46.05964" lon="2.9631">
        <ele>607</ele>
        <time>2017-10-13T18:56:46Z</time>
      </trkpt>
      <trkpt lat="46.05977" lon="2.96274">
        <ele>609</ele>
        <time>2017-10-13T18:58:46Z</time>
      </trkpt>
      <trkpt lat="46.05994" lon="2.96248">
        <ele>610</ele>
        <time>2017-10-13T19:00:46Z</time>
      </trkpt>
      <trkpt lat="46.06041" lon="2.96192">
        <ele>611</ele>
        <time>2017-10-13T19:02:46Z</time>
      </trkpt>
      <trkpt lat="46.06063" lon="2.96167">
        <ele>613</ele>
        <time>2017-10-13T19:04:46Z</time>
      </trkpt>
      <trkpt lat="46.06085" lon="2.96135">
        <ele>614</ele>
        <time>2017-10-13T19:06:46Z</time>
      </trkpt>
      <trkpt lat="46.06106" lon="2.96107">
        <ele>615</ele>
        <time>2017-10-13T19:08:46Z</time>
      </trkpt>
      <trkpt lat="46.06132" lon="2.96085">
        <ele>617</ele>
        <time>2017-10-13T19:10:46Z</time>
      </trkpt>
      <trkpt lat="46.06157" lon="2.9607">
        <ele>619</ele>
        <time>2017-10-13T19:12:46Z</time>
      </trkpt>
      <trkpt lat="46.06179" lon="2.96058">
        <ele>621</ele>
        <time>2017-10-13T19:14:46Z</time>
      </trkpt>
      <trkpt lat="46.06204" lon="2.96059">
        <ele>623</ele>
        <time>2017-10-13T19:16:46Z</time>
      </trkpt>
      <trkpt lat="46.06231" lon="2.96071">
        <ele>625</ele>
        <time>2017-10-13T19:18:46Z</time>
      </trkpt>
      <trkpt lat="46.06252" lon="2.96082">
        <ele>627</ele>
        <time>2017-10-13T19:20:46Z</time>
      </trkpt>
      <trkpt lat="46.06285" lon="2.9611">
        <ele>630</ele>
        <time>2017-10-13T19:22:46Z</time>
      </trkpt>
      <trkpt lat="46.06301" lon="2.96097">
        <ele>631</ele>
        <time>2017-10-13T19:24:46Z</time>
      </trkpt>
      <trkpt lat="46.06304" lon="2.96088">
        <ele>632</ele>
        <time>2017-10-13T19:26:46Z</time>
      </trkpt>
      <trkpt lat="46.06311" lon="2.96088">
        <ele>632</ele>
        <time>2017-10-13T19:28:46Z</time>
      </trkpt>
      <trkpt lat="46.06323" lon="2.9609">
        <ele>633</ele>
        <time>2017-10-13T19:30:46Z</time>
      </trkpt>
      <trkpt lat="46.06324" lon="2.96086">
        <ele>633</ele>
        <time>2017-10-13T19:32:46Z</time>
      </trkpt>
      <trkpt lat="46.06331" lon="2.96096">
        <ele>634</ele>
        <time>2017-10-13T19:34:46Z</time>
      </trkpt>
      <trkpt lat="46.06366" lon="2.96118">
        <ele>636</ele>
        <time>2017-10-13T19:36:46Z</time>
      </trkpt>
      <trkpt lat="46.06402" lon="2.96146">
        <ele>637</ele>
        <time>2017-10-13T19:38:46Z</time>
      </trkpt>
      <trkpt lat="46.06426" lon="2.96166">
        <ele>638</ele>
        <time>2017-10-13T19:40:46Z</time>
      </trkpt>
      <trkpt lat="46.06459" lon="2.96187">
        <ele>639</ele>
        <time>2017-10-13T19:42:46Z</time>
      </trkpt>
      <trkpt lat="46.06506" lon="2.96207">
        <ele>640</ele>
        <time>2017-10-13T19:44:46Z</time>
      </trkpt>
      <trkpt lat="46.06555" lon="2.96216">
        <ele>639</ele>
        <time>2017-10-13T19:46:46Z</time>
      </trkpt>
      <trkpt lat="46.06585" lon="2.96219">
        <ele>639</ele>
        <time>2017-10-13T19:48:46Z</time>
      </trkpt>
      <trkpt lat="46.06609" lon="2.96225">
        <ele>639</ele>
        <time>2017-10-13T19:50:46Z</time>
      </trkpt>
      <trkpt lat="46.06656" lon="2.96273">
        <ele>638</ele>
        <time>2017-10-13T19:52:46Z</time>
      </trkpt>
      <trkpt lat="46.0666" lon="2.96282">
        <ele>638</ele>
        <time>2017-10-13T19:54:46Z</time>
      </trkpt>
      <trkpt lat="46.06676" lon="2.9631">
        <ele>636</ele>
        <time>2017-10-13T19:56:46Z</time>
      </trkpt>
      <trkpt lat="46.06685" lon="2.96297">
        <ele>637</ele>
        <time>2017-10-13T19:58:46Z</time>
      </trkpt>
      <trkpt lat="46.067" lon="2.96277">
        <ele>638</ele>
        <time>2017-10-13T20:00:46Z</time>
      </trkpt>
      <trkpt lat="46.06738" lon="2.9622">
        <ele>639</ele>
        <time>2017-10-13T20:02:46Z</time>
      </trkpt>
      <trkpt lat="46.06755" lon="2.96176">
        <ele>639</ele>
        <time>2017-10-13T20:04:46Z</time>
      </trkpt>
      <trkpt lat="46.06769" lon="2.96073">
        <ele>639</ele>
        <time>2017-10-13T20:06:46Z</time>
      </trkpt>
      <trkpt lat="46.06777" lon="2.96034">
        <ele>640</ele>
        <time>2017-10-13T20:08:46Z</time>
      </trkpt>
      <trkpt lat="46.06812" lon="2.95953">
        <ele>636</ele>
        <time>2017-10-13T20:10:46Z</time>
      </trkpt>
      <trkpt lat="46.06831" lon="2.95917">
        <ele>633</ele>
        <time>2017-10-13T20:12:46Z</time>
      </trkpt>
      <trkpt lat="46.06842" lon="2.95891">
        <ele>632</ele>
        <time>2017-10-13T20:14:46Z</time>
      </trkpt>
      <trkpt lat="46.06873" lon="2.95777">
        <ele>627</ele>
        <time>2017-10-13T20:16:46Z</time>
      </trkpt>
      <trkpt lat="46.0691" lon="2.95691">
        <ele>621</ele>
        <time>2017-10-13T20:18:46Z</time>
      </trkpt>
      <trkpt lat="46.06944" lon="2.95671">
        <ele>620</ele>
        <time>2017-10-13T20:20:46Z</time>
      </trkpt>
      <trkpt lat="46.07003" lon="2.95674">
        <ele>618</ele>
        <time>2017-10-13T20:22:46Z</time>
      </trkpt>
      <trkpt lat="46.07033" lon="2.9566">
        <ele>617</ele>
        <time>2017-10-13T20:24:46Z</time>
      </trkpt>
      <trkpt lat="46.07142" lon="2.9556">
        <ele>610</ele>
        <time>2017-10-13T20:26:46Z</time>
      </trkpt>
      <trkpt lat="46.07163" lon="2.95544">
        <ele>608</ele>
        <time>2017-10-13T20:28:46Z</time>
      </trkpt>
      <trkpt lat="46.07204" lon="2.9551">
        <ele>607</ele>
        <time>2017-10-13T20:30:46Z</time>
      </trkpt>
      <trkpt lat="46.07221" lon="2.95499">
        <ele>607</ele>
        <time>2017-10-13T20:32:46Z</time>
      </trkpt>
      <trkpt lat="46.07277" lon="2.95485">
        <ele>604</ele>
        <time>2017-10-13T20:34:46Z</time>
      </trkpt>
      <trkpt lat="46.07287" lon="2.9549">
        <ele>603</ele>
        <time>2017-10-13T20:36:46Z</time>
      </trkpt>
      <trkpt lat="46.07325" lon="2.95463">
        <ele>600</ele>
        <time>2017-10-13T20:38:46Z</time>
      </trkpt>
      <trkpt lat="46.07355" lon="2.95444">
        <ele>596</ele>
        <time>2017-10-13T20:40:46Z</time>
      </trkpt>
      <trkpt lat="46.0739" lon="2.95427">
        <ele>590</ele>
        <time>2017-10-13T20:42:46Z</time>
      </trkpt>
      <trkpt lat="46.07424" lon="2.95404">
        <ele>586</ele>
        <time>2017-10-13T20:44:46Z</time>
      </trkpt>
      <trkpt lat="46.07446" lon="2.95383">
        <ele>583</ele>
        <time>2017-10-13T20:46:46Z</time>
      </trkpt>
      <trkpt lat="46.07472" lon="2.95376">
        <ele>578</ele>
        <time>2017-10-13T20:48:46Z</time>
      </trkpt>
      <trkpt lat="46.07476" lon="2.95381">
        <ele>577</ele>
        <time>2017-10-13T20:50:46Z</time>
      </trkpt>
      <trkpt lat="46.07496" lon="2.95364">
        <ele>575</ele>
        <time>2017-10-13T20:52:46Z</time>
      </trkpt>
      <trkpt lat="46.075" lon="2.95357">
        <ele>574</ele>
        <time>2017-10-13T20:54:46Z</time>
      </trkpt>
      <trkpt lat="46.0752" lon="2.95336">
        <ele>571</ele>
        <time>2017-10-13T20:56:46Z</time>
      </trkpt>
      <trkpt lat="46.07548" lon="2.9532">
        <ele>567</ele>
        <time>2017-10-13T20:58:46Z</time>
      </trkpt>
      <trkpt lat="46.07577" lon="2.95299">
        <ele>563</ele>
        <time>2017-10-13T21:00:46Z</time>
      </trkpt>
      <trkpt lat="46.07604" lon="2.95287">
        <ele>559</ele>
        <time>2017-10-13T21:02:46Z</time>
      </trkpt>
      <trkpt lat="46.07634" lon="2.95286">
        <ele>554</ele>
        <time>2017-10-13T21:04:46Z</time>
      </trkpt>
      <trkpt lat="46.0766" lon="2.95278">
        <ele>550</ele>
        <time>2017-10-13T21:06:46Z</time>
      </trkpt>
      <trkpt lat="46.07665" lon="2.95278">
        <ele>549</ele>
        <time>2017-10-13T21:08:46Z</time>
      </trkpt>
      <trkpt lat="46.07683" lon="2.95272">
        <ele>546</ele>
        <time>2017-10-13T21:10:46Z</time>
      </trkpt>
      <trkpt lat="46.07703" lon="2.95253">
        <ele>542</ele>
        <time>2017-10-13T21:12:46Z</time>
      </trkpt>
      <trkpt lat="46.07719" lon="2.95223">
        <ele>539</ele>
        <time>2017-10-13T21:14:46Z</time>
      </trkpt>
      <trkpt lat="46.07721" lon="2.95217">
        <ele>539</ele>
        <time>2017-10-13T21:16:46Z</time>
      </trkpt>
      <trkpt lat="46.07731" lon="2.95203">
        <ele>536</ele>
        <time>2017-10-13T21:18:46Z</time>
      </trkpt>
      <trkpt lat="46.07753" lon="2.95212">
        <ele>533</ele>
        <time>2017-10-13T21:20:46Z</time>
      </trkpt>
      <trkpt lat="46.07761" lon="2.95209">
        <ele>533</ele>
        <time>2017-10-13T21:22:46Z</time>
      </trkpt>
      <trkpt lat="46.07773" lon="2.95205">
        <ele>533</ele>
        <time>2017-10-13T21:24:46Z</time>
      </trkpt>
      <trkpt lat="46.07777" lon="2.95199">
        <ele>533</ele>
        <time>2017-10-13T21:26:46Z</time>
      </trkpt>
      <trkpt lat="46.07796" lon="2.9517">
        <ele>530</ele>
        <time>2017-10-13T21:28:46Z</time>
      </trkpt>
      <trkpt lat="46.07806" lon="2.95154">
        <ele>529</ele>
        <time>2017-10-13T21:30:46Z</time>
      </trkpt>
      <trkpt lat="46.07821" lon="2.95142">
        <ele>528</ele>
        <time>2017-10-13T21:32:46Z</time>
      </trkpt>
      <trkpt lat="46.0784" lon="2.95129">
        <ele>526</ele>
        <time>2017-10-13T21:34:46Z</time>
      </trkpt>
      <trkpt lat="46.07853" lon="2.95123">
        <ele>527</ele>
        <time>2017-10-13T21:36:46Z</time>
      </trkpt>
      <trkpt lat="46.07862" lon="2.95121">
        <ele>527</ele>
        <time>2017-10-13T21:38:46Z</time>
      </trkpt>
      <trkpt lat="46.07886" lon="2.95103">
        <ele>528</ele>
        <time>2017-10-13T21:40:46Z</time>
      </trkpt>
      <trkpt lat="46.07899" lon="2.95085">
        <ele>527</ele>
        <time>2017-10-13T21:42:46Z</time>
      </trkpt>
      <trkpt lat="46.07914" lon="2.95062">
        <ele>525</ele>
        <time>2017-10-13T21:44:46Z</time>
      </trkpt>
      <trkpt lat="46.07926" lon="2.9505">
        <ele>524</ele>
        <time>2017-10-13T21:46:46Z</time>
      </trkpt>
      <trkpt lat="46.07961" lon="2.95014">
        <ele>523</ele>
        <time>2017-10-13T21:48:46Z</time>
      </trkpt>
      <trkpt lat="46.07984" lon="2.95">
        <ele>524</ele>
        <time>2017-10-13T21:50:46Z</time>
      </trkpt>
      <trkpt lat="46.08012" lon="2.9498">
        <ele>523</ele>
        <time>2017-10-13T21:52:46Z</time>
      </trkpt>
      <trkpt lat="46.08039" lon="2.94927">
        <ele>517</ele>
        <time>2017-10-13T21:54:46Z</time>
      </trkpt>
      <trkpt lat="46.08058" lon="2.94833">
        <ele>511</ele>
        <time>2017-10-13T21:56:46Z</time>
      </trkpt>
      <trkpt lat="46.08068" lon="2.94756">
        <ele>513</ele>
        <time>2017-10-13T21:58:46Z</time>
      </trkpt>
      <trkpt lat="46.08083" lon="2.94683">
        <ele>513</ele>
        <time>2017-10-13T22:00:46Z</time>
      </trkpt>
      <trkpt lat="46.08107" lon="2.94586">
        <ele>509</ele>
        <time>2017-10-13T22:02:46Z</time>
      </trkpt>
      <trkpt lat="46.0811" lon="2.94563">
        <ele>509</ele>
        <time>2017-10-13T22:04:46Z</time>
      </trkpt>
      <trkpt lat="46.08087" lon="2.94541">
        <ele>509</ele>
        <time>2017-10-13T22:06:46Z</time>
      </trkpt>
      <trkpt lat="46.08071" lon="2.9453">
        <ele>508</ele>
        <time>2017-10-13T22:08:46Z</time>
      </trkpt>
      <trkpt lat="46.0803" lon="2.94499">
        <ele>502</ele>
        <time>2017-10-13T22:10:46Z</time>
      </trkpt>
      <trkpt lat="46.08016" lon="2.94482">
        <ele>500</ele>
        <time>2017-10-13T22:12:46Z</time>
      </trkpt>
      <trkpt lat="46.08002" lon="2.94461">
        <ele>498</ele>
        <time>2017-10-13T22:14:46Z</time>
      </trkpt>
      <trkpt lat="46.07994" lon="2.94446">
        <ele>497</ele>
        <time>2017-10-13T22:16:46Z</time>
      </trkpt>
      <trkpt lat="46.07989" lon="2.9444">
        <ele>497</ele>
        <time>2017-10-13T22:18:46Z</time>
      </trkpt>
      <trkpt lat="46.07986" lon="2.94434">
        <ele>497</ele>
        <time>2017-10-13T22:20:46Z</time>
      </trkpt>
      <trkpt lat="46.07977" lon="2.94411">
        <ele>495</ele>
        <time>2017-10-13T22:22:46Z</time>
      </trkpt>
      <trkpt lat="46.07974" lon="2.9439">
        <ele>493</ele>
        <time>2017-10-13T22:24:46Z</time>
      </trkpt>
      <trkpt lat="46.0797" lon="2.94355">
        <ele>489</ele>
        <time>2017-10-13T22:26:46Z</time>
      </trkpt>
      <trkpt lat="46.07964" lon="2.94326">
        <ele>486</ele>
        <time>2017-10-13T22:28:46Z</time>
      </trkpt>
      <trkpt lat="46.07961" lon="2.94315">
        <ele>485</ele>
        <time>2017-10-13T22:30:46Z</time>
      </trkpt>
      <trkpt lat="46.07953" lon="2.94277">
        <ele>480</ele>
        <time>2017-10-13T22:32:46Z</time>
      </trkpt>
      <trkpt lat="46.07954" lon="2.9424">
        <ele>477</ele>
        <time>2017-10-13T22:34:46Z</time>
      </trkpt>
      <trkpt lat="46.07946" lon="2.94205">
        <ele>473</ele>
        <time>2017-10-13T22:36:46Z</time>
      </trkpt>
      <trkpt lat="46.07934" lon="2.94185">
        <ele>469</ele>
        <time>2017-10-13T22:38:46Z</time>
      </trkpt>
      <trkpt lat="46.07905" lon="2.94159">
        <ele>465</ele>
        <time>2017-10-13T22:40:46Z</time>
      </trkpt>
      <trkpt lat="46.07898" lon="2.94148">
        <ele>467</ele>
        <time>2017-10-13T22:42:46Z</time>
      </trkpt>
      <trkpt lat="46.07894" lon="2.94157">
        <ele>467</ele>
        <time>2017-10-13T22:44:46Z</time>
      </trkpt>
      <trkpt lat="46.0789" lon="2.94141">
        <ele>468</ele>
        <time>2017-10-13T22:46:46Z</time>
      </trkpt>
      <trkpt lat="46.07904" lon="2.94119">
        <ele>468</ele>
        <time>2017-10-13T22:48:46Z</time>
      </trkpt>
      <trkpt lat="46.07912" lon="2.941">
        <ele>468</ele>
        <time>2017-10-13T22:50:46Z</time>
      </trkpt>
      <trkpt lat="46.07913" lon="2.94088">
        <ele>468</ele>
        <time>2017-10-13T22:52:46Z</time>
      </trkpt>
      <trkpt lat="46.07909" lon="2.94063">
        <ele>473</ele>
        <time>2017-10-13T22:54:46Z</time>
      </trkpt>
      <trkpt lat="46.07912" lon="2.94051">
        <ele>475</ele>
        <time>2017-10-13T22:56:46Z</time>
      </trkpt>
      <trkpt lat="46.07918" lon="2.94044">
        <ele>476</ele>
        <time>2017-10-13T22:58:46Z</time>
      </trkpt>
      <trkpt lat="46.07923" lon="2.94031">
        <ele>478</ele>
        <time>2017-10-13T23:00:46Z</time>
      </trkpt>
      <trkpt lat="46.07934" lon="2.93995">
        <ele>481</ele>
        <time>2017-10-13T23:02:46Z</time>
      </trkpt>
      <trkpt lat="46.07938" lon="2.93973">
        <ele>483</ele>
        <time>2017-10-13T23:04:46Z</time>
      </trkpt>
      <trkpt lat="46.07919" lon="2.93972">
        <ele>488</ele>
        <time>2017-10-13T23:06:46Z</time>
      </trkpt>
      <trkpt lat="46.07907" lon="2.93975">
        <ele>490</ele>
        <time>2017-10-13T23:08:46Z</time>
      </trkpt>
      <trkpt lat="46.07894" lon="2.93988">
        <ele>490</ele>
        <time>2017-10-13T23:10:46Z</time>
      </trkpt>
      <trkpt lat="46.07879" lon="2.93994">
        <ele>491</ele>
        <time>2017-10-13T23:12:46Z</time>
      </trkpt>
      <trkpt lat="46.07865" lon="2.94008">
        <ele>491</ele>
        <time>2017-10-13T23:14:46Z</time>
      </trkpt>
      <trkpt lat="46.07857" lon="2.94016">
        <ele>491</ele>
        <time>2017-10-13T23:16:46Z</time>
      </trkpt>
      <trkpt lat="46.07835" lon="2.94019">
        <ele>494</ele>
        <time>2017-10-13T23:18:46Z</time>
      </trkpt>
      <trkpt lat="46.07822" lon="2.94014">
        <ele>496</ele>
        <time>2017-10-13T23:20:46Z</time>
      </trkpt>
      <trkpt lat="46.07819" lon="2.94009">
        <ele>497</ele>
        <time>2017-10-13T23:22:46Z</time>
      </trkpt>
      <trkpt lat="46.07765" lon="2.93915">
        <ele>507</ele>
        <time>2017-10-13T23:24:46Z</time>
      </trkpt>
      <trkpt lat="46.07752" lon="2.93885">
        <ele>509</ele>
        <time>2017-10-13T23:26:46Z</time>
      </trkpt>
      <trkpt lat="46.07743" lon="2.93854">
        <ele>511</ele>
        <time>2017-10-13T23:28:46Z</time>
      </trkpt>
      <trkpt lat="46.07733" lon="2.93817">
        <ele>512</ele>
        <time>2017-10-13T23:30:46Z</time>
      </trkpt>
      <trkpt lat="46.0772" lon="2.93783">
        <ele>512</ele>
        <time>2017-10-13T23:32:46Z</time>
      </trkpt>
      <trkpt lat="46.07662" lon="2.93653">
        <ele>521</ele>
        <time>2017-10-13T23:34:46Z</time>
      </trkpt>
      <trkpt lat="46.07647" lon="2.9363">
        <ele>523</ele>
        <time>2017-10-13T23:36:46Z</time>
      </trkpt>
      <trkpt lat="46.07629" lon="2.93596">
        <ele>526</ele>
        <time>2017-10-13T23:38:46Z</time>
      </trkpt>
      <trkpt lat="46.07599" lon="2.93529">
        <ele>530</ele>
        <time>2017-10-13T23:40:46Z</time>
      </trkpt>
      <trkpt lat="46.07566" lon="2.9345">
        <ele>535</ele>
        <time>2017-10-13T23:42:46Z</time>
      </trkpt>
      <trkpt lat="46.07549" lon="2.93414">
        <ele>537</ele>
        <time>2017-10-13T23:44:46Z</time>
      </trkpt>
      <trkpt lat="46.07534" lon="2.93393">
        <ele>538</ele>
        <time>2017-10-13T23:46:46Z</time>
      </trkpt>
      <trkpt lat="46.07522" lon="2.93368">
        <ele>539</ele>
        <time>2017-10-13T23:48:46Z</time>
      </trkpt>
      <trkpt lat="46.0752" lon="2.93329">
        <ele>540</ele>
        <time>2017-10-13T23:50:46Z</time>
      </trkpt>
      <trkpt lat="46.07516" lon="2.93299">
        <ele>539</ele>
        <time>2017-10-13T23:52:46Z</time>
      </trkpt>
      <trkpt lat="46.07548" lon="2.93247">
        <ele>535</ele>
        <time>2017-10-13T23:54:46Z</time>
      </trkpt>
      <trkpt lat="46.07591" lon="2.93197">
        <ele>532</ele>
        <time>2017-10-13T23:56:46Z</time>
      </trkpt>
      <trkpt lat="46.07605" lon="2.93181">
        <ele>532</ele>
        <time>2017-10-13T23:58:46Z</time>
      </trkpt>
      <trkpt lat="46.0761" lon="2.9318">
        <ele>532</ele>
        <time>2017-10-14T00:00:46Z</time>
      </trkpt>
      <trkpt lat="46.07617" lon="2.93168">
        <ele>532</ele>
        <time>2017-10-14T00:02:46Z</time>
      </trkpt>
      <trkpt lat="46.07623" lon="2.93161">
        <ele>532</ele>
        <time>2017-10-14T00:04:46Z</time>
      </trkpt>
      <trkpt lat="46.07641" lon="2.93149">
        <ele>531</ele>
        <time>2017-10-14T00:06:46Z</time>
      </trkpt>
      <trkpt lat="46.07674" lon="2.93135">
        <ele>531</ele>
        <time>2017-10-14T00:08:46Z</time>
      </trkpt>
      <trkpt lat="46.07705" lon="2.93126">
        <ele>531</ele>
        <time>2017-10-14T00:10:46Z</time>
      </trkpt>
      <trkpt lat="46.07728" lon="2.93102">
        <ele>532</ele>
        <time>2017-10-14T00:12:46Z</time>
      </trkpt>
      <trkpt lat="46.07742" lon="2.93127">
        <ele>532</ele>
        <time>2017-10-14T00:14:46Z</time>
      </trkpt>
      <trkpt lat="46.07776" lon="2.93154">
        <ele>534</ele>
        <time>2017-10-14T00:16:46Z</time>
      </trkpt>
      <trkpt lat="46.07808" lon="2.93144">
        <ele>537</ele>
        <time>2017-10-14T00:18:46Z</time>
      </trkpt>
      <trkpt lat="46.07827" lon="2.93113">
        <ele>539</ele>
        <time>2017-10-14T00:20:46Z</time>
      </trkpt>
      <trkpt lat="46.07848" lon="2.93084">
        <ele>541</ele>
        <time>2017-10-14T00:22:46Z</time>
      </trkpt>
      <trkpt lat="46.07884" lon="2.9306">
        <ele>544</ele>
        <time>2017-10-14T00:24:46Z</time>
      </trkpt>
      <trkpt lat="46.07924" lon="2.93019">
        <ele>544</ele>
        <time>2017-10-14T00:26:46Z</time>
      </trkpt>
      <trkpt lat="46.07992" lon="2.92973">
        <ele>542</ele>
        <time>2017-10-14T00:28:46Z</time>
      </trkpt>
      <trkpt lat="46.08098" lon="2.9313">
        <ele>545</ele>
        <time>2017-10-14T00:30:46Z</time>
      </trkpt>
      <trkpt lat="46.08143" lon="2.93244">
        <ele>531</ele>
        <time>2017-10-14T00:32:46Z</time>
      </trkpt>
      <trkpt lat="46.08167" lon="2.93392">
        <ele>517</ele>
        <time>2017-10-14T00:34:46Z</time>
      </trkpt>
      <trkpt lat="46.08181" lon="2.93441">
        <ele>516</ele>
        <time>2017-10-14T00:36:46Z</time>
      </trkpt>
      <trkpt lat="46.08214" lon="2.93494">
        <ele>509</ele>
        <time>2017-10-14T00:38:46Z</time>
      </trkpt>
      <trkpt lat="46.0824" lon="2.93505">
        <ele>502</ele>
        <time>2017-10-14T00:40:46Z</time>
      </trkpt>
      <trkpt lat="46.08279" lon="2.93527">
        <ele>495</ele>
        <time>2017-10-14T00:42:46Z</time>
      </trkpt>
      <trkpt lat="46.08304" lon="2.93562">
        <ele>492</ele>
        <time>2017-10-14T00:44:46Z</time>
      </trkpt>
      <trkpt lat="46.08371" lon="2.93622">
        <ele>477</ele>
        <time>2017-10-14T00:46:46Z</time>
      </trkpt>
      <trkpt lat="46.08422" lon="2.93752">
        <ele>467</ele>
        <time>2017-10-14T00:48:46Z</time>
      </trkpt>
      <trkpt lat="46.08437" lon="2.93798">
        <ele>454</ele>
        <time>2017-10-14T00:50:46Z</time>
      </trkpt>
      <trkpt lat="46.0848" lon="2.93769">
        <ele>452</ele>
        <time>2017-10-14T00:52:46Z</time>
      </trkpt>
      <trkpt lat="46.08493" lon="2.93738">
        <ele>454</ele>
        <time>2017-10-14T00:54:46Z</time>
      </trkpt>
      <trkpt lat="46.08491" lon="2.9368">
        <ele>457</ele>
        <time>2017-10-14T00:56:46Z</time>
      </trkpt>
      <trkpt lat="46.08447" lon="2.9363">
        <ele>464</ele>
        <time>2017-10-14T00:58:46Z</time>
      </trkpt>
      <trkpt lat="46.08432" lon="2.93598">
        <ele>464</ele>
        <time>2017-10-14T01:00:46Z</time>
      </trkpt>
      <trkpt lat="46.08433" lon="2.93565">
        <ele>465</ele>
        <time>2017-10-14T01:02:46Z</time>
      </trkpt>
      <trkpt lat="46.08528" lon="2.93536">
        <ele>467</ele>
        <time>2017-10-14T01:04:46Z</time>
      </trkpt>
      <trkpt lat="46.08552" lon="2.93456">
        <ele>477</ele>
        <time>2017-10-14T01:06:46Z</time>
      </trkpt>
      <trkpt lat="46.08543" lon="2.93323">
        <ele>493</ele>
        <time>2017-10-14T01:08:46Z</time>
      </trkpt>
      <trkpt lat="46.0857" lon="2.93241">
        <ele>498</ele>
        <time>2017-10-14T01:10:46Z</time>
      </trkpt>
      <trkpt lat="46.08589" lon="2.93178">
        <ele>499</ele>
        <time>2017-10-14T01:12:46Z</time>
      </trkpt>
      <trkpt lat="46.08594" lon="2.93073">
        <ele>495</ele>
        <time>2017-10-14T01:14:46Z</time>
      </trkpt>
      <trkpt lat="46.08589" lon="2.93013">
        <ele>494</ele>
        <time>2017-10-14T01:16:46Z</time>
      </trkpt>
      <trkpt lat="46.08547" lon="2.92916">
        <ele>500</ele>
        <time>2017-10-14T01:18:46Z</time>
      </trkpt>
      <trkpt lat="46.08504" lon="2.92847">
        <ele>507</ele>
        <time>2017-10-14T01:20:46Z</time>
      </trkpt>
      <trkpt lat="46.08501" lon="2.92778">
        <ele>510</ele>
        <time>2017-10-14T01:22:46Z</time>
      </trkpt>
      <trkpt lat="46.08601" lon="2.92755">
        <ele>506</ele>
        <time>2017-10-14T01:24:46Z</time>
      </trkpt>
      <trkpt lat="46.08632" lon="2.92778">
        <ele>502</ele>
        <time>2017-10-14T01:26:46Z</time>
      </trkpt>
      <trkpt lat="46.08703" lon="2.92888">
        <ele>490</ele>
        <time>2017-10-14T01:28:46Z</time>
      </trkpt>
      <trkpt lat="46.08716" lon="2.92902">
        <ele>489</ele>
        <time>2017-10-14T01:30:46Z</time>
      </trkpt>
      <trkpt lat="46.08727" lon="2.92907">
        <ele>489</ele>
        <time>2017-10-14T01:32:46Z</time>
      </trkpt>
      <trkpt lat="46.08735" lon="2.92905">
        <ele>489</ele>
        <time>2017-10-14T01:34:46Z</time>
      </trkpt>
      <trkpt lat="46.08725" lon="2.92912">
        <ele>489</ele>
        <time>2017-10-14T01:36:46Z</time>
      </trkpt>
      <trkpt lat="46.08734" lon="2.92923">
        <ele>488</ele>
        <time>2017-10-14T01:38:46Z</time>
      </trkpt>
      <trkpt lat="46.08762" lon="2.92946">
        <ele>481</ele>
        <time>2017-10-14T01:40:46Z</time>
      </trkpt>
      <trkpt lat="46.08813" lon="2.92913">
        <ele>478</ele>
        <time>2017-10-14T01:42:46Z</time>
      </trkpt>
      <trkpt lat="46.08873" lon="2.92877">
        <ele>466</ele>
        <time>2017-10-14T01:44:46Z</time>
      </trkpt>
      <trkpt lat="46.08897" lon="2.92871">
        <ele>462</ele>
        <time>2017-10-14T01:46:46Z</time>
      </trkpt>
      <trkpt lat="46.0891" lon="2.92867">
        <ele>461</ele>
        <time>2017-10-14T01:48:46Z</time>
      </trkpt>
      <trkpt lat="46.0892" lon="2.92868">
        <ele>459</ele>
        <time>2017-10-14T01:50:46Z</time>
      </trkpt>
      <trkpt lat="46.08939" lon="2.92867">
        <ele>454</ele>
        <time>2017-10-14T01:52:46Z</time>
      </trkpt>
      <trkpt lat="46.08958" lon="2.92862">
        <ele>450</ele>
        <time>2017-10-14T01:54:46Z</time>
      </trkpt>
      <trkpt lat="46.08974" lon="2.92856">
        <ele>447</ele>
        <time>2017-10-14T01:56:46Z</time>
      </trkpt>
      <trkpt lat="46.08978" lon="2.92853">
        <ele>447</ele>
        <time>2017-10-14T01:58:46Z</time>
      </trkpt>
      <trkpt lat="46.09045" lon="2.92811">
        <ele>433</ele>
        <time>2017-10-14T02:00:46Z</time>
      </trkpt>
      <trkpt lat="46.09073" lon="2.92788">
        <ele>428</ele>
        <time>2017-10-14T02:02:46Z</time>
      </trkpt>
      <trkpt lat="46.09105" lon="2.92772">
        <ele>424</ele>
        <time>2017-10-14T02:04:46Z</time>
      </trkpt>
      <trkpt lat="46.09143" lon="2.92761">
        <ele>421</ele>
        <time>2017-10-14T02:06:46Z</time>
      </trkpt>
      <trkpt lat="46.09158" lon="2.92758">
        <ele>420</ele>
        <time>2017-10-14T02:08:46Z</time>
      </trkpt>
      <trkpt lat="46.09194" lon="2.92749">
        <ele>417</ele>
        <time>2017-10-14T02:10:46Z</time>
      </trkpt>
      <trkpt lat="46.09206" lon="2.9275">
        <ele>415</ele>
        <time>2017-10-14T02:12:46Z</time>
      </trkpt>
      <trkpt lat="46.0923" lon="2.92745">
        <ele>412</ele>
        <time>2017-10-14T02:14:46Z</time>
      </trkpt>
      <trkpt lat="46.09268" lon="2.92721">
        <ele>409</ele>
        <time>2017-10-14T02:16:46Z</time>
      </trkpt>
      <trkpt lat="46.09283" lon="2.92705">
        <ele>407</ele>
        <time>2017-10-14T02:18:46Z</time>
      </trkpt>
      <trkpt lat="46.09306" lon="2.92666">
        <ele>406</ele>
        <time>2017-10-14T02:20:46Z</time>
      </trkpt>
      <trkpt lat="46.09326" lon="2.92598">
        <ele>401</ele>
        <time>2017-10-14T02:22:46Z</time>
      </trkpt>
      <trkpt lat="46.09334" lon="2.92569">
        <ele>399</ele>
        <time>2017-10-14T02:24:46Z</time>
      </trkpt>
      <trkpt lat="46.09338" lon="2.92564">
        <ele>397</ele>
        <time>2017-10-14T02:26:46Z</time>
      </trkpt>
      <trkpt lat="46.09342" lon="2.92536">
        <ele>393</ele>
        <time>2017-10-14T02:28:46Z</time>
      </trkpt>
      <trkpt lat="46.09343" lon="2.92527">
        <ele>392</ele>
        <time>2017-10-14T02:30:46Z</time>
      </trkpt>
      <trkpt lat="46.0934" lon="2.92508">
        <ele>391</ele>
        <time>2017-10-14T02:32:46Z</time>
      </trkpt>
      <trkpt lat="46.09376" lon="2.9242">
        <ele>381</ele>
        <time>2017-10-14T02:34:46Z</time>
      </trkpt>
      <trkpt lat="46.0943" lon="2.92334">
        <ele>378</ele>
        <time>2017-10-14T02:36:46Z</time>
      </trkpt>
      <trkpt lat="46.09437" lon="2.92305">
        <ele>375</ele>
        <time>2017-10-14T02:38:46Z</time>
      </trkpt>
      <trkpt lat="46.09449" lon="2.92291">
        <ele>372</ele>
        <time>2017-10-14T02:40:46Z</time>
      </trkpt>
      <trkpt lat="46.09479" lon="2.92337">
        <ele>368</ele>
        <time>2017-10-14T02:42:46Z</time>
      </trkpt>
      <trkpt lat="46.09498" lon="2.92377">
        <ele>363</ele>
        <time>2017-10-14T02:44:46Z</time>
      </trkpt>
      <trkpt lat="46.09502" lon="2.92395">
        <ele>362</ele>
        <time>2017-10-14T02:46:46Z</time>
      </trkpt>
      <trkpt lat="46.09504" lon="2.92414">
        <ele>361</ele>
        <time>2017-10-14T02:48:46Z</time>
      </trkpt>
      <trkpt lat="46.09502" lon="2.9248">
        <ele>359</ele>
        <time>2017-10-14T02:50:46Z</time>
      </trkpt>
      <trkpt lat="46.09479" lon="2.92581">
        <ele>361</ele>
        <time>2017-10-14T02:52:46Z</time>
      </trkpt>
      <trkpt lat="46.09466" lon="2.92623">
        <ele>362</ele>
        <time>2017-10-14T02:54:46Z</time>
      </trkpt>
      <trkpt lat="46.09464" lon="2.92643">
        <ele>362</ele>
        <time>2017-10-14T02:56:46Z</time>
      </trkpt>
      <trkpt lat="46.09466" lon="2.92674">
        <ele>361</ele>
        <time>2017-10-14T02:58:46Z</time>
      </trkpt>
      <trkpt lat="46.0947" lon="2.92703">
        <ele>360</ele>
        <time>2017-10-14T03:00:46Z</time>
      </trkpt>
      <trkpt lat="46.0947" lon="2.92712">
        <ele>359</ele>
        <time>2017-10-14T03:02:46Z</time>
      </trkpt>
      <trkpt lat="46.09467" lon="2.92739">
        <ele>359</ele>
        <time>2017-10-14T03:04:46Z</time>
      </trkpt>
      <trkpt lat="46.09453" lon="2.92812">
        <ele>358</ele>
        <time>2017-10-14T03:06:46Z</time>
      </trkpt>
      <trkpt lat="46.09409" lon="2.92892">
        <ele>361</ele>
        <time>2017-10-14T03:08:46Z</time>
      </trkpt>
      <trkpt lat="46.09405" lon="2.92977">
        <ele>371</ele>
        <time>2017-10-14T03:10:46Z</time>
      </trkpt>
      <trkpt lat="46.09425" lon="2.93045">
        <ele>378</ele>
        <time>2017-10-14T03:12:46Z</time>
      </trkpt>
      <trkpt lat="46.09455" lon="2.93116">
        <ele>381</ele>
        <time>2017-10-14T03:14:46Z</time>
      </trkpt>
      <trkpt lat="46.09463" lon="2.93126">
        <ele>381</ele>
        <time>2017-10-14T03:16:46Z</time>
      </trkpt>
      <trkpt lat="46.09521" lon="2.93177">
        <ele>377</ele>
        <time>2017-10-14T03:18:46Z</time>
      </trkpt>
      <trkpt lat="46.09577" lon="2.93201">
        <ele>371</ele>
        <time>2017-10-14T03:20:46Z</time>
      </trkpt>
      <trkpt lat="46.09637" lon="2.93236">
        <ele>371</ele>
        <time>2017-10-14T03:22:46Z</time>
      </trkpt>
      <trkpt lat="46.09707" lon="2.93275">
        <ele>374</ele>
        <time>2017-10-14T03:24:46Z</time>
      </trkpt>
      <trkpt lat="46.09718" lon="2.93278">
        <ele>373</ele>
        <time>2017-10-14T03:26:46Z</time>
      </trkpt>
      <trkpt lat="46.09823" lon="2.93294">
        <ele>373</ele>
        <time>2017-10-14T03:28:46Z</time>
      </trkpt>
      <trkpt lat="46.09849" lon="2.93286">
        <ele>371</ele>
        <time>2017-10-14T03:30:46Z</time>
      </trkpt>
      <trkpt lat="46.10019" lon="2.93221">
        <ele>369</ele>
        <time>2017-10-14T03:32:46Z</time>
      </trkpt>
      <trkpt lat="46.10061" lon="2.93178">
        <ele>364</ele>
        <time>2017-10-14T03:34:46Z</time>
      </trkpt>
      <trkpt lat="46.09979" lon="2.93208">
        <ele>363</ele>
        <time>2017-10-14T03:36:46Z</time>
      </trkpt>
      <trkpt lat="46.09943" lon="2.93129">
        <ele>353</ele>
        <time>2017-10-14T03:38:46Z</time>
      </trkpt>
      <trkpt lat="46.10029" lon="2.9293">
        <ele>358</ele>
        <time>2017-10-14T03:40:46Z</time>
      </trkpt>
      <trkpt lat="46.10039" lon="2.92876">
        <ele>364</ele>
        <time>2017-10-14T03:42:46Z</time>
      </trkpt>
      <trkpt lat="46.1005" lon="2.92753">
        <ele>376</ele>
        <time>2017-10-14T03:44:46Z</time>
      </trkpt>
      <trkpt lat="46.10072" lon="2.92749">
        <ele>372</ele>
        <time>2017-10-14T03:46:46Z</time>
      </trkpt>
      <trkpt lat="46.10071" lon="2.92841">
        <ele>366</ele>
        <time>2017-10-14T03:48:46Z</time>
      </trkpt>
      <trkpt lat="46.10088" lon="2.92896">
        <ele>358</ele>
        <time>2017-10-14T03:50:46Z</time>
      </trkpt>
      <trkpt lat="46.10325" lon="2.92924">
        <ele>364</ele>
        <time>2017-10-14T03:52:46Z</time>
      </trkpt>
      <trkpt lat="46.1041" lon="2.92986">
        <ele>365</ele>
        <time>2017-10-14T03:54:46Z</time>
      </trkpt>
      <trkpt lat="46.10542" lon="2.93099">
        <ele>365</ele>
        <time>2017-10-14T03:56:46Z</time>
      </trkpt>
      <trkpt lat="46.10615" lon="2.93172">
        <ele>364</ele>
        <time>2017-10-14T03:58:46Z</time>
      </trkpt>
      <trkpt lat="46.10668" lon="2.93262">
        <ele>361</ele>
        <time>2017-10-14T04:00:46Z</time>
      </trkpt>
      <trkpt lat="46.10677" lon="2.9342">
        <ele>370</ele>
        <time>2017-10-14T04:02:46Z</time>
      </trkpt>
      <trkpt lat="46.1061" lon="2.93547">
        <ele>370</ele>
        <time>2017-10-14T04:04:46Z</time>
      </trkpt>
      <trkpt lat="46.10559" lon="2.93608">
        <ele>365</ele>
        <time>2017-10-14T04:06:46Z</time>
      </trkpt>
      <trkpt lat="46.10527" lon="2.93722">
        <ele>365</ele>
        <time>2017-10-14T04:08:46Z</time>
      </trkpt>
      <trkpt lat="46.10551" lon="2.93812">
        <ele>369</ele>
        <time>2017-10-14T04:10:46Z</time>
      </trkpt>
      <trkpt lat="46.10645" lon="2.93902">
        <ele>374</ele>
        <time>2017-10-14T04:12:46Z</time>
      </trkpt>
      <trkpt lat="46.10813" lon="2.94132">
        <ele>373</ele>
        <time>2017-10-14T04:14:46Z</time>
      </trkpt>
      <trkpt lat="46.10824" lon="2.94252">
        <ele>363</ele>
        <time>2017-10-14T04:16:46Z</time>
      </trkpt>
      <trkpt lat="46.1086" lon="2.94373">
        <ele>361</ele>
        <time>2017-10-14T04:18:46Z</time>
      </trkpt>
      <trkpt lat="46.10922" lon="2.94422">
        <ele>364</ele>
        <time>2017-10-14T04:20:46Z</time>
      </trkpt>
      <trkpt lat="46.10992" lon="2.94505">
        <ele>373</ele>
        <time>2017-10-14T04:22:46Z</time>
      </trkpt>
      <trkpt lat="46.11015" lon="2.94569">
        <ele>373</ele>
        <time>2017-10-14T04:24:46Z</time>
      </trkpt>
      <trkpt lat="46.11071" lon="2.9454">
        <ele>385</ele>
        <time>2017-10-14T04:26:46Z</time>
      </trkpt>
      <trkpt lat="46.11109" lon="2.94508">
        <ele>394</ele>
        <time>2017-10-14T04:28:46Z</time>
      </trkpt>
      <trkpt lat="46.11177" lon="2.9451">
        <ele>394</ele>
        <time>2017-10-14T04:30:46Z</time>
      </trkpt>
      <trkpt lat="46.11196" lon="2.9446">
        <ele>403</ele>
        <time>2017-10-14T04:32:46Z</time>
      </trkpt>
      <trkpt lat="46.11223" lon="2.94463">
        <ele>404</ele>
        <time>2017-10-14T04:34:46Z</time>
      </trkpt>
      <trkpt lat="46.11245" lon="2.94519">
        <ele>402</ele>
        <time>2017-10-14T04:36:46Z</time>
      </trkpt>
      <trkpt lat="46.11286" lon="2.94539">
        <ele>413</ele>
        <time>2017-10-14T04:38:46Z</time>
      </trkpt>
      <trkpt lat="46.1135" lon="2.94558">
        <ele>428</ele>
        <time>2017-10-14T04:40:46Z</time>
      </trkpt>
      <trkpt lat="46.11351" lon="2.94544">
        <ele>428</ele>
        <time>2017-10-14T04:42:46Z</time>
      </trkpt>
      <trkpt lat="46.11321" lon="2.94464">
        <ele>424</ele>
        <time>2017-10-14T04:44:46Z</time>
      </trkpt>
      <trkpt lat="46.11325" lon="2.94427">
        <ele>428</ele>
        <time>2017-10-14T04:46:46Z</time>
      </trkpt>
      <trkpt lat="46.11334" lon="2.94411">
        <ele>430</ele>
        <time>2017-10-14T04:48:46Z</time>
      </trkpt>
      <trkpt lat="46.11355" lon="2.94421">
        <ele>435</ele>
        <time>2017-10-14T04:50:46Z</time>
      </trkpt>
      <trkpt lat="46.11365" lon="2.944">
        <ele>435</ele>
        <time>2017-10-14T04:52:46Z</time>
      </trkpt>
      <trkpt lat="46.11427" lon="2.94391">
        <ele>444</ele>
        <time>2017-10-14T04:54:46Z</time>
      </trkpt>
      <trkpt lat="46.11471" lon="2.94396">
        <ele>450</ele>
        <time>2017-10-14T04:56:46Z</time>
      </trkpt>
      <trkpt lat="46.11521" lon="2.9444">
        <ele>458</ele>
        <time>2017-10-14T04:58:46Z</time>
      </trkpt>
      <trkpt lat="46.11584" lon="2.94453">
        <ele>466</ele>
        <time>2017-10-14T05:00:46Z</time>
      </trkpt>
      <trkpt lat="46.11598" lon="2.9447">
        <ele>469</ele>
        <time>2017-10-14T05:02:46Z</time>
      </trkpt>
      <trkpt lat="46.11596" lon="2.94514">
        <ele>473</ele>
        <time>2017-10-14T05:04:46Z</time>
      </trkpt>
      <trkpt lat="46.11622" lon="2.94565">
        <ele>476</ele>
        <time>2017-10-14T05:06:46Z</time>
      </trkpt>
      <trkpt lat="46.1168" lon="2.94607">
        <ele>483</ele>
        <time>2017-10-14T05:08:46Z</time>
      </trkpt>
      <trkpt lat="46.1171" lon="2.94599">
        <ele>485</ele>
        <time>2017-10-14T05:10:46Z</time>
      </trkpt>
      <trkpt lat="46.11725" lon="2.9457">
        <ele>486</ele>
        <time>2017-10-14T05:12:46Z</time>
      </trkpt>
      <trkpt lat="46.11783" lon="2.94534">
        <ele>495</ele>
        <time>2017-10-14T05:14:46Z</time>
      </trkpt>
      <trkpt lat="46.11772" lon="2.9442">
        <ele>492</ele>
        <time>2017-10-14T05:16:46Z</time>
      </trkpt>
      <trkpt lat="46.11792" lon="2.94332">
        <ele>491</ele>
        <time>2017-10-14T05:18:46Z</time>
      </trkpt>
      <trkpt lat="46.12009" lon="2.94197">
        <ele>498</ele>
        <time>2017-10-14T05:20:46Z</time>
      </trkpt>
      <trkpt lat="46.12107" lon="2.94115">
        <ele>501</ele>
        <time>2017-10-14T05:22:46Z</time>
      </trkpt>
      <trkpt lat="46.12144" lon="2.9413">
        <ele>503</ele>
        <time>2017-10-14T05:24:46Z</time>
      </trkpt>
      <trkpt lat="46.12275" lon="2.94064">
        <ele>498</ele>
        <time>2017-10-14T05:26:46Z</time>
      </trkpt>
      <trkpt lat="46.12346" lon="2.94062">
        <ele>497</ele>
        <time>2017-10-14T05:28:46Z</time>
      </trkpt>
      <trkpt lat="46.12385" lon="2.94071">
        <ele>499</ele>
        <time>2017-10-14T05:30:46Z</time>
      </trkpt>
      <trkpt lat="46.12396" lon="2.94048">
        <ele>498</ele>
        <time>2017-10-14T05:32:46Z</time>
      </trkpt>
      <trkpt lat="46.12441" lon="2.94042">
        <ele>501</ele>
        <time>2017-10-14T05:34:46Z</time>
      </trkpt>
      <trkpt lat="46.12487" lon="2.94034">
        <ele>506</ele>
        <time>2017-10-14T05:36:46Z</time>
      </trkpt>
      <trkpt lat="46.12523" lon="2.94027">
        <ele>509</ele>
        <time>2017-10-14T05:38:46Z</time>
      </trkpt>
      <trkpt lat="46.12572" lon="2.93989">
        <ele>509</ele>
        <time>2017-10-14T05:40:46Z</time>
      </trkpt>
      <trkpt lat="46.12596" lon="2.93908">
        <ele>505</ele>
        <time>2017-10-14T05:42:46Z</time>
      </trkpt>
      <trkpt lat="46.12629" lon="2.93884">
        <ele>507</ele>
        <time>2017-10-14T05:44:46Z</time>
      </trkpt>
      <trkpt lat="46.12676" lon="2.93883">
        <ele>511</ele>
        <time>2017-10-14T05:46:46Z</time>
      </trkpt>
      <trkpt lat="46.12701" lon="2.9386">
        <ele>511</ele>
        <time>2017-10-14T05:48:46Z</time>
      </trkpt>
      <trkpt lat="46.12723" lon="2.93828">
        <ele>509</ele>
        <time>2017-10-14T05:50:46Z</time>
      </trkpt>
      <trkpt lat="46.12787" lon="2.93783">
        <ele>510</ele>
        <time>2017-10-14T05:52:46Z</time>
      </trkpt>
      <trkpt lat="46.12815" lon="2.93774">
        <ele>511</ele>
        <time>2017-10-14T05:54:46Z</time>
      </trkpt>
      <trkpt lat="46.12826" lon="2.93727">
        <ele>511</ele>
        <time>2017-10-14T05:56:46Z</time>
      </trkpt>
      <trkpt lat="46.12864" lon="2.9364">
        <ele>518</ele>
        <time>2017-10-14T05:58:46Z</time>
      </trkpt>
      <trkpt lat="46.12897" lon="2.93637">
        <ele>520</ele>
        <time>2017-10-14T06:00:46Z</time>
      </trkpt>
      <trkpt lat="46.12919" lon="2.93635">
        <ele>521</ele>
        <time>2017-10-14T06:02:46Z</time>
      </trkpt>
      <trkpt lat="46.12926" lon="2.93638">
        <ele>521</ele>
        <time>2017-10-14T06:04:46Z</time>
      </trkpt>
      <trkpt lat="46.12949" lon="2.9366">
        <ele>521</ele>
        <time>2017-10-14T06:06:46Z</time>
      </trkpt>
      <trkpt lat="46.12962" lon="2.93655">
        <ele>523</ele>
        <time>2017-10-14T06:08:46Z</time>
      </trkpt>
      <trkpt lat="46.12975" lon="2.93643">
        <ele>525</ele>
        <time>2017-10-14T06:10:46Z</time>
      </trkpt>
      <trkpt lat="46.13011" lon="2.93611">
        <ele>530</ele>
        <time>2017-10-14T06:12:46Z</time>
      </trkpt>
      <trkpt lat="46.13032" lon="2.93597">
        <ele>532</ele>
        <time>2017-10-14T06:14:46Z</time>
      </trkpt>
      <trkpt lat="46.13113" lon="2.93558">
        <ele>541</ele>
        <time>2017-10-14T06:16:46Z</time>
      </trkpt>
      <trkpt lat="46.13198" lon="2.93518">
        <ele>552</ele>
        <time>2017-10-14T06:18:46Z</time>
      </trkpt>
      <trkpt lat="46.13245" lon="2.93494">
        <ele>555</ele>
        <time>2017-10-14T06:20:46Z</time>
      </trkpt>
      <trkpt lat="46.13265" lon="2.93485">
        <ele>557</ele>
        <time>2017-10-14T06:22:46Z</time>
      </trkpt>
      <trkpt lat="46.13294" lon="2.93487">
        <ele>559</ele>
        <time>2017-10-14T06:24:46Z</time>
      </trkpt>
      <trkpt lat="46.1338" lon="2.93503">
        <ele>565</ele>
        <time>2017-10-14T06:26:46Z</time>
      </trkpt>
      <trkpt lat="46.13423" lon="2.93509">
        <ele>567</ele>
        <time>2017-10-14T06:28:46Z</time>
      </trkpt>
      <trkpt lat="46.13466" lon="2.93521">
        <ele>568</ele>
        <time>2017-10-14T06:30:46Z</time>
      </trkpt>
      <trkpt lat="46.13501" lon="2.93536">
        <ele>568</ele>
        <time>2017-10-14T06:32:46Z</time>
      </trkpt>
      <trkpt lat="46.13562" lon="2.93576">
        <ele>569</ele>
        <time>2017-10-14T06:34:46Z</time>
      </trkpt>
      <trkpt lat="46.13625" lon="2.93586">
        <ele>565</ele>
        <time>2017-10-14T06:36:46Z</time>
      </trkpt>
      <trkpt lat="46.1364" lon="2.93582">
        <ele>565</ele>
        <time>2017-10-14T06:38:46Z</time>
      </trkpt>
      <trkpt lat="46.13652" lon="2.93571">
        <ele>564</ele>
        <time>2017-10-14T06:40:46Z</time>
      </trkpt>
      <trkpt lat="46.13694" lon="2.93516">
        <ele>562</ele>
        <time>2017-10-14T06:42:46Z</time>
      </trkpt>
      <trkpt lat="46.13736" lon="2.93454">
        <ele>562</ele>
        <time>2017-10-14T06:44:46Z</time>
      </trkpt>
      <trkpt lat="46.13745" lon="2.9352">
        <ele>562</ele>
        <time>2017-10-14T06:46:46Z</time>
      </trkpt>
      <trkpt lat="46.13744" lon="2.93594">
        <ele>563</ele>
        <time>2017-10-14T06:48:46Z</time>
      </trkpt>
      <trkpt lat="46.13726" lon="2.93673">
        <ele>561</ele>
        <time>2017-10-14T06:50:46Z</time>
      </trkpt>
      <trkpt lat="46.13723" lon="2.93858">
        <ele>557</ele>
        <time>2017-10-14T06:52:46Z</time>
      </trkpt>
      <trkpt lat="46.13867" lon="2.93749">
        <ele>552</ele>
        <time>2017-10-14T06:54:46Z</time>
      </trkpt>
      <trkpt lat="46.13884" lon="2.93732">
        <ele>551</ele>
        <time>2017-10-14T06:56:46Z</time>
      </trkpt>
      <trkpt lat="46.13925" lon="2.93561">
        <ele>554</ele>
        <time>2017-10-14T06:58:46Z</time>
      </trkpt>
      <trkpt lat="46.14008" lon="2.93439">
        <ele>558</ele>
        <time>2017-10-14T07:00:46Z</time>
      </trkpt>
      <trkpt lat="46.14028" lon="2.93424">
        <ele>558</ele>
        <time>2017-10-14T07:02:46Z</time>
      </trkpt>
      <trkpt lat="46.14071" lon="2.93416">
        <ele>557</ele>
        <time>2017-10-14T07:04:46Z</time>
      </trkpt>
      <trkpt lat="46.1409" lon="2.93416">
        <ele>557</ele>
        <time>2017-10-14T07:06:46Z</time>
      </trkpt>
      <trkpt lat="46.14112" lon="2.9342">
        <ele>558</ele>
        <time>2017-10-14T07:08:46Z</time>
      </trkpt>
      <trkpt lat="46.14121" lon="2.93423">
        <ele>558</ele>
        <time>2017-10-14T07:10:46Z</time>
      </trkpt>
      <trkpt lat="46.1414" lon="2.93428">
        <ele>558</ele>
        <time>2017-10-14T07:12:46Z</time>
      </trkpt>
      <trkpt lat="46.14154" lon="2.93447">
        <ele>557</ele>
        <time>2017-10-14T07:14:46Z</time>
      </trkpt>
      <trkpt lat="46.14158" lon="2.93504">
        <ele>556</ele>
        <time>2017-10-14T07:16:46Z</time>
      </trkpt>
      <trkpt lat="46.14165" lon="2.93569">
        <ele>556</ele>
        <time>2017-10-14T07:18:46Z</time>
      </trkpt>
      <trkpt lat="46.14189" lon="2.93749">
        <ele>557</ele>
        <time>2017-10-14T07:20:46Z</time>
      </trkpt>
      <trkpt lat="46.14195" lon="2.93797">
        <ele>557</ele>
        <time>2017-10-14T07:22:46Z</time>
      </trkpt>
      <trkpt lat="46.14193" lon="2.93801">
        <ele>557</ele>
        <time>2017-10-14T07:24:46Z</time>
      </trkpt>
      <trkpt lat="46.14204" lon="2.93853">
        <ele>559</ele>
        <time>2017-10-14T07:26:46Z</time>
      </trkpt>
      <trkpt lat="46.14205" lon="2.93919">
        <ele>562</ele>
        <time>2017-10-14T07:28:46Z</time>
      </trkpt>
      <trkpt lat="46.14196" lon="2.93956">
        <ele>564</ele>
        <time>2017-10-14T07:30:46Z</time>
      </trkpt>
      <trkpt lat="46.14181" lon="2.93982">
        <ele>565</ele>
        <time>2017-10-14T07:32:46Z</time>
      </trkpt>
      <trkpt lat="46.14175" lon="2.93994">
        <ele>566</ele>
        <time>2017-10-14T07:34:46Z</time>
      </trkpt>
      <trkpt lat="46.14175" lon="2.94">
        <ele>566</ele>
        <time>2017-10-14T07:36:46Z</time>
      </trkpt>
      <trkpt lat="46.14186" lon="2.94028">
        <ele>566</ele>
        <time>2017-10-14T07:38:46Z</time>
      </trkpt>
      <trkpt lat="46.1421" lon="2.94059">
        <ele>567</ele>
        <time>2017-10-14T07:40:46Z</time>
      </trkpt>
      <trkpt lat="46.14226" lon="2.94086">
        <ele>569</ele>
        <time>2017-10-14T07:42:46Z</time>
      </trkpt>
      <trkpt lat="46.14236" lon="2.94116">
        <ele>570</ele>
        <time>2017-10-14T07:44:46Z</time>
      </trkpt>
      <trkpt lat="46.14243" lon="2.94152">
        <ele>571</ele>
        <time>2017-10-14T07:46:46Z</time>
      </trkpt>
      <trkpt lat="46.14248" lon="2.94189">
        <ele>572</ele>
        <time>2017-10-14T07:48:46Z</time>
      </trkpt>
      <trkpt lat="46.14261" lon="2.94211">
        <ele>572</ele>
        <time>2017-10-14T07:50:46Z</time>
      </trkpt>
      <trkpt lat="46.14364" lon="2.94244">
        <ele>576</ele>
        <time>2017-10-14T07:52:46Z</time>
      </trkpt>
      <trkpt lat="46.14373" lon="2.94237">
        <ele>577</ele>
        <time>2017-10-14T07:54:46Z</time>
      </trkpt>
      <trkpt lat="46.14373" lon="2.94234">
        <ele>577</ele>
        <time>2017-10-14T07:56:46Z</time>
      </trkpt>
      <trkpt lat="46.14373" lon="2.94231">
        <ele>577</ele>
        <time>2017-10-14T07:58:46Z</time>
      </trkpt>
      <trkpt lat="46.14362" lon="2.94191">
        <ele>575</ele>
        <time>2017-10-14T08:00:46Z</time>
      </trkpt>
      <trkpt lat="46.1436" lon="2.94177">
        <ele>575</ele>
        <time>2017-10-14T08:02:46Z</time>
      </trkpt>
      <trkpt lat="46.14359" lon="2.94154">
        <ele>574</ele>
        <time>2017-10-14T08:04:46Z</time>
      </trkpt>
      <trkpt lat="46.14363" lon="2.94129">
        <ele>573</ele>
        <time>2017-10-14T08:06:46Z</time>
      </trkpt>
      <trkpt lat="46.14403" lon="2.93989">
        <ele>570</ele>
        <time>2017-10-14T08:08:46Z</time>
      </trkpt>
      <trkpt lat="46.14412" lon="2.9395">
        <ele>568</ele>
        <time>2017-10-14T08:10:46Z</time>
      </trkpt>
      <trkpt lat="46.14413" lon="2.93928">
        <ele>566</ele>
        <time>2017-10-14T08:12:46Z</time>
      </trkpt>
      <trkpt lat="46.14411" lon="2.93906">
        <ele>565</ele>
        <time>2017-10-14T08:14:46Z</time>
      </trkpt>
      <trkpt lat="46.14406" lon="2.93884">
        <ele>564</ele>
        <time>2017-10-14T08:16:46Z</time>
      </trkpt>
      <trkpt lat="46.14399" lon="2.93864">
        <ele>563</ele>
        <time>2017-10-14T08:18:46Z</time>
      </trkpt>
      <trkpt lat="46.14358" lon="2.93762">
        <ele>563</ele>
        <time>2017-10-14T08:20:46Z</time>
      </trkpt>
      <trkpt lat="46.14362" lon="2.93737">
        <ele>565</ele>
        <time>2017-10-14T08:22:46Z</time>
      </trkpt>
      <trkpt lat="46.14392" lon="2.93703">
        <ele>568</ele>
        <time>2017-10-14T08:24:46Z</time>
      </trkpt>
      <trkpt lat="46.14415" lon="2.93673">
        <ele>571</ele>
        <time>2017-10-14T08:26:46Z</time>
      </trkpt>
      <trkpt lat="46.14428" lon="2.93639">
        <ele>572</ele>
        <time>2017-10-14T08:28:46Z</time>
      </trkpt>
      <trkpt lat="46.14435" lon="2.93599">
        <ele>574</ele>
        <time>2017-10-14T08:30:46Z</time>
      </trkpt>
      <trkpt lat="46.14448" lon="2.93527">
        <ele>578</ele>
        <time>2017-10-14T08:32:46Z</time>
      </trkpt>
      <trkpt lat="46.14461" lon="2.93495">
        <ele>580</ele>
        <time>2017-10-14T08:34:46Z</time>
      </trkpt>
      <trkpt lat="46.14487" lon="2.93471">
        <ele>582</ele>
        <time>2017-10-14T08:36:46Z</time>
      </trkpt>
      <trkpt lat="46.14524" lon="2.93458">
        <ele>583</ele>
        <time>2017-10-14T08:38:46Z</time>
      </trkpt>
      <trkpt lat="46.1455" lon="2.93443">
        <ele>585</ele>
        <time>2017-10-14T08:40:46Z</time>
      </trkpt>
      <trkpt lat="46.14612" lon="2.93387">
        <ele>589</ele>
        <time>2017-10-14T08:42:46Z</time>
      </trkpt>
      <trkpt lat="46.14644" lon="2.93309">
        <ele>592</ele>
        <time>2017-10-14T08:44:46Z</time>
      </trkpt>
      <trkpt lat="46.14673" lon="2.93268">
        <ele>592</ele>
        <time>2017-10-14T08:46:46Z</time>
      </trkpt>
      <trkpt lat="46.14747" lon="2.93265">
        <ele>592</ele>
        <time>2017-10-14T08:48:46Z</time>
      </trkpt>
      <trkpt lat="46.14753" lon="2.93261">
        <ele>592</ele>
        <time>2017-10-14T08:50:46Z</time>
      </trkpt>
      <trkpt lat="46.14824" lon="2.93309">
        <ele>593</ele>
        <time>2017-10-14T08:52:46Z</time>
      </trkpt>
      <trkpt lat="46.14809" lon="2.93419">
        <ele>591</ele>
        <time>2017-10-14T08:54:46Z</time>
      </trkpt>
      <trkpt lat="46.14768" lon="2.93468">
        <ele>588</ele>
        <time>2017-10-14T08:56:46Z</time>
      </trkpt>
      <trkpt lat="46.14739" lon="2.9355">
        <ele>583</ele>
        <time>2017-10-14T08:58:46Z</time>
      </trkpt>
      <trkpt lat="46.14729" lon="2.93667">
        <ele>577</ele>
        <time>2017-10-14T09:00:46Z</time>
      </trkpt>
      <trkpt lat="46.14717" lon="2.93737">
        <ele>575</ele>
        <time>2017-10-14T09:02:46Z</time>
      </trkpt>
      <trkpt lat="46.14779" lon="2.93832">
        <ele>577</ele>
        <time>2017-10-14T09:04:46Z</time>
      </trkpt>
      <trkpt lat="46.14858" lon="2.93939">
        <ele>582</ele>
        <time>2017-10-14T09:06:46Z</time>
      </trkpt>
      <trkpt lat="46.14931" lon="2.93973">
        <ele>585</ele>
        <time>2017-10-14T09:08:46Z</time>
      </trkpt>
      <trkpt lat="46.15026" lon="2.93999">
        <ele>590</ele>
        <time>2017-10-14T09:10:46Z</time>
      </trkpt>
      <trkpt lat="46.15042" lon="2.94067">
        <ele>592</ele>
        <time>2017-10-14T09:12:46Z</time>
      </trkpt>
      <trkpt lat="46.1498" lon="2.9442">
        <ele>597</ele>
        <time>2017-10-14T09:14:46Z</time>
      </trkpt>
      <trkpt lat="46.15068" lon="2.9441">
        <ele>604</ele>
        <time>2017-10-14T09:16:46Z</time>
      </trkpt>
      <trkpt lat="46.15126" lon="2.94412">
        <ele>609</ele>
        <time>2017-10-14T09:18:46Z</time>
      </trkpt>
      <trkpt lat="46.15157" lon="2.94425">
        <ele>612</ele>
        <time>2017-10-14T09:20:46Z</time>
      </trkpt>
      <trkpt lat="46.15146" lon="2.94588">
        <ele>610</ele>
        <time>2017-10-14T09:22:46Z</time>
      </trkpt>
      <trkpt lat="46.15152" lon="2.94743">
        <ele>605</ele>
        <time>2017-10-14T09:24:46Z</time>
      </trkpt>
      <trkpt lat="46.15237" lon="2.94821">
        <ele>610</ele>
        <time>2017-10-14T09:26:46Z</time>
      </trkpt>
      <trkpt lat="46.1532" lon="2.9483">
        <ele>619</ele>
        <time>2017-10-14T09:28:46Z</time>
      </trkpt>
      <trkpt lat="46.1537" lon="2.94951">
        <ele>618</ele>
        <time>2017-10-14T09:30:46Z</time>
      </trkpt>
      <trkpt lat="46.15448" lon="2.95048">
        <ele>618</ele>
        <time>2017-10-14T09:32:46Z</time>
      </trkpt>
      <trkpt lat="46.15516" lon="2.95142">
        <ele>611</ele>
        <time>2017-10-14T09:34:46Z</time>
      </trkpt>
      <trkpt lat="46.15573" lon="2.95155">
        <ele>606</ele>
        <time>2017-10-14T09:36:46Z</time>
      </trkpt>
      <trkpt lat="46.15632" lon="2.95131">
        <ele>613</ele>
        <time>2017-10-14T09:38:46Z</time>
      </trkpt>
      <trkpt lat="46.15673" lon="2.95183">
        <ele>606</ele>
        <time>2017-10-14T09:40:46Z</time>
      </trkpt>
      <trkpt lat="46.15684" lon="2.9525">
        <ele>604</ele>
        <time>2017-10-14T09:42:46Z</time>
      </trkpt>
      <trkpt lat="46.15742" lon="2.95247">
        <ele>611</ele>
        <time>2017-10-14T09:44:46Z</time>
      </trkpt>
      <trkpt lat="46.15829" lon="2.95226">
        <ele>629</ele>
        <time>2017-10-14T09:46:46Z</time>
      </trkpt>
      <trkpt lat="46.15875" lon="2.95249">
        <ele>630</ele>
        <time>2017-10-14T09:48:46Z</time>
      </trkpt>
      <trkpt lat="46.15924" lon="2.95218">
        <ele>641</ele>
        <time>2017-10-14T09:50:46Z</time>
      </trkpt>
      <trkpt lat="46.15958" lon="2.95235">
        <ele>639</ele>
        <time>2017-10-14T09:52:46Z</time>
      </trkpt>
      <trkpt lat="46.16007" lon="2.95285">
        <ele>630</ele>
        <time>2017-10-14T09:54:46Z</time>
      </trkpt>
      <trkpt lat="46.1608" lon="2.95288">
        <ele>625</ele>
        <time>2017-10-14T09:56:46Z</time>
      </trkpt>
      <trkpt lat="46.16079" lon="2.95292">
        <ele>625</ele>
        <time>2017-10-14T09:58:46Z</time>
      </trkpt>
      <trkpt lat="46.16111" lon="2.95273">
        <ele>631</ele>
        <time>2017-10-14T10:00:46Z</time>
      </trkpt>
      <trkpt lat="46.16153" lon="2.95356">
        <ele>621</ele>
        <time>2017-10-14T10:02:46Z</time>
      </trkpt>
      <trkpt lat="46.16204" lon="2.95369">
        <ele>624</ele>
        <time>2017-10-14T10:04:46Z</time>
      </trkpt>
      <trkpt lat="46.16311" lon="2.95282">
        <ele>640</ele>
        <time>2017-10-14T10:06:46Z</time>
      </trkpt>
      <trkpt lat="46.16368" lon="2.95217">
        <ele>650</ele>
        <time>2017-10-14T10:08:46Z</time>
      </trkpt>
      <trkpt lat="46.1634" lon="2.95398">
        <ele>636</ele>
        <time>2017-10-14T10:10:46Z</time>
      </trkpt>
      <trkpt lat="46.16398" lon="2.95476">
        <ele>643</ele>
        <time>2017-10-14T10:12:46Z</time>
      </trkpt>
      <trkpt lat="46.16551" lon="2.95285">
        <ele>680</ele>
        <time>2017-10-14T10:14:46Z</time>
      </trkpt>
      <trkpt lat="46.1661" lon="2.95235">
        <ele>689</ele>
        <time>2017-10-14T10:16:46Z</time>
      </trkpt>
      <trkpt lat="46.16733" lon="2.95108">
        <ele>705</ele>
        <time>2017-10-14T10:18:46Z</time>
      </trkpt>
      <trkpt lat="46.16725" lon="2.95028">
        <ele>716</ele>
        <time>2017-10-14T10:20:46Z</time>
      </trkpt>
      <trkpt lat="46.16672" lon="2.94915">
        <ele>730</ele>
        <time>2017-10-14T10:22:46Z</time>
      </trkpt>
      <trkpt lat="46.16557" lon="2.9475">
        <ele>733</ele>
        <time>2017-10-14T10:24:46Z</time>
      </trkpt>
      <trkpt lat="46.16706" lon="2.94773">
        <ele>736</ele>
        <time>2017-10-14T10:26:46Z</time>
      </trkpt>
      <trkpt lat="46.16906" lon="2.94844">
        <ele>731</ele>
        <time>2017-10-14T10:28:46Z</time>
      </trkpt>
      <trkpt lat="46.16947" lon="2.94782">
        <ele>729</ele>
        <time>2017-10-14T10:30:46Z</time>
      </trkpt>
      <trkpt lat="46.16895" lon="2.94609">
        <ele>720</ele>
        <time>2017-10-14T10:32:46Z</time>
      </trkpt>
      <trkpt lat="46.16874" lon="2.94462">
        <ele>713</ele>
        <time>2017-10-14T10:34:46Z</time>
      </trkpt>
      <trkpt lat="46.16824" lon="2.94356">
        <ele>703</ele>
        <time>2017-10-14T10:36:46Z</time>
      </trkpt>
      <trkpt lat="46.16883" lon="2.94239">
        <ele>690</ele>
        <time>2017-10-14T10:38:46Z</time>
      </trkpt>
      <trkpt lat="46.16891" lon="2.94095">
        <ele>677</ele>
        <time>2017-10-14T10:40:46Z</time>
      </trkpt>
      <trkpt lat="46.16948" lon="2.93948">
        <ele>674</ele>
        <time>2017-10-14T10:42:46Z</time>
      </trkpt>
      <trkpt lat="46.17064" lon="2.93714">
        <ele>664</ele>
        <time>2017-10-14T10:44:46Z</time>
      </trkpt>
      <trkpt lat="46.17073" lon="2.93612">
        <ele>660</ele>
        <time>2017-10-14T10:46:46Z</time>
      </trkpt>
      <trkpt lat="46.17069" lon="2.93517">
        <ele>653</ele>
        <time>2017-10-14T10:48:46Z</time>
      </trkpt>
      <trkpt lat="46.17033" lon="2.93335">
        <ele>643</ele>
        <time>2017-10-14T10:50:46Z</time>
      </trkpt>
      <trkpt lat="46.17019" lon="2.93162">
        <ele>629</ele>
        <time>2017-10-14T10:52:46Z</time>
      </trkpt>
      <trkpt lat="46.17026" lon="2.92967">
        <ele>603</ele>
        <time>2017-10-14T10:54:46Z</time>
      </trkpt>
      <trkpt lat="46.16935" lon="2.92968">
        <ele>601</ele>
        <time>2017-10-14T10:56:46Z</time>
      </trkpt>
      <trkpt lat="46.16881" lon="2.93021">
        <ele>605</ele>
        <time>2017-10-14T10:58:46Z</time>
      </trkpt>
      <trkpt lat="46.16856" lon="2.92986">
        <ele>604</ele>
        <time>2017-10-14T11:00:46Z</time>
      </trkpt>
      <trkpt lat="46.16864" lon="2.92941">
        <ele>605</ele>
        <time>2017-10-14T11:02:46Z</time>
      </trkpt>
      <trkpt lat="46.16885" lon="2.92905">
        <ele>604</ele>
        <time>2017-10-14T11:04:46Z</time>
      </trkpt>
      <trkpt lat="46.16894" lon="2.92857">
        <ele>605</ele>
        <time>2017-10-14T11:06:46Z</time>
      </trkpt>
      <trkpt lat="46.16911" lon="2.92809">
        <ele>606</ele>
        <time>2017-10-14T11:08:46Z</time>
      </trkpt>
      <trkpt lat="46.16929" lon="2.92776">
        <ele>606</ele>
        <time>2017-10-14T11:10:46Z</time>
      </trkpt>
      <trkpt lat="46.1693" lon="2.92733">
        <ele>608</ele>
        <time>2017-10-14T11:12:46Z</time>
      </trkpt>
      <trkpt lat="46.16899" lon="2.92692">
        <ele>610</ele>
        <time>2017-10-14T11:14:46Z</time>
      </trkpt>
      <trkpt lat="46.16996" lon="2.92622">
        <ele>601</ele>
        <time>2017-10-14T11:16:46Z</time>
      </trkpt>
      <trkpt lat="46.17067" lon="2.92531">
        <ele>600</ele>
        <time>2017-10-14T11:18:46Z</time>
      </trkpt>
      <trkpt lat="46.17074" lon="2.92519">
        <ele>601</ele>
        <time>2017-10-14T11:20:46Z</time>
      </trkpt>
      <trkpt lat="46.17095" lon="2.92463">
        <ele>599</ele>
        <time>2017-10-14T11:22:46Z</time>
      </trkpt>
      <trkpt lat="46.17096" lon="2.9246">
        <ele>599</ele>
        <time>2017-10-14T11:24:46Z</time>
      </trkpt>
      <trkpt lat="46.17096" lon="2.92454">
        <ele>599</ele>
        <time>2017-10-14T11:26:46Z</time>
      </trkpt>
      <trkpt lat="46.17136" lon="2.92288">
        <ele>585</ele>
        <time>2017-10-14T11:28:46Z</time>
      </trkpt>
      <trkpt lat="46.17202" lon="2.92133">
        <ele>571</ele>
        <time>2017-10-14T11:30:46Z</time>
      </trkpt>
      <trkpt lat="46.17279" lon="2.91981">
        <ele>557</ele>
        <time>2017-10-14T11:32:46Z</time>
      </trkpt>
      <trkpt lat="46.17286" lon="2.91971">
        <ele>557</ele>
        <time>2017-10-14T11:34:46Z</time>
      </trkpt>
      <trkpt lat="46.17347" lon="2.91899">
        <ele>550</ele>
        <time>2017-10-14T11:36:46Z</time>
      </trkpt>
      <trkpt lat="46.17353" lon="2.9189">
        <ele>548</ele>
        <time>2017-10-14T11:38:46Z</time>
      </trkpt>
      <trkpt lat="46.17357" lon="2.91879">
        <ele>547</ele>
        <time>2017-10-14T11:40:46Z</time>
      </trkpt>
      <trkpt lat="46.17361" lon="2.91868">
        <ele>546</ele>
        <time>2017-10-14T11:42:46Z</time>
      </trkpt>
      <trkpt lat="46.17397" lon="2.91752">
        <ele>538</ele>
        <time>2017-10-14T11:44:46Z</time>
      </trkpt>
      <trkpt lat="46.17422" lon="2.91668">
        <ele>532</ele>
        <time>2017-10-14T11:46:46Z</time>
      </trkpt>
      <trkpt lat="46.17429" lon="2.91655">
        <ele>530</ele>
        <time>2017-10-14T11:48:46Z</time>
      </trkpt>
      <trkpt lat="46.1744" lon="2.9164">
        <ele>527</ele>
        <time>2017-10-14T11:50:46Z</time>
      </trkpt>
      <trkpt lat="46.17457" lon="2.91628">
        <ele>525</ele>
        <time>2017-10-14T11:52:46Z</time>
      </trkpt>
      <trkpt lat="46.17487" lon="2.91619">
        <ele>522</ele>
        <time>2017-10-14T11:54:46Z</time>
      </trkpt>
      <trkpt lat="46.17489" lon="2.91616">
        <ele>522</ele>
        <time>2017-10-14T11:56:46Z</time>
      </trkpt>
      <trkpt lat="46.17488" lon="2.91612">
        <ele>522</ele>
        <time>2017-10-14T11:58:46Z</time>
      </trkpt>
      <trkpt lat="46.17472" lon="2.91582">
        <ele>521</ele>
        <time>2017-10-14T12:00:46Z</time>
      </trkpt>
      <trkpt lat="46.17468" lon="2.91578">
        <ele>522</ele>
        <time>2017-10-14T12:02:46Z</time>
      </trkpt>
      <trkpt lat="46.17446" lon="2.91566">
        <ele>523</ele>
        <time>2017-10-14T12:04:46Z</time>
      </trkpt>
      <trkpt lat="46.17437" lon="2.91555">
        <ele>523</ele>
        <time>2017-10-14T12:06:46Z</time>
      </trkpt>
      <trkpt lat="46.17434" lon="2.91545">
        <ele>524</ele>
        <time>2017-10-14T12:08:46Z</time>
      </trkpt>
      <trkpt lat="46.1743" lon="2.91537">
        <ele>524</ele>
        <time>2017-10-14T12:10:46Z</time>
      </trkpt>
      <trkpt lat="46.17427" lon="2.91526">
        <ele>524</ele>
        <time>2017-10-14T12:12:46Z</time>
      </trkpt>
      <trkpt lat="46.1743" lon="2.91509">
        <ele>524</ele>
        <time>2017-10-14T12:14:46Z</time>
      </trkpt>
      <trkpt lat="46.17434" lon="2.91503">
        <ele>524</ele>
        <time>2017-10-14T12:16:46Z</time>
      </trkpt>
      <trkpt lat="46.17438" lon="2.91501">
        <ele>524</ele>
        <time>2017-10-14T12:18:46Z</time>
      </trkpt>
      <trkpt lat="46.17447" lon="2.91499">
        <ele>524</ele>
        <time>2017-10-14T12:20:46Z</time>
      </trkpt>
      <trkpt lat="46.17476" lon="2.91479">
        <ele>524</ele>
        <time>2017-10-14T12:22:46Z</time>
      </trkpt>
      <trkpt lat="46.17516" lon="2.91438">
        <ele>524</ele>
        <time>2017-10-14T12:24:46Z</time>
      </trkpt>
      <trkpt lat="46.17531" lon="2.91417">
        <ele>523</ele>
        <time>2017-10-14T12:26:46Z</time>
      </trkpt>
      <trkpt lat="46.1754" lon="2.91399">
        <ele>523</ele>
        <time>2017-10-14T12:28:46Z</time>
      </trkpt>
      <trkpt lat="46.17557" lon="2.91358">
        <ele>521</ele>
        <time>2017-10-14T12:30:46Z</time>
      </trkpt>
      <trkpt lat="46.17561" lon="2.91351">
        <ele>520</ele>
        <time>2017-10-14T12:32:46Z</time>
      </trkpt>
      <trkpt lat="46.17577" lon="2.91332">
        <ele>519</ele>
        <time>2017-10-14T12:34:46Z</time>
      </trkpt>
      <trkpt lat="46.17603" lon="2.91304">
        <ele>517</ele>
        <time>2017-10-14T12:36:46Z</time>
      </trkpt>
      <trkpt lat="46.17644" lon="2.91294">
        <ele>515</ele>
        <time>2017-10-14T12:38:46Z</time>
      </trkpt>
      <trkpt lat="46.1767" lon="2.91275">
        <ele>513</ele>
        <time>2017-10-14T12:40:46Z</time>
      </trkpt>
      <trkpt lat="46.17707" lon="2.91219">
        <ele>515</ele>
        <time>2017-10-14T12:42:46Z</time>
      </trkpt>
      <trkpt lat="46.17729" lon="2.91167">
        <ele>514</ele>
        <time>2017-10-14T12:44:46Z</time>
      </trkpt>
      <trkpt lat="46.17744" lon="2.91127">
        <ele>514</ele>
        <time>2017-10-14T12:46:46Z</time>
      </trkpt>
      <trkpt lat="46.17759" lon="2.91101">
        <ele>514</ele>
        <time>2017-10-14T12:48:46Z</time>
      </trkpt>
      <trkpt lat="46.17809" lon="2.91053">
        <ele>515</ele>
        <time>2017-10-14T12:50:46Z</time>
      </trkpt>
      <trkpt lat="46.17848" lon="2.91003">
        <ele>515</ele>
        <time>2017-10-14T12:52:46Z</time>
      </trkpt>
      <trkpt lat="46.17875" lon="2.90953">
        <ele>513</ele>
        <time>2017-10-14T12:54:46Z</time>
      </trkpt>
      <trkpt lat="46.17889" lon="2.90909">
        <ele>511</ele>
        <time>2017-10-14T12:56:46Z</time>
      </trkpt>
      <trkpt lat="46.17905" lon="2.90873">
        <ele>510</ele>
        <time>2017-10-14T12:58:46Z</time>
      </trkpt>
      <trkpt lat="46.17914" lon="2.9084">
        <ele>510</ele>
        <time>2017-10-14T13:00:46Z</time>
      </trkpt>
      <trkpt lat="46.17911" lon="2.9081">
        <ele>511</ele>
        <time>2017-10-14T13:02:46Z</time>
      </trkpt>
      <trkpt lat="46.17906" lon="2.90782">
        <ele>513</ele>
        <time>2017-10-14T13:04:46Z</time>
      </trkpt>
      <trkpt lat="46.17895" lon="2.90716">
        <ele>516</ele>
        <time>2017-10-14T13:06:46Z</time>
      </trkpt>
      <trkpt lat="46.17889" lon="2.90675">
        <ele>518</ele>
        <time>2017-10-14T13:08:46Z</time>
      </trkpt>
      <trkpt lat="46.17888" lon="2.90644">
        <ele>519</ele>
        <time>2017-10-14T13:10:46Z</time>
      </trkpt>
      <trkpt lat="46.17889" lon="2.90625">
        <ele>520</ele>
        <time>2017-10-14T13:12:46Z</time>
      </trkpt>
      <trkpt lat="46.17894" lon="2.90562">
        <ele>521</ele>
        <time>2017-10-14T13:14:46Z</time>
      </trkpt>
      <trkpt lat="46.17904" lon="2.90486">
        <ele>520</ele>
        <time>2017-10-14T13:16:46Z</time>
      </trkpt>
      <trkpt lat="46.17901" lon="2.9043">
        <ele>517</ele>
        <time>2017-10-14T13:18:46Z</time>
      </trkpt>
      <trkpt lat="46.17912" lon="2.90383">
        <ele>517</ele>
        <time>2017-10-14T13:20:46Z</time>
      </trkpt>
      <trkpt lat="46.17917" lon="2.90344">
        <ele>519</ele>
        <time>2017-10-14T13:22:46Z</time>
      </trkpt>
      <trkpt lat="46.17917" lon="2.90331">
        <ele>520</ele>
        <time>2017-10-14T13:24:46Z</time>
      </trkpt>
      <trkpt lat="46.17923" lon="2.90261">
        <ele>521</ele>
        <time>2017-10-14T13:26:46Z</time>
      </trkpt>
      <trkpt lat="46.17928" lon="2.90201">
        <ele>521</ele>
        <time>2017-10-14T13:28:46Z</time>
      </trkpt>
      <trkpt lat="46.1792" lon="2.90185">
        <ele>522</ele>
        <time>2017-10-14T13:30:46Z</time>
      </trkpt>
      <trkpt lat="46.17966" lon="2.90177">
        <ele>519</ele>
        <time>2017-10-14T13:32:46Z</time>
      </trkpt>
      <trkpt lat="46.1802" lon="2.90162">
        <ele>518</ele>
        <time>2017-10-14T13:34:46Z</time>
      </trkpt>
      <trkpt lat="46.18093" lon="2.90157">
        <ele>515</ele>
        <time>2017-10-14T13:36:46Z</time>
      </trkpt>
      <trkpt lat="46.18139" lon="2.90168">
        <ele>512</ele>
        <time>2017-10-14T13:38:46Z</time>
      </trkpt>
      <trkpt lat="46.1816" lon="2.90193">
        <ele>509</ele>
        <time>2017-10-14T13:40:46Z</time>
      </trkpt>
      <trkpt lat="46.18146" lon="2.90275">
        <ele>506</ele>
        <time>2017-10-14T13:42:46Z</time>
      </trkpt>
      <trkpt lat="46.18128" lon="2.90332">
        <ele>503</ele>
        <time>2017-10-14T13:44:46Z</time>
      </trkpt>
      <trkpt lat="46.18137" lon="2.9037">
        <ele>500</ele>
        <time>2017-10-14T13:46:46Z</time>
      </trkpt>
      <trkpt lat="46.18166" lon="2.9038">
        <ele>499</ele>
        <time>2017-10-14T13:48:46Z</time>
      </trkpt>
      <trkpt lat="46.18201" lon="2.90318">
        <ele>499</ele>
        <time>2017-10-14T13:50:46Z</time>
      </trkpt>
      <trkpt lat="46.18262" lon="2.90308">
        <ele>493</ele>
        <time>2017-10-14T13:52:46Z</time>
      </trkpt>
      <trkpt lat="46.18326" lon="2.90264">
        <ele>489</ele>
        <time>2017-10-14T13:54:46Z</time>
      </trkpt>
      <trkpt lat="46.18359" lon="2.90232">
        <ele>487</ele>
        <time>2017-10-14T13:56:46Z</time>
      </trkpt>
      <trkpt lat="46.18375" lon="2.90143">
        <ele>487</ele>
        <time>2017-10-14T13:58:46Z</time>
      </trkpt>
      <trkpt lat="46.1842" lon="2.9013">
        <ele>485</ele>
        <time>2017-10-14T14:00:46Z</time>
      </trkpt>
      <trkpt lat="46.18527" lon="2.9011">
        <ele>488</ele>
        <time>2017-10-14T14:02:46Z</time>
      </trkpt>
      <trkpt lat="46.18614" lon="2.90034">
        <ele>494</ele>
        <time>2017-10-14T14:04:46Z</time>
      </trkpt>
      <trkpt lat="46.18652" lon="2.9002">
        <ele>494</ele>
        <time>2017-10-14T14:06:46Z</time>
      </trkpt>
      <trkpt lat="46.18713" lon="2.90042">
        <ele>496</ele>
        <time>2017-10-14T14:08:46Z</time>
      </trkpt>
      <trkpt lat="46.18749" lon="2.90106">
        <ele>496</ele>
        <time>2017-10-14T14:10:46Z</time>
      </trkpt>
      <trkpt lat="46.18814" lon="2.90155">
        <ele>498</ele>
        <time>2017-10-14T14:12:46Z</time>
      </trkpt>
      <trkpt lat="46.1888" lon="2.90157">
        <ele>501</ele>
        <time>2017-10-14T14:14:46Z</time>
      </trkpt>
      <trkpt lat="46.18915" lon="2.90112">
        <ele>503</ele>
        <time>2017-10-14T14:16:46Z</time>
      </trkpt>
      <trkpt lat="46.1896" lon="2.89927">
        <ele>503</ele>
        <time>2017-10-14T14:18:46Z</time>
      </trkpt>
      <trkpt lat="46.18965" lon="2.89915">
        <ele>503</ele>
        <time>2017-10-14T14:20:46Z</time>
      </trkpt>
      <trkpt lat="46.19016" lon="2.89758">
        <ele>501</ele>
        <time>2017-10-14T14:22:46Z</time>
      </trkpt>
      <trkpt lat="46.19052" lon="2.89695">
        <ele>496</ele>
        <time>2017-10-14T14:24:46Z</time>
      </trkpt>
      <trkpt lat="46.19081" lon="2.89433">
        <ele>479</ele>
        <time>2017-10-14T14:26:46Z</time>
      </trkpt>
      <trkpt lat="46.19165" lon="2.89367">
        <ele>469</ele>
        <time>2017-10-14T14:28:46Z</time>
      </trkpt>
      <trkpt lat="46.19212" lon="2.89196">
        <ele>457</ele>
        <time>2017-10-14T14:30:46Z</time>
      </trkpt>
      <trkpt lat="46.19207" lon="2.89159">
        <ele>455</ele>
        <time>2017-10-14T14:32:46Z</time>
      </trkpt>
      <trkpt lat="46.19187" lon="2.89121">
        <ele>454</ele>
        <time>2017-10-14T14:34:46Z</time>
      </trkpt>
      <trkpt lat="46.19177" lon="2.89108">
        <ele>454</ele>
        <time>2017-10-14T14:36:46Z</time>
      </trkpt>
      <trkpt lat="46.19205" lon="2.89075">
        <ele>451</ele>
        <time>2017-10-14T14:38:46Z</time>
      </trkpt>
      <trkpt lat="46.1923" lon="2.8894">
        <ele>454</ele>
        <time>2017-10-14T14:40:46Z</time>
      </trkpt>
      <trkpt lat="46.1925" lon="2.8892">
        <ele>456</ele>
        <time>2017-10-14T14:42:46Z</time>
      </trkpt>
      <trkpt lat="46.19296" lon="2.88921">
        <ele>465</ele>
        <time>2017-10-14T14:44:46Z</time>
      </trkpt>
      <trkpt lat="46.19358" lon="2.88941">
        <ele>471</ele>
        <time>2017-10-14T14:46:46Z</time>
      </trkpt>
      <trkpt lat="46.19405" lon="2.88966">
        <ele>472</ele>
        <time>2017-10-14T14:48:46Z</time>
      </trkpt>
      <trkpt lat="46.19432" lon="2.88935">
        <ele>478</ele>
        <time>2017-10-14T14:50:46Z</time>
      </trkpt>
      <trkpt lat="46.19467" lon="2.88851">
        <ele>490</ele>
        <time>2017-10-14T14:52:46Z</time>
      </trkpt>
      <trkpt lat="46.19492" lon="2.88771">
        <ele>498</ele>
        <time>2017-10-14T14:54:46Z</time>
      </trkpt>
      <trkpt lat="46.1951" lon="2.8869">
        <ele>504</ele>
        <time>2017-10-14T14:56:46Z</time>
      </trkpt>
      <trkpt lat="46.19511" lon="2.88597">
        <ele>511</ele>
        <time>2017-10-14T14:58:46Z</time>
      </trkpt>
      <trkpt lat="46.19531" lon="2.88555">
        <ele>514</ele>
        <time>2017-10-14T15:00:46Z</time>
      </trkpt>
      <trkpt lat="46.19558" lon="2.88572">
        <ele>514</ele>
        <time>2017-10-14T15:02:46Z</time>
      </trkpt>
      <trkpt lat="46.19604" lon="2.88567">
        <ele>514</ele>
        <time>2017-10-14T15:04:46Z</time>
      </trkpt>
      <trkpt lat="46.1963" lon="2.88545">
        <ele>513</ele>
        <time>2017-10-14T15:06:46Z</time>
      </trkpt>
      <trkpt lat="46.19621" lon="2.88518">
        <ele>514</ele>
        <time>2017-10-14T15:08:46Z</time>
      </trkpt>
      <trkpt lat="46.1956" lon="2.88334">
        <ele>518</ele>
        <time>2017-10-14T15:10:46Z</time>
      </trkpt>
      <trkpt lat="46.19518" lon="2.88161">
        <ele>522</ele>
        <time>2017-10-14T15:12:46Z</time>
      </trkpt>
      <trkpt lat="46.19522" lon="2.88108">
        <ele>523</ele>
        <time>2017-10-14T15:14:46Z</time>
      </trkpt>
      <trkpt lat="46.19543" lon="2.87981">
        <ele>524</ele>
        <time>2017-10-14T15:16:46Z</time>
      </trkpt>
      <trkpt lat="46.19551" lon="2.87892">
        <ele>524</ele>
        <time>2017-10-14T15:18:46Z</time>
      </trkpt>
      <trkpt lat="46.19567" lon="2.87847">
        <ele>525</ele>
        <time>2017-10-14T15:20:46Z</time>
      </trkpt>
      <trkpt lat="46.19594" lon="2.87776">
        <ele>525</ele>
        <time>2017-10-14T15:22:46Z</time>
      </trkpt>
      <trkpt lat="46.19584" lon="2.87654">
        <ele>524</ele>
        <time>2017-10-14T15:24:46Z</time>
      </trkpt>
      <trkpt lat="46.19558" lon="2.87544">
        <ele>525</ele>
        <time>2017-10-14T15:26:46Z</time>
      </trkpt>
      <trkpt lat="46.19525" lon="2.87393">
        <ele>525</ele>
        <time>2017-10-14T15:28:46Z</time>
      </trkpt>
      <trkpt lat="46.19495" lon="2.87249">
        <ele>521</ele>
        <time>2017-10-14T15:30:46Z</time>
      </trkpt>
      <trkpt lat="46.19438" lon="2.86954">
        <ele>523</ele>
        <time>2017-10-14T15:32:46Z</time>
      </trkpt>
      <trkpt lat="46.19401" lon="2.86811">
        <ele>521</ele>
        <time>2017-10-14T15:34:46Z</time>
      </trkpt>
      <trkpt lat="46.19381" lon="2.86667">
        <ele>521</ele>
        <time>2017-10-14T15:36:46Z</time>
      </trkpt>
      <trkpt lat="46.19375" lon="2.86534">
        <ele>522</ele>
        <time>2017-10-14T15:38:46Z</time>
      </trkpt>
      <trkpt lat="46.19354" lon="2.86449">
        <ele>522</ele>
        <time>2017-10-14T15:40:46Z</time>
      </trkpt>
      <trkpt lat="46.19276" lon="2.86285">
        <ele>520</ele>
        <time>2017-10-14T15:42:46Z</time>
      </trkpt>
      <trkpt lat="46.19273" lon="2.86242">
        <ele>519</ele>
        <time>2017-10-14T15:44:46Z</time>
      </trkpt>
      <trkpt lat="46.1926" lon="2.86121">
        <ele>517</ele>
        <time>2017-10-14T15:46:46Z</time>
      </trkpt>
      <trkpt lat="46.19247" lon="2.86036">
        <ele>514</ele>
        <time>2017-10-14T15:48:46Z</time>
      </trkpt>
      <trkpt lat="46.1928" lon="2.85952">
        <ele>513</ele>
        <time>2017-10-14T15:50:46Z</time>
      </trkpt>
      <trkpt lat="46.19296" lon="2.85906">
        <ele>512</ele>
        <time>2017-10-14T15:52:46Z</time>
      </trkpt>
      <trkpt lat="46.1929" lon="2.85833">
        <ele>511</ele>
        <time>2017-10-14T15:54:46Z</time>
      </trkpt>
      <trkpt lat="46.19292" lon="2.85748">
        <ele>508</ele>
        <time>2017-10-14T15:56:46Z</time>
      </trkpt>
      <trkpt lat="46.19292" lon="2.8569">
        <ele>509</ele>
        <time>2017-10-14T15:58:46Z</time>
      </trkpt>
      <trkpt lat="46.19259" lon="2.85602">
        <ele>512</ele>
        <time>2017-10-14T16:00:46Z</time>
      </trkpt>
      <trkpt lat="46.19105" lon="2.85404">
        <ele>509</ele>
        <time>2017-10-14T16:02:46Z</time>
      </trkpt>
      <trkpt lat="46.19171" lon="2.85292">
        <ele>506</ele>
        <time>2017-10-14T16:04:46Z</time>
      </trkpt>
      <trkpt lat="46.19157" lon="2.85139">
        <ele>504</ele>
        <time>2017-10-14T16:06:46Z</time>
      </trkpt>
      <trkpt lat="46.18955" lon="2.84962">
        <ele>493</ele>
        <time>2017-10-14T16:08:46Z</time>
      </trkpt>
      <trkpt lat="46.18959" lon="2.84822">
        <ele>499</ele>
        <time>2017-10-14T16:10:46Z</time>
      </trkpt>
      <trkpt lat="46.18997" lon="2.84745">
        <ele>502</ele>
        <time>2017-10-14T16:12:46Z</time>
      </trkpt>
      <trkpt lat="46.18992" lon="2.84714">
        <ele>504</ele>
        <time>2017-10-14T16:14:46Z</time>
      </trkpt>
      <trkpt lat="46.18927" lon="2.84701">
        <ele>509</ele>
        <time>2017-10-14T16:16:46Z</time>
      </trkpt>
      <trkpt lat="46.18919" lon="2.84675">
        <ele>512</ele>
        <time>2017-10-14T16:18:46Z</time>
      </trkpt>
      <trkpt lat="46.18853" lon="2.84486">
        <ele>540</ele>
        <time>2017-10-14T16:20:46Z</time>
      </trkpt>
      <trkpt lat="46.18804" lon="2.84351">
        <ele>551</ele>
        <time>2017-10-14T16:22:46Z</time>
      </trkpt>
      <trkpt lat="46.18725" lon="2.84177">
        <ele>566</ele>
        <time>2017-10-14T16:24:46Z</time>
      </trkpt>
      <trkpt lat="46.18707" lon="2.84094">
        <ele>572</ele>
        <time>2017-10-14T16:26:46Z</time>
      </trkpt>
      <trkpt lat="46.18713" lon="2.83995">
        <ele>576</ele>
        <time>2017-10-14T16:28:46Z</time>
      </trkpt>
      <trkpt lat="46.18735" lon="2.83907">
        <ele>575</ele>
        <time>2017-10-14T16:30:46Z</time>
      </trkpt>
      <trkpt lat="46.18732" lon="2.83806">
        <ele>569</ele>
        <time>2017-10-14T16:32:46Z</time>
      </trkpt>
      <trkpt lat="46.18717" lon="2.83695">
        <ele>563</ele>
        <time>2017-10-14T16:34:46Z</time>
      </trkpt>
      <trkpt lat="46.187" lon="2.83638">
        <ele>563</ele>
        <time>2017-10-14T16:36:46Z</time>
      </trkpt>
      <trkpt lat="46.18699" lon="2.83559">
        <ele>562</ele>
        <time>2017-10-14T16:38:46Z</time>
      </trkpt>
      <trkpt lat="46.18713" lon="2.83472">
        <ele>563</ele>
        <time>2017-10-14T16:40:46Z</time>
      </trkpt>
      <trkpt lat="46.18733" lon="2.83392">
        <ele>566</ele>
        <time>2017-10-14T16:42:46Z</time>
      </trkpt>
      <trkpt lat="46.1876" lon="2.83331">
        <ele>570</ele>
        <time>2017-10-14T16:44:46Z</time>
      </trkpt>
      <trkpt lat="46.18763" lon="2.8327">
        <ele>570</ele>
        <time>2017-10-14T16:46:46Z</time>
      </trkpt>
      <trkpt lat="46.18757" lon="2.83179">
        <ele>572</ele>
        <time>2017-10-14T16:48:46Z</time>
      </trkpt>
      <trkpt lat="46.18753" lon="2.83074">
        <ele>575</ele>
        <time>2017-10-14T16:50:46Z</time>
      </trkpt>
      <trkpt lat="46.18752" lon="2.83014">
        <ele>577</ele>
        <time>2017-10-14T16:52:46Z</time>
      </trkpt>
      <trkpt lat="46.18779" lon="2.82858">
        <ele>575</ele>
        <time>2017-10-14T16:54:46Z</time>
      </trkpt>
      <trkpt lat="46.18783" lon="2.82763">
        <ele>571</ele>
        <time>2017-10-14T16:56:46Z</time>
      </trkpt>
      <trkpt lat="46.1876" lon="2.82504">
        <ele>566</ele>
        <time>2017-10-14T16:58:46Z</time>
      </trkpt>
      <trkpt lat="46.18721" lon="2.82368">
        <ele>564</ele>
        <time>2017-10-14T17:00:46Z</time>
      </trkpt>
      <trkpt lat="46.18693" lon="2.823">
        <ele>567</ele>
        <time>2017-10-14T17:02:46Z</time>
      </trkpt>
      <trkpt lat="46.1864" lon="2.82239">
        <ele>567</ele>
        <time>2017-10-14T17:04:46Z</time>
      </trkpt>
      <trkpt lat="46.18613" lon="2.82146">
        <ele>563</ele>
        <time>2017-10-14T17:06:46Z</time>
      </trkpt>
      <trkpt lat="46.18585" lon="2.81998">
        <ele>556</ele>
        <time>2017-10-14T17:08:46Z</time>
      </trkpt>
      <trkpt lat="46.18551" lon="2.81903">
        <ele>553</ele>
        <time>2017-10-14T17:10:46Z</time>
      </trkpt>
      <trkpt lat="46.18447" lon="2.81792">
        <ele>546</ele>
        <time>2017-10-14T17:12:46Z</time>
      </trkpt>
      <trkpt lat="46.18391" lon="2.81765">
        <ele>546</ele>
        <time>2017-10-14T17:14:46Z</time>
      </trkpt>
      <trkpt lat="46.18365" lon="2.81755">
        <ele>547</ele>
        <time>2017-10-14T17:16:46Z</time>
      </trkpt>
      <trkpt lat="46.18371" lon="2.81724">
        <ele>547</ele>
        <time>2017-10-14T17:18:46Z</time>
      </trkpt>
      <trkpt lat="46.18393" lon="2.81643">
        <ele>549</ele>
        <time>2017-10-14T17:20:46Z</time>
      </trkpt>
      <trkpt lat="46.18387" lon="2.81572">
        <ele>554</ele>
        <time>2017-10-14T17:22:46Z</time>
      </trkpt>
      <trkpt lat="46.18377" lon="2.81503">
        <ele>558</ele>
        <time>2017-10-14T17:24:46Z</time>
      </trkpt>
      <trkpt lat="46.18374" lon="2.81447">
        <ele>561</ele>
        <time>2017-10-14T17:26:46Z</time>
      </trkpt>
      <trkpt lat="46.18375" lon="2.81416">
        <ele>562</ele>
        <time>2017-10-14T17:28:46Z</time>
      </trkpt>
      <trkpt lat="46.18377" lon="2.81397">
        <ele>564</ele>
        <time>2017-10-14T17:30:46Z</time>
      </trkpt>
      <trkpt lat="46.18385" lon="2.81361">
        <ele>568</ele>
        <time>2017-10-14T17:32:46Z</time>
      </trkpt>
      <trkpt lat="46.1839" lon="2.81345">
        <ele>571</ele>
        <time>2017-10-14T17:34:46Z</time>
      </trkpt>
      <trkpt lat="46.18394" lon="2.81326">
        <ele>573</ele>
        <time>2017-10-14T17:36:46Z</time>
      </trkpt>
      <trkpt lat="46.18395" lon="2.81303">
        <ele>576</ele>
        <time>2017-10-14T17:38:46Z</time>
      </trkpt>
      <trkpt lat="46.18395" lon="2.81264">
        <ele>581</ele>
        <time>2017-10-14T17:40:46Z</time>
      </trkpt>
      <trkpt lat="46.18393" lon="2.81245">
        <ele>583</ele>
        <time>2017-10-14T17:42:46Z</time>
      </trkpt>
      <trkpt lat="46.18389" lon="2.81222">
        <ele>586</ele>
        <time>2017-10-14T17:44:46Z</time>
      </trkpt>
      <trkpt lat="46.18385" lon="2.81205">
        <ele>589</ele>
        <time>2017-10-14T17:46:46Z</time>
      </trkpt>
      <trkpt lat="46.18379" lon="2.81191">
        <ele>591</ele>
        <time>2017-10-14T17:48:46Z</time>
      </trkpt>
      <trkpt lat="46.18366" lon="2.81168">
        <ele>594</ele>
        <time>2017-10-14T17:50:46Z</time>
      </trkpt>
      <trkpt lat="46.18356" lon="2.81154">
        <ele>595</ele>
        <time>2017-10-14T17:52:46Z</time>
      </trkpt>
      <trkpt lat="46.18349" lon="2.81135">
        <ele>597</ele>
        <time>2017-10-14T17:54:46Z</time>
      </trkpt>
      <trkpt lat="46.18322" lon="2.81089">
        <ele>604</ele>
        <time>2017-10-14T17:56:46Z</time>
      </trkpt>
      <trkpt lat="46.18312" lon="2.81074">
        <ele>606</ele>
        <time>2017-10-14T17:58:46Z</time>
      </trkpt>
      <trkpt lat="46.18304" lon="2.8106">
        <ele>609</ele>
        <time>2017-10-14T18:00:46Z</time>
      </trkpt>
      <trkpt lat="46.183" lon="2.81051">
        <ele>611</ele>
        <time>2017-10-14T18:02:46Z</time>
      </trkpt>
      <trkpt lat="46.18287" lon="2.81054">
        <ele>611</ele>
        <time>2017-10-14T18:04:46Z</time>
      </trkpt>
      <trkpt lat="46.18265" lon="2.81047">
        <ele>614</ele>
        <time>2017-10-14T18:06:46Z</time>
      </trkpt>
      <trkpt lat="46.18241" lon="2.81039">
        <ele>617</ele>
        <time>2017-10-14T18:08:46Z</time>
      </trkpt>
      <trkpt lat="46.1822" lon="2.8103">
        <ele>619</ele>
        <time>2017-10-14T18:10:46Z</time>
      </trkpt>
      <trkpt lat="46.18189" lon="2.81024">
        <ele>620</ele>
        <time>2017-10-14T18:12:46Z</time>
      </trkpt>
      <trkpt lat="46.18184" lon="2.80999">
        <ele>625</ele>
        <time>2017-10-14T18:14:46Z</time>
      </trkpt>
      <trkpt lat="46.18175" lon="2.80988">
        <ele>626</ele>
        <time>2017-10-14T18:16:46Z</time>
      </trkpt>
      <trkpt lat="46.18169" lon="2.80973">
        <ele>628</ele>
        <time>2017-10-14T18:18:46Z</time>
      </trkpt>
      <trkpt lat="46.18157" lon="2.80948">
        <ele>630</ele>
        <time>2017-10-14T18:20:46Z</time>
      </trkpt>
      <trkpt lat="46.18144" lon="2.80912">
        <ele>633</ele>
        <time>2017-10-14T18:22:46Z</time>
      </trkpt>
      <trkpt lat="46.18137" lon="2.80871">
        <ele>634</ele>
        <time>2017-10-14T18:24:46Z</time>
      </trkpt>
      <trkpt lat="46.18138" lon="2.80832">
        <ele>636</ele>
        <time>2017-10-14T18:26:46Z</time>
      </trkpt>
      <trkpt lat="46.18141" lon="2.8081">
        <ele>637</ele>
        <time>2017-10-14T18:28:46Z</time>
      </trkpt>
      <trkpt lat="46.18144" lon="2.80782">
        <ele>637</ele>
        <time>2017-10-14T18:30:46Z</time>
      </trkpt>
      <trkpt lat="46.18141" lon="2.80645">
        <ele>628</ele>
        <time>2017-10-14T18:32:46Z</time>
      </trkpt>
      <trkpt lat="46.18195" lon="2.80569">
        <ele>620</ele>
        <time>2017-10-14T18:34:46Z</time>
      </trkpt>
      <trkpt lat="46.1821" lon="2.80567">
        <ele>620</ele>
        <time>2017-10-14T18:36:46Z</time>
      </trkpt>
      <trkpt lat="46.18206" lon="2.80537">
        <ele>616</ele>
        <time>2017-10-14T18:38:46Z</time>
      </trkpt>
      <trkpt lat="46.18205" lon="2.80526">
        <ele>615</ele>
        <time>2017-10-14T18:40:46Z</time>
      </trkpt>
      <trkpt lat="46.1822" lon="2.80503">
        <ele>612</ele>
        <time>2017-10-14T18:42:46Z</time>
      </trkpt>
      <trkpt lat="46.18232" lon="2.80465">
        <ele>607</ele>
        <time>2017-10-14T18:44:46Z</time>
      </trkpt>
      <trkpt lat="46.18239" lon="2.80372">
        <ele>599</ele>
        <time>2017-10-14T18:46:46Z</time>
      </trkpt>
      <trkpt lat="46.18292" lon="2.80259">
        <ele>594</ele>
        <time>2017-10-14T18:48:46Z</time>
      </trkpt>
      <trkpt lat="46.183" lon="2.80182">
        <ele>593</ele>
        <time>2017-10-14T18:50:46Z</time>
      </trkpt>
      <trkpt lat="46.18293" lon="2.80153">
        <ele>593</ele>
        <time>2017-10-14T18:52:46Z</time>
      </trkpt>
      <trkpt lat="46.18292" lon="2.80081">
        <ele>591</ele>
        <time>2017-10-14T18:54:46Z</time>
      </trkpt>
      <trkpt lat="46.18273" lon="2.80071">
        <ele>591</ele>
        <time>2017-10-14T18:56:46Z</time>
      </trkpt>
      <trkpt lat="46.18179" lon="2.8007">
        <ele>589</ele>
        <time>2017-10-14T18:58:46Z</time>
      </trkpt>
      <trkpt lat="46.18144" lon="2.80064">
        <ele>589</ele>
        <time>2017-10-14T19:00:46Z</time>
      </trkpt>
      <trkpt lat="46.18038" lon="2.8001">
        <ele>588</ele>
        <time>2017-10-14T19:02:46Z</time>
      </trkpt>
      <trkpt lat="46.17948" lon="2.79957">
        <ele>587</ele>
        <time>2017-10-14T19:04:46Z</time>
      </trkpt>
      <trkpt lat="46.17916" lon="2.79942">
        <ele>588</ele>
        <time>2017-10-14T19:06:46Z</time>
      </trkpt>
      <trkpt lat="46.17826" lon="2.79932">
        <ele>591</ele>
        <time>2017-10-14T19:08:46Z</time>
      </trkpt>
      <trkpt lat="46.17744" lon="2.79931">
        <ele>598</ele>
        <time>2017-10-14T19:10:46Z</time>
      </trkpt>
      <trkpt lat="46.17704" lon="2.79929">
        <ele>600</ele>
        <time>2017-10-14T19:12:46Z</time>
      </trkpt>
      <trkpt lat="46.17667" lon="2.79921">
        <ele>602</ele>
        <time>2017-10-14T19:14:46Z</time>
      </trkpt>
      <trkpt lat="46.17661" lon="2.79907">
        <ele>603</ele>
        <time>2017-10-14T19:16:46Z</time>
      </trkpt>
      <trkpt lat="46.17661" lon="2.79892">
        <ele>603</ele>
        <time>2017-10-14T19:18:46Z</time>
      </trkpt>
      <trkpt lat="46.17665" lon="2.79868">
        <ele>603</ele>
        <time>2017-10-14T19:20:46Z</time>
      </trkpt>
      <trkpt lat="46.17671" lon="2.79867">
        <ele>602</ele>
        <time>2017-10-14T19:22:46Z</time>
      </trkpt>
      <trkpt lat="46.17672" lon="2.79865">
        <ele>602</ele>
        <time>2017-10-14T19:24:46Z</time>
      </trkpt>
      <trkpt lat="46.17688" lon="2.79857">
        <ele>601</ele>
        <time>2017-10-14T19:26:46Z</time>
      </trkpt>
      <trkpt lat="46.17713" lon="2.79837">
        <ele>600</ele>
        <time>2017-10-14T19:28:46Z</time>
      </trkpt>
      <trkpt lat="46.17718" lon="2.7981">
        <ele>600</ele>
        <time>2017-10-14T19:30:46Z</time>
      </trkpt>
      <trkpt lat="46.1772" lon="2.79779">
        <ele>600</ele>
        <time>2017-10-14T19:32:46Z</time>
      </trkpt>
      <trkpt lat="46.17717" lon="2.79688">
        <ele>602</ele>
        <time>2017-10-14T19:34:46Z</time>
      </trkpt>
      <trkpt lat="46.17715" lon="2.79648">
        <ele>602</ele>
        <time>2017-10-14T19:36:46Z</time>
      </trkpt>
      <trkpt lat="46.17709" lon="2.79612">
        <ele>604</ele>
        <time>2017-10-14T19:38:46Z</time>
      </trkpt>
      <trkpt lat="46.17709" lon="2.79576">
        <ele>604</ele>
        <time>2017-10-14T19:40:46Z</time>
      </trkpt>
      <trkpt lat="46.17704" lon="2.79534">
        <ele>607</ele>
        <time>2017-10-14T19:42:46Z</time>
      </trkpt>
      <trkpt lat="46.177" lon="2.79489">
        <ele>610</ele>
        <time>2017-10-14T19:44:46Z</time>
      </trkpt>
      <trkpt lat="46.17699" lon="2.7944">
        <ele>613</ele>
        <time>2017-10-14T19:46:46Z</time>
      </trkpt>
      <trkpt lat="46.17701" lon="2.79386">
        <ele>614</ele>
        <time>2017-10-14T19:48:46Z</time>
      </trkpt>
      <trkpt lat="46.17698" lon="2.79322">
        <ele>614</ele>
        <time>2017-10-14T19:50:46Z</time>
      </trkpt>
      <trkpt lat="46.17692" lon="2.79266">
        <ele>614</ele>
        <time>2017-10-14T19:52:46Z</time>
      </trkpt>
      <trkpt lat="46.17679" lon="2.7916">
        <ele>614</ele>
        <time>2017-10-14T19:54:46Z</time>
      </trkpt>
      <trkpt lat="46.17673" lon="2.79065">
        <ele>613</ele>
        <time>2017-10-14T19:56:46Z</time>
      </trkpt>
      <trkpt lat="46.17665" lon="2.79002">
        <ele>614</ele>
        <time>2017-10-14T19:58:46Z</time>
      </trkpt>
      <trkpt lat="46.17662" lon="2.78993">
        <ele>614</ele>
        <time>2017-10-14T20:00:46Z</time>
      </trkpt>
      <trkpt lat="46.17665" lon="2.78989">
        <ele>614</ele>
        <time>2017-10-14T20:02:46Z</time>
      </trkpt>
      <trkpt lat="46.17663" lon="2.78989">
        <ele>614</ele>
        <time>2017-10-14T20:04:46Z</time>
      </trkpt>
      <trkpt lat="46.17689" lon="2.78943">
        <ele>613</ele>
        <time>2017-10-14T20:06:46Z</time>
      </trkpt>
      <trkpt lat="46.17726" lon="2.78892">
        <ele>612</ele>
        <time>2017-10-14T20:08:46Z</time>
      </trkpt>
      <trkpt lat="46.17729" lon="2.78888">
        <ele>612</ele>
        <time>2017-10-14T20:10:46Z</time>
      </trkpt>
      <trkpt lat="46.17757" lon="2.78847">
        <ele>611</ele>
        <time>2017-10-14T20:12:46Z</time>
      </trkpt>
      <trkpt lat="46.17761" lon="2.78838">
        <ele>610</ele>
        <time>2017-10-14T20:14:46Z</time>
      </trkpt>
      <trkpt lat="46.17767" lon="2.78827">
        <ele>609</ele>
        <time>2017-10-14T20:16:46Z</time>
      </trkpt>
      <trkpt lat="46.17798" lon="2.78782">
        <ele>603</ele>
        <time>2017-10-14T20:18:46Z</time>
      </trkpt>
      <trkpt lat="46.17803" lon="2.78772">
        <ele>602</ele>
        <time>2017-10-14T20:20:46Z</time>
      </trkpt>
      <trkpt lat="46.17819" lon="2.7875">
        <ele>601</ele>
        <time>2017-10-14T20:22:46Z</time>
      </trkpt>
      <trkpt lat="46.17839" lon="2.7873">
        <ele>596</ele>
        <time>2017-10-14T20:24:46Z</time>
      </trkpt>
      <trkpt lat="46.17858" lon="2.78698">
        <ele>590</ele>
        <time>2017-10-14T20:26:46Z</time>
      </trkpt>
      <trkpt lat="46.17879" lon="2.78653">
        <ele>585</ele>
        <time>2017-10-14T20:28:46Z</time>
      </trkpt>
      <trkpt lat="46.17962" lon="2.78546">
        <ele>580</ele>
        <time>2017-10-14T20:30:46Z</time>
      </trkpt>
      <trkpt lat="46.17978" lon="2.78529">
        <ele>581</ele>
        <time>2017-10-14T20:32:46Z</time>
      </trkpt>
      <trkpt lat="46.17984" lon="2.78524">
        <ele>581</ele>
        <time>2017-10-14T20:34:46Z</time>
      </trkpt>
      <trkpt lat="46.18019" lon="2.78511">
        <ele>584</ele>
        <time>2017-10-14T20:36:46Z</time>
      </trkpt>
      <trkpt lat="46.18019" lon="2.78508">
        <ele>584</ele>
        <time>2017-10-14T20:38:46Z</time>
      </trkpt>
      <trkpt lat="46.18018" lon="2.78499">
        <ele>584</ele>
        <time>2017-10-14T20:40:46Z</time>
      </trkpt>
      <trkpt lat="46.17997" lon="2.78404">
        <ele>580</ele>
        <time>2017-10-14T20:42:46Z</time>
      </trkpt>
      <trkpt lat="46.17985" lon="2.7834">
        <ele>578</ele>
        <time>2017-10-14T20:44:46Z</time>
      </trkpt>
      <trkpt lat="46.17984" lon="2.78281">
        <ele>578</ele>
        <time>2017-10-14T20:46:46Z</time>
      </trkpt>
      <trkpt lat="46.17984" lon="2.78274">
        <ele>578</ele>
        <time>2017-10-14T20:48:46Z</time>
      </trkpt>
      <trkpt lat="46.17958" lon="2.78168">
        <ele>579</ele>
        <time>2017-10-14T20:50:46Z</time>
      </trkpt>
      <trkpt lat="46.1792" lon="2.78073">
        <ele>577</ele>
        <time>2017-10-14T20:52:46Z</time>
      </trkpt>
      <trkpt lat="46.17916" lon="2.78067">
        <ele>577</ele>
        <time>2017-10-14T20:54:46Z</time>
      </trkpt>
      <trkpt lat="46.17906" lon="2.78061">
        <ele>576</ele>
        <time>2017-10-14T20:56:46Z</time>
      </trkpt>
      <trkpt lat="46.17897" lon="2.78068">
        <ele>575</ele>
        <time>2017-10-14T20:58:46Z</time>
      </trkpt>
      <trkpt lat="46.1789" lon="2.78071">
        <ele>574</ele>
        <time>2017-10-14T21:00:46Z</time>
      </trkpt>
      <trkpt lat="46.17885" lon="2.78075">
        <ele>574</ele>
        <time>2017-10-14T21:02:46Z</time>
      </trkpt>
      <trkpt lat="46.17866" lon="2.78083">
        <ele>572</ele>
        <time>2017-10-14T21:04:46Z</time>
      </trkpt>
      <trkpt lat="46.17856" lon="2.78083">
        <ele>571</ele>
        <time>2017-10-14T21:06:46Z</time>
      </trkpt>
      <trkpt lat="46.17824" lon="2.78069">
        <ele>568</ele>
        <time>2017-10-14T21:08:46Z</time>
      </trkpt>
      <trkpt lat="46.17798" lon="2.78074">
        <ele>567</ele>
        <time>2017-10-14T21:10:46Z</time>
      </trkpt>
      <trkpt lat="46.17772" lon="2.78087">
        <ele>567</ele>
        <time>2017-10-14T21:12:46Z</time>
      </trkpt>
      <trkpt lat="46.17753" lon="2.78089">
        <ele>566</ele>
        <time>2017-10-14T21:14:46Z</time>
      </trkpt>
      <trkpt lat="46.17731" lon="2.78071">
        <ele>566</ele>
        <time>2017-10-14T21:16:46Z</time>
      </trkpt>
      <trkpt lat="46.17719" lon="2.78073">
        <ele>567</ele>
        <time>2017-10-14T21:18:46Z</time>
      </trkpt>
      <trkpt lat="46.17701" lon="2.78096">
        <ele>569</ele>
        <time>2017-10-14T21:20:46Z</time>
      </trkpt>
      <trkpt lat="46.17686" lon="2.78126">
        <ele>571</ele>
        <time>2017-10-14T21:22:46Z</time>
      </trkpt>
      <trkpt lat="46.17677" lon="2.78137">
        <ele>572</ele>
        <time>2017-10-14T21:24:46Z</time>
      </trkpt>
      <trkpt lat="46.17646" lon="2.78156">
        <ele>572</ele>
        <time>2017-10-14T21:26:46Z</time>
      </trkpt>
      <trkpt lat="46.17628" lon="2.78168">
        <ele>572</ele>
        <time>2017-10-14T21:28:46Z</time>
      </trkpt>
      <trkpt lat="46.176" lon="2.78184">
        <ele>572</ele>
        <time>2017-10-14T21:30:46Z</time>
      </trkpt>
      <trkpt lat="46.17572" lon="2.78202">
        <ele>573</ele>
        <time>2017-10-14T21:32:46Z</time>
      </trkpt>
      <trkpt lat="46.17535" lon="2.78199">
        <ele>573</ele>
        <time>2017-10-14T21:34:46Z</time>
      </trkpt>
      <trkpt lat="46.17494" lon="2.78209">
        <ele>574</ele>
        <time>2017-10-14T21:36:46Z</time>
      </trkpt>
      <trkpt lat="46.1748" lon="2.78183">
        <ele>572</ele>
        <time>2017-10-14T21:38:46Z</time>
      </trkpt>
      <trkpt lat="46.1747" lon="2.78161">
        <ele>571</ele>
        <time>2017-10-14T21:40:46Z</time>
      </trkpt>
      <trkpt lat="46.17461" lon="2.78151">
        <ele>571</ele>
        <time>2017-10-14T21:42:46Z</time>
      </trkpt>
      <trkpt lat="46.17459" lon="2.78151">
        <ele>571</ele>
        <time>2017-10-14T21:44:46Z</time>
      </trkpt>
      <trkpt lat="46.1742" lon="2.78175">
        <ele>572</ele>
        <time>2017-10-14T21:46:46Z</time>
      </trkpt>
      <trkpt lat="46.17383" lon="2.78195">
        <ele>576</ele>
        <time>2017-10-14T21:48:46Z</time>
      </trkpt>
      <trkpt lat="46.17363" lon="2.78206">
        <ele>578</ele>
        <time>2017-10-14T21:50:46Z</time>
      </trkpt>
      <trkpt lat="46.17346" lon="2.78217">
        <ele>580</ele>
        <time>2017-10-14T21:52:46Z</time>
      </trkpt>
      <trkpt lat="46.17325" lon="2.78241">
        <ele>583</ele>
        <time>2017-10-14T21:54:46Z</time>
      </trkpt>
      <trkpt lat="46.17314" lon="2.78258">
        <ele>584</ele>
        <time>2017-10-14T21:56:46Z</time>
      </trkpt>
      <trkpt lat="46.17297" lon="2.78278">
        <ele>586</ele>
        <time>2017-10-14T21:58:46Z</time>
      </trkpt>
      <trkpt lat="46.17279" lon="2.78294">
        <ele>589</ele>
        <time>2017-10-14T22:00:46Z</time>
      </trkpt>
      <trkpt lat="46.1726" lon="2.78308">
        <ele>591</ele>
        <time>2017-10-14T22:02:46Z</time>
      </trkpt>
      <trkpt lat="46.17245" lon="2.78341">
        <ele>594</ele>
        <time>2017-10-14T22:04:46Z</time>
      </trkpt>
      <trkpt lat="46.1724" lon="2.78372">
        <ele>596</ele>
        <time>2017-10-14T22:06:46Z</time>
      </trkpt>
      <trkpt lat="46.17233" lon="2.78401">
        <ele>597</ele>
        <time>2017-10-14T22:08:46Z</time>
      </trkpt>
      <trkpt lat="46.1722" lon="2.78447">
        <ele>601</ele>
        <time>2017-10-14T22:10:46Z</time>
      </trkpt>
      <trkpt lat="46.17208" lon="2.78478">
        <ele>605</ele>
        <time>2017-10-14T22:12:46Z</time>
      </trkpt>
      <trkpt lat="46.17186" lon="2.78542">
        <ele>611</ele>
        <time>2017-10-14T22:14:46Z</time>
      </trkpt>
      <trkpt lat="46.17167" lon="2.78566">
        <ele>614</ele>
        <time>2017-10-14T22:16:46Z</time>
      </trkpt>
      <trkpt lat="46.17151" lon="2.78592">
        <ele>614</ele>
        <time>2017-10-14T22:18:46Z</time>
      </trkpt>
      <trkpt lat="46.1715" lon="2.78606">
        <ele>614</ele>
        <time>2017-10-14T22:20:46Z</time>
      </trkpt>
      <trkpt lat="46.1715" lon="2.78609">
        <ele>614</ele>
        <time>2017-10-14T22:22:46Z</time>
      </trkpt>
      <trkpt lat="46.17152" lon="2.78613">
        <ele>614</ele>
        <time>2017-10-14T22:24:46Z</time>
      </trkpt>
      <trkpt lat="46.17154" lon="2.78617">
        <ele>614</ele>
        <time>2017-10-14T22:26:46Z</time>
      </trkpt>
      <trkpt lat="46.17159" lon="2.78627">
        <ele>615</ele>
        <time>2017-10-14T22:28:46Z</time>
      </trkpt>
      <trkpt lat="46.17159" lon="2.7863">
        <ele>615</ele>
        <time>2017-10-14T22:30:46Z</time>
      </trkpt>
      <trkpt lat="46.17155" lon="2.78637">
        <ele>615</ele>
        <time>2017-10-14T22:32:46Z</time>
      </trkpt>
      <trkpt lat="46.17154" lon="2.78643">
        <ele>615</ele>
        <time>2017-10-14T22:34:46Z</time>
      </trkpt>
      <trkpt lat="46.17152" lon="2.78649">
        <ele>615</ele>
        <time>2017-10-14T22:36:46Z</time>
      </trkpt>
      <trkpt lat="46.17145" lon="2.78665">
        <ele>615</ele>
        <time>2017-10-14T22:38:46Z</time>
      </trkpt>
      <trkpt lat="46.17126" lon="2.78698">
        <ele>619</ele>
        <time>2017-10-14T22:40:46Z</time>
      </trkpt>
      <trkpt lat="46.17092" lon="2.78745">
        <ele>624</ele>
        <time>2017-10-14T22:42:46Z</time>
      </trkpt>
      <trkpt lat="46.17043" lon="2.78793">
        <ele>632</ele>
        <time>2017-10-14T22:44:46Z</time>
      </trkpt>
      <trkpt lat="46.17016" lon="2.78817">
        <ele>635</ele>
        <time>2017-10-14T22:46:46Z</time>
      </trkpt>
      <trkpt lat="46.16991" lon="2.78836">
        <ele>637</ele>
        <time>2017-10-14T22:48:46Z</time>
      </trkpt>
      <trkpt lat="46.16966" lon="2.78851">
        <ele>637</ele>
        <time>2017-10-14T22:50:46Z</time>
      </trkpt>
      <trkpt lat="46.16946" lon="2.78865">
        <ele>638</ele>
        <time>2017-10-14T22:52:46Z</time>
      </trkpt>
      <trkpt lat="46.16927" lon="2.78879">
        <ele>638</ele>
        <time>2017-10-14T22:54:46Z</time>
      </trkpt>
      <trkpt lat="46.16919" lon="2.78889">
        <ele>639</ele>
        <time>2017-10-14T22:56:46Z</time>
      </trkpt>
      <trkpt lat="46.16899" lon="2.7891">
        <ele>639</ele>
        <time>2017-10-14T22:58:46Z</time>
      </trkpt>
      <trkpt lat="46.16871" lon="2.78948">
        <ele>640</ele>
        <time>2017-10-14T23:00:46Z</time>
      </trkpt>
      <trkpt lat="46.16848" lon="2.79005">
        <ele>644</ele>
        <time>2017-10-14T23:02:46Z</time>
      </trkpt>
      <trkpt lat="46.16835" lon="2.79046">
        <ele>645</ele>
        <time>2017-10-14T23:04:46Z</time>
      </trkpt>
      <trkpt lat="46.16827" lon="2.79085">
        <ele>648</ele>
        <time>2017-10-14T23:06:46Z</time>
      </trkpt>
      <trkpt lat="46.1682" lon="2.79127">
        <ele>651</ele>
        <time>2017-10-14T23:08:46Z</time>
      </trkpt>
      <trkpt lat="46.16817" lon="2.79185">
        <ele>656</ele>
        <time>2017-10-14T23:10:46Z</time>
      </trkpt>
      <trkpt lat="46.1681" lon="2.79232">
        <ele>657</ele>
        <time>2017-10-14T23:12:46Z</time>
      </trkpt>
      <trkpt lat="46.16796" lon="2.79266">
        <ele>657</ele>
        <time>2017-10-14T23:14:46Z</time>
      </trkpt>
      <trkpt lat="46.16781" lon="2.79302">
        <ele>657</ele>
        <time>2017-10-14T23:16:46Z</time>
      </trkpt>
      <trkpt lat="46.16769" lon="2.79331">
        <ele>657</ele>
        <time>2017-10-14T23:18:46Z</time>
      </trkpt>
      <trkpt lat="46.16756" lon="2.79364">
        <ele>658</ele>
        <time>2017-10-14T23:20:46Z</time>
      </trkpt>
      <trkpt lat="46.16741" lon="2.79401">
        <ele>660</ele>
        <time>2017-10-14T23:22:46Z</time>
      </trkpt>
      <trkpt lat="46.16731" lon="2.79431">
        <ele>662</ele>
        <time>2017-10-14T23:24:46Z</time>
      </trkpt>
      <trkpt lat="46.1673" lon="2.79432">
        <ele>662</ele>
        <time>2017-10-14T23:26:46Z</time>
      </trkpt>
      <trkpt lat="46.16714" lon="2.79451">
        <ele>664</ele>
        <time>2017-10-14T23:28:46Z</time>
      </trkpt>
      <trkpt lat="46.16688" lon="2.79471">
        <ele>665</ele>
        <time>2017-10-14T23:30:46Z</time>
      </trkpt>
      <trkpt lat="46.1666" lon="2.79478">
        <ele>666</ele>
        <time>2017-10-14T23:32:46Z</time>
      </trkpt>
      <trkpt lat="46.16636" lon="2.79478">
        <ele>667</ele>
        <time>2017-10-14T23:34:46Z</time>
      </trkpt>
      <trkpt lat="46.16618" lon="2.79485">
        <ele>669</ele>
        <time>2017-10-14T23:36:46Z</time>
      </trkpt>
      <trkpt lat="46.16603" lon="2.79495">
        <ele>670</ele>
        <time>2017-10-14T23:38:46Z</time>
      </trkpt>
      <trkpt lat="46.16587" lon="2.7951">
        <ele>672</ele>
        <time>2017-10-14T23:40:46Z</time>
      </trkpt>
      <trkpt lat="46.16569" lon="2.79526">
        <ele>674</ele>
        <time>2017-10-14T23:42:46Z</time>
      </trkpt>
      <trkpt lat="46.16553" lon="2.79541">
        <ele>676</ele>
        <time>2017-10-14T23:44:46Z</time>
      </trkpt>
      <trkpt lat="46.1654" lon="2.79556">
        <ele>678</ele>
        <time>2017-10-14T23:46:46Z</time>
      </trkpt>
      <trkpt lat="46.16522" lon="2.79572">
        <ele>679</ele>
        <time>2017-10-14T23:48:46Z</time>
      </trkpt>
      <trkpt lat="46.16495" lon="2.79606">
        <ele>681</ele>
        <time>2017-10-14T23:50:46Z</time>
      </trkpt>
      <trkpt lat="46.1648" lon="2.79635">
        <ele>683</ele>
        <time>2017-10-14T23:52:46Z</time>
      </trkpt>
      <trkpt lat="46.16468" lon="2.79663">
        <ele>683</ele>
        <time>2017-10-14T23:54:46Z</time>
      </trkpt>
      <trkpt lat="46.16454" lon="2.79694">
        <ele>684</ele>
        <time>2017-10-14T23:56:46Z</time>
      </trkpt>
      <trkpt lat="46.16441" lon="2.79728">
        <ele>684</ele>
        <time>2017-10-14T23:58:46Z</time>
      </trkpt>
      <trkpt lat="46.16423" lon="2.79768">
        <ele>684</ele>
        <time>2017-10-15T00:00:46Z</time>
      </trkpt>
      <trkpt lat="46.16402" lon="2.79811">
        <ele>684</ele>
        <time>2017-10-15T00:02:46Z</time>
      </trkpt>
      <trkpt lat="46.16388" lon="2.79846">
        <ele>683</ele>
        <time>2017-10-15T00:04:46Z</time>
      </trkpt>
      <trkpt lat="46.1634" lon="2.79792">
        <ele>683</ele>
        <time>2017-10-15T00:06:46Z</time>
      </trkpt>
      <trkpt lat="46.16239" lon="2.79692">
        <ele>686</ele>
        <time>2017-10-15T00:08:46Z</time>
      </trkpt>
      <trkpt lat="46.16219" lon="2.79678">
        <ele>685</ele>
        <time>2017-10-15T00:10:46Z</time>
      </trkpt>
      <trkpt lat="46.162" lon="2.7967">
        <ele>683</ele>
        <time>2017-10-15T00:12:46Z</time>
      </trkpt>
      <trkpt lat="46.16127" lon="2.79673">
        <ele>679</ele>
        <time>2017-10-15T00:14:46Z</time>
      </trkpt>
      <trkpt lat="46.16057" lon="2.79666">
        <ele>676</ele>
        <time>2017-10-15T00:16:46Z</time>
      </trkpt>
      <trkpt lat="46.16015" lon="2.79657">
        <ele>675</ele>
        <time>2017-10-15T00:18:46Z</time>
      </trkpt>
      <trkpt lat="46.15984" lon="2.79649">
        <ele>675</ele>
        <time>2017-10-15T00:20:46Z</time>
      </trkpt>
      <trkpt lat="46.15966" lon="2.79645">
        <ele>676</ele>
        <time>2017-10-15T00:22:46Z</time>
      </trkpt>
      <trkpt lat="46.15902" lon="2.7963">
        <ele>678</ele>
        <time>2017-10-15T00:24:46Z</time>
      </trkpt>
      <trkpt lat="46.15863" lon="2.79612">
        <ele>683</ele>
        <time>2017-10-15T00:26:46Z</time>
      </trkpt>
      <trkpt lat="46.15836" lon="2.79598">
        <ele>686</ele>
        <time>2017-10-15T00:28:46Z</time>
      </trkpt>
      <trkpt lat="46.15818" lon="2.79581">
        <ele>687</ele>
        <time>2017-10-15T00:30:46Z</time>
      </trkpt>
      <trkpt lat="46.15801" lon="2.79568">
        <ele>689</ele>
        <time>2017-10-15T00:32:46Z</time>
      </trkpt>
      <trkpt lat="46.15788" lon="2.79551">
        <ele>692</ele>
        <time>2017-10-15T00:34:46Z</time>
      </trkpt>
      <trkpt lat="46.15773" lon="2.79524">
        <ele>697</ele>
        <time>2017-10-15T00:36:46Z</time>
      </trkpt>
      <trkpt lat="46.15757" lon="2.79505">
        <ele>701</ele>
        <time>2017-10-15T00:38:46Z</time>
      </trkpt>
      <trkpt lat="46.15741" lon="2.79483">
        <ele>704</ele>
        <time>2017-10-15T00:40:46Z</time>
      </trkpt>
      <trkpt lat="46.15723" lon="2.79463">
        <ele>703</ele>
        <time>2017-10-15T00:42:46Z</time>
      </trkpt>
      <trkpt lat="46.1571" lon="2.79444">
        <ele>704</ele>
        <time>2017-10-15T00:44:46Z</time>
      </trkpt>
      <trkpt lat="46.15699" lon="2.79425">
        <ele>706</ele>
        <time>2017-10-15T00:46:46Z</time>
      </trkpt>
      <trkpt lat="46.15679" lon="2.794">
        <ele>708</ele>
        <time>2017-10-15T00:48:46Z</time>
      </trkpt>
      <trkpt lat="46.15648" lon="2.79372">
        <ele>711</ele>
        <time>2017-10-15T00:50:46Z</time>
      </trkpt>
      <trkpt lat="46.15616" lon="2.79356">
        <ele>712</ele>
        <time>2017-10-15T00:52:46Z</time>
      </trkpt>
      <trkpt lat="46.15601" lon="2.79358">
        <ele>711</ele>
        <time>2017-10-15T00:54:46Z</time>
      </trkpt>
      <trkpt lat="46.15556" lon="2.79369">
        <ele>709</ele>
        <time>2017-10-15T00:56:46Z</time>
      </trkpt>
      <trkpt lat="46.15519" lon="2.79384">
        <ele>710</ele>
        <time>2017-10-15T00:58:46Z</time>
      </trkpt>
      <trkpt lat="46.15464" lon="2.79405">
        <ele>711</ele>
        <time>2017-10-15T01:00:46Z</time>
      </trkpt>
      <trkpt lat="46.15444" lon="2.79409">
        <ele>711</ele>
        <time>2017-10-15T01:02:46Z</time>
      </trkpt>
      <trkpt lat="46.15433" lon="2.79414">
        <ele>712</ele>
        <time>2017-10-15T01:04:46Z</time>
      </trkpt>
      <trkpt lat="46.15408" lon="2.79415">
        <ele>712</ele>
        <time>2017-10-15T01:06:46Z</time>
      </trkpt>
      <trkpt lat="46.15371" lon="2.79408">
        <ele>711</ele>
        <time>2017-10-15T01:08:46Z</time>
      </trkpt>
      <trkpt lat="46.15352" lon="2.79406">
        <ele>711</ele>
        <time>2017-10-15T01:10:46Z</time>
      </trkpt>
      <trkpt lat="46.1534" lon="2.79406">
        <ele>710</ele>
        <time>2017-10-15T01:12:46Z</time>
      </trkpt>
      <trkpt lat="46.15282" lon="2.79428">
        <ele>705</ele>
        <time>2017-10-15T01:14:46Z</time>
      </trkpt>
      <trkpt lat="46.15243" lon="2.79434">
        <ele>700</ele>
        <time>2017-10-15T01:16:46Z</time>
      </trkpt>
      <trkpt lat="46.15232" lon="2.79432">
        <ele>698</ele>
        <time>2017-10-15T01:18:46Z</time>
      </trkpt>
      <trkpt lat="46.15223" lon="2.79418">
        <ele>698</ele>
        <time>2017-10-15T01:20:46Z</time>
      </trkpt>
      <trkpt lat="46.15203" lon="2.7939">
        <ele>696</ele>
        <time>2017-10-15T01:22:46Z</time>
      </trkpt>
      <trkpt lat="46.15188" lon="2.79352">
        <ele>696</ele>
        <time>2017-10-15T01:24:46Z</time>
      </trkpt>
      <trkpt lat="46.15203" lon="2.79317">
        <ele>701</ele>
        <time>2017-10-15T01:26:46Z</time>
      </trkpt>
      <trkpt lat="46.15211" lon="2.79301">
        <ele>702</ele>
        <time>2017-10-15T01:28:46Z</time>
      </trkpt>
      <trkpt lat="46.15224" lon="2.7927">
        <ele>703</ele>
        <time>2017-10-15T01:30:46Z</time>
      </trkpt>
      <trkpt lat="46.1522" lon="2.79251">
        <ele>702</ele>
        <time>2017-10-15T01:32:46Z</time>
      </trkpt>
      <trkpt lat="46.15222" lon="2.79247">
        <ele>703</ele>
        <time>2017-10-15T01:34:46Z</time>
      </trkpt>
      <trkpt lat="46.15223" lon="2.79244">
        <ele>703</ele>
        <time>2017-10-15T01:36:46Z</time>
      </trkpt>
      <trkpt lat="46.15218" lon="2.79232">
        <ele>702</ele>
        <time>2017-10-15T01:38:46Z</time>
      </trkpt>
      <trkpt lat="46.1521" lon="2.7918">
        <ele>700</ele>
        <time>2017-10-15T01:40:46Z</time>
      </trkpt>
      <trkpt lat="46.15216" lon="2.79129">
        <ele>698</ele>
        <time>2017-10-15T01:42:46Z</time>
      </trkpt>
      <trkpt lat="46.15216" lon="2.7908">
        <ele>696</ele>
        <time>2017-10-15T01:44:46Z</time>
      </trkpt>
      <trkpt lat="46.15184" lon="2.78994">
        <ele>693</ele>
        <time>2017-10-15T01:46:46Z</time>
      </trkpt>
      <trkpt lat="46.15161" lon="2.78948">
        <ele>690</ele>
        <time>2017-10-15T01:48:46Z</time>
      </trkpt>
      <trkpt lat="46.15138" lon="2.78915">
        <ele>687</ele>
        <time>2017-10-15T01:50:46Z</time>
      </trkpt>
      <trkpt lat="46.15128" lon="2.78898">
        <ele>685</ele>
        <time>2017-10-15T01:52:46Z</time>
      </trkpt>
      <trkpt lat="46.15114" lon="2.78831">
        <ele>679</ele>
        <time>2017-10-15T01:54:46Z</time>
      </trkpt>
      <trkpt lat="46.15099" lon="2.78729">
        <ele>669</ele>
        <time>2017-10-15T01:56:46Z</time>
      </trkpt>
      <trkpt lat="46.15107" lon="2.78659">
        <ele>662</ele>
        <time>2017-10-15T01:58:46Z</time>
      </trkpt>
      <trkpt lat="46.15137" lon="2.78592">
        <ele>657</ele>
        <time>2017-10-15T02:00:46Z</time>
      </trkpt>
      <trkpt lat="46.15144" lon="2.78562">
        <ele>655</ele>
        <time>2017-10-15T02:02:46Z</time>
      </trkpt>
      <trkpt lat="46.15196" lon="2.78427">
        <ele>647</ele>
        <time>2017-10-15T02:04:46Z</time>
      </trkpt>
      <trkpt lat="46.15241" lon="2.78281">
        <ele>635</ele>
        <time>2017-10-15T02:06:46Z</time>
      </trkpt>
      <trkpt lat="46.15249" lon="2.78261">
        <ele>632</ele>
        <time>2017-10-15T02:08:46Z</time>
      </trkpt>
      <trkpt lat="46.15314" lon="2.78163">
        <ele>629</ele>
        <time>2017-10-15T02:10:46Z</time>
      </trkpt>
      <trkpt lat="46.15343" lon="2.78125">
        <ele>624</ele>
        <time>2017-10-15T02:12:46Z</time>
      </trkpt>
      <trkpt lat="46.15391" lon="2.781">
        <ele>621</ele>
        <time>2017-10-15T02:14:46Z</time>
      </trkpt>
      <trkpt lat="46.15401" lon="2.7806">
        <ele>619</ele>
        <time>2017-10-15T02:16:46Z</time>
      </trkpt>
      <trkpt lat="46.15407" lon="2.77919">
        <ele>614</ele>
        <time>2017-10-15T02:18:46Z</time>
      </trkpt>
      <trkpt lat="46.15412" lon="2.77874">
        <ele>611</ele>
        <time>2017-10-15T02:20:46Z</time>
      </trkpt>
      <trkpt lat="46.15454" lon="2.77774">
        <ele>607</ele>
        <time>2017-10-15T02:22:46Z</time>
      </trkpt>
      <trkpt lat="46.15499" lon="2.777">
        <ele>604</ele>
        <time>2017-10-15T02:24:46Z</time>
      </trkpt>
      <trkpt lat="46.15503" lon="2.7769">
        <ele>604</ele>
        <time>2017-10-15T02:26:46Z</time>
      </trkpt>
      <trkpt lat="46.15519" lon="2.77666">
        <ele>603</ele>
        <time>2017-10-15T02:28:46Z</time>
      </trkpt>
      <trkpt lat="46.15521" lon="2.77659">
        <ele>603</ele>
        <time>2017-10-15T02:30:46Z</time>
      </trkpt>
      <trkpt lat="46.15524" lon="2.77656">
        <ele>603</ele>
        <time>2017-10-15T02:32:46Z</time>
      </trkpt>
      <trkpt lat="46.15544" lon="2.77624">
        <ele>601</ele>
        <time>2017-10-15T02:34:46Z</time>
      </trkpt>
      <trkpt lat="46.15552" lon="2.77592">
        <ele>599</ele>
        <time>2017-10-15T02:36:46Z</time>
      </trkpt>
      <trkpt lat="46.15551" lon="2.77522">
        <ele>596</ele>
        <time>2017-10-15T02:38:46Z</time>
      </trkpt>
      <trkpt lat="46.15553" lon="2.77474">
        <ele>595</ele>
        <time>2017-10-15T02:40:46Z</time>
      </trkpt>
      <trkpt lat="46.15559" lon="2.77445">
        <ele>595</ele>
        <time>2017-10-15T02:42:46Z</time>
      </trkpt>
      <trkpt lat="46.15571" lon="2.77407">
        <ele>594</ele>
        <time>2017-10-15T02:44:46Z</time>
      </trkpt>
      <trkpt lat="46.15595" lon="2.77369">
        <ele>590</ele>
        <time>2017-10-15T02:46:46Z</time>
      </trkpt>
      <trkpt lat="46.15623" lon="2.77337">
        <ele>588</ele>
        <time>2017-10-15T02:48:46Z</time>
      </trkpt>
      <trkpt lat="46.15634" lon="2.77325">
        <ele>588</ele>
        <time>2017-10-15T02:50:46Z</time>
      </trkpt>
      <trkpt lat="46.1566" lon="2.77307">
        <ele>589</ele>
        <time>2017-10-15T02:52:46Z</time>
      </trkpt>
      <trkpt lat="46.15686" lon="2.77287">
        <ele>590</ele>
        <time>2017-10-15T02:54:46Z</time>
      </trkpt>
      <trkpt lat="46.15701" lon="2.77273">
        <ele>592</ele>
        <time>2017-10-15T02:56:46Z</time>
      </trkpt>
      <trkpt lat="46.15718" lon="2.7725">
        <ele>593</ele>
        <time>2017-10-15T02:58:46Z</time>
      </trkpt>
      <trkpt lat="46.15755" lon="2.77195">
        <ele>596</ele>
        <time>2017-10-15T03:00:46Z</time>
      </trkpt>
      <trkpt lat="46.15756" lon="2.77191">
        <ele>596</ele>
        <time>2017-10-15T03:02:46Z</time>
      </trkpt>
      <trkpt lat="46.15756" lon="2.77185">
        <ele>596</ele>
        <time>2017-10-15T03:04:46Z</time>
      </trkpt>
      <trkpt lat="46.15752" lon="2.77181">
        <ele>596</ele>
        <time>2017-10-15T03:06:46Z</time>
      </trkpt>
      <trkpt lat="46.15745" lon="2.77187">
        <ele>596</ele>
        <time>2017-10-15T03:08:46Z</time>
      </trkpt>
      <trkpt lat="46.1574" lon="2.77189">
        <ele>595</ele>
        <time>2017-10-15T03:10:46Z</time>
      </trkpt>
      <trkpt lat="46.15735" lon="2.77185">
        <ele>595</ele>
        <time>2017-10-15T03:12:46Z</time>
      </trkpt>
      <trkpt lat="46.15717" lon="2.77151">
        <ele>593</ele>
        <time>2017-10-15T03:14:46Z</time>
      </trkpt>
      <trkpt lat="46.15704" lon="2.77129">
        <ele>592</ele>
        <time>2017-10-15T03:16:46Z</time>
      </trkpt>
      <trkpt lat="46.15692" lon="2.77114">
        <ele>591</ele>
        <time>2017-10-15T03:18:46Z</time>
      </trkpt>
      <trkpt lat="46.15674" lon="2.77101">
        <ele>590</ele>
        <time>2017-10-15T03:20:46Z</time>
      </trkpt>
      <trkpt lat="46.15621" lon="2.77054">
        <ele>585</ele>
        <time>2017-10-15T03:22:46Z</time>
      </trkpt>
      <trkpt lat="46.15604" lon="2.77037">
        <ele>584</ele>
        <time>2017-10-15T03:24:46Z</time>
      </trkpt>
      <trkpt lat="46.15596" lon="2.77024">
        <ele>584</ele>
        <time>2017-10-15T03:26:46Z</time>
      </trkpt>
      <trkpt lat="46.15594" lon="2.77019">
        <ele>584</ele>
        <time>2017-10-15T03:28:46Z</time>
      </trkpt>
      <trkpt lat="46.15587" lon="2.76998">
        <ele>583</ele>
        <time>2017-10-15T03:30:46Z</time>
      </trkpt>
      <trkpt lat="46.15585" lon="2.76984">
        <ele>583</ele>
        <time>2017-10-15T03:32:46Z</time>
      </trkpt>
      <trkpt lat="46.15573" lon="2.76936">
        <ele>582</ele>
        <time>2017-10-15T03:34:46Z</time>
      </trkpt>
      <trkpt lat="46.15569" lon="2.76905">
        <ele>582</ele>
        <time>2017-10-15T03:36:46Z</time>
      </trkpt>
      <trkpt lat="46.15566" lon="2.76864">
        <ele>580</ele>
        <time>2017-10-15T03:38:46Z</time>
      </trkpt>
      <trkpt lat="46.15561" lon="2.76803">
        <ele>579</ele>
        <time>2017-10-15T03:40:46Z</time>
      </trkpt>
      <trkpt lat="46.15557" lon="2.76767">
        <ele>578</ele>
        <time>2017-10-15T03:42:46Z</time>
      </trkpt>
      <trkpt lat="46.15538" lon="2.76759">
        <ele>577</ele>
        <time>2017-10-15T03:44:46Z</time>
      </trkpt>
      <trkpt lat="46.15491" lon="2.76772">
        <ele>575</ele>
        <time>2017-10-15T03:46:46Z</time>
      </trkpt>
      <trkpt lat="46.15426" lon="2.7676">
        <ele>576</ele>
        <time>2017-10-15T03:48:46Z</time>
      </trkpt>
      <trkpt lat="46.15399" lon="2.76754">
        <ele>578</ele>
        <time>2017-10-15T03:50:46Z</time>
      </trkpt>
      <trkpt lat="46.15381" lon="2.76749">
        <ele>580</ele>
        <time>2017-10-15T03:52:46Z</time>
      </trkpt>
      <trkpt lat="46.15355" lon="2.76738">
        <ele>581</ele>
        <time>2017-10-15T03:54:46Z</time>
      </trkpt>
      <trkpt lat="46.15328" lon="2.76732">
        <ele>583</ele>
        <time>2017-10-15T03:56:46Z</time>
      </trkpt>
      <trkpt lat="46.15297" lon="2.76728">
        <ele>583</ele>
        <time>2017-10-15T03:58:46Z</time>
      </trkpt>
      <trkpt lat="46.15222" lon="2.76735">
        <ele>585</ele>
        <time>2017-10-15T04:00:46Z</time>
      </trkpt>
      <trkpt lat="46.15189" lon="2.76749">
        <ele>587</ele>
        <time>2017-10-15T04:02:46Z</time>
      </trkpt>
      <trkpt lat="46.15159" lon="2.76769">
        <ele>589</ele>
        <time>2017-10-15T04:04:46Z</time>
      </trkpt>
      <trkpt lat="46.15125" lon="2.76805">
        <ele>590</ele>
        <time>2017-10-15T04:06:46Z</time>
      </trkpt>
      <trkpt lat="46.15093" lon="2.76848">
        <ele>590</ele>
        <time>2017-10-15T04:08:46Z</time>
      </trkpt>
      <trkpt lat="46.15064" lon="2.76898">
        <ele>593</ele>
        <time>2017-10-15T04:10:46Z</time>
      </trkpt>
      <trkpt lat="46.15037" lon="2.76953">
        <ele>595</ele>
        <time>2017-10-15T04:12:46Z</time>
      </trkpt>
      <trkpt lat="46.15022" lon="2.76998">
        <ele>596</ele>
        <time>2017-10-15T04:14:46Z</time>
      </trkpt>
      <trkpt lat="46.15015" lon="2.77034">
        <ele>599</ele>
        <time>2017-10-15T04:16:46Z</time>
      </trkpt>
      <trkpt lat="46.15002" lon="2.77068">
        <ele>600</ele>
        <time>2017-10-15T04:18:46Z</time>
      </trkpt>
      <trkpt lat="46.14987" lon="2.77093">
        <ele>603</ele>
        <time>2017-10-15T04:20:46Z</time>
      </trkpt>
      <trkpt lat="46.14962" lon="2.77108">
        <ele>605</ele>
        <time>2017-10-15T04:22:46Z</time>
      </trkpt>
      <trkpt lat="46.14939" lon="2.77124">
        <ele>607</ele>
        <time>2017-10-15T04:24:46Z</time>
      </trkpt>
      <trkpt lat="46.14911" lon="2.77141">
        <ele>608</ele>
        <time>2017-10-15T04:26:46Z</time>
      </trkpt>
      <trkpt lat="46.14901" lon="2.77153">
        <ele>610</ele>
        <time>2017-10-15T04:28:46Z</time>
      </trkpt>
      <trkpt lat="46.14902" lon="2.77155">
        <ele>610</ele>
        <time>2017-10-15T04:30:46Z</time>
      </trkpt>
      <trkpt lat="46.1491" lon="2.77153">
        <ele>610</ele>
        <time>2017-10-15T04:32:46Z</time>
      </trkpt>
      <trkpt lat="46.1492" lon="2.77155">
        <ele>610</ele>
        <time>2017-10-15T04:34:46Z</time>
      </trkpt>
      <trkpt lat="46.14936" lon="2.77154">
        <ele>610</ele>
        <time>2017-10-15T04:36:46Z</time>
      </trkpt>
      <trkpt lat="46.14953" lon="2.77157">
        <ele>612</ele>
        <time>2017-10-15T04:38:46Z</time>
      </trkpt>
      <trkpt lat="46.14967" lon="2.77167">
        <ele>614</ele>
        <time>2017-10-15T04:40:46Z</time>
      </trkpt>
      <trkpt lat="46.14992" lon="2.77172">
        <ele>617</ele>
        <time>2017-10-15T04:42:46Z</time>
      </trkpt>
      <trkpt lat="46.15014" lon="2.77175">
        <ele>619</ele>
        <time>2017-10-15T04:44:46Z</time>
      </trkpt>
      <trkpt lat="46.15022" lon="2.77175">
        <ele>619</ele>
        <time>2017-10-15T04:46:46Z</time>
      </trkpt>
      <trkpt lat="46.15035" lon="2.77179">
        <ele>621</ele>
        <time>2017-10-15T04:48:46Z</time>
      </trkpt>
      <trkpt lat="46.15053" lon="2.77184">
        <ele>623</ele>
        <time>2017-10-15T04:50:46Z</time>
      </trkpt>
      <trkpt lat="46.15077" lon="2.77205">
        <ele>628</ele>
        <time>2017-10-15T04:52:46Z</time>
      </trkpt>
      <trkpt lat="46.15094" lon="2.77221">
        <ele>631</ele>
        <time>2017-10-15T04:54:46Z</time>
      </trkpt>
      <trkpt lat="46.15118" lon="2.77248">
        <ele>633</ele>
        <time>2017-10-15T04:56:46Z</time>
      </trkpt>
      <trkpt lat="46.15137" lon="2.77271">
        <ele>634</ele>
        <time>2017-10-15T04:58:46Z</time>
      </trkpt>
      <trkpt lat="46.15148" lon="2.77299">
        <ele>634</ele>
        <time>2017-10-15T05:00:46Z</time>
      </trkpt>
      <trkpt lat="46.15152" lon="2.77324">
        <ele>635</ele>
        <time>2017-10-15T05:02:46Z</time>
      </trkpt>
      <trkpt lat="46.15143" lon="2.77359">
        <ele>639</ele>
        <time>2017-10-15T05:04:46Z</time>
      </trkpt>
      <trkpt lat="46.15134" lon="2.77367">
        <ele>641</ele>
        <time>2017-10-15T05:06:46Z</time>
      </trkpt>
      <trkpt lat="46.15128" lon="2.77376">
        <ele>643</ele>
        <time>2017-10-15T05:08:46Z</time>
      </trkpt>
      <trkpt lat="46.15121" lon="2.77381">
        <ele>645</ele>
        <time>2017-10-15T05:10:46Z</time>
      </trkpt>
      <trkpt lat="46.15104" lon="2.77386">
        <ele>648</ele>
        <time>2017-10-15T05:12:46Z</time>
      </trkpt>
      <trkpt lat="46.15096" lon="2.77387">
        <ele>650</ele>
        <time>2017-10-15T05:14:46Z</time>
      </trkpt>
      <trkpt lat="46.15067" lon="2.77402">
        <ele>653</ele>
        <time>2017-10-15T05:16:46Z</time>
      </trkpt>
      <trkpt lat="46.15043" lon="2.77418">
        <ele>654</ele>
        <time>2017-10-15T05:18:46Z</time>
      </trkpt>
      <trkpt lat="46.15027" lon="2.77438">
        <ele>656</ele>
        <time>2017-10-15T05:20:46Z</time>
      </trkpt>
      <trkpt lat="46.15002" lon="2.77456">
        <ele>658</ele>
        <time>2017-10-15T05:22:46Z</time>
      </trkpt>
      <trkpt lat="46.1498" lon="2.77484">
        <ele>658</ele>
        <time>2017-10-15T05:24:46Z</time>
      </trkpt>
      <trkpt lat="46.14943" lon="2.77558">
        <ele>658</ele>
        <time>2017-10-15T05:26:46Z</time>
      </trkpt>
      <trkpt lat="46.14911" lon="2.77591">
        <ele>657</ele>
        <time>2017-10-15T05:28:46Z</time>
      </trkpt>
      <trkpt lat="46.14851" lon="2.77619">
        <ele>657</ele>
        <time>2017-10-15T05:30:46Z</time>
      </trkpt>
      <trkpt lat="46.14793" lon="2.77649">
        <ele>656</ele>
        <time>2017-10-15T05:32:46Z</time>
      </trkpt>
      <trkpt lat="46.14756" lon="2.77681">
        <ele>657</ele>
        <time>2017-10-15T05:34:46Z</time>
      </trkpt>
      <trkpt lat="46.1475" lon="2.77682">
        <ele>657</ele>
        <time>2017-10-15T05:36:46Z</time>
      </trkpt>
      <trkpt lat="46.14738" lon="2.77692">
        <ele>657</ele>
        <time>2017-10-15T05:38:46Z</time>
      </trkpt>
      <trkpt lat="46.14732" lon="2.77701">
        <ele>658</ele>
        <time>2017-10-15T05:40:46Z</time>
      </trkpt>
      <trkpt lat="46.14725" lon="2.77709">
        <ele>659</ele>
        <time>2017-10-15T05:42:46Z</time>
      </trkpt>
      <trkpt lat="46.14706" lon="2.77738">
        <ele>661</ele>
        <time>2017-10-15T05:44:46Z</time>
      </trkpt>
      <trkpt lat="46.14691" lon="2.77752">
        <ele>662</ele>
        <time>2017-10-15T05:46:46Z</time>
      </trkpt>
      <trkpt lat="46.1467" lon="2.77783">
        <ele>664</ele>
        <time>2017-10-15T05:48:46Z</time>
      </trkpt>
      <trkpt lat="46.14668" lon="2.77791">
        <ele>665</ele>
        <time>2017-10-15T05:50:46Z</time>
      </trkpt>
      <trkpt lat="46.14653" lon="2.77815">
        <ele>666</ele>
        <time>2017-10-15T05:52:46Z</time>
      </trkpt>
      <trkpt lat="46.14652" lon="2.7782">
        <ele>667</ele>
        <time>2017-10-15T05:54:46Z</time>
      </trkpt>
      <trkpt lat="46.14641" lon="2.7786">
        <ele>671</ele>
        <time>2017-10-15T05:56:46Z</time>
      </trkpt>
      <trkpt lat="46.14633" lon="2.77902">
        <ele>675</ele>
        <time>2017-10-15T05:58:46Z</time>
      </trkpt>
      <trkpt lat="46.14622" lon="2.77912">
        <ele>676</ele>
        <time>2017-10-15T06:00:46Z</time>
      </trkpt>
      <trkpt lat="46.14559" lon="2.77925">
        <ele>675</ele>
        <time>2017-10-15T06:02:46Z</time>
      </trkpt>
      <trkpt lat="46.14543" lon="2.77926">
        <ele>676</ele>
        <time>2017-10-15T06:04:46Z</time>
      </trkpt>
      <trkpt lat="46.14536" lon="2.77931">
        <ele>677</ele>
        <time>2017-10-15T06:06:46Z</time>
      </trkpt>
      <trkpt lat="46.14511" lon="2.77939">
        <ele>679</ele>
        <time>2017-10-15T06:08:46Z</time>
      </trkpt>
      <trkpt lat="46.14473" lon="2.77946">
        <ele>680</ele>
        <time>2017-10-15T06:10:46Z</time>
      </trkpt>
      <trkpt lat="46.14454" lon="2.77952">
        <ele>681</ele>
        <time>2017-10-15T06:12:46Z</time>
      </trkpt>
      <trkpt lat="46.14451" lon="2.77951">
        <ele>681</ele>
        <time>2017-10-15T06:14:46Z</time>
      </trkpt>
      <trkpt lat="46.14422" lon="2.77957">
        <ele>682</ele>
        <time>2017-10-15T06:16:46Z</time>
      </trkpt>
      <trkpt lat="46.14382" lon="2.77966">
        <ele>685</ele>
        <time>2017-10-15T06:18:46Z</time>
      </trkpt>
      <trkpt lat="46.14359" lon="2.77971">
        <ele>688</ele>
        <time>2017-10-15T06:20:46Z</time>
      </trkpt>
      <trkpt lat="46.14323" lon="2.77983">
        <ele>691</ele>
        <time>2017-10-15T06:22:46Z</time>
      </trkpt>
      <trkpt lat="46.14308" lon="2.77984">
        <ele>692</ele>
        <time>2017-10-15T06:24:46Z</time>
      </trkpt>
      <trkpt lat="46.143" lon="2.77989">
        <ele>693</ele>
        <time>2017-10-15T06:26:46Z</time>
      </trkpt>
      <trkpt lat="46.1427" lon="2.77996">
        <ele>695</ele>
        <time>2017-10-15T06:28:46Z</time>
      </trkpt>
      <trkpt lat="46.14207" lon="2.78021">
        <ele>701</ele>
        <time>2017-10-15T06:30:46Z</time>
      </trkpt>
      <trkpt lat="46.14169" lon="2.78051">
        <ele>706</ele>
        <time>2017-10-15T06:32:46Z</time>
      </trkpt>
      <trkpt lat="46.14135" lon="2.78076">
        <ele>710</ele>
        <time>2017-10-15T06:34:46Z</time>
      </trkpt>
      <trkpt lat="46.14104" lon="2.78102">
        <ele>711</ele>
        <time>2017-10-15T06:36:46Z</time>
      </trkpt>
      <trkpt lat="46.14037" lon="2.78149">
        <ele>704</ele>
        <time>2017-10-15T06:38:46Z</time>
      </trkpt>
      <trkpt lat="46.14004" lon="2.7816">
        <ele>699</ele>
        <time>2017-10-15T06:40:46Z</time>
      </trkpt>
      <trkpt lat="46.13977" lon="2.78151">
        <ele>697</ele>
        <time>2017-10-15T06:42:46Z</time>
      </trkpt>
      <trkpt lat="46.13968" lon="2.78136">
        <ele>698</ele>
        <time>2017-10-15T06:44:46Z</time>
      </trkpt>
      <trkpt lat="46.13958" lon="2.78101">
        <ele>700</ele>
        <time>2017-10-15T06:46:46Z</time>
      </trkpt>
      <trkpt lat="46.13934" lon="2.78026">
        <ele>703</ele>
        <time>2017-10-15T06:48:46Z</time>
      </trkpt>
      <trkpt lat="46.13926" lon="2.77986">
        <ele>706</ele>
        <time>2017-10-15T06:50:46Z</time>
      </trkpt>
      <trkpt lat="46.13922" lon="2.77939">
        <ele>710</ele>
        <time>2017-10-15T06:52:46Z</time>
      </trkpt>
      <trkpt lat="46.13925" lon="2.77921">
        <ele>712</ele>
        <time>2017-10-15T06:54:46Z</time>
      </trkpt>
      <trkpt lat="46.13926" lon="2.779">
        <ele>714</ele>
        <time>2017-10-15T06:56:46Z</time>
      </trkpt>
      <trkpt lat="46.13905" lon="2.7786">
        <ele>718</ele>
        <time>2017-10-15T06:58:46Z</time>
      </trkpt>
      <trkpt lat="46.13897" lon="2.77838">
        <ele>719</ele>
        <time>2017-10-15T07:00:46Z</time>
      </trkpt>
      <trkpt lat="46.13889" lon="2.77824">
        <ele>721</ele>
        <time>2017-10-15T07:02:46Z</time>
      </trkpt>
      <trkpt lat="46.13884" lon="2.77806">
        <ele>723</ele>
        <time>2017-10-15T07:04:46Z</time>
      </trkpt>
      <trkpt lat="46.13868" lon="2.77775">
        <ele>727</ele>
        <time>2017-10-15T07:06:46Z</time>
      </trkpt>
      <trkpt lat="46.1386" lon="2.77764">
        <ele>728</ele>
        <time>2017-10-15T07:08:46Z</time>
      </trkpt>
      <trkpt lat="46.13855" lon="2.77752">
        <ele>729</ele>
        <time>2017-10-15T07:10:46Z</time>
      </trkpt>
      <trkpt lat="46.13846" lon="2.77729">
        <ele>732</ele>
        <time>2017-10-15T07:12:46Z</time>
      </trkpt>
      <trkpt lat="46.13828" lon="2.77697">
        <ele>734</ele>
        <time>2017-10-15T07:14:46Z</time>
      </trkpt>
      <trkpt lat="46.13816" lon="2.77671">
        <ele>735</ele>
        <time>2017-10-15T07:16:46Z</time>
      </trkpt>
      <trkpt lat="46.13806" lon="2.77656">
        <ele>735</ele>
        <time>2017-10-15T07:18:46Z</time>
      </trkpt>
      <trkpt lat="46.13798" lon="2.77641">
        <ele>735</ele>
        <time>2017-10-15T07:20:46Z</time>
      </trkpt>
      <trkpt lat="46.1379" lon="2.7762">
        <ele>735</ele>
        <time>2017-10-15T07:22:46Z</time>
      </trkpt>
      <trkpt lat="46.13786" lon="2.77601">
        <ele>736</ele>
        <time>2017-10-15T07:24:46Z</time>
      </trkpt>
      <trkpt lat="46.13758" lon="2.77583">
        <ele>733</ele>
        <time>2017-10-15T07:26:46Z</time>
      </trkpt>
      <trkpt lat="46.13757" lon="2.77563">
        <ele>734</ele>
        <time>2017-10-15T07:28:46Z</time>
      </trkpt>
      <trkpt lat="46.13759" lon="2.77559">
        <ele>734</ele>
        <time>2017-10-15T07:30:46Z</time>
      </trkpt>
      <trkpt lat="46.13758" lon="2.77517">
        <ele>736</ele>
        <time>2017-10-15T07:32:46Z</time>
      </trkpt>
      <trkpt lat="46.13752" lon="2.77472">
        <ele>736</ele>
        <time>2017-10-15T07:34:46Z</time>
      </trkpt>
      <trkpt lat="46.13726" lon="2.77411">
        <ele>734</ele>
        <time>2017-10-15T07:36:46Z</time>
      </trkpt>
      <trkpt lat="46.13693" lon="2.7736">
        <ele>733</ele>
        <time>2017-10-15T07:38:46Z</time>
      </trkpt>
      <trkpt lat="46.13665" lon="2.77314">
        <ele>734</ele>
        <time>2017-10-15T07:40:46Z</time>
      </trkpt>
      <trkpt lat="46.1364" lon="2.77278">
        <ele>735</ele>
        <time>2017-10-15T07:42:46Z</time>
      </trkpt>
      <trkpt lat="46.13617" lon="2.77238">
        <ele>737</ele>
        <time>2017-10-15T07:44:46Z</time>
      </trkpt>
      <trkpt lat="46.13563" lon="2.77157">
        <ele>741</ele>
        <time>2017-10-15T07:46:46Z</time>
      </trkpt>
      <trkpt lat="46.13526" lon="2.77094">
        <ele>742</ele>
        <time>2017-10-15T07:48:46Z</time>
      </trkpt>
      <trkpt lat="46.13499" lon="2.77049">
        <ele>742</ele>
        <time>2017-10-15T07:50:46Z</time>
      </trkpt>
      <trkpt lat="46.13495" lon="2.7703">
        <ele>741</ele>
        <time>2017-10-15T07:52:46Z</time>
      </trkpt>
      <trkpt lat="46.13479" lon="2.7699">
        <ele>739</ele>
        <time>2017-10-15T07:54:46Z</time>
      </trkpt>
      <trkpt lat="46.13447" lon="2.7693">
        <ele>737</ele>
        <time>2017-10-15T07:56:46Z</time>
      </trkpt>
      <trkpt lat="46.13418" lon="2.76867">
        <ele>736</ele>
        <time>2017-10-15T07:58:46Z</time>
      </trkpt>
      <trkpt lat="46.13406" lon="2.76833">
        <ele>734</ele>
        <time>2017-10-15T08:00:46Z</time>
      </trkpt>
      <trkpt lat="46.1337" lon="2.76741">
        <ele>729</ele>
        <time>2017-10-15T08:02:46Z</time>
      </trkpt>
      <trkpt lat="46.13358" lon="2.76673">
        <ele>726</ele>
        <time>2017-10-15T08:04:46Z</time>
      </trkpt>
      <trkpt lat="46.13357" lon="2.76644">
        <ele>724</ele>
        <time>2017-10-15T08:06:46Z</time>
      </trkpt>
      <trkpt lat="46.13335" lon="2.7657">
        <ele>726</ele>
        <time>2017-10-15T08:08:46Z</time>
      </trkpt>
      <trkpt lat="46.13322" lon="2.76535">
        <ele>724</ele>
        <time>2017-10-15T08:10:46Z</time>
      </trkpt>
      <trkpt lat="46.13306" lon="2.76495">
        <ele>723</ele>
        <time>2017-10-15T08:12:46Z</time>
      </trkpt>
      <trkpt lat="46.13265" lon="2.76381">
        <ele>717</ele>
        <time>2017-10-15T08:14:46Z</time>
      </trkpt>
      <trkpt lat="46.13209" lon="2.76205">
        <ele>707</ele>
        <time>2017-10-15T08:16:46Z</time>
      </trkpt>
      <trkpt lat="46.13203" lon="2.76155">
        <ele>703</ele>
        <time>2017-10-15T08:18:46Z</time>
      </trkpt>
      <trkpt lat="46.13197" lon="2.76031">
        <ele>692</ele>
        <time>2017-10-15T08:20:46Z</time>
      </trkpt>
      <trkpt lat="46.13217" lon="2.75906">
        <ele>689</ele>
        <time>2017-10-15T08:22:46Z</time>
      </trkpt>
      <trkpt lat="46.13214" lon="2.75776">
        <ele>684</ele>
        <time>2017-10-15T08:24:46Z</time>
      </trkpt>
      <trkpt lat="46.13184" lon="2.75534">
        <ele>677</ele>
        <time>2017-10-15T08:26:46Z</time>
      </trkpt>
      <trkpt lat="46.13173" lon="2.7541">
        <ele>674</ele>
        <time>2017-10-15T08:28:46Z</time>
      </trkpt>
      <trkpt lat="46.13172" lon="2.75375">
        <ele>673</ele>
        <time>2017-10-15T08:30:46Z</time>
      </trkpt>
      <trkpt lat="46.1319" lon="2.75193">
        <ele>664</ele>
        <time>2017-10-15T08:32:46Z</time>
      </trkpt>
      <trkpt lat="46.13202" lon="2.751">
        <ele>660</ele>
        <time>2017-10-15T08:34:46Z</time>
      </trkpt>
      <trkpt lat="46.13206" lon="2.74881">
        <ele>656</ele>
        <time>2017-10-15T08:36:46Z</time>
      </trkpt>
      <trkpt lat="46.13204" lon="2.74776">
        <ele>654</ele>
        <time>2017-10-15T08:38:46Z</time>
      </trkpt>
      <trkpt lat="46.13188" lon="2.74649">
        <ele>660</ele>
        <time>2017-10-15T08:40:46Z</time>
      </trkpt>
      <trkpt lat="46.13175" lon="2.74574">
        <ele>658</ele>
        <time>2017-10-15T08:42:46Z</time>
      </trkpt>
      <trkpt lat="46.13161" lon="2.74504">
        <ele>652</ele>
        <time>2017-10-15T08:44:46Z</time>
      </trkpt>
      <trkpt lat="46.13148" lon="2.74446">
        <ele>647</ele>
        <time>2017-10-15T08:46:46Z</time>
      </trkpt>
      <trkpt lat="46.13143" lon="2.74419">
        <ele>645</ele>
        <time>2017-10-15T08:48:46Z</time>
      </trkpt>
      <trkpt lat="46.13147" lon="2.74358">
        <ele>644</ele>
        <time>2017-10-15T08:50:46Z</time>
      </trkpt>
      <trkpt lat="46.13146" lon="2.74326">
        <ele>644</ele>
        <time>2017-10-15T08:52:46Z</time>
      </trkpt>
      <trkpt lat="46.13137" lon="2.74285">
        <ele>644</ele>
        <time>2017-10-15T08:54:46Z</time>
      </trkpt>
      <trkpt lat="46.13124" lon="2.7421">
        <ele>644</ele>
        <time>2017-10-15T08:56:46Z</time>
      </trkpt>
      <trkpt lat="46.13111" lon="2.74111">
        <ele>642</ele>
        <time>2017-10-15T08:58:46Z</time>
      </trkpt>
      <trkpt lat="46.13116" lon="2.74066">
        <ele>642</ele>
        <time>2017-10-15T09:00:46Z</time>
      </trkpt>
      <trkpt lat="46.13135" lon="2.73997">
        <ele>643</ele>
        <time>2017-10-15T09:02:46Z</time>
      </trkpt>
      <trkpt lat="46.13145" lon="2.73922">
        <ele>642</ele>
        <time>2017-10-15T09:04:46Z</time>
      </trkpt>
      <trkpt lat="46.13183" lon="2.738">
        <ele>645</ele>
        <time>2017-10-15T09:06:46Z</time>
      </trkpt>
      <trkpt lat="46.13203" lon="2.73724">
        <ele>646</ele>
        <time>2017-10-15T09:08:46Z</time>
      </trkpt>
      <trkpt lat="46.13219" lon="2.73651">
        <ele>648</ele>
        <time>2017-10-15T09:10:46Z</time>
      </trkpt>
      <trkpt lat="46.13238" lon="2.73509">
        <ele>648</ele>
        <time>2017-10-15T09:12:46Z</time>
      </trkpt>
      <trkpt lat="46.13242" lon="2.73457">
        <ele>645</ele>
        <time>2017-10-15T09:14:46Z</time>
      </trkpt>
      <trkpt lat="46.13222" lon="2.73338">
        <ele>642</ele>
        <time>2017-10-15T09:16:46Z</time>
      </trkpt>
      <trkpt lat="46.13199" lon="2.73285">
        <ele>643</ele>
        <time>2017-10-15T09:18:46Z</time>
      </trkpt>
      <trkpt lat="46.1318" lon="2.73243">
        <ele>645</ele>
        <time>2017-10-15T09:20:46Z</time>
      </trkpt>
      <trkpt lat="46.13136" lon="2.73145">
        <ele>650</ele>
        <time>2017-10-15T09:22:46Z</time>
      </trkpt>
      <trkpt lat="46.13111" lon="2.73068">
        <ele>654</ele>
        <time>2017-10-15T09:24:46Z</time>
      </trkpt>
      <trkpt lat="46.13079" lon="2.72963">
        <ele>655</ele>
        <time>2017-10-15T09:26:46Z</time>
      </trkpt>
      <trkpt lat="46.13069" lon="2.72911">
        <ele>654</ele>
        <time>2017-10-15T09:28:46Z</time>
      </trkpt>
      <trkpt lat="46.1306" lon="2.72838">
        <ele>653</ele>
        <time>2017-10-15T09:30:46Z</time>
      </trkpt>
      <trkpt lat="46.13054" lon="2.72772">
        <ele>653</ele>
        <time>2017-10-15T09:32:46Z</time>
      </trkpt>
      <trkpt lat="46.13054" lon="2.72682">
        <ele>652</ele>
        <time>2017-10-15T09:34:46Z</time>
      </trkpt>
      <trkpt lat="46.13061" lon="2.72576">
        <ele>647</ele>
        <time>2017-10-15T09:36:46Z</time>
      </trkpt>
      <trkpt lat="46.1307" lon="2.72505">
        <ele>643</ele>
        <time>2017-10-15T09:38:46Z</time>
      </trkpt>
      <trkpt lat="46.13106" lon="2.72364">
        <ele>637</ele>
        <time>2017-10-15T09:40:46Z</time>
      </trkpt>
      <trkpt lat="46.13111" lon="2.7233">
        <ele>636</ele>
        <time>2017-10-15T09:42:46Z</time>
      </trkpt>
      <trkpt lat="46.13092" lon="2.72228">
        <ele>630</ele>
        <time>2017-10-15T09:44:46Z</time>
      </trkpt>
      <trkpt lat="46.13069" lon="2.72139">
        <ele>627</ele>
        <time>2017-10-15T09:46:46Z</time>
      </trkpt>
      <trkpt lat="46.1304" lon="2.72073">
        <ele>626</ele>
        <time>2017-10-15T09:48:46Z</time>
      </trkpt>
      <trkpt lat="46.12958" lon="2.71912">
        <ele>625</ele>
        <time>2017-10-15T09:50:46Z</time>
      </trkpt>
      <trkpt lat="46.12935" lon="2.71864">
        <ele>626</ele>
        <time>2017-10-15T09:52:46Z</time>
      </trkpt>
      <trkpt lat="46.12911" lon="2.71809">
        <ele>626</ele>
        <time>2017-10-15T09:54:46Z</time>
      </trkpt>
      <trkpt lat="46.1289" lon="2.71751">
        <ele>627</ele>
        <time>2017-10-15T09:56:46Z</time>
      </trkpt>
      <trkpt lat="46.12851" lon="2.71657">
        <ele>628</ele>
        <time>2017-10-15T09:58:46Z</time>
      </trkpt>
      <trkpt lat="46.12841" lon="2.71624">
        <ele>628</ele>
        <time>2017-10-15T10:00:46Z</time>
      </trkpt>
      <trkpt lat="46.12834" lon="2.71593">
        <ele>628</ele>
        <time>2017-10-15T10:02:46Z</time>
      </trkpt>
      <trkpt lat="46.1283" lon="2.71581">
        <ele>628</ele>
        <time>2017-10-15T10:04:46Z</time>
      </trkpt>
      <trkpt lat="46.12815" lon="2.71513">
        <ele>622</ele>
        <time>2017-10-15T10:06:46Z</time>
      </trkpt>
      <trkpt lat="46.1279" lon="2.71418">
        <ele>616</ele>
        <time>2017-10-15T10:08:46Z</time>
      </trkpt>
      <trkpt lat="46.12774" lon="2.7136">
        <ele>616</ele>
        <time>2017-10-15T10:10:46Z</time>
      </trkpt>
      <trkpt lat="46.12763" lon="2.71288">
        <ele>616</ele>
        <time>2017-10-15T10:12:46Z</time>
      </trkpt>
      <trkpt lat="46.12756" lon="2.71219">
        <ele>616</ele>
        <time>2017-10-15T10:14:46Z</time>
      </trkpt>
      <trkpt lat="46.1274" lon="2.7113">
        <ele>616</ele>
        <time>2017-10-15T10:16:46Z</time>
      </trkpt>
      <trkpt lat="46.12723" lon="2.71077">
        <ele>617</ele>
        <time>2017-10-15T10:18:46Z</time>
      </trkpt>
      <trkpt lat="46.12717" lon="2.7102">
        <ele>618</ele>
        <time>2017-10-15T10:20:46Z</time>
      </trkpt>
      <trkpt lat="46.12724" lon="2.70903">
        <ele>617</ele>
        <time>2017-10-15T10:22:46Z</time>
      </trkpt>
      <trkpt lat="46.1273" lon="2.70831">
        <ele>617</ele>
        <time>2017-10-15T10:24:46Z</time>
      </trkpt>
      <trkpt lat="46.12736" lon="2.70719">
        <ele>616</ele>
        <time>2017-10-15T10:26:46Z</time>
      </trkpt>
      <trkpt lat="46.12746" lon="2.70582">
        <ele>615</ele>
        <time>2017-10-15T10:28:46Z</time>
      </trkpt>
      <trkpt lat="46.12752" lon="2.7047">
        <ele>615</ele>
        <time>2017-10-15T10:30:46Z</time>
      </trkpt>
      <trkpt lat="46.12754" lon="2.70365">
        <ele>616</ele>
        <time>2017-10-15T10:32:46Z</time>
      </trkpt>
      <trkpt lat="46.12755" lon="2.70189">
        <ele>613</ele>
        <time>2017-10-15T10:34:46Z</time>
      </trkpt>
      <trkpt lat="46.1276" lon="2.70107">
        <ele>609</ele>
        <time>2017-10-15T10:36:46Z</time>
      </trkpt>
      <trkpt lat="46.12762" lon="2.70066">
        <ele>606</ele>
        <time>2017-10-15T10:38:46Z</time>
      </trkpt>
      <trkpt lat="46.12751" lon="2.70061">
        <ele>606</ele>
        <time>2017-10-15T10:40:46Z</time>
      </trkpt>
      <trkpt lat="46.12698" lon="2.7009">
        <ele>605</ele>
        <time>2017-10-15T10:42:46Z</time>
      </trkpt>
      <trkpt lat="46.12627" lon="2.70121">
        <ele>601</ele>
        <time>2017-10-15T10:44:46Z</time>
      </trkpt>
      <trkpt lat="46.12604" lon="2.70087">
        <ele>596</ele>
        <time>2017-10-15T10:46:46Z</time>
      </trkpt>
      <trkpt lat="46.12553" lon="2.70032">
        <ele>590</ele>
        <time>2017-10-15T10:48:46Z</time>
      </trkpt>
      <trkpt lat="46.12543" lon="2.7">
        <ele>589</ele>
        <time>2017-10-15T10:50:46Z</time>
      </trkpt>
      <trkpt lat="46.12519" lon="2.69942">
        <ele>584</ele>
        <time>2017-10-15T10:52:46Z</time>
      </trkpt>
      <trkpt lat="46.12509" lon="2.69874">
        <ele>577</ele>
        <time>2017-10-15T10:54:46Z</time>
      </trkpt>
      <trkpt lat="46.12514" lon="2.69837">
        <ele>574</ele>
        <time>2017-10-15T10:56:46Z</time>
      </trkpt>
      <trkpt lat="46.12514" lon="2.69793">
        <ele>571</ele>
        <time>2017-10-15T10:58:46Z</time>
      </trkpt>
      <trkpt lat="46.12489" lon="2.69728">
        <ele>565</ele>
        <time>2017-10-15T11:00:46Z</time>
      </trkpt>
      <trkpt lat="46.12467" lon="2.69716">
        <ele>562</ele>
        <time>2017-10-15T11:02:46Z</time>
      </trkpt>
      <trkpt lat="46.12442" lon="2.69711">
        <ele>560</ele>
        <time>2017-10-15T11:04:46Z</time>
      </trkpt>
      <trkpt lat="46.12401" lon="2.69664">
        <ele>557</ele>
        <time>2017-10-15T11:06:46Z</time>
      </trkpt>
      <trkpt lat="46.12379" lon="2.69658">
        <ele>557</ele>
        <time>2017-10-15T11:08:46Z</time>
      </trkpt>
      <trkpt lat="46.12369" lon="2.6966">
        <ele>557</ele>
        <time>2017-10-15T11:10:46Z</time>
      </trkpt>
      <trkpt lat="46.12314" lon="2.69639">
        <ele>557</ele>
        <time>2017-10-15T11:12:46Z</time>
      </trkpt>
      <trkpt lat="46.12277" lon="2.69613">
        <ele>556</ele>
        <time>2017-10-15T11:14:46Z</time>
      </trkpt>
      <trkpt lat="46.12243" lon="2.69544">
        <ele>560</ele>
        <time>2017-10-15T11:16:46Z</time>
      </trkpt>
      <trkpt lat="46.12225" lon="2.69538">
        <ele>561</ele>
        <time>2017-10-15T11:18:46Z</time>
      </trkpt>
      <trkpt lat="46.122" lon="2.69533">
        <ele>561</ele>
        <time>2017-10-15T11:20:46Z</time>
      </trkpt>
      <trkpt lat="46.12174" lon="2.69525">
        <ele>563</ele>
        <time>2017-10-15T11:22:46Z</time>
      </trkpt>
      <trkpt lat="46.12146" lon="2.69512">
        <ele>563</ele>
        <time>2017-10-15T11:24:46Z</time>
      </trkpt>
      <trkpt lat="46.1211" lon="2.69493">
        <ele>563</ele>
        <time>2017-10-15T11:26:46Z</time>
      </trkpt>
      <trkpt lat="46.12079" lon="2.69445">
        <ele>563</ele>
        <time>2017-10-15T11:28:46Z</time>
      </trkpt>
      <trkpt lat="46.12061" lon="2.69414">
        <ele>563</ele>
        <time>2017-10-15T11:30:46Z</time>
      </trkpt>
      <trkpt lat="46.12045" lon="2.69397">
        <ele>563</ele>
        <time>2017-10-15T11:32:46Z</time>
      </trkpt>
      <trkpt lat="46.12033" lon="2.69392">
        <ele>564</ele>
        <time>2017-10-15T11:34:46Z</time>
      </trkpt>
      <trkpt lat="46.12017" lon="2.69392">
        <ele>564</ele>
        <time>2017-10-15T11:36:46Z</time>
      </trkpt>
      <trkpt lat="46.11977" lon="2.69389">
        <ele>565</ele>
        <time>2017-10-15T11:38:46Z</time>
      </trkpt>
      <trkpt lat="46.11945" lon="2.69369">
        <ele>568</ele>
        <time>2017-10-15T11:40:46Z</time>
      </trkpt>
      <trkpt lat="46.11895" lon="2.69352">
        <ele>569</ele>
        <time>2017-10-15T11:42:46Z</time>
      </trkpt>
      <trkpt lat="46.11876" lon="2.69359">
        <ele>568</ele>
        <time>2017-10-15T11:44:46Z</time>
      </trkpt>
      <trkpt lat="46.11796" lon="2.69415">
        <ele>565</ele>
        <time>2017-10-15T11:46:46Z</time>
      </trkpt>
      <trkpt lat="46.11714" lon="2.69484">
        <ele>563</ele>
        <time>2017-10-15T11:48:46Z</time>
      </trkpt>
      <trkpt lat="46.11604" lon="2.69525">
        <ele>556</ele>
        <time>2017-10-15T11:50:46Z</time>
      </trkpt>
      <trkpt lat="46.11567" lon="2.69528">
        <ele>554</ele>
        <time>2017-10-15T11:52:46Z</time>
      </trkpt>
      <trkpt lat="46.11469" lon="2.6951">
        <ele>548</ele>
        <time>2017-10-15T11:54:46Z</time>
      </trkpt>
      <trkpt lat="46.11425" lon="2.69526">
        <ele>547</ele>
        <time>2017-10-15T11:56:46Z</time>
      </trkpt>
      <trkpt lat="46.114" lon="2.69562">
        <ele>546</ele>
        <time>2017-10-15T11:58:46Z</time>
      </trkpt>
      <trkpt lat="46.11377" lon="2.6958">
        <ele>546</ele>
        <time>2017-10-15T12:00:46Z</time>
      </trkpt>
      <trkpt lat="46.11358" lon="2.69571">
        <ele>546</ele>
        <time>2017-10-15T12:02:46Z</time>
      </trkpt>
      <trkpt lat="46.11354" lon="2.69562">
        <ele>545</ele>
        <time>2017-10-15T12:04:46Z</time>
      </trkpt>
      <trkpt lat="46.11322" lon="2.69537">
        <ele>545</ele>
        <time>2017-10-15T12:06:46Z</time>
      </trkpt>
      <trkpt lat="46.11265" lon="2.69516">
        <ele>544</ele>
        <time>2017-10-15T12:08:46Z</time>
      </trkpt>
      <trkpt lat="46.11206" lon="2.69489">
        <ele>545</ele>
        <time>2017-10-15T12:10:46Z</time>
      </trkpt>
      <trkpt lat="46.11153" lon="2.69467">
        <ele>545</ele>
        <time>2017-10-15T12:12:46Z</time>
      </trkpt>
      <trkpt lat="46.11131" lon="2.69461">
        <ele>544</ele>
        <time>2017-10-15T12:14:46Z</time>
      </trkpt>
      <trkpt lat="46.11122" lon="2.6946">
        <ele>544</ele>
        <time>2017-10-15T12:16:46Z</time>
      </trkpt>
      <trkpt lat="46.11029" lon="2.69454">
        <ele>538</ele>
        <time>2017-10-15T12:18:46Z</time>
      </trkpt>
      <trkpt lat="46.10947" lon="2.69452">
        <ele>533</ele>
        <time>2017-10-15T12:20:46Z</time>
      </trkpt>
      <trkpt lat="46.10936" lon="2.69455">
        <ele>532</ele>
        <time>2017-10-15T12:22:46Z</time>
      </trkpt>
      <trkpt lat="46.10931" lon="2.69312">
        <ele>531</ele>
        <time>2017-10-15T12:24:46Z</time>
      </trkpt>
      <trkpt lat="46.10972" lon="2.69292">
        <ele>532</ele>
        <time>2017-10-15T12:26:46Z</time>
      </trkpt>
      <trkpt lat="46.10981" lon="2.69277">
        <ele>532</ele>
        <time>2017-10-15T12:28:46Z</time>
      </trkpt>
      <trkpt lat="46.10976" lon="2.69149">
        <ele>532</ele>
        <time>2017-10-15T12:30:46Z</time>
      </trkpt>
      <trkpt lat="46.10967" lon="2.6903">
        <ele>532</ele>
        <time>2017-10-15T12:32:46Z</time>
      </trkpt>
      <trkpt lat="46.10959" lon="2.68964">
        <ele>533</ele>
        <time>2017-10-15T12:34:46Z</time>
      </trkpt>
      <trkpt lat="46.10936" lon="2.68806">
        <ele>535</ele>
        <time>2017-10-15T12:36:46Z</time>
      </trkpt>
      <trkpt lat="46.10938" lon="2.68747">
        <ele>536</ele>
        <time>2017-10-15T12:38:46Z</time>
      </trkpt>
      <trkpt lat="46.10961" lon="2.68661">
        <ele>538</ele>
        <time>2017-10-15T12:40:46Z</time>
      </trkpt>
      <trkpt lat="46.10962" lon="2.68651">
        <ele>537</ele>
        <time>2017-10-15T12:42:46Z</time>
      </trkpt>
      <trkpt lat="46.10963" lon="2.68652">
        <ele>537</ele>
        <time>2017-10-15T12:44:46Z</time>
      </trkpt>
      <trkpt lat="46.10963" lon="2.68643">
        <ele>537</ele>
        <time>2017-10-15T12:46:46Z</time>
      </trkpt>
      <trkpt lat="46.10922" lon="2.68461">
        <ele>525</ele>
        <time>2017-10-15T12:48:46Z</time>
      </trkpt>
      <trkpt lat="46.10885" lon="2.68267">
        <ele>521</ele>
        <time>2017-10-15T12:50:46Z</time>
      </trkpt>
      <trkpt lat="46.10881" lon="2.68149">
        <ele>522</ele>
        <time>2017-10-15T12:52:46Z</time>
      </trkpt>
      <trkpt lat="46.10896" lon="2.6801">
        <ele>525</ele>
        <time>2017-10-15T12:54:46Z</time>
      </trkpt>
      <trkpt lat="46.10921" lon="2.67932">
        <ele>520</ele>
        <time>2017-10-15T12:56:46Z</time>
      </trkpt>
      <trkpt lat="46.10948" lon="2.67935">
        <ele>523</ele>
        <time>2017-10-15T12:58:46Z</time>
      </trkpt>
      <trkpt lat="46.10967" lon="2.67932">
        <ele>524</ele>
        <time>2017-10-15T13:00:46Z</time>
      </trkpt>
      <trkpt lat="46.10993" lon="2.6793">
        <ele>525</ele>
        <time>2017-10-15T13:02:46Z</time>
      </trkpt>
      <trkpt lat="46.11014" lon="2.67924">
        <ele>527</ele>
        <time>2017-10-15T13:04:46Z</time>
      </trkpt>
      <trkpt lat="46.11036" lon="2.67917">
        <ele>528</ele>
        <time>2017-10-15T13:06:46Z</time>
      </trkpt>
      <trkpt lat="46.11068" lon="2.67912">
        <ele>531</ele>
        <time>2017-10-15T13:08:46Z</time>
      </trkpt>
      <trkpt lat="46.11094" lon="2.67908">
        <ele>533</ele>
        <time>2017-10-15T13:10:46Z</time>
      </trkpt>
      <trkpt lat="46.11118" lon="2.67901">
        <ele>535</ele>
        <time>2017-10-15T13:12:46Z</time>
      </trkpt>
      <trkpt lat="46.11148" lon="2.67898">
        <ele>537</ele>
        <time>2017-10-15T13:14:46Z</time>
      </trkpt>
      <trkpt lat="46.11175" lon="2.679">
        <ele>538</ele>
        <time>2017-10-15T13:16:46Z</time>
      </trkpt>
      <trkpt lat="46.11219" lon="2.67899">
        <ele>538</ele>
        <time>2017-10-15T13:18:46Z</time>
      </trkpt>
      <trkpt lat="46.11264" lon="2.67892">
        <ele>538</ele>
        <time>2017-10-15T13:20:46Z</time>
      </trkpt>
      <trkpt lat="46.11321" lon="2.67864">
        <ele>540</ele>
        <time>2017-10-15T13:22:46Z</time>
      </trkpt>
      <trkpt lat="46.11339" lon="2.67858">
        <ele>541</ele>
        <time>2017-10-15T13:24:46Z</time>
      </trkpt>
      <trkpt lat="46.11357" lon="2.67838">
        <ele>543</ele>
        <time>2017-10-15T13:26:46Z</time>
      </trkpt>
      <trkpt lat="46.11373" lon="2.67824">
        <ele>546</ele>
        <time>2017-10-15T13:28:46Z</time>
      </trkpt>
      <trkpt lat="46.11378" lon="2.67822">
        <ele>546</ele>
        <time>2017-10-15T13:30:46Z</time>
      </trkpt>
      <trkpt lat="46.1138" lon="2.67818">
        <ele>546</ele>
        <time>2017-10-15T13:32:46Z</time>
      </trkpt>
      <trkpt lat="46.11403" lon="2.6778">
        <ele>546</ele>
        <time>2017-10-15T13:34:46Z</time>
      </trkpt>
      <trkpt lat="46.11459" lon="2.6772">
        <ele>546</ele>
        <time>2017-10-15T13:36:46Z</time>
      </trkpt>
      <trkpt lat="46.11506" lon="2.67684">
        <ele>546</ele>
        <time>2017-10-15T13:38:46Z</time>
      </trkpt>
      <trkpt lat="46.11522" lon="2.67663">
        <ele>545</ele>
        <time>2017-10-15T13:40:46Z</time>
      </trkpt>
      <trkpt lat="46.11548" lon="2.676">
        <ele>548</ele>
        <time>2017-10-15T13:42:46Z</time>
      </trkpt>
      <trkpt lat="46.11588" lon="2.67516">
        <ele>552</ele>
        <time>2017-10-15T13:44:46Z</time>
      </trkpt>
      <trkpt lat="46.11628" lon="2.67422">
        <ele>559</ele>
        <time>2017-10-15T13:46:46Z</time>
      </trkpt>
      <trkpt lat="46.11654" lon="2.67405">
        <ele>560</ele>
        <time>2017-10-15T13:48:46Z</time>
      </trkpt>
      <trkpt lat="46.11719" lon="2.67369">
        <ele>562</ele>
        <time>2017-10-15T13:50:46Z</time>
      </trkpt>
      <trkpt lat="46.11757" lon="2.6735">
        <ele>562</ele>
        <time>2017-10-15T13:52:46Z</time>
      </trkpt>
      <trkpt lat="46.11804" lon="2.67321">
        <ele>562</ele>
        <time>2017-10-15T13:54:46Z</time>
      </trkpt>
      <trkpt lat="46.1184" lon="2.6728">
        <ele>561</ele>
        <time>2017-10-15T13:56:46Z</time>
      </trkpt>
      <trkpt lat="46.11865" lon="2.67216">
        <ele>560</ele>
        <time>2017-10-15T13:58:46Z</time>
      </trkpt>
      <trkpt lat="46.11865" lon="2.67215">
        <ele>560</ele>
        <time>2017-10-15T14:00:46Z</time>
      </trkpt>
      <trkpt lat="46.11868" lon="2.67213">
        <ele>560</ele>
        <time>2017-10-15T14:02:46Z</time>
      </trkpt>
      <trkpt lat="46.11869" lon="2.67212">
        <ele>560</ele>
        <time>2017-10-15T14:04:46Z</time>
      </trkpt>
      <trkpt lat="46.11874" lon="2.67209">
        <ele>560</ele>
        <time>2017-10-15T14:06:46Z</time>
      </trkpt>
      <trkpt lat="46.1191" lon="2.67172">
        <ele>557</ele>
        <time>2017-10-15T14:08:46Z</time>
      </trkpt>
      <trkpt lat="46.11962" lon="2.67093">
        <ele>554</ele>
        <time>2017-10-15T14:10:46Z</time>
      </trkpt>
      <trkpt lat="46.11964" lon="2.67086">
        <ele>553</ele>
        <time>2017-10-15T14:12:46Z</time>
      </trkpt>
      <trkpt lat="46.11967" lon="2.67078">
        <ele>553</ele>
        <time>2017-10-15T14:14:46Z</time>
      </trkpt>
      <trkpt lat="46.11968" lon="2.67071">
        <ele>553</ele>
        <time>2017-10-15T14:16:46Z</time>
      </trkpt>
      <trkpt lat="46.11969" lon="2.67062">
        <ele>553</ele>
        <time>2017-10-15T14:18:46Z</time>
      </trkpt>
      <trkpt lat="46.11968" lon="2.67053">
        <ele>553</ele>
        <time>2017-10-15T14:20:46Z</time>
      </trkpt>
      <trkpt lat="46.11966" lon="2.67045">
        <ele>553</ele>
        <time>2017-10-15T14:22:46Z</time>
      </trkpt>
      <trkpt lat="46.11903" lon="2.66899">
        <ele>552</ele>
        <time>2017-10-15T14:24:46Z</time>
      </trkpt>
      <trkpt lat="46.11882" lon="2.66808">
        <ele>554</ele>
        <time>2017-10-15T14:26:46Z</time>
      </trkpt>
      <trkpt lat="46.11877" lon="2.66793">
        <ele>555</ele>
        <time>2017-10-15T14:28:46Z</time>
      </trkpt>
      <trkpt lat="46.1186" lon="2.66754">
        <ele>557</ele>
        <time>2017-10-15T14:30:46Z</time>
      </trkpt>
      <trkpt lat="46.11848" lon="2.66734">
        <ele>557</ele>
        <time>2017-10-15T14:32:46Z</time>
      </trkpt>
      <trkpt lat="46.11831" lon="2.66701">
        <ele>556</ele>
        <time>2017-10-15T14:34:46Z</time>
      </trkpt>
      <trkpt lat="46.11819" lon="2.66672">
        <ele>556</ele>
        <time>2017-10-15T14:36:46Z</time>
      </trkpt>
      <trkpt lat="46.11783" lon="2.6656">
        <ele>557</ele>
        <time>2017-10-15T14:38:46Z</time>
      </trkpt>
      <trkpt lat="46.11769" lon="2.66506">
        <ele>559</ele>
        <time>2017-10-15T14:40:46Z</time>
      </trkpt>
      <trkpt lat="46.11764" lon="2.66489">
        <ele>559</ele>
        <time>2017-10-15T14:42:46Z</time>
      </trkpt>
      <trkpt lat="46.11762" lon="2.66436">
        <ele>559</ele>
        <time>2017-10-15T14:44:46Z</time>
      </trkpt>
      <trkpt lat="46.11763" lon="2.66394">
        <ele>560</ele>
        <time>2017-10-15T14:46:46Z</time>
      </trkpt>
      <trkpt lat="46.11757" lon="2.66358">
        <ele>559</ele>
        <time>2017-10-15T14:48:46Z</time>
      </trkpt>
      <trkpt lat="46.11724" lon="2.66264">
        <ele>560</ele>
        <time>2017-10-15T14:50:46Z</time>
      </trkpt>
      <trkpt lat="46.11714" lon="2.66232">
        <ele>560</ele>
        <time>2017-10-15T14:52:46Z</time>
      </trkpt>
      <trkpt lat="46.11711" lon="2.66156">
        <ele>559</ele>
        <time>2017-10-15T14:54:46Z</time>
      </trkpt>
      <trkpt lat="46.11723" lon="2.66081">
        <ele>556</ele>
        <time>2017-10-15T14:56:46Z</time>
      </trkpt>
      <trkpt lat="46.11723" lon="2.66041">
        <ele>554</ele>
        <time>2017-10-15T14:58:46Z</time>
      </trkpt>
      <trkpt lat="46.11699" lon="2.65875">
        <ele>545</ele>
        <time>2017-10-15T15:00:46Z</time>
      </trkpt>
      <trkpt lat="46.11651" lon="2.6569">
        <ele>537</ele>
        <time>2017-10-15T15:02:46Z</time>
      </trkpt>
      <trkpt lat="46.11641" lon="2.65665">
        <ele>536</ele>
        <time>2017-10-15T15:04:46Z</time>
      </trkpt>
      <trkpt lat="46.11628" lon="2.65614">
        <ele>533</ele>
        <time>2017-10-15T15:06:46Z</time>
      </trkpt>
      <trkpt lat="46.11616" lon="2.65474">
        <ele>523</ele>
        <time>2017-10-15T15:08:46Z</time>
      </trkpt>
      <trkpt lat="46.11605" lon="2.65449">
        <ele>521</ele>
        <time>2017-10-15T15:10:46Z</time>
      </trkpt>
      <trkpt lat="46.11597" lon="2.65413">
        <ele>518</ele>
        <time>2017-10-15T15:12:46Z</time>
      </trkpt>
      <trkpt lat="46.1158" lon="2.65356">
        <ele>517</ele>
        <time>2017-10-15T15:14:46Z</time>
      </trkpt>
      <trkpt lat="46.11553" lon="2.65321">
        <ele>514</ele>
        <time>2017-10-15T15:16:46Z</time>
      </trkpt>
      <trkpt lat="46.11549" lon="2.6531">
        <ele>514</ele>
        <time>2017-10-15T15:18:46Z</time>
      </trkpt>
      <trkpt lat="46.11546" lon="2.65264">
        <ele>514</ele>
        <time>2017-10-15T15:20:46Z</time>
      </trkpt>
      <trkpt lat="46.11541" lon="2.65241">
        <ele>514</ele>
        <time>2017-10-15T15:22:46Z</time>
      </trkpt>
      <trkpt lat="46.11517" lon="2.65181">
        <ele>515</ele>
        <time>2017-10-15T15:24:46Z</time>
      </trkpt>
      <trkpt lat="46.11489" lon="2.65121">
        <ele>516</ele>
        <time>2017-10-15T15:26:46Z</time>
      </trkpt>
      <trkpt lat="46.1148" lon="2.65073">
        <ele>517</ele>
        <time>2017-10-15T15:28:46Z</time>
      </trkpt>
      <trkpt lat="46.11458" lon="2.65041">
        <ele>514</ele>
        <time>2017-10-15T15:30:46Z</time>
      </trkpt>
      <trkpt lat="46.11445" lon="2.65011">
        <ele>512</ele>
        <time>2017-10-15T15:32:46Z</time>
      </trkpt>
      <trkpt lat="46.11422" lon="2.64887">
        <ele>504</ele>
        <time>2017-10-15T15:34:46Z</time>
      </trkpt>
      <trkpt lat="46.11402" lon="2.64843">
        <ele>498</ele>
        <time>2017-10-15T15:36:46Z</time>
      </trkpt>
      <trkpt lat="46.11376" lon="2.64821">
        <ele>495</ele>
        <time>2017-10-15T15:38:46Z</time>
      </trkpt>
      <trkpt lat="46.11374" lon="2.64774">
        <ele>494</ele>
        <time>2017-10-15T15:40:46Z</time>
      </trkpt>
      <trkpt lat="46.11365" lon="2.6474">
        <ele>493</ele>
        <time>2017-10-15T15:42:46Z</time>
      </trkpt>
      <trkpt lat="46.11356" lon="2.64724">
        <ele>493</ele>
        <time>2017-10-15T15:44:46Z</time>
      </trkpt>
      <trkpt lat="46.11354" lon="2.64713">
        <ele>493</ele>
        <time>2017-10-15T15:46:46Z</time>
      </trkpt>
      <trkpt lat="46.11353" lon="2.64663">
        <ele>493</ele>
        <time>2017-10-15T15:48:46Z</time>
      </trkpt>
      <trkpt lat="46.11348" lon="2.64632">
        <ele>493</ele>
        <time>2017-10-15T15:50:46Z</time>
      </trkpt>
      <trkpt lat="46.11345" lon="2.64613">
        <ele>494</ele>
        <time>2017-10-15T15:52:46Z</time>
      </trkpt>
      <trkpt lat="46.11343" lon="2.64566">
        <ele>494</ele>
        <time>2017-10-15T15:54:46Z</time>
      </trkpt>
      <trkpt lat="46.11342" lon="2.64528">
        <ele>496</ele>
        <time>2017-10-15T15:56:46Z</time>
      </trkpt>
      <trkpt lat="46.11341" lon="2.64498">
        <ele>497</ele>
        <time>2017-10-15T15:58:46Z</time>
      </trkpt>
      <trkpt lat="46.11339" lon="2.64464">
        <ele>498</ele>
        <time>2017-10-15T16:00:46Z</time>
      </trkpt>
      <trkpt lat="46.11336" lon="2.64454">
        <ele>499</ele>
        <time>2017-10-15T16:02:46Z</time>
      </trkpt>
      <trkpt lat="46.11335" lon="2.64418">
        <ele>500</ele>
        <time>2017-10-15T16:04:46Z</time>
      </trkpt>
      <trkpt lat="46.11334" lon="2.64416">
        <ele>500</ele>
        <time>2017-10-15T16:06:46Z</time>
      </trkpt>
      <trkpt lat="46.11332" lon="2.64417">
        <ele>500</ele>
        <time>2017-10-15T16:08:46Z</time>
      </trkpt>
      <trkpt lat="46.11324" lon="2.6437">
        <ele>499</ele>
        <time>2017-10-15T16:10:46Z</time>
      </trkpt>
      <trkpt lat="46.11311" lon="2.64313">
        <ele>499</ele>
        <time>2017-10-15T16:12:46Z</time>
      </trkpt>
      <trkpt lat="46.11305" lon="2.64286">
        <ele>500</ele>
        <time>2017-10-15T16:14:46Z</time>
      </trkpt>
      <trkpt lat="46.11294" lon="2.64257">
        <ele>501</ele>
        <time>2017-10-15T16:16:46Z</time>
      </trkpt>
      <trkpt lat="46.11285" lon="2.64239">
        <ele>501</ele>
        <time>2017-10-15T16:18:46Z</time>
      </trkpt>
      <trkpt lat="46.11278" lon="2.64203">
        <ele>502</ele>
        <time>2017-10-15T16:20:46Z</time>
      </trkpt>
      <trkpt lat="46.11281" lon="2.64142">
        <ele>503</ele>
        <time>2017-10-15T16:22:46Z</time>
      </trkpt>
      <trkpt lat="46.1128" lon="2.64104">
        <ele>504</ele>
        <time>2017-10-15T16:24:46Z</time>
      </trkpt>
      <trkpt lat="46.11278" lon="2.64095">
        <ele>504</ele>
        <time>2017-10-15T16:26:46Z</time>
      </trkpt>
      <trkpt lat="46.11254" lon="2.64038">
        <ele>503</ele>
        <time>2017-10-15T16:28:46Z</time>
      </trkpt>
      <trkpt lat="46.1124" lon="2.64021">
        <ele>504</ele>
        <time>2017-10-15T16:30:46Z</time>
      </trkpt>
      <trkpt lat="46.11225" lon="2.64014">
        <ele>506</ele>
        <time>2017-10-15T16:32:46Z</time>
      </trkpt>
      <trkpt lat="46.11213" lon="2.6401">
        <ele>508</ele>
        <time>2017-10-15T16:34:46Z</time>
      </trkpt>
      <trkpt lat="46.112" lon="2.64003">
        <ele>510</ele>
        <time>2017-10-15T16:36:46Z</time>
      </trkpt>
      <trkpt lat="46.11174" lon="2.63983">
        <ele>513</ele>
        <time>2017-10-15T16:38:46Z</time>
      </trkpt>
      <trkpt lat="46.11154" lon="2.63972">
        <ele>514</ele>
        <time>2017-10-15T16:40:46Z</time>
      </trkpt>
      <trkpt lat="46.11139" lon="2.63959">
        <ele>514</ele>
        <time>2017-10-15T16:42:46Z</time>
      </trkpt>
      <trkpt lat="46.11109" lon="2.63935">
        <ele>514</ele>
        <time>2017-10-15T16:44:46Z</time>
      </trkpt>
      <trkpt lat="46.11088" lon="2.63923">
        <ele>516</ele>
        <time>2017-10-15T16:46:46Z</time>
      </trkpt>
      <trkpt lat="46.1107" lon="2.63909">
        <ele>516</ele>
        <time>2017-10-15T16:48:46Z</time>
      </trkpt>
      <trkpt lat="46.11032" lon="2.63908">
        <ele>518</ele>
        <time>2017-10-15T16:50:46Z</time>
      </trkpt>
      <trkpt lat="46.11012" lon="2.6391">
        <ele>520</ele>
        <time>2017-10-15T16:52:46Z</time>
      </trkpt>
      <trkpt lat="46.10979" lon="2.63901">
        <ele>521</ele>
        <time>2017-10-15T16:54:46Z</time>
      </trkpt>
      <trkpt lat="46.10956" lon="2.63874">
        <ele>521</ele>
        <time>2017-10-15T16:56:46Z</time>
      </trkpt>
      <trkpt lat="46.10941" lon="2.63833">
        <ele>520</ele>
        <time>2017-10-15T16:58:46Z</time>
      </trkpt>
      <trkpt lat="46.10923" lon="2.63803">
        <ele>520</ele>
        <time>2017-10-15T17:00:46Z</time>
      </trkpt>
      <trkpt lat="46.10908" lon="2.63781">
        <ele>520</ele>
        <time>2017-10-15T17:02:46Z</time>
      </trkpt>
      <trkpt lat="46.10898" lon="2.63764">
        <ele>521</ele>
        <time>2017-10-15T17:04:46Z</time>
      </trkpt>
      <trkpt lat="46.10884" lon="2.63748">
        <ele>522</ele>
        <time>2017-10-15T17:06:46Z</time>
      </trkpt>
      <trkpt lat="46.10868" lon="2.63734">
        <ele>523</ele>
        <time>2017-10-15T17:08:46Z</time>
      </trkpt>
      <trkpt lat="46.10852" lon="2.63717">
        <ele>524</ele>
        <time>2017-10-15T17:10:46Z</time>
      </trkpt>
      <trkpt lat="46.10824" lon="2.63697">
        <ele>525</ele>
        <time>2017-10-15T17:12:46Z</time>
      </trkpt>
      <trkpt lat="46.10789" lon="2.63683">
        <ele>527</ele>
        <time>2017-10-15T17:14:46Z</time>
      </trkpt>
      <trkpt lat="46.10734" lon="2.63647">
        <ele>530</ele>
        <time>2017-10-15T17:16:46Z</time>
      </trkpt>
      <trkpt lat="46.10692" lon="2.6363">
        <ele>532</ele>
        <time>2017-10-15T17:18:46Z</time>
      </trkpt>
      <trkpt lat="46.10682" lon="2.63604">
        <ele>530</ele>
        <time>2017-10-15T17:20:46Z</time>
      </trkpt>
      <trkpt lat="46.1068" lon="2.63547">
        <ele>530</ele>
        <time>2017-10-15T17:22:46Z</time>
      </trkpt>
      <trkpt lat="46.10662" lon="2.63519">
        <ele>532</ele>
        <time>2017-10-15T17:24:46Z</time>
      </trkpt>
      <trkpt lat="46.10657" lon="2.63497">
        <ele>533</ele>
        <time>2017-10-15T17:26:46Z</time>
      </trkpt>
      <trkpt lat="46.10658" lon="2.63479">
        <ele>536</ele>
        <time>2017-10-15T17:28:46Z</time>
      </trkpt>
      <trkpt lat="46.10661" lon="2.63463">
        <ele>538</ele>
        <time>2017-10-15T17:30:46Z</time>
      </trkpt>
      <trkpt lat="46.10664" lon="2.63441">
        <ele>541</ele>
        <time>2017-10-15T17:32:46Z</time>
      </trkpt>
      <trkpt lat="46.10667" lon="2.63426">
        <ele>543</ele>
        <time>2017-10-15T17:34:46Z</time>
      </trkpt>
      <trkpt lat="46.10669" lon="2.63407">
        <ele>545</ele>
        <time>2017-10-15T17:36:46Z</time>
      </trkpt>
      <trkpt lat="46.10669" lon="2.63393">
        <ele>546</ele>
        <time>2017-10-15T17:38:46Z</time>
      </trkpt>
      <trkpt lat="46.10672" lon="2.63371">
        <ele>548</ele>
        <time>2017-10-15T17:40:46Z</time>
      </trkpt>
      <trkpt lat="46.10674" lon="2.63352">
        <ele>550</ele>
        <time>2017-10-15T17:42:46Z</time>
      </trkpt>
      <trkpt lat="46.10674" lon="2.63338">
        <ele>551</ele>
        <time>2017-10-15T17:44:46Z</time>
      </trkpt>
      <trkpt lat="46.10669" lon="2.63313">
        <ele>553</ele>
        <time>2017-10-15T17:46:46Z</time>
      </trkpt>
      <trkpt lat="46.10662" lon="2.63289">
        <ele>554</ele>
        <time>2017-10-15T17:48:46Z</time>
      </trkpt>
      <trkpt lat="46.10655" lon="2.63276">
        <ele>555</ele>
        <time>2017-10-15T17:50:46Z</time>
      </trkpt>
      <trkpt lat="46.10652" lon="2.6327">
        <ele>555</ele>
        <time>2017-10-15T17:52:46Z</time>
      </trkpt>
      <trkpt lat="46.10641" lon="2.63261">
        <ele>556</ele>
        <time>2017-10-15T17:54:46Z</time>
      </trkpt>
      <trkpt lat="46.10637" lon="2.6326">
        <ele>556</ele>
        <time>2017-10-15T17:56:46Z</time>
      </trkpt>
      <trkpt lat="46.10637" lon="2.63261">
        <ele>556</ele>
        <time>2017-10-15T17:58:46Z</time>
      </trkpt>
      <trkpt lat="46.10636" lon="2.6326">
        <ele>556</ele>
        <time>2017-10-15T18:00:46Z</time>
      </trkpt>
      <trkpt lat="46.1063" lon="2.6327">
        <ele>556</ele>
        <time>2017-10-15T18:02:46Z</time>
      </trkpt>
      <trkpt lat="46.10607" lon="2.63294">
        <ele>556</ele>
        <time>2017-10-15T18:04:46Z</time>
      </trkpt>
      <trkpt lat="46.10577" lon="2.63292">
        <ele>557</ele>
        <time>2017-10-15T18:06:46Z</time>
      </trkpt>
      <trkpt lat="46.10564" lon="2.63284">
        <ele>557</ele>
        <time>2017-10-15T18:08:46Z</time>
      </trkpt>
      <trkpt lat="46.10539" lon="2.6328">
        <ele>557</ele>
        <time>2017-10-15T18:10:46Z</time>
      </trkpt>
      <trkpt lat="46.1052" lon="2.63262">
        <ele>558</ele>
        <time>2017-10-15T18:12:46Z</time>
      </trkpt>
      <trkpt lat="46.10489" lon="2.63247">
        <ele>559</ele>
        <time>2017-10-15T18:14:46Z</time>
      </trkpt>
      <trkpt lat="46.10475" lon="2.63239">
        <ele>560</ele>
        <time>2017-10-15T18:16:46Z</time>
      </trkpt>
      <trkpt lat="46.10425" lon="2.63236">
        <ele>563</ele>
        <time>2017-10-15T18:18:46Z</time>
      </trkpt>
      <trkpt lat="46.10406" lon="2.63232">
        <ele>564</ele>
        <time>2017-10-15T18:20:46Z</time>
      </trkpt>
      <trkpt lat="46.10405" lon="2.63229">
        <ele>564</ele>
        <time>2017-10-15T18:22:46Z</time>
      </trkpt>
      <trkpt lat="46.10386" lon="2.63226">
        <ele>565</ele>
        <time>2017-10-15T18:24:46Z</time>
      </trkpt>
      <trkpt lat="46.1037" lon="2.63228">
        <ele>565</ele>
        <time>2017-10-15T18:26:46Z</time>
      </trkpt>
      <trkpt lat="46.10315" lon="2.63227">
        <ele>567</ele>
        <time>2017-10-15T18:28:46Z</time>
      </trkpt>
      <trkpt lat="46.10282" lon="2.63219">
        <ele>566</ele>
        <time>2017-10-15T18:30:46Z</time>
      </trkpt>
      <trkpt lat="46.10242" lon="2.63228">
        <ele>566</ele>
        <time>2017-10-15T18:32:46Z</time>
      </trkpt>
      <trkpt lat="46.10199" lon="2.63258">
        <ele>566</ele>
        <time>2017-10-15T18:34:46Z</time>
      </trkpt>
      <trkpt lat="46.10135" lon="2.6339">
        <ele>569</ele>
        <time>2017-10-15T18:36:46Z</time>
      </trkpt>
      <trkpt lat="46.10083" lon="2.63494">
        <ele>572</ele>
        <time>2017-10-15T18:38:46Z</time>
      </trkpt>
      <trkpt lat="46.10083" lon="2.63524">
        <ele>572</ele>
        <time>2017-10-15T18:40:46Z</time>
      </trkpt>
      <trkpt lat="46.10079" lon="2.6356">
        <ele>572</ele>
        <time>2017-10-15T18:42:46Z</time>
      </trkpt>
      <trkpt lat="46.10075" lon="2.63578">
        <ele>572</ele>
        <time>2017-10-15T18:44:46Z</time>
      </trkpt>
      <trkpt lat="46.10068" lon="2.63619">
        <ele>573</ele>
        <time>2017-10-15T18:46:46Z</time>
      </trkpt>
      <trkpt lat="46.10057" lon="2.63676">
        <ele>574</ele>
        <time>2017-10-15T18:48:46Z</time>
      </trkpt>
      <trkpt lat="46.10051" lon="2.6373">
        <ele>574</ele>
        <time>2017-10-15T18:50:46Z</time>
      </trkpt>
      <trkpt lat="46.10056" lon="2.63783">
        <ele>575</ele>
        <time>2017-10-15T18:52:46Z</time>
      </trkpt>
      <trkpt lat="46.10064" lon="2.63816">
        <ele>576</ele>
        <time>2017-10-15T18:54:46Z</time>
      </trkpt>
      <trkpt lat="46.10075" lon="2.63848">
        <ele>577</ele>
        <time>2017-10-15T18:56:46Z</time>
      </trkpt>
      <trkpt lat="46.10087" lon="2.63878">
        <ele>577</ele>
        <time>2017-10-15T18:58:46Z</time>
      </trkpt>
      <trkpt lat="46.10101" lon="2.63913">
        <ele>577</ele>
        <time>2017-10-15T19:00:46Z</time>
      </trkpt>
      <trkpt lat="46.10112" lon="2.63958">
        <ele>576</ele>
        <time>2017-10-15T19:02:46Z</time>
      </trkpt>
      <trkpt lat="46.10115" lon="2.6403">
        <ele>574</ele>
        <time>2017-10-15T19:04:46Z</time>
      </trkpt>
      <trkpt lat="46.10114" lon="2.64051">
        <ele>573</ele>
        <time>2017-10-15T19:06:46Z</time>
      </trkpt>
      <trkpt lat="46.10106" lon="2.64117">
        <ele>568</ele>
        <time>2017-10-15T19:08:46Z</time>
      </trkpt>
      <trkpt lat="46.10107" lon="2.64254">
        <ele>555</ele>
        <time>2017-10-15T19:10:46Z</time>
      </trkpt>
      <trkpt lat="46.10093" lon="2.64289">
        <ele>553</ele>
        <time>2017-10-15T19:12:46Z</time>
      </trkpt>
      <trkpt lat="46.10071" lon="2.64338">
        <ele>554</ele>
        <time>2017-10-15T19:14:46Z</time>
      </trkpt>
      <trkpt lat="46.10078" lon="2.64363">
        <ele>552</ele>
        <time>2017-10-15T19:16:46Z</time>
      </trkpt>
      <trkpt lat="46.10095" lon="2.64414">
        <ele>549</ele>
        <time>2017-10-15T19:18:46Z</time>
      </trkpt>
      <trkpt lat="46.10117" lon="2.64487">
        <ele>546</ele>
        <time>2017-10-15T19:20:46Z</time>
      </trkpt>
      <trkpt lat="46.10126" lon="2.64537">
        <ele>547</ele>
        <time>2017-10-15T19:22:46Z</time>
      </trkpt>
      <trkpt lat="46.10138" lon="2.64571">
        <ele>547</ele>
        <time>2017-10-15T19:24:46Z</time>
      </trkpt>
      <trkpt lat="46.10156" lon="2.64607">
        <ele>548</ele>
        <time>2017-10-15T19:26:46Z</time>
      </trkpt>
      <trkpt lat="46.10172" lon="2.64647">
        <ele>550</ele>
        <time>2017-10-15T19:28:46Z</time>
      </trkpt>
      <trkpt lat="46.10182" lon="2.64689">
        <ele>550</ele>
        <time>2017-10-15T19:30:46Z</time>
      </trkpt>
      <trkpt lat="46.10185" lon="2.64735">
        <ele>549</ele>
        <time>2017-10-15T19:32:46Z</time>
      </trkpt>
      <trkpt lat="46.10183" lon="2.64748">
        <ele>549</ele>
        <time>2017-10-15T19:34:46Z</time>
      </trkpt>
      <trkpt lat="46.10173" lon="2.64749">
        <ele>549</ele>
        <time>2017-10-15T19:36:46Z</time>
      </trkpt>
      <trkpt lat="46.10173" lon="2.64751">
        <ele>549</ele>
        <time>2017-10-15T19:38:46Z</time>
      </trkpt>
      <trkpt lat="46.10155" lon="2.6473">
        <ele>549</ele>
        <time>2017-10-15T19:40:46Z</time>
      </trkpt>
      <trkpt lat="46.10129" lon="2.64704">
        <ele>549</ele>
        <time>2017-10-15T19:42:46Z</time>
      </trkpt>
      <trkpt lat="46.10103" lon="2.64682">
        <ele>549</ele>
        <time>2017-10-15T19:44:46Z</time>
      </trkpt>
      <trkpt lat="46.10079" lon="2.64654">
        <ele>549</ele>
        <time>2017-10-15T19:46:46Z</time>
      </trkpt>
      <trkpt lat="46.10054" lon="2.64618">
        <ele>550</ele>
        <time>2017-10-15T19:48:46Z</time>
      </trkpt>
      <trkpt lat="46.10018" lon="2.64555">
        <ele>554</ele>
        <time>2017-10-15T19:50:46Z</time>
      </trkpt>
      <trkpt lat="46.09986" lon="2.64504">
        <ele>558</ele>
        <time>2017-10-15T19:52:46Z</time>
      </trkpt>
      <trkpt lat="46.09969" lon="2.64484">
        <ele>561</ele>
        <time>2017-10-15T19:54:46Z</time>
      </trkpt>
      <trkpt lat="46.09952" lon="2.64468">
        <ele>563</ele>
        <time>2017-10-15T19:56:46Z</time>
      </trkpt>
      <trkpt lat="46.09935" lon="2.64457">
        <ele>566</ele>
        <time>2017-10-15T19:58:46Z</time>
      </trkpt>
      <trkpt lat="46.09883" lon="2.64426">
        <ele>573</ele>
        <time>2017-10-15T20:00:46Z</time>
      </trkpt>
      <trkpt lat="46.09865" lon="2.64412">
        <ele>575</ele>
        <time>2017-10-15T20:02:46Z</time>
      </trkpt>
      <trkpt lat="46.09848" lon="2.64397">
        <ele>577</ele>
        <time>2017-10-15T20:04:46Z</time>
      </trkpt>
      <trkpt lat="46.09828" lon="2.64377">
        <ele>578</ele>
        <time>2017-10-15T20:06:46Z</time>
      </trkpt>
      <trkpt lat="46.09826" lon="2.64376">
        <ele>578</ele>
        <time>2017-10-15T20:08:46Z</time>
      </trkpt>
      <trkpt lat="46.09822" lon="2.64372">
        <ele>578</ele>
        <time>2017-10-15T20:10:46Z</time>
      </trkpt>
      <trkpt lat="46.09816" lon="2.64365">
        <ele>579</ele>
        <time>2017-10-15T20:12:46Z</time>
      </trkpt>
      <trkpt lat="46.09797" lon="2.64323">
        <ele>579</ele>
        <time>2017-10-15T20:14:46Z</time>
      </trkpt>
      <trkpt lat="46.09779" lon="2.64278">
        <ele>579</ele>
        <time>2017-10-15T20:16:46Z</time>
      </trkpt>
      <trkpt lat="46.09761" lon="2.64231">
        <ele>579</ele>
        <time>2017-10-15T20:18:46Z</time>
      </trkpt>
      <trkpt lat="46.0975" lon="2.64186">
        <ele>580</ele>
        <time>2017-10-15T20:20:46Z</time>
      </trkpt>
      <trkpt lat="46.0973" lon="2.64117">
        <ele>581</ele>
        <time>2017-10-15T20:22:46Z</time>
      </trkpt>
      <trkpt lat="46.09709" lon="2.6407">
        <ele>582</ele>
        <time>2017-10-15T20:24:46Z</time>
      </trkpt>
      <trkpt lat="46.09673" lon="2.63975">
        <ele>584</ele>
        <time>2017-10-15T20:26:46Z</time>
      </trkpt>
      <trkpt lat="46.09665" lon="2.63958">
        <ele>584</ele>
        <time>2017-10-15T20:28:46Z</time>
      </trkpt>
      <trkpt lat="46.09664" lon="2.6396">
        <ele>584</ele>
        <time>2017-10-15T20:30:46Z</time>
      </trkpt>
      <trkpt lat="46.09632" lon="2.64013">
        <ele>581</ele>
        <time>2017-10-15T20:32:46Z</time>
      </trkpt>
      <trkpt lat="46.096" lon="2.64061">
        <ele>578</ele>
        <time>2017-10-15T20:34:46Z</time>
      </trkpt>
      <trkpt lat="46.09566" lon="2.64117">
        <ele>575</ele>
        <time>2017-10-15T20:36:46Z</time>
      </trkpt>
      <trkpt lat="46.0952" lon="2.64193">
        <ele>570</ele>
        <time>2017-10-15T20:38:46Z</time>
      </trkpt>
      <trkpt lat="46.09506" lon="2.64232">
        <ele>569</ele>
        <time>2017-10-15T20:40:46Z</time>
      </trkpt>
      <trkpt lat="46.09491" lon="2.6428">
        <ele>569</ele>
        <time>2017-10-15T20:42:46Z</time>
      </trkpt>
      <trkpt lat="46.09473" lon="2.64312">
        <ele>569</ele>
        <time>2017-10-15T20:44:46Z</time>
      </trkpt>
      <trkpt lat="46.0945" lon="2.6434">
        <ele>571</ele>
        <time>2017-10-15T20:46:46Z</time>
      </trkpt>
      <trkpt lat="46.09414" lon="2.64371">
        <ele>572</ele>
        <time>2017-10-15T20:48:46Z</time>
      </trkpt>
      <trkpt lat="46.0939" lon="2.64404">
        <ele>572</ele>
        <time>2017-10-15T20:50:46Z</time>
      </trkpt>
      <trkpt lat="46.09361" lon="2.64467">
        <ele>573</ele>
        <time>2017-10-15T20:52:46Z</time>
      </trkpt>
      <trkpt lat="46.09344" lon="2.64503">
        <ele>574</ele>
        <time>2017-10-15T20:54:46Z</time>
      </trkpt>
      <trkpt lat="46.09329" lon="2.64531">
        <ele>574</ele>
        <time>2017-10-15T20:56:46Z</time>
      </trkpt>
      <trkpt lat="46.09316" lon="2.64564">
        <ele>575</ele>
        <time>2017-10-15T20:58:46Z</time>
      </trkpt>
      <trkpt lat="46.09301" lon="2.64593">
        <ele>575</ele>
        <time>2017-10-15T21:00:46Z</time>
      </trkpt>
      <trkpt lat="46.09263" lon="2.64647">
        <ele>574</ele>
        <time>2017-10-15T21:02:46Z</time>
      </trkpt>
      <trkpt lat="46.09212" lon="2.6473">
        <ele>573</ele>
        <time>2017-10-15T21:04:46Z</time>
      </trkpt>
      <trkpt lat="46.09206" lon="2.64764">
        <ele>574</ele>
        <time>2017-10-15T21:06:46Z</time>
      </trkpt>
      <trkpt lat="46.09203" lon="2.64785">
        <ele>575</ele>
        <time>2017-10-15T21:08:46Z</time>
      </trkpt>
      <trkpt lat="46.09198" lon="2.64828">
        <ele>576</ele>
        <time>2017-10-15T21:10:46Z</time>
      </trkpt>
      <trkpt lat="46.09197" lon="2.64861">
        <ele>576</ele>
        <time>2017-10-15T21:12:46Z</time>
      </trkpt>
      <trkpt lat="46.09189" lon="2.64936">
        <ele>576</ele>
        <time>2017-10-15T21:14:46Z</time>
      </trkpt>
      <trkpt lat="46.09181" lon="2.64983">
        <ele>578</ele>
        <time>2017-10-15T21:16:46Z</time>
      </trkpt>
      <trkpt lat="46.09166" lon="2.65048">
        <ele>579</ele>
        <time>2017-10-15T21:18:46Z</time>
      </trkpt>
      <trkpt lat="46.09153" lon="2.65098">
        <ele>578</ele>
        <time>2017-10-15T21:20:46Z</time>
      </trkpt>
      <trkpt lat="46.09144" lon="2.65102">
        <ele>577</ele>
        <time>2017-10-15T21:22:46Z</time>
      </trkpt>
      <trkpt lat="46.09108" lon="2.65083">
        <ele>576</ele>
        <time>2017-10-15T21:24:46Z</time>
      </trkpt>
      <trkpt lat="46.09099" lon="2.6509">
        <ele>576</ele>
        <time>2017-10-15T21:26:46Z</time>
      </trkpt>
      <trkpt lat="46.09073" lon="2.65147">
        <ele>576</ele>
        <time>2017-10-15T21:28:46Z</time>
      </trkpt>
      <trkpt lat="46.09058" lon="2.65177">
        <ele>576</ele>
        <time>2017-10-15T21:30:46Z</time>
      </trkpt>
      <trkpt lat="46.09038" lon="2.65198">
        <ele>577</ele>
        <time>2017-10-15T21:32:46Z</time>
      </trkpt>
      <trkpt lat="46.09011" lon="2.65221">
        <ele>577</ele>
        <time>2017-10-15T21:34:46Z</time>
      </trkpt>
      <trkpt lat="46.08987" lon="2.65249">
        <ele>577</ele>
        <time>2017-10-15T21:36:46Z</time>
      </trkpt>
      <trkpt lat="46.08962" lon="2.65282">
        <ele>576</ele>
        <time>2017-10-15T21:38:46Z</time>
      </trkpt>
      <trkpt lat="46.08936" lon="2.65317">
        <ele>576</ele>
        <time>2017-10-15T21:40:46Z</time>
      </trkpt>
      <trkpt lat="46.0892" lon="2.65351">
        <ele>576</ele>
        <time>2017-10-15T21:42:46Z</time>
      </trkpt>
      <trkpt lat="46.08896" lon="2.65433">
        <ele>575</ele>
        <time>2017-10-15T21:44:46Z</time>
      </trkpt>
      <trkpt lat="46.08873" lon="2.65457">
        <ele>574</ele>
        <time>2017-10-15T21:46:46Z</time>
      </trkpt>
      <trkpt lat="46.08835" lon="2.65442">
        <ele>573</ele>
        <time>2017-10-15T21:48:46Z</time>
      </trkpt>
      <trkpt lat="46.08775" lon="2.65446">
        <ele>572</ele>
        <time>2017-10-15T21:50:46Z</time>
      </trkpt>
      <trkpt lat="46.08742" lon="2.65447">
        <ele>572</ele>
        <time>2017-10-15T21:52:46Z</time>
      </trkpt>
      <trkpt lat="46.08693" lon="2.65452">
        <ele>568</ele>
        <time>2017-10-15T21:54:46Z</time>
      </trkpt>
      <trkpt lat="46.08653" lon="2.65461">
        <ele>564</ele>
        <time>2017-10-15T21:56:46Z</time>
      </trkpt>
      <trkpt lat="46.08609" lon="2.65475">
        <ele>561</ele>
        <time>2017-10-15T21:58:46Z</time>
      </trkpt>
      <trkpt lat="46.08539" lon="2.6552">
        <ele>555</ele>
        <time>2017-10-15T22:00:46Z</time>
      </trkpt>
      <trkpt lat="46.08534" lon="2.65524">
        <ele>554</ele>
        <time>2017-10-15T22:02:46Z</time>
      </trkpt>
      <trkpt lat="46.08512" lon="2.65545">
        <ele>552</ele>
        <time>2017-10-15T22:04:46Z</time>
      </trkpt>
      <trkpt lat="46.08498" lon="2.6557">
        <ele>551</ele>
        <time>2017-10-15T22:06:46Z</time>
      </trkpt>
      <trkpt lat="46.08454" lon="2.65609">
        <ele>550</ele>
        <time>2017-10-15T22:08:46Z</time>
      </trkpt>
      <trkpt lat="46.08414" lon="2.65618">
        <ele>548</ele>
        <time>2017-10-15T22:10:46Z</time>
      </trkpt>
      <trkpt lat="46.08396" lon="2.65632">
        <ele>551</ele>
        <time>2017-10-15T22:12:46Z</time>
      </trkpt>
      <trkpt lat="46.08371" lon="2.65671">
        <ele>553</ele>
        <time>2017-10-15T22:14:46Z</time>
      </trkpt>
      <trkpt lat="46.0835" lon="2.65692">
        <ele>554</ele>
        <time>2017-10-15T22:16:46Z</time>
      </trkpt>
      <trkpt lat="46.08316" lon="2.65719">
        <ele>553</ele>
        <time>2017-10-15T22:18:46Z</time>
      </trkpt>
      <trkpt lat="46.08287" lon="2.65737">
        <ele>553</ele>
        <time>2017-10-15T22:20:46Z</time>
      </trkpt>
      <trkpt lat="46.08268" lon="2.65748">
        <ele>553</ele>
        <time>2017-10-15T22:22:46Z</time>
      </trkpt>
      <trkpt lat="46.08252" lon="2.65755">
        <ele>554</ele>
        <time>2017-10-15T22:24:46Z</time>
      </trkpt>
      <trkpt lat="46.08237" lon="2.65763">
        <ele>555</ele>
        <time>2017-10-15T22:26:46Z</time>
      </trkpt>
      <trkpt lat="46.08222" lon="2.65768">
        <ele>555</ele>
        <time>2017-10-15T22:28:46Z</time>
      </trkpt>
      <trkpt lat="46.08207" lon="2.65768">
        <ele>556</ele>
        <time>2017-10-15T22:30:46Z</time>
      </trkpt>
      <trkpt lat="46.08188" lon="2.65769">
        <ele>556</ele>
        <time>2017-10-15T22:32:46Z</time>
      </trkpt>
      <trkpt lat="46.08174" lon="2.65769">
        <ele>557</ele>
        <time>2017-10-15T22:34:46Z</time>
      </trkpt>
      <trkpt lat="46.08155" lon="2.65767">
        <ele>558</ele>
        <time>2017-10-15T22:36:46Z</time>
      </trkpt>
      <trkpt lat="46.0814" lon="2.65765">
        <ele>559</ele>
        <time>2017-10-15T22:38:46Z</time>
      </trkpt>
      <trkpt lat="46.08121" lon="2.65764">
        <ele>561</ele>
        <time>2017-10-15T22:40:46Z</time>
      </trkpt>
      <trkpt lat="46.08098" lon="2.65758">
        <ele>563</ele>
        <time>2017-10-15T22:42:46Z</time>
      </trkpt>
      <trkpt lat="46.08073" lon="2.65753">
        <ele>564</ele>
        <time>2017-10-15T22:44:46Z</time>
      </trkpt>
      <trkpt lat="46.08048" lon="2.65745">
        <ele>566</ele>
        <time>2017-10-15T22:46:46Z</time>
      </trkpt>
      <trkpt lat="46.08046" lon="2.65742">
        <ele>566</ele>
        <time>2017-10-15T22:48:46Z</time>
      </trkpt>
      <trkpt lat="46.08045" lon="2.65741">
        <ele>566</ele>
        <time>2017-10-15T22:50:46Z</time>
      </trkpt>
      <trkpt lat="46.08032" lon="2.65735">
        <ele>567</ele>
        <time>2017-10-15T22:52:46Z</time>
      </trkpt>
      <trkpt lat="46.08004" lon="2.6572">
        <ele>567</ele>
        <time>2017-10-15T22:54:46Z</time>
      </trkpt>
      <trkpt lat="46.07984" lon="2.65705">
        <ele>568</ele>
        <time>2017-10-15T22:56:46Z</time>
      </trkpt>
      <trkpt lat="46.07962" lon="2.65681">
        <ele>569</ele>
        <time>2017-10-15T22:58:46Z</time>
      </trkpt>
      <trkpt lat="46.07927" lon="2.65649">
        <ele>571</ele>
        <time>2017-10-15T23:00:46Z</time>
      </trkpt>
      <trkpt lat="46.07921" lon="2.65646">
        <ele>571</ele>
        <time>2017-10-15T23:02:46Z</time>
      </trkpt>
      <trkpt lat="46.07902" lon="2.65631">
        <ele>572</ele>
        <time>2017-10-15T23:04:46Z</time>
      </trkpt>
      <trkpt lat="46.07871" lon="2.65624">
        <ele>575</ele>
        <time>2017-10-15T23:06:46Z</time>
      </trkpt>
      <trkpt lat="46.07851" lon="2.65619">
        <ele>577</ele>
        <time>2017-10-15T23:08:46Z</time>
      </trkpt>
      <trkpt lat="46.07842" lon="2.65619">
        <ele>578</ele>
        <time>2017-10-15T23:10:46Z</time>
      </trkpt>
      <trkpt lat="46.07818" lon="2.65599">
        <ele>579</ele>
        <time>2017-10-15T23:12:46Z</time>
      </trkpt>
      <trkpt lat="46.07775" lon="2.65536">
        <ele>579</ele>
        <time>2017-10-15T23:14:46Z</time>
      </trkpt>
      <trkpt lat="46.07762" lon="2.65503">
        <ele>579</ele>
        <time>2017-10-15T23:16:46Z</time>
      </trkpt>
      <trkpt lat="46.07776" lon="2.6545">
        <ele>577</ele>
        <time>2017-10-15T23:18:46Z</time>
      </trkpt>
      <trkpt lat="46.07775" lon="2.65366">
        <ele>576</ele>
        <time>2017-10-15T23:20:46Z</time>
      </trkpt>
      <trkpt lat="46.07772" lon="2.65302">
        <ele>577</ele>
        <time>2017-10-15T23:22:46Z</time>
      </trkpt>
      <trkpt lat="46.07769" lon="2.65251">
        <ele>577</ele>
        <time>2017-10-15T23:24:46Z</time>
      </trkpt>
      <trkpt lat="46.07774" lon="2.65194">
        <ele>576</ele>
        <time>2017-10-15T23:26:46Z</time>
      </trkpt>
      <trkpt lat="46.07792" lon="2.6513">
        <ele>575</ele>
        <time>2017-10-15T23:28:46Z</time>
      </trkpt>
      <trkpt lat="46.07787" lon="2.65116">
        <ele>575</ele>
        <time>2017-10-15T23:30:46Z</time>
      </trkpt>
      <trkpt lat="46.07755" lon="2.6507">
        <ele>576</ele>
        <time>2017-10-15T23:32:46Z</time>
      </trkpt>
      <trkpt lat="46.07719" lon="2.65046">
        <ele>576</ele>
        <time>2017-10-15T23:34:46Z</time>
      </trkpt>
      <trkpt lat="46.07715" lon="2.6504">
        <ele>575</ele>
        <time>2017-10-15T23:36:46Z</time>
      </trkpt>
      <trkpt lat="46.07711" lon="2.65039">
        <ele>575</ele>
        <time>2017-10-15T23:38:46Z</time>
      </trkpt>
      <trkpt lat="46.07711" lon="2.65017">
        <ele>574</ele>
        <time>2017-10-15T23:40:46Z</time>
      </trkpt>
      <trkpt lat="46.07706" lon="2.64973">
        <ele>572</ele>
        <time>2017-10-15T23:42:46Z</time>
      </trkpt>
      <trkpt lat="46.07687" lon="2.64963">
        <ele>570</ele>
        <time>2017-10-15T23:44:46Z</time>
      </trkpt>
      <trkpt lat="46.0765" lon="2.6495">
        <ele>565</ele>
        <time>2017-10-15T23:46:46Z</time>
      </trkpt>
      <trkpt lat="46.07624" lon="2.64922">
        <ele>560</ele>
        <time>2017-10-15T23:48:46Z</time>
      </trkpt>
      <trkpt lat="46.07621" lon="2.64876">
        <ele>558</ele>
        <time>2017-10-15T23:50:46Z</time>
      </trkpt>
      <trkpt lat="46.07618" lon="2.64858">
        <ele>557</ele>
        <time>2017-10-15T23:52:46Z</time>
      </trkpt>
      <trkpt lat="46.07613" lon="2.6484">
        <ele>555</ele>
        <time>2017-10-15T23:54:46Z</time>
      </trkpt>
      <trkpt lat="46.07585" lon="2.64801">
        <ele>549</ele>
        <time>2017-10-15T23:56:46Z</time>
      </trkpt>
      <trkpt lat="46.07568" lon="2.64755">
        <ele>544</ele>
        <time>2017-10-15T23:58:46Z</time>
      </trkpt>
      <trkpt lat="46.07541" lon="2.64693">
        <ele>543</ele>
        <time>2017-10-16T00:00:46Z</time>
      </trkpt>
      <trkpt lat="46.07516" lon="2.64663">
        <ele>545</ele>
        <time>2017-10-16T00:02:46Z</time>
      </trkpt>
      <trkpt lat="46.07507" lon="2.64661">
        <ele>546</ele>
        <time>2017-10-16T00:04:46Z</time>
      </trkpt>
      <trkpt lat="46.07492" lon="2.64662">
        <ele>547</ele>
        <time>2017-10-16T00:06:46Z</time>
      </trkpt>
      <trkpt lat="46.07485" lon="2.64662">
        <ele>548</ele>
        <time>2017-10-16T00:08:46Z</time>
      </trkpt>
      <trkpt lat="46.07463" lon="2.64651">
        <ele>552</ele>
        <time>2017-10-16T00:10:46Z</time>
      </trkpt>
      <trkpt lat="46.07457" lon="2.64646">
        <ele>554</ele>
        <time>2017-10-16T00:12:46Z</time>
      </trkpt>
      <trkpt lat="46.07454" lon="2.64639">
        <ele>555</ele>
        <time>2017-10-16T00:14:46Z</time>
      </trkpt>
      <trkpt lat="46.07441" lon="2.64629">
        <ele>558</ele>
        <time>2017-10-16T00:16:46Z</time>
      </trkpt>
      <trkpt lat="46.07436" lon="2.64627">
        <ele>559</ele>
        <time>2017-10-16T00:18:46Z</time>
      </trkpt>
      <trkpt lat="46.07427" lon="2.64624">
        <ele>561</ele>
        <time>2017-10-16T00:20:46Z</time>
      </trkpt>
      <trkpt lat="46.07406" lon="2.64617">
        <ele>564</ele>
        <time>2017-10-16T00:22:46Z</time>
      </trkpt>
      <trkpt lat="46.07397" lon="2.64613">
        <ele>566</ele>
        <time>2017-10-16T00:24:46Z</time>
      </trkpt>
      <trkpt lat="46.07384" lon="2.64605">
        <ele>569</ele>
        <time>2017-10-16T00:26:46Z</time>
      </trkpt>
      <trkpt lat="46.07368" lon="2.64599">
        <ele>572</ele>
        <time>2017-10-16T00:28:46Z</time>
      </trkpt>
      <trkpt lat="46.07355" lon="2.64597">
        <ele>574</ele>
        <time>2017-10-16T00:30:46Z</time>
      </trkpt>
      <trkpt lat="46.07336" lon="2.64596">
        <ele>576</ele>
        <time>2017-10-16T00:32:46Z</time>
      </trkpt>
      <trkpt lat="46.07318" lon="2.64588">
        <ele>578</ele>
        <time>2017-10-16T00:34:46Z</time>
      </trkpt>
      <trkpt lat="46.07302" lon="2.64563">
        <ele>580</ele>
        <time>2017-10-16T00:36:46Z</time>
      </trkpt>
      <trkpt lat="46.07298" lon="2.64546">
        <ele>581</ele>
        <time>2017-10-16T00:38:46Z</time>
      </trkpt>
      <trkpt lat="46.07294" lon="2.64516">
        <ele>582</ele>
        <time>2017-10-16T00:40:46Z</time>
      </trkpt>
      <trkpt lat="46.07292" lon="2.64484">
        <ele>584</ele>
        <time>2017-10-16T00:42:46Z</time>
      </trkpt>
      <trkpt lat="46.07294" lon="2.64459">
        <ele>586</ele>
        <time>2017-10-16T00:44:46Z</time>
      </trkpt>
      <trkpt lat="46.07291" lon="2.64429">
        <ele>588</ele>
        <time>2017-10-16T00:46:46Z</time>
      </trkpt>
      <trkpt lat="46.07288" lon="2.64402">
        <ele>589</ele>
        <time>2017-10-16T00:48:46Z</time>
      </trkpt>
      <trkpt lat="46.07277" lon="2.64379">
        <ele>590</ele>
        <time>2017-10-16T00:50:46Z</time>
      </trkpt>
      <trkpt lat="46.07272" lon="2.64371">
        <ele>591</ele>
        <time>2017-10-16T00:52:46Z</time>
      </trkpt>
      <trkpt lat="46.07261" lon="2.64341">
        <ele>592</ele>
        <time>2017-10-16T00:54:46Z</time>
      </trkpt>
      <trkpt lat="46.07252" lon="2.64302">
        <ele>594</ele>
        <time>2017-10-16T00:56:46Z</time>
      </trkpt>
      <trkpt lat="46.07253" lon="2.64263">
        <ele>595</ele>
        <time>2017-10-16T00:58:46Z</time>
      </trkpt>
      <trkpt lat="46.07256" lon="2.64256">
        <ele>595</ele>
        <time>2017-10-16T01:00:46Z</time>
      </trkpt>
      <trkpt lat="46.07259" lon="2.64253">
        <ele>595</ele>
        <time>2017-10-16T01:02:46Z</time>
      </trkpt>
      <trkpt lat="46.07261" lon="2.64235">
        <ele>595</ele>
        <time>2017-10-16T01:04:46Z</time>
      </trkpt>
      <trkpt lat="46.07256" lon="2.64142">
        <ele>593</ele>
        <time>2017-10-16T01:06:46Z</time>
      </trkpt>
      <trkpt lat="46.07231" lon="2.64027">
        <ele>592</ele>
        <time>2017-10-16T01:08:46Z</time>
      </trkpt>
      <trkpt lat="46.07218" lon="2.63975">
        <ele>593</ele>
        <time>2017-10-16T01:10:46Z</time>
      </trkpt>
      <trkpt lat="46.07195" lon="2.63875">
        <ele>596</ele>
        <time>2017-10-16T01:12:46Z</time>
      </trkpt>
      <trkpt lat="46.07195" lon="2.63871">
        <ele>596</ele>
        <time>2017-10-16T01:14:46Z</time>
      </trkpt>
      <trkpt lat="46.07185" lon="2.63825">
        <ele>596</ele>
        <time>2017-10-16T01:16:46Z</time>
      </trkpt>
      <trkpt lat="46.07176" lon="2.6377">
        <ele>595</ele>
        <time>2017-10-16T01:18:46Z</time>
      </trkpt>
      <trkpt lat="46.07166" lon="2.63701">
        <ele>594</ele>
        <time>2017-10-16T01:20:46Z</time>
      </trkpt>
      <trkpt lat="46.07162" lon="2.63627">
        <ele>593</ele>
        <time>2017-10-16T01:22:46Z</time>
      </trkpt>
      <trkpt lat="46.07142" lon="2.63541">
        <ele>591</ele>
        <time>2017-10-16T01:24:46Z</time>
      </trkpt>
      <trkpt lat="46.07118" lon="2.6345">
        <ele>588</ele>
        <time>2017-10-16T01:26:46Z</time>
      </trkpt>
      <trkpt lat="46.07116" lon="2.63438">
        <ele>587</ele>
        <time>2017-10-16T01:28:46Z</time>
      </trkpt>
      <trkpt lat="46.07112" lon="2.63423">
        <ele>586</ele>
        <time>2017-10-16T01:30:46Z</time>
      </trkpt>
      <trkpt lat="46.07115" lon="2.63394">
        <ele>585</ele>
        <time>2017-10-16T01:32:46Z</time>
      </trkpt>
      <trkpt lat="46.07109" lon="2.63329">
        <ele>581</ele>
        <time>2017-10-16T01:34:46Z</time>
      </trkpt>
      <trkpt lat="46.07103" lon="2.63306">
        <ele>580</ele>
        <time>2017-10-16T01:36:46Z</time>
      </trkpt>
      <trkpt lat="46.07074" lon="2.63212">
        <ele>574</ele>
        <time>2017-10-16T01:38:46Z</time>
      </trkpt>
      <trkpt lat="46.07067" lon="2.63196">
        <ele>573</ele>
        <time>2017-10-16T01:40:46Z</time>
      </trkpt>
      <trkpt lat="46.07064" lon="2.6319">
        <ele>573</ele>
        <time>2017-10-16T01:42:46Z</time>
      </trkpt>
      <trkpt lat="46.07061" lon="2.63184">
        <ele>572</ele>
        <time>2017-10-16T01:44:46Z</time>
      </trkpt>
      <trkpt lat="46.0706" lon="2.63179">
        <ele>572</ele>
        <time>2017-10-16T01:46:46Z</time>
      </trkpt>
      <trkpt lat="46.0706" lon="2.63173">
        <ele>572</ele>
        <time>2017-10-16T01:48:46Z</time>
      </trkpt>
      <trkpt lat="46.07065" lon="2.63161">
        <ele>571</ele>
        <time>2017-10-16T01:50:46Z</time>
      </trkpt>
      <trkpt lat="46.07075" lon="2.63136">
        <ele>570</ele>
        <time>2017-10-16T01:52:46Z</time>
      </trkpt>
      <trkpt lat="46.07088" lon="2.63109">
        <ele>567</ele>
        <time>2017-10-16T01:54:46Z</time>
      </trkpt>
      <trkpt lat="46.07098" lon="2.63098">
        <ele>566</ele>
        <time>2017-10-16T01:56:46Z</time>
      </trkpt>
      <trkpt lat="46.07119" lon="2.63081">
        <ele>563</ele>
        <time>2017-10-16T01:58:46Z</time>
      </trkpt>
      <trkpt lat="46.07137" lon="2.63067">
        <ele>560</ele>
        <time>2017-10-16T02:00:46Z</time>
      </trkpt>
      <trkpt lat="46.07179" lon="2.63052">
        <ele>557</ele>
        <time>2017-10-16T02:02:46Z</time>
      </trkpt>
      <trkpt lat="46.07208" lon="2.63023">
        <ele>557</ele>
        <time>2017-10-16T02:04:46Z</time>
      </trkpt>
      <trkpt lat="46.07237" lon="2.62973">
        <ele>555</ele>
        <time>2017-10-16T02:06:46Z</time>
      </trkpt>
      <trkpt lat="46.07259" lon="2.62957">
        <ele>556</ele>
        <time>2017-10-16T02:08:46Z</time>
      </trkpt>
      <trkpt lat="46.07279" lon="2.62949">
        <ele>557</ele>
        <time>2017-10-16T02:10:46Z</time>
      </trkpt>
      <trkpt lat="46.07299" lon="2.62942">
        <ele>558</ele>
        <time>2017-10-16T02:12:46Z</time>
      </trkpt>
      <trkpt lat="46.0733" lon="2.62939">
        <ele>559</ele>
        <time>2017-10-16T02:14:46Z</time>
      </trkpt>
      <trkpt lat="46.07365" lon="2.62933">
        <ele>559</ele>
        <time>2017-10-16T02:16:46Z</time>
      </trkpt>
      <trkpt lat="46.07499" lon="2.62918">
        <ele>558</ele>
        <time>2017-10-16T02:18:46Z</time>
      </trkpt>
      <trkpt lat="46.075" lon="2.62913">
        <ele>558</ele>
        <time>2017-10-16T02:20:46Z</time>
      </trkpt>
      <trkpt lat="46.0748" lon="2.62906">
        <ele>557</ele>
        <time>2017-10-16T02:22:46Z</time>
      </trkpt>
      <trkpt lat="46.0748" lon="2.62905">
        <ele>557</ele>
        <time>2017-10-16T02:24:46Z</time>
      </trkpt>
      <trkpt lat="46.07456" lon="2.62885">
        <ele>555</ele>
        <time>2017-10-16T02:26:46Z</time>
      </trkpt>
      <trkpt lat="46.0745" lon="2.62877">
        <ele>554</ele>
        <time>2017-10-16T02:28:46Z</time>
      </trkpt>
      <trkpt lat="46.07409" lon="2.62832">
        <ele>550</ele>
        <time>2017-10-16T02:30:46Z</time>
      </trkpt>
      <trkpt lat="46.07395" lon="2.62798">
        <ele>549</ele>
        <time>2017-10-16T02:32:46Z</time>
      </trkpt>
      <trkpt lat="46.07392" lon="2.62774">
        <ele>548</ele>
        <time>2017-10-16T02:34:46Z</time>
      </trkpt>
      <trkpt lat="46.07393" lon="2.62753">
        <ele>547</ele>
        <time>2017-10-16T02:36:46Z</time>
      </trkpt>
      <trkpt lat="46.07387" lon="2.62729">
        <ele>546</ele>
        <time>2017-10-16T02:38:46Z</time>
      </trkpt>
      <trkpt lat="46.07348" lon="2.62681">
        <ele>542</ele>
        <time>2017-10-16T02:40:46Z</time>
      </trkpt>
      <trkpt lat="46.07246" lon="2.6256">
        <ele>533</ele>
        <time>2017-10-16T02:42:46Z</time>
      </trkpt>
      <trkpt lat="46.07191" lon="2.62486">
        <ele>524</ele>
        <time>2017-10-16T02:44:46Z</time>
      </trkpt>
      <trkpt lat="46.0718" lon="2.62474">
        <ele>523</ele>
        <time>2017-10-16T02:46:46Z</time>
      </trkpt>
      <trkpt lat="46.07132" lon="2.62387">
        <ele>522</ele>
        <time>2017-10-16T02:48:46Z</time>
      </trkpt>
      <trkpt lat="46.07114" lon="2.62342">
        <ele>525</ele>
        <time>2017-10-16T02:50:46Z</time>
      </trkpt>
      <trkpt lat="46.07106" lon="2.62308">
        <ele>528</ele>
        <time>2017-10-16T02:52:46Z</time>
      </trkpt>
      <trkpt lat="46.07096" lon="2.62274">
        <ele>530</ele>
        <time>2017-10-16T02:54:46Z</time>
      </trkpt>
      <trkpt lat="46.07092" lon="2.62257">
        <ele>530</ele>
        <time>2017-10-16T02:56:46Z</time>
      </trkpt>
      <trkpt lat="46.07092" lon="2.62253">
        <ele>530</ele>
        <time>2017-10-16T02:58:46Z</time>
      </trkpt>
      <trkpt lat="46.07091" lon="2.62249">
        <ele>531</ele>
        <time>2017-10-16T03:00:46Z</time>
      </trkpt>
      <trkpt lat="46.07079" lon="2.62211">
        <ele>531</ele>
        <time>2017-10-16T03:02:46Z</time>
      </trkpt>
      <trkpt lat="46.07057" lon="2.62174">
        <ele>531</ele>
        <time>2017-10-16T03:04:46Z</time>
      </trkpt>
      <trkpt lat="46.0704" lon="2.62126">
        <ele>531</ele>
        <time>2017-10-16T03:06:46Z</time>
      </trkpt>
      <trkpt lat="46.0703" lon="2.62073">
        <ele>531</ele>
        <time>2017-10-16T03:08:46Z</time>
      </trkpt>
      <trkpt lat="46.07015" lon="2.62035">
        <ele>533</ele>
        <time>2017-10-16T03:10:46Z</time>
      </trkpt>
      <trkpt lat="46.07009" lon="2.62015">
        <ele>534</ele>
        <time>2017-10-16T03:12:46Z</time>
      </trkpt>
      <trkpt lat="46.06998" lon="2.61986">
        <ele>536</ele>
        <time>2017-10-16T03:14:46Z</time>
      </trkpt>
      <trkpt lat="46.06988" lon="2.61953">
        <ele>538</ele>
        <time>2017-10-16T03:16:46Z</time>
      </trkpt>
      <trkpt lat="46.06977" lon="2.61929">
        <ele>540</ele>
        <time>2017-10-16T03:18:46Z</time>
      </trkpt>
      <trkpt lat="46.06957" lon="2.61907">
        <ele>542</ele>
        <time>2017-10-16T03:20:46Z</time>
      </trkpt>
      <trkpt lat="46.06941" lon="2.61891">
        <ele>544</ele>
        <time>2017-10-16T03:22:46Z</time>
      </trkpt>
      <trkpt lat="46.06911" lon="2.61852">
        <ele>547</ele>
        <time>2017-10-16T03:24:46Z</time>
      </trkpt>
      <trkpt lat="46.06895" lon="2.61826">
        <ele>549</ele>
        <time>2017-10-16T03:26:46Z</time>
      </trkpt>
      <trkpt lat="46.06885" lon="2.61798">
        <ele>550</ele>
        <time>2017-10-16T03:28:46Z</time>
      </trkpt>
      <trkpt lat="46.06877" lon="2.6177">
        <ele>552</ele>
        <time>2017-10-16T03:30:46Z</time>
      </trkpt>
      <trkpt lat="46.06871" lon="2.61747">
        <ele>553</ele>
        <time>2017-10-16T03:32:46Z</time>
      </trkpt>
      <trkpt lat="46.06871" lon="2.61742">
        <ele>554</ele>
        <time>2017-10-16T03:34:46Z</time>
      </trkpt>
      <trkpt lat="46.06863" lon="2.61713">
        <ele>555</ele>
        <time>2017-10-16T03:36:46Z</time>
      </trkpt>
      <trkpt lat="46.06846" lon="2.61681">
        <ele>558</ele>
        <time>2017-10-16T03:38:46Z</time>
      </trkpt>
      <trkpt lat="46.06827" lon="2.61649">
        <ele>559</ele>
        <time>2017-10-16T03:40:46Z</time>
      </trkpt>
      <trkpt lat="46.06806" lon="2.61621">
        <ele>561</ele>
        <time>2017-10-16T03:42:46Z</time>
      </trkpt>
      <trkpt lat="46.06791" lon="2.61602">
        <ele>562</ele>
        <time>2017-10-16T03:44:46Z</time>
      </trkpt>
      <trkpt lat="46.06777" lon="2.61587">
        <ele>564</ele>
        <time>2017-10-16T03:46:46Z</time>
      </trkpt>
      <trkpt lat="46.06763" lon="2.61561">
        <ele>566</ele>
        <time>2017-10-16T03:48:46Z</time>
      </trkpt>
      <trkpt lat="46.06761" lon="2.61532">
        <ele>568</ele>
        <time>2017-10-16T03:50:46Z</time>
      </trkpt>
      <trkpt lat="46.06761" lon="2.61527">
        <ele>568</ele>
        <time>2017-10-16T03:52:46Z</time>
      </trkpt>
      <trkpt lat="46.0676" lon="2.615">
        <ele>570</ele>
        <time>2017-10-16T03:54:46Z</time>
      </trkpt>
      <trkpt lat="46.06755" lon="2.61475">
        <ele>572</ele>
        <time>2017-10-16T03:56:46Z</time>
      </trkpt>
      <trkpt lat="46.06754" lon="2.61469">
        <ele>572</ele>
        <time>2017-10-16T03:58:46Z</time>
      </trkpt>
      <trkpt lat="46.06747" lon="2.61418">
        <ele>576</ele>
        <time>2017-10-16T04:00:46Z</time>
      </trkpt>
      <trkpt lat="46.06737" lon="2.61381">
        <ele>580</ele>
        <time>2017-10-16T04:02:46Z</time>
      </trkpt>
      <trkpt lat="46.06732" lon="2.61343">
        <ele>583</ele>
        <time>2017-10-16T04:04:46Z</time>
      </trkpt>
      <trkpt lat="46.06733" lon="2.61312">
        <ele>584</ele>
        <time>2017-10-16T04:06:46Z</time>
      </trkpt>
      <trkpt lat="46.06733" lon="2.61299">
        <ele>584</ele>
        <time>2017-10-16T04:08:46Z</time>
      </trkpt>
      <trkpt lat="46.0673" lon="2.61281">
        <ele>585</ele>
        <time>2017-10-16T04:10:46Z</time>
      </trkpt>
      <trkpt lat="46.06714" lon="2.6126">
        <ele>586</ele>
        <time>2017-10-16T04:12:46Z</time>
      </trkpt>
      <trkpt lat="46.06699" lon="2.61233">
        <ele>586</ele>
        <time>2017-10-16T04:14:46Z</time>
      </trkpt>
      <trkpt lat="46.06698" lon="2.6123">
        <ele>586</ele>
        <time>2017-10-16T04:16:46Z</time>
      </trkpt>
      <trkpt lat="46.06692" lon="2.61238">
        <ele>587</ele>
        <time>2017-10-16T04:18:46Z</time>
      </trkpt>
      <trkpt lat="46.0669" lon="2.61225">
        <ele>587</ele>
        <time>2017-10-16T04:20:46Z</time>
      </trkpt>
      <trkpt lat="46.06692" lon="2.61218">
        <ele>587</ele>
        <time>2017-10-16T04:22:46Z</time>
      </trkpt>
      <trkpt lat="46.06706" lon="2.61205">
        <ele>586</ele>
        <time>2017-10-16T04:24:46Z</time>
      </trkpt>
      <trkpt lat="46.06743" lon="2.61172">
        <ele>587</ele>
        <time>2017-10-16T04:26:46Z</time>
      </trkpt>
      <trkpt lat="46.06753" lon="2.61162">
        <ele>587</ele>
        <time>2017-10-16T04:28:46Z</time>
      </trkpt>
      <trkpt lat="46.06757" lon="2.61157">
        <ele>586</ele>
        <time>2017-10-16T04:30:46Z</time>
      </trkpt>
      <trkpt lat="46.06781" lon="2.61119">
        <ele>585</ele>
        <time>2017-10-16T04:32:46Z</time>
      </trkpt>
      <trkpt lat="46.06792" lon="2.61087">
        <ele>584</ele>
        <time>2017-10-16T04:34:46Z</time>
      </trkpt>
      <trkpt lat="46.06805" lon="2.61027">
        <ele>581</ele>
        <time>2017-10-16T04:36:46Z</time>
      </trkpt>
      <trkpt lat="46.06826" lon="2.6098">
        <ele>579</ele>
        <time>2017-10-16T04:38:46Z</time>
      </trkpt>
      <trkpt lat="46.06835" lon="2.60943">
        <ele>576</ele>
        <time>2017-10-16T04:40:46Z</time>
      </trkpt>
      <trkpt lat="46.06839" lon="2.60908">
        <ele>573</ele>
        <time>2017-10-16T04:42:46Z</time>
      </trkpt>
      <trkpt lat="46.06837" lon="2.60885">
        <ele>571</ele>
        <time>2017-10-16T04:44:46Z</time>
      </trkpt>
      <trkpt lat="46.06825" lon="2.60844">
        <ele>568</ele>
        <time>2017-10-16T04:46:46Z</time>
      </trkpt>
      <trkpt lat="46.06823" lon="2.60836">
        <ele>568</ele>
        <time>2017-10-16T04:48:46Z</time>
      </trkpt>
      <trkpt lat="46.06826" lon="2.6082">
        <ele>568</ele>
        <time>2017-10-16T04:50:46Z</time>
      </trkpt>
      <trkpt lat="46.06832" lon="2.6081">
        <ele>567</ele>
        <time>2017-10-16T04:52:46Z</time>
      </trkpt>
      <trkpt lat="46.06837" lon="2.60805">
        <ele>567</ele>
        <time>2017-10-16T04:54:46Z</time>
      </trkpt>
      <trkpt lat="46.06856" lon="2.60778">
        <ele>566</ele>
        <time>2017-10-16T04:56:46Z</time>
      </trkpt>
      <trkpt lat="46.06869" lon="2.60753">
        <ele>565</ele>
        <time>2017-10-16T04:58:46Z</time>
      </trkpt>
      <trkpt lat="46.06867" lon="2.60742">
        <ele>566</ele>
        <time>2017-10-16T05:00:46Z</time>
      </trkpt>
      <trkpt lat="46.06866" lon="2.60742">
        <ele>566</ele>
        <time>2017-10-16T05:02:46Z</time>
      </trkpt>
      <trkpt lat="46.06857" lon="2.60726">
        <ele>568</ele>
        <time>2017-10-16T05:04:46Z</time>
      </trkpt>
      <trkpt lat="46.06849" lon="2.60715">
        <ele>569</ele>
        <time>2017-10-16T05:06:46Z</time>
      </trkpt>
      <trkpt lat="46.06828" lon="2.60686">
        <ele>571</ele>
        <time>2017-10-16T05:08:46Z</time>
      </trkpt>
      <trkpt lat="46.06812" lon="2.60665">
        <ele>574</ele>
        <time>2017-10-16T05:10:46Z</time>
      </trkpt>
      <trkpt lat="46.06794" lon="2.60649">
        <ele>575</ele>
        <time>2017-10-16T05:12:46Z</time>
      </trkpt>
      <trkpt lat="46.06762" lon="2.60629">
        <ele>577</ele>
        <time>2017-10-16T05:14:46Z</time>
      </trkpt>
      <trkpt lat="46.06747" lon="2.60611">
        <ele>578</ele>
        <time>2017-10-16T05:16:46Z</time>
      </trkpt>
      <trkpt lat="46.06738" lon="2.60595">
        <ele>578</ele>
        <time>2017-10-16T05:18:46Z</time>
      </trkpt>
      <trkpt lat="46.06733" lon="2.6059">
        <ele>579</ele>
        <time>2017-10-16T05:20:46Z</time>
      </trkpt>
      <trkpt lat="46.06713" lon="2.6056">
        <ele>582</ele>
        <time>2017-10-16T05:22:46Z</time>
      </trkpt>
      <trkpt lat="46.06706" lon="2.60551">
        <ele>584</ele>
        <time>2017-10-16T05:24:46Z</time>
      </trkpt>
      <trkpt lat="46.067" lon="2.6054">
        <ele>586</ele>
        <time>2017-10-16T05:26:46Z</time>
      </trkpt>
      <trkpt lat="46.06681" lon="2.6051">
        <ele>590</ele>
        <time>2017-10-16T05:28:46Z</time>
      </trkpt>
      <trkpt lat="46.06671" lon="2.60496">
        <ele>593</ele>
        <time>2017-10-16T05:30:46Z</time>
      </trkpt>
      <trkpt lat="46.06662" lon="2.60478">
        <ele>595</ele>
        <time>2017-10-16T05:32:46Z</time>
      </trkpt>
      <trkpt lat="46.06657" lon="2.60456">
        <ele>597</ele>
        <time>2017-10-16T05:34:46Z</time>
      </trkpt>
      <trkpt lat="46.06653" lon="2.60436">
        <ele>599</ele>
        <time>2017-10-16T05:36:46Z</time>
      </trkpt>
      <trkpt lat="46.06639" lon="2.60375">
        <ele>604</ele>
        <time>2017-10-16T05:38:46Z</time>
      </trkpt>
      <trkpt lat="46.06633" lon="2.6036">
        <ele>606</ele>
        <time>2017-10-16T05:40:46Z</time>
      </trkpt>
      <trkpt lat="46.0663" lon="2.60346">
        <ele>607</ele>
        <time>2017-10-16T05:42:46Z</time>
      </trkpt>
      <trkpt lat="46.06633" lon="2.60316">
        <ele>609</ele>
        <time>2017-10-16T05:44:46Z</time>
      </trkpt>
      <trkpt lat="46.06632" lon="2.6029">
        <ele>611</ele>
        <time>2017-10-16T05:46:46Z</time>
      </trkpt>
      <trkpt lat="46.06634" lon="2.6028">
        <ele>612</ele>
        <time>2017-10-16T05:48:46Z</time>
      </trkpt>
      <trkpt lat="46.06637" lon="2.60248">
        <ele>615</ele>
        <time>2017-10-16T05:50:46Z</time>
      </trkpt>
      <trkpt lat="46.06636" lon="2.60217">
        <ele>617</ele>
        <time>2017-10-16T05:52:46Z</time>
      </trkpt>
      <trkpt lat="46.0663" lon="2.60175">
        <ele>619</ele>
        <time>2017-10-16T05:54:46Z</time>
      </trkpt>
      <trkpt lat="46.06639" lon="2.60124">
        <ele>619</ele>
        <time>2017-10-16T05:56:46Z</time>
      </trkpt>
      <trkpt lat="46.06635" lon="2.60101">
        <ele>618</ele>
        <time>2017-10-16T05:58:46Z</time>
      </trkpt>
      <trkpt lat="46.06627" lon="2.60092">
        <ele>618</ele>
        <time>2017-10-16T06:00:46Z</time>
      </trkpt>
      <trkpt lat="46.06605" lon="2.60045">
        <ele>615</ele>
        <time>2017-10-16T06:02:46Z</time>
      </trkpt>
      <trkpt lat="46.06597" lon="2.59992">
        <ele>612</ele>
        <time>2017-10-16T06:04:46Z</time>
      </trkpt>
      <trkpt lat="46.06575" lon="2.59955">
        <ele>608</ele>
        <time>2017-10-16T06:06:46Z</time>
      </trkpt>
      <trkpt lat="46.06557" lon="2.59956">
        <ele>607</ele>
        <time>2017-10-16T06:08:46Z</time>
      </trkpt>
      <trkpt lat="46.06498" lon="2.59967">
        <ele>605</ele>
        <time>2017-10-16T06:10:46Z</time>
      </trkpt>
      <trkpt lat="46.06488" lon="2.59964">
        <ele>605</ele>
        <time>2017-10-16T06:12:46Z</time>
      </trkpt>
      <trkpt lat="46.06475" lon="2.59955">
        <ele>603</ele>
        <time>2017-10-16T06:14:46Z</time>
      </trkpt>
      <trkpt lat="46.06517" lon="2.59785">
        <ele>597</ele>
        <time>2017-10-16T06:16:46Z</time>
      </trkpt>
      <trkpt lat="46.06512" lon="2.5975">
        <ele>596</ele>
        <time>2017-10-16T06:18:46Z</time>
      </trkpt>
      <trkpt lat="46.06504" lon="2.59729">
        <ele>594</ele>
        <time>2017-10-16T06:20:46Z</time>
      </trkpt>
      <trkpt lat="46.065" lon="2.59685">
        <ele>591</ele>
        <time>2017-10-16T06:22:46Z</time>
      </trkpt>
      <trkpt lat="46.0649" lon="2.59679">
        <ele>590</ele>
        <time>2017-10-16T06:24:46Z</time>
      </trkpt>
      <trkpt lat="46.06477" lon="2.59686">
        <ele>589</ele>
        <time>2017-10-16T06:26:46Z</time>
      </trkpt>
      <trkpt lat="46.0647" lon="2.59694">
        <ele>588</ele>
        <time>2017-10-16T06:28:46Z</time>
      </trkpt>
      <trkpt lat="46.06452" lon="2.59704">
        <ele>587</ele>
        <time>2017-10-16T06:30:46Z</time>
      </trkpt>
      <trkpt lat="46.0639" lon="2.59699">
        <ele>581</ele>
        <time>2017-10-16T06:32:46Z</time>
      </trkpt>
      <trkpt lat="46.06358" lon="2.59692">
        <ele>580</ele>
        <time>2017-10-16T06:34:46Z</time>
      </trkpt>
      <trkpt lat="46.06292" lon="2.59656">
        <ele>575</ele>
        <time>2017-10-16T06:36:46Z</time>
      </trkpt>
      <trkpt lat="46.06273" lon="2.59639">
        <ele>573</ele>
        <time>2017-10-16T06:38:46Z</time>
      </trkpt>
      <trkpt lat="46.06254" lon="2.59617">
        <ele>571</ele>
        <time>2017-10-16T06:40:46Z</time>
      </trkpt>
      <trkpt lat="46.06178" lon="2.59522">
        <ele>564</ele>
        <time>2017-10-16T06:42:46Z</time>
      </trkpt>
      <trkpt lat="46.06148" lon="2.595">
        <ele>563</ele>
        <time>2017-10-16T06:44:46Z</time>
      </trkpt>
      <trkpt lat="46.06122" lon="2.59493">
        <ele>564</ele>
        <time>2017-10-16T06:46:46Z</time>
      </trkpt>
      <trkpt lat="46.06067" lon="2.59491">
        <ele>566</ele>
        <time>2017-10-16T06:48:46Z</time>
      </trkpt>
      <trkpt lat="46.06014" lon="2.5948">
        <ele>568</ele>
        <time>2017-10-16T06:50:46Z</time>
      </trkpt>
      <trkpt lat="46.05952" lon="2.59468">
        <ele>571</ele>
        <time>2017-10-16T06:52:46Z</time>
      </trkpt>
      <trkpt lat="46.0593" lon="2.5946">
        <ele>572</ele>
        <time>2017-10-16T06:54:46Z</time>
      </trkpt>
      <trkpt lat="46.05898" lon="2.59455">
        <ele>573</ele>
        <time>2017-10-16T06:56:46Z</time>
      </trkpt>
      <trkpt lat="46.05869" lon="2.59455">
        <ele>574</ele>
        <time>2017-10-16T06:58:46Z</time>
      </trkpt>
      <trkpt lat="46.05845" lon="2.59462">
        <ele>575</ele>
        <time>2017-10-16T07:00:46Z</time>
      </trkpt>
      <trkpt lat="46.05816" lon="2.5947">
        <ele>576</ele>
        <time>2017-10-16T07:02:46Z</time>
      </trkpt>
      <trkpt lat="46.05722" lon="2.59469">
        <ele>578</ele>
        <time>2017-10-16T07:04:46Z</time>
      </trkpt>
      <trkpt lat="46.05677" lon="2.59481">
        <ele>578</ele>
        <time>2017-10-16T07:06:46Z</time>
      </trkpt>
      <trkpt lat="46.05651" lon="2.59515">
        <ele>577</ele>
        <time>2017-10-16T07:08:46Z</time>
      </trkpt>
      <trkpt lat="46.05624" lon="2.59573">
        <ele>576</ele>
        <time>2017-10-16T07:10:46Z</time>
      </trkpt>
      <trkpt lat="46.05616" lon="2.59594">
        <ele>576</ele>
        <time>2017-10-16T07:12:46Z</time>
      </trkpt>
      <trkpt lat="46.05611" lon="2.59608">
        <ele>577</ele>
        <time>2017-10-16T07:14:46Z</time>
      </trkpt>
      <trkpt lat="46.05608" lon="2.59612">
        <ele>577</ele>
        <time>2017-10-16T07:16:46Z</time>
      </trkpt>
      <trkpt lat="46.05608" lon="2.59618">
        <ele>577</ele>
        <time>2017-10-16T07:18:46Z</time>
      </trkpt>
      <trkpt lat="46.0561" lon="2.59627">
        <ele>577</ele>
        <time>2017-10-16T07:20:46Z</time>
      </trkpt>
      <trkpt lat="46.05619" lon="2.59655">
        <ele>577</ele>
        <time>2017-10-16T07:22:46Z</time>
      </trkpt>
      <trkpt lat="46.05623" lon="2.59666">
        <ele>577</ele>
        <time>2017-10-16T07:24:46Z</time>
      </trkpt>
      <trkpt lat="46.05635" lon="2.59705">
        <ele>577</ele>
        <time>2017-10-16T07:26:46Z</time>
      </trkpt>
      <trkpt lat="46.0564" lon="2.59724">
        <ele>577</ele>
        <time>2017-10-16T07:28:46Z</time>
      </trkpt>
      <trkpt lat="46.0565" lon="2.59754">
        <ele>578</ele>
        <time>2017-10-16T07:30:46Z</time>
      </trkpt>
      <trkpt lat="46.05661" lon="2.59783">
        <ele>578</ele>
        <time>2017-10-16T07:32:46Z</time>
      </trkpt>
      <trkpt lat="46.0565" lon="2.59823">
        <ele>580</ele>
        <time>2017-10-16T07:34:46Z</time>
      </trkpt>
      <trkpt lat="46.05614" lon="2.59906">
        <ele>584</ele>
        <time>2017-10-16T07:36:46Z</time>
      </trkpt>
      <trkpt lat="46.05595" lon="2.59942">
        <ele>586</ele>
        <time>2017-10-16T07:38:46Z</time>
      </trkpt>
      <trkpt lat="46.05562" lon="2.60001">
        <ele>587</ele>
        <time>2017-10-16T07:40:46Z</time>
      </trkpt>
      <trkpt lat="46.05523" lon="2.60062">
        <ele>589</ele>
        <time>2017-10-16T07:42:46Z</time>
      </trkpt>
      <trkpt lat="46.0551" lon="2.60082">
        <ele>590</ele>
        <time>2017-10-16T07:44:46Z</time>
      </trkpt>
      <trkpt lat="46.05487" lon="2.6013">
        <ele>591</ele>
        <time>2017-10-16T07:46:46Z</time>
      </trkpt>
      <trkpt lat="46.05467" lon="2.60178">
        <ele>594</ele>
        <time>2017-10-16T07:48:46Z</time>
      </trkpt>
      <trkpt lat="46.05445" lon="2.60201">
        <ele>595</ele>
        <time>2017-10-16T07:50:46Z</time>
      </trkpt>
      <trkpt lat="46.05431" lon="2.60242">
        <ele>597</ele>
        <time>2017-10-16T07:52:46Z</time>
      </trkpt>
      <trkpt lat="46.05416" lon="2.60259">
        <ele>597</ele>
        <time>2017-10-16T07:54:46Z</time>
      </trkpt>
      <trkpt lat="46.05388" lon="2.60305">
        <ele>597</ele>
        <time>2017-10-16T07:56:46Z</time>
      </trkpt>
      <trkpt lat="46.05356" lon="2.60356">
        <ele>597</ele>
        <time>2017-10-16T07:58:46Z</time>
      </trkpt>
      <trkpt lat="46.05359" lon="2.60363">
        <ele>597</ele>
        <time>2017-10-16T08:00:46Z</time>
      </trkpt>
      <trkpt lat="46.05367" lon="2.60368">
        <ele>598</ele>
        <time>2017-10-16T08:02:46Z</time>
      </trkpt>
      <trkpt lat="46.05369" lon="2.60373">
        <ele>598</ele>
        <time>2017-10-16T08:04:46Z</time>
      </trkpt>
      <trkpt lat="46.05368" lon="2.60383">
        <ele>599</ele>
        <time>2017-10-16T08:06:46Z</time>
      </trkpt>
      <trkpt lat="46.05349" lon="2.60428">
        <ele>599</ele>
        <time>2017-10-16T08:08:46Z</time>
      </trkpt>
      <trkpt lat="46.05327" lon="2.60471">
        <ele>599</ele>
        <time>2017-10-16T08:10:46Z</time>
      </trkpt>
      <trkpt lat="46.05276" lon="2.6053">
        <ele>601</ele>
        <time>2017-10-16T08:12:46Z</time>
      </trkpt>
      <trkpt lat="46.05264" lon="2.60547">
        <ele>602</ele>
        <time>2017-10-16T08:14:46Z</time>
      </trkpt>
      <trkpt lat="46.05232" lon="2.60534">
        <ele>602</ele>
        <time>2017-10-16T08:16:46Z</time>
      </trkpt>
      <trkpt lat="46.05182" lon="2.60485">
        <ele>602</ele>
        <time>2017-10-16T08:18:46Z</time>
      </trkpt>
      <trkpt lat="46.05151" lon="2.60445">
        <ele>603</ele>
        <time>2017-10-16T08:20:46Z</time>
      </trkpt>
      <trkpt lat="46.05128" lon="2.60434">
        <ele>605</ele>
        <time>2017-10-16T08:22:46Z</time>
      </trkpt>
      <trkpt lat="46.05097" lon="2.60439">
        <ele>608</ele>
        <time>2017-10-16T08:24:46Z</time>
      </trkpt>
      <trkpt lat="46.05073" lon="2.60437">
        <ele>610</ele>
        <time>2017-10-16T08:26:46Z</time>
      </trkpt>
      <trkpt lat="46.05043" lon="2.60433">
        <ele>610</ele>
        <time>2017-10-16T08:28:46Z</time>
      </trkpt>
      <trkpt lat="46.05041" lon="2.60439">
        <ele>611</ele>
        <time>2017-10-16T08:30:46Z</time>
      </trkpt>
      <trkpt lat="46.05044" lon="2.60476">
        <ele>612</ele>
        <time>2017-10-16T08:32:46Z</time>
      </trkpt>
      <trkpt lat="46.05045" lon="2.60534">
        <ele>614</ele>
        <time>2017-10-16T08:34:46Z</time>
      </trkpt>
      <trkpt lat="46.05044" lon="2.60646">
        <ele>614</ele>
        <time>2017-10-16T08:36:46Z</time>
      </trkpt>
      <trkpt lat="46.05039" lon="2.60721">
        <ele>615</ele>
        <time>2017-10-16T08:38:46Z</time>
      </trkpt>
      <trkpt lat="46.05038" lon="2.60727">
        <ele>615</ele>
        <time>2017-10-16T08:40:46Z</time>
      </trkpt>
      <trkpt lat="46.05036" lon="2.6082">
        <ele>613</ele>
        <time>2017-10-16T08:42:46Z</time>
      </trkpt>
      <trkpt lat="46.0503" lon="2.60856">
        <ele>612</ele>
        <time>2017-10-16T08:44:46Z</time>
      </trkpt>
      <trkpt lat="46.05011" lon="2.60945">
        <ele>612</ele>
        <time>2017-10-16T08:46:46Z</time>
      </trkpt>
      <trkpt lat="46.05015" lon="2.6101">
        <ele>613</ele>
        <time>2017-10-16T08:48:46Z</time>
      </trkpt>
      <trkpt lat="46.05013" lon="2.61083">
        <ele>615</ele>
        <time>2017-10-16T08:50:46Z</time>
      </trkpt>
      <trkpt lat="46.04996" lon="2.61258">
        <ele>616</ele>
        <time>2017-10-16T08:52:46Z</time>
      </trkpt>
      <trkpt lat="46.04988" lon="2.61329">
        <ele>617</ele>
        <time>2017-10-16T08:54:46Z</time>
      </trkpt>
      <trkpt lat="46.04982" lon="2.61397">
        <ele>622</ele>
        <time>2017-10-16T08:56:46Z</time>
      </trkpt>
      <trkpt lat="46.04969" lon="2.61442">
        <ele>625</ele>
        <time>2017-10-16T08:58:46Z</time>
      </trkpt>
      <trkpt lat="46.04966" lon="2.61504">
        <ele>630</ele>
        <time>2017-10-16T09:00:46Z</time>
      </trkpt>
      <trkpt lat="46.04954" lon="2.61542">
        <ele>632</ele>
        <time>2017-10-16T09:02:46Z</time>
      </trkpt>
      <trkpt lat="46.04951" lon="2.61578">
        <ele>634</ele>
        <time>2017-10-16T09:04:46Z</time>
      </trkpt>
      <trkpt lat="46.04956" lon="2.61608">
        <ele>634</ele>
        <time>2017-10-16T09:06:46Z</time>
      </trkpt>
      <trkpt lat="46.04952" lon="2.61677">
        <ele>636</ele>
        <time>2017-10-16T09:08:46Z</time>
      </trkpt>
      <trkpt lat="46.04945" lon="2.61763">
        <ele>637</ele>
        <time>2017-10-16T09:10:46Z</time>
      </trkpt>
      <trkpt lat="46.04939" lon="2.61854">
        <ele>643</ele>
        <time>2017-10-16T09:12:46Z</time>
      </trkpt>
      <trkpt lat="46.04937" lon="2.6192">
        <ele>647</ele>
        <time>2017-10-16T09:14:46Z</time>
      </trkpt>
      <trkpt lat="46.04921" lon="2.62059">
        <ele>652</ele>
        <time>2017-10-16T09:16:46Z</time>
      </trkpt>
      <trkpt lat="46.04898" lon="2.62065">
        <ele>652</ele>
        <time>2017-10-16T09:18:46Z</time>
      </trkpt>
      <trkpt lat="46.04867" lon="2.62064">
        <ele>651</ele>
        <time>2017-10-16T09:20:46Z</time>
      </trkpt>
      <trkpt lat="46.04844" lon="2.62067">
        <ele>651</ele>
        <time>2017-10-16T09:22:46Z</time>
      </trkpt>
      <trkpt lat="46.04822" lon="2.62074">
        <ele>652</ele>
        <time>2017-10-16T09:24:46Z</time>
      </trkpt>
      <trkpt lat="46.04778" lon="2.62101">
        <ele>653</ele>
        <time>2017-10-16T09:26:46Z</time>
      </trkpt>
      <trkpt lat="46.04693" lon="2.62161">
        <ele>655</ele>
        <time>2017-10-16T09:28:46Z</time>
      </trkpt>
      <trkpt lat="46.04664" lon="2.62183">
        <ele>656</ele>
        <time>2017-10-16T09:30:46Z</time>
      </trkpt>
      <trkpt lat="46.04602" lon="2.62227">
        <ele>657</ele>
        <time>2017-10-16T09:32:46Z</time>
      </trkpt>
      <trkpt lat="46.04502" lon="2.62297">
        <ele>660</ele>
        <time>2017-10-16T09:34:46Z</time>
      </trkpt>
      <trkpt lat="46.04464" lon="2.62321">
        <ele>662</ele>
        <time>2017-10-16T09:36:46Z</time>
      </trkpt>
      <trkpt lat="46.04434" lon="2.62345">
        <ele>663</ele>
        <time>2017-10-16T09:38:46Z</time>
      </trkpt>
      <trkpt lat="46.04406" lon="2.62378">
        <ele>663</ele>
        <time>2017-10-16T09:40:46Z</time>
      </trkpt>
      <trkpt lat="46.04372" lon="2.62445">
        <ele>667</ele>
        <time>2017-10-16T09:42:46Z</time>
      </trkpt>
      <trkpt lat="46.04376" lon="2.62471">
        <ele>668</ele>
        <time>2017-10-16T09:44:46Z</time>
      </trkpt>
      <trkpt lat="46.0438" lon="2.62508">
        <ele>670</ele>
        <time>2017-10-16T09:46:46Z</time>
      </trkpt>
      <trkpt lat="46.04375" lon="2.6254">
        <ele>672</ele>
        <time>2017-10-16T09:48:46Z</time>
      </trkpt>
      <trkpt lat="46.04357" lon="2.62565">
        <ele>674</ele>
        <time>2017-10-16T09:50:46Z</time>
      </trkpt>
      <trkpt lat="46.04334" lon="2.62588">
        <ele>675</ele>
        <time>2017-10-16T09:52:46Z</time>
      </trkpt>
      <trkpt lat="46.0433" lon="2.62603">
        <ele>676</ele>
        <time>2017-10-16T09:54:46Z</time>
      </trkpt>
      <trkpt lat="46.04317" lon="2.62631">
        <ele>677</ele>
        <time>2017-10-16T09:56:46Z</time>
      </trkpt>
      <trkpt lat="46.04314" lon="2.62645">
        <ele>678</ele>
        <time>2017-10-16T09:58:46Z</time>
      </trkpt>
      <trkpt lat="46.04314" lon="2.6265">
        <ele>678</ele>
        <time>2017-10-16T10:00:46Z</time>
      </trkpt>
      <trkpt lat="46.04307" lon="2.62689">
        <ele>680</ele>
        <time>2017-10-16T10:02:46Z</time>
      </trkpt>
      <trkpt lat="46.04304" lon="2.62715">
        <ele>682</ele>
        <time>2017-10-16T10:04:46Z</time>
      </trkpt>
      <trkpt lat="46.04297" lon="2.62749">
        <ele>684</ele>
        <time>2017-10-16T10:06:46Z</time>
      </trkpt>
      <trkpt lat="46.04288" lon="2.62784">
        <ele>686</ele>
        <time>2017-10-16T10:08:46Z</time>
      </trkpt>
      <trkpt lat="46.04284" lon="2.62813">
        <ele>687</ele>
        <time>2017-10-16T10:10:46Z</time>
      </trkpt>
      <trkpt lat="46.04284" lon="2.62818">
        <ele>687</ele>
        <time>2017-10-16T10:12:46Z</time>
      </trkpt>
      <trkpt lat="46.04289" lon="2.62837">
        <ele>688</ele>
        <time>2017-10-16T10:14:46Z</time>
      </trkpt>
      <trkpt lat="46.04304" lon="2.62843">
        <ele>689</ele>
        <time>2017-10-16T10:16:46Z</time>
      </trkpt>
      <trkpt lat="46.04324" lon="2.62826">
        <ele>688</ele>
        <time>2017-10-16T10:18:46Z</time>
      </trkpt>
      <trkpt lat="46.04348" lon="2.62824">
        <ele>689</ele>
        <time>2017-10-16T10:20:46Z</time>
      </trkpt>
      <trkpt lat="46.04373" lon="2.6284">
        <ele>690</ele>
        <time>2017-10-16T10:22:46Z</time>
      </trkpt>
      <trkpt lat="46.04395" lon="2.62858">
        <ele>691</ele>
        <time>2017-10-16T10:24:46Z</time>
      </trkpt>
      <trkpt lat="46.04402" lon="2.62869">
        <ele>692</ele>
        <time>2017-10-16T10:26:46Z</time>
      </trkpt>
      <trkpt lat="46.04418" lon="2.62893">
        <ele>692</ele>
        <time>2017-10-16T10:28:46Z</time>
      </trkpt>
      <trkpt lat="46.04422" lon="2.62903">
        <ele>692</ele>
        <time>2017-10-16T10:30:46Z</time>
      </trkpt>
      <trkpt lat="46.04424" lon="2.62917">
        <ele>692</ele>
        <time>2017-10-16T10:32:46Z</time>
      </trkpt>
      <trkpt lat="46.04422" lon="2.62924">
        <ele>693</ele>
        <time>2017-10-16T10:34:46Z</time>
      </trkpt>
      <trkpt lat="46.04392" lon="2.62967">
        <ele>694</ele>
        <time>2017-10-16T10:36:46Z</time>
      </trkpt>
      <trkpt lat="46.04371" lon="2.63">
        <ele>696</ele>
        <time>2017-10-16T10:38:46Z</time>
      </trkpt>
      <trkpt lat="46.04357" lon="2.6301">
        <ele>697</ele>
        <time>2017-10-16T10:40:46Z</time>
      </trkpt>
      <trkpt lat="46.0432" lon="2.63006">
        <ele>699</ele>
        <time>2017-10-16T10:42:46Z</time>
      </trkpt>
      <trkpt lat="46.04268" lon="2.62994">
        <ele>698</ele>
        <time>2017-10-16T10:44:46Z</time>
      </trkpt>
      <trkpt lat="46.04238" lon="2.62997">
        <ele>697</ele>
        <time>2017-10-16T10:46:46Z</time>
      </trkpt>
      <trkpt lat="46.04197" lon="2.63021">
        <ele>695</ele>
        <time>2017-10-16T10:48:46Z</time>
      </trkpt>
      <trkpt lat="46.04168" lon="2.6305">
        <ele>695</ele>
        <time>2017-10-16T10:50:46Z</time>
      </trkpt>
      <trkpt lat="46.04153" lon="2.63076">
        <ele>695</ele>
        <time>2017-10-16T10:52:46Z</time>
      </trkpt>
      <trkpt lat="46.04099" lon="2.633">
        <ele>692</ele>
        <time>2017-10-16T10:54:46Z</time>
      </trkpt>
      <trkpt lat="46.04011" lon="2.63694">
        <ele>680</ele>
        <time>2017-10-16T10:56:46Z</time>
      </trkpt>
      <trkpt lat="46.03969" lon="2.63847">
        <ele>677</ele>
        <time>2017-10-16T10:58:46Z</time>
      </trkpt>
      <trkpt lat="46.03965" lon="2.63854">
        <ele>677</ele>
        <time>2017-10-16T11:00:46Z</time>
      </trkpt>
      <trkpt lat="46.03898" lon="2.63926">
        <ele>680</ele>
        <time>2017-10-16T11:02:46Z</time>
      </trkpt>
      <trkpt lat="46.03832" lon="2.63993">
        <ele>683</ele>
        <time>2017-10-16T11:04:46Z</time>
      </trkpt>
      <trkpt lat="46.03779" lon="2.64047">
        <ele>677</ele>
        <time>2017-10-16T11:06:46Z</time>
      </trkpt>
      <trkpt lat="46.03752" lon="2.64066">
        <ele>676</ele>
        <time>2017-10-16T11:08:46Z</time>
      </trkpt>
      <trkpt lat="46.03733" lon="2.64079">
        <ele>676</ele>
        <time>2017-10-16T11:10:46Z</time>
      </trkpt>
      <trkpt lat="46.03719" lon="2.64084">
        <ele>676</ele>
        <time>2017-10-16T11:12:46Z</time>
      </trkpt>
      <trkpt lat="46.03672" lon="2.64096">
        <ele>676</ele>
        <time>2017-10-16T11:14:46Z</time>
      </trkpt>
      <trkpt lat="46.03617" lon="2.64128">
        <ele>676</ele>
        <time>2017-10-16T11:16:46Z</time>
      </trkpt>
      <trkpt lat="46.03588" lon="2.64149">
        <ele>677</ele>
        <time>2017-10-16T11:18:46Z</time>
      </trkpt>
      <trkpt lat="46.03531" lon="2.64204">
        <ele>682</ele>
        <time>2017-10-16T11:20:46Z</time>
      </trkpt>
      <trkpt lat="46.03493" lon="2.64235">
        <ele>685</ele>
        <time>2017-10-16T11:22:46Z</time>
      </trkpt>
      <trkpt lat="46.03458" lon="2.64261">
        <ele>686</ele>
        <time>2017-10-16T11:24:46Z</time>
      </trkpt>
      <trkpt lat="46.03418" lon="2.64281">
        <ele>687</ele>
        <time>2017-10-16T11:26:46Z</time>
      </trkpt>
      <trkpt lat="46.03376" lon="2.64308">
        <ele>687</ele>
        <time>2017-10-16T11:28:46Z</time>
      </trkpt>
      <trkpt lat="46.0332" lon="2.64352">
        <ele>689</ele>
        <time>2017-10-16T11:30:46Z</time>
      </trkpt>
      <trkpt lat="46.03253" lon="2.64409">
        <ele>692</ele>
        <time>2017-10-16T11:32:46Z</time>
      </trkpt>
      <trkpt lat="46.03213" lon="2.64444">
        <ele>690</ele>
        <time>2017-10-16T11:34:46Z</time>
      </trkpt>
      <trkpt lat="46.03159" lon="2.64486">
        <ele>689</ele>
        <time>2017-10-16T11:36:46Z</time>
      </trkpt>
      <trkpt lat="46.03138" lon="2.64507">
        <ele>690</ele>
        <time>2017-10-16T11:38:46Z</time>
      </trkpt>
      <trkpt lat="46.03106" lon="2.6455">
        <ele>693</ele>
        <time>2017-10-16T11:40:46Z</time>
      </trkpt>
      <trkpt lat="46.03105" lon="2.64556">
        <ele>694</ele>
        <time>2017-10-16T11:42:46Z</time>
      </trkpt>
      <trkpt lat="46.03105" lon="2.64567">
        <ele>694</ele>
        <time>2017-10-16T11:44:46Z</time>
      </trkpt>
      <trkpt lat="46.03104" lon="2.64601">
        <ele>697</ele>
        <time>2017-10-16T11:46:46Z</time>
      </trkpt>
      <trkpt lat="46.03096" lon="2.64632">
        <ele>700</ele>
        <time>2017-10-16T11:48:46Z</time>
      </trkpt>
      <trkpt lat="46.03081" lon="2.64655">
        <ele>703</ele>
        <time>2017-10-16T11:50:46Z</time>
      </trkpt>
      <trkpt lat="46.0306" lon="2.64684">
        <ele>705</ele>
        <time>2017-10-16T11:52:46Z</time>
      </trkpt>
      <trkpt lat="46.03039" lon="2.64708">
        <ele>707</ele>
        <time>2017-10-16T11:54:46Z</time>
      </trkpt>
      <trkpt lat="46.03016" lon="2.64738">
        <ele>708</ele>
        <time>2017-10-16T11:56:46Z</time>
      </trkpt>
      <trkpt lat="46.02998" lon="2.64755">
        <ele>709</ele>
        <time>2017-10-16T11:58:46Z</time>
      </trkpt>
      <trkpt lat="46.02991" lon="2.64768">
        <ele>709</ele>
        <time>2017-10-16T12:00:46Z</time>
      </trkpt>
      <trkpt lat="46.02974" lon="2.64793">
        <ele>710</ele>
        <time>2017-10-16T12:02:46Z</time>
      </trkpt>
      <trkpt lat="46.02949" lon="2.64826">
        <ele>711</ele>
        <time>2017-10-16T12:04:46Z</time>
      </trkpt>
      <trkpt lat="46.02923" lon="2.64866">
        <ele>712</ele>
        <time>2017-10-16T12:06:46Z</time>
      </trkpt>
      <trkpt lat="46.02898" lon="2.64898">
        <ele>713</ele>
        <time>2017-10-16T12:08:46Z</time>
      </trkpt>
      <trkpt lat="46.02873" lon="2.64923">
        <ele>714</ele>
        <time>2017-10-16T12:10:46Z</time>
      </trkpt>
      <trkpt lat="46.02851" lon="2.6495">
        <ele>715</ele>
        <time>2017-10-16T12:12:46Z</time>
      </trkpt>
      <trkpt lat="46.02822" lon="2.64984">
        <ele>717</ele>
        <time>2017-10-16T12:14:46Z</time>
      </trkpt>
      <trkpt lat="46.02779" lon="2.65039">
        <ele>719</ele>
        <time>2017-10-16T12:16:46Z</time>
      </trkpt>
      <trkpt lat="46.0276" lon="2.65069">
        <ele>720</ele>
        <time>2017-10-16T12:18:46Z</time>
      </trkpt>
      <trkpt lat="46.02742" lon="2.65093">
        <ele>720</ele>
        <time>2017-10-16T12:20:46Z</time>
      </trkpt>
      <trkpt lat="46.02721" lon="2.65121">
        <ele>721</ele>
        <time>2017-10-16T12:22:46Z</time>
      </trkpt>
      <trkpt lat="46.02698" lon="2.65163">
        <ele>721</ele>
        <time>2017-10-16T12:24:46Z</time>
      </trkpt>
      <trkpt lat="46.02674" lon="2.65209">
        <ele>721</ele>
        <time>2017-10-16T12:26:46Z</time>
      </trkpt>
      <trkpt lat="46.0265" lon="2.65259">
        <ele>720</ele>
        <time>2017-10-16T12:28:46Z</time>
      </trkpt>
      <trkpt lat="46.02619" lon="2.65331">
        <ele>721</ele>
        <time>2017-10-16T12:30:46Z</time>
      </trkpt>
      <trkpt lat="46.02603" lon="2.65376">
        <ele>723</ele>
        <time>2017-10-16T12:32:46Z</time>
      </trkpt>
      <trkpt lat="46.02591" lon="2.65416">
        <ele>725</ele>
        <time>2017-10-16T12:34:46Z</time>
      </trkpt>
      <trkpt lat="46.02556" lon="2.65499">
        <ele>728</ele>
        <time>2017-10-16T12:36:46Z</time>
      </trkpt>
      <trkpt lat="46.02546" lon="2.65535">
        <ele>728</ele>
        <time>2017-10-16T12:38:46Z</time>
      </trkpt>
      <trkpt lat="46.02525" lon="2.65583">
        <ele>728</ele>
        <time>2017-10-16T12:40:46Z</time>
      </trkpt>
      <trkpt lat="46.02524" lon="2.65592">
        <ele>728</ele>
        <time>2017-10-16T12:42:46Z</time>
      </trkpt>
      <trkpt lat="46.02501" lon="2.65643">
        <ele>730</ele>
        <time>2017-10-16T12:44:46Z</time>
      </trkpt>
      <trkpt lat="46.02479" lon="2.6569">
        <ele>731</ele>
        <time>2017-10-16T12:46:46Z</time>
      </trkpt>
      <trkpt lat="46.02455" lon="2.65748">
        <ele>732</ele>
        <time>2017-10-16T12:48:46Z</time>
      </trkpt>
      <trkpt lat="46.02436" lon="2.65808">
        <ele>732</ele>
        <time>2017-10-16T12:50:46Z</time>
      </trkpt>
      <trkpt lat="46.02423" lon="2.65842">
        <ele>731</ele>
        <time>2017-10-16T12:52:46Z</time>
      </trkpt>
      <trkpt lat="46.02383" lon="2.65921">
        <ele>730</ele>
        <time>2017-10-16T12:54:46Z</time>
      </trkpt>
      <trkpt lat="46.02364" lon="2.65949">
        <ele>730</ele>
        <time>2017-10-16T12:56:46Z</time>
      </trkpt>
      <trkpt lat="46.02332" lon="2.66009">
        <ele>730</ele>
        <time>2017-10-16T12:58:46Z</time>
      </trkpt>
      <trkpt lat="46.02316" lon="2.66045">
        <ele>730</ele>
        <time>2017-10-16T13:00:46Z</time>
      </trkpt>
      <trkpt lat="46.02302" lon="2.66095">
        <ele>732</ele>
        <time>2017-10-16T13:02:46Z</time>
      </trkpt>
      <trkpt lat="46.02288" lon="2.66125">
        <ele>732</ele>
        <time>2017-10-16T13:04:46Z</time>
      </trkpt>
      <trkpt lat="46.02261" lon="2.66162">
        <ele>732</ele>
        <time>2017-10-16T13:06:46Z</time>
      </trkpt>
      <trkpt lat="46.0226" lon="2.66174">
        <ele>731</ele>
        <time>2017-10-16T13:08:46Z</time>
      </trkpt>
      <trkpt lat="46.02255" lon="2.66178">
        <ele>731</ele>
        <time>2017-10-16T13:10:46Z</time>
      </trkpt>
      <trkpt lat="46.02253" lon="2.66186">
        <ele>731</ele>
        <time>2017-10-16T13:12:46Z</time>
      </trkpt>
      <trkpt lat="46.02235" lon="2.66226">
        <ele>728</ele>
        <time>2017-10-16T13:14:46Z</time>
      </trkpt>
      <trkpt lat="46.0222" lon="2.66262">
        <ele>726</ele>
        <time>2017-10-16T13:16:46Z</time>
      </trkpt>
      <trkpt lat="46.02199" lon="2.66333">
        <ele>724</ele>
        <time>2017-10-16T13:18:46Z</time>
      </trkpt>
      <trkpt lat="46.0218" lon="2.66456">
        <ele>722</ele>
        <time>2017-10-16T13:20:46Z</time>
      </trkpt>
      <trkpt lat="46.02175" lon="2.66523">
        <ele>720</ele>
        <time>2017-10-16T13:22:46Z</time>
      </trkpt>
      <trkpt lat="46.02175" lon="2.66535">
        <ele>720</ele>
        <time>2017-10-16T13:24:46Z</time>
      </trkpt>
      <trkpt lat="46.02174" lon="2.66556">
        <ele>719</ele>
        <time>2017-10-16T13:26:46Z</time>
      </trkpt>
      <trkpt lat="46.02169" lon="2.66594">
        <ele>718</ele>
        <time>2017-10-16T13:28:46Z</time>
      </trkpt>
      <trkpt lat="46.02163" lon="2.66614">
        <ele>719</ele>
        <time>2017-10-16T13:30:46Z</time>
      </trkpt>
      <trkpt lat="46.02158" lon="2.66655">
        <ele>720</ele>
        <time>2017-10-16T13:32:46Z</time>
      </trkpt>
      <trkpt lat="46.02152" lon="2.66689">
        <ele>720</ele>
        <time>2017-10-16T13:34:46Z</time>
      </trkpt>
      <trkpt lat="46.0214" lon="2.66746">
        <ele>720</ele>
        <time>2017-10-16T13:36:46Z</time>
      </trkpt>
      <trkpt lat="46.02139" lon="2.6677">
        <ele>718</ele>
        <time>2017-10-16T13:38:46Z</time>
      </trkpt>
      <trkpt lat="46.0213" lon="2.66829">
        <ele>714</ele>
        <time>2017-10-16T13:40:46Z</time>
      </trkpt>
      <trkpt lat="46.02123" lon="2.66838">
        <ele>714</ele>
        <time>2017-10-16T13:42:46Z</time>
      </trkpt>
      <trkpt lat="46.02117" lon="2.6683">
        <ele>714</ele>
        <time>2017-10-16T13:44:46Z</time>
      </trkpt>
      <trkpt lat="46.02104" lon="2.66795">
        <ele>716</ele>
        <time>2017-10-16T13:46:46Z</time>
      </trkpt>
      <trkpt lat="46.02092" lon="2.66766">
        <ele>717</ele>
        <time>2017-10-16T13:48:46Z</time>
      </trkpt>
      <trkpt lat="46.02049" lon="2.66715">
        <ele>719</ele>
        <time>2017-10-16T13:50:46Z</time>
      </trkpt>
      <trkpt lat="46.02003" lon="2.66672">
        <ele>720</ele>
        <time>2017-10-16T13:52:46Z</time>
      </trkpt>
      <trkpt lat="46.01932" lon="2.66597">
        <ele>715</ele>
        <time>2017-10-16T13:54:46Z</time>
      </trkpt>
      <trkpt lat="46.01837" lon="2.66499">
        <ele>715</ele>
        <time>2017-10-16T13:56:46Z</time>
      </trkpt>
      <trkpt lat="46.01769" lon="2.66459">
        <ele>715</ele>
        <time>2017-10-16T13:58:46Z</time>
      </trkpt>
      <trkpt lat="46.01738" lon="2.66438">
        <ele>715</ele>
        <time>2017-10-16T14:00:46Z</time>
      </trkpt>
      <trkpt lat="46.01732" lon="2.6643">
        <ele>715</ele>
        <time>2017-10-16T14:02:46Z</time>
      </trkpt>
      <trkpt lat="46.01723" lon="2.66416">
        <ele>715</ele>
        <time>2017-10-16T14:04:46Z</time>
      </trkpt>
      <trkpt lat="46.01684" lon="2.66339">
        <ele>715</ele>
        <time>2017-10-16T14:06:46Z</time>
      </trkpt>
      <trkpt lat="46.01613" lon="2.66186">
        <ele>712</ele>
        <time>2017-10-16T14:08:46Z</time>
      </trkpt>
      <trkpt lat="46.01603" lon="2.66164">
        <ele>712</ele>
        <time>2017-10-16T14:10:46Z</time>
      </trkpt>
      <trkpt lat="46.01599" lon="2.66158">
        <ele>712</ele>
        <time>2017-10-16T14:12:46Z</time>
      </trkpt>
      <trkpt lat="46.01593" lon="2.66154">
        <ele>712</ele>
        <time>2017-10-16T14:14:46Z</time>
      </trkpt>
      <trkpt lat="46.01588" lon="2.66151">
        <ele>712</ele>
        <time>2017-10-16T14:16:46Z</time>
      </trkpt>
      <trkpt lat="46.01513" lon="2.6614">
        <ele>712</ele>
        <time>2017-10-16T14:18:46Z</time>
      </trkpt>
      <trkpt lat="46.01489" lon="2.66137">
        <ele>712</ele>
        <time>2017-10-16T14:20:46Z</time>
      </trkpt>
      <trkpt lat="46.01476" lon="2.66139">
        <ele>712</ele>
        <time>2017-10-16T14:22:46Z</time>
      </trkpt>
      <trkpt lat="46.01453" lon="2.66149">
        <ele>711</ele>
        <time>2017-10-16T14:24:46Z</time>
      </trkpt>
      <trkpt lat="46.01447" lon="2.6615">
        <ele>711</ele>
        <time>2017-10-16T14:26:46Z</time>
      </trkpt>
      <trkpt lat="46.01442" lon="2.66149">
        <ele>711</ele>
        <time>2017-10-16T14:28:46Z</time>
      </trkpt>
      <trkpt lat="46.01389" lon="2.6613">
        <ele>710</ele>
        <time>2017-10-16T14:30:46Z</time>
      </trkpt>
      <trkpt lat="46.01347" lon="2.66108">
        <ele>709</ele>
        <time>2017-10-16T14:32:46Z</time>
      </trkpt>
      <trkpt lat="46.01341" lon="2.66103">
        <ele>709</ele>
        <time>2017-10-16T14:34:46Z</time>
      </trkpt>
      <trkpt lat="46.01334" lon="2.66101">
        <ele>709</ele>
        <time>2017-10-16T14:36:46Z</time>
      </trkpt>
      <trkpt lat="46.01329" lon="2.661">
        <ele>709</ele>
        <time>2017-10-16T14:38:46Z</time>
      </trkpt>
      <trkpt lat="46.01308" lon="2.66099">
        <ele>707</ele>
        <time>2017-10-16T14:40:46Z</time>
      </trkpt>
      <trkpt lat="46.0128" lon="2.66102">
        <ele>706</ele>
        <time>2017-10-16T14:42:46Z</time>
      </trkpt>
      <trkpt lat="46.01257" lon="2.66101">
        <ele>704</ele>
        <time>2017-10-16T14:44:46Z</time>
      </trkpt>
      <trkpt lat="46.01192" lon="2.66086">
        <ele>696</ele>
        <time>2017-10-16T14:46:46Z</time>
      </trkpt>
      <trkpt lat="46.01087" lon="2.66042">
        <ele>683</ele>
        <time>2017-10-16T14:48:46Z</time>
      </trkpt>
      <trkpt lat="46.01077" lon="2.66033">
        <ele>682</ele>
        <time>2017-10-16T14:50:46Z</time>
      </trkpt>
      <trkpt lat="46.01054" lon="2.66007">
        <ele>680</ele>
        <time>2017-10-16T14:52:46Z</time>
      </trkpt>
      <trkpt lat="46.0104" lon="2.65992">
        <ele>679</ele>
        <time>2017-10-16T14:54:46Z</time>
      </trkpt>
      <trkpt lat="46.0103" lon="2.65985">
        <ele>678</ele>
        <time>2017-10-16T14:56:46Z</time>
      </trkpt>
      <trkpt lat="46.00992" lon="2.65965">
        <ele>676</ele>
        <time>2017-10-16T14:58:46Z</time>
      </trkpt>
      <trkpt lat="46.00931" lon="2.65904">
        <ele>675</ele>
        <time>2017-10-16T15:00:46Z</time>
      </trkpt>
      <trkpt lat="46.0092" lon="2.65887">
        <ele>675</ele>
        <time>2017-10-16T15:02:46Z</time>
      </trkpt>
      <trkpt lat="46.00881" lon="2.6579">
        <ele>672</ele>
        <time>2017-10-16T15:04:46Z</time>
      </trkpt>
      <trkpt lat="46.00872" lon="2.65761">
        <ele>671</ele>
        <time>2017-10-16T15:06:46Z</time>
      </trkpt>
      <trkpt lat="46.00872" lon="2.65753">
        <ele>671</ele>
        <time>2017-10-16T15:08:46Z</time>
      </trkpt>
      <trkpt lat="46.00876" lon="2.6574">
        <ele>671</ele>
        <time>2017-10-16T15:10:46Z</time>
      </trkpt>
      <trkpt lat="46.00886" lon="2.65731">
        <ele>671</ele>
        <time>2017-10-16T15:12:46Z</time>
      </trkpt>
      <trkpt lat="46.00951" lon="2.65688">
        <ele>671</ele>
        <time>2017-10-16T15:14:46Z</time>
      </trkpt>
      <trkpt lat="46.00958" lon="2.65675">
        <ele>671</ele>
        <time>2017-10-16T15:16:46Z</time>
      </trkpt>
      <trkpt lat="46.0096" lon="2.65659">
        <ele>671</ele>
        <time>2017-10-16T15:18:46Z</time>
      </trkpt>
      <trkpt lat="46.00957" lon="2.65649">
        <ele>671</ele>
        <time>2017-10-16T15:20:46Z</time>
      </trkpt>
      <trkpt lat="46.00954" lon="2.6564">
        <ele>671</ele>
        <time>2017-10-16T15:22:46Z</time>
      </trkpt>
      <trkpt lat="46.00944" lon="2.65613">
        <ele>671</ele>
        <time>2017-10-16T15:24:46Z</time>
      </trkpt>
      <trkpt lat="46.00941" lon="2.65596">
        <ele>671</ele>
        <time>2017-10-16T15:26:46Z</time>
      </trkpt>
      <trkpt lat="46.00941" lon="2.65589">
        <ele>671</ele>
        <time>2017-10-16T15:28:46Z</time>
      </trkpt>
      <trkpt lat="46.00944" lon="2.65575">
        <ele>671</ele>
        <time>2017-10-16T15:30:46Z</time>
      </trkpt>
      <trkpt lat="46.00951" lon="2.65558">
        <ele>671</ele>
        <time>2017-10-16T15:32:46Z</time>
      </trkpt>
      <trkpt lat="46.00985" lon="2.65497">
        <ele>669</ele>
        <time>2017-10-16T15:34:46Z</time>
      </trkpt>
      <trkpt lat="46.00989" lon="2.65485">
        <ele>669</ele>
        <time>2017-10-16T15:36:46Z</time>
      </trkpt>
      <trkpt lat="46.00995" lon="2.65458">
        <ele>668</ele>
        <time>2017-10-16T15:38:46Z</time>
      </trkpt>
      <trkpt lat="46.00997" lon="2.65424">
        <ele>668</ele>
        <time>2017-10-16T15:40:46Z</time>
      </trkpt>
      <trkpt lat="46.00997" lon="2.65303">
        <ele>666</ele>
        <time>2017-10-16T15:42:46Z</time>
      </trkpt>
      <trkpt lat="46.00998" lon="2.65293">
        <ele>666</ele>
        <time>2017-10-16T15:44:46Z</time>
      </trkpt>
      <trkpt lat="46.01" lon="2.65266">
        <ele>665</ele>
        <time>2017-10-16T15:46:46Z</time>
      </trkpt>
      <trkpt lat="46.00998" lon="2.65249">
        <ele>664</ele>
        <time>2017-10-16T15:48:46Z</time>
      </trkpt>
      <trkpt lat="46.00992" lon="2.65224">
        <ele>663</ele>
        <time>2017-10-16T15:50:46Z</time>
      </trkpt>
      <trkpt lat="46.0099" lon="2.65207">
        <ele>663</ele>
        <time>2017-10-16T15:52:46Z</time>
      </trkpt>
      <trkpt lat="46.00989" lon="2.65171">
        <ele>662</ele>
        <time>2017-10-16T15:54:46Z</time>
      </trkpt>
      <trkpt lat="46.00984" lon="2.65144">
        <ele>661</ele>
        <time>2017-10-16T15:56:46Z</time>
      </trkpt>
      <trkpt lat="46.00985" lon="2.65125">
        <ele>661</ele>
        <time>2017-10-16T15:58:46Z</time>
      </trkpt>
      <trkpt lat="46.00991" lon="2.65098">
        <ele>659</ele>
        <time>2017-10-16T16:00:46Z</time>
      </trkpt>
      <trkpt lat="46.0099" lon="2.65081">
        <ele>659</ele>
        <time>2017-10-16T16:02:46Z</time>
      </trkpt>
      <trkpt lat="46.00986" lon="2.65073">
        <ele>658</ele>
        <time>2017-10-16T16:04:46Z</time>
      </trkpt>
      <trkpt lat="46.00977" lon="2.65056">
        <ele>658</ele>
        <time>2017-10-16T16:06:46Z</time>
      </trkpt>
      <trkpt lat="46.0097" lon="2.65034">
        <ele>657</ele>
        <time>2017-10-16T16:08:46Z</time>
      </trkpt>
      <trkpt lat="46.00962" lon="2.65015">
        <ele>656</ele>
        <time>2017-10-16T16:10:46Z</time>
      </trkpt>
      <trkpt lat="46.0091" lon="2.64945">
        <ele>659</ele>
        <time>2017-10-16T16:12:46Z</time>
      </trkpt>
      <trkpt lat="46.00872" lon="2.64899">
        <ele>662</ele>
        <time>2017-10-16T16:14:46Z</time>
      </trkpt>
      <trkpt lat="46.00837" lon="2.64876">
        <ele>663</ele>
        <time>2017-10-16T16:16:46Z</time>
      </trkpt>
      <trkpt lat="46.00819" lon="2.6487">
        <ele>664</ele>
        <time>2017-10-16T16:18:46Z</time>
      </trkpt>
      <trkpt lat="46.00789" lon="2.64852">
        <ele>665</ele>
        <time>2017-10-16T16:20:46Z</time>
      </trkpt>
      <trkpt lat="46.0074" lon="2.64826">
        <ele>668</ele>
        <time>2017-10-16T16:22:46Z</time>
      </trkpt>
      <trkpt lat="46.00714" lon="2.64809">
        <ele>669</ele>
        <time>2017-10-16T16:24:46Z</time>
      </trkpt>
      <trkpt lat="46.00689" lon="2.64805">
        <ele>671</ele>
        <time>2017-10-16T16:26:46Z</time>
      </trkpt>
      <trkpt lat="46.00666" lon="2.64809">
        <ele>673</ele>
        <time>2017-10-16T16:28:46Z</time>
      </trkpt>
      <trkpt lat="46.00621" lon="2.64808">
        <ele>677</ele>
        <time>2017-10-16T16:30:46Z</time>
      </trkpt>
      <trkpt lat="46.00595" lon="2.64802">
        <ele>679</ele>
        <time>2017-10-16T16:32:46Z</time>
      </trkpt>
      <trkpt lat="46.00572" lon="2.64797">
        <ele>680</ele>
        <time>2017-10-16T16:34:46Z</time>
      </trkpt>
      <trkpt lat="46.00543" lon="2.64796">
        <ele>682</ele>
        <time>2017-10-16T16:36:46Z</time>
      </trkpt>
      <trkpt lat="46.00513" lon="2.64799">
        <ele>685</ele>
        <time>2017-10-16T16:38:46Z</time>
      </trkpt>
      <trkpt lat="46.00487" lon="2.64794">
        <ele>686</ele>
        <time>2017-10-16T16:40:46Z</time>
      </trkpt>
      <trkpt lat="46.0047" lon="2.64782">
        <ele>687</ele>
        <time>2017-10-16T16:42:46Z</time>
      </trkpt>
      <trkpt lat="46.00452" lon="2.64758">
        <ele>688</ele>
        <time>2017-10-16T16:44:46Z</time>
      </trkpt>
      <trkpt lat="46.00428" lon="2.64723">
        <ele>691</ele>
        <time>2017-10-16T16:46:46Z</time>
      </trkpt>
      <trkpt lat="46.00417" lon="2.6471">
        <ele>693</ele>
        <time>2017-10-16T16:48:46Z</time>
      </trkpt>
      <trkpt lat="46.00403" lon="2.64688">
        <ele>696</ele>
        <time>2017-10-16T16:50:46Z</time>
      </trkpt>
      <trkpt lat="46.00383" lon="2.6466">
        <ele>700</ele>
        <time>2017-10-16T16:52:46Z</time>
      </trkpt>
      <trkpt lat="46.00376" lon="2.64655">
        <ele>701</ele>
        <time>2017-10-16T16:54:46Z</time>
      </trkpt>
      <trkpt lat="46.00369" lon="2.64631">
        <ele>702</ele>
        <time>2017-10-16T16:56:46Z</time>
      </trkpt>
      <trkpt lat="46.00354" lon="2.646">
        <ele>704</ele>
        <time>2017-10-16T16:58:46Z</time>
      </trkpt>
      <trkpt lat="46.00336" lon="2.64571">
        <ele>706</ele>
        <time>2017-10-16T17:00:46Z</time>
      </trkpt>
      <trkpt lat="46.00316" lon="2.64546">
        <ele>708</ele>
        <time>2017-10-16T17:02:46Z</time>
      </trkpt>
      <trkpt lat="46.00268" lon="2.64488">
        <ele>712</ele>
        <time>2017-10-16T17:04:46Z</time>
      </trkpt>
      <trkpt lat="46.00245" lon="2.64459">
        <ele>714</ele>
        <time>2017-10-16T17:06:46Z</time>
      </trkpt>
      <trkpt lat="46.00221" lon="2.64426">
        <ele>715</ele>
        <time>2017-10-16T17:08:46Z</time>
      </trkpt>
      <trkpt lat="46.00205" lon="2.64385">
        <ele>716</ele>
        <time>2017-10-16T17:10:46Z</time>
      </trkpt>
      <trkpt lat="46.00201" lon="2.64333">
        <ele>718</ele>
        <time>2017-10-16T17:12:46Z</time>
      </trkpt>
      <trkpt lat="46.00191" lon="2.64246">
        <ele>721</ele>
        <time>2017-10-16T17:14:46Z</time>
      </trkpt>
      <trkpt lat="46.00189" lon="2.64229">
        <ele>721</ele>
        <time>2017-10-16T17:16:46Z</time>
      </trkpt>
      <trkpt lat="46.00185" lon="2.64142">
        <ele>718</ele>
        <time>2017-10-16T17:18:46Z</time>
      </trkpt>
      <trkpt lat="46.0018" lon="2.64101">
        <ele>715</ele>
        <time>2017-10-16T17:20:46Z</time>
      </trkpt>
      <trkpt lat="46.00175" lon="2.63996">
        <ele>707</ele>
        <time>2017-10-16T17:22:46Z</time>
      </trkpt>
      <trkpt lat="46.00174" lon="2.63875">
        <ele>704</ele>
        <time>2017-10-16T17:24:46Z</time>
      </trkpt>
      <trkpt lat="46.00185" lon="2.63705">
        <ele>701</ele>
        <time>2017-10-16T17:26:46Z</time>
      </trkpt>
      <trkpt lat="46.00199" lon="2.63475">
        <ele>699</ele>
        <time>2017-10-16T17:28:46Z</time>
      </trkpt>
      <trkpt lat="46.00206" lon="2.63364">
        <ele>702</ele>
        <time>2017-10-16T17:30:46Z</time>
      </trkpt>
      <trkpt lat="46.00219" lon="2.63206">
        <ele>708</ele>
        <time>2017-10-16T17:32:46Z</time>
      </trkpt>
      <trkpt lat="46.00232" lon="2.63096">
        <ele>709</ele>
        <time>2017-10-16T17:34:46Z</time>
      </trkpt>
      <trkpt lat="46.00236" lon="2.6303">
        <ele>710</ele>
        <time>2017-10-16T17:36:46Z</time>
      </trkpt>
      <trkpt lat="46.00224" lon="2.62997">
        <ele>711</ele>
        <time>2017-10-16T17:38:46Z</time>
      </trkpt>
      <trkpt lat="46.002" lon="2.62973">
        <ele>712</ele>
        <time>2017-10-16T17:40:46Z</time>
      </trkpt>
      <trkpt lat="46.00176" lon="2.6295">
        <ele>714</ele>
        <time>2017-10-16T17:42:46Z</time>
      </trkpt>
      <trkpt lat="46.00154" lon="2.62928">
        <ele>716</ele>
        <time>2017-10-16T17:44:46Z</time>
      </trkpt>
      <trkpt lat="46.0013" lon="2.62905">
        <ele>717</ele>
        <time>2017-10-16T17:46:46Z</time>
      </trkpt>
      <trkpt lat="46.00101" lon="2.62872">
        <ele>719</ele>
        <time>2017-10-16T17:48:46Z</time>
      </trkpt>
      <trkpt lat="46.00074" lon="2.62837">
        <ele>720</ele>
        <time>2017-10-16T17:50:46Z</time>
      </trkpt>
      <trkpt lat="46.00055" lon="2.62816">
        <ele>722</ele>
        <time>2017-10-16T17:52:46Z</time>
      </trkpt>
      <trkpt lat="46.00034" lon="2.62794">
        <ele>723</ele>
        <time>2017-10-16T17:54:46Z</time>
      </trkpt>
      <trkpt lat="46.00014" lon="2.62777">
        <ele>725</ele>
        <time>2017-10-16T17:56:46Z</time>
      </trkpt>
      <trkpt lat="45.99981" lon="2.62742">
        <ele>726</ele>
        <time>2017-10-16T17:58:46Z</time>
      </trkpt>
      <trkpt lat="45.99962" lon="2.62714">
        <ele>727</ele>
        <time>2017-10-16T18:00:46Z</time>
      </trkpt>
      <trkpt lat="45.99944" lon="2.6269">
        <ele>729</ele>
        <time>2017-10-16T18:02:46Z</time>
      </trkpt>
      <trkpt lat="45.99929" lon="2.6267">
        <ele>731</ele>
        <time>2017-10-16T18:04:46Z</time>
      </trkpt>
      <trkpt lat="45.99925" lon="2.62662">
        <ele>732</ele>
        <time>2017-10-16T18:06:46Z</time>
      </trkpt>
      <trkpt lat="45.99894" lon="2.62599">
        <ele>738</ele>
        <time>2017-10-16T18:08:46Z</time>
      </trkpt>
      <trkpt lat="45.99879" lon="2.62548">
        <ele>741</ele>
        <time>2017-10-16T18:10:46Z</time>
      </trkpt>
      <trkpt lat="45.99861" lon="2.6248">
        <ele>744</ele>
        <time>2017-10-16T18:12:46Z</time>
      </trkpt>
      <trkpt lat="45.99859" lon="2.62476">
        <ele>743</ele>
        <time>2017-10-16T18:14:46Z</time>
      </trkpt>
      <trkpt lat="45.99839" lon="2.62425">
        <ele>741</ele>
        <time>2017-10-16T18:16:46Z</time>
      </trkpt>
      <trkpt lat="45.99802" lon="2.62354">
        <ele>736</ele>
        <time>2017-10-16T18:18:46Z</time>
      </trkpt>
      <trkpt lat="45.99777" lon="2.62279">
        <ele>738</ele>
        <time>2017-10-16T18:20:46Z</time>
      </trkpt>
      <trkpt lat="45.99754" lon="2.62236">
        <ele>741</ele>
        <time>2017-10-16T18:22:46Z</time>
      </trkpt>
      <trkpt lat="45.99729" lon="2.62198">
        <ele>743</ele>
        <time>2017-10-16T18:24:46Z</time>
      </trkpt>
      <trkpt lat="45.99704" lon="2.6215">
        <ele>745</ele>
        <time>2017-10-16T18:26:46Z</time>
      </trkpt>
      <trkpt lat="45.99674" lon="2.62104">
        <ele>748</ele>
        <time>2017-10-16T18:28:46Z</time>
      </trkpt>
      <trkpt lat="45.99632" lon="2.62017">
        <ele>750</ele>
        <time>2017-10-16T18:30:46Z</time>
      </trkpt>
      <trkpt lat="45.99597" lon="2.61962">
        <ele>748</ele>
        <time>2017-10-16T18:32:46Z</time>
      </trkpt>
      <trkpt lat="45.99569" lon="2.61927">
        <ele>748</ele>
        <time>2017-10-16T18:34:46Z</time>
      </trkpt>
      <trkpt lat="45.99523" lon="2.61874">
        <ele>747</ele>
        <time>2017-10-16T18:36:46Z</time>
      </trkpt>
      <trkpt lat="45.99502" lon="2.61848">
        <ele>747</ele>
        <time>2017-10-16T18:38:46Z</time>
      </trkpt>
      <trkpt lat="45.9943" lon="2.61789">
        <ele>747</ele>
        <time>2017-10-16T18:40:46Z</time>
      </trkpt>
      <trkpt lat="45.99362" lon="2.61723">
        <ele>742</ele>
        <time>2017-10-16T18:42:46Z</time>
      </trkpt>
      <trkpt lat="45.99345" lon="2.61704">
        <ele>741</ele>
        <time>2017-10-16T18:44:46Z</time>
      </trkpt>
      <trkpt lat="45.99308" lon="2.6166">
        <ele>740</ele>
        <time>2017-10-16T18:46:46Z</time>
      </trkpt>
      <trkpt lat="45.99284" lon="2.61632">
        <ele>739</ele>
        <time>2017-10-16T18:48:46Z</time>
      </trkpt>
      <trkpt lat="45.9926" lon="2.61607">
        <ele>739</ele>
        <time>2017-10-16T18:50:46Z</time>
      </trkpt>
      <trkpt lat="45.99209" lon="2.61556">
        <ele>740</ele>
        <time>2017-10-16T18:52:46Z</time>
      </trkpt>
      <trkpt lat="45.99156" lon="2.61511">
        <ele>739</ele>
        <time>2017-10-16T18:54:46Z</time>
      </trkpt>
      <trkpt lat="45.99142" lon="2.615">
        <ele>739</ele>
        <time>2017-10-16T18:56:46Z</time>
      </trkpt>
      <trkpt lat="45.99089" lon="2.61439">
        <ele>740</ele>
        <time>2017-10-16T18:58:46Z</time>
      </trkpt>
      <trkpt lat="45.99074" lon="2.6142">
        <ele>740</ele>
        <time>2017-10-16T19:00:46Z</time>
      </trkpt>
      <trkpt lat="45.99027" lon="2.61361">
        <ele>740</ele>
        <time>2017-10-16T19:02:46Z</time>
      </trkpt>
      <trkpt lat="45.99003" lon="2.61345">
        <ele>741</ele>
        <time>2017-10-16T19:04:46Z</time>
      </trkpt>
      <trkpt lat="45.98931" lon="2.6131">
        <ele>741</ele>
        <time>2017-10-16T19:06:46Z</time>
      </trkpt>
      <trkpt lat="45.98905" lon="2.61296">
        <ele>741</ele>
        <time>2017-10-16T19:08:46Z</time>
      </trkpt>
      <trkpt lat="45.98883" lon="2.61288">
        <ele>741</ele>
        <time>2017-10-16T19:10:46Z</time>
      </trkpt>
      <trkpt lat="45.98818" lon="2.61268">
        <ele>742</ele>
        <time>2017-10-16T19:12:46Z</time>
      </trkpt>
      <trkpt lat="45.98772" lon="2.61241">
        <ele>741</ele>
        <time>2017-10-16T19:14:46Z</time>
      </trkpt>
      <trkpt lat="45.98708" lon="2.61185">
        <ele>740</ele>
        <time>2017-10-16T19:16:46Z</time>
      </trkpt>
      <trkpt lat="45.98652" lon="2.61134">
        <ele>739</ele>
        <time>2017-10-16T19:18:46Z</time>
      </trkpt>
      <trkpt lat="45.98629" lon="2.6111">
        <ele>739</ele>
        <time>2017-10-16T19:20:46Z</time>
      </trkpt>
      <trkpt lat="45.98598" lon="2.61073">
        <ele>738</ele>
        <time>2017-10-16T19:22:46Z</time>
      </trkpt>
      <trkpt lat="45.98555" lon="2.61037">
        <ele>736</ele>
        <time>2017-10-16T19:24:46Z</time>
      </trkpt>
      <trkpt lat="45.98424" lon="2.60936">
        <ele>733</ele>
        <time>2017-10-16T19:26:46Z</time>
      </trkpt>
      <trkpt lat="45.98387" lon="2.61028">
        <ele>733</ele>
        <time>2017-10-16T19:28:46Z</time>
      </trkpt>
      <trkpt lat="45.98343" lon="2.61162">
        <ele>725</ele>
        <time>2017-10-16T19:30:46Z</time>
      </trkpt>
      <trkpt lat="45.98331" lon="2.61269">
        <ele>720</ele>
        <time>2017-10-16T19:32:46Z</time>
      </trkpt>
      <trkpt lat="45.9826" lon="2.61342">
        <ele>719</ele>
        <time>2017-10-16T19:34:46Z</time>
      </trkpt>
      <trkpt lat="45.98207" lon="2.61328">
        <ele>718</ele>
        <time>2017-10-16T19:36:46Z</time>
      </trkpt>
      <trkpt lat="45.98096" lon="2.613">
        <ele>711</ele>
        <time>2017-10-16T19:38:46Z</time>
      </trkpt>
      <trkpt lat="45.98056" lon="2.61416">
        <ele>708</ele>
        <time>2017-10-16T19:40:46Z</time>
      </trkpt>
      <trkpt lat="45.98041" lon="2.61407">
        <ele>705</ele>
        <time>2017-10-16T19:42:46Z</time>
      </trkpt>
      <trkpt lat="45.97972" lon="2.61344">
        <ele>694</ele>
        <time>2017-10-16T19:44:46Z</time>
      </trkpt>
      <trkpt lat="45.97913" lon="2.61267">
        <ele>682</ele>
        <time>2017-10-16T19:46:46Z</time>
      </trkpt>
      <trkpt lat="45.97904" lon="2.61271">
        <ele>681</ele>
        <time>2017-10-16T19:48:46Z</time>
      </trkpt>
      <trkpt lat="45.97886" lon="2.61331">
        <ele>683</ele>
        <time>2017-10-16T19:50:46Z</time>
      </trkpt>
      <trkpt lat="45.97869" lon="2.61375">
        <ele>682</ele>
        <time>2017-10-16T19:52:46Z</time>
      </trkpt>
      <trkpt lat="45.97864" lon="2.61407">
        <ele>682</ele>
        <time>2017-10-16T19:54:46Z</time>
      </trkpt>
      <trkpt lat="45.97844" lon="2.61418">
        <ele>681</ele>
        <time>2017-10-16T19:56:46Z</time>
      </trkpt>
      <trkpt lat="45.978" lon="2.61446">
        <ele>680</ele>
        <time>2017-10-16T19:58:46Z</time>
      </trkpt>
      <trkpt lat="45.97746" lon="2.61533">
        <ele>678</ele>
        <time>2017-10-16T20:00:46Z</time>
      </trkpt>
      <trkpt lat="45.97736" lon="2.61579">
        <ele>680</ele>
        <time>2017-10-16T20:02:46Z</time>
      </trkpt>
      <trkpt lat="45.97719" lon="2.61627">
        <ele>680</ele>
        <time>2017-10-16T20:04:46Z</time>
      </trkpt>
      <trkpt lat="45.97713" lon="2.61669">
        <ele>682</ele>
        <time>2017-10-16T20:06:46Z</time>
      </trkpt>
      <trkpt lat="45.97715" lon="2.61756">
        <ele>684</ele>
        <time>2017-10-16T20:08:46Z</time>
      </trkpt>
      <trkpt lat="45.97735" lon="2.61787">
        <ele>685</ele>
        <time>2017-10-16T20:10:46Z</time>
      </trkpt>
      <trkpt lat="45.97736" lon="2.61803">
        <ele>685</ele>
        <time>2017-10-16T20:12:46Z</time>
      </trkpt>
      <trkpt lat="45.97711" lon="2.61788">
        <ele>684</ele>
        <time>2017-10-16T20:14:46Z</time>
      </trkpt>
      <trkpt lat="45.97708" lon="2.61788">
        <ele>684</ele>
        <time>2017-10-16T20:16:46Z</time>
      </trkpt>
      <trkpt lat="45.977" lon="2.61792">
        <ele>684</ele>
        <time>2017-10-16T20:18:46Z</time>
      </trkpt>
      <trkpt lat="45.97693" lon="2.61807">
        <ele>684</ele>
        <time>2017-10-16T20:20:46Z</time>
      </trkpt>
      <trkpt lat="45.97675" lon="2.61871">
        <ele>683</ele>
        <time>2017-10-16T20:22:46Z</time>
      </trkpt>
      <trkpt lat="45.97653" lon="2.61954">
        <ele>682</ele>
        <time>2017-10-16T20:24:46Z</time>
      </trkpt>
      <trkpt lat="45.97608" lon="2.62033">
        <ele>683</ele>
        <time>2017-10-16T20:26:46Z</time>
      </trkpt>
      <trkpt lat="45.97599" lon="2.62088">
        <ele>685</ele>
        <time>2017-10-16T20:28:46Z</time>
      </trkpt>
      <trkpt lat="45.97595" lon="2.62123">
        <ele>686</ele>
        <time>2017-10-16T20:30:46Z</time>
      </trkpt>
      <trkpt lat="45.97583" lon="2.6215">
        <ele>687</ele>
        <time>2017-10-16T20:32:46Z</time>
      </trkpt>
      <trkpt lat="45.97571" lon="2.62184">
        <ele>688</ele>
        <time>2017-10-16T20:34:46Z</time>
      </trkpt>
      <trkpt lat="45.97557" lon="2.62231">
        <ele>690</ele>
        <time>2017-10-16T20:36:46Z</time>
      </trkpt>
      <trkpt lat="45.9754" lon="2.62298">
        <ele>694</ele>
        <time>2017-10-16T20:38:46Z</time>
      </trkpt>
      <trkpt lat="45.97519" lon="2.62365">
        <ele>696</ele>
        <time>2017-10-16T20:40:46Z</time>
      </trkpt>
      <trkpt lat="45.975" lon="2.62402">
        <ele>694</ele>
        <time>2017-10-16T20:42:46Z</time>
      </trkpt>
      <trkpt lat="45.97495" lon="2.62403">
        <ele>694</ele>
        <time>2017-10-16T20:44:46Z</time>
      </trkpt>
      <trkpt lat="45.97458" lon="2.62405">
        <ele>690</ele>
        <time>2017-10-16T20:46:46Z</time>
      </trkpt>
      <trkpt lat="45.97428" lon="2.62423">
        <ele>687</ele>
        <time>2017-10-16T20:48:46Z</time>
      </trkpt>
      <trkpt lat="45.9742" lon="2.62432">
        <ele>686</ele>
        <time>2017-10-16T20:50:46Z</time>
      </trkpt>
      <trkpt lat="45.97382" lon="2.62426">
        <ele>685</ele>
        <time>2017-10-16T20:52:46Z</time>
      </trkpt>
      <trkpt lat="45.97365" lon="2.62414">
        <ele>684</ele>
        <time>2017-10-16T20:54:46Z</time>
      </trkpt>
      <trkpt lat="45.97304" lon="2.62352">
        <ele>683</ele>
        <time>2017-10-16T20:56:46Z</time>
      </trkpt>
      <trkpt lat="45.97256" lon="2.62325">
        <ele>684</ele>
        <time>2017-10-16T20:58:46Z</time>
      </trkpt>
      <trkpt lat="45.97233" lon="2.62288">
        <ele>682</ele>
        <time>2017-10-16T21:00:46Z</time>
      </trkpt>
      <trkpt lat="45.97223" lon="2.62262">
        <ele>681</ele>
        <time>2017-10-16T21:02:46Z</time>
      </trkpt>
      <trkpt lat="45.97182" lon="2.6218">
        <ele>682</ele>
        <time>2017-10-16T21:04:46Z</time>
      </trkpt>
      <trkpt lat="45.97157" lon="2.62133">
        <ele>682</ele>
        <time>2017-10-16T21:06:46Z</time>
      </trkpt>
      <trkpt lat="45.97138" lon="2.62084">
        <ele>683</ele>
        <time>2017-10-16T21:08:46Z</time>
      </trkpt>
      <trkpt lat="45.97131" lon="2.62073">
        <ele>682</ele>
        <time>2017-10-16T21:10:46Z</time>
      </trkpt>
      <trkpt lat="45.97111" lon="2.62055">
        <ele>682</ele>
        <time>2017-10-16T21:12:46Z</time>
      </trkpt>
      <trkpt lat="45.97004" lon="2.6198">
        <ele>680</ele>
        <time>2017-10-16T21:14:46Z</time>
      </trkpt>
      <trkpt lat="45.96985" lon="2.62029">
        <ele>678</ele>
        <time>2017-10-16T21:16:46Z</time>
      </trkpt>
      <trkpt lat="45.96964" lon="2.62034">
        <ele>677</ele>
        <time>2017-10-16T21:18:46Z</time>
      </trkpt>
      <trkpt lat="45.96885" lon="2.62028">
        <ele>676</ele>
        <time>2017-10-16T21:20:46Z</time>
      </trkpt>
      <trkpt lat="45.9685" lon="2.62028">
        <ele>676</ele>
        <time>2017-10-16T21:22:46Z</time>
      </trkpt>
      <trkpt lat="45.96811" lon="2.62016">
        <ele>676</ele>
        <time>2017-10-16T21:24:46Z</time>
      </trkpt>
      <trkpt lat="45.96788" lon="2.62014">
        <ele>675</ele>
        <time>2017-10-16T21:26:46Z</time>
      </trkpt>
      <trkpt lat="45.96767" lon="2.62027">
        <ele>675</ele>
        <time>2017-10-16T21:28:46Z</time>
      </trkpt>
      <trkpt lat="45.9675" lon="2.62062">
        <ele>674</ele>
        <time>2017-10-16T21:30:46Z</time>
      </trkpt>
      <trkpt lat="45.96738" lon="2.62069">
        <ele>672</ele>
        <time>2017-10-16T21:32:46Z</time>
      </trkpt>
      <trkpt lat="45.967" lon="2.62076">
        <ele>667</ele>
        <time>2017-10-16T21:34:46Z</time>
      </trkpt>
      <trkpt lat="45.96691" lon="2.62079">
        <ele>666</ele>
        <time>2017-10-16T21:36:46Z</time>
      </trkpt>
      <trkpt lat="45.96683" lon="2.6211">
        <ele>666</ele>
        <time>2017-10-16T21:38:46Z</time>
      </trkpt>
      <trkpt lat="45.96676" lon="2.62145">
        <ele>667</ele>
        <time>2017-10-16T21:40:46Z</time>
      </trkpt>
      <trkpt lat="45.96652" lon="2.6216">
        <ele>667</ele>
        <time>2017-10-16T21:42:46Z</time>
      </trkpt>
      <trkpt lat="45.96651" lon="2.62162">
        <ele>667</ele>
        <time>2017-10-16T21:44:46Z</time>
      </trkpt>
      <trkpt lat="45.96611" lon="2.62176">
        <ele>669</ele>
        <time>2017-10-16T21:46:46Z</time>
      </trkpt>
      <trkpt lat="45.96607" lon="2.62179">
        <ele>669</ele>
        <time>2017-10-16T21:48:46Z</time>
      </trkpt>
      <trkpt lat="45.96598" lon="2.62178">
        <ele>670</ele>
        <time>2017-10-16T21:50:46Z</time>
      </trkpt>
      <trkpt lat="45.96586" lon="2.62167">
        <ele>670</ele>
        <time>2017-10-16T21:52:46Z</time>
      </trkpt>
      <trkpt lat="45.96559" lon="2.62132">
        <ele>668</ele>
        <time>2017-10-16T21:54:46Z</time>
      </trkpt>
      <trkpt lat="45.96535" lon="2.6211">
        <ele>668</ele>
        <time>2017-10-16T21:56:46Z</time>
      </trkpt>
      <trkpt lat="45.96499" lon="2.62101">
        <ele>670</ele>
        <time>2017-10-16T21:58:46Z</time>
      </trkpt>
      <trkpt lat="45.96461" lon="2.6208">
        <ele>670</ele>
        <time>2017-10-16T22:00:46Z</time>
      </trkpt>
      <trkpt lat="45.96423" lon="2.62061">
        <ele>669</ele>
        <time>2017-10-16T22:02:46Z</time>
      </trkpt>
      <trkpt lat="45.96388" lon="2.62048">
        <ele>669</ele>
        <time>2017-10-16T22:04:46Z</time>
      </trkpt>
      <trkpt lat="45.9634" lon="2.62035">
        <ele>670</ele>
        <time>2017-10-16T22:06:46Z</time>
      </trkpt>
      <trkpt lat="45.96304" lon="2.62028">
        <ele>668</ele>
        <time>2017-10-16T22:08:46Z</time>
      </trkpt>
      <trkpt lat="45.96262" lon="2.621">
        <ele>668</ele>
        <time>2017-10-16T22:10:46Z</time>
      </trkpt>
      <trkpt lat="45.96266" lon="2.6216">
        <ele>670</ele>
        <time>2017-10-16T22:12:46Z</time>
      </trkpt>
      <trkpt lat="45.96275" lon="2.6218">
        <ele>671</ele>
        <time>2017-10-16T22:14:46Z</time>
      </trkpt>
      <trkpt lat="45.96287" lon="2.62195">
        <ele>671</ele>
        <time>2017-10-16T22:16:46Z</time>
      </trkpt>
      <trkpt lat="45.96327" lon="2.62231">
        <ele>673</ele>
        <time>2017-10-16T22:18:46Z</time>
      </trkpt>
      <trkpt lat="45.96361" lon="2.62263">
        <ele>673</ele>
        <time>2017-10-16T22:20:46Z</time>
      </trkpt>
      <trkpt lat="45.96375" lon="2.62272">
        <ele>672</ele>
        <time>2017-10-16T22:22:46Z</time>
      </trkpt>
      <trkpt lat="45.96403" lon="2.62292">
        <ele>671</ele>
        <time>2017-10-16T22:24:46Z</time>
      </trkpt>
      <trkpt lat="45.96449" lon="2.62319">
        <ele>671</ele>
        <time>2017-10-16T22:26:46Z</time>
      </trkpt>
      <trkpt lat="45.96464" lon="2.62324">
        <ele>671</ele>
        <time>2017-10-16T22:28:46Z</time>
      </trkpt>
      <trkpt lat="45.96476" lon="2.62325">
        <ele>672</ele>
        <time>2017-10-16T22:30:46Z</time>
      </trkpt>
      <trkpt lat="45.96493" lon="2.62334">
        <ele>673</ele>
        <time>2017-10-16T22:32:46Z</time>
      </trkpt>
      <trkpt lat="45.96513" lon="2.62338">
        <ele>673</ele>
        <time>2017-10-16T22:34:46Z</time>
      </trkpt>
      <trkpt lat="45.96563" lon="2.62338">
        <ele>673</ele>
        <time>2017-10-16T22:36:46Z</time>
      </trkpt>
      <trkpt lat="45.96585" lon="2.62355">
        <ele>673</ele>
        <time>2017-10-16T22:38:46Z</time>
      </trkpt>
      <trkpt lat="45.96605" lon="2.62429">
        <ele>673</ele>
        <time>2017-10-16T22:40:46Z</time>
      </trkpt>
      <trkpt lat="45.96641" lon="2.6246">
        <ele>675</ele>
        <time>2017-10-16T22:42:46Z</time>
      </trkpt>
      <trkpt lat="45.9667" lon="2.6249">
        <ele>677</ele>
        <time>2017-10-16T22:44:46Z</time>
      </trkpt>
      <trkpt lat="45.96695" lon="2.62522">
        <ele>678</ele>
        <time>2017-10-16T22:46:46Z</time>
      </trkpt>
      <trkpt lat="45.96723" lon="2.62553">
        <ele>680</ele>
        <time>2017-10-16T22:48:46Z</time>
      </trkpt>
      <trkpt lat="45.96752" lon="2.62578">
        <ele>683</ele>
        <time>2017-10-16T22:50:46Z</time>
      </trkpt>
      <trkpt lat="45.96772" lon="2.62596">
        <ele>683</ele>
        <time>2017-10-16T22:52:46Z</time>
      </trkpt>
      <trkpt lat="45.96796" lon="2.62624">
        <ele>684</ele>
        <time>2017-10-16T22:54:46Z</time>
      </trkpt>
      <trkpt lat="45.96821" lon="2.62651">
        <ele>686</ele>
        <time>2017-10-16T22:56:46Z</time>
      </trkpt>
      <trkpt lat="45.96851" lon="2.62687">
        <ele>685</ele>
        <time>2017-10-16T22:58:46Z</time>
      </trkpt>
      <trkpt lat="45.96886" lon="2.62715">
        <ele>683</ele>
        <time>2017-10-16T23:00:46Z</time>
      </trkpt>
      <trkpt lat="45.96895" lon="2.62717">
        <ele>683</ele>
        <time>2017-10-16T23:02:46Z</time>
      </trkpt>
      <trkpt lat="45.96924" lon="2.62762">
        <ele>681</ele>
        <time>2017-10-16T23:04:46Z</time>
      </trkpt>
      <trkpt lat="45.96917" lon="2.62787">
        <ele>680</ele>
        <time>2017-10-16T23:06:46Z</time>
      </trkpt>
      <trkpt lat="45.96912" lon="2.62799">
        <ele>679</ele>
        <time>2017-10-16T23:08:46Z</time>
      </trkpt>
      <trkpt lat="45.96906" lon="2.62883">
        <ele>675</ele>
        <time>2017-10-16T23:10:46Z</time>
      </trkpt>
      <trkpt lat="45.96901" lon="2.62916">
        <ele>674</ele>
        <time>2017-10-16T23:12:46Z</time>
      </trkpt>
      <trkpt lat="45.96904" lon="2.62953">
        <ele>674</ele>
        <time>2017-10-16T23:14:46Z</time>
      </trkpt>
      <trkpt lat="45.96898" lon="2.62984">
        <ele>675</ele>
        <time>2017-10-16T23:16:46Z</time>
      </trkpt>
      <trkpt lat="45.96861" lon="2.63034">
        <ele>676</ele>
        <time>2017-10-16T23:18:46Z</time>
      </trkpt>
      <trkpt lat="45.9684" lon="2.63076">
        <ele>676</ele>
        <time>2017-10-16T23:20:46Z</time>
      </trkpt>
      <trkpt lat="45.96846" lon="2.63112">
        <ele>677</ele>
        <time>2017-10-16T23:22:46Z</time>
      </trkpt>
      <trkpt lat="45.96854" lon="2.63155">
        <ele>678</ele>
        <time>2017-10-16T23:24:46Z</time>
      </trkpt>
      <trkpt lat="45.96867" lon="2.63198">
        <ele>680</ele>
        <time>2017-10-16T23:26:46Z</time>
      </trkpt>
      <trkpt lat="45.96876" lon="2.63237">
        <ele>682</ele>
        <time>2017-10-16T23:28:46Z</time>
      </trkpt>
      <trkpt lat="45.96894" lon="2.6332">
        <ele>687</ele>
        <time>2017-10-16T23:30:46Z</time>
      </trkpt>
      <trkpt lat="45.96893" lon="2.63324">
        <ele>687</ele>
        <time>2017-10-16T23:32:46Z</time>
      </trkpt>
      <trkpt lat="45.96862" lon="2.63317">
        <ele>687</ele>
        <time>2017-10-16T23:34:46Z</time>
      </trkpt>
      <trkpt lat="45.96838" lon="2.63319">
        <ele>688</ele>
        <time>2017-10-16T23:36:46Z</time>
      </trkpt>
      <trkpt lat="45.96775" lon="2.63328">
        <ele>687</ele>
        <time>2017-10-16T23:38:46Z</time>
      </trkpt>
      <trkpt lat="45.96755" lon="2.63328">
        <ele>686</ele>
        <time>2017-10-16T23:40:46Z</time>
      </trkpt>
      <trkpt lat="45.96699" lon="2.63343">
        <ele>686</ele>
        <time>2017-10-16T23:42:46Z</time>
      </trkpt>
      <trkpt lat="45.96661" lon="2.63336">
        <ele>686</ele>
        <time>2017-10-16T23:44:46Z</time>
      </trkpt>
      <trkpt lat="45.96593" lon="2.63321">
        <ele>681</ele>
        <time>2017-10-16T23:46:46Z</time>
      </trkpt>
      <trkpt lat="45.96523" lon="2.63306">
        <ele>675</ele>
        <time>2017-10-16T23:48:46Z</time>
      </trkpt>
      <trkpt lat="45.9641" lon="2.63251">
        <ele>670</ele>
        <time>2017-10-16T23:50:46Z</time>
      </trkpt>
      <trkpt lat="45.96388" lon="2.63236">
        <ele>670</ele>
        <time>2017-10-16T23:52:46Z</time>
      </trkpt>
      <trkpt lat="45.96342" lon="2.63239">
        <ele>671</ele>
        <time>2017-10-16T23:54:46Z</time>
      </trkpt>
      <trkpt lat="45.96303" lon="2.6327">
        <ele>672</ele>
        <time>2017-10-16T23:56:46Z</time>
      </trkpt>
      <trkpt lat="45.96287" lon="2.63272">
        <ele>673</ele>
        <time>2017-10-16T23:58:46Z</time>
      </trkpt>
      <trkpt lat="45.96266" lon="2.63254">
        <ele>671</ele>
        <time>2017-10-17T00:00:46Z</time>
      </trkpt>
      <trkpt lat="45.96235" lon="2.63231">
        <ele>669</ele>
        <time>2017-10-17T00:02:46Z</time>
      </trkpt>
      <trkpt lat="45.9615" lon="2.63175">
        <ele>665</ele>
        <time>2017-10-17T00:04:46Z</time>
      </trkpt>
      <trkpt lat="45.96091" lon="2.63118">
        <ele>666</ele>
        <time>2017-10-17T00:06:46Z</time>
      </trkpt>
      <trkpt lat="45.96072" lon="2.63102">
        <ele>667</ele>
        <time>2017-10-17T00:08:46Z</time>
      </trkpt>
      <trkpt lat="45.96042" lon="2.63082">
        <ele>668</ele>
        <time>2017-10-17T00:10:46Z</time>
      </trkpt>
      <trkpt lat="45.95979" lon="2.63047">
        <ele>671</ele>
        <time>2017-10-17T00:12:46Z</time>
      </trkpt>
      <trkpt lat="45.95931" lon="2.63026">
        <ele>672</ele>
        <time>2017-10-17T00:14:46Z</time>
      </trkpt>
      <trkpt lat="45.95888" lon="2.63012">
        <ele>672</ele>
        <time>2017-10-17T00:16:46Z</time>
      </trkpt>
      <trkpt lat="45.9587" lon="2.63014">
        <ele>671</ele>
        <time>2017-10-17T00:18:46Z</time>
      </trkpt>
      <trkpt lat="45.95837" lon="2.63027">
        <ele>671</ele>
        <time>2017-10-17T00:20:46Z</time>
      </trkpt>
      <trkpt lat="45.95807" lon="2.63045">
        <ele>668</ele>
        <time>2017-10-17T00:22:46Z</time>
      </trkpt>
      <trkpt lat="45.95793" lon="2.63046">
        <ele>667</ele>
        <time>2017-10-17T00:24:46Z</time>
      </trkpt>
      <trkpt lat="45.95769" lon="2.63052">
        <ele>664</ele>
        <time>2017-10-17T00:26:46Z</time>
      </trkpt>
      <trkpt lat="45.95751" lon="2.6305">
        <ele>663</ele>
        <time>2017-10-17T00:28:46Z</time>
      </trkpt>
      <trkpt lat="45.95672" lon="2.63014">
        <ele>662</ele>
        <time>2017-10-17T00:30:46Z</time>
      </trkpt>
      <trkpt lat="45.95639" lon="2.62977">
        <ele>665</ele>
        <time>2017-10-17T00:32:46Z</time>
      </trkpt>
      <trkpt lat="45.95609" lon="2.62932">
        <ele>668</ele>
        <time>2017-10-17T00:34:46Z</time>
      </trkpt>
      <trkpt lat="45.95597" lon="2.62923">
        <ele>669</ele>
        <time>2017-10-17T00:36:46Z</time>
      </trkpt>
      <trkpt lat="45.95586" lon="2.62937">
        <ele>670</ele>
        <time>2017-10-17T00:38:46Z</time>
      </trkpt>
      <trkpt lat="45.95542" lon="2.63002">
        <ele>676</ele>
        <time>2017-10-17T00:40:46Z</time>
      </trkpt>
      <trkpt lat="45.95526" lon="2.63028">
        <ele>678</ele>
        <time>2017-10-17T00:42:46Z</time>
      </trkpt>
      <trkpt lat="45.95507" lon="2.63055">
        <ele>679</ele>
        <time>2017-10-17T00:44:46Z</time>
      </trkpt>
      <trkpt lat="45.95464" lon="2.63121">
        <ele>680</ele>
        <time>2017-10-17T00:46:46Z</time>
      </trkpt>
      <trkpt lat="45.95442" lon="2.6316">
        <ele>681</ele>
        <time>2017-10-17T00:48:46Z</time>
      </trkpt>
      <trkpt lat="45.95394" lon="2.63207">
        <ele>680</ele>
        <time>2017-10-17T00:50:46Z</time>
      </trkpt>
      <trkpt lat="45.95364" lon="2.63233">
        <ele>680</ele>
        <time>2017-10-17T00:52:46Z</time>
      </trkpt>
      <trkpt lat="45.95325" lon="2.63264">
        <ele>682</ele>
        <time>2017-10-17T00:54:46Z</time>
      </trkpt>
      <trkpt lat="45.95319" lon="2.63266">
        <ele>682</ele>
        <time>2017-10-17T00:56:46Z</time>
      </trkpt>
      <trkpt lat="45.95308" lon="2.63285">
        <ele>683</ele>
        <time>2017-10-17T00:58:46Z</time>
      </trkpt>
      <trkpt lat="45.95292" lon="2.63305">
        <ele>684</ele>
        <time>2017-10-17T01:00:46Z</time>
      </trkpt>
      <trkpt lat="45.95279" lon="2.63326">
        <ele>686</ele>
        <time>2017-10-17T01:02:46Z</time>
      </trkpt>
      <trkpt lat="45.95254" lon="2.63377">
        <ele>685</ele>
        <time>2017-10-17T01:04:46Z</time>
      </trkpt>
      <trkpt lat="45.95229" lon="2.6339">
        <ele>685</ele>
        <time>2017-10-17T01:06:46Z</time>
      </trkpt>
      <trkpt lat="45.95204" lon="2.63435">
        <ele>682</ele>
        <time>2017-10-17T01:08:46Z</time>
      </trkpt>
      <trkpt lat="45.95205" lon="2.63455">
        <ele>680</ele>
        <time>2017-10-17T01:10:46Z</time>
      </trkpt>
      <trkpt lat="45.95222" lon="2.63514">
        <ele>676</ele>
        <time>2017-10-17T01:12:46Z</time>
      </trkpt>
      <trkpt lat="45.95233" lon="2.63571">
        <ele>672</ele>
        <time>2017-10-17T01:14:46Z</time>
      </trkpt>
      <trkpt lat="45.95232" lon="2.636">
        <ele>673</ele>
        <time>2017-10-17T01:16:46Z</time>
      </trkpt>
      <trkpt lat="45.95219" lon="2.63617">
        <ele>675</ele>
        <time>2017-10-17T01:18:46Z</time>
      </trkpt>
      <trkpt lat="45.95203" lon="2.63632">
        <ele>677</ele>
        <time>2017-10-17T01:20:46Z</time>
      </trkpt>
      <trkpt lat="45.95188" lon="2.63642">
        <ele>679</ele>
        <time>2017-10-17T01:22:46Z</time>
      </trkpt>
      <trkpt lat="45.95173" lon="2.63648">
        <ele>681</ele>
        <time>2017-10-17T01:24:46Z</time>
      </trkpt>
      <trkpt lat="45.95156" lon="2.63661">
        <ele>683</ele>
        <time>2017-10-17T01:26:46Z</time>
      </trkpt>
      <trkpt lat="45.95138" lon="2.6369">
        <ele>683</ele>
        <time>2017-10-17T01:28:46Z</time>
      </trkpt>
      <trkpt lat="45.95129" lon="2.63731">
        <ele>682</ele>
        <time>2017-10-17T01:30:46Z</time>
      </trkpt>
      <trkpt lat="45.95124" lon="2.63783">
        <ele>682</ele>
        <time>2017-10-17T01:32:46Z</time>
      </trkpt>
      <trkpt lat="45.95121" lon="2.63845">
        <ele>683</ele>
        <time>2017-10-17T01:34:46Z</time>
      </trkpt>
      <trkpt lat="45.9512" lon="2.63867">
        <ele>682</ele>
        <time>2017-10-17T01:36:46Z</time>
      </trkpt>
      <trkpt lat="45.95111" lon="2.63873">
        <ele>682</ele>
        <time>2017-10-17T01:38:46Z</time>
      </trkpt>
      <trkpt lat="45.95077" lon="2.6384">
        <ele>683</ele>
        <time>2017-10-17T01:40:46Z</time>
      </trkpt>
      <trkpt lat="45.95052" lon="2.63799">
        <ele>684</ele>
        <time>2017-10-17T01:42:46Z</time>
      </trkpt>
      <trkpt lat="45.95011" lon="2.63766">
        <ele>685</ele>
        <time>2017-10-17T01:44:46Z</time>
      </trkpt>
      <trkpt lat="45.94977" lon="2.63764">
        <ele>687</ele>
        <time>2017-10-17T01:46:46Z</time>
      </trkpt>
      <trkpt lat="45.94914" lon="2.63787">
        <ele>690</ele>
        <time>2017-10-17T01:48:46Z</time>
      </trkpt>
      <trkpt lat="45.94821" lon="2.63831">
        <ele>691</ele>
        <time>2017-10-17T01:50:46Z</time>
      </trkpt>
      <trkpt lat="45.94793" lon="2.6384">
        <ele>692</ele>
        <time>2017-10-17T01:52:46Z</time>
      </trkpt>
      <trkpt lat="45.94757" lon="2.63828">
        <ele>693</ele>
        <time>2017-10-17T01:54:46Z</time>
      </trkpt>
      <trkpt lat="45.94674" lon="2.63784">
        <ele>694</ele>
        <time>2017-10-17T01:56:46Z</time>
      </trkpt>
      <trkpt lat="45.94636" lon="2.63764">
        <ele>694</ele>
        <time>2017-10-17T01:58:46Z</time>
      </trkpt>
      <trkpt lat="45.94632" lon="2.63763">
        <ele>694</ele>
        <time>2017-10-17T02:00:46Z</time>
      </trkpt>
      <trkpt lat="45.94626" lon="2.63778">
        <ele>694</ele>
        <time>2017-10-17T02:02:46Z</time>
      </trkpt>
      <trkpt lat="45.94625" lon="2.63792">
        <ele>694</ele>
        <time>2017-10-17T02:04:46Z</time>
      </trkpt>
      <trkpt lat="45.94616" lon="2.63855">
        <ele>693</ele>
        <time>2017-10-17T02:06:46Z</time>
      </trkpt>
      <trkpt lat="45.94606" lon="2.63889">
        <ele>692</ele>
        <time>2017-10-17T02:08:46Z</time>
      </trkpt>
      <trkpt lat="45.94572" lon="2.63998">
        <ele>687</ele>
        <time>2017-10-17T02:10:46Z</time>
      </trkpt>
      <trkpt lat="45.94562" lon="2.64079">
        <ele>685</ele>
        <time>2017-10-17T02:12:46Z</time>
      </trkpt>
      <trkpt lat="45.94561" lon="2.64109">
        <ele>684</ele>
        <time>2017-10-17T02:14:46Z</time>
      </trkpt>
      <trkpt lat="45.94573" lon="2.64211">
        <ele>682</ele>
        <time>2017-10-17T02:16:46Z</time>
      </trkpt>
      <trkpt lat="45.94572" lon="2.64275">
        <ele>681</ele>
        <time>2017-10-17T02:18:46Z</time>
      </trkpt>
      <trkpt lat="45.94545" lon="2.64338">
        <ele>680</ele>
        <time>2017-10-17T02:20:46Z</time>
      </trkpt>
      <trkpt lat="45.9453" lon="2.64369">
        <ele>679</ele>
        <time>2017-10-17T02:22:46Z</time>
      </trkpt>
      <trkpt lat="45.94525" lon="2.64388">
        <ele>680</ele>
        <time>2017-10-17T02:24:46Z</time>
      </trkpt>
      <trkpt lat="45.94518" lon="2.64435">
        <ele>681</ele>
        <time>2017-10-17T02:26:46Z</time>
      </trkpt>
      <trkpt lat="45.94511" lon="2.6452">
        <ele>683</ele>
        <time>2017-10-17T02:28:46Z</time>
      </trkpt>
      <trkpt lat="45.94489" lon="2.64577">
        <ele>683</ele>
        <time>2017-10-17T02:30:46Z</time>
      </trkpt>
      <trkpt lat="45.94449" lon="2.64623">
        <ele>681</ele>
        <time>2017-10-17T02:32:46Z</time>
      </trkpt>
      <trkpt lat="45.944" lon="2.64703">
        <ele>675</ele>
        <time>2017-10-17T02:34:46Z</time>
      </trkpt>
      <trkpt lat="45.94323" lon="2.64822">
        <ele>669</ele>
        <time>2017-10-17T02:36:46Z</time>
      </trkpt>
      <trkpt lat="45.94235" lon="2.64972">
        <ele>658</ele>
        <time>2017-10-17T02:38:46Z</time>
      </trkpt>
      <trkpt lat="45.94176" lon="2.65103">
        <ele>657</ele>
        <time>2017-10-17T02:40:46Z</time>
      </trkpt>
      <trkpt lat="45.94091" lon="2.65247">
        <ele>659</ele>
        <time>2017-10-17T02:42:46Z</time>
      </trkpt>
      <trkpt lat="45.94076" lon="2.65277">
        <ele>659</ele>
        <time>2017-10-17T02:44:46Z</time>
      </trkpt>
      <trkpt lat="45.94029" lon="2.65332">
        <ele>658</ele>
        <time>2017-10-17T02:46:46Z</time>
      </trkpt>
      <trkpt lat="45.93989" lon="2.65391">
        <ele>658</ele>
        <time>2017-10-17T02:48:46Z</time>
      </trkpt>
      <trkpt lat="45.93949" lon="2.65443">
        <ele>659</ele>
        <time>2017-10-17T02:50:46Z</time>
      </trkpt>
      <trkpt lat="45.93935" lon="2.65473">
        <ele>659</ele>
        <time>2017-10-17T02:52:46Z</time>
      </trkpt>
      <trkpt lat="45.93889" lon="2.65669">
        <ele>654</ele>
        <time>2017-10-17T02:54:46Z</time>
      </trkpt>
      <trkpt lat="45.93871" lon="2.65714">
        <ele>653</ele>
        <time>2017-10-17T02:56:46Z</time>
      </trkpt>
      <trkpt lat="45.93863" lon="2.65744">
        <ele>652</ele>
        <time>2017-10-17T02:58:46Z</time>
      </trkpt>
      <trkpt lat="45.93861" lon="2.65786">
        <ele>651</ele>
        <time>2017-10-17T03:00:46Z</time>
      </trkpt>
      <trkpt lat="45.93858" lon="2.65804">
        <ele>651</ele>
        <time>2017-10-17T03:02:46Z</time>
      </trkpt>
      <trkpt lat="45.93849" lon="2.65879">
        <ele>649</ele>
        <time>2017-10-17T03:04:46Z</time>
      </trkpt>
      <trkpt lat="45.93843" lon="2.65917">
        <ele>647</ele>
        <time>2017-10-17T03:06:46Z</time>
      </trkpt>
      <trkpt lat="45.93836" lon="2.66036">
        <ele>645</ele>
        <time>2017-10-17T03:08:46Z</time>
      </trkpt>
      <trkpt lat="45.93833" lon="2.66147">
        <ele>645</ele>
        <time>2017-10-17T03:10:46Z</time>
      </trkpt>
      <trkpt lat="45.93829" lon="2.66229">
        <ele>643</ele>
        <time>2017-10-17T03:12:46Z</time>
      </trkpt>
      <trkpt lat="45.93793" lon="2.66338">
        <ele>643</ele>
        <time>2017-10-17T03:14:46Z</time>
      </trkpt>
      <trkpt lat="45.93772" lon="2.66424">
        <ele>642</ele>
        <time>2017-10-17T03:16:46Z</time>
      </trkpt>
      <trkpt lat="45.93722" lon="2.6664">
        <ele>641</ele>
        <time>2017-10-17T03:18:46Z</time>
      </trkpt>
      <trkpt lat="45.93705" lon="2.66693">
        <ele>641</ele>
        <time>2017-10-17T03:20:46Z</time>
      </trkpt>
      <trkpt lat="45.93674" lon="2.66689">
        <ele>641</ele>
        <time>2017-10-17T03:22:46Z</time>
      </trkpt>
      <trkpt lat="45.93644" lon="2.66674">
        <ele>642</ele>
        <time>2017-10-17T03:24:46Z</time>
      </trkpt>
      <trkpt lat="45.93616" lon="2.66655">
        <ele>641</ele>
        <time>2017-10-17T03:26:46Z</time>
      </trkpt>
      <trkpt lat="45.93607" lon="2.66652">
        <ele>641</ele>
        <time>2017-10-17T03:28:46Z</time>
      </trkpt>
      <trkpt lat="45.93572" lon="2.6667">
        <ele>640</ele>
        <time>2017-10-17T03:30:46Z</time>
      </trkpt>
      <trkpt lat="45.93566" lon="2.66677">
        <ele>639</ele>
        <time>2017-10-17T03:32:46Z</time>
      </trkpt>
      <trkpt lat="45.93551" lon="2.66703">
        <ele>637</ele>
        <time>2017-10-17T03:34:46Z</time>
      </trkpt>
      <trkpt lat="45.93503" lon="2.66757">
        <ele>633</ele>
        <time>2017-10-17T03:36:46Z</time>
      </trkpt>
      <trkpt lat="45.93475" lon="2.66775">
        <ele>631</ele>
        <time>2017-10-17T03:38:46Z</time>
      </trkpt>
      <trkpt lat="45.93321" lon="2.66826">
        <ele>622</ele>
        <time>2017-10-17T03:40:46Z</time>
      </trkpt>
      <trkpt lat="45.93289" lon="2.66822">
        <ele>623</ele>
        <time>2017-10-17T03:42:46Z</time>
      </trkpt>
      <trkpt lat="45.93285" lon="2.66834">
        <ele>623</ele>
        <time>2017-10-17T03:44:46Z</time>
      </trkpt>
      <trkpt lat="45.93281" lon="2.66928">
        <ele>624</ele>
        <time>2017-10-17T03:46:46Z</time>
      </trkpt>
      <trkpt lat="45.93285" lon="2.67002">
        <ele>624</ele>
        <time>2017-10-17T03:48:46Z</time>
      </trkpt>
      <trkpt lat="45.93308" lon="2.67118">
        <ele>625</ele>
        <time>2017-10-17T03:50:46Z</time>
      </trkpt>
      <trkpt lat="45.9332" lon="2.67162">
        <ele>625</ele>
        <time>2017-10-17T03:52:46Z</time>
      </trkpt>
      <trkpt lat="45.93347" lon="2.67213">
        <ele>626</ele>
        <time>2017-10-17T03:54:46Z</time>
      </trkpt>
      <trkpt lat="45.93358" lon="2.67252">
        <ele>625</ele>
        <time>2017-10-17T03:56:46Z</time>
      </trkpt>
      <trkpt lat="45.93384" lon="2.67516">
        <ele>617</ele>
        <time>2017-10-17T03:58:46Z</time>
      </trkpt>
      <trkpt lat="45.93387" lon="2.67552">
        <ele>617</ele>
        <time>2017-10-17T04:00:46Z</time>
      </trkpt>
      <trkpt lat="45.93385" lon="2.67612">
        <ele>619</ele>
        <time>2017-10-17T04:02:46Z</time>
      </trkpt>
      <trkpt lat="45.93388" lon="2.67636">
        <ele>619</ele>
        <time>2017-10-17T04:04:46Z</time>
      </trkpt>
      <trkpt lat="45.93391" lon="2.67647">
        <ele>620</ele>
        <time>2017-10-17T04:06:46Z</time>
      </trkpt>
      <trkpt lat="45.93392" lon="2.67659">
        <ele>620</ele>
        <time>2017-10-17T04:08:46Z</time>
      </trkpt>
      <trkpt lat="45.934" lon="2.67717">
        <ele>622</ele>
        <time>2017-10-17T04:10:46Z</time>
      </trkpt>
      <trkpt lat="45.93406" lon="2.67782">
        <ele>623</ele>
        <time>2017-10-17T04:12:46Z</time>
      </trkpt>
      <trkpt lat="45.93401" lon="2.67836">
        <ele>624</ele>
        <time>2017-10-17T04:14:46Z</time>
      </trkpt>
      <trkpt lat="45.93381" lon="2.67878">
        <ele>625</ele>
        <time>2017-10-17T04:16:46Z</time>
      </trkpt>
      <trkpt lat="45.93359" lon="2.67967">
        <ele>629</ele>
        <time>2017-10-17T04:18:46Z</time>
      </trkpt>
      <trkpt lat="45.93362" lon="2.68005">
        <ele>631</ele>
        <time>2017-10-17T04:20:46Z</time>
      </trkpt>
      <trkpt lat="45.93375" lon="2.6805">
        <ele>632</ele>
        <time>2017-10-17T04:22:46Z</time>
      </trkpt>
      <trkpt lat="45.93382" lon="2.68122">
        <ele>633</ele>
        <time>2017-10-17T04:24:46Z</time>
      </trkpt>
      <trkpt lat="45.93391" lon="2.68196">
        <ele>632</ele>
        <time>2017-10-17T04:26:46Z</time>
      </trkpt>
      <trkpt lat="45.93397" lon="2.68231">
        <ele>631</ele>
        <time>2017-10-17T04:28:46Z</time>
      </trkpt>
      <trkpt lat="45.93414" lon="2.68345">
        <ele>623</ele>
        <time>2017-10-17T04:30:46Z</time>
      </trkpt>
      <trkpt lat="45.93416" lon="2.68378">
        <ele>619</ele>
        <time>2017-10-17T04:32:46Z</time>
      </trkpt>
      <trkpt lat="45.93423" lon="2.68397">
        <ele>616</ele>
        <time>2017-10-17T04:34:46Z</time>
      </trkpt>
      <trkpt lat="45.93433" lon="2.68414">
        <ele>613</ele>
        <time>2017-10-17T04:36:46Z</time>
      </trkpt>
      <trkpt lat="45.93487" lon="2.68534">
        <ele>599</ele>
        <time>2017-10-17T04:38:46Z</time>
      </trkpt>
      <trkpt lat="45.93526" lon="2.68692">
        <ele>586</ele>
        <time>2017-10-17T04:40:46Z</time>
      </trkpt>
      <trkpt lat="45.93561" lon="2.68788">
        <ele>579</ele>
        <time>2017-10-17T04:42:46Z</time>
      </trkpt>
      <trkpt lat="45.93562" lon="2.68799">
        <ele>578</ele>
        <time>2017-10-17T04:44:46Z</time>
      </trkpt>
      <trkpt lat="45.93564" lon="2.6882">
        <ele>577</ele>
        <time>2017-10-17T04:46:46Z</time>
      </trkpt>
      <trkpt lat="45.93569" lon="2.6898">
        <ele>566</ele>
        <time>2017-10-17T04:48:46Z</time>
      </trkpt>
      <trkpt lat="45.93576" lon="2.69079">
        <ele>556</ele>
        <time>2017-10-17T04:50:46Z</time>
      </trkpt>
      <trkpt lat="45.93579" lon="2.69085">
        <ele>556</ele>
        <time>2017-10-17T04:52:46Z</time>
      </trkpt>
      <trkpt lat="45.93587" lon="2.69102">
        <ele>554</ele>
        <time>2017-10-17T04:54:46Z</time>
      </trkpt>
      <trkpt lat="45.93587" lon="2.69108">
        <ele>554</ele>
        <time>2017-10-17T04:56:46Z</time>
      </trkpt>
      <trkpt lat="45.93586" lon="2.69114">
        <ele>554</ele>
        <time>2017-10-17T04:58:46Z</time>
      </trkpt>
      <trkpt lat="45.93579" lon="2.69122">
        <ele>553</ele>
        <time>2017-10-17T05:00:46Z</time>
      </trkpt>
      <trkpt lat="45.93555" lon="2.69116">
        <ele>552</ele>
        <time>2017-10-17T05:02:46Z</time>
      </trkpt>
      <trkpt lat="45.93539" lon="2.69116">
        <ele>551</ele>
        <time>2017-10-17T05:04:46Z</time>
      </trkpt>
      <trkpt lat="45.9352" lon="2.69123">
        <ele>550</ele>
        <time>2017-10-17T05:06:46Z</time>
      </trkpt>
      <trkpt lat="45.93495" lon="2.69134">
        <ele>548</ele>
        <time>2017-10-17T05:08:46Z</time>
      </trkpt>
      <trkpt lat="45.93487" lon="2.69146">
        <ele>548</ele>
        <time>2017-10-17T05:10:46Z</time>
      </trkpt>
      <trkpt lat="45.93484" lon="2.69147">
        <ele>548</ele>
        <time>2017-10-17T05:12:46Z</time>
      </trkpt>
      <trkpt lat="45.93475" lon="2.69147">
        <ele>548</ele>
        <time>2017-10-17T05:14:46Z</time>
      </trkpt>
      <trkpt lat="45.93439" lon="2.69156">
        <ele>547</ele>
        <time>2017-10-17T05:16:46Z</time>
      </trkpt>
      <trkpt lat="45.93429" lon="2.69173">
        <ele>547</ele>
        <time>2017-10-17T05:18:46Z</time>
      </trkpt>
      <trkpt lat="45.93431" lon="2.69183">
        <ele>548</ele>
        <time>2017-10-17T05:20:46Z</time>
      </trkpt>
      <trkpt lat="45.93434" lon="2.69194">
        <ele>549</ele>
        <time>2017-10-17T05:22:46Z</time>
      </trkpt>
      <trkpt lat="45.93438" lon="2.6921">
        <ele>551</ele>
        <time>2017-10-17T05:24:46Z</time>
      </trkpt>
      <trkpt lat="45.93436" lon="2.69219">
        <ele>552</ele>
        <time>2017-10-17T05:26:46Z</time>
      </trkpt>
      <trkpt lat="45.93432" lon="2.69224">
        <ele>552</ele>
        <time>2017-10-17T05:28:46Z</time>
      </trkpt>
      <trkpt lat="45.93391" lon="2.69262">
        <ele>552</ele>
        <time>2017-10-17T05:30:46Z</time>
      </trkpt>
      <trkpt lat="45.9335" lon="2.69298">
        <ele>552</ele>
        <time>2017-10-17T05:32:46Z</time>
      </trkpt>
      <trkpt lat="45.93296" lon="2.69345">
        <ele>549</ele>
        <time>2017-10-17T05:34:46Z</time>
      </trkpt>
      <trkpt lat="45.93265" lon="2.69377">
        <ele>548</ele>
        <time>2017-10-17T05:36:46Z</time>
      </trkpt>
      <trkpt lat="45.93259" lon="2.69403">
        <ele>549</ele>
        <time>2017-10-17T05:38:46Z</time>
      </trkpt>
      <trkpt lat="45.9325" lon="2.69431">
        <ele>551</ele>
        <time>2017-10-17T05:40:46Z</time>
      </trkpt>
      <trkpt lat="45.93215" lon="2.69439">
        <ele>549</ele>
        <time>2017-10-17T05:42:46Z</time>
      </trkpt>
      <trkpt lat="45.93199" lon="2.69446">
        <ele>549</ele>
        <time>2017-10-17T05:44:46Z</time>
      </trkpt>
      <trkpt lat="45.93162" lon="2.69478">
        <ele>548</ele>
        <time>2017-10-17T05:46:46Z</time>
      </trkpt>
      <trkpt lat="45.93136" lon="2.69503">
        <ele>548</ele>
        <time>2017-10-17T05:48:46Z</time>
      </trkpt>
      <trkpt lat="45.93066" lon="2.69581">
        <ele>549</ele>
        <time>2017-10-17T05:50:46Z</time>
      </trkpt>
      <trkpt lat="45.93052" lon="2.69592">
        <ele>549</ele>
        <time>2017-10-17T05:52:46Z</time>
      </trkpt>
      <trkpt lat="45.93042" lon="2.69598">
        <ele>548</ele>
        <time>2017-10-17T05:54:46Z</time>
      </trkpt>
      <trkpt lat="45.9301" lon="2.69611">
        <ele>546</ele>
        <time>2017-10-17T05:56:46Z</time>
      </trkpt>
      <trkpt lat="45.92963" lon="2.6964">
        <ele>544</ele>
        <time>2017-10-17T05:58:46Z</time>
      </trkpt>
      <trkpt lat="45.92933" lon="2.69653">
        <ele>541</ele>
        <time>2017-10-17T06:00:46Z</time>
      </trkpt>
      <trkpt lat="45.9292" lon="2.69661">
        <ele>539</ele>
        <time>2017-10-17T06:02:46Z</time>
      </trkpt>
      <trkpt lat="45.92846" lon="2.69728">
        <ele>542</ele>
        <time>2017-10-17T06:04:46Z</time>
      </trkpt>
      <trkpt lat="45.92789" lon="2.69771">
        <ele>542</ele>
        <time>2017-10-17T06:06:46Z</time>
      </trkpt>
      <trkpt lat="45.92775" lon="2.69788">
        <ele>543</ele>
        <time>2017-10-17T06:08:46Z</time>
      </trkpt>
      <trkpt lat="45.92743" lon="2.69858">
        <ele>543</ele>
        <time>2017-10-17T06:10:46Z</time>
      </trkpt>
      <trkpt lat="45.92734" lon="2.6988">
        <ele>544</ele>
        <time>2017-10-17T06:12:46Z</time>
      </trkpt>
      <trkpt lat="45.9273" lon="2.69895">
        <ele>545</ele>
        <time>2017-10-17T06:14:46Z</time>
      </trkpt>
      <trkpt lat="45.92718" lon="2.6993">
        <ele>546</ele>
        <time>2017-10-17T06:16:46Z</time>
      </trkpt>
      <trkpt lat="45.92697" lon="2.6996">
        <ele>547</ele>
        <time>2017-10-17T06:18:46Z</time>
      </trkpt>
      <trkpt lat="45.92656" lon="2.69999">
        <ele>545</ele>
        <time>2017-10-17T06:20:46Z</time>
      </trkpt>
      <trkpt lat="45.92545" lon="2.70172">
        <ele>538</ele>
        <time>2017-10-17T06:22:46Z</time>
      </trkpt>
      <trkpt lat="45.92528" lon="2.70185">
        <ele>537</ele>
        <time>2017-10-17T06:24:46Z</time>
      </trkpt>
      <trkpt lat="45.92434" lon="2.70241">
        <ele>537</ele>
        <time>2017-10-17T06:26:46Z</time>
      </trkpt>
      <trkpt lat="45.92355" lon="2.70291">
        <ele>537</ele>
        <time>2017-10-17T06:28:46Z</time>
      </trkpt>
      <trkpt lat="45.9228" lon="2.70363">
        <ele>537</ele>
        <time>2017-10-17T06:30:46Z</time>
      </trkpt>
      <trkpt lat="45.92242" lon="2.7041">
        <ele>535</ele>
        <time>2017-10-17T06:32:46Z</time>
      </trkpt>
      <trkpt lat="45.92188" lon="2.70472">
        <ele>534</ele>
        <time>2017-10-17T06:34:46Z</time>
      </trkpt>
      <trkpt lat="45.92182" lon="2.70476">
        <ele>533</ele>
        <time>2017-10-17T06:36:46Z</time>
      </trkpt>
      <trkpt lat="45.92175" lon="2.7048">
        <ele>533</ele>
        <time>2017-10-17T06:38:46Z</time>
      </trkpt>
      <trkpt lat="45.92148" lon="2.70496">
        <ele>531</ele>
        <time>2017-10-17T06:40:46Z</time>
      </trkpt>
      <trkpt lat="45.92141" lon="2.70504">
        <ele>532</ele>
        <time>2017-10-17T06:42:46Z</time>
      </trkpt>
      <trkpt lat="45.92121" lon="2.70514">
        <ele>532</ele>
        <time>2017-10-17T06:44:46Z</time>
      </trkpt>
      <trkpt lat="45.92086" lon="2.70531">
        <ele>534</ele>
        <time>2017-10-17T06:46:46Z</time>
      </trkpt>
      <trkpt lat="45.92062" lon="2.70542">
        <ele>533</ele>
        <time>2017-10-17T06:48:46Z</time>
      </trkpt>
      <trkpt lat="45.92028" lon="2.70565">
        <ele>533</ele>
        <time>2017-10-17T06:50:46Z</time>
      </trkpt>
      <trkpt lat="45.91995" lon="2.706">
        <ele>532</ele>
        <time>2017-10-17T06:52:46Z</time>
      </trkpt>
      <trkpt lat="45.91989" lon="2.70608">
        <ele>533</ele>
        <time>2017-10-17T06:54:46Z</time>
      </trkpt>
      <trkpt lat="45.91964" lon="2.70635">
        <ele>535</ele>
        <time>2017-10-17T06:56:46Z</time>
      </trkpt>
      <trkpt lat="45.91954" lon="2.70652">
        <ele>537</ele>
        <time>2017-10-17T06:58:46Z</time>
      </trkpt>
      <trkpt lat="45.91952" lon="2.70647">
        <ele>536</ele>
        <time>2017-10-17T07:00:46Z</time>
      </trkpt>
      <trkpt lat="45.9193" lon="2.70694">
        <ele>543</ele>
        <time>2017-10-17T07:02:46Z</time>
      </trkpt>
      <trkpt lat="45.91902" lon="2.70737">
        <ele>551</ele>
        <time>2017-10-17T07:04:46Z</time>
      </trkpt>
      <trkpt lat="45.91883" lon="2.70752">
        <ele>554</ele>
        <time>2017-10-17T07:06:46Z</time>
      </trkpt>
      <trkpt lat="45.91853" lon="2.70778">
        <ele>555</ele>
        <time>2017-10-17T07:08:46Z</time>
      </trkpt>
      <trkpt lat="45.91849" lon="2.70786">
        <ele>556</ele>
        <time>2017-10-17T07:10:46Z</time>
      </trkpt>
      <trkpt lat="45.91829" lon="2.70802">
        <ele>557</ele>
        <time>2017-10-17T07:12:46Z</time>
      </trkpt>
      <trkpt lat="45.91793" lon="2.70813">
        <ele>559</ele>
        <time>2017-10-17T07:14:46Z</time>
      </trkpt>
      <trkpt lat="45.91762" lon="2.70826">
        <ele>561</ele>
        <time>2017-10-17T07:16:46Z</time>
      </trkpt>
      <trkpt lat="45.91738" lon="2.70839">
        <ele>563</ele>
        <time>2017-10-17T07:18:46Z</time>
      </trkpt>
      <trkpt lat="45.91713" lon="2.70857">
        <ele>564</ele>
        <time>2017-10-17T07:20:46Z</time>
      </trkpt>
      <trkpt lat="45.91692" lon="2.70868">
        <ele>566</ele>
        <time>2017-10-17T07:22:46Z</time>
      </trkpt>
      <trkpt lat="45.91673" lon="2.70882">
        <ele>568</ele>
        <time>2017-10-17T07:24:46Z</time>
      </trkpt>
      <trkpt lat="45.91642" lon="2.70916">
        <ele>572</ele>
        <time>2017-10-17T07:26:46Z</time>
      </trkpt>
      <trkpt lat="45.91623" lon="2.70943">
        <ele>574</ele>
        <time>2017-10-17T07:28:46Z</time>
      </trkpt>
      <trkpt lat="45.91615" lon="2.7097">
        <ele>576</ele>
        <time>2017-10-17T07:30:46Z</time>
      </trkpt>
      <trkpt lat="45.91615" lon="2.7098">
        <ele>576</ele>
        <time>2017-10-17T07:32:46Z</time>
      </trkpt>
      <trkpt lat="45.91606" lon="2.71069">
        <ele>578</ele>
        <time>2017-10-17T07:34:46Z</time>
      </trkpt>
      <trkpt lat="45.916" lon="2.7112">
        <ele>579</ele>
        <time>2017-10-17T07:36:46Z</time>
      </trkpt>
      <trkpt lat="45.91563" lon="2.71275">
        <ele>586</ele>
        <time>2017-10-17T07:38:46Z</time>
      </trkpt>
      <trkpt lat="45.91551" lon="2.71353">
        <ele>588</ele>
        <time>2017-10-17T07:40:46Z</time>
      </trkpt>
      <trkpt lat="45.91553" lon="2.7141">
        <ele>590</ele>
        <time>2017-10-17T07:42:46Z</time>
      </trkpt>
      <trkpt lat="45.91577" lon="2.71508">
        <ele>594</ele>
        <time>2017-10-17T07:44:46Z</time>
      </trkpt>
      <trkpt lat="45.91583" lon="2.71549">
        <ele>597</ele>
        <time>2017-10-17T07:46:46Z</time>
      </trkpt>
      <trkpt lat="45.91586" lon="2.71592">
        <ele>600</ele>
        <time>2017-10-17T07:48:46Z</time>
      </trkpt>
      <trkpt lat="45.91579" lon="2.71598">
        <ele>600</ele>
        <time>2017-10-17T07:50:46Z</time>
      </trkpt>
      <trkpt lat="45.91513" lon="2.71584">
        <ele>597</ele>
        <time>2017-10-17T07:52:46Z</time>
      </trkpt>
      <trkpt lat="45.91485" lon="2.71578">
        <ele>594</ele>
        <time>2017-10-17T07:54:46Z</time>
      </trkpt>
      <trkpt lat="45.91475" lon="2.71578">
        <ele>593</ele>
        <time>2017-10-17T07:56:46Z</time>
      </trkpt>
      <trkpt lat="45.91401" lon="2.71564">
        <ele>587</ele>
        <time>2017-10-17T07:58:46Z</time>
      </trkpt>
      <trkpt lat="45.91309" lon="2.71557">
        <ele>580</ele>
        <time>2017-10-17T08:00:46Z</time>
      </trkpt>
      <trkpt lat="45.91299" lon="2.71558">
        <ele>580</ele>
        <time>2017-10-17T08:02:46Z</time>
      </trkpt>
      <trkpt lat="45.91165" lon="2.71568">
        <ele>569</ele>
        <time>2017-10-17T08:04:46Z</time>
      </trkpt>
      <trkpt lat="45.91155" lon="2.71571">
        <ele>568</ele>
        <time>2017-10-17T08:06:46Z</time>
      </trkpt>
      <trkpt lat="45.91118" lon="2.71574">
        <ele>565</ele>
        <time>2017-10-17T08:08:46Z</time>
      </trkpt>
      <trkpt lat="45.9106" lon="2.7156">
        <ele>564</ele>
        <time>2017-10-17T08:10:46Z</time>
      </trkpt>
      <trkpt lat="45.9099" lon="2.71547">
        <ele>567</ele>
        <time>2017-10-17T08:12:46Z</time>
      </trkpt>
      <trkpt lat="45.90961" lon="2.71541">
        <ele>568</ele>
        <time>2017-10-17T08:14:46Z</time>
      </trkpt>
      <trkpt lat="45.90916" lon="2.71537">
        <ele>571</ele>
        <time>2017-10-17T08:16:46Z</time>
      </trkpt>
      <trkpt lat="45.90859" lon="2.71529">
        <ele>570</ele>
        <time>2017-10-17T08:18:46Z</time>
      </trkpt>
      <trkpt lat="45.90841" lon="2.71515">
        <ele>570</ele>
        <time>2017-10-17T08:20:46Z</time>
      </trkpt>
      <trkpt lat="45.90809" lon="2.71477">
        <ele>572</ele>
        <time>2017-10-17T08:22:46Z</time>
      </trkpt>
      <trkpt lat="45.90805" lon="2.71464">
        <ele>573</ele>
        <time>2017-10-17T08:24:46Z</time>
      </trkpt>
      <trkpt lat="45.908" lon="2.71426">
        <ele>573</ele>
        <time>2017-10-17T08:26:46Z</time>
      </trkpt>
      <trkpt lat="45.90783" lon="2.71393">
        <ele>573</ele>
        <time>2017-10-17T08:28:46Z</time>
      </trkpt>
      <trkpt lat="45.90758" lon="2.71362">
        <ele>574</ele>
        <time>2017-10-17T08:30:46Z</time>
      </trkpt>
      <trkpt lat="45.90726" lon="2.71331">
        <ele>574</ele>
        <time>2017-10-17T08:32:46Z</time>
      </trkpt>
      <trkpt lat="45.90666" lon="2.71311">
        <ele>575</ele>
        <time>2017-10-17T08:34:46Z</time>
      </trkpt>
      <trkpt lat="45.90632" lon="2.71305">
        <ele>576</ele>
        <time>2017-10-17T08:36:46Z</time>
      </trkpt>
      <trkpt lat="45.90567" lon="2.71287">
        <ele>574</ele>
        <time>2017-10-17T08:38:46Z</time>
      </trkpt>
      <trkpt lat="45.90483" lon="2.71271">
        <ele>563</ele>
        <time>2017-10-17T08:40:46Z</time>
      </trkpt>
      <trkpt lat="45.90448" lon="2.71258">
        <ele>558</ele>
        <time>2017-10-17T08:42:46Z</time>
      </trkpt>
      <trkpt lat="45.90386" lon="2.71216">
        <ele>552</ele>
        <time>2017-10-17T08:44:46Z</time>
      </trkpt>
      <trkpt lat="45.90351" lon="2.712">
        <ele>547</ele>
        <time>2017-10-17T08:46:46Z</time>
      </trkpt>
      <trkpt lat="45.90273" lon="2.71187">
        <ele>533</ele>
        <time>2017-10-17T08:48:46Z</time>
      </trkpt>
      <trkpt lat="45.90266" lon="2.71187">
        <ele>532</ele>
        <time>2017-10-17T08:50:46Z</time>
      </trkpt>
      <trkpt lat="45.90243" lon="2.71195">
        <ele>530</ele>
        <time>2017-10-17T08:52:46Z</time>
      </trkpt>
      <trkpt lat="45.90228" lon="2.71201">
        <ele>528</ele>
        <time>2017-10-17T08:54:46Z</time>
      </trkpt>
      <trkpt lat="45.90185" lon="2.71224">
        <ele>524</ele>
        <time>2017-10-17T08:56:46Z</time>
      </trkpt>
      <trkpt lat="45.90165" lon="2.71237">
        <ele>521</ele>
        <time>2017-10-17T08:58:46Z</time>
      </trkpt>
      <trkpt lat="45.9007" lon="2.71287">
        <ele>518</ele>
        <time>2017-10-17T09:00:46Z</time>
      </trkpt>
      <trkpt lat="45.89997" lon="2.71365">
        <ele>518</ele>
        <time>2017-10-17T09:02:46Z</time>
      </trkpt>
      <trkpt lat="45.8998" lon="2.71382">
        <ele>518</ele>
        <time>2017-10-17T09:04:46Z</time>
      </trkpt>
      <trkpt lat="45.8996" lon="2.714">
        <ele>517</ele>
        <time>2017-10-17T09:06:46Z</time>
      </trkpt>
      <trkpt lat="45.89956" lon="2.71398">
        <ele>517</ele>
        <time>2017-10-17T09:08:46Z</time>
      </trkpt>
      <trkpt lat="45.89957" lon="2.71373">
        <ele>517</ele>
        <time>2017-10-17T09:10:46Z</time>
      </trkpt>
      <trkpt lat="45.89934" lon="2.71301">
        <ele>521</ele>
        <time>2017-10-17T09:12:46Z</time>
      </trkpt>
      <trkpt lat="45.89923" lon="2.71285">
        <ele>524</ele>
        <time>2017-10-17T09:14:46Z</time>
      </trkpt>
      <trkpt lat="45.89916" lon="2.71273">
        <ele>527</ele>
        <time>2017-10-17T09:16:46Z</time>
      </trkpt>
      <trkpt lat="45.89901" lon="2.71245">
        <ele>536</ele>
        <time>2017-10-17T09:18:46Z</time>
      </trkpt>
      <trkpt lat="45.89882" lon="2.71206">
        <ele>545</ele>
        <time>2017-10-17T09:20:46Z</time>
      </trkpt>
      <trkpt lat="45.89874" lon="2.71197">
        <ele>547</ele>
        <time>2017-10-17T09:22:46Z</time>
      </trkpt>
      <trkpt lat="45.89867" lon="2.71183">
        <ele>549</ele>
        <time>2017-10-17T09:24:46Z</time>
      </trkpt>
      <trkpt lat="45.8985" lon="2.71167">
        <ele>550</ele>
        <time>2017-10-17T09:26:46Z</time>
      </trkpt>
      <trkpt lat="45.8984" lon="2.71154">
        <ele>553</ele>
        <time>2017-10-17T09:28:46Z</time>
      </trkpt>
      <trkpt lat="45.89827" lon="2.7114">
        <ele>557</ele>
        <time>2017-10-17T09:30:46Z</time>
      </trkpt>
      <trkpt lat="45.89809" lon="2.71112">
        <ele>564</ele>
        <time>2017-10-17T09:32:46Z</time>
      </trkpt>
      <trkpt lat="45.89801" lon="2.71097">
        <ele>567</ele>
        <time>2017-10-17T09:34:46Z</time>
      </trkpt>
      <trkpt lat="45.89788" lon="2.71082">
        <ele>570</ele>
        <time>2017-10-17T09:36:46Z</time>
      </trkpt>
      <trkpt lat="45.89762" lon="2.71073">
        <ele>573</ele>
        <time>2017-10-17T09:38:46Z</time>
      </trkpt>
      <trkpt lat="45.89722" lon="2.71068">
        <ele>579</ele>
        <time>2017-10-17T09:40:46Z</time>
      </trkpt>
      <trkpt lat="45.89683" lon="2.7106">
        <ele>587</ele>
        <time>2017-10-17T09:42:46Z</time>
      </trkpt>
      <trkpt lat="45.89638" lon="2.71048">
        <ele>593</ele>
        <time>2017-10-17T09:44:46Z</time>
      </trkpt>
      <trkpt lat="45.89612" lon="2.71033">
        <ele>596</ele>
        <time>2017-10-17T09:46:46Z</time>
      </trkpt>
      <trkpt lat="45.89585" lon="2.70999">
        <ele>599</ele>
        <time>2017-10-17T09:48:46Z</time>
      </trkpt>
      <trkpt lat="45.89579" lon="2.70985">
        <ele>600</ele>
        <time>2017-10-17T09:50:46Z</time>
      </trkpt>
      <trkpt lat="45.89564" lon="2.70963">
        <ele>602</ele>
        <time>2017-10-17T09:52:46Z</time>
      </trkpt>
      <trkpt lat="45.8955" lon="2.70936">
        <ele>603</ele>
        <time>2017-10-17T09:54:46Z</time>
      </trkpt>
      <trkpt lat="45.8952" lon="2.70918">
        <ele>603</ele>
        <time>2017-10-17T09:56:46Z</time>
      </trkpt>
      <trkpt lat="45.89508" lon="2.70894">
        <ele>603</ele>
        <time>2017-10-17T09:58:46Z</time>
      </trkpt>
      <trkpt lat="45.89515" lon="2.70875">
        <ele>603</ele>
        <time>2017-10-17T10:00:46Z</time>
      </trkpt>
      <trkpt lat="45.89514" lon="2.70844">
        <ele>602</ele>
        <time>2017-10-17T10:02:46Z</time>
      </trkpt>
      <trkpt lat="45.89516" lon="2.70815">
        <ele>603</ele>
        <time>2017-10-17T10:04:46Z</time>
      </trkpt>
      <trkpt lat="45.89517" lon="2.70785">
        <ele>604</ele>
        <time>2017-10-17T10:06:46Z</time>
      </trkpt>
      <trkpt lat="45.89518" lon="2.70773">
        <ele>605</ele>
        <time>2017-10-17T10:08:46Z</time>
      </trkpt>
      <trkpt lat="45.89512" lon="2.70758">
        <ele>605</ele>
        <time>2017-10-17T10:10:46Z</time>
      </trkpt>
      <trkpt lat="45.89494" lon="2.7074">
        <ele>606</ele>
        <time>2017-10-17T10:12:46Z</time>
      </trkpt>
      <trkpt lat="45.8946" lon="2.70699">
        <ele>608</ele>
        <time>2017-10-17T10:14:46Z</time>
      </trkpt>
      <trkpt lat="45.8945" lon="2.70657">
        <ele>610</ele>
        <time>2017-10-17T10:16:46Z</time>
      </trkpt>
      <trkpt lat="45.89445" lon="2.70644">
        <ele>611</ele>
        <time>2017-10-17T10:18:46Z</time>
      </trkpt>
      <trkpt lat="45.89441" lon="2.70624">
        <ele>611</ele>
        <time>2017-10-17T10:20:46Z</time>
      </trkpt>
      <trkpt lat="45.89413" lon="2.70514">
        <ele>612</ele>
        <time>2017-10-17T10:22:46Z</time>
      </trkpt>
      <trkpt lat="45.89391" lon="2.70437">
        <ele>611</ele>
        <time>2017-10-17T10:24:46Z</time>
      </trkpt>
      <trkpt lat="45.89389" lon="2.70424">
        <ele>610</ele>
        <time>2017-10-17T10:26:46Z</time>
      </trkpt>
      <trkpt lat="45.89364" lon="2.70319">
        <ele>606</ele>
        <time>2017-10-17T10:28:46Z</time>
      </trkpt>
      <trkpt lat="45.89303" lon="2.7013">
        <ele>611</ele>
        <time>2017-10-17T10:30:46Z</time>
      </trkpt>
      <trkpt lat="45.89289" lon="2.70038">
        <ele>609</ele>
        <time>2017-10-17T10:32:46Z</time>
      </trkpt>
      <trkpt lat="45.89287" lon="2.70032">
        <ele>609</ele>
        <time>2017-10-17T10:34:46Z</time>
      </trkpt>
      <trkpt lat="45.89261" lon="2.69933">
        <ele>607</ele>
        <time>2017-10-17T10:36:46Z</time>
      </trkpt>
      <trkpt lat="45.89251" lon="2.69881">
        <ele>608</ele>
        <time>2017-10-17T10:38:46Z</time>
      </trkpt>
      <trkpt lat="45.89244" lon="2.69852">
        <ele>609</ele>
        <time>2017-10-17T10:40:46Z</time>
      </trkpt>
      <trkpt lat="45.89212" lon="2.69787">
        <ele>613</ele>
        <time>2017-10-17T10:42:46Z</time>
      </trkpt>
      <trkpt lat="45.89196" lon="2.69738">
        <ele>615</ele>
        <time>2017-10-17T10:44:46Z</time>
      </trkpt>
      <trkpt lat="45.89164" lon="2.69685">
        <ele>616</ele>
        <time>2017-10-17T10:46:46Z</time>
      </trkpt>
      <trkpt lat="45.89133" lon="2.69639">
        <ele>617</ele>
        <time>2017-10-17T10:48:46Z</time>
      </trkpt>
      <trkpt lat="45.89085" lon="2.69571">
        <ele>622</ele>
        <time>2017-10-17T10:50:46Z</time>
      </trkpt>
      <trkpt lat="45.89048" lon="2.6953">
        <ele>624</ele>
        <time>2017-10-17T10:52:46Z</time>
      </trkpt>
      <trkpt lat="45.89007" lon="2.69502">
        <ele>626</ele>
        <time>2017-10-17T10:54:46Z</time>
      </trkpt>
      <trkpt lat="45.88982" lon="2.69499">
        <ele>626</ele>
        <time>2017-10-17T10:56:46Z</time>
      </trkpt>
      <trkpt lat="45.88947" lon="2.69503">
        <ele>626</ele>
        <time>2017-10-17T10:58:46Z</time>
      </trkpt>
      <trkpt lat="45.8892" lon="2.69488">
        <ele>628</ele>
        <time>2017-10-17T11:00:46Z</time>
      </trkpt>
      <trkpt lat="45.88895" lon="2.69462">
        <ele>629</ele>
        <time>2017-10-17T11:02:46Z</time>
      </trkpt>
      <trkpt lat="45.8884" lon="2.69391">
        <ele>634</ele>
        <time>2017-10-17T11:04:46Z</time>
      </trkpt>
      <trkpt lat="45.88836" lon="2.69386">
        <ele>634</ele>
        <time>2017-10-17T11:06:46Z</time>
      </trkpt>
      <trkpt lat="45.88835" lon="2.69382">
        <ele>635</ele>
        <time>2017-10-17T11:08:46Z</time>
      </trkpt>
      <trkpt lat="45.88796" lon="2.69262">
        <ele>635</ele>
        <time>2017-10-17T11:10:46Z</time>
      </trkpt>
      <trkpt lat="45.88752" lon="2.69139">
        <ele>634</ele>
        <time>2017-10-17T11:12:46Z</time>
      </trkpt>
      <trkpt lat="45.88719" lon="2.69059">
        <ele>632</ele>
        <time>2017-10-17T11:14:46Z</time>
      </trkpt>
      <trkpt lat="45.88703" lon="2.69036">
        <ele>633</ele>
        <time>2017-10-17T11:16:46Z</time>
      </trkpt>
      <trkpt lat="45.88637" lon="2.68986">
        <ele>635</ele>
        <time>2017-10-17T11:18:46Z</time>
      </trkpt>
      <trkpt lat="45.88562" lon="2.68905">
        <ele>631</ele>
        <time>2017-10-17T11:20:46Z</time>
      </trkpt>
      <trkpt lat="45.88531" lon="2.68843">
        <ele>629</ele>
        <time>2017-10-17T11:22:46Z</time>
      </trkpt>
      <trkpt lat="45.88524" lon="2.68821">
        <ele>628</ele>
        <time>2017-10-17T11:24:46Z</time>
      </trkpt>
      <trkpt lat="45.88517" lon="2.68796">
        <ele>628</ele>
        <time>2017-10-17T11:26:46Z</time>
      </trkpt>
      <trkpt lat="45.88517" lon="2.68789">
        <ele>628</ele>
        <time>2017-10-17T11:28:46Z</time>
      </trkpt>
      <trkpt lat="45.88535" lon="2.68701">
        <ele>625</ele>
        <time>2017-10-17T11:30:46Z</time>
      </trkpt>
      <trkpt lat="45.8857" lon="2.68554">
        <ele>621</ele>
        <time>2017-10-17T11:32:46Z</time>
      </trkpt>
      <trkpt lat="45.88568" lon="2.68553">
        <ele>621</ele>
        <time>2017-10-17T11:34:46Z</time>
      </trkpt>
      <trkpt lat="45.88603" lon="2.68445">
        <ele>615</ele>
        <time>2017-10-17T11:36:46Z</time>
      </trkpt>
      <trkpt lat="45.88611" lon="2.68439">
        <ele>614</ele>
        <time>2017-10-17T11:38:46Z</time>
      </trkpt>
      <trkpt lat="45.8862" lon="2.68442">
        <ele>614</ele>
        <time>2017-10-17T11:40:46Z</time>
      </trkpt>
      <trkpt lat="45.88625" lon="2.68436">
        <ele>614</ele>
        <time>2017-10-17T11:42:46Z</time>
      </trkpt>
      <trkpt lat="45.88629" lon="2.68421">
        <ele>613</ele>
        <time>2017-10-17T11:44:46Z</time>
      </trkpt>
      <trkpt lat="45.88657" lon="2.68291">
        <ele>608</ele>
        <time>2017-10-17T11:46:46Z</time>
      </trkpt>
      <trkpt lat="45.887" lon="2.68163">
        <ele>608</ele>
        <time>2017-10-17T11:48:46Z</time>
      </trkpt>
      <trkpt lat="45.88708" lon="2.68117">
        <ele>608</ele>
        <time>2017-10-17T11:50:46Z</time>
      </trkpt>
      <trkpt lat="45.88724" lon="2.68048">
        <ele>607</ele>
        <time>2017-10-17T11:52:46Z</time>
      </trkpt>
      <trkpt lat="45.88734" lon="2.67988">
        <ele>607</ele>
        <time>2017-10-17T11:54:46Z</time>
      </trkpt>
      <trkpt lat="45.88748" lon="2.67909">
        <ele>607</ele>
        <time>2017-10-17T11:56:46Z</time>
      </trkpt>
      <trkpt lat="45.88774" lon="2.67738">
        <ele>608</ele>
        <time>2017-10-17T11:58:46Z</time>
      </trkpt>
      <trkpt lat="45.88778" lon="2.67686">
        <ele>607</ele>
        <time>2017-10-17T12:00:46Z</time>
      </trkpt>
      <trkpt lat="45.88784" lon="2.6766">
        <ele>607</ele>
        <time>2017-10-17T12:02:46Z</time>
      </trkpt>
      <trkpt lat="45.88793" lon="2.67599">
        <ele>606</ele>
        <time>2017-10-17T12:04:46Z</time>
      </trkpt>
      <trkpt lat="45.88798" lon="2.67579">
        <ele>606</ele>
        <time>2017-10-17T12:06:46Z</time>
      </trkpt>
      <trkpt lat="45.8883" lon="2.67494">
        <ele>607</ele>
        <time>2017-10-17T12:08:46Z</time>
      </trkpt>
      <trkpt lat="45.88845" lon="2.6747">
        <ele>608</ele>
        <time>2017-10-17T12:10:46Z</time>
      </trkpt>
      <trkpt lat="45.88855" lon="2.67458">
        <ele>608</ele>
        <time>2017-10-17T12:12:46Z</time>
      </trkpt>
      <trkpt lat="45.88899" lon="2.67414">
        <ele>608</ele>
        <time>2017-10-17T12:14:46Z</time>
      </trkpt>
      <trkpt lat="45.88937" lon="2.67368">
        <ele>605</ele>
        <time>2017-10-17T12:16:46Z</time>
      </trkpt>
      <trkpt lat="45.88948" lon="2.6735">
        <ele>604</ele>
        <time>2017-10-17T12:18:46Z</time>
      </trkpt>
      <trkpt lat="45.88973" lon="2.67315">
        <ele>601</ele>
        <time>2017-10-17T12:20:46Z</time>
      </trkpt>
      <trkpt lat="45.89001" lon="2.67272">
        <ele>598</ele>
        <time>2017-10-17T12:22:46Z</time>
      </trkpt>
      <trkpt lat="45.89013" lon="2.67257">
        <ele>597</ele>
        <time>2017-10-17T12:24:46Z</time>
      </trkpt>
      <trkpt lat="45.89031" lon="2.67226">
        <ele>597</ele>
        <time>2017-10-17T12:26:46Z</time>
      </trkpt>
      <trkpt lat="45.89069" lon="2.67181">
        <ele>598</ele>
        <time>2017-10-17T12:28:46Z</time>
      </trkpt>
      <trkpt lat="45.89093" lon="2.67131">
        <ele>600</ele>
        <time>2017-10-17T12:30:46Z</time>
      </trkpt>
      <trkpt lat="45.89117" lon="2.67069">
        <ele>602</ele>
        <time>2017-10-17T12:32:46Z</time>
      </trkpt>
      <trkpt lat="45.89164" lon="2.66936">
        <ele>604</ele>
        <time>2017-10-17T12:34:46Z</time>
      </trkpt>
      <trkpt lat="45.89182" lon="2.66897">
        <ele>604</ele>
        <time>2017-10-17T12:36:46Z</time>
      </trkpt>
      <trkpt lat="45.89197" lon="2.6686">
        <ele>603</ele>
        <time>2017-10-17T12:38:46Z</time>
      </trkpt>
      <trkpt lat="45.89215" lon="2.66824">
        <ele>602</ele>
        <time>2017-10-17T12:40:46Z</time>
      </trkpt>
      <trkpt lat="45.89229" lon="2.66781">
        <ele>602</ele>
        <time>2017-10-17T12:42:46Z</time>
      </trkpt>
      <trkpt lat="45.89247" lon="2.66735">
        <ele>602</ele>
        <time>2017-10-17T12:44:46Z</time>
      </trkpt>
      <trkpt lat="45.89272" lon="2.66679">
        <ele>604</ele>
        <time>2017-10-17T12:46:46Z</time>
      </trkpt>
      <trkpt lat="45.89294" lon="2.66635">
        <ele>606</ele>
        <time>2017-10-17T12:48:46Z</time>
      </trkpt>
      <trkpt lat="45.89311" lon="2.66584">
        <ele>607</ele>
        <time>2017-10-17T12:50:46Z</time>
      </trkpt>
      <trkpt lat="45.89321" lon="2.66541">
        <ele>609</ele>
        <time>2017-10-17T12:52:46Z</time>
      </trkpt>
      <trkpt lat="45.89325" lon="2.66494">
        <ele>610</ele>
        <time>2017-10-17T12:54:46Z</time>
      </trkpt>
      <trkpt lat="45.89324" lon="2.66449">
        <ele>611</ele>
        <time>2017-10-17T12:56:46Z</time>
      </trkpt>
      <trkpt lat="45.89309" lon="2.66371">
        <ele>615</ele>
        <time>2017-10-17T12:58:46Z</time>
      </trkpt>
      <trkpt lat="45.89304" lon="2.66326">
        <ele>618</ele>
        <time>2017-10-17T13:00:46Z</time>
      </trkpt>
      <trkpt lat="45.89319" lon="2.66249">
        <ele>622</ele>
        <time>2017-10-17T13:02:46Z</time>
      </trkpt>
      <trkpt lat="45.89322" lon="2.6621">
        <ele>623</ele>
        <time>2017-10-17T13:04:46Z</time>
      </trkpt>
      <trkpt lat="45.89326" lon="2.66182">
        <ele>624</ele>
        <time>2017-10-17T13:06:46Z</time>
      </trkpt>
      <trkpt lat="45.89344" lon="2.66131">
        <ele>627</ele>
        <time>2017-10-17T13:08:46Z</time>
      </trkpt>
      <trkpt lat="45.89381" lon="2.6609">
        <ele>630</ele>
        <time>2017-10-17T13:10:46Z</time>
      </trkpt>
      <trkpt lat="45.89424" lon="2.66056">
        <ele>632</ele>
        <time>2017-10-17T13:12:46Z</time>
      </trkpt>
      <trkpt lat="45.89449" lon="2.66063">
        <ele>632</ele>
        <time>2017-10-17T13:14:46Z</time>
      </trkpt>
      <trkpt lat="45.8945" lon="2.6606">
        <ele>632</ele>
        <time>2017-10-17T13:16:46Z</time>
      </trkpt>
      <trkpt lat="45.89467" lon="2.66076">
        <ele>632</ele>
        <time>2017-10-17T13:18:46Z</time>
      </trkpt>
      <trkpt lat="45.89494" lon="2.66111">
        <ele>632</ele>
        <time>2017-10-17T13:20:46Z</time>
      </trkpt>
      <trkpt lat="45.8953" lon="2.66155">
        <ele>633</ele>
        <time>2017-10-17T13:22:46Z</time>
      </trkpt>
      <trkpt lat="45.89541" lon="2.66138">
        <ele>634</ele>
        <time>2017-10-17T13:24:46Z</time>
      </trkpt>
      <trkpt lat="45.89554" lon="2.66078">
        <ele>635</ele>
        <time>2017-10-17T13:26:46Z</time>
      </trkpt>
      <trkpt lat="45.89569" lon="2.66001">
        <ele>635</ele>
        <time>2017-10-17T13:28:46Z</time>
      </trkpt>
      <trkpt lat="45.896" lon="2.65851">
        <ele>630</ele>
        <time>2017-10-17T13:30:46Z</time>
      </trkpt>
      <trkpt lat="45.89627" lon="2.65723">
        <ele>629</ele>
        <time>2017-10-17T13:32:46Z</time>
      </trkpt>
      <trkpt lat="45.89648" lon="2.65646">
        <ele>632</ele>
        <time>2017-10-17T13:34:46Z</time>
      </trkpt>
      <trkpt lat="45.8968" lon="2.65517">
        <ele>639</ele>
        <time>2017-10-17T13:36:46Z</time>
      </trkpt>
      <trkpt lat="45.89699" lon="2.65442">
        <ele>638</ele>
        <time>2017-10-17T13:38:46Z</time>
      </trkpt>
      <trkpt lat="45.89696" lon="2.6544">
        <ele>638</ele>
        <time>2017-10-17T13:40:46Z</time>
      </trkpt>
      <trkpt lat="45.89692" lon="2.65441">
        <ele>638</ele>
        <time>2017-10-17T13:42:46Z</time>
      </trkpt>
      <trkpt lat="45.89645" lon="2.65461">
        <ele>638</ele>
        <time>2017-10-17T13:44:46Z</time>
      </trkpt>
      <trkpt lat="45.89605" lon="2.65486">
        <ele>638</ele>
        <time>2017-10-17T13:46:46Z</time>
      </trkpt>
      <trkpt lat="45.8955" lon="2.65521">
        <ele>636</ele>
        <time>2017-10-17T13:48:46Z</time>
      </trkpt>
      <trkpt lat="45.89532" lon="2.65536">
        <ele>634</ele>
        <time>2017-10-17T13:50:46Z</time>
      </trkpt>
      <trkpt lat="45.89518" lon="2.65544">
        <ele>633</ele>
        <time>2017-10-17T13:52:46Z</time>
      </trkpt>
      <trkpt lat="45.8951" lon="2.65543">
        <ele>632</ele>
        <time>2017-10-17T13:54:46Z</time>
      </trkpt>
      <trkpt lat="45.89502" lon="2.65531">
        <ele>632</ele>
        <time>2017-10-17T13:56:46Z</time>
      </trkpt>
      <trkpt lat="45.89477" lon="2.65431">
        <ele>629</ele>
        <time>2017-10-17T13:58:46Z</time>
      </trkpt>
      <trkpt lat="45.89453" lon="2.65316">
        <ele>628</ele>
        <time>2017-10-17T14:00:46Z</time>
      </trkpt>
      <trkpt lat="45.89436" lon="2.65187">
        <ele>625</ele>
        <time>2017-10-17T14:02:46Z</time>
      </trkpt>
      <trkpt lat="45.89421" lon="2.65033">
        <ele>626</ele>
        <time>2017-10-17T14:04:46Z</time>
      </trkpt>
      <trkpt lat="45.89419" lon="2.65007">
        <ele>627</ele>
        <time>2017-10-17T14:06:46Z</time>
      </trkpt>
      <trkpt lat="45.8942" lon="2.65007">
        <ele>627</ele>
        <time>2017-10-17T14:08:46Z</time>
      </trkpt>
      <trkpt lat="45.89421" lon="2.64997">
        <ele>627</ele>
        <time>2017-10-17T14:10:46Z</time>
      </trkpt>
      <trkpt lat="45.89413" lon="2.64928">
        <ele>628</ele>
        <time>2017-10-17T14:12:46Z</time>
      </trkpt>
      <trkpt lat="45.89408" lon="2.64871">
        <ele>629</ele>
        <time>2017-10-17T14:14:46Z</time>
      </trkpt>
      <trkpt lat="45.89408" lon="2.64762">
        <ele>632</ele>
        <time>2017-10-17T14:16:46Z</time>
      </trkpt>
      <trkpt lat="45.89422" lon="2.64713">
        <ele>634</ele>
        <time>2017-10-17T14:18:46Z</time>
      </trkpt>
      <trkpt lat="45.89443" lon="2.6466">
        <ele>636</ele>
        <time>2017-10-17T14:20:46Z</time>
      </trkpt>
      <trkpt lat="45.89445" lon="2.64637">
        <ele>636</ele>
        <time>2017-10-17T14:22:46Z</time>
      </trkpt>
      <trkpt lat="45.89438" lon="2.64627">
        <ele>636</ele>
        <time>2017-10-17T14:24:46Z</time>
      </trkpt>
      <trkpt lat="45.89391" lon="2.64576">
        <ele>636</ele>
        <time>2017-10-17T14:26:46Z</time>
      </trkpt>
      <trkpt lat="45.89343" lon="2.64526">
        <ele>636</ele>
        <time>2017-10-17T14:28:46Z</time>
      </trkpt>
      <trkpt lat="45.89321" lon="2.64496">
        <ele>637</ele>
        <time>2017-10-17T14:30:46Z</time>
      </trkpt>
      <trkpt lat="45.89303" lon="2.64468">
        <ele>637</ele>
        <time>2017-10-17T14:32:46Z</time>
      </trkpt>
      <trkpt lat="45.8929" lon="2.64449">
        <ele>637</ele>
        <time>2017-10-17T14:34:46Z</time>
      </trkpt>
      <trkpt lat="45.89252" lon="2.64393">
        <ele>636</ele>
        <time>2017-10-17T14:36:46Z</time>
      </trkpt>
      <trkpt lat="45.89218" lon="2.64309">
        <ele>637</ele>
        <time>2017-10-17T14:38:46Z</time>
      </trkpt>
      <trkpt lat="45.89184" lon="2.64235">
        <ele>638</ele>
        <time>2017-10-17T14:40:46Z</time>
      </trkpt>
      <trkpt lat="45.89137" lon="2.64172">
        <ele>637</ele>
        <time>2017-10-17T14:42:46Z</time>
      </trkpt>
      <trkpt lat="45.89108" lon="2.64132">
        <ele>637</ele>
        <time>2017-10-17T14:44:46Z</time>
      </trkpt>
      <trkpt lat="45.89072" lon="2.64048">
        <ele>638</ele>
        <time>2017-10-17T14:46:46Z</time>
      </trkpt>
      <trkpt lat="45.89035" lon="2.63961">
        <ele>638</ele>
        <time>2017-10-17T14:48:46Z</time>
      </trkpt>
      <trkpt lat="45.89004" lon="2.6389">
        <ele>637</ele>
        <time>2017-10-17T14:50:46Z</time>
      </trkpt>
      <trkpt lat="45.89" lon="2.63887">
        <ele>636</ele>
        <time>2017-10-17T14:52:46Z</time>
      </trkpt>
      <trkpt lat="45.8899" lon="2.63885">
        <ele>636</ele>
        <time>2017-10-17T14:54:46Z</time>
      </trkpt>
      <trkpt lat="45.88982" lon="2.63886">
        <ele>636</ele>
        <time>2017-10-17T14:56:46Z</time>
      </trkpt>
      <trkpt lat="45.88916" lon="2.63906">
        <ele>637</ele>
        <time>2017-10-17T14:58:46Z</time>
      </trkpt>
      <trkpt lat="45.88899" lon="2.63911">
        <ele>636</ele>
        <time>2017-10-17T15:00:46Z</time>
      </trkpt>
      <trkpt lat="45.88814" lon="2.63934">
        <ele>631</ele>
        <time>2017-10-17T15:02:46Z</time>
      </trkpt>
      <trkpt lat="45.88774" lon="2.63945">
        <ele>628</ele>
        <time>2017-10-17T15:04:46Z</time>
      </trkpt>
      <trkpt lat="45.88763" lon="2.63947">
        <ele>627</ele>
        <time>2017-10-17T15:06:46Z</time>
      </trkpt>
      <trkpt lat="45.88749" lon="2.63945">
        <ele>625</ele>
        <time>2017-10-17T15:08:46Z</time>
      </trkpt>
      <trkpt lat="45.8873" lon="2.63932">
        <ele>624</ele>
        <time>2017-10-17T15:10:46Z</time>
      </trkpt>
      <trkpt lat="45.88711" lon="2.63912">
        <ele>622</ele>
        <time>2017-10-17T15:12:46Z</time>
      </trkpt>
      <trkpt lat="45.88704" lon="2.63901">
        <ele>621</ele>
        <time>2017-10-17T15:14:46Z</time>
      </trkpt>
      <trkpt lat="45.88697" lon="2.63883">
        <ele>619</ele>
        <time>2017-10-17T15:16:46Z</time>
      </trkpt>
      <trkpt lat="45.88694" lon="2.63878">
        <ele>619</ele>
        <time>2017-10-17T15:18:46Z</time>
      </trkpt>
      <trkpt lat="45.88689" lon="2.63875">
        <ele>618</ele>
        <time>2017-10-17T15:20:46Z</time>
      </trkpt>
      <trkpt lat="45.88684" lon="2.63874">
        <ele>617</ele>
        <time>2017-10-17T15:22:46Z</time>
      </trkpt>
      <trkpt lat="45.88678" lon="2.63875">
        <ele>617</ele>
        <time>2017-10-17T15:24:46Z</time>
      </trkpt>
      <trkpt lat="45.88587" lon="2.63893">
        <ele>608</ele>
        <time>2017-10-17T15:26:46Z</time>
      </trkpt>
      <trkpt lat="45.88584" lon="2.63896">
        <ele>608</ele>
        <time>2017-10-17T15:28:46Z</time>
      </trkpt>
      <trkpt lat="45.88582" lon="2.63901">
        <ele>608</ele>
        <time>2017-10-17T15:30:46Z</time>
      </trkpt>
      <trkpt lat="45.88573" lon="2.63944">
        <ele>611</ele>
        <time>2017-10-17T15:32:46Z</time>
      </trkpt>
      <trkpt lat="45.88567" lon="2.63956">
        <ele>611</ele>
        <time>2017-10-17T15:34:46Z</time>
      </trkpt>
      <trkpt lat="45.88561" lon="2.63958">
        <ele>610</ele>
        <time>2017-10-17T15:36:46Z</time>
      </trkpt>
      <trkpt lat="45.88555" lon="2.63958">
        <ele>609</ele>
        <time>2017-10-17T15:38:46Z</time>
      </trkpt>
      <trkpt lat="45.88465" lon="2.63954">
        <ele>598</ele>
        <time>2017-10-17T15:40:46Z</time>
      </trkpt>
      <trkpt lat="45.88442" lon="2.63947">
        <ele>596</ele>
        <time>2017-10-17T15:42:46Z</time>
      </trkpt>
      <trkpt lat="45.88435" lon="2.63943">
        <ele>595</ele>
        <time>2017-10-17T15:44:46Z</time>
      </trkpt>
      <trkpt lat="45.88386" lon="2.63922">
        <ele>591</ele>
        <time>2017-10-17T15:46:46Z</time>
      </trkpt>
      <trkpt lat="45.88352" lon="2.63911">
        <ele>589</ele>
        <time>2017-10-17T15:48:46Z</time>
      </trkpt>
      <trkpt lat="45.88335" lon="2.6391">
        <ele>588</ele>
        <time>2017-10-17T15:50:46Z</time>
      </trkpt>
      <trkpt lat="45.88329" lon="2.63909">
        <ele>588</ele>
        <time>2017-10-17T15:52:46Z</time>
      </trkpt>
      <trkpt lat="45.88316" lon="2.63903">
        <ele>587</ele>
        <time>2017-10-17T15:54:46Z</time>
      </trkpt>
      <trkpt lat="45.88305" lon="2.63902">
        <ele>586</ele>
        <time>2017-10-17T15:56:46Z</time>
      </trkpt>
      <trkpt lat="45.88295" lon="2.63903">
        <ele>586</ele>
        <time>2017-10-17T15:58:46Z</time>
      </trkpt>
      <trkpt lat="45.8829" lon="2.63905">
        <ele>586</ele>
        <time>2017-10-17T16:00:46Z</time>
      </trkpt>
      <trkpt lat="45.88279" lon="2.63914">
        <ele>586</ele>
        <time>2017-10-17T16:02:46Z</time>
      </trkpt>
      <trkpt lat="45.88276" lon="2.63916">
        <ele>586</ele>
        <time>2017-10-17T16:04:46Z</time>
      </trkpt>
      <trkpt lat="45.8827" lon="2.63917">
        <ele>586</ele>
        <time>2017-10-17T16:06:46Z</time>
      </trkpt>
      <trkpt lat="45.88267" lon="2.63916">
        <ele>586</ele>
        <time>2017-10-17T16:08:46Z</time>
      </trkpt>
      <trkpt lat="45.88242" lon="2.63932">
        <ele>588</ele>
        <time>2017-10-17T16:10:46Z</time>
      </trkpt>
      <trkpt lat="45.88205" lon="2.63958">
        <ele>589</ele>
        <time>2017-10-17T16:12:46Z</time>
      </trkpt>
      <trkpt lat="45.88188" lon="2.63975">
        <ele>590</ele>
        <time>2017-10-17T16:14:46Z</time>
      </trkpt>
      <trkpt lat="45.88154" lon="2.6401">
        <ele>591</ele>
        <time>2017-10-17T16:16:46Z</time>
      </trkpt>
      <trkpt lat="45.88128" lon="2.64021">
        <ele>590</ele>
        <time>2017-10-17T16:18:46Z</time>
      </trkpt>
      <trkpt lat="45.88114" lon="2.64033">
        <ele>591</ele>
        <time>2017-10-17T16:20:46Z</time>
      </trkpt>
      <trkpt lat="45.8811" lon="2.6404">
        <ele>592</ele>
        <time>2017-10-17T16:22:46Z</time>
      </trkpt>
      <trkpt lat="45.88108" lon="2.64073">
        <ele>599</ele>
        <time>2017-10-17T16:24:46Z</time>
      </trkpt>
      <trkpt lat="45.88107" lon="2.64073">
        <ele>599</ele>
        <time>2017-10-17T16:26:46Z</time>
      </trkpt>
      <trkpt lat="45.88095" lon="2.64065">
        <ele>596</ele>
        <time>2017-10-17T16:28:46Z</time>
      </trkpt>
      <trkpt lat="45.88077" lon="2.64047">
        <ele>591</ele>
        <time>2017-10-17T16:30:46Z</time>
      </trkpt>
      <trkpt lat="45.88042" lon="2.64038">
        <ele>590</ele>
        <time>2017-10-17T16:32:46Z</time>
      </trkpt>
      <trkpt lat="45.87988" lon="2.64038">
        <ele>590</ele>
        <time>2017-10-17T16:34:46Z</time>
      </trkpt>
      <trkpt lat="45.8796" lon="2.64031">
        <ele>589</ele>
        <time>2017-10-17T16:36:46Z</time>
      </trkpt>
      <trkpt lat="45.87943" lon="2.64022">
        <ele>588</ele>
        <time>2017-10-17T16:38:46Z</time>
      </trkpt>
      <trkpt lat="45.87901" lon="2.6402">
        <ele>589</ele>
        <time>2017-10-17T16:40:46Z</time>
      </trkpt>
      <trkpt lat="45.87891" lon="2.64014">
        <ele>589</ele>
        <time>2017-10-17T16:42:46Z</time>
      </trkpt>
      <trkpt lat="45.87831" lon="2.63994">
        <ele>589</ele>
        <time>2017-10-17T16:44:46Z</time>
      </trkpt>
      <trkpt lat="45.87804" lon="2.6398">
        <ele>591</ele>
        <time>2017-10-17T16:46:46Z</time>
      </trkpt>
      <trkpt lat="45.87799" lon="2.63966">
        <ele>589</ele>
        <time>2017-10-17T16:48:46Z</time>
      </trkpt>
      <trkpt lat="45.87763" lon="2.63929">
        <ele>586</ele>
        <time>2017-10-17T16:50:46Z</time>
      </trkpt>
      <trkpt lat="45.87749" lon="2.63917">
        <ele>584</ele>
        <time>2017-10-17T16:52:46Z</time>
      </trkpt>
      <trkpt lat="45.87705" lon="2.63893">
        <ele>590</ele>
        <time>2017-10-17T16:54:46Z</time>
      </trkpt>
      <trkpt lat="45.87692" lon="2.6388">
        <ele>590</ele>
        <time>2017-10-17T16:56:46Z</time>
      </trkpt>
      <trkpt lat="45.87664" lon="2.63858">
        <ele>589</ele>
        <time>2017-10-17T16:58:46Z</time>
      </trkpt>
      <trkpt lat="45.8765" lon="2.63841">
        <ele>587</ele>
        <time>2017-10-17T17:00:46Z</time>
      </trkpt>
      <trkpt lat="45.87612" lon="2.63813">
        <ele>589</ele>
        <time>2017-10-17T17:02:46Z</time>
      </trkpt>
      <trkpt lat="45.87576" lon="2.63798">
        <ele>590</ele>
        <time>2017-10-17T17:04:46Z</time>
      </trkpt>
      <trkpt lat="45.87543" lon="2.63782">
        <ele>590</ele>
        <time>2017-10-17T17:06:46Z</time>
      </trkpt>
      <trkpt lat="45.87514" lon="2.63761">
        <ele>587</ele>
        <time>2017-10-17T17:08:46Z</time>
      </trkpt>
      <trkpt lat="45.87486" lon="2.63739">
        <ele>585</ele>
        <time>2017-10-17T17:10:46Z</time>
      </trkpt>
      <trkpt lat="45.87454" lon="2.63721">
        <ele>586</ele>
        <time>2017-10-17T17:12:46Z</time>
      </trkpt>
      <trkpt lat="45.87428" lon="2.63715">
        <ele>587</ele>
        <time>2017-10-17T17:14:46Z</time>
      </trkpt>
      <trkpt lat="45.87398" lon="2.63725">
        <ele>588</ele>
        <time>2017-10-17T17:16:46Z</time>
      </trkpt>
      <trkpt lat="45.8738" lon="2.63759">
        <ele>589</ele>
        <time>2017-10-17T17:18:46Z</time>
      </trkpt>
      <trkpt lat="45.87369" lon="2.63786">
        <ele>589</ele>
        <time>2017-10-17T17:20:46Z</time>
      </trkpt>
      <trkpt lat="45.87369" lon="2.63797">
        <ele>589</ele>
        <time>2017-10-17T17:22:46Z</time>
      </trkpt>
      <trkpt lat="45.87373" lon="2.63848">
        <ele>590</ele>
        <time>2017-10-17T17:24:46Z</time>
      </trkpt>
      <trkpt lat="45.87376" lon="2.63897">
        <ele>592</ele>
        <time>2017-10-17T17:26:46Z</time>
      </trkpt>
      <trkpt lat="45.87377" lon="2.63929">
        <ele>592</ele>
        <time>2017-10-17T17:28:46Z</time>
      </trkpt>
      <trkpt lat="45.87379" lon="2.63947">
        <ele>592</ele>
        <time>2017-10-17T17:30:46Z</time>
      </trkpt>
      <trkpt lat="45.87377" lon="2.63984">
        <ele>592</ele>
        <time>2017-10-17T17:32:46Z</time>
      </trkpt>
      <trkpt lat="45.87381" lon="2.64017">
        <ele>593</ele>
        <time>2017-10-17T17:34:46Z</time>
      </trkpt>
      <trkpt lat="45.87373" lon="2.64059">
        <ele>591</ele>
        <time>2017-10-17T17:36:46Z</time>
      </trkpt>
      <trkpt lat="45.87366" lon="2.6407">
        <ele>589</ele>
        <time>2017-10-17T17:38:46Z</time>
      </trkpt>
      <trkpt lat="45.87347" lon="2.64095">
        <ele>586</ele>
        <time>2017-10-17T17:40:46Z</time>
      </trkpt>
      <trkpt lat="45.87326" lon="2.64103">
        <ele>583</ele>
        <time>2017-10-17T17:42:46Z</time>
      </trkpt>
      <trkpt lat="45.87304" lon="2.64103">
        <ele>584</ele>
        <time>2017-10-17T17:44:46Z</time>
      </trkpt>
      <trkpt lat="45.87293" lon="2.64096">
        <ele>583</ele>
        <time>2017-10-17T17:46:46Z</time>
      </trkpt>
      <trkpt lat="45.8726" lon="2.64086">
        <ele>581</ele>
        <time>2017-10-17T17:48:46Z</time>
      </trkpt>
      <trkpt lat="45.87252" lon="2.64079">
        <ele>581</ele>
        <time>2017-10-17T17:50:46Z</time>
      </trkpt>
      <trkpt lat="45.87239" lon="2.64072">
        <ele>580</ele>
        <time>2017-10-17T17:52:46Z</time>
      </trkpt>
      <trkpt lat="45.87226" lon="2.64082">
        <ele>580</ele>
        <time>2017-10-17T17:54:46Z</time>
      </trkpt>
      <trkpt lat="45.87212" lon="2.64094">
        <ele>580</ele>
        <time>2017-10-17T17:56:46Z</time>
      </trkpt>
      <trkpt lat="45.87183" lon="2.64114">
        <ele>580</ele>
        <time>2017-10-17T17:58:46Z</time>
      </trkpt>
      <trkpt lat="45.87156" lon="2.64133">
        <ele>580</ele>
        <time>2017-10-17T18:00:46Z</time>
      </trkpt>
      <trkpt lat="45.87132" lon="2.64173">
        <ele>579</ele>
        <time>2017-10-17T18:02:46Z</time>
      </trkpt>
      <trkpt lat="45.87121" lon="2.64205">
        <ele>580</ele>
        <time>2017-10-17T18:04:46Z</time>
      </trkpt>
      <trkpt lat="45.87109" lon="2.64234">
        <ele>580</ele>
        <time>2017-10-17T18:06:46Z</time>
      </trkpt>
      <trkpt lat="45.87105" lon="2.64239">
        <ele>579</ele>
        <time>2017-10-17T18:08:46Z</time>
      </trkpt>
      <trkpt lat="45.87083" lon="2.64252">
        <ele>575</ele>
        <time>2017-10-17T18:10:46Z</time>
      </trkpt>
      <trkpt lat="45.87056" lon="2.64278">
        <ele>577</ele>
        <time>2017-10-17T18:12:46Z</time>
      </trkpt>
      <trkpt lat="45.87046" lon="2.64284">
        <ele>577</ele>
        <time>2017-10-17T18:14:46Z</time>
      </trkpt>
      <trkpt lat="45.87021" lon="2.64284">
        <ele>575</ele>
        <time>2017-10-17T18:16:46Z</time>
      </trkpt>
      <trkpt lat="45.87005" lon="2.64266">
        <ele>575</ele>
        <time>2017-10-17T18:18:46Z</time>
      </trkpt>
      <trkpt lat="45.86995" lon="2.64263">
        <ele>576</ele>
        <time>2017-10-17T18:20:46Z</time>
      </trkpt>
      <trkpt lat="45.86985" lon="2.64258">
        <ele>579</ele>
        <time>2017-10-17T18:22:46Z</time>
      </trkpt>
      <trkpt lat="45.86972" lon="2.64255">
        <ele>584</ele>
        <time>2017-10-17T18:24:46Z</time>
      </trkpt>
      <trkpt lat="45.86964" lon="2.64256">
        <ele>586</ele>
        <time>2017-10-17T18:26:46Z</time>
      </trkpt>
      <trkpt lat="45.86944" lon="2.6427">
        <ele>591</ele>
        <time>2017-10-17T18:28:46Z</time>
      </trkpt>
      <trkpt lat="45.86932" lon="2.64278">
        <ele>594</ele>
        <time>2017-10-17T18:30:46Z</time>
      </trkpt>
      <trkpt lat="45.86932" lon="2.64271">
        <ele>595</ele>
        <time>2017-10-17T18:32:46Z</time>
      </trkpt>
      <trkpt lat="45.86928" lon="2.64255">
        <ele>598</ele>
        <time>2017-10-17T18:34:46Z</time>
      </trkpt>
      <trkpt lat="45.86927" lon="2.64228">
        <ele>601</ele>
        <time>2017-10-17T18:36:46Z</time>
      </trkpt>
      <trkpt lat="45.86927" lon="2.64205">
        <ele>603</ele>
        <time>2017-10-17T18:38:46Z</time>
      </trkpt>
      <trkpt lat="45.86925" lon="2.64194">
        <ele>604</ele>
        <time>2017-10-17T18:40:46Z</time>
      </trkpt>
      <trkpt lat="45.86924" lon="2.64193">
        <ele>605</ele>
        <time>2017-10-17T18:42:46Z</time>
      </trkpt>
      <trkpt lat="45.86917" lon="2.64196">
        <ele>606</ele>
        <time>2017-10-17T18:44:46Z</time>
      </trkpt>
      <trkpt lat="45.86912" lon="2.64204">
        <ele>608</ele>
        <time>2017-10-17T18:46:46Z</time>
      </trkpt>
      <trkpt lat="45.86908" lon="2.64219">
        <ele>608</ele>
        <time>2017-10-17T18:48:46Z</time>
      </trkpt>
      <trkpt lat="45.86891" lon="2.64242">
        <ele>613</ele>
        <time>2017-10-17T18:50:46Z</time>
      </trkpt>
      <trkpt lat="45.86884" lon="2.64253">
        <ele>614</ele>
        <time>2017-10-17T18:52:46Z</time>
      </trkpt>
      <trkpt lat="45.8688" lon="2.64269">
        <ele>614</ele>
        <time>2017-10-17T18:54:46Z</time>
      </trkpt>
      <trkpt lat="45.86874" lon="2.64299">
        <ele>611</ele>
        <time>2017-10-17T18:56:46Z</time>
      </trkpt>
      <trkpt lat="45.86863" lon="2.64319">
        <ele>612</ele>
        <time>2017-10-17T18:58:46Z</time>
      </trkpt>
      <trkpt lat="45.86858" lon="2.64329">
        <ele>611</ele>
        <time>2017-10-17T19:00:46Z</time>
      </trkpt>
      <trkpt lat="45.86846" lon="2.64331">
        <ele>615</ele>
        <time>2017-10-17T19:02:46Z</time>
      </trkpt>
      <trkpt lat="45.86841" lon="2.64324">
        <ele>618</ele>
        <time>2017-10-17T19:04:46Z</time>
      </trkpt>
      <trkpt lat="45.86822" lon="2.64299">
        <ele>625</ele>
        <time>2017-10-17T19:06:46Z</time>
      </trkpt>
      <trkpt lat="45.86816" lon="2.64284">
        <ele>628</ele>
        <time>2017-10-17T19:08:46Z</time>
      </trkpt>
      <trkpt lat="45.86807" lon="2.64274">
        <ele>630</ele>
        <time>2017-10-17T19:10:46Z</time>
      </trkpt>
      <trkpt lat="45.86802" lon="2.64263">
        <ele>632</ele>
        <time>2017-10-17T19:12:46Z</time>
      </trkpt>
      <trkpt lat="45.86791" lon="2.64246">
        <ele>634</ele>
        <time>2017-10-17T19:14:46Z</time>
      </trkpt>
      <trkpt lat="45.86776" lon="2.64223">
        <ele>637</ele>
        <time>2017-10-17T19:16:46Z</time>
      </trkpt>
      <trkpt lat="45.86761" lon="2.64201">
        <ele>640</ele>
        <time>2017-10-17T19:18:46Z</time>
      </trkpt>
      <trkpt lat="45.8675" lon="2.64196">
        <ele>641</ele>
        <time>2017-10-17T19:20:46Z</time>
      </trkpt>
      <trkpt lat="45.86746" lon="2.6418">
        <ele>644</ele>
        <time>2017-10-17T19:22:46Z</time>
      </trkpt>
      <trkpt lat="45.86751" lon="2.64177">
        <ele>644</ele>
        <time>2017-10-17T19:24:46Z</time>
      </trkpt>
      <trkpt lat="45.86757" lon="2.64177">
        <ele>644</ele>
        <time>2017-10-17T19:26:46Z</time>
      </trkpt>
      <trkpt lat="45.86771" lon="2.64174">
        <ele>644</ele>
        <time>2017-10-17T19:28:46Z</time>
      </trkpt>
      <trkpt lat="45.86777" lon="2.64153">
        <ele>646</ele>
        <time>2017-10-17T19:30:46Z</time>
      </trkpt>
      <trkpt lat="45.86773" lon="2.64105">
        <ele>650</ele>
        <time>2017-10-17T19:32:46Z</time>
      </trkpt>
      <trkpt lat="45.86765" lon="2.64074">
        <ele>653</ele>
        <time>2017-10-17T19:34:46Z</time>
      </trkpt>
      <trkpt lat="45.8676" lon="2.64064">
        <ele>654</ele>
        <time>2017-10-17T19:36:46Z</time>
      </trkpt>
      <trkpt lat="45.86758" lon="2.64049">
        <ele>655</ele>
        <time>2017-10-17T19:38:46Z</time>
      </trkpt>
      <trkpt lat="45.86757" lon="2.64018">
        <ele>657</ele>
        <time>2017-10-17T19:40:46Z</time>
      </trkpt>
      <trkpt lat="45.86752" lon="2.63985">
        <ele>660</ele>
        <time>2017-10-17T19:42:46Z</time>
      </trkpt>
      <trkpt lat="45.8675" lon="2.63964">
        <ele>662</ele>
        <time>2017-10-17T19:44:46Z</time>
      </trkpt>
      <trkpt lat="45.86745" lon="2.63931">
        <ele>665</ele>
        <time>2017-10-17T19:46:46Z</time>
      </trkpt>
      <trkpt lat="45.8674" lon="2.63887">
        <ele>669</ele>
        <time>2017-10-17T19:48:46Z</time>
      </trkpt>
      <trkpt lat="45.86736" lon="2.63859">
        <ele>672</ele>
        <time>2017-10-17T19:50:46Z</time>
      </trkpt>
      <trkpt lat="45.86726" lon="2.63821">
        <ele>675</ele>
        <time>2017-10-17T19:52:46Z</time>
      </trkpt>
      <trkpt lat="45.86716" lon="2.63801">
        <ele>676</ele>
        <time>2017-10-17T19:54:46Z</time>
      </trkpt>
      <trkpt lat="45.86711" lon="2.63794">
        <ele>677</ele>
        <time>2017-10-17T19:56:46Z</time>
      </trkpt>
      <trkpt lat="45.86707" lon="2.63787">
        <ele>678</ele>
        <time>2017-10-17T19:58:46Z</time>
      </trkpt>
      <trkpt lat="45.8669" lon="2.63753">
        <ele>681</ele>
        <time>2017-10-17T20:00:46Z</time>
      </trkpt>
      <trkpt lat="45.86672" lon="2.63715">
        <ele>683</ele>
        <time>2017-10-17T20:02:46Z</time>
      </trkpt>
      <trkpt lat="45.86649" lon="2.63663">
        <ele>684</ele>
        <time>2017-10-17T20:04:46Z</time>
      </trkpt>
      <trkpt lat="45.86616" lon="2.63597">
        <ele>685</ele>
        <time>2017-10-17T20:06:46Z</time>
      </trkpt>
      <trkpt lat="45.86596" lon="2.63553">
        <ele>688</ele>
        <time>2017-10-17T20:08:46Z</time>
      </trkpt>
      <trkpt lat="45.86581" lon="2.63519">
        <ele>690</ele>
        <time>2017-10-17T20:10:46Z</time>
      </trkpt>
      <trkpt lat="45.86568" lon="2.63485">
        <ele>692</ele>
        <time>2017-10-17T20:12:46Z</time>
      </trkpt>
      <trkpt lat="45.86559" lon="2.63451">
        <ele>694</ele>
        <time>2017-10-17T20:14:46Z</time>
      </trkpt>
      <trkpt lat="45.8655" lon="2.63425">
        <ele>696</ele>
        <time>2017-10-17T20:16:46Z</time>
      </trkpt>
      <trkpt lat="45.86537" lon="2.63378">
        <ele>698</ele>
        <time>2017-10-17T20:18:46Z</time>
      </trkpt>
      <trkpt lat="45.86527" lon="2.63334">
        <ele>700</ele>
        <time>2017-10-17T20:20:46Z</time>
      </trkpt>
      <trkpt lat="45.86514" lon="2.63286">
        <ele>701</ele>
        <time>2017-10-17T20:22:46Z</time>
      </trkpt>
      <trkpt lat="45.86496" lon="2.63228">
        <ele>703</ele>
        <time>2017-10-17T20:24:46Z</time>
      </trkpt>
      <trkpt lat="45.86475" lon="2.63101">
        <ele>707</ele>
        <time>2017-10-17T20:26:46Z</time>
      </trkpt>
      <trkpt lat="45.86466" lon="2.6304">
        <ele>707</ele>
        <time>2017-10-17T20:28:46Z</time>
      </trkpt>
      <trkpt lat="45.86449" lon="2.62944">
        <ele>707</ele>
        <time>2017-10-17T20:30:46Z</time>
      </trkpt>
      <trkpt lat="45.86435" lon="2.62874">
        <ele>707</ele>
        <time>2017-10-17T20:32:46Z</time>
      </trkpt>
      <trkpt lat="45.86418" lon="2.62772">
        <ele>708</ele>
        <time>2017-10-17T20:34:46Z</time>
      </trkpt>
      <trkpt lat="45.86415" lon="2.62772">
        <ele>708</ele>
        <time>2017-10-17T20:36:46Z</time>
      </trkpt>
      <trkpt lat="45.86395" lon="2.62805">
        <ele>706</ele>
        <time>2017-10-17T20:38:46Z</time>
      </trkpt>
      <trkpt lat="45.8635" lon="2.62874">
        <ele>704</ele>
        <time>2017-10-17T20:40:46Z</time>
      </trkpt>
      <trkpt lat="45.86338" lon="2.62892">
        <ele>704</ele>
        <time>2017-10-17T20:42:46Z</time>
      </trkpt>
      <trkpt lat="45.86328" lon="2.62904">
        <ele>704</ele>
        <time>2017-10-17T20:44:46Z</time>
      </trkpt>
      <trkpt lat="45.8631" lon="2.62918">
        <ele>703</ele>
        <time>2017-10-17T20:46:46Z</time>
      </trkpt>
      <trkpt lat="45.86268" lon="2.62956">
        <ele>703</ele>
        <time>2017-10-17T20:48:46Z</time>
      </trkpt>
      <trkpt lat="45.86249" lon="2.62967">
        <ele>703</ele>
        <time>2017-10-17T20:50:46Z</time>
      </trkpt>
      <trkpt lat="45.86238" lon="2.62975">
        <ele>702</ele>
        <time>2017-10-17T20:52:46Z</time>
      </trkpt>
      <trkpt lat="45.86226" lon="2.62983">
        <ele>702</ele>
        <time>2017-10-17T20:54:46Z</time>
      </trkpt>
      <trkpt lat="45.8616" lon="2.63033">
        <ele>700</ele>
        <time>2017-10-17T20:56:46Z</time>
      </trkpt>
      <trkpt lat="45.86101" lon="2.63102">
        <ele>701</ele>
        <time>2017-10-17T20:58:46Z</time>
      </trkpt>
      <trkpt lat="45.86091" lon="2.63108">
        <ele>701</ele>
        <time>2017-10-17T21:00:46Z</time>
      </trkpt>
      <trkpt lat="45.86088" lon="2.63112">
        <ele>701</ele>
        <time>2017-10-17T21:02:46Z</time>
      </trkpt>
      <trkpt lat="45.86082" lon="2.63118">
        <ele>701</ele>
        <time>2017-10-17T21:04:46Z</time>
      </trkpt>
      <trkpt lat="45.86081" lon="2.63123">
        <ele>701</ele>
        <time>2017-10-17T21:06:46Z</time>
      </trkpt>
      <trkpt lat="45.86074" lon="2.63123">
        <ele>701</ele>
        <time>2017-10-17T21:08:46Z</time>
      </trkpt>
      <trkpt lat="45.86041" lon="2.63129">
        <ele>700</ele>
        <time>2017-10-17T21:10:46Z</time>
      </trkpt>
      <trkpt lat="45.86022" lon="2.6313">
        <ele>699</ele>
        <time>2017-10-17T21:12:46Z</time>
      </trkpt>
      <trkpt lat="45.86017" lon="2.63128">
        <ele>698</ele>
        <time>2017-10-17T21:14:46Z</time>
      </trkpt>
      <trkpt lat="45.86011" lon="2.63119">
        <ele>698</ele>
        <time>2017-10-17T21:16:46Z</time>
      </trkpt>
      <trkpt lat="45.85981" lon="2.63024">
        <ele>693</ele>
        <time>2017-10-17T21:18:46Z</time>
      </trkpt>
      <trkpt lat="45.85952" lon="2.62928">
        <ele>690</ele>
        <time>2017-10-17T21:20:46Z</time>
      </trkpt>
      <trkpt lat="45.85949" lon="2.62922">
        <ele>690</ele>
        <time>2017-10-17T21:22:46Z</time>
      </trkpt>
      <trkpt lat="45.85946" lon="2.62917">
        <ele>689</ele>
        <time>2017-10-17T21:24:46Z</time>
      </trkpt>
      <trkpt lat="45.85942" lon="2.62912">
        <ele>689</ele>
        <time>2017-10-17T21:26:46Z</time>
      </trkpt>
      <trkpt lat="45.85929" lon="2.62898">
        <ele>688</ele>
        <time>2017-10-17T21:28:46Z</time>
      </trkpt>
      <trkpt lat="45.85924" lon="2.62895">
        <ele>688</ele>
        <time>2017-10-17T21:30:46Z</time>
      </trkpt>
      <trkpt lat="45.85903" lon="2.62884">
        <ele>687</ele>
        <time>2017-10-17T21:32:46Z</time>
      </trkpt>
      <trkpt lat="45.85866" lon="2.62866">
        <ele>687</ele>
        <time>2017-10-17T21:34:46Z</time>
      </trkpt>
      <trkpt lat="45.8586" lon="2.62865">
        <ele>686</ele>
        <time>2017-10-17T21:36:46Z</time>
      </trkpt>
      <trkpt lat="45.85854" lon="2.62864">
        <ele>686</ele>
        <time>2017-10-17T21:38:46Z</time>
      </trkpt>
      <trkpt lat="45.85839" lon="2.62866">
        <ele>686</ele>
        <time>2017-10-17T21:40:46Z</time>
      </trkpt>
      <trkpt lat="45.85818" lon="2.62872">
        <ele>687</ele>
        <time>2017-10-17T21:42:46Z</time>
      </trkpt>
      <trkpt lat="45.85784" lon="2.62873">
        <ele>688</ele>
        <time>2017-10-17T21:44:46Z</time>
      </trkpt>
      <trkpt lat="45.8578" lon="2.62872">
        <ele>688</ele>
        <time>2017-10-17T21:46:46Z</time>
      </trkpt>
      <trkpt lat="45.85776" lon="2.62871">
        <ele>688</ele>
        <time>2017-10-17T21:48:46Z</time>
      </trkpt>
      <trkpt lat="45.85757" lon="2.62848">
        <ele>686</ele>
        <time>2017-10-17T21:50:46Z</time>
      </trkpt>
      <trkpt lat="45.85728" lon="2.62802">
        <ele>685</ele>
        <time>2017-10-17T21:52:46Z</time>
      </trkpt>
      <trkpt lat="45.85697" lon="2.62748">
        <ele>686</ele>
        <time>2017-10-17T21:54:46Z</time>
      </trkpt>
      <trkpt lat="45.8567" lon="2.62701">
        <ele>688</ele>
        <time>2017-10-17T21:56:46Z</time>
      </trkpt>
      <trkpt lat="45.85654" lon="2.62672">
        <ele>690</ele>
        <time>2017-10-17T21:58:46Z</time>
      </trkpt>
      <trkpt lat="45.85641" lon="2.62653">
        <ele>693</ele>
        <time>2017-10-17T22:00:46Z</time>
      </trkpt>
      <trkpt lat="45.85629" lon="2.62624">
        <ele>696</ele>
        <time>2017-10-17T22:02:46Z</time>
      </trkpt>
      <trkpt lat="45.85617" lon="2.62604">
        <ele>699</ele>
        <time>2017-10-17T22:04:46Z</time>
      </trkpt>
      <trkpt lat="45.85603" lon="2.62591">
        <ele>702</ele>
        <time>2017-10-17T22:06:46Z</time>
      </trkpt>
      <trkpt lat="45.85585" lon="2.62572">
        <ele>704</ele>
        <time>2017-10-17T22:08:46Z</time>
      </trkpt>
      <trkpt lat="45.85578" lon="2.62559">
        <ele>705</ele>
        <time>2017-10-17T22:10:46Z</time>
      </trkpt>
      <trkpt lat="45.85577" lon="2.62556">
        <ele>705</ele>
        <time>2017-10-17T22:12:46Z</time>
      </trkpt>
      <trkpt lat="45.85573" lon="2.6255">
        <ele>705</ele>
        <time>2017-10-17T22:14:46Z</time>
      </trkpt>
      <trkpt lat="45.85569" lon="2.62543">
        <ele>706</ele>
        <time>2017-10-17T22:16:46Z</time>
      </trkpt>
      <trkpt lat="45.85548" lon="2.62496">
        <ele>707</ele>
        <time>2017-10-17T22:18:46Z</time>
      </trkpt>
      <trkpt lat="45.85529" lon="2.6245">
        <ele>710</ele>
        <time>2017-10-17T22:20:46Z</time>
      </trkpt>
      <trkpt lat="45.85514" lon="2.62409">
        <ele>712</ele>
        <time>2017-10-17T22:22:46Z</time>
      </trkpt>
      <trkpt lat="45.85504" lon="2.62368">
        <ele>712</ele>
        <time>2017-10-17T22:24:46Z</time>
      </trkpt>
      <trkpt lat="45.85493" lon="2.6232">
        <ele>712</ele>
        <time>2017-10-17T22:26:46Z</time>
      </trkpt>
      <trkpt lat="45.8548" lon="2.6227">
        <ele>712</ele>
        <time>2017-10-17T22:28:46Z</time>
      </trkpt>
      <trkpt lat="45.85465" lon="2.6222">
        <ele>715</ele>
        <time>2017-10-17T22:30:46Z</time>
      </trkpt>
      <trkpt lat="45.85453" lon="2.62184">
        <ele>718</ele>
        <time>2017-10-17T22:32:46Z</time>
      </trkpt>
      <trkpt lat="45.85435" lon="2.62144">
        <ele>723</ele>
        <time>2017-10-17T22:34:46Z</time>
      </trkpt>
      <trkpt lat="45.85421" lon="2.62111">
        <ele>726</ele>
        <time>2017-10-17T22:36:46Z</time>
      </trkpt>
      <trkpt lat="45.85409" lon="2.62063">
        <ele>729</ele>
        <time>2017-10-17T22:38:46Z</time>
      </trkpt>
      <trkpt lat="45.85401" lon="2.62036">
        <ele>729</ele>
        <time>2017-10-17T22:40:46Z</time>
      </trkpt>
      <trkpt lat="45.85399" lon="2.62034">
        <ele>729</ele>
        <time>2017-10-17T22:42:46Z</time>
      </trkpt>
      <trkpt lat="45.85389" lon="2.6203">
        <ele>728</ele>
        <time>2017-10-17T22:44:46Z</time>
      </trkpt>
      <trkpt lat="45.85366" lon="2.62006">
        <ele>726</ele>
        <time>2017-10-17T22:46:46Z</time>
      </trkpt>
      <trkpt lat="45.85311" lon="2.61923">
        <ele>719</ele>
        <time>2017-10-17T22:48:46Z</time>
      </trkpt>
      <trkpt lat="45.85234" lon="2.6181">
        <ele>715</ele>
        <time>2017-10-17T22:50:46Z</time>
      </trkpt>
      <trkpt lat="45.85222" lon="2.61801">
        <ele>715</ele>
        <time>2017-10-17T22:52:46Z</time>
      </trkpt>
      <trkpt lat="45.8522" lon="2.61802">
        <ele>715</ele>
        <time>2017-10-17T22:54:46Z</time>
      </trkpt>
      <trkpt lat="45.85219" lon="2.61804">
        <ele>715</ele>
        <time>2017-10-17T22:56:46Z</time>
      </trkpt>
      <trkpt lat="45.85219" lon="2.61808">
        <ele>715</ele>
        <time>2017-10-17T22:58:46Z</time>
      </trkpt>
      <trkpt lat="45.85218" lon="2.6181">
        <ele>715</ele>
        <time>2017-10-17T23:00:46Z</time>
      </trkpt>
      <trkpt lat="45.85216" lon="2.61814">
        <ele>715</ele>
        <time>2017-10-17T23:02:46Z</time>
      </trkpt>
      <trkpt lat="45.85206" lon="2.61826">
        <ele>715</ele>
        <time>2017-10-17T23:04:46Z</time>
      </trkpt>
      <trkpt lat="45.85148" lon="2.61841">
        <ele>714</ele>
        <time>2017-10-17T23:06:46Z</time>
      </trkpt>
      <trkpt lat="45.85142" lon="2.61842">
        <ele>714</ele>
        <time>2017-10-17T23:08:46Z</time>
      </trkpt>
      <trkpt lat="45.85123" lon="2.6184">
        <ele>713</ele>
        <time>2017-10-17T23:10:46Z</time>
      </trkpt>
      <trkpt lat="45.8508" lon="2.61843">
        <ele>712</ele>
        <time>2017-10-17T23:12:46Z</time>
      </trkpt>
      <trkpt lat="45.85063" lon="2.61847">
        <ele>711</ele>
        <time>2017-10-17T23:14:46Z</time>
      </trkpt>
      <trkpt lat="45.85058" lon="2.6185">
        <ele>710</ele>
        <time>2017-10-17T23:16:46Z</time>
      </trkpt>
      <trkpt lat="45.85045" lon="2.61861">
        <ele>710</ele>
        <time>2017-10-17T23:18:46Z</time>
      </trkpt>
      <trkpt lat="45.85016" lon="2.61884">
        <ele>709</ele>
        <time>2017-10-17T23:20:46Z</time>
      </trkpt>
      <trkpt lat="45.8497" lon="2.61912">
        <ele>708</ele>
        <time>2017-10-17T23:22:46Z</time>
      </trkpt>
      <trkpt lat="45.84954" lon="2.61907">
        <ele>707</ele>
        <time>2017-10-17T23:24:46Z</time>
      </trkpt>
      <trkpt lat="45.84933" lon="2.61885">
        <ele>704</ele>
        <time>2017-10-17T23:26:46Z</time>
      </trkpt>
      <trkpt lat="45.84926" lon="2.61849">
        <ele>701</ele>
        <time>2017-10-17T23:28:46Z</time>
      </trkpt>
      <trkpt lat="45.84917" lon="2.6182">
        <ele>699</ele>
        <time>2017-10-17T23:30:46Z</time>
      </trkpt>
      <trkpt lat="45.84854" lon="2.61743">
        <ele>689</ele>
        <time>2017-10-17T23:32:46Z</time>
      </trkpt>
      <trkpt lat="45.84839" lon="2.61717">
        <ele>687</ele>
        <time>2017-10-17T23:34:46Z</time>
      </trkpt>
      <trkpt lat="45.84818" lon="2.61692">
        <ele>686</ele>
        <time>2017-10-17T23:36:46Z</time>
      </trkpt>
      <trkpt lat="45.84814" lon="2.61661">
        <ele>685</ele>
        <time>2017-10-17T23:38:46Z</time>
      </trkpt>
      <trkpt lat="45.84828" lon="2.61623">
        <ele>685</ele>
        <time>2017-10-17T23:40:46Z</time>
      </trkpt>
      <trkpt lat="45.84837" lon="2.61597">
        <ele>684</ele>
        <time>2017-10-17T23:42:46Z</time>
      </trkpt>
      <trkpt lat="45.84856" lon="2.61561">
        <ele>684</ele>
        <time>2017-10-17T23:44:46Z</time>
      </trkpt>
      <trkpt lat="45.84855" lon="2.61541">
        <ele>684</ele>
        <time>2017-10-17T23:46:46Z</time>
      </trkpt>
      <trkpt lat="45.84853" lon="2.61504">
        <ele>683</ele>
        <time>2017-10-17T23:48:46Z</time>
      </trkpt>
      <trkpt lat="45.84845" lon="2.61463">
        <ele>679</ele>
        <time>2017-10-17T23:50:46Z</time>
      </trkpt>
      <trkpt lat="45.84841" lon="2.61451">
        <ele>678</ele>
        <time>2017-10-17T23:52:46Z</time>
      </trkpt>
      <trkpt lat="45.84828" lon="2.61415">
        <ele>673</ele>
        <time>2017-10-17T23:54:46Z</time>
      </trkpt>
      <trkpt lat="45.84824" lon="2.61417">
        <ele>673</ele>
        <time>2017-10-17T23:56:46Z</time>
      </trkpt>
      <trkpt lat="45.84796" lon="2.6145">
        <ele>674</ele>
        <time>2017-10-17T23:58:46Z</time>
      </trkpt>
      <trkpt lat="45.84789" lon="2.61455">
        <ele>674</ele>
        <time>2017-10-18T00:00:46Z</time>
      </trkpt>
      <trkpt lat="45.84773" lon="2.61457">
        <ele>673</ele>
        <time>2017-10-18T00:02:46Z</time>
      </trkpt>
      <trkpt lat="45.84749" lon="2.61457">
        <ele>671</ele>
        <time>2017-10-18T00:04:46Z</time>
      </trkpt>
      <trkpt lat="45.8468" lon="2.6149">
        <ele>675</ele>
        <time>2017-10-18T00:06:46Z</time>
      </trkpt>
      <trkpt lat="45.8467" lon="2.61491">
        <ele>675</ele>
        <time>2017-10-18T00:08:46Z</time>
      </trkpt>
      <trkpt lat="45.84626" lon="2.61511">
        <ele>676</ele>
        <time>2017-10-18T00:10:46Z</time>
      </trkpt>
      <trkpt lat="45.84605" lon="2.61535">
        <ele>675</ele>
        <time>2017-10-18T00:12:46Z</time>
      </trkpt>
      <trkpt lat="45.846" lon="2.61548">
        <ele>675</ele>
        <time>2017-10-18T00:14:46Z</time>
      </trkpt>
      <trkpt lat="45.8457" lon="2.61665">
        <ele>667</ele>
        <time>2017-10-18T00:16:46Z</time>
      </trkpt>
      <trkpt lat="45.8456" lon="2.61675">
        <ele>664</ele>
        <time>2017-10-18T00:18:46Z</time>
      </trkpt>
      <trkpt lat="45.84542" lon="2.61677">
        <ele>661</ele>
        <time>2017-10-18T00:20:46Z</time>
      </trkpt>
      <trkpt lat="45.84509" lon="2.61681">
        <ele>656</ele>
        <time>2017-10-18T00:22:46Z</time>
      </trkpt>
      <trkpt lat="45.84484" lon="2.61684">
        <ele>653</ele>
        <time>2017-10-18T00:24:46Z</time>
      </trkpt>
      <trkpt lat="45.84461" lon="2.61691">
        <ele>650</ele>
        <time>2017-10-18T00:26:46Z</time>
      </trkpt>
      <trkpt lat="45.84438" lon="2.61703">
        <ele>645</ele>
        <time>2017-10-18T00:28:46Z</time>
      </trkpt>
      <trkpt lat="45.84415" lon="2.61712">
        <ele>640</ele>
        <time>2017-10-18T00:30:46Z</time>
      </trkpt>
      <trkpt lat="45.84398" lon="2.6171">
        <ele>636</ele>
        <time>2017-10-18T00:32:46Z</time>
      </trkpt>
      <trkpt lat="45.84384" lon="2.61703">
        <ele>634</ele>
        <time>2017-10-18T00:34:46Z</time>
      </trkpt>
      <trkpt lat="45.8437" lon="2.6169">
        <ele>632</ele>
        <time>2017-10-18T00:36:46Z</time>
      </trkpt>
      <trkpt lat="45.8436" lon="2.61685">
        <ele>630</ele>
        <time>2017-10-18T00:38:46Z</time>
      </trkpt>
      <trkpt lat="45.84356" lon="2.61693">
        <ele>627</ele>
        <time>2017-10-18T00:40:46Z</time>
      </trkpt>
      <trkpt lat="45.84347" lon="2.61747">
        <ele>619</ele>
        <time>2017-10-18T00:42:46Z</time>
      </trkpt>
      <trkpt lat="45.8435" lon="2.61761">
        <ele>619</ele>
        <time>2017-10-18T00:44:46Z</time>
      </trkpt>
      <trkpt lat="45.84365" lon="2.61794">
        <ele>620</ele>
        <time>2017-10-18T00:46:46Z</time>
      </trkpt>
      <trkpt lat="45.84369" lon="2.61796">
        <ele>620</ele>
        <time>2017-10-18T00:48:46Z</time>
      </trkpt>
      <trkpt lat="45.84383" lon="2.61796">
        <ele>620</ele>
        <time>2017-10-18T00:50:46Z</time>
      </trkpt>
      <trkpt lat="45.84405" lon="2.618">
        <ele>621</ele>
        <time>2017-10-18T00:52:46Z</time>
      </trkpt>
      <trkpt lat="45.8441" lon="2.61802">
        <ele>620</ele>
        <time>2017-10-18T00:54:46Z</time>
      </trkpt>
      <trkpt lat="45.84419" lon="2.61816">
        <ele>618</ele>
        <time>2017-10-18T00:56:46Z</time>
      </trkpt>
      <trkpt lat="45.84425" lon="2.61828">
        <ele>615</ele>
        <time>2017-10-18T00:58:46Z</time>
      </trkpt>
      <trkpt lat="45.84429" lon="2.6183">
        <ele>615</ele>
        <time>2017-10-18T01:00:46Z</time>
      </trkpt>
      <trkpt lat="45.84447" lon="2.61835">
        <ele>614</ele>
        <time>2017-10-18T01:02:46Z</time>
      </trkpt>
      <trkpt lat="45.84456" lon="2.61835">
        <ele>614</ele>
        <time>2017-10-18T01:04:46Z</time>
      </trkpt>
      <trkpt lat="45.84465" lon="2.6185">
        <ele>618</ele>
        <time>2017-10-18T01:06:46Z</time>
      </trkpt>
      <trkpt lat="45.84488" lon="2.61873">
        <ele>622</ele>
        <time>2017-10-18T01:08:46Z</time>
      </trkpt>
      <trkpt lat="45.84499" lon="2.61894">
        <ele>626</ele>
        <time>2017-10-18T01:10:46Z</time>
      </trkpt>
      <trkpt lat="45.84521" lon="2.61921">
        <ele>628</ele>
        <time>2017-10-18T01:12:46Z</time>
      </trkpt>
      <trkpt lat="45.84544" lon="2.61957">
        <ele>631</ele>
        <time>2017-10-18T01:14:46Z</time>
      </trkpt>
      <trkpt lat="45.8455" lon="2.61969">
        <ele>632</ele>
        <time>2017-10-18T01:16:46Z</time>
      </trkpt>
      <trkpt lat="45.8456" lon="2.61998">
        <ele>636</ele>
        <time>2017-10-18T01:18:46Z</time>
      </trkpt>
      <trkpt lat="45.84527" lon="2.61992">
        <ele>643</ele>
        <time>2017-10-18T01:20:46Z</time>
      </trkpt>
      <trkpt lat="45.84516" lon="2.61988">
        <ele>645</ele>
        <time>2017-10-18T01:22:46Z</time>
      </trkpt>
      <trkpt lat="45.84487" lon="2.61988">
        <ele>651</ele>
        <time>2017-10-18T01:24:46Z</time>
      </trkpt>
      <trkpt lat="45.84475" lon="2.61982">
        <ele>652</ele>
        <time>2017-10-18T01:26:46Z</time>
      </trkpt>
      <trkpt lat="45.84467" lon="2.61982">
        <ele>653</ele>
        <time>2017-10-18T01:28:46Z</time>
      </trkpt>
      <trkpt lat="45.8446" lon="2.62">
        <ele>661</ele>
        <time>2017-10-18T01:30:46Z</time>
      </trkpt>
      <trkpt lat="45.84465" lon="2.62015">
        <ele>663</ele>
        <time>2017-10-18T01:32:46Z</time>
      </trkpt>
      <trkpt lat="45.84478" lon="2.62079">
        <ele>675</ele>
        <time>2017-10-18T01:34:46Z</time>
      </trkpt>
      <trkpt lat="45.84473" lon="2.6212">
        <ele>682</ele>
        <time>2017-10-18T01:36:46Z</time>
      </trkpt>
      <trkpt lat="45.84477" lon="2.62159">
        <ele>686</ele>
        <time>2017-10-18T01:38:46Z</time>
      </trkpt>
      <trkpt lat="45.84477" lon="2.62192">
        <ele>688</ele>
        <time>2017-10-18T01:40:46Z</time>
      </trkpt>
      <trkpt lat="45.84473" lon="2.62192">
        <ele>688</ele>
        <time>2017-10-18T01:42:46Z</time>
      </trkpt>
      <trkpt lat="45.84466" lon="2.62163">
        <ele>688</ele>
        <time>2017-10-18T01:44:46Z</time>
      </trkpt>
      <trkpt lat="45.84456" lon="2.62145">
        <ele>687</ele>
        <time>2017-10-18T01:46:46Z</time>
      </trkpt>
      <trkpt lat="45.84435" lon="2.62092">
        <ele>685</ele>
        <time>2017-10-18T01:48:46Z</time>
      </trkpt>
      <trkpt lat="45.84429" lon="2.62082">
        <ele>685</ele>
        <time>2017-10-18T01:50:46Z</time>
      </trkpt>
      <trkpt lat="45.84412" lon="2.6206">
        <ele>683</ele>
        <time>2017-10-18T01:52:46Z</time>
      </trkpt>
      <trkpt lat="45.84345" lon="2.6199">
        <ele>673</ele>
        <time>2017-10-18T01:54:46Z</time>
      </trkpt>
      <trkpt lat="45.84311" lon="2.61958">
        <ele>666</ele>
        <time>2017-10-18T01:56:46Z</time>
      </trkpt>
      <trkpt lat="45.84233" lon="2.61858">
        <ele>655</ele>
        <time>2017-10-18T01:58:46Z</time>
      </trkpt>
      <trkpt lat="45.8419" lon="2.61811">
        <ele>652</ele>
        <time>2017-10-18T02:00:46Z</time>
      </trkpt>
      <trkpt lat="45.84183" lon="2.61806">
        <ele>653</ele>
        <time>2017-10-18T02:02:46Z</time>
      </trkpt>
      <trkpt lat="45.84176" lon="2.61802">
        <ele>653</ele>
        <time>2017-10-18T02:04:46Z</time>
      </trkpt>
      <trkpt lat="45.84155" lon="2.61792">
        <ele>656</ele>
        <time>2017-10-18T02:06:46Z</time>
      </trkpt>
      <trkpt lat="45.84141" lon="2.61784">
        <ele>658</ele>
        <time>2017-10-18T02:08:46Z</time>
      </trkpt>
      <trkpt lat="45.84126" lon="2.61781">
        <ele>661</ele>
        <time>2017-10-18T02:10:46Z</time>
      </trkpt>
      <trkpt lat="45.84111" lon="2.61783">
        <ele>665</ele>
        <time>2017-10-18T02:12:46Z</time>
      </trkpt>
      <trkpt lat="45.84097" lon="2.61785">
        <ele>668</ele>
        <time>2017-10-18T02:14:46Z</time>
      </trkpt>
      <trkpt lat="45.84092" lon="2.61783">
        <ele>669</ele>
        <time>2017-10-18T02:16:46Z</time>
      </trkpt>
      <trkpt lat="45.84087" lon="2.61778">
        <ele>670</ele>
        <time>2017-10-18T02:18:46Z</time>
      </trkpt>
      <trkpt lat="45.84085" lon="2.61771">
        <ele>669</ele>
        <time>2017-10-18T02:20:46Z</time>
      </trkpt>
      <trkpt lat="45.84085" lon="2.61764">
        <ele>668</ele>
        <time>2017-10-18T02:22:46Z</time>
      </trkpt>
      <trkpt lat="45.84087" lon="2.6175">
        <ele>666</ele>
        <time>2017-10-18T02:24:46Z</time>
      </trkpt>
      <trkpt lat="45.84095" lon="2.61707">
        <ele>666</ele>
        <time>2017-10-18T02:26:46Z</time>
      </trkpt>
      <trkpt lat="45.84099" lon="2.61678">
        <ele>666</ele>
        <time>2017-10-18T02:28:46Z</time>
      </trkpt>
      <trkpt lat="45.841" lon="2.61656">
        <ele>667</ele>
        <time>2017-10-18T02:30:46Z</time>
      </trkpt>
      <trkpt lat="45.84113" lon="2.6161">
        <ele>666</ele>
        <time>2017-10-18T02:32:46Z</time>
      </trkpt>
      <trkpt lat="45.84146" lon="2.61584">
        <ele>656</ele>
        <time>2017-10-18T02:34:46Z</time>
      </trkpt>
      <trkpt lat="45.84155" lon="2.61539">
        <ele>650</ele>
        <time>2017-10-18T02:36:46Z</time>
      </trkpt>
      <trkpt lat="45.84147" lon="2.61503">
        <ele>651</ele>
        <time>2017-10-18T02:38:46Z</time>
      </trkpt>
      <trkpt lat="45.84122" lon="2.61475">
        <ele>658</ele>
        <time>2017-10-18T02:40:46Z</time>
      </trkpt>
      <trkpt lat="45.84106" lon="2.6144">
        <ele>660</ele>
        <time>2017-10-18T02:42:46Z</time>
      </trkpt>
      <trkpt lat="45.84086" lon="2.61398">
        <ele>662</ele>
        <time>2017-10-18T02:44:46Z</time>
      </trkpt>
      <trkpt lat="45.84075" lon="2.61377">
        <ele>661</ele>
        <time>2017-10-18T02:46:46Z</time>
      </trkpt>
      <trkpt lat="45.84065" lon="2.61348">
        <ele>657</ele>
        <time>2017-10-18T02:48:46Z</time>
      </trkpt>
      <trkpt lat="45.84063" lon="2.61342">
        <ele>656</ele>
        <time>2017-10-18T02:50:46Z</time>
      </trkpt>
      <trkpt lat="45.84063" lon="2.61331">
        <ele>654</ele>
        <time>2017-10-18T02:52:46Z</time>
      </trkpt>
      <trkpt lat="45.84065" lon="2.61319">
        <ele>653</ele>
        <time>2017-10-18T02:54:46Z</time>
      </trkpt>
      <trkpt lat="45.8407" lon="2.613">
        <ele>651</ele>
        <time>2017-10-18T02:56:46Z</time>
      </trkpt>
      <trkpt lat="45.84076" lon="2.6127">
        <ele>648</ele>
        <time>2017-10-18T02:58:46Z</time>
      </trkpt>
      <trkpt lat="45.84072" lon="2.61246">
        <ele>647</ele>
        <time>2017-10-18T03:00:46Z</time>
      </trkpt>
      <trkpt lat="45.84067" lon="2.61211">
        <ele>647</ele>
        <time>2017-10-18T03:02:46Z</time>
      </trkpt>
      <trkpt lat="45.84062" lon="2.61189">
        <ele>647</ele>
        <time>2017-10-18T03:04:46Z</time>
      </trkpt>
      <trkpt lat="45.84057" lon="2.61139">
        <ele>643</ele>
        <time>2017-10-18T03:06:46Z</time>
      </trkpt>
      <trkpt lat="45.84055" lon="2.61132">
        <ele>643</ele>
        <time>2017-10-18T03:08:46Z</time>
      </trkpt>
      <trkpt lat="45.84032" lon="2.61071">
        <ele>642</ele>
        <time>2017-10-18T03:10:46Z</time>
      </trkpt>
      <trkpt lat="45.84026" lon="2.61064">
        <ele>643</ele>
        <time>2017-10-18T03:12:46Z</time>
      </trkpt>
      <trkpt lat="45.84015" lon="2.61041">
        <ele>642</ele>
        <time>2017-10-18T03:14:46Z</time>
      </trkpt>
      <trkpt lat="45.84007" lon="2.61011">
        <ele>639</ele>
        <time>2017-10-18T03:16:46Z</time>
      </trkpt>
      <trkpt lat="45.83994" lon="2.61005">
        <ele>639</ele>
        <time>2017-10-18T03:18:46Z</time>
      </trkpt>
      <trkpt lat="45.83991" lon="2.61004">
        <ele>638</ele>
        <time>2017-10-18T03:20:46Z</time>
      </trkpt>
      <trkpt lat="45.83987" lon="2.61004">
        <ele>638</ele>
        <time>2017-10-18T03:22:46Z</time>
      </trkpt>
      <trkpt lat="45.83983" lon="2.61006">
        <ele>637</ele>
        <time>2017-10-18T03:24:46Z</time>
      </trkpt>
      <trkpt lat="45.83964" lon="2.61035">
        <ele>639</ele>
        <time>2017-10-18T03:26:46Z</time>
      </trkpt>
      <trkpt lat="45.83956" lon="2.61067">
        <ele>643</ele>
        <time>2017-10-18T03:28:46Z</time>
      </trkpt>
      <trkpt lat="45.83958" lon="2.61086">
        <ele>646</ele>
        <time>2017-10-18T03:30:46Z</time>
      </trkpt>
      <trkpt lat="45.8396" lon="2.61121">
        <ele>649</ele>
        <time>2017-10-18T03:32:46Z</time>
      </trkpt>
      <trkpt lat="45.83962" lon="2.6113">
        <ele>650</ele>
        <time>2017-10-18T03:34:46Z</time>
      </trkpt>
      <trkpt lat="45.83969" lon="2.61161">
        <ele>654</ele>
        <time>2017-10-18T03:36:46Z</time>
      </trkpt>
      <trkpt lat="45.8397" lon="2.61172">
        <ele>654</ele>
        <time>2017-10-18T03:38:46Z</time>
      </trkpt>
      <trkpt lat="45.83973" lon="2.61189">
        <ele>655</ele>
        <time>2017-10-18T03:40:46Z</time>
      </trkpt>
      <trkpt lat="45.83968" lon="2.61236">
        <ele>656</ele>
        <time>2017-10-18T03:42:46Z</time>
      </trkpt>
      <trkpt lat="45.83975" lon="2.61271">
        <ele>658</ele>
        <time>2017-10-18T03:44:46Z</time>
      </trkpt>
      <trkpt lat="45.83976" lon="2.61273">
        <ele>658</ele>
        <time>2017-10-18T03:46:46Z</time>
      </trkpt>
      <trkpt lat="45.83993" lon="2.61314">
        <ele>660</ele>
        <time>2017-10-18T03:48:46Z</time>
      </trkpt>
      <trkpt lat="45.83999" lon="2.61344">
        <ele>663</ele>
        <time>2017-10-18T03:50:46Z</time>
      </trkpt>
      <trkpt lat="45.83992" lon="2.61355">
        <ele>665</ele>
        <time>2017-10-18T03:52:46Z</time>
      </trkpt>
      <trkpt lat="45.83977" lon="2.61364">
        <ele>666</ele>
        <time>2017-10-18T03:54:46Z</time>
      </trkpt>
      <trkpt lat="45.83947" lon="2.61384">
        <ele>669</ele>
        <time>2017-10-18T03:56:46Z</time>
      </trkpt>
      <trkpt lat="45.83921" lon="2.61405">
        <ele>671</ele>
        <time>2017-10-18T03:58:46Z</time>
      </trkpt>
      <trkpt lat="45.83907" lon="2.61433">
        <ele>673</ele>
        <time>2017-10-18T04:00:46Z</time>
      </trkpt>
      <trkpt lat="45.83895" lon="2.61466">
        <ele>675</ele>
        <time>2017-10-18T04:02:46Z</time>
      </trkpt>
      <trkpt lat="45.83864" lon="2.61522">
        <ele>679</ele>
        <time>2017-10-18T04:04:46Z</time>
      </trkpt>
      <trkpt lat="45.83841" lon="2.61555">
        <ele>682</ele>
        <time>2017-10-18T04:06:46Z</time>
      </trkpt>
      <trkpt lat="45.83823" lon="2.6159">
        <ele>684</ele>
        <time>2017-10-18T04:08:46Z</time>
      </trkpt>
      <trkpt lat="45.83809" lon="2.6163">
        <ele>685</ele>
        <time>2017-10-18T04:10:46Z</time>
      </trkpt>
      <trkpt lat="45.83801" lon="2.61661">
        <ele>686</ele>
        <time>2017-10-18T04:12:46Z</time>
      </trkpt>
      <trkpt lat="45.83793" lon="2.61686">
        <ele>687</ele>
        <time>2017-10-18T04:14:46Z</time>
      </trkpt>
      <trkpt lat="45.83787" lon="2.61721">
        <ele>688</ele>
        <time>2017-10-18T04:16:46Z</time>
      </trkpt>
      <trkpt lat="45.83774" lon="2.61772">
        <ele>689</ele>
        <time>2017-10-18T04:18:46Z</time>
      </trkpt>
      <trkpt lat="45.83761" lon="2.61814">
        <ele>690</ele>
        <time>2017-10-18T04:20:46Z</time>
      </trkpt>
      <trkpt lat="45.83738" lon="2.61851">
        <ele>690</ele>
        <time>2017-10-18T04:22:46Z</time>
      </trkpt>
      <trkpt lat="45.83692" lon="2.61896">
        <ele>689</ele>
        <time>2017-10-18T04:24:46Z</time>
      </trkpt>
      <trkpt lat="45.83686" lon="2.61906">
        <ele>689</ele>
        <time>2017-10-18T04:26:46Z</time>
      </trkpt>
      <trkpt lat="45.83683" lon="2.61912">
        <ele>689</ele>
        <time>2017-10-18T04:28:46Z</time>
      </trkpt>
      <trkpt lat="45.83679" lon="2.61925">
        <ele>689</ele>
        <time>2017-10-18T04:30:46Z</time>
      </trkpt>
      <trkpt lat="45.83658" lon="2.62007">
        <ele>689</ele>
        <time>2017-10-18T04:32:46Z</time>
      </trkpt>
      <trkpt lat="45.83656" lon="2.62069">
        <ele>689</ele>
        <time>2017-10-18T04:34:46Z</time>
      </trkpt>
      <trkpt lat="45.83655" lon="2.62075">
        <ele>689</ele>
        <time>2017-10-18T04:36:46Z</time>
      </trkpt>
      <trkpt lat="45.83653" lon="2.62081">
        <ele>689</ele>
        <time>2017-10-18T04:38:46Z</time>
      </trkpt>
      <trkpt lat="45.8365" lon="2.62086">
        <ele>688</ele>
        <time>2017-10-18T04:40:46Z</time>
      </trkpt>
      <trkpt lat="45.83647" lon="2.62091">
        <ele>688</ele>
        <time>2017-10-18T04:42:46Z</time>
      </trkpt>
      <trkpt lat="45.83638" lon="2.62097">
        <ele>688</ele>
        <time>2017-10-18T04:44:46Z</time>
      </trkpt>
      <trkpt lat="45.83613" lon="2.62107">
        <ele>687</ele>
        <time>2017-10-18T04:46:46Z</time>
      </trkpt>
      <trkpt lat="45.83604" lon="2.62109">
        <ele>687</ele>
        <time>2017-10-18T04:48:46Z</time>
      </trkpt>
      <trkpt lat="45.83595" lon="2.62114">
        <ele>687</ele>
        <time>2017-10-18T04:50:46Z</time>
      </trkpt>
      <trkpt lat="45.83588" lon="2.62124">
        <ele>687</ele>
        <time>2017-10-18T04:52:46Z</time>
      </trkpt>
      <trkpt lat="45.83537" lon="2.62228">
        <ele>685</ele>
        <time>2017-10-18T04:54:46Z</time>
      </trkpt>
      <trkpt lat="45.83526" lon="2.62247">
        <ele>686</ele>
        <time>2017-10-18T04:56:46Z</time>
      </trkpt>
      <trkpt lat="45.83522" lon="2.62251">
        <ele>686</ele>
        <time>2017-10-18T04:58:46Z</time>
      </trkpt>
      <trkpt lat="45.83503" lon="2.62265">
        <ele>685</ele>
        <time>2017-10-18T05:00:46Z</time>
      </trkpt>
      <trkpt lat="45.83489" lon="2.62271">
        <ele>684</ele>
        <time>2017-10-18T05:02:46Z</time>
      </trkpt>
      <trkpt lat="45.83461" lon="2.62293">
        <ele>682</ele>
        <time>2017-10-18T05:04:46Z</time>
      </trkpt>
      <trkpt lat="45.83407" lon="2.6236">
        <ele>677</ele>
        <time>2017-10-18T05:06:46Z</time>
      </trkpt>
      <trkpt lat="45.83319" lon="2.62458">
        <ele>671</ele>
        <time>2017-10-18T05:08:46Z</time>
      </trkpt>
      <trkpt lat="45.83294" lon="2.62493">
        <ele>670</ele>
        <time>2017-10-18T05:10:46Z</time>
      </trkpt>
      <trkpt lat="45.83234" lon="2.62602">
        <ele>664</ele>
        <time>2017-10-18T05:12:46Z</time>
      </trkpt>
      <trkpt lat="45.83223" lon="2.62623">
        <ele>665</ele>
        <time>2017-10-18T05:14:46Z</time>
      </trkpt>
      <trkpt lat="45.83217" lon="2.6263">
        <ele>665</ele>
        <time>2017-10-18T05:16:46Z</time>
      </trkpt>
      <trkpt lat="45.83203" lon="2.62639">
        <ele>666</ele>
        <time>2017-10-18T05:18:46Z</time>
      </trkpt>
      <trkpt lat="45.8319" lon="2.6264">
        <ele>666</ele>
        <time>2017-10-18T05:20:46Z</time>
      </trkpt>
      <trkpt lat="45.83174" lon="2.62635">
        <ele>666</ele>
        <time>2017-10-18T05:22:46Z</time>
      </trkpt>
      <trkpt lat="45.83093" lon="2.62619">
        <ele>665</ele>
        <time>2017-10-18T05:24:46Z</time>
      </trkpt>
      <trkpt lat="45.83061" lon="2.62614">
        <ele>666</ele>
        <time>2017-10-18T05:26:46Z</time>
      </trkpt>
      <trkpt lat="45.82994" lon="2.62609">
        <ele>671</ele>
        <time>2017-10-18T05:28:46Z</time>
      </trkpt>
      <trkpt lat="45.82978" lon="2.62621">
        <ele>672</ele>
        <time>2017-10-18T05:30:46Z</time>
      </trkpt>
      <trkpt lat="45.82957" lon="2.62641">
        <ele>673</ele>
        <time>2017-10-18T05:32:46Z</time>
      </trkpt>
      <trkpt lat="45.82948" lon="2.62646">
        <ele>673</ele>
        <time>2017-10-18T05:34:46Z</time>
      </trkpt>
      <trkpt lat="45.82923" lon="2.62672">
        <ele>673</ele>
        <time>2017-10-18T05:36:46Z</time>
      </trkpt>
      <trkpt lat="45.82903" lon="2.62695">
        <ele>674</ele>
        <time>2017-10-18T05:38:46Z</time>
      </trkpt>
      <trkpt lat="45.82886" lon="2.62717">
        <ele>676</ele>
        <time>2017-10-18T05:40:46Z</time>
      </trkpt>
      <trkpt lat="45.82856" lon="2.62762">
        <ele>679</ele>
        <time>2017-10-18T05:42:46Z</time>
      </trkpt>
      <trkpt lat="45.82845" lon="2.62793">
        <ele>680</ele>
        <time>2017-10-18T05:44:46Z</time>
      </trkpt>
      <trkpt lat="45.82842" lon="2.62798">
        <ele>680</ele>
        <time>2017-10-18T05:46:46Z</time>
      </trkpt>
      <trkpt lat="45.82837" lon="2.62798">
        <ele>680</ele>
        <time>2017-10-18T05:48:46Z</time>
      </trkpt>
      <trkpt lat="45.82743" lon="2.62779">
        <ele>681</ele>
        <time>2017-10-18T05:50:46Z</time>
      </trkpt>
      <trkpt lat="45.82711" lon="2.62764">
        <ele>681</ele>
        <time>2017-10-18T05:52:46Z</time>
      </trkpt>
      <trkpt lat="45.82698" lon="2.62741">
        <ele>680</ele>
        <time>2017-10-18T05:54:46Z</time>
      </trkpt>
      <trkpt lat="45.82674" lon="2.6273">
        <ele>679</ele>
        <time>2017-10-18T05:56:46Z</time>
      </trkpt>
      <trkpt lat="45.82647" lon="2.62717">
        <ele>679</ele>
        <time>2017-10-18T05:58:46Z</time>
      </trkpt>
      <trkpt lat="45.82624" lon="2.62726">
        <ele>680</ele>
        <time>2017-10-18T06:00:46Z</time>
      </trkpt>
      <trkpt lat="45.82586" lon="2.62728">
        <ele>680</ele>
        <time>2017-10-18T06:02:46Z</time>
      </trkpt>
      <trkpt lat="45.82551" lon="2.62736">
        <ele>682</ele>
        <time>2017-10-18T06:04:46Z</time>
      </trkpt>
      <trkpt lat="45.82491" lon="2.62731">
        <ele>686</ele>
        <time>2017-10-18T06:06:46Z</time>
      </trkpt>
      <trkpt lat="45.82431" lon="2.62736">
        <ele>690</ele>
        <time>2017-10-18T06:08:46Z</time>
      </trkpt>
      <trkpt lat="45.82427" lon="2.62738">
        <ele>690</ele>
        <time>2017-10-18T06:10:46Z</time>
      </trkpt>
      <trkpt lat="45.82419" lon="2.62738">
        <ele>690</ele>
        <time>2017-10-18T06:12:46Z</time>
      </trkpt>
      <trkpt lat="45.82354" lon="2.62762">
        <ele>689</ele>
        <time>2017-10-18T06:14:46Z</time>
      </trkpt>
      <trkpt lat="45.82262" lon="2.62804">
        <ele>687</ele>
        <time>2017-10-18T06:16:46Z</time>
      </trkpt>
      <trkpt lat="45.82239" lon="2.6281">
        <ele>686</ele>
        <time>2017-10-18T06:18:46Z</time>
      </trkpt>
      <trkpt lat="45.82227" lon="2.62814">
        <ele>685</ele>
        <time>2017-10-18T06:20:46Z</time>
      </trkpt>
      <trkpt lat="45.82213" lon="2.62821">
        <ele>684</ele>
        <time>2017-10-18T06:22:46Z</time>
      </trkpt>
      <trkpt lat="45.82179" lon="2.62828">
        <ele>683</ele>
        <time>2017-10-18T06:24:46Z</time>
      </trkpt>
      <trkpt lat="45.82174" lon="2.62816">
        <ele>682</ele>
        <time>2017-10-18T06:26:46Z</time>
      </trkpt>
      <trkpt lat="45.82188" lon="2.62746">
        <ele>683</ele>
        <time>2017-10-18T06:28:46Z</time>
      </trkpt>
      <trkpt lat="45.822" lon="2.62703">
        <ele>683</ele>
        <time>2017-10-18T06:30:46Z</time>
      </trkpt>
      <trkpt lat="45.82202" lon="2.62691">
        <ele>683</ele>
        <time>2017-10-18T06:32:46Z</time>
      </trkpt>
      <trkpt lat="45.82203" lon="2.62616">
        <ele>679</ele>
        <time>2017-10-18T06:34:46Z</time>
      </trkpt>
      <trkpt lat="45.82189" lon="2.62402">
        <ele>663</ele>
        <time>2017-10-18T06:36:46Z</time>
      </trkpt>
      <trkpt lat="45.8219" lon="2.62382">
        <ele>662</ele>
        <time>2017-10-18T06:38:46Z</time>
      </trkpt>
      <trkpt lat="45.82184" lon="2.62329">
        <ele>660</ele>
        <time>2017-10-18T06:40:46Z</time>
      </trkpt>
      <trkpt lat="45.82183" lon="2.62313">
        <ele>660</ele>
        <time>2017-10-18T06:42:46Z</time>
      </trkpt>
      <trkpt lat="45.82176" lon="2.62259">
        <ele>657</ele>
        <time>2017-10-18T06:44:46Z</time>
      </trkpt>
      <trkpt lat="45.82174" lon="2.62252">
        <ele>656</ele>
        <time>2017-10-18T06:46:46Z</time>
      </trkpt>
      <trkpt lat="45.82153" lon="2.62204">
        <ele>652</ele>
        <time>2017-10-18T06:48:46Z</time>
      </trkpt>
      <trkpt lat="45.82149" lon="2.62199">
        <ele>651</ele>
        <time>2017-10-18T06:50:46Z</time>
      </trkpt>
      <trkpt lat="45.82124" lon="2.62186">
        <ele>647</ele>
        <time>2017-10-18T06:52:46Z</time>
      </trkpt>
      <trkpt lat="45.82102" lon="2.62187">
        <ele>645</ele>
        <time>2017-10-18T06:54:46Z</time>
      </trkpt>
      <trkpt lat="45.82092" lon="2.62192">
        <ele>644</ele>
        <time>2017-10-18T06:56:46Z</time>
      </trkpt>
      <trkpt lat="45.82021" lon="2.62222">
        <ele>635</ele>
        <time>2017-10-18T06:58:46Z</time>
      </trkpt>
      <trkpt lat="45.8195" lon="2.62261">
        <ele>632</ele>
        <time>2017-10-18T07:00:46Z</time>
      </trkpt>
      <trkpt lat="45.81902" lon="2.62298">
        <ele>632</ele>
        <time>2017-10-18T07:02:46Z</time>
      </trkpt>
      <trkpt lat="45.81894" lon="2.62307">
        <ele>632</ele>
        <time>2017-10-18T07:04:46Z</time>
      </trkpt>
      <trkpt lat="45.81881" lon="2.62333">
        <ele>633</ele>
        <time>2017-10-18T07:06:46Z</time>
      </trkpt>
      <trkpt lat="45.81873" lon="2.62339">
        <ele>633</ele>
        <time>2017-10-18T07:08:46Z</time>
      </trkpt>
      <trkpt lat="45.81856" lon="2.62337">
        <ele>631</ele>
        <time>2017-10-18T07:10:46Z</time>
      </trkpt>
      <trkpt lat="45.81812" lon="2.62335">
        <ele>631</ele>
        <time>2017-10-18T07:12:46Z</time>
      </trkpt>
      <trkpt lat="45.81789" lon="2.62342">
        <ele>632</ele>
        <time>2017-10-18T07:14:46Z</time>
      </trkpt>
      <trkpt lat="45.81707" lon="2.6238">
        <ele>639</ele>
        <time>2017-10-18T07:16:46Z</time>
      </trkpt>
      <trkpt lat="45.81661" lon="2.62398">
        <ele>643</ele>
        <time>2017-10-18T07:18:46Z</time>
      </trkpt>
      <trkpt lat="45.8163" lon="2.62414">
        <ele>645</ele>
        <time>2017-10-18T07:20:46Z</time>
      </trkpt>
      <trkpt lat="45.81621" lon="2.62416">
        <ele>645</ele>
        <time>2017-10-18T07:22:46Z</time>
      </trkpt>
      <trkpt lat="45.8162" lon="2.62419">
        <ele>645</ele>
        <time>2017-10-18T07:24:46Z</time>
      </trkpt>
      <trkpt lat="45.8159" lon="2.62426">
        <ele>647</ele>
        <time>2017-10-18T07:26:46Z</time>
      </trkpt>
      <trkpt lat="45.81518" lon="2.62567">
        <ele>635</ele>
        <time>2017-10-18T07:28:46Z</time>
      </trkpt>
      <trkpt lat="45.81488" lon="2.62632">
        <ele>632</ele>
        <time>2017-10-18T07:30:46Z</time>
      </trkpt>
      <trkpt lat="45.81489" lon="2.62691">
        <ele>631</ele>
        <time>2017-10-18T07:32:46Z</time>
      </trkpt>
      <trkpt lat="45.81526" lon="2.62782">
        <ele>635</ele>
        <time>2017-10-18T07:34:46Z</time>
      </trkpt>
      <trkpt lat="45.81559" lon="2.62854">
        <ele>639</ele>
        <time>2017-10-18T07:36:46Z</time>
      </trkpt>
      <trkpt lat="45.81564" lon="2.62894">
        <ele>642</ele>
        <time>2017-10-18T07:38:46Z</time>
      </trkpt>
      <trkpt lat="45.81562" lon="2.62902">
        <ele>643</ele>
        <time>2017-10-18T07:40:46Z</time>
      </trkpt>
      <trkpt lat="45.81483" lon="2.62987">
        <ele>652</ele>
        <time>2017-10-18T07:42:46Z</time>
      </trkpt>
      <trkpt lat="45.81428" lon="2.63049">
        <ele>657</ele>
        <time>2017-10-18T07:44:46Z</time>
      </trkpt>
      <trkpt lat="45.81398" lon="2.63087">
        <ele>658</ele>
        <time>2017-10-18T07:46:46Z</time>
      </trkpt>
      <trkpt lat="45.8139" lon="2.63136">
        <ele>660</ele>
        <time>2017-10-18T07:48:46Z</time>
      </trkpt>
      <trkpt lat="45.81385" lon="2.63177">
        <ele>662</ele>
        <time>2017-10-18T07:50:46Z</time>
      </trkpt>
      <trkpt lat="45.81353" lon="2.63188">
        <ele>662</ele>
        <time>2017-10-18T07:52:46Z</time>
      </trkpt>
      <trkpt lat="45.8124" lon="2.63271">
        <ele>656</ele>
        <time>2017-10-18T07:54:46Z</time>
      </trkpt>
      <trkpt lat="45.81201" lon="2.63282">
        <ele>655</ele>
        <time>2017-10-18T07:56:46Z</time>
      </trkpt>
      <trkpt lat="45.81192" lon="2.63283">
        <ele>655</ele>
        <time>2017-10-18T07:58:46Z</time>
      </trkpt>
      <trkpt lat="45.81163" lon="2.633">
        <ele>655</ele>
        <time>2017-10-18T08:00:46Z</time>
      </trkpt>
      <trkpt lat="45.81066" lon="2.63294">
        <ele>647</ele>
        <time>2017-10-18T08:02:46Z</time>
      </trkpt>
      <trkpt lat="45.81005" lon="2.63325">
        <ele>645</ele>
        <time>2017-10-18T08:04:46Z</time>
      </trkpt>
      <trkpt lat="45.80975" lon="2.63325">
        <ele>645</ele>
        <time>2017-10-18T08:06:46Z</time>
      </trkpt>
      <trkpt lat="45.80938" lon="2.63336">
        <ele>647</ele>
        <time>2017-10-18T08:08:46Z</time>
      </trkpt>
      <trkpt lat="45.80925" lon="2.63373">
        <ele>649</ele>
        <time>2017-10-18T08:10:46Z</time>
      </trkpt>
      <trkpt lat="45.80916" lon="2.63418">
        <ele>651</ele>
        <time>2017-10-18T08:12:46Z</time>
      </trkpt>
      <trkpt lat="45.80826" lon="2.63424">
        <ele>650</ele>
        <time>2017-10-18T08:14:46Z</time>
      </trkpt>
      <trkpt lat="45.80774" lon="2.63491">
        <ele>651</ele>
        <time>2017-10-18T08:16:46Z</time>
      </trkpt>
      <trkpt lat="45.80725" lon="2.63611">
        <ele>652</ele>
        <time>2017-10-18T08:18:46Z</time>
      </trkpt>
      <trkpt lat="45.80721" lon="2.63649">
        <ele>652</ele>
        <time>2017-10-18T08:20:46Z</time>
      </trkpt>
      <trkpt lat="45.80621" lon="2.63709">
        <ele>650</ele>
        <time>2017-10-18T08:22:46Z</time>
      </trkpt>
      <trkpt lat="45.80582" lon="2.63753">
        <ele>651</ele>
        <time>2017-10-18T08:24:46Z</time>
      </trkpt>
      <trkpt lat="45.80532" lon="2.63729">
        <ele>653</ele>
        <time>2017-10-18T08:26:46Z</time>
      </trkpt>
      <trkpt lat="45.80485" lon="2.6373">
        <ele>655</ele>
        <time>2017-10-18T08:28:46Z</time>
      </trkpt>
      <trkpt lat="45.80383" lon="2.63805">
        <ele>657</ele>
        <time>2017-10-18T08:30:46Z</time>
      </trkpt>
      <trkpt lat="45.80317" lon="2.63844">
        <ele>657</ele>
        <time>2017-10-18T08:32:46Z</time>
      </trkpt>
      <trkpt lat="45.80261" lon="2.63847">
        <ele>659</ele>
        <time>2017-10-18T08:34:46Z</time>
      </trkpt>
      <trkpt lat="45.80217" lon="2.63809">
        <ele>661</ele>
        <time>2017-10-18T08:36:46Z</time>
      </trkpt>
      <trkpt lat="45.80199" lon="2.638">
        <ele>662</ele>
        <time>2017-10-18T08:38:46Z</time>
      </trkpt>
      <trkpt lat="45.80151" lon="2.63816">
        <ele>664</ele>
        <time>2017-10-18T08:40:46Z</time>
      </trkpt>
      <trkpt lat="45.80115" lon="2.63852">
        <ele>666</ele>
        <time>2017-10-18T08:42:46Z</time>
      </trkpt>
      <trkpt lat="45.80089" lon="2.63867">
        <ele>667</ele>
        <time>2017-10-18T08:44:46Z</time>
      </trkpt>
      <trkpt lat="45.80046" lon="2.63897">
        <ele>668</ele>
        <time>2017-10-18T08:46:46Z</time>
      </trkpt>
      <trkpt lat="45.80028" lon="2.63866">
        <ele>669</ele>
        <time>2017-10-18T08:48:46Z</time>
      </trkpt>
      <trkpt lat="45.79983" lon="2.63807">
        <ele>670</ele>
        <time>2017-10-18T08:50:46Z</time>
      </trkpt>
      <trkpt lat="45.79945" lon="2.63763">
        <ele>671</ele>
        <time>2017-10-18T08:52:46Z</time>
      </trkpt>
      <trkpt lat="45.79888" lon="2.63707">
        <ele>669</ele>
        <time>2017-10-18T08:54:46Z</time>
      </trkpt>
      <trkpt lat="45.79882" lon="2.63634">
        <ele>668</ele>
        <time>2017-10-18T08:56:46Z</time>
      </trkpt>
      <trkpt lat="45.79818" lon="2.63506">
        <ele>670</ele>
        <time>2017-10-18T08:58:46Z</time>
      </trkpt>
      <trkpt lat="45.79801" lon="2.63466">
        <ele>672</ele>
        <time>2017-10-18T09:00:46Z</time>
      </trkpt>
      <trkpt lat="45.79795" lon="2.63403">
        <ele>675</ele>
        <time>2017-10-18T09:02:46Z</time>
      </trkpt>
      <trkpt lat="45.79784" lon="2.63341">
        <ele>679</ele>
        <time>2017-10-18T09:04:46Z</time>
      </trkpt>
      <trkpt lat="45.79767" lon="2.63289">
        <ele>682</ele>
        <time>2017-10-18T09:06:46Z</time>
      </trkpt>
      <trkpt lat="45.79745" lon="2.63237">
        <ele>687</ele>
        <time>2017-10-18T09:08:46Z</time>
      </trkpt>
      <trkpt lat="45.79726" lon="2.63223">
        <ele>692</ele>
        <time>2017-10-18T09:10:46Z</time>
      </trkpt>
      <trkpt lat="45.79707" lon="2.63213">
        <ele>696</ele>
        <time>2017-10-18T09:12:46Z</time>
      </trkpt>
      <trkpt lat="45.79679" lon="2.63189">
        <ele>703</ele>
        <time>2017-10-18T09:14:46Z</time>
      </trkpt>
      <trkpt lat="45.79636" lon="2.63122">
        <ele>720</ele>
        <time>2017-10-18T09:16:46Z</time>
      </trkpt>
      <trkpt lat="45.79567" lon="2.63003">
        <ele>754</ele>
        <time>2017-10-18T09:18:46Z</time>
      </trkpt>
      <trkpt lat="45.79498" lon="2.63002">
        <ele>757</ele>
        <time>2017-10-18T09:20:46Z</time>
      </trkpt>
      <trkpt lat="45.79454" lon="2.62991">
        <ele>763</ele>
        <time>2017-10-18T09:22:46Z</time>
      </trkpt>
      <trkpt lat="45.79437" lon="2.6297">
        <ele>771</ele>
        <time>2017-10-18T09:24:46Z</time>
      </trkpt>
      <trkpt lat="45.79392" lon="2.62996">
        <ele>767</ele>
        <time>2017-10-18T09:26:46Z</time>
      </trkpt>
      <trkpt lat="45.79317" lon="2.62995">
        <ele>771</ele>
        <time>2017-10-18T09:28:46Z</time>
      </trkpt>
      <trkpt lat="45.79141" lon="2.62911">
        <ele>778</ele>
        <time>2017-10-18T09:30:46Z</time>
      </trkpt>
      <trkpt lat="45.79095" lon="2.6288">
        <ele>780</ele>
        <time>2017-10-18T09:32:46Z</time>
      </trkpt>
      <trkpt lat="45.79064" lon="2.62836">
        <ele>784</ele>
        <time>2017-10-18T09:34:46Z</time>
      </trkpt>
      <trkpt lat="45.79032" lon="2.62766">
        <ele>785</ele>
        <time>2017-10-18T09:36:46Z</time>
      </trkpt>
      <trkpt lat="45.79015" lon="2.62673">
        <ele>789</ele>
        <time>2017-10-18T09:38:46Z</time>
      </trkpt>
      <trkpt lat="45.79028" lon="2.62517">
        <ele>790</ele>
        <time>2017-10-18T09:40:46Z</time>
      </trkpt>
      <trkpt lat="45.79053" lon="2.62498">
        <ele>796</ele>
        <time>2017-10-18T09:42:46Z</time>
      </trkpt>
      <trkpt lat="45.79054" lon="2.62477">
        <ele>793</ele>
        <time>2017-10-18T09:44:46Z</time>
      </trkpt>
      <trkpt lat="45.79083" lon="2.62429">
        <ele>796</ele>
        <time>2017-10-18T09:46:46Z</time>
      </trkpt>
      <trkpt lat="45.79128" lon="2.62409">
        <ele>804</ele>
        <time>2017-10-18T09:48:46Z</time>
      </trkpt>
      <trkpt lat="45.79145" lon="2.62267">
        <ele>792</ele>
        <time>2017-10-18T09:50:46Z</time>
      </trkpt>
      <trkpt lat="45.79142" lon="2.62174">
        <ele>782</ele>
        <time>2017-10-18T09:52:46Z</time>
      </trkpt>
      <trkpt lat="45.79144" lon="2.62127">
        <ele>778</ele>
        <time>2017-10-18T09:54:46Z</time>
      </trkpt>
      <trkpt lat="45.79146" lon="2.62016">
        <ele>765</ele>
        <time>2017-10-18T09:56:46Z</time>
      </trkpt>
      <trkpt lat="45.79163" lon="2.61789">
        <ele>738</ele>
        <time>2017-10-18T09:58:46Z</time>
      </trkpt>
      <trkpt lat="45.79191" lon="2.61694">
        <ele>735</ele>
        <time>2017-10-18T10:00:46Z</time>
      </trkpt>
      <trkpt lat="45.79229" lon="2.6159">
        <ele>729</ele>
        <time>2017-10-18T10:02:46Z</time>
      </trkpt>
      <trkpt lat="45.7925" lon="2.61462">
        <ele>722</ele>
        <time>2017-10-18T10:04:46Z</time>
      </trkpt>
      <trkpt lat="45.79271" lon="2.61353">
        <ele>713</ele>
        <time>2017-10-18T10:06:46Z</time>
      </trkpt>
      <trkpt lat="45.79255" lon="2.61264">
        <ele>701</ele>
        <time>2017-10-18T10:08:46Z</time>
      </trkpt>
      <trkpt lat="45.79236" lon="2.61073">
        <ele>691</ele>
        <time>2017-10-18T10:10:46Z</time>
      </trkpt>
      <trkpt lat="45.79228" lon="2.61068">
        <ele>691</ele>
        <time>2017-10-18T10:12:46Z</time>
      </trkpt>
      <trkpt lat="45.79226" lon="2.61062">
        <ele>691</ele>
        <time>2017-10-18T10:14:46Z</time>
      </trkpt>
      <trkpt lat="45.79229" lon="2.60951">
        <ele>689</ele>
        <time>2017-10-18T10:16:46Z</time>
      </trkpt>
      <trkpt lat="45.7924" lon="2.6083">
        <ele>687</ele>
        <time>2017-10-18T10:18:46Z</time>
      </trkpt>
      <trkpt lat="45.7925" lon="2.60743">
        <ele>688</ele>
        <time>2017-10-18T10:20:46Z</time>
      </trkpt>
      <trkpt lat="45.79249" lon="2.60724">
        <ele>688</ele>
        <time>2017-10-18T10:22:46Z</time>
      </trkpt>
      <trkpt lat="45.79247" lon="2.60712">
        <ele>688</ele>
        <time>2017-10-18T10:24:46Z</time>
      </trkpt>
      <trkpt lat="45.79241" lon="2.60695">
        <ele>687</ele>
        <time>2017-10-18T10:26:46Z</time>
      </trkpt>
      <trkpt lat="45.79208" lon="2.60644">
        <ele>685</ele>
        <time>2017-10-18T10:28:46Z</time>
      </trkpt>
      <trkpt lat="45.79202" lon="2.60639">
        <ele>684</ele>
        <time>2017-10-18T10:30:46Z</time>
      </trkpt>
      <trkpt lat="45.79187" lon="2.60634">
        <ele>683</ele>
        <time>2017-10-18T10:32:46Z</time>
      </trkpt>
      <trkpt lat="45.79162" lon="2.60634">
        <ele>682</ele>
        <time>2017-10-18T10:34:46Z</time>
      </trkpt>
      <trkpt lat="45.79116" lon="2.60648">
        <ele>679</ele>
        <time>2017-10-18T10:36:46Z</time>
      </trkpt>
      <trkpt lat="45.79102" lon="2.60662">
        <ele>679</ele>
        <time>2017-10-18T10:38:46Z</time>
      </trkpt>
      <trkpt lat="45.79055" lon="2.60708">
        <ele>678</ele>
        <time>2017-10-18T10:40:46Z</time>
      </trkpt>
      <trkpt lat="45.7903" lon="2.60728">
        <ele>677</ele>
        <time>2017-10-18T10:42:46Z</time>
      </trkpt>
      <trkpt lat="45.79023" lon="2.60732">
        <ele>677</ele>
        <time>2017-10-18T10:44:46Z</time>
      </trkpt>
      <trkpt lat="45.7901" lon="2.60734">
        <ele>677</ele>
        <time>2017-10-18T10:46:46Z</time>
      </trkpt>
      <trkpt lat="45.78997" lon="2.60725">
        <ele>676</ele>
        <time>2017-10-18T10:48:46Z</time>
      </trkpt>
      <trkpt lat="45.78982" lon="2.60701">
        <ele>677</ele>
        <time>2017-10-18T10:50:46Z</time>
      </trkpt>
      <trkpt lat="45.78964" lon="2.60674">
        <ele>678</ele>
        <time>2017-10-18T10:52:46Z</time>
      </trkpt>
      <trkpt lat="45.78942" lon="2.60644">
        <ele>679</ele>
        <time>2017-10-18T10:54:46Z</time>
      </trkpt>
      <trkpt lat="45.78912" lon="2.60613">
        <ele>681</ele>
        <time>2017-10-18T10:56:46Z</time>
      </trkpt>
      <trkpt lat="45.78883" lon="2.60612">
        <ele>682</ele>
        <time>2017-10-18T10:58:46Z</time>
      </trkpt>
      <trkpt lat="45.78853" lon="2.60601">
        <ele>683</ele>
        <time>2017-10-18T11:00:46Z</time>
      </trkpt>
      <trkpt lat="45.78831" lon="2.60581">
        <ele>684</ele>
        <time>2017-10-18T11:02:46Z</time>
      </trkpt>
      <trkpt lat="45.78814" lon="2.60555">
        <ele>686</ele>
        <time>2017-10-18T11:04:46Z</time>
      </trkpt>
      <trkpt lat="45.78791" lon="2.6052">
        <ele>688</ele>
        <time>2017-10-18T11:06:46Z</time>
      </trkpt>
      <trkpt lat="45.78705" lon="2.60403">
        <ele>699</ele>
        <time>2017-10-18T11:08:46Z</time>
      </trkpt>
      <trkpt lat="45.78637" lon="2.60317">
        <ele>705</ele>
        <time>2017-10-18T11:10:46Z</time>
      </trkpt>
      <trkpt lat="45.78625" lon="2.60298">
        <ele>706</ele>
        <time>2017-10-18T11:12:46Z</time>
      </trkpt>
      <trkpt lat="45.78611" lon="2.60272">
        <ele>708</ele>
        <time>2017-10-18T11:14:46Z</time>
      </trkpt>
      <trkpt lat="45.78586" lon="2.60224">
        <ele>710</ele>
        <time>2017-10-18T11:16:46Z</time>
      </trkpt>
      <trkpt lat="45.78587" lon="2.6022">
        <ele>710</ele>
        <time>2017-10-18T11:18:46Z</time>
      </trkpt>
      <trkpt lat="45.78583" lon="2.60215">
        <ele>710</ele>
        <time>2017-10-18T11:20:46Z</time>
      </trkpt>
      <trkpt lat="45.78576" lon="2.60213">
        <ele>711</ele>
        <time>2017-10-18T11:22:46Z</time>
      </trkpt>
      <trkpt lat="45.78555" lon="2.60198">
        <ele>713</ele>
        <time>2017-10-18T11:24:46Z</time>
      </trkpt>
      <trkpt lat="45.78524" lon="2.6018">
        <ele>715</ele>
        <time>2017-10-18T11:26:46Z</time>
      </trkpt>
      <trkpt lat="45.785" lon="2.60147">
        <ele>718</ele>
        <time>2017-10-18T11:28:46Z</time>
      </trkpt>
      <trkpt lat="45.78465" lon="2.6009">
        <ele>721</ele>
        <time>2017-10-18T11:30:46Z</time>
      </trkpt>
      <trkpt lat="45.78448" lon="2.60048">
        <ele>721</ele>
        <time>2017-10-18T11:32:46Z</time>
      </trkpt>
      <trkpt lat="45.78428" lon="2.5999">
        <ele>719</ele>
        <time>2017-10-18T11:34:46Z</time>
      </trkpt>
      <trkpt lat="45.78415" lon="2.59965">
        <ele>717</ele>
        <time>2017-10-18T11:36:46Z</time>
      </trkpt>
      <trkpt lat="45.78406" lon="2.59944">
        <ele>715</ele>
        <time>2017-10-18T11:38:46Z</time>
      </trkpt>
      <trkpt lat="45.78387" lon="2.59913">
        <ele>712</ele>
        <time>2017-10-18T11:40:46Z</time>
      </trkpt>
      <trkpt lat="45.78352" lon="2.59851">
        <ele>708</ele>
        <time>2017-10-18T11:42:46Z</time>
      </trkpt>
      <trkpt lat="45.78327" lon="2.59819">
        <ele>705</ele>
        <time>2017-10-18T11:44:46Z</time>
      </trkpt>
      <trkpt lat="45.78319" lon="2.59805">
        <ele>704</ele>
        <time>2017-10-18T11:46:46Z</time>
      </trkpt>
      <trkpt lat="45.7831" lon="2.59787">
        <ele>703</ele>
        <time>2017-10-18T11:48:46Z</time>
      </trkpt>
      <trkpt lat="45.78279" lon="2.59706">
        <ele>700</ele>
        <time>2017-10-18T11:50:46Z</time>
      </trkpt>
      <trkpt lat="45.78256" lon="2.59615">
        <ele>696</ele>
        <time>2017-10-18T11:52:46Z</time>
      </trkpt>
      <trkpt lat="45.78251" lon="2.59586">
        <ele>694</ele>
        <time>2017-10-18T11:54:46Z</time>
      </trkpt>
      <trkpt lat="45.7821" lon="2.59489">
        <ele>691</ele>
        <time>2017-10-18T11:56:46Z</time>
      </trkpt>
      <trkpt lat="45.78103" lon="2.59278">
        <ele>667</ele>
        <time>2017-10-18T11:58:46Z</time>
      </trkpt>
      <trkpt lat="45.7806" lon="2.59135">
        <ele>665</ele>
        <time>2017-10-18T12:00:46Z</time>
      </trkpt>
      <trkpt lat="45.77984" lon="2.58968">
        <ele>680</ele>
        <time>2017-10-18T12:02:46Z</time>
      </trkpt>
      <trkpt lat="45.77898" lon="2.58928">
        <ele>687</ele>
        <time>2017-10-18T12:04:46Z</time>
      </trkpt>
      <trkpt lat="45.77746" lon="2.5879">
        <ele>706</ele>
        <time>2017-10-18T12:06:46Z</time>
      </trkpt>
      <trkpt lat="45.7771" lon="2.58758">
        <ele>705</ele>
        <time>2017-10-18T12:08:46Z</time>
      </trkpt>
      <trkpt lat="45.77635" lon="2.58705">
        <ele>709</ele>
        <time>2017-10-18T12:10:46Z</time>
      </trkpt>
      <trkpt lat="45.7752" lon="2.58605">
        <ele>719</ele>
        <time>2017-10-18T12:12:46Z</time>
      </trkpt>
      <trkpt lat="45.77425" lon="2.58554">
        <ele>728</ele>
        <time>2017-10-18T12:14:46Z</time>
      </trkpt>
      <trkpt lat="45.77348" lon="2.58465">
        <ele>732</ele>
        <time>2017-10-18T12:16:46Z</time>
      </trkpt>
      <trkpt lat="45.7712" lon="2.58266">
        <ele>735</ele>
        <time>2017-10-18T12:18:46Z</time>
      </trkpt>
      <trkpt lat="45.76964" lon="2.58098">
        <ele>736</ele>
        <time>2017-10-18T12:20:46Z</time>
      </trkpt>
      <trkpt lat="45.7688" lon="2.5805">
        <ele>738</ele>
        <time>2017-10-18T12:22:46Z</time>
      </trkpt>
      <trkpt lat="45.76911" lon="2.57955">
        <ele>741</ele>
        <time>2017-10-18T12:24:46Z</time>
      </trkpt>
      <trkpt lat="45.76955" lon="2.57913">
        <ele>741</ele>
        <time>2017-10-18T12:26:46Z</time>
      </trkpt>
      <trkpt lat="45.77163" lon="2.57982">
        <ele>744</ele>
        <time>2017-10-18T12:28:46Z</time>
      </trkpt>
      <trkpt lat="45.77214" lon="2.57655">
        <ele>754</ele>
        <time>2017-10-18T12:30:46Z</time>
      </trkpt>
      <trkpt lat="45.77176" lon="2.57523">
        <ele>760</ele>
        <time>2017-10-18T12:32:46Z</time>
      </trkpt>
      <trkpt lat="45.77235" lon="2.57502">
        <ele>759</ele>
        <time>2017-10-18T12:34:46Z</time>
      </trkpt>
      <trkpt lat="45.77242" lon="2.57448">
        <ele>764</ele>
        <time>2017-10-18T12:36:46Z</time>
      </trkpt>
      <trkpt lat="45.77268" lon="2.57406">
        <ele>769</ele>
        <time>2017-10-18T12:38:46Z</time>
      </trkpt>
      <trkpt lat="45.77377" lon="2.5745">
        <ele>770</ele>
        <time>2017-10-18T12:40:46Z</time>
      </trkpt>
      <trkpt lat="45.77505" lon="2.57467">
        <ele>771</ele>
        <time>2017-10-18T12:42:46Z</time>
      </trkpt>
      <trkpt lat="45.77564" lon="2.57269">
        <ele>765</ele>
        <time>2017-10-18T12:44:46Z</time>
      </trkpt>
      <trkpt lat="45.7759" lon="2.57285">
        <ele>764</ele>
        <time>2017-10-18T12:46:46Z</time>
      </trkpt>
      <trkpt lat="45.77721" lon="2.57341">
        <ele>758</ele>
        <time>2017-10-18T12:48:46Z</time>
      </trkpt>
      <trkpt lat="45.77829" lon="2.57457">
        <ele>758</ele>
        <time>2017-10-18T12:50:46Z</time>
      </trkpt>
      <trkpt lat="45.77879" lon="2.57509">
        <ele>759</ele>
        <time>2017-10-18T12:52:46Z</time>
      </trkpt>
      <trkpt lat="45.77915" lon="2.57504">
        <ele>761</ele>
        <time>2017-10-18T12:54:46Z</time>
      </trkpt>
      <trkpt lat="45.78044" lon="2.57498">
        <ele>753</ele>
        <time>2017-10-18T12:56:46Z</time>
      </trkpt>
      <trkpt lat="45.78175" lon="2.57526">
        <ele>741</ele>
        <time>2017-10-18T12:58:46Z</time>
      </trkpt>
      <trkpt lat="45.78221" lon="2.575">
        <ele>739</ele>
        <time>2017-10-18T13:00:46Z</time>
      </trkpt>
      <trkpt lat="45.78295" lon="2.57474">
        <ele>735</ele>
        <time>2017-10-18T13:02:46Z</time>
      </trkpt>
      <trkpt lat="45.78338" lon="2.57432">
        <ele>735</ele>
        <time>2017-10-18T13:04:46Z</time>
      </trkpt>
      <trkpt lat="45.78441" lon="2.57366">
        <ele>722</ele>
        <time>2017-10-18T13:06:46Z</time>
      </trkpt>
      <trkpt lat="45.7847" lon="2.57319">
        <ele>715</ele>
        <time>2017-10-18T13:08:46Z</time>
      </trkpt>
      <trkpt lat="45.78539" lon="2.57291">
        <ele>703</ele>
        <time>2017-10-18T13:10:46Z</time>
      </trkpt>
      <trkpt lat="45.7854" lon="2.5727">
        <ele>702</ele>
        <time>2017-10-18T13:12:46Z</time>
      </trkpt>
      <trkpt lat="45.78512" lon="2.57223">
        <ele>703</ele>
        <time>2017-10-18T13:14:46Z</time>
      </trkpt>
      <trkpt lat="45.78497" lon="2.57184">
        <ele>702</ele>
        <time>2017-10-18T13:16:46Z</time>
      </trkpt>
      <trkpt lat="45.78453" lon="2.57139">
        <ele>704</ele>
        <time>2017-10-18T13:18:46Z</time>
      </trkpt>
      <trkpt lat="45.78399" lon="2.5711">
        <ele>706</ele>
        <time>2017-10-18T13:20:46Z</time>
      </trkpt>
      <trkpt lat="45.7833" lon="2.5707">
        <ele>711</ele>
        <time>2017-10-18T13:22:46Z</time>
      </trkpt>
      <trkpt lat="45.78312" lon="2.57031">
        <ele>713</ele>
        <time>2017-10-18T13:24:46Z</time>
      </trkpt>
      <trkpt lat="45.78292" lon="2.56951">
        <ele>712</ele>
        <time>2017-10-18T13:26:46Z</time>
      </trkpt>
      <trkpt lat="45.78271" lon="2.56878">
        <ele>708</ele>
        <time>2017-10-18T13:28:46Z</time>
      </trkpt>
      <trkpt lat="45.7825" lon="2.56846">
        <ele>705</ele>
        <time>2017-10-18T13:30:46Z</time>
      </trkpt>
      <trkpt lat="45.78185" lon="2.56801">
        <ele>708</ele>
        <time>2017-10-18T13:32:46Z</time>
      </trkpt>
      <trkpt lat="45.78155" lon="2.56793">
        <ele>711</ele>
        <time>2017-10-18T13:34:46Z</time>
      </trkpt>
      <trkpt lat="45.78131" lon="2.56771">
        <ele>713</ele>
        <time>2017-10-18T13:36:46Z</time>
      </trkpt>
      <trkpt lat="45.78116" lon="2.56741">
        <ele>711</ele>
        <time>2017-10-18T13:38:46Z</time>
      </trkpt>
      <trkpt lat="45.78102" lon="2.56705">
        <ele>708</ele>
        <time>2017-10-18T13:40:46Z</time>
      </trkpt>
      <trkpt lat="45.78107" lon="2.56692">
        <ele>705</ele>
        <time>2017-10-18T13:42:46Z</time>
      </trkpt>
      <trkpt lat="45.7813" lon="2.56687">
        <ele>701</ele>
        <time>2017-10-18T13:44:46Z</time>
      </trkpt>
      <trkpt lat="45.78127" lon="2.56682">
        <ele>701</ele>
        <time>2017-10-18T13:46:46Z</time>
      </trkpt>
      <trkpt lat="45.78117" lon="2.56672">
        <ele>701</ele>
        <time>2017-10-18T13:48:46Z</time>
      </trkpt>
      <trkpt lat="45.78109" lon="2.56653">
        <ele>701</ele>
        <time>2017-10-18T13:50:46Z</time>
      </trkpt>
      <trkpt lat="45.78101" lon="2.5662">
        <ele>700</ele>
        <time>2017-10-18T13:52:46Z</time>
      </trkpt>
      <trkpt lat="45.78094" lon="2.5659">
        <ele>700</ele>
        <time>2017-10-18T13:54:46Z</time>
      </trkpt>
      <trkpt lat="45.7809" lon="2.56553">
        <ele>701</ele>
        <time>2017-10-18T13:56:46Z</time>
      </trkpt>
      <trkpt lat="45.78087" lon="2.56533">
        <ele>702</ele>
        <time>2017-10-18T13:58:46Z</time>
      </trkpt>
      <trkpt lat="45.78086" lon="2.56504">
        <ele>703</ele>
        <time>2017-10-18T14:00:46Z</time>
      </trkpt>
      <trkpt lat="45.78079" lon="2.56478">
        <ele>705</ele>
        <time>2017-10-18T14:02:46Z</time>
      </trkpt>
      <trkpt lat="45.78081" lon="2.5644">
        <ele>706</ele>
        <time>2017-10-18T14:04:46Z</time>
      </trkpt>
      <trkpt lat="45.78081" lon="2.56419">
        <ele>707</ele>
        <time>2017-10-18T14:06:46Z</time>
      </trkpt>
      <trkpt lat="45.78085" lon="2.56373">
        <ele>705</ele>
        <time>2017-10-18T14:08:46Z</time>
      </trkpt>
      <trkpt lat="45.7808" lon="2.56351">
        <ele>705</ele>
        <time>2017-10-18T14:10:46Z</time>
      </trkpt>
      <trkpt lat="45.78073" lon="2.56347">
        <ele>706</ele>
        <time>2017-10-18T14:12:46Z</time>
      </trkpt>
      <trkpt lat="45.78063" lon="2.56344">
        <ele>708</ele>
        <time>2017-10-18T14:14:46Z</time>
      </trkpt>
      <trkpt lat="45.78057" lon="2.56344">
        <ele>709</ele>
        <time>2017-10-18T14:16:46Z</time>
      </trkpt>
      <trkpt lat="45.78042" lon="2.56346">
        <ele>712</ele>
        <time>2017-10-18T14:18:46Z</time>
      </trkpt>
      <trkpt lat="45.78036" lon="2.56342">
        <ele>713</ele>
        <time>2017-10-18T14:20:46Z</time>
      </trkpt>
      <trkpt lat="45.78033" lon="2.56337">
        <ele>713</ele>
        <time>2017-10-18T14:22:46Z</time>
      </trkpt>
      <trkpt lat="45.78012" lon="2.56314">
        <ele>716</ele>
        <time>2017-10-18T14:24:46Z</time>
      </trkpt>
      <trkpt lat="45.77999" lon="2.56312">
        <ele>718</ele>
        <time>2017-10-18T14:26:46Z</time>
      </trkpt>
      <trkpt lat="45.7799" lon="2.56311">
        <ele>720</ele>
        <time>2017-10-18T14:28:46Z</time>
      </trkpt>
      <trkpt lat="45.77986" lon="2.5631">
        <ele>720</ele>
        <time>2017-10-18T14:30:46Z</time>
      </trkpt>
      <trkpt lat="45.77969" lon="2.56304">
        <ele>723</ele>
        <time>2017-10-18T14:32:46Z</time>
      </trkpt>
      <trkpt lat="45.77954" lon="2.563">
        <ele>725</ele>
        <time>2017-10-18T14:34:46Z</time>
      </trkpt>
      <trkpt lat="45.77946" lon="2.56299">
        <ele>727</ele>
        <time>2017-10-18T14:36:46Z</time>
      </trkpt>
      <trkpt lat="45.77939" lon="2.56297">
        <ele>728</ele>
        <time>2017-10-18T14:38:46Z</time>
      </trkpt>
      <trkpt lat="45.77926" lon="2.56293">
        <ele>729</ele>
        <time>2017-10-18T14:40:46Z</time>
      </trkpt>
      <trkpt lat="45.77905" lon="2.56284">
        <ele>731</ele>
        <time>2017-10-18T14:42:46Z</time>
      </trkpt>
      <trkpt lat="45.77897" lon="2.5628">
        <ele>731</ele>
        <time>2017-10-18T14:44:46Z</time>
      </trkpt>
      <trkpt lat="45.77889" lon="2.56275">
        <ele>732</ele>
        <time>2017-10-18T14:46:46Z</time>
      </trkpt>
      <trkpt lat="45.77873" lon="2.56268">
        <ele>733</ele>
        <time>2017-10-18T14:48:46Z</time>
      </trkpt>
      <trkpt lat="45.77856" lon="2.56262">
        <ele>735</ele>
        <time>2017-10-18T14:50:46Z</time>
      </trkpt>
      <trkpt lat="45.77811" lon="2.56243">
        <ele>737</ele>
        <time>2017-10-18T14:52:46Z</time>
      </trkpt>
      <trkpt lat="45.77786" lon="2.56231">
        <ele>737</ele>
        <time>2017-10-18T14:54:46Z</time>
      </trkpt>
      <trkpt lat="45.77756" lon="2.56223">
        <ele>738</ele>
        <time>2017-10-18T14:56:46Z</time>
      </trkpt>
      <trkpt lat="45.77728" lon="2.56219">
        <ele>739</ele>
        <time>2017-10-18T14:58:46Z</time>
      </trkpt>
      <trkpt lat="45.77694" lon="2.56222">
        <ele>741</ele>
        <time>2017-10-18T15:00:46Z</time>
      </trkpt>
      <trkpt lat="45.77685" lon="2.56221">
        <ele>741</ele>
        <time>2017-10-18T15:02:46Z</time>
      </trkpt>
      <trkpt lat="45.77677" lon="2.56223">
        <ele>741</ele>
        <time>2017-10-18T15:04:46Z</time>
      </trkpt>
      <trkpt lat="45.77672" lon="2.56219">
        <ele>741</ele>
        <time>2017-10-18T15:06:46Z</time>
      </trkpt>
      <trkpt lat="45.77668" lon="2.56211">
        <ele>741</ele>
        <time>2017-10-18T15:08:46Z</time>
      </trkpt>
      <trkpt lat="45.7768" lon="2.56197">
        <ele>741</ele>
        <time>2017-10-18T15:10:46Z</time>
      </trkpt>
      <trkpt lat="45.77683" lon="2.56196">
        <ele>740</ele>
        <time>2017-10-18T15:12:46Z</time>
      </trkpt>
      <trkpt lat="45.77684" lon="2.56194">
        <ele>740</ele>
        <time>2017-10-18T15:14:46Z</time>
      </trkpt>
      <trkpt lat="45.77688" lon="2.56186">
        <ele>740</ele>
        <time>2017-10-18T15:16:46Z</time>
      </trkpt>
      <trkpt lat="45.7769" lon="2.56183">
        <ele>740</ele>
        <time>2017-10-18T15:18:46Z</time>
      </trkpt>
      <trkpt lat="45.77702" lon="2.56167">
        <ele>738</ele>
        <time>2017-10-18T15:20:46Z</time>
      </trkpt>
      <trkpt lat="45.77708" lon="2.56158">
        <ele>737</ele>
        <time>2017-10-18T15:22:46Z</time>
      </trkpt>
      <trkpt lat="45.77713" lon="2.56154">
        <ele>737</ele>
        <time>2017-10-18T15:24:46Z</time>
      </trkpt>
      <trkpt lat="45.77717" lon="2.56148">
        <ele>736</ele>
        <time>2017-10-18T15:26:46Z</time>
      </trkpt>
      <trkpt lat="45.77746" lon="2.56114">
        <ele>733</ele>
        <time>2017-10-18T15:28:46Z</time>
      </trkpt>
      <trkpt lat="45.77787" lon="2.56073">
        <ele>723</ele>
        <time>2017-10-18T15:30:46Z</time>
      </trkpt>
      <trkpt lat="45.77823" lon="2.56005">
        <ele>718</ele>
        <time>2017-10-18T15:32:46Z</time>
      </trkpt>
      <trkpt lat="45.77829" lon="2.55996">
        <ele>717</ele>
        <time>2017-10-18T15:34:46Z</time>
      </trkpt>
      <trkpt lat="45.77922" lon="2.55895">
        <ele>705</ele>
        <time>2017-10-18T15:36:46Z</time>
      </trkpt>
      <trkpt lat="45.77938" lon="2.55876">
        <ele>704</ele>
        <time>2017-10-18T15:38:46Z</time>
      </trkpt>
      <trkpt lat="45.77949" lon="2.55848">
        <ele>703</ele>
        <time>2017-10-18T15:40:46Z</time>
      </trkpt>
      <trkpt lat="45.77951" lon="2.55829">
        <ele>703</ele>
        <time>2017-10-18T15:42:46Z</time>
      </trkpt>
      <trkpt lat="45.7795" lon="2.55752">
        <ele>699</ele>
        <time>2017-10-18T15:44:46Z</time>
      </trkpt>
      <trkpt lat="45.77965" lon="2.55701">
        <ele>695</ele>
        <time>2017-10-18T15:46:46Z</time>
      </trkpt>
      <trkpt lat="45.77965" lon="2.55693">
        <ele>694</ele>
        <time>2017-10-18T15:48:46Z</time>
      </trkpt>
      <trkpt lat="45.77938" lon="2.55657">
        <ele>694</ele>
        <time>2017-10-18T15:50:46Z</time>
      </trkpt>
      <trkpt lat="45.77895" lon="2.5562">
        <ele>696</ele>
        <time>2017-10-18T15:52:46Z</time>
      </trkpt>
      <trkpt lat="45.77846" lon="2.55574">
        <ele>699</ele>
        <time>2017-10-18T15:54:46Z</time>
      </trkpt>
      <trkpt lat="45.77806" lon="2.55531">
        <ele>700</ele>
        <time>2017-10-18T15:56:46Z</time>
      </trkpt>
      <trkpt lat="45.77789" lon="2.55493">
        <ele>699</ele>
        <time>2017-10-18T15:58:46Z</time>
      </trkpt>
      <trkpt lat="45.77782" lon="2.55473">
        <ele>698</ele>
        <time>2017-10-18T16:00:46Z</time>
      </trkpt>
      <trkpt lat="45.77779" lon="2.55468">
        <ele>698</ele>
        <time>2017-10-18T16:02:46Z</time>
      </trkpt>
      <trkpt lat="45.77782" lon="2.55435">
        <ele>699</ele>
        <time>2017-10-18T16:04:46Z</time>
      </trkpt>
      <trkpt lat="45.77787" lon="2.55397">
        <ele>701</ele>
        <time>2017-10-18T16:06:46Z</time>
      </trkpt>
      <trkpt lat="45.7779" lon="2.55358">
        <ele>703</ele>
        <time>2017-10-18T16:08:46Z</time>
      </trkpt>
      <trkpt lat="45.778" lon="2.55306">
        <ele>705</ele>
        <time>2017-10-18T16:10:46Z</time>
      </trkpt>
      <trkpt lat="45.77814" lon="2.55249">
        <ele>707</ele>
        <time>2017-10-18T16:12:46Z</time>
      </trkpt>
      <trkpt lat="45.77837" lon="2.55189">
        <ele>707</ele>
        <time>2017-10-18T16:14:46Z</time>
      </trkpt>
      <trkpt lat="45.77869" lon="2.55108">
        <ele>704</ele>
        <time>2017-10-18T16:16:46Z</time>
      </trkpt>
      <trkpt lat="45.77892" lon="2.55027">
        <ele>703</ele>
        <time>2017-10-18T16:18:46Z</time>
      </trkpt>
      <trkpt lat="45.77893" lon="2.54951">
        <ele>705</ele>
        <time>2017-10-18T16:20:46Z</time>
      </trkpt>
      <trkpt lat="45.77868" lon="2.54792">
        <ele>709</ele>
        <time>2017-10-18T16:22:46Z</time>
      </trkpt>
      <trkpt lat="45.77863" lon="2.54752">
        <ele>711</ele>
        <time>2017-10-18T16:24:46Z</time>
      </trkpt>
      <trkpt lat="45.77868" lon="2.54742">
        <ele>711</ele>
        <time>2017-10-18T16:26:46Z</time>
      </trkpt>
      <trkpt lat="45.77938" lon="2.54707">
        <ele>711</ele>
        <time>2017-10-18T16:28:46Z</time>
      </trkpt>
      <trkpt lat="45.77992" lon="2.54679">
        <ele>710</ele>
        <time>2017-10-18T16:30:46Z</time>
      </trkpt>
      <trkpt lat="45.78046" lon="2.54649">
        <ele>712</ele>
        <time>2017-10-18T16:32:46Z</time>
      </trkpt>
      <trkpt lat="45.78092" lon="2.54629">
        <ele>713</ele>
        <time>2017-10-18T16:34:46Z</time>
      </trkpt>
      <trkpt lat="45.78141" lon="2.54629">
        <ele>716</ele>
        <time>2017-10-18T16:36:46Z</time>
      </trkpt>
      <trkpt lat="45.78174" lon="2.54631">
        <ele>717</ele>
        <time>2017-10-18T16:38:46Z</time>
      </trkpt>
      <trkpt lat="45.78208" lon="2.54638">
        <ele>718</ele>
        <time>2017-10-18T16:40:46Z</time>
      </trkpt>
      <trkpt lat="45.78244" lon="2.54645">
        <ele>720</ele>
        <time>2017-10-18T16:42:46Z</time>
      </trkpt>
      <trkpt lat="45.78345" lon="2.54659">
        <ele>725</ele>
        <time>2017-10-18T16:44:46Z</time>
      </trkpt>
      <trkpt lat="45.78422" lon="2.5467">
        <ele>729</ele>
        <time>2017-10-18T16:46:46Z</time>
      </trkpt>
      <trkpt lat="45.78462" lon="2.54673">
        <ele>730</ele>
        <time>2017-10-18T16:48:46Z</time>
      </trkpt>
      <trkpt lat="45.78502" lon="2.54662">
        <ele>732</ele>
        <time>2017-10-18T16:50:46Z</time>
      </trkpt>
      <trkpt lat="45.78539" lon="2.54647">
        <ele>732</ele>
        <time>2017-10-18T16:52:46Z</time>
      </trkpt>
      <trkpt lat="45.78584" lon="2.54644">
        <ele>731</ele>
        <time>2017-10-18T16:54:46Z</time>
      </trkpt>
      <trkpt lat="45.78631" lon="2.5465">
        <ele>733</ele>
        <time>2017-10-18T16:56:46Z</time>
      </trkpt>
      <trkpt lat="45.78668" lon="2.54645">
        <ele>734</ele>
        <time>2017-10-18T16:58:46Z</time>
      </trkpt>
      <trkpt lat="45.78744" lon="2.54626">
        <ele>739</ele>
        <time>2017-10-18T17:00:46Z</time>
      </trkpt>
      <trkpt lat="45.7878" lon="2.54619">
        <ele>742</ele>
        <time>2017-10-18T17:02:46Z</time>
      </trkpt>
      <trkpt lat="45.78804" lon="2.54619">
        <ele>743</ele>
        <time>2017-10-18T17:04:46Z</time>
      </trkpt>
      <trkpt lat="45.7883" lon="2.54638">
        <ele>745</ele>
        <time>2017-10-18T17:06:46Z</time>
      </trkpt>
      <trkpt lat="45.78832" lon="2.5464">
        <ele>745</ele>
        <time>2017-10-18T17:08:46Z</time>
      </trkpt>
      <trkpt lat="45.78832" lon="2.54642">
        <ele>745</ele>
        <time>2017-10-18T17:10:46Z</time>
      </trkpt>
      <trkpt lat="45.78833" lon="2.54641">
        <ele>745</ele>
        <time>2017-10-18T17:12:46Z</time>
      </trkpt>
      <trkpt lat="45.78845" lon="2.54656">
        <ele>746</ele>
        <time>2017-10-18T17:14:46Z</time>
      </trkpt>
      <trkpt lat="45.78847" lon="2.54656">
        <ele>746</ele>
        <time>2017-10-18T17:16:46Z</time>
      </trkpt>
      <trkpt lat="45.78856" lon="2.5466">
        <ele>747</ele>
        <time>2017-10-18T17:18:46Z</time>
      </trkpt>
      <trkpt lat="45.78885" lon="2.54671">
        <ele>748</ele>
        <time>2017-10-18T17:20:46Z</time>
      </trkpt>
      <trkpt lat="45.78918" lon="2.54678">
        <ele>750</ele>
        <time>2017-10-18T17:22:46Z</time>
      </trkpt>
      <trkpt lat="45.78959" lon="2.54683">
        <ele>751</ele>
        <time>2017-10-18T17:24:46Z</time>
      </trkpt>
      <trkpt lat="45.78991" lon="2.54686">
        <ele>751</ele>
        <time>2017-10-18T17:26:46Z</time>
      </trkpt>
      <trkpt lat="45.79009" lon="2.54693">
        <ele>751</ele>
        <time>2017-10-18T17:28:46Z</time>
      </trkpt>
      <trkpt lat="45.79026" lon="2.54696">
        <ele>751</ele>
        <time>2017-10-18T17:30:46Z</time>
      </trkpt>
      <trkpt lat="45.7911" lon="2.54734">
        <ele>754</ele>
        <time>2017-10-18T17:32:46Z</time>
      </trkpt>
      <trkpt lat="45.79119" lon="2.54731">
        <ele>755</ele>
        <time>2017-10-18T17:34:46Z</time>
      </trkpt>
      <trkpt lat="45.79122" lon="2.54727">
        <ele>755</ele>
        <time>2017-10-18T17:36:46Z</time>
      </trkpt>
      <trkpt lat="45.79126" lon="2.5472">
        <ele>756</ele>
        <time>2017-10-18T17:38:46Z</time>
      </trkpt>
      <trkpt lat="45.79128" lon="2.54715">
        <ele>756</ele>
        <time>2017-10-18T17:40:46Z</time>
      </trkpt>
      <trkpt lat="45.79153" lon="2.54636">
        <ele>759</ele>
        <time>2017-10-18T17:42:46Z</time>
      </trkpt>
      <trkpt lat="45.79171" lon="2.54578">
        <ele>757</ele>
        <time>2017-10-18T17:44:46Z</time>
      </trkpt>
      <trkpt lat="45.79182" lon="2.54527">
        <ele>756</ele>
        <time>2017-10-18T17:46:46Z</time>
      </trkpt>
      <trkpt lat="45.79188" lon="2.54487">
        <ele>756</ele>
        <time>2017-10-18T17:48:46Z</time>
      </trkpt>
      <trkpt lat="45.79203" lon="2.54435">
        <ele>756</ele>
        <time>2017-10-18T17:50:46Z</time>
      </trkpt>
      <trkpt lat="45.79216" lon="2.5438">
        <ele>757</ele>
        <time>2017-10-18T17:52:46Z</time>
      </trkpt>
      <trkpt lat="45.79222" lon="2.54361">
        <ele>757</ele>
        <time>2017-10-18T17:54:46Z</time>
      </trkpt>
      <trkpt lat="45.79222" lon="2.54359">
        <ele>757</ele>
        <time>2017-10-18T17:56:46Z</time>
      </trkpt>
      <trkpt lat="45.79224" lon="2.54347">
        <ele>757</ele>
        <time>2017-10-18T17:58:46Z</time>
      </trkpt>
      <trkpt lat="45.79225" lon="2.54342">
        <ele>758</ele>
        <time>2017-10-18T18:00:46Z</time>
      </trkpt>
      <trkpt lat="45.79225" lon="2.54334">
        <ele>758</ele>
        <time>2017-10-18T18:02:46Z</time>
      </trkpt>
      <trkpt lat="45.79224" lon="2.54331">
        <ele>758</ele>
        <time>2017-10-18T18:04:46Z</time>
      </trkpt>
      <trkpt lat="45.79226" lon="2.54327">
        <ele>758</ele>
        <time>2017-10-18T18:06:46Z</time>
      </trkpt>
      <trkpt lat="45.79232" lon="2.54325">
        <ele>758</ele>
        <time>2017-10-18T18:08:46Z</time>
      </trkpt>
      <trkpt lat="45.79255" lon="2.54296">
        <ele>756</ele>
        <time>2017-10-18T18:10:46Z</time>
      </trkpt>
      <trkpt lat="45.79288" lon="2.54248">
        <ele>755</ele>
        <time>2017-10-18T18:12:46Z</time>
      </trkpt>
      <trkpt lat="45.79293" lon="2.54241">
        <ele>755</ele>
        <time>2017-10-18T18:14:46Z</time>
      </trkpt>
      <trkpt lat="45.793" lon="2.5423">
        <ele>755</ele>
        <time>2017-10-18T18:16:46Z</time>
      </trkpt>
      <trkpt lat="45.79322" lon="2.54202">
        <ele>755</ele>
        <time>2017-10-18T18:18:46Z</time>
      </trkpt>
      <trkpt lat="45.79359" lon="2.54141">
        <ele>757</ele>
        <time>2017-10-18T18:20:46Z</time>
      </trkpt>
      <trkpt lat="45.79388" lon="2.54088">
        <ele>760</ele>
        <time>2017-10-18T18:22:46Z</time>
      </trkpt>
      <trkpt lat="45.79409" lon="2.54047">
        <ele>763</ele>
        <time>2017-10-18T18:24:46Z</time>
      </trkpt>
      <trkpt lat="45.79422" lon="2.54014">
        <ele>764</ele>
        <time>2017-10-18T18:26:46Z</time>
      </trkpt>
      <trkpt lat="45.79438" lon="2.53981">
        <ele>766</ele>
        <time>2017-10-18T18:28:46Z</time>
      </trkpt>
      <trkpt lat="45.79457" lon="2.53952">
        <ele>768</ele>
        <time>2017-10-18T18:30:46Z</time>
      </trkpt>
      <trkpt lat="45.7947" lon="2.53938">
        <ele>769</ele>
        <time>2017-10-18T18:32:46Z</time>
      </trkpt>
      <trkpt lat="45.79476" lon="2.53938">
        <ele>769</ele>
        <time>2017-10-18T18:34:46Z</time>
      </trkpt>
      <trkpt lat="45.79479" lon="2.5394">
        <ele>770</ele>
        <time>2017-10-18T18:36:46Z</time>
      </trkpt>
      <trkpt lat="45.79486" lon="2.53936">
        <ele>770</ele>
        <time>2017-10-18T18:38:46Z</time>
      </trkpt>
      <trkpt lat="45.795" lon="2.53917">
        <ele>772</ele>
        <time>2017-10-18T18:40:46Z</time>
      </trkpt>
      <trkpt lat="45.79501" lon="2.53887">
        <ele>773</ele>
        <time>2017-10-18T18:42:46Z</time>
      </trkpt>
      <trkpt lat="45.79503" lon="2.53871">
        <ele>773</ele>
        <time>2017-10-18T18:44:46Z</time>
      </trkpt>
      <trkpt lat="45.79505" lon="2.53867">
        <ele>774</ele>
        <time>2017-10-18T18:46:46Z</time>
      </trkpt>
      <trkpt lat="45.79527" lon="2.5384">
        <ele>775</ele>
        <time>2017-10-18T18:48:46Z</time>
      </trkpt>
      <trkpt lat="45.79556" lon="2.53825">
        <ele>777</ele>
        <time>2017-10-18T18:50:46Z</time>
      </trkpt>
      <trkpt lat="45.79582" lon="2.538">
        <ele>779</ele>
        <time>2017-10-18T18:52:46Z</time>
      </trkpt>
      <trkpt lat="45.79604" lon="2.53767">
        <ele>781</ele>
        <time>2017-10-18T18:54:46Z</time>
      </trkpt>
      <trkpt lat="45.79606" lon="2.53761">
        <ele>781</ele>
        <time>2017-10-18T18:56:46Z</time>
      </trkpt>
      <trkpt lat="45.79618" lon="2.53877">
        <ele>781</ele>
        <time>2017-10-18T18:58:46Z</time>
      </trkpt>
      <trkpt lat="45.79634" lon="2.5392">
        <ele>781</ele>
        <time>2017-10-18T19:00:46Z</time>
      </trkpt>
      <trkpt lat="45.79702" lon="2.53979">
        <ele>779</ele>
        <time>2017-10-18T19:02:46Z</time>
      </trkpt>
      <trkpt lat="45.79765" lon="2.53987">
        <ele>779</ele>
        <time>2017-10-18T19:04:46Z</time>
      </trkpt>
      <trkpt lat="45.7983" lon="2.53975">
        <ele>781</ele>
        <time>2017-10-18T19:06:46Z</time>
      </trkpt>
      <trkpt lat="45.79957" lon="2.53928">
        <ele>778</ele>
        <time>2017-10-18T19:08:46Z</time>
      </trkpt>
      <trkpt lat="45.80021" lon="2.53873">
        <ele>777</ele>
        <time>2017-10-18T19:10:46Z</time>
      </trkpt>
      <trkpt lat="45.80074" lon="2.53852">
        <ele>776</ele>
        <time>2017-10-18T19:12:46Z</time>
      </trkpt>
      <trkpt lat="45.80135" lon="2.53781">
        <ele>772</ele>
        <time>2017-10-18T19:14:46Z</time>
      </trkpt>
      <trkpt lat="45.80203" lon="2.53766">
        <ele>765</ele>
        <time>2017-10-18T19:16:46Z</time>
      </trkpt>
      <trkpt lat="45.80246" lon="2.5373">
        <ele>762</ele>
        <time>2017-10-18T19:18:46Z</time>
      </trkpt>
      <trkpt lat="45.80302" lon="2.53623">
        <ele>758</ele>
        <time>2017-10-18T19:20:46Z</time>
      </trkpt>
      <trkpt lat="45.80397" lon="2.53552">
        <ele>752</ele>
        <time>2017-10-18T19:22:46Z</time>
      </trkpt>
      <trkpt lat="45.80427" lon="2.53549">
        <ele>750</ele>
        <time>2017-10-18T19:24:46Z</time>
      </trkpt>
      <trkpt lat="45.80422" lon="2.53513">
        <ele>753</ele>
        <time>2017-10-18T19:26:46Z</time>
      </trkpt>
      <trkpt lat="45.8039" lon="2.53503">
        <ele>757</ele>
        <time>2017-10-18T19:28:46Z</time>
      </trkpt>
      <trkpt lat="45.80362" lon="2.53484">
        <ele>762</ele>
        <time>2017-10-18T19:30:46Z</time>
      </trkpt>
      <trkpt lat="45.80296" lon="2.53493">
        <ele>766</ele>
        <time>2017-10-18T19:32:46Z</time>
      </trkpt>
      <trkpt lat="45.80277" lon="2.53486">
        <ele>768</ele>
        <time>2017-10-18T19:34:46Z</time>
      </trkpt>
      <trkpt lat="45.80255" lon="2.53469">
        <ele>770</ele>
        <time>2017-10-18T19:36:46Z</time>
      </trkpt>
      <trkpt lat="45.80258" lon="2.53441">
        <ele>770</ele>
        <time>2017-10-18T19:38:46Z</time>
      </trkpt>
      <trkpt lat="45.80258" lon="2.5344">
        <ele>770</ele>
        <time>2017-10-18T19:40:46Z</time>
      </trkpt>
      <trkpt lat="45.80257" lon="2.53433">
        <ele>771</ele>
        <time>2017-10-18T19:42:46Z</time>
      </trkpt>
      <trkpt lat="45.80255" lon="2.53431">
        <ele>771</ele>
        <time>2017-10-18T19:44:46Z</time>
      </trkpt>
      <trkpt lat="45.80241" lon="2.53408">
        <ele>772</ele>
        <time>2017-10-18T19:46:46Z</time>
      </trkpt>
      <trkpt lat="45.80227" lon="2.53383">
        <ele>774</ele>
        <time>2017-10-18T19:48:46Z</time>
      </trkpt>
      <trkpt lat="45.80218" lon="2.5335">
        <ele>776</ele>
        <time>2017-10-18T19:50:46Z</time>
      </trkpt>
      <trkpt lat="45.80218" lon="2.53341">
        <ele>776</ele>
        <time>2017-10-18T19:52:46Z</time>
      </trkpt>
      <trkpt lat="45.80219" lon="2.53333">
        <ele>777</ele>
        <time>2017-10-18T19:54:46Z</time>
      </trkpt>
      <trkpt lat="45.8022" lon="2.53325">
        <ele>777</ele>
        <time>2017-10-18T19:56:46Z</time>
      </trkpt>
      <trkpt lat="45.8022" lon="2.5332">
        <ele>777</ele>
        <time>2017-10-18T19:58:46Z</time>
      </trkpt>
      <trkpt lat="45.80238" lon="2.53235">
        <ele>780</ele>
        <time>2017-10-18T20:00:46Z</time>
      </trkpt>
      <trkpt lat="45.80249" lon="2.5321">
        <ele>780</ele>
        <time>2017-10-18T20:02:46Z</time>
      </trkpt>
      <trkpt lat="45.80279" lon="2.53192">
        <ele>782</ele>
        <time>2017-10-18T20:04:46Z</time>
      </trkpt>
      <trkpt lat="45.80302" lon="2.53158">
        <ele>784</ele>
        <time>2017-10-18T20:06:46Z</time>
      </trkpt>
      <trkpt lat="45.80316" lon="2.53108">
        <ele>787</ele>
        <time>2017-10-18T20:08:46Z</time>
      </trkpt>
      <trkpt lat="45.80323" lon="2.53064">
        <ele>790</ele>
        <time>2017-10-18T20:10:46Z</time>
      </trkpt>
      <trkpt lat="45.80316" lon="2.5302">
        <ele>792</ele>
        <time>2017-10-18T20:12:46Z</time>
      </trkpt>
      <trkpt lat="45.8031" lon="2.5296">
        <ele>794</ele>
        <time>2017-10-18T20:14:46Z</time>
      </trkpt>
      <trkpt lat="45.80314" lon="2.52916">
        <ele>797</ele>
        <time>2017-10-18T20:16:46Z</time>
      </trkpt>
      <trkpt lat="45.80333" lon="2.52886">
        <ele>799</ele>
        <time>2017-10-18T20:18:46Z</time>
      </trkpt>
      <trkpt lat="45.80379" lon="2.52837">
        <ele>803</ele>
        <time>2017-10-18T20:20:46Z</time>
      </trkpt>
      <trkpt lat="45.80399" lon="2.52817">
        <ele>805</ele>
        <time>2017-10-18T20:22:46Z</time>
      </trkpt>
      <trkpt lat="45.80421" lon="2.52795">
        <ele>808</ele>
        <time>2017-10-18T20:24:46Z</time>
      </trkpt>
      <trkpt lat="45.80439" lon="2.52775">
        <ele>809</ele>
        <time>2017-10-18T20:26:46Z</time>
      </trkpt>
      <trkpt lat="45.80442" lon="2.52771">
        <ele>809</ele>
        <time>2017-10-18T20:28:46Z</time>
      </trkpt>
      <trkpt lat="45.8048" lon="2.5275">
        <ele>812</ele>
        <time>2017-10-18T20:30:46Z</time>
      </trkpt>
      <trkpt lat="45.80549" lon="2.52701">
        <ele>812</ele>
        <time>2017-10-18T20:32:46Z</time>
      </trkpt>
      <trkpt lat="45.80585" lon="2.52689">
        <ele>812</ele>
        <time>2017-10-18T20:34:46Z</time>
      </trkpt>
      <trkpt lat="45.80589" lon="2.52687">
        <ele>812</ele>
        <time>2017-10-18T20:36:46Z</time>
      </trkpt>
      <trkpt lat="45.80589" lon="2.52685">
        <ele>812</ele>
        <time>2017-10-18T20:38:46Z</time>
      </trkpt>
      <trkpt lat="45.80595" lon="2.52679">
        <ele>812</ele>
        <time>2017-10-18T20:40:46Z</time>
      </trkpt>
      <trkpt lat="45.80627" lon="2.52656">
        <ele>811</ele>
        <time>2017-10-18T20:42:46Z</time>
      </trkpt>
      <trkpt lat="45.80698" lon="2.5263">
        <ele>809</ele>
        <time>2017-10-18T20:44:46Z</time>
      </trkpt>
      <trkpt lat="45.80711" lon="2.52624">
        <ele>809</ele>
        <time>2017-10-18T20:46:46Z</time>
      </trkpt>
      <trkpt lat="45.80708" lon="2.52616">
        <ele>809</ele>
        <time>2017-10-18T20:48:46Z</time>
      </trkpt>
      <trkpt lat="45.80706" lon="2.52603">
        <ele>808</ele>
        <time>2017-10-18T20:50:46Z</time>
      </trkpt>
      <trkpt lat="45.80697" lon="2.5254">
        <ele>808</ele>
        <time>2017-10-18T20:52:46Z</time>
      </trkpt>
      <trkpt lat="45.80691" lon="2.52495">
        <ele>808</ele>
        <time>2017-10-18T20:54:46Z</time>
      </trkpt>
      <trkpt lat="45.80687" lon="2.52471">
        <ele>808</ele>
        <time>2017-10-18T20:56:46Z</time>
      </trkpt>
      <trkpt lat="45.80666" lon="2.52392">
        <ele>807</ele>
        <time>2017-10-18T20:58:46Z</time>
      </trkpt>
      <trkpt lat="45.80627" lon="2.52291">
        <ele>802</ele>
        <time>2017-10-18T21:00:46Z</time>
      </trkpt>
      <trkpt lat="45.80622" lon="2.52276">
        <ele>801</ele>
        <time>2017-10-18T21:02:46Z</time>
      </trkpt>
      <trkpt lat="45.80619" lon="2.52244">
        <ele>800</ele>
        <time>2017-10-18T21:04:46Z</time>
      </trkpt>
      <trkpt lat="45.80618" lon="2.52168">
        <ele>797</ele>
        <time>2017-10-18T21:06:46Z</time>
      </trkpt>
      <trkpt lat="45.80605" lon="2.52128">
        <ele>796</ele>
        <time>2017-10-18T21:08:46Z</time>
      </trkpt>
      <trkpt lat="45.80555" lon="2.51986">
        <ele>791</ele>
        <time>2017-10-18T21:10:46Z</time>
      </trkpt>
      <trkpt lat="45.80537" lon="2.51914">
        <ele>787</ele>
        <time>2017-10-18T21:12:46Z</time>
      </trkpt>
      <trkpt lat="45.80526" lon="2.51819">
        <ele>783</ele>
        <time>2017-10-18T21:14:46Z</time>
      </trkpt>
      <trkpt lat="45.80516" lon="2.51763">
        <ele>777</ele>
        <time>2017-10-18T21:16:46Z</time>
      </trkpt>
      <trkpt lat="45.80516" lon="2.51749">
        <ele>776</ele>
        <time>2017-10-18T21:18:46Z</time>
      </trkpt>
      <trkpt lat="45.80518" lon="2.51745">
        <ele>776</ele>
        <time>2017-10-18T21:20:46Z</time>
      </trkpt>
      <trkpt lat="45.80522" lon="2.51743">
        <ele>776</ele>
        <time>2017-10-18T21:22:46Z</time>
      </trkpt>
      <trkpt lat="45.80526" lon="2.51743">
        <ele>776</ele>
        <time>2017-10-18T21:24:46Z</time>
      </trkpt>
      <trkpt lat="45.8056" lon="2.51736">
        <ele>776</ele>
        <time>2017-10-18T21:26:46Z</time>
      </trkpt>
      <trkpt lat="45.80564" lon="2.51732">
        <ele>776</ele>
        <time>2017-10-18T21:28:46Z</time>
      </trkpt>
      <trkpt lat="45.80567" lon="2.51726">
        <ele>775</ele>
        <time>2017-10-18T21:30:46Z</time>
      </trkpt>
      <trkpt lat="45.80568" lon="2.51719">
        <ele>775</ele>
        <time>2017-10-18T21:32:46Z</time>
      </trkpt>
      <trkpt lat="45.80567" lon="2.51711">
        <ele>774</ele>
        <time>2017-10-18T21:34:46Z</time>
      </trkpt>
      <trkpt lat="45.80565" lon="2.51694">
        <ele>773</ele>
        <time>2017-10-18T21:36:46Z</time>
      </trkpt>
      <trkpt lat="45.80562" lon="2.51685">
        <ele>772</ele>
        <time>2017-10-18T21:38:46Z</time>
      </trkpt>
      <trkpt lat="45.80546" lon="2.5155">
        <ele>765</ele>
        <time>2017-10-18T21:40:46Z</time>
      </trkpt>
      <trkpt lat="45.80552" lon="2.51491">
        <ele>761</ele>
        <time>2017-10-18T21:42:46Z</time>
      </trkpt>
      <trkpt lat="45.80551" lon="2.5148">
        <ele>761</ele>
        <time>2017-10-18T21:44:46Z</time>
      </trkpt>
      <trkpt lat="45.80549" lon="2.51469">
        <ele>760</ele>
        <time>2017-10-18T21:46:46Z</time>
      </trkpt>
      <trkpt lat="45.80546" lon="2.51457">
        <ele>759</ele>
        <time>2017-10-18T21:48:46Z</time>
      </trkpt>
      <trkpt lat="45.80526" lon="2.51398">
        <ele>755</ele>
        <time>2017-10-18T21:50:46Z</time>
      </trkpt>
      <trkpt lat="45.80504" lon="2.51325">
        <ele>750</ele>
        <time>2017-10-18T21:52:46Z</time>
      </trkpt>
      <trkpt lat="45.80451" lon="2.51226">
        <ele>747</ele>
        <time>2017-10-18T21:54:46Z</time>
      </trkpt>
      <trkpt lat="45.80448" lon="2.51216">
        <ele>746</ele>
        <time>2017-10-18T21:56:46Z</time>
      </trkpt>
      <trkpt lat="45.80442" lon="2.51194">
        <ele>745</ele>
        <time>2017-10-18T21:58:46Z</time>
      </trkpt>
      <trkpt lat="45.80438" lon="2.51184">
        <ele>745</ele>
        <time>2017-10-18T22:00:46Z</time>
      </trkpt>
      <trkpt lat="45.80432" lon="2.51176">
        <ele>745</ele>
        <time>2017-10-18T22:02:46Z</time>
      </trkpt>
      <trkpt lat="45.80425" lon="2.51168">
        <ele>744</ele>
        <time>2017-10-18T22:04:46Z</time>
      </trkpt>
      <trkpt lat="45.80388" lon="2.51135">
        <ele>744</ele>
        <time>2017-10-18T22:06:46Z</time>
      </trkpt>
      <trkpt lat="45.80384" lon="2.51127">
        <ele>744</ele>
        <time>2017-10-18T22:08:46Z</time>
      </trkpt>
      <trkpt lat="45.80383" lon="2.51122">
        <ele>744</ele>
        <time>2017-10-18T22:10:46Z</time>
      </trkpt>
      <trkpt lat="45.80382" lon="2.51092">
        <ele>743</ele>
        <time>2017-10-18T22:12:46Z</time>
      </trkpt>
      <trkpt lat="45.80389" lon="2.51027">
        <ele>744</ele>
        <time>2017-10-18T22:14:46Z</time>
      </trkpt>
      <trkpt lat="45.80382" lon="2.5097">
        <ele>745</ele>
        <time>2017-10-18T22:16:46Z</time>
      </trkpt>
      <trkpt lat="45.80368" lon="2.50913">
        <ele>747</ele>
        <time>2017-10-18T22:18:46Z</time>
      </trkpt>
      <trkpt lat="45.80349" lon="2.50864">
        <ele>746</ele>
        <time>2017-10-18T22:20:46Z</time>
      </trkpt>
      <trkpt lat="45.80333" lon="2.50785">
        <ele>744</ele>
        <time>2017-10-18T22:22:46Z</time>
      </trkpt>
      <trkpt lat="45.80319" lon="2.50702">
        <ele>740</ele>
        <time>2017-10-18T22:24:46Z</time>
      </trkpt>
      <trkpt lat="45.80301" lon="2.5067">
        <ele>740</ele>
        <time>2017-10-18T22:26:46Z</time>
      </trkpt>
      <trkpt lat="45.80275" lon="2.50644">
        <ele>741</ele>
        <time>2017-10-18T22:28:46Z</time>
      </trkpt>
      <trkpt lat="45.80261" lon="2.50631">
        <ele>742</ele>
        <time>2017-10-18T22:30:46Z</time>
      </trkpt>
      <trkpt lat="45.80258" lon="2.50582">
        <ele>742</ele>
        <time>2017-10-18T22:32:46Z</time>
      </trkpt>
      <trkpt lat="45.80282" lon="2.50525">
        <ele>746</ele>
        <time>2017-10-18T22:34:46Z</time>
      </trkpt>
      <trkpt lat="45.80306" lon="2.50485">
        <ele>746</ele>
        <time>2017-10-18T22:36:46Z</time>
      </trkpt>
      <trkpt lat="45.80332" lon="2.50465">
        <ele>744</ele>
        <time>2017-10-18T22:38:46Z</time>
      </trkpt>
      <trkpt lat="45.8037" lon="2.50444">
        <ele>743</ele>
        <time>2017-10-18T22:40:46Z</time>
      </trkpt>
      <trkpt lat="45.80377" lon="2.50431">
        <ele>743</ele>
        <time>2017-10-18T22:42:46Z</time>
      </trkpt>
      <trkpt lat="45.80388" lon="2.50401">
        <ele>742</ele>
        <time>2017-10-18T22:44:46Z</time>
      </trkpt>
      <trkpt lat="45.80391" lon="2.50346">
        <ele>740</ele>
        <time>2017-10-18T22:46:46Z</time>
      </trkpt>
      <trkpt lat="45.80403" lon="2.50274">
        <ele>736</ele>
        <time>2017-10-18T22:48:46Z</time>
      </trkpt>
      <trkpt lat="45.80405" lon="2.50235">
        <ele>734</ele>
        <time>2017-10-18T22:50:46Z</time>
      </trkpt>
      <trkpt lat="45.80399" lon="2.50199">
        <ele>735</ele>
        <time>2017-10-18T22:52:46Z</time>
      </trkpt>
      <trkpt lat="45.80401" lon="2.50166">
        <ele>735</ele>
        <time>2017-10-18T22:54:46Z</time>
      </trkpt>
      <trkpt lat="45.80409" lon="2.50141">
        <ele>735</ele>
        <time>2017-10-18T22:56:46Z</time>
      </trkpt>
      <trkpt lat="45.80413" lon="2.50093">
        <ele>735</ele>
        <time>2017-10-18T22:58:46Z</time>
      </trkpt>
      <trkpt lat="45.80418" lon="2.50084">
        <ele>735</ele>
        <time>2017-10-18T23:00:46Z</time>
      </trkpt>
      <trkpt lat="45.80422" lon="2.5008">
        <ele>735</ele>
        <time>2017-10-18T23:02:46Z</time>
      </trkpt>
      <trkpt lat="45.80423" lon="2.50073">
        <ele>735</ele>
        <time>2017-10-18T23:04:46Z</time>
      </trkpt>
      <trkpt lat="45.80408" lon="2.50027">
        <ele>736</ele>
        <time>2017-10-18T23:06:46Z</time>
      </trkpt>
      <trkpt lat="45.80368" lon="2.49868">
        <ele>740</ele>
        <time>2017-10-18T23:08:46Z</time>
      </trkpt>
      <trkpt lat="45.80368" lon="2.49798">
        <ele>743</ele>
        <time>2017-10-18T23:10:46Z</time>
      </trkpt>
      <trkpt lat="45.80386" lon="2.49759">
        <ele>743</ele>
        <time>2017-10-18T23:12:46Z</time>
      </trkpt>
      <trkpt lat="45.80387" lon="2.49745">
        <ele>744</ele>
        <time>2017-10-18T23:14:46Z</time>
      </trkpt>
      <trkpt lat="45.80387" lon="2.49727">
        <ele>743</ele>
        <time>2017-10-18T23:16:46Z</time>
      </trkpt>
      <trkpt lat="45.8039" lon="2.49641">
        <ele>739</ele>
        <time>2017-10-18T23:18:46Z</time>
      </trkpt>
      <trkpt lat="45.80391" lon="2.49568">
        <ele>735</ele>
        <time>2017-10-18T23:20:46Z</time>
      </trkpt>
      <trkpt lat="45.8039" lon="2.49556">
        <ele>735</ele>
        <time>2017-10-18T23:22:46Z</time>
      </trkpt>
      <trkpt lat="45.80388" lon="2.49545">
        <ele>734</ele>
        <time>2017-10-18T23:24:46Z</time>
      </trkpt>
      <trkpt lat="45.80384" lon="2.49535">
        <ele>734</ele>
        <time>2017-10-18T23:26:46Z</time>
      </trkpt>
      <trkpt lat="45.80379" lon="2.49526">
        <ele>734</ele>
        <time>2017-10-18T23:28:46Z</time>
      </trkpt>
      <trkpt lat="45.80372" lon="2.49518">
        <ele>735</ele>
        <time>2017-10-18T23:30:46Z</time>
      </trkpt>
      <trkpt lat="45.80365" lon="2.49512">
        <ele>735</ele>
        <time>2017-10-18T23:32:46Z</time>
      </trkpt>
      <trkpt lat="45.80351" lon="2.49498">
        <ele>736</ele>
        <time>2017-10-18T23:34:46Z</time>
      </trkpt>
      <trkpt lat="45.80346" lon="2.49489">
        <ele>737</ele>
        <time>2017-10-18T23:36:46Z</time>
      </trkpt>
      <trkpt lat="45.80343" lon="2.49479">
        <ele>738</ele>
        <time>2017-10-18T23:38:46Z</time>
      </trkpt>
      <trkpt lat="45.80343" lon="2.49469">
        <ele>738</ele>
        <time>2017-10-18T23:40:46Z</time>
      </trkpt>
      <trkpt lat="45.80344" lon="2.4946">
        <ele>739</ele>
        <time>2017-10-18T23:42:46Z</time>
      </trkpt>
      <trkpt lat="45.80349" lon="2.49444">
        <ele>739</ele>
        <time>2017-10-18T23:44:46Z</time>
      </trkpt>
      <trkpt lat="45.80356" lon="2.49431">
        <ele>739</ele>
        <time>2017-10-18T23:46:46Z</time>
      </trkpt>
      <trkpt lat="45.804" lon="2.49373">
        <ele>741</ele>
        <time>2017-10-18T23:48:46Z</time>
      </trkpt>
      <trkpt lat="45.80452" lon="2.49342">
        <ele>740</ele>
        <time>2017-10-18T23:50:46Z</time>
      </trkpt>
      <trkpt lat="45.8048" lon="2.49297">
        <ele>740</ele>
        <time>2017-10-18T23:52:46Z</time>
      </trkpt>
      <trkpt lat="45.80532" lon="2.49206">
        <ele>736</ele>
        <time>2017-10-18T23:54:46Z</time>
      </trkpt>
      <trkpt lat="45.80543" lon="2.4918">
        <ele>734</ele>
        <time>2017-10-18T23:56:46Z</time>
      </trkpt>
      <trkpt lat="45.80552" lon="2.49105">
        <ele>734</ele>
        <time>2017-10-18T23:58:46Z</time>
      </trkpt>
      <trkpt lat="45.80549" lon="2.49088">
        <ele>734</ele>
        <time>2017-10-19T00:00:46Z</time>
      </trkpt>
      <trkpt lat="45.80543" lon="2.49071">
        <ele>735</ele>
        <time>2017-10-19T00:02:46Z</time>
      </trkpt>
      <trkpt lat="45.80478" lon="2.48953">
        <ele>733</ele>
        <time>2017-10-19T00:04:46Z</time>
      </trkpt>
      <trkpt lat="45.8046" lon="2.48931">
        <ele>733</ele>
        <time>2017-10-19T00:06:46Z</time>
      </trkpt>
      <trkpt lat="45.80455" lon="2.48922">
        <ele>733</ele>
        <time>2017-10-19T00:08:46Z</time>
      </trkpt>
      <trkpt lat="45.80452" lon="2.48913">
        <ele>734</ele>
        <time>2017-10-19T00:10:46Z</time>
      </trkpt>
      <trkpt lat="45.80449" lon="2.48892">
        <ele>734</ele>
        <time>2017-10-19T00:12:46Z</time>
      </trkpt>
      <trkpt lat="45.80446" lon="2.48753">
        <ele>736</ele>
        <time>2017-10-19T00:14:46Z</time>
      </trkpt>
      <trkpt lat="45.80437" lon="2.4868">
        <ele>735</ele>
        <time>2017-10-19T00:16:46Z</time>
      </trkpt>
      <trkpt lat="45.80435" lon="2.48674">
        <ele>735</ele>
        <time>2017-10-19T00:18:46Z</time>
      </trkpt>
      <trkpt lat="45.80429" lon="2.48665">
        <ele>735</ele>
        <time>2017-10-19T00:20:46Z</time>
      </trkpt>
      <trkpt lat="45.80396" lon="2.48625">
        <ele>737</ele>
        <time>2017-10-19T00:22:46Z</time>
      </trkpt>
      <trkpt lat="45.80393" lon="2.48614">
        <ele>737</ele>
        <time>2017-10-19T00:24:46Z</time>
      </trkpt>
      <trkpt lat="45.80392" lon="2.48602">
        <ele>737</ele>
        <time>2017-10-19T00:26:46Z</time>
      </trkpt>
      <trkpt lat="45.80394" lon="2.48508">
        <ele>740</ele>
        <time>2017-10-19T00:28:46Z</time>
      </trkpt>
      <trkpt lat="45.80392" lon="2.48435">
        <ele>743</ele>
        <time>2017-10-19T00:30:46Z</time>
      </trkpt>
      <trkpt lat="45.80381" lon="2.48282">
        <ele>747</ele>
        <time>2017-10-19T00:32:46Z</time>
      </trkpt>
      <trkpt lat="45.80384" lon="2.48212">
        <ele>750</ele>
        <time>2017-10-19T00:34:46Z</time>
      </trkpt>
      <trkpt lat="45.80398" lon="2.48163">
        <ele>751</ele>
        <time>2017-10-19T00:36:46Z</time>
      </trkpt>
      <trkpt lat="45.80397" lon="2.48101">
        <ele>758</ele>
        <time>2017-10-19T00:38:46Z</time>
      </trkpt>
      <trkpt lat="45.80402" lon="2.48059">
        <ele>759</ele>
        <time>2017-10-19T00:40:46Z</time>
      </trkpt>
      <trkpt lat="45.80418" lon="2.48016">
        <ele>758</ele>
        <time>2017-10-19T00:42:46Z</time>
      </trkpt>
      <trkpt lat="45.80462" lon="2.47982">
        <ele>753</ele>
        <time>2017-10-19T00:44:46Z</time>
      </trkpt>
      <trkpt lat="45.80467" lon="2.47977">
        <ele>752</ele>
        <time>2017-10-19T00:46:46Z</time>
      </trkpt>
      <trkpt lat="45.80471" lon="2.47971">
        <ele>752</ele>
        <time>2017-10-19T00:48:46Z</time>
      </trkpt>
      <trkpt lat="45.8048" lon="2.47956">
        <ele>750</ele>
        <time>2017-10-19T00:50:46Z</time>
      </trkpt>
      <trkpt lat="45.80521" lon="2.47863">
        <ele>746</ele>
        <time>2017-10-19T00:52:46Z</time>
      </trkpt>
      <trkpt lat="45.80524" lon="2.47853">
        <ele>746</ele>
        <time>2017-10-19T00:54:46Z</time>
      </trkpt>
      <trkpt lat="45.80524" lon="2.47844">
        <ele>746</ele>
        <time>2017-10-19T00:56:46Z</time>
      </trkpt>
      <trkpt lat="45.80524" lon="2.47834">
        <ele>746</ele>
        <time>2017-10-19T00:58:46Z</time>
      </trkpt>
      <trkpt lat="45.80523" lon="2.47825">
        <ele>746</ele>
        <time>2017-10-19T01:00:46Z</time>
      </trkpt>
      <trkpt lat="45.8052" lon="2.47816">
        <ele>746</ele>
        <time>2017-10-19T01:02:46Z</time>
      </trkpt>
      <trkpt lat="45.80495" lon="2.47741">
        <ele>743</ele>
        <time>2017-10-19T01:04:46Z</time>
      </trkpt>
      <trkpt lat="45.80493" lon="2.47728">
        <ele>742</ele>
        <time>2017-10-19T01:06:46Z</time>
      </trkpt>
      <trkpt lat="45.80492" lon="2.47715">
        <ele>742</ele>
        <time>2017-10-19T01:08:46Z</time>
      </trkpt>
      <trkpt lat="45.80494" lon="2.47702">
        <ele>741</ele>
        <time>2017-10-19T01:10:46Z</time>
      </trkpt>
      <trkpt lat="45.80497" lon="2.4769">
        <ele>740</ele>
        <time>2017-10-19T01:12:46Z</time>
      </trkpt>
      <trkpt lat="45.80501" lon="2.47679">
        <ele>739</ele>
        <time>2017-10-19T01:14:46Z</time>
      </trkpt>
      <trkpt lat="45.80507" lon="2.47668">
        <ele>738</ele>
        <time>2017-10-19T01:16:46Z</time>
      </trkpt>
      <trkpt lat="45.80513" lon="2.4766">
        <ele>738</ele>
        <time>2017-10-19T01:18:46Z</time>
      </trkpt>
      <trkpt lat="45.8052" lon="2.47653">
        <ele>738</ele>
        <time>2017-10-19T01:20:46Z</time>
      </trkpt>
      <trkpt lat="45.80537" lon="2.47631">
        <ele>738</ele>
        <time>2017-10-19T01:22:46Z</time>
      </trkpt>
      <trkpt lat="45.80541" lon="2.47623">
        <ele>738</ele>
        <time>2017-10-19T01:24:46Z</time>
      </trkpt>
      <trkpt lat="45.80544" lon="2.47615">
        <ele>738</ele>
        <time>2017-10-19T01:26:46Z</time>
      </trkpt>
      <trkpt lat="45.80544" lon="2.47607">
        <ele>737</ele>
        <time>2017-10-19T01:28:46Z</time>
      </trkpt>
      <trkpt lat="45.80543" lon="2.47592">
        <ele>737</ele>
        <time>2017-10-19T01:30:46Z</time>
      </trkpt>
      <trkpt lat="45.80532" lon="2.47545">
        <ele>740</ele>
        <time>2017-10-19T01:32:46Z</time>
      </trkpt>
      <trkpt lat="45.80518" lon="2.47518">
        <ele>743</ele>
        <time>2017-10-19T01:34:46Z</time>
      </trkpt>
      <trkpt lat="45.80499" lon="2.47493">
        <ele>745</ele>
        <time>2017-10-19T01:36:46Z</time>
      </trkpt>
      <trkpt lat="45.80482" lon="2.47465">
        <ele>747</ele>
        <time>2017-10-19T01:38:46Z</time>
      </trkpt>
      <trkpt lat="45.80478" lon="2.47435">
        <ele>749</ele>
        <time>2017-10-19T01:40:46Z</time>
      </trkpt>
      <trkpt lat="45.80474" lon="2.47389">
        <ele>750</ele>
        <time>2017-10-19T01:42:46Z</time>
      </trkpt>
      <trkpt lat="45.80451" lon="2.47286">
        <ele>752</ele>
        <time>2017-10-19T01:44:46Z</time>
      </trkpt>
      <trkpt lat="45.80448" lon="2.47283">
        <ele>753</ele>
        <time>2017-10-19T01:46:46Z</time>
      </trkpt>
      <trkpt lat="45.80446" lon="2.47272">
        <ele>753</ele>
        <time>2017-10-19T01:48:46Z</time>
      </trkpt>
      <trkpt lat="45.80426" lon="2.47214">
        <ele>753</ele>
        <time>2017-10-19T01:50:46Z</time>
      </trkpt>
      <trkpt lat="45.8042" lon="2.47188">
        <ele>753</ele>
        <time>2017-10-19T01:52:46Z</time>
      </trkpt>
      <trkpt lat="45.80417" lon="2.47169">
        <ele>753</ele>
        <time>2017-10-19T01:54:46Z</time>
      </trkpt>
      <trkpt lat="45.80417" lon="2.47134">
        <ele>753</ele>
        <time>2017-10-19T01:56:46Z</time>
      </trkpt>
      <trkpt lat="45.80417" lon="2.47128">
        <ele>753</ele>
        <time>2017-10-19T01:58:46Z</time>
      </trkpt>
      <trkpt lat="45.80434" lon="2.4703">
        <ele>752</ele>
        <time>2017-10-19T02:00:46Z</time>
      </trkpt>
      <trkpt lat="45.80432" lon="2.47022">
        <ele>753</ele>
        <time>2017-10-19T02:02:46Z</time>
      </trkpt>
      <trkpt lat="45.80429" lon="2.4702">
        <ele>753</ele>
        <time>2017-10-19T02:04:46Z</time>
      </trkpt>
      <trkpt lat="45.80425" lon="2.47018">
        <ele>754</ele>
        <time>2017-10-19T02:06:46Z</time>
      </trkpt>
      <trkpt lat="45.804" lon="2.47021">
        <ele>757</ele>
        <time>2017-10-19T02:08:46Z</time>
      </trkpt>
      <trkpt lat="45.80376" lon="2.47027">
        <ele>761</ele>
        <time>2017-10-19T02:10:46Z</time>
      </trkpt>
      <trkpt lat="45.80353" lon="2.47029">
        <ele>764</ele>
        <time>2017-10-19T02:12:46Z</time>
      </trkpt>
      <trkpt lat="45.80328" lon="2.47028">
        <ele>767</ele>
        <time>2017-10-19T02:14:46Z</time>
      </trkpt>
      <trkpt lat="45.80316" lon="2.47026">
        <ele>769</ele>
        <time>2017-10-19T02:16:46Z</time>
      </trkpt>
      <trkpt lat="45.80291" lon="2.47025">
        <ele>771</ele>
        <time>2017-10-19T02:18:46Z</time>
      </trkpt>
      <trkpt lat="45.80265" lon="2.47025">
        <ele>773</ele>
        <time>2017-10-19T02:20:46Z</time>
      </trkpt>
      <trkpt lat="45.80195" lon="2.47022">
        <ele>776</ele>
        <time>2017-10-19T02:22:46Z</time>
      </trkpt>
      <trkpt lat="45.80174" lon="2.47">
        <ele>778</ele>
        <time>2017-10-19T02:24:46Z</time>
      </trkpt>
      <trkpt lat="45.80142" lon="2.46952">
        <ele>776</ele>
        <time>2017-10-19T02:26:46Z</time>
      </trkpt>
      <trkpt lat="45.80135" lon="2.46943">
        <ele>775</ele>
        <time>2017-10-19T02:28:46Z</time>
      </trkpt>
      <trkpt lat="45.80131" lon="2.46944">
        <ele>775</ele>
        <time>2017-10-19T02:30:46Z</time>
      </trkpt>
      <trkpt lat="45.80125" lon="2.46951">
        <ele>776</ele>
        <time>2017-10-19T02:32:46Z</time>
      </trkpt>
      <trkpt lat="45.80077" lon="2.4704">
        <ele>779</ele>
        <time>2017-10-19T02:34:46Z</time>
      </trkpt>
      <trkpt lat="45.80073" lon="2.4704">
        <ele>779</ele>
        <time>2017-10-19T02:36:46Z</time>
      </trkpt>
      <trkpt lat="45.80065" lon="2.47035">
        <ele>779</ele>
        <time>2017-10-19T02:38:46Z</time>
      </trkpt>
      <trkpt lat="45.80026" lon="2.46986">
        <ele>777</ele>
        <time>2017-10-19T02:40:46Z</time>
      </trkpt>
      <trkpt lat="45.80017" lon="2.46981">
        <ele>777</ele>
        <time>2017-10-19T02:42:46Z</time>
      </trkpt>
      <trkpt lat="45.80013" lon="2.46982">
        <ele>777</ele>
        <time>2017-10-19T02:44:46Z</time>
      </trkpt>
      <trkpt lat="45.80009" lon="2.46985">
        <ele>777</ele>
        <time>2017-10-19T02:46:46Z</time>
      </trkpt>
      <trkpt lat="45.79998" lon="2.46997">
        <ele>777</ele>
        <time>2017-10-19T02:48:46Z</time>
      </trkpt>
      <trkpt lat="45.79931" lon="2.47075">
        <ele>773</ele>
        <time>2017-10-19T02:50:46Z</time>
      </trkpt>
      <trkpt lat="45.79902" lon="2.47107">
        <ele>770</ele>
        <time>2017-10-19T02:52:46Z</time>
      </trkpt>
      <trkpt lat="45.79828" lon="2.4719">
        <ele>765</ele>
        <time>2017-10-19T02:54:46Z</time>
      </trkpt>
      <trkpt lat="45.79779" lon="2.47242">
        <ele>761</ele>
        <time>2017-10-19T02:56:46Z</time>
      </trkpt>
      <trkpt lat="45.79772" lon="2.47247">
        <ele>760</ele>
        <time>2017-10-19T02:58:46Z</time>
      </trkpt>
      <trkpt lat="45.79764" lon="2.47248">
        <ele>760</ele>
        <time>2017-10-19T03:00:46Z</time>
      </trkpt>
      <trkpt lat="45.79756" lon="2.47247">
        <ele>759</ele>
        <time>2017-10-19T03:02:46Z</time>
      </trkpt>
      <trkpt lat="45.79748" lon="2.47245">
        <ele>759</ele>
        <time>2017-10-19T03:04:46Z</time>
      </trkpt>
      <trkpt lat="45.7974" lon="2.4724">
        <ele>759</ele>
        <time>2017-10-19T03:06:46Z</time>
      </trkpt>
      <trkpt lat="45.79732" lon="2.47234">
        <ele>759</ele>
        <time>2017-10-19T03:08:46Z</time>
      </trkpt>
      <trkpt lat="45.79675" lon="2.4721">
        <ele>757</ele>
        <time>2017-10-19T03:10:46Z</time>
      </trkpt>
      <trkpt lat="45.79673" lon="2.47206">
        <ele>757</ele>
        <time>2017-10-19T03:12:46Z</time>
      </trkpt>
      <trkpt lat="45.79667" lon="2.47198">
        <ele>757</ele>
        <time>2017-10-19T03:14:46Z</time>
      </trkpt>
      <trkpt lat="45.79634" lon="2.47178">
        <ele>756</ele>
        <time>2017-10-19T03:16:46Z</time>
      </trkpt>
      <trkpt lat="45.79628" lon="2.47176">
        <ele>756</ele>
        <time>2017-10-19T03:18:46Z</time>
      </trkpt>
      <trkpt lat="45.79622" lon="2.47175">
        <ele>756</ele>
        <time>2017-10-19T03:20:46Z</time>
      </trkpt>
      <trkpt lat="45.79615" lon="2.47176">
        <ele>756</ele>
        <time>2017-10-19T03:22:46Z</time>
      </trkpt>
      <trkpt lat="45.79599" lon="2.47184">
        <ele>757</ele>
        <time>2017-10-19T03:24:46Z</time>
      </trkpt>
      <trkpt lat="45.79576" lon="2.47206">
        <ele>758</ele>
        <time>2017-10-19T03:26:46Z</time>
      </trkpt>
      <trkpt lat="45.79564" lon="2.47213">
        <ele>758</ele>
        <time>2017-10-19T03:28:46Z</time>
      </trkpt>
      <trkpt lat="45.79542" lon="2.47211">
        <ele>757</ele>
        <time>2017-10-19T03:30:46Z</time>
      </trkpt>
      <trkpt lat="45.79533" lon="2.47213">
        <ele>757</ele>
        <time>2017-10-19T03:32:46Z</time>
      </trkpt>
      <trkpt lat="45.79531" lon="2.47213">
        <ele>757</ele>
        <time>2017-10-19T03:34:46Z</time>
      </trkpt>
      <trkpt lat="45.79517" lon="2.4721">
        <ele>757</ele>
        <time>2017-10-19T03:36:46Z</time>
      </trkpt>
      <trkpt lat="45.79477" lon="2.4721">
        <ele>756</ele>
        <time>2017-10-19T03:38:46Z</time>
      </trkpt>
      <trkpt lat="45.79418" lon="2.47216">
        <ele>755</ele>
        <time>2017-10-19T03:40:46Z</time>
      </trkpt>
      <trkpt lat="45.79338" lon="2.4723">
        <ele>753</ele>
        <time>2017-10-19T03:42:46Z</time>
      </trkpt>
      <trkpt lat="45.79312" lon="2.47222">
        <ele>752</ele>
        <time>2017-10-19T03:44:46Z</time>
      </trkpt>
      <trkpt lat="45.79268" lon="2.4722">
        <ele>751</ele>
        <time>2017-10-19T03:46:46Z</time>
      </trkpt>
      <trkpt lat="45.79244" lon="2.47225">
        <ele>751</ele>
        <time>2017-10-19T03:48:46Z</time>
      </trkpt>
      <trkpt lat="45.79237" lon="2.47235">
        <ele>751</ele>
        <time>2017-10-19T03:50:46Z</time>
      </trkpt>
      <trkpt lat="45.79235" lon="2.47243">
        <ele>751</ele>
        <time>2017-10-19T03:52:46Z</time>
      </trkpt>
      <trkpt lat="45.79218" lon="2.47298">
        <ele>748</ele>
        <time>2017-10-19T03:54:46Z</time>
      </trkpt>
      <trkpt lat="45.79179" lon="2.47442">
        <ele>743</ele>
        <time>2017-10-19T03:56:46Z</time>
      </trkpt>
      <trkpt lat="45.79179" lon="2.47448">
        <ele>743</ele>
        <time>2017-10-19T03:58:46Z</time>
      </trkpt>
      <trkpt lat="45.7918" lon="2.47453">
        <ele>744</ele>
        <time>2017-10-19T04:00:46Z</time>
      </trkpt>
      <trkpt lat="45.79181" lon="2.47454">
        <ele>744</ele>
        <time>2017-10-19T04:02:46Z</time>
      </trkpt>
      <trkpt lat="45.79193" lon="2.47451">
        <ele>744</ele>
        <time>2017-10-19T04:04:46Z</time>
      </trkpt>
      <trkpt lat="45.79197" lon="2.47452">
        <ele>745</ele>
        <time>2017-10-19T04:06:46Z</time>
      </trkpt>
      <trkpt lat="45.7922" lon="2.47465">
        <ele>747</ele>
        <time>2017-10-19T04:08:46Z</time>
      </trkpt>
      <trkpt lat="45.79234" lon="2.47485">
        <ele>748</ele>
        <time>2017-10-19T04:10:46Z</time>
      </trkpt>
      <trkpt lat="45.79249" lon="2.4751">
        <ele>750</ele>
        <time>2017-10-19T04:12:46Z</time>
      </trkpt>
      <trkpt lat="45.79273" lon="2.47541">
        <ele>752</ele>
        <time>2017-10-19T04:14:46Z</time>
      </trkpt>
      <trkpt lat="45.79282" lon="2.47604">
        <ele>753</ele>
        <time>2017-10-19T04:16:46Z</time>
      </trkpt>
      <trkpt lat="45.79283" lon="2.47705">
        <ele>752</ele>
        <time>2017-10-19T04:18:46Z</time>
      </trkpt>
      <trkpt lat="45.79274" lon="2.47754">
        <ele>750</ele>
        <time>2017-10-19T04:20:46Z</time>
      </trkpt>
      <trkpt lat="45.79274" lon="2.47762">
        <ele>750</ele>
        <time>2017-10-19T04:22:46Z</time>
      </trkpt>
      <trkpt lat="45.79284" lon="2.47865">
        <ele>748</ele>
        <time>2017-10-19T04:24:46Z</time>
      </trkpt>
      <trkpt lat="45.79294" lon="2.47904">
        <ele>746</ele>
        <time>2017-10-19T04:26:46Z</time>
      </trkpt>
      <trkpt lat="45.79295" lon="2.47904">
        <ele>746</ele>
        <time>2017-10-19T04:28:46Z</time>
      </trkpt>
      <trkpt lat="45.79301" lon="2.47937">
        <ele>745</ele>
        <time>2017-10-19T04:30:46Z</time>
      </trkpt>
      <trkpt lat="45.79299" lon="2.47938">
        <ele>745</ele>
        <time>2017-10-19T04:32:46Z</time>
      </trkpt>
      <trkpt lat="45.79275" lon="2.47993">
        <ele>740</ele>
        <time>2017-10-19T04:34:46Z</time>
      </trkpt>
      <trkpt lat="45.79272" lon="2.48009">
        <ele>740</ele>
        <time>2017-10-19T04:36:46Z</time>
      </trkpt>
      <trkpt lat="45.79274" lon="2.48022">
        <ele>741</ele>
        <time>2017-10-19T04:38:46Z</time>
      </trkpt>
      <trkpt lat="45.79276" lon="2.48037">
        <ele>741</ele>
        <time>2017-10-19T04:40:46Z</time>
      </trkpt>
      <trkpt lat="45.79276" lon="2.48044">
        <ele>742</ele>
        <time>2017-10-19T04:42:46Z</time>
      </trkpt>
      <trkpt lat="45.79275" lon="2.48051">
        <ele>742</ele>
        <time>2017-10-19T04:44:46Z</time>
      </trkpt>
      <trkpt lat="45.79273" lon="2.48057">
        <ele>742</ele>
        <time>2017-10-19T04:46:46Z</time>
      </trkpt>
      <trkpt lat="45.7927" lon="2.48061">
        <ele>742</ele>
        <time>2017-10-19T04:48:46Z</time>
      </trkpt>
      <trkpt lat="45.79266" lon="2.48065">
        <ele>742</ele>
        <time>2017-10-19T04:50:46Z</time>
      </trkpt>
      <trkpt lat="45.79259" lon="2.48069">
        <ele>742</ele>
        <time>2017-10-19T04:52:46Z</time>
      </trkpt>
      <trkpt lat="45.79253" lon="2.48071">
        <ele>742</ele>
        <time>2017-10-19T04:54:46Z</time>
      </trkpt>
      <trkpt lat="45.79245" lon="2.48071">
        <ele>742</ele>
        <time>2017-10-19T04:56:46Z</time>
      </trkpt>
      <trkpt lat="45.79215" lon="2.48077">
        <ele>743</ele>
        <time>2017-10-19T04:58:46Z</time>
      </trkpt>
      <trkpt lat="45.79172" lon="2.48139">
        <ele>748</ele>
        <time>2017-10-19T05:00:46Z</time>
      </trkpt>
      <trkpt lat="45.79126" lon="2.48202">
        <ele>750</ele>
        <time>2017-10-19T05:02:46Z</time>
      </trkpt>
      <trkpt lat="45.79095" lon="2.48256">
        <ele>751</ele>
        <time>2017-10-19T05:04:46Z</time>
      </trkpt>
      <trkpt lat="45.79067" lon="2.48319">
        <ele>754</ele>
        <time>2017-10-19T05:06:46Z</time>
      </trkpt>
      <trkpt lat="45.79056" lon="2.48341">
        <ele>755</ele>
        <time>2017-10-19T05:08:46Z</time>
      </trkpt>
      <trkpt lat="45.79048" lon="2.48349">
        <ele>755</ele>
        <time>2017-10-19T05:10:46Z</time>
      </trkpt>
      <trkpt lat="45.79033" lon="2.48361">
        <ele>755</ele>
        <time>2017-10-19T05:12:46Z</time>
      </trkpt>
      <trkpt lat="45.79007" lon="2.48394">
        <ele>756</ele>
        <time>2017-10-19T05:14:46Z</time>
      </trkpt>
      <trkpt lat="45.78981" lon="2.48461">
        <ele>756</ele>
        <time>2017-10-19T05:16:46Z</time>
      </trkpt>
      <trkpt lat="45.78979" lon="2.48525">
        <ele>755</ele>
        <time>2017-10-19T05:18:46Z</time>
      </trkpt>
      <trkpt lat="45.78977" lon="2.48531">
        <ele>755</ele>
        <time>2017-10-19T05:20:46Z</time>
      </trkpt>
      <trkpt lat="45.78972" lon="2.48543">
        <ele>754</ele>
        <time>2017-10-19T05:22:46Z</time>
      </trkpt>
      <trkpt lat="45.78964" lon="2.48554">
        <ele>753</ele>
        <time>2017-10-19T05:24:46Z</time>
      </trkpt>
      <trkpt lat="45.78954" lon="2.48564">
        <ele>753</ele>
        <time>2017-10-19T05:26:46Z</time>
      </trkpt>
      <trkpt lat="45.78943" lon="2.48572">
        <ele>752</ele>
        <time>2017-10-19T05:28:46Z</time>
      </trkpt>
      <trkpt lat="45.78854" lon="2.48622">
        <ele>748</ele>
        <time>2017-10-19T05:30:46Z</time>
      </trkpt>
      <trkpt lat="45.78834" lon="2.48639">
        <ele>747</ele>
        <time>2017-10-19T05:32:46Z</time>
      </trkpt>
      <trkpt lat="45.78831" lon="2.48644">
        <ele>747</ele>
        <time>2017-10-19T05:34:46Z</time>
      </trkpt>
      <trkpt lat="45.78829" lon="2.48651">
        <ele>747</ele>
        <time>2017-10-19T05:36:46Z</time>
      </trkpt>
      <trkpt lat="45.78828" lon="2.48659">
        <ele>747</ele>
        <time>2017-10-19T05:38:46Z</time>
      </trkpt>
      <trkpt lat="45.78828" lon="2.48677">
        <ele>747</ele>
        <time>2017-10-19T05:40:46Z</time>
      </trkpt>
      <trkpt lat="45.78827" lon="2.48694">
        <ele>747</ele>
        <time>2017-10-19T05:42:46Z</time>
      </trkpt>
      <trkpt lat="45.78812" lon="2.48782">
        <ele>746</ele>
        <time>2017-10-19T05:44:46Z</time>
      </trkpt>
      <trkpt lat="45.78809" lon="2.48789">
        <ele>745</ele>
        <time>2017-10-19T05:46:46Z</time>
      </trkpt>
      <trkpt lat="45.78787" lon="2.48832">
        <ele>743</ele>
        <time>2017-10-19T05:48:46Z</time>
      </trkpt>
      <trkpt lat="45.78752" lon="2.48908">
        <ele>739</ele>
        <time>2017-10-19T05:50:46Z</time>
      </trkpt>
      <trkpt lat="45.78745" lon="2.48926">
        <ele>739</ele>
        <time>2017-10-19T05:52:46Z</time>
      </trkpt>
      <trkpt lat="45.7873" lon="2.48951">
        <ele>738</ele>
        <time>2017-10-19T05:54:46Z</time>
      </trkpt>
      <trkpt lat="45.78719" lon="2.48969">
        <ele>737</ele>
        <time>2017-10-19T05:56:46Z</time>
      </trkpt>
      <trkpt lat="45.7871" lon="2.48983">
        <ele>737</ele>
        <time>2017-10-19T05:58:46Z</time>
      </trkpt>
      <trkpt lat="45.78705" lon="2.48992">
        <ele>736</ele>
        <time>2017-10-19T06:00:46Z</time>
      </trkpt>
      <trkpt lat="45.78669" lon="2.49039">
        <ele>735</ele>
        <time>2017-10-19T06:02:46Z</time>
      </trkpt>
      <trkpt lat="45.78622" lon="2.49071">
        <ele>734</ele>
        <time>2017-10-19T06:04:46Z</time>
      </trkpt>
      <trkpt lat="45.78599" lon="2.49093">
        <ele>734</ele>
        <time>2017-10-19T06:06:46Z</time>
      </trkpt>
      <trkpt lat="45.78423" lon="2.49301">
        <ele>725</ele>
        <time>2017-10-19T06:08:46Z</time>
      </trkpt>
      <trkpt lat="45.78343" lon="2.49418">
        <ele>723</ele>
        <time>2017-10-19T06:10:46Z</time>
      </trkpt>
      <trkpt lat="45.78274" lon="2.49548">
        <ele>716</ele>
        <time>2017-10-19T06:12:46Z</time>
      </trkpt>
      <trkpt lat="45.7827" lon="2.49557">
        <ele>716</ele>
        <time>2017-10-19T06:14:46Z</time>
      </trkpt>
      <trkpt lat="45.78231" lon="2.4972">
        <ele>715</ele>
        <time>2017-10-19T06:16:46Z</time>
      </trkpt>
      <trkpt lat="45.78229" lon="2.49772">
        <ele>717</ele>
        <time>2017-10-19T06:18:46Z</time>
      </trkpt>
      <trkpt lat="45.7823" lon="2.49818">
        <ele>720</ele>
        <time>2017-10-19T06:20:46Z</time>
      </trkpt>
      <trkpt lat="45.78232" lon="2.49831">
        <ele>721</ele>
        <time>2017-10-19T06:22:46Z</time>
      </trkpt>
      <trkpt lat="45.78233" lon="2.49857">
        <ele>722</ele>
        <time>2017-10-19T06:24:46Z</time>
      </trkpt>
      <trkpt lat="45.78236" lon="2.49903">
        <ele>726</ele>
        <time>2017-10-19T06:26:46Z</time>
      </trkpt>
      <trkpt lat="45.78236" lon="2.49908">
        <ele>726</ele>
        <time>2017-10-19T06:28:46Z</time>
      </trkpt>
      <trkpt lat="45.78236" lon="2.4991">
        <ele>726</ele>
        <time>2017-10-19T06:30:46Z</time>
      </trkpt>
      <trkpt lat="45.78234" lon="2.49915">
        <ele>726</ele>
        <time>2017-10-19T06:32:46Z</time>
      </trkpt>
      <trkpt lat="45.7823" lon="2.49919">
        <ele>726</ele>
        <time>2017-10-19T06:34:46Z</time>
      </trkpt>
      <trkpt lat="45.78202" lon="2.49943">
        <ele>724</ele>
        <time>2017-10-19T06:36:46Z</time>
      </trkpt>
      <trkpt lat="45.7814" lon="2.49952">
        <ele>719</ele>
        <time>2017-10-19T06:38:46Z</time>
      </trkpt>
      <trkpt lat="45.78086" lon="2.49952">
        <ele>713</ele>
        <time>2017-10-19T06:40:46Z</time>
      </trkpt>
      <trkpt lat="45.78064" lon="2.49986">
        <ele>713</ele>
        <time>2017-10-19T06:42:46Z</time>
      </trkpt>
      <trkpt lat="45.7806" lon="2.5">
        <ele>713</ele>
        <time>2017-10-19T06:44:46Z</time>
      </trkpt>
      <trkpt lat="45.78056" lon="2.50027">
        <ele>713</ele>
        <time>2017-10-19T06:46:46Z</time>
      </trkpt>
      <trkpt lat="45.78046" lon="2.50058">
        <ele>713</ele>
        <time>2017-10-19T06:48:46Z</time>
      </trkpt>
      <trkpt lat="45.78014" lon="2.50095">
        <ele>712</ele>
        <time>2017-10-19T06:50:46Z</time>
      </trkpt>
      <trkpt lat="45.78004" lon="2.501">
        <ele>711</ele>
        <time>2017-10-19T06:52:46Z</time>
      </trkpt>
      <trkpt lat="45.77973" lon="2.50097">
        <ele>710</ele>
        <time>2017-10-19T06:54:46Z</time>
      </trkpt>
      <trkpt lat="45.77889" lon="2.50081">
        <ele>710</ele>
        <time>2017-10-19T06:56:46Z</time>
      </trkpt>
      <trkpt lat="45.77847" lon="2.5007">
        <ele>712</ele>
        <time>2017-10-19T06:58:46Z</time>
      </trkpt>
      <trkpt lat="45.7781" lon="2.50058">
        <ele>714</ele>
        <time>2017-10-19T07:00:46Z</time>
      </trkpt>
      <trkpt lat="45.77751" lon="2.50038">
        <ele>720</ele>
        <time>2017-10-19T07:02:46Z</time>
      </trkpt>
      <trkpt lat="45.77741" lon="2.50055">
        <ele>719</ele>
        <time>2017-10-19T07:04:46Z</time>
      </trkpt>
      <trkpt lat="45.77709" lon="2.50163">
        <ele>714</ele>
        <time>2017-10-19T07:06:46Z</time>
      </trkpt>
      <trkpt lat="45.77676" lon="2.5026">
        <ele>712</ele>
        <time>2017-10-19T07:08:46Z</time>
      </trkpt>
      <trkpt lat="45.77655" lon="2.50284">
        <ele>711</ele>
        <time>2017-10-19T07:10:46Z</time>
      </trkpt>
      <trkpt lat="45.77576" lon="2.50353">
        <ele>715</ele>
        <time>2017-10-19T07:12:46Z</time>
      </trkpt>
      <trkpt lat="45.77526" lon="2.50393">
        <ele>719</ele>
        <time>2017-10-19T07:14:46Z</time>
      </trkpt>
      <trkpt lat="45.77506" lon="2.50406">
        <ele>720</ele>
        <time>2017-10-19T07:16:46Z</time>
      </trkpt>
      <trkpt lat="45.77494" lon="2.50411">
        <ele>720</ele>
        <time>2017-10-19T07:18:46Z</time>
      </trkpt>
      <trkpt lat="45.77474" lon="2.50435">
        <ele>721</ele>
        <time>2017-10-19T07:20:46Z</time>
      </trkpt>
      <trkpt lat="45.7743" lon="2.50461">
        <ele>721</ele>
        <time>2017-10-19T07:22:46Z</time>
      </trkpt>
      <trkpt lat="45.77411" lon="2.5047">
        <ele>721</ele>
        <time>2017-10-19T07:24:46Z</time>
      </trkpt>
      <trkpt lat="45.77389" lon="2.50484">
        <ele>721</ele>
        <time>2017-10-19T07:26:46Z</time>
      </trkpt>
      <trkpt lat="45.77381" lon="2.50505">
        <ele>722</ele>
        <time>2017-10-19T07:28:46Z</time>
      </trkpt>
      <trkpt lat="45.7738" lon="2.50528">
        <ele>724</ele>
        <time>2017-10-19T07:30:46Z</time>
      </trkpt>
      <trkpt lat="45.77378" lon="2.50537">
        <ele>724</ele>
        <time>2017-10-19T07:32:46Z</time>
      </trkpt>
      <trkpt lat="45.77376" lon="2.50549">
        <ele>725</ele>
        <time>2017-10-19T07:34:46Z</time>
      </trkpt>
      <trkpt lat="45.77374" lon="2.50561">
        <ele>725</ele>
        <time>2017-10-19T07:36:46Z</time>
      </trkpt>
      <trkpt lat="45.77374" lon="2.5057">
        <ele>726</ele>
        <time>2017-10-19T07:38:46Z</time>
      </trkpt>
      <trkpt lat="45.77374" lon="2.50579">
        <ele>726</ele>
        <time>2017-10-19T07:40:46Z</time>
      </trkpt>
      <trkpt lat="45.77365" lon="2.50586">
        <ele>726</ele>
        <time>2017-10-19T07:42:46Z</time>
      </trkpt>
      <trkpt lat="45.77348" lon="2.50611">
        <ele>727</ele>
        <time>2017-10-19T07:44:46Z</time>
      </trkpt>
      <trkpt lat="45.77319" lon="2.50646">
        <ele>728</ele>
        <time>2017-10-19T07:46:46Z</time>
      </trkpt>
      <trkpt lat="45.77291" lon="2.50668">
        <ele>727</ele>
        <time>2017-10-19T07:48:46Z</time>
      </trkpt>
      <trkpt lat="45.77286" lon="2.50677">
        <ele>727</ele>
        <time>2017-10-19T07:50:46Z</time>
      </trkpt>
      <trkpt lat="45.77269" lon="2.50719">
        <ele>725</ele>
        <time>2017-10-19T07:52:46Z</time>
      </trkpt>
      <trkpt lat="45.77263" lon="2.50736">
        <ele>724</ele>
        <time>2017-10-19T07:54:46Z</time>
      </trkpt>
      <trkpt lat="45.77256" lon="2.50765">
        <ele>723</ele>
        <time>2017-10-19T07:56:46Z</time>
      </trkpt>
      <trkpt lat="45.77255" lon="2.50778">
        <ele>723</ele>
        <time>2017-10-19T07:58:46Z</time>
      </trkpt>
      <trkpt lat="45.77228" lon="2.50846">
        <ele>722</ele>
        <time>2017-10-19T08:00:46Z</time>
      </trkpt>
      <trkpt lat="45.77216" lon="2.50892">
        <ele>720</ele>
        <time>2017-10-19T08:02:46Z</time>
      </trkpt>
      <trkpt lat="45.77213" lon="2.50921">
        <ele>719</ele>
        <time>2017-10-19T08:04:46Z</time>
      </trkpt>
      <trkpt lat="45.77207" lon="2.50987">
        <ele>720</ele>
        <time>2017-10-19T08:06:46Z</time>
      </trkpt>
      <trkpt lat="45.77204" lon="2.51036">
        <ele>721</ele>
        <time>2017-10-19T08:08:46Z</time>
      </trkpt>
      <trkpt lat="45.772" lon="2.51049">
        <ele>721</ele>
        <time>2017-10-19T08:10:46Z</time>
      </trkpt>
      <trkpt lat="45.772" lon="2.5109">
        <ele>722</ele>
        <time>2017-10-19T08:12:46Z</time>
      </trkpt>
      <trkpt lat="45.77198" lon="2.51108">
        <ele>722</ele>
        <time>2017-10-19T08:14:46Z</time>
      </trkpt>
      <trkpt lat="45.77195" lon="2.51115">
        <ele>722</ele>
        <time>2017-10-19T08:16:46Z</time>
      </trkpt>
      <trkpt lat="45.77195" lon="2.5112">
        <ele>722</ele>
        <time>2017-10-19T08:18:46Z</time>
      </trkpt>
      <trkpt lat="45.77193" lon="2.51128">
        <ele>722</ele>
        <time>2017-10-19T08:20:46Z</time>
      </trkpt>
      <trkpt lat="45.77194" lon="2.51186">
        <ele>721</ele>
        <time>2017-10-19T08:22:46Z</time>
      </trkpt>
      <trkpt lat="45.77201" lon="2.51262">
        <ele>721</ele>
        <time>2017-10-19T08:24:46Z</time>
      </trkpt>
      <trkpt lat="45.77219" lon="2.51364">
        <ele>723</ele>
        <time>2017-10-19T08:26:46Z</time>
      </trkpt>
      <trkpt lat="45.77271" lon="2.51413">
        <ele>726</ele>
        <time>2017-10-19T08:28:46Z</time>
      </trkpt>
      <trkpt lat="45.77291" lon="2.51458">
        <ele>729</ele>
        <time>2017-10-19T08:30:46Z</time>
      </trkpt>
      <trkpt lat="45.77293" lon="2.51462">
        <ele>729</ele>
        <time>2017-10-19T08:32:46Z</time>
      </trkpt>
      <trkpt lat="45.77296" lon="2.51467">
        <ele>729</ele>
        <time>2017-10-19T08:34:46Z</time>
      </trkpt>
      <trkpt lat="45.77314" lon="2.51506">
        <ele>731</ele>
        <time>2017-10-19T08:36:46Z</time>
      </trkpt>
      <trkpt lat="45.77332" lon="2.5156">
        <ele>732</ele>
        <time>2017-10-19T08:38:46Z</time>
      </trkpt>
      <trkpt lat="45.77333" lon="2.51588">
        <ele>732</ele>
        <time>2017-10-19T08:40:46Z</time>
      </trkpt>
      <trkpt lat="45.77334" lon="2.51622">
        <ele>734</ele>
        <time>2017-10-19T08:42:46Z</time>
      </trkpt>
      <trkpt lat="45.77334" lon="2.5165">
        <ele>735</ele>
        <time>2017-10-19T08:44:46Z</time>
      </trkpt>
      <trkpt lat="45.77335" lon="2.51687">
        <ele>738</ele>
        <time>2017-10-19T08:46:46Z</time>
      </trkpt>
      <trkpt lat="45.77335" lon="2.5172">
        <ele>741</ele>
        <time>2017-10-19T08:48:46Z</time>
      </trkpt>
      <trkpt lat="45.77329" lon="2.51745">
        <ele>743</ele>
        <time>2017-10-19T08:50:46Z</time>
      </trkpt>
      <trkpt lat="45.77329" lon="2.5175">
        <ele>744</ele>
        <time>2017-10-19T08:52:46Z</time>
      </trkpt>
      <trkpt lat="45.77327" lon="2.51758">
        <ele>744</ele>
        <time>2017-10-19T08:54:46Z</time>
      </trkpt>
      <trkpt lat="45.77323" lon="2.51791">
        <ele>746</ele>
        <time>2017-10-19T08:56:46Z</time>
      </trkpt>
      <trkpt lat="45.77324" lon="2.51829">
        <ele>748</ele>
        <time>2017-10-19T08:58:46Z</time>
      </trkpt>
      <trkpt lat="45.77328" lon="2.51872">
        <ele>750</ele>
        <time>2017-10-19T09:00:46Z</time>
      </trkpt>
      <trkpt lat="45.7733" lon="2.51916">
        <ele>751</ele>
        <time>2017-10-19T09:02:46Z</time>
      </trkpt>
      <trkpt lat="45.77331" lon="2.51974">
        <ele>752</ele>
        <time>2017-10-19T09:04:46Z</time>
      </trkpt>
      <trkpt lat="45.77332" lon="2.52023">
        <ele>751</ele>
        <time>2017-10-19T09:06:46Z</time>
      </trkpt>
      <trkpt lat="45.77332" lon="2.52071">
        <ele>750</ele>
        <time>2017-10-19T09:08:46Z</time>
      </trkpt>
      <trkpt lat="45.77361" lon="2.52114">
        <ele>748</ele>
        <time>2017-10-19T09:10:46Z</time>
      </trkpt>
      <trkpt lat="45.77364" lon="2.5212">
        <ele>748</ele>
        <time>2017-10-19T09:12:46Z</time>
      </trkpt>
      <trkpt lat="45.77393" lon="2.52211">
        <ele>746</ele>
        <time>2017-10-19T09:14:46Z</time>
      </trkpt>
      <trkpt lat="45.77395" lon="2.52222">
        <ele>746</ele>
        <time>2017-10-19T09:16:46Z</time>
      </trkpt>
      <trkpt lat="45.77407" lon="2.52274">
        <ele>745</ele>
        <time>2017-10-19T09:18:46Z</time>
      </trkpt>
      <trkpt lat="45.77408" lon="2.52281">
        <ele>745</ele>
        <time>2017-10-19T09:20:46Z</time>
      </trkpt>
      <trkpt lat="45.77413" lon="2.5231">
        <ele>744</ele>
        <time>2017-10-19T09:22:46Z</time>
      </trkpt>
      <trkpt lat="45.77414" lon="2.52326">
        <ele>744</ele>
        <time>2017-10-19T09:24:46Z</time>
      </trkpt>
      <trkpt lat="45.77413" lon="2.52335">
        <ele>744</ele>
        <time>2017-10-19T09:26:46Z</time>
      </trkpt>
      <trkpt lat="45.77411" lon="2.52357">
        <ele>743</ele>
        <time>2017-10-19T09:28:46Z</time>
      </trkpt>
      <trkpt lat="45.77385" lon="2.52438">
        <ele>740</ele>
        <time>2017-10-19T09:30:46Z</time>
      </trkpt>
      <trkpt lat="45.77378" lon="2.52448">
        <ele>739</ele>
        <time>2017-10-19T09:32:46Z</time>
      </trkpt>
      <trkpt lat="45.77374" lon="2.52453">
        <ele>739</ele>
        <time>2017-10-19T09:34:46Z</time>
      </trkpt>
      <trkpt lat="45.77364" lon="2.5246">
        <ele>739</ele>
        <time>2017-10-19T09:36:46Z</time>
      </trkpt>
      <trkpt lat="45.77332" lon="2.52479">
        <ele>738</ele>
        <time>2017-10-19T09:38:46Z</time>
      </trkpt>
      <trkpt lat="45.77326" lon="2.52484">
        <ele>738</ele>
        <time>2017-10-19T09:40:46Z</time>
      </trkpt>
      <trkpt lat="45.77322" lon="2.52491">
        <ele>738</ele>
        <time>2017-10-19T09:42:46Z</time>
      </trkpt>
      <trkpt lat="45.77318" lon="2.52498">
        <ele>737</ele>
        <time>2017-10-19T09:44:46Z</time>
      </trkpt>
      <trkpt lat="45.77315" lon="2.52506">
        <ele>737</ele>
        <time>2017-10-19T09:46:46Z</time>
      </trkpt>
      <trkpt lat="45.77288" lon="2.52564">
        <ele>734</ele>
        <time>2017-10-19T09:48:46Z</time>
      </trkpt>
      <trkpt lat="45.77282" lon="2.52577">
        <ele>734</ele>
        <time>2017-10-19T09:50:46Z</time>
      </trkpt>
      <trkpt lat="45.77273" lon="2.52593">
        <ele>733</ele>
        <time>2017-10-19T09:52:46Z</time>
      </trkpt>
      <trkpt lat="45.77245" lon="2.52649">
        <ele>731</ele>
        <time>2017-10-19T09:54:46Z</time>
      </trkpt>
      <trkpt lat="45.77235" lon="2.52664">
        <ele>730</ele>
        <time>2017-10-19T09:56:46Z</time>
      </trkpt>
      <trkpt lat="45.77208" lon="2.52692">
        <ele>728</ele>
        <time>2017-10-19T09:58:46Z</time>
      </trkpt>
      <trkpt lat="45.77204" lon="2.52728">
        <ele>726</ele>
        <time>2017-10-19T10:00:46Z</time>
      </trkpt>
      <trkpt lat="45.77204" lon="2.52735">
        <ele>725</ele>
        <time>2017-10-19T10:02:46Z</time>
      </trkpt>
      <trkpt lat="45.77203" lon="2.52737">
        <ele>725</ele>
        <time>2017-10-19T10:04:46Z</time>
      </trkpt>
      <trkpt lat="45.77183" lon="2.52747">
        <ele>724</ele>
        <time>2017-10-19T10:06:46Z</time>
      </trkpt>
      <trkpt lat="45.7717" lon="2.52753">
        <ele>724</ele>
        <time>2017-10-19T10:08:46Z</time>
      </trkpt>
      <trkpt lat="45.77163" lon="2.52759">
        <ele>723</ele>
        <time>2017-10-19T10:10:46Z</time>
      </trkpt>
      <trkpt lat="45.77157" lon="2.52766">
        <ele>723</ele>
        <time>2017-10-19T10:12:46Z</time>
      </trkpt>
      <trkpt lat="45.77146" lon="2.52782">
        <ele>721</ele>
        <time>2017-10-19T10:14:46Z</time>
      </trkpt>
      <trkpt lat="45.77131" lon="2.52802">
        <ele>719</ele>
        <time>2017-10-19T10:16:46Z</time>
      </trkpt>
      <trkpt lat="45.7712" lon="2.5281">
        <ele>718</ele>
        <time>2017-10-19T10:18:46Z</time>
      </trkpt>
      <trkpt lat="45.77107" lon="2.52816">
        <ele>717</ele>
        <time>2017-10-19T10:20:46Z</time>
      </trkpt>
      <trkpt lat="45.77015" lon="2.52843">
        <ele>714</ele>
        <time>2017-10-19T10:22:46Z</time>
      </trkpt>
      <trkpt lat="45.77004" lon="2.52848">
        <ele>714</ele>
        <time>2017-10-19T10:24:46Z</time>
      </trkpt>
      <trkpt lat="45.77" lon="2.52854">
        <ele>714</ele>
        <time>2017-10-19T10:26:46Z</time>
      </trkpt>
      <trkpt lat="45.77001" lon="2.52857">
        <ele>715</ele>
        <time>2017-10-19T10:28:46Z</time>
      </trkpt>
      <trkpt lat="45.77" lon="2.52862">
        <ele>715</ele>
        <time>2017-10-19T10:30:46Z</time>
      </trkpt>
      <trkpt lat="45.76974" lon="2.52909">
        <ele>717</ele>
        <time>2017-10-19T10:32:46Z</time>
      </trkpt>
      <trkpt lat="45.76961" lon="2.5295">
        <ele>719</ele>
        <time>2017-10-19T10:34:46Z</time>
      </trkpt>
      <trkpt lat="45.76949" lon="2.53009">
        <ele>723</ele>
        <time>2017-10-19T10:36:46Z</time>
      </trkpt>
      <trkpt lat="45.76949" lon="2.53015">
        <ele>723</ele>
        <time>2017-10-19T10:38:46Z</time>
      </trkpt>
      <trkpt lat="45.76941" lon="2.53049">
        <ele>725</ele>
        <time>2017-10-19T10:40:46Z</time>
      </trkpt>
      <trkpt lat="45.76931" lon="2.53089">
        <ele>727</ele>
        <time>2017-10-19T10:42:46Z</time>
      </trkpt>
      <trkpt lat="45.76919" lon="2.53122">
        <ele>728</ele>
        <time>2017-10-19T10:44:46Z</time>
      </trkpt>
      <trkpt lat="45.76913" lon="2.53137">
        <ele>727</ele>
        <time>2017-10-19T10:46:46Z</time>
      </trkpt>
      <trkpt lat="45.76914" lon="2.53145">
        <ele>728</ele>
        <time>2017-10-19T10:48:46Z</time>
      </trkpt>
      <trkpt lat="45.76917" lon="2.53149">
        <ele>728</ele>
        <time>2017-10-19T10:50:46Z</time>
      </trkpt>
      <trkpt lat="45.7691" lon="2.5318">
        <ele>728</ele>
        <time>2017-10-19T10:52:46Z</time>
      </trkpt>
      <trkpt lat="45.76887" lon="2.53263">
        <ele>723</ele>
        <time>2017-10-19T10:54:46Z</time>
      </trkpt>
      <trkpt lat="45.76866" lon="2.53341">
        <ele>718</ele>
        <time>2017-10-19T10:56:46Z</time>
      </trkpt>
      <trkpt lat="45.76849" lon="2.53393">
        <ele>713</ele>
        <time>2017-10-19T10:58:46Z</time>
      </trkpt>
      <trkpt lat="45.76846" lon="2.53398">
        <ele>713</ele>
        <time>2017-10-19T11:00:46Z</time>
      </trkpt>
      <trkpt lat="45.7684" lon="2.53405">
        <ele>712</ele>
        <time>2017-10-19T11:02:46Z</time>
      </trkpt>
      <trkpt lat="45.76838" lon="2.5341">
        <ele>712</ele>
        <time>2017-10-19T11:04:46Z</time>
      </trkpt>
      <trkpt lat="45.76837" lon="2.53415">
        <ele>711</ele>
        <time>2017-10-19T11:06:46Z</time>
      </trkpt>
      <trkpt lat="45.76836" lon="2.53426">
        <ele>711</ele>
        <time>2017-10-19T11:08:46Z</time>
      </trkpt>
      <trkpt lat="45.76837" lon="2.53456">
        <ele>710</ele>
        <time>2017-10-19T11:10:46Z</time>
      </trkpt>
      <trkpt lat="45.76838" lon="2.53477">
        <ele>710</ele>
        <time>2017-10-19T11:12:46Z</time>
      </trkpt>
      <trkpt lat="45.76838" lon="2.53494">
        <ele>709</ele>
        <time>2017-10-19T11:14:46Z</time>
      </trkpt>
      <trkpt lat="45.76839" lon="2.535">
        <ele>709</ele>
        <time>2017-10-19T11:16:46Z</time>
      </trkpt>
      <trkpt lat="45.76842" lon="2.53511">
        <ele>709</ele>
        <time>2017-10-19T11:18:46Z</time>
      </trkpt>
      <trkpt lat="45.76843" lon="2.53517">
        <ele>709</ele>
        <time>2017-10-19T11:20:46Z</time>
      </trkpt>
      <trkpt lat="45.76843" lon="2.53523">
        <ele>709</ele>
        <time>2017-10-19T11:22:46Z</time>
      </trkpt>
      <trkpt lat="45.76842" lon="2.5353">
        <ele>709</ele>
        <time>2017-10-19T11:24:46Z</time>
      </trkpt>
      <trkpt lat="45.76838" lon="2.53556">
        <ele>708</ele>
        <time>2017-10-19T11:26:46Z</time>
      </trkpt>
      <trkpt lat="45.76831" lon="2.53622">
        <ele>709</ele>
        <time>2017-10-19T11:28:46Z</time>
      </trkpt>
      <trkpt lat="45.76831" lon="2.53634">
        <ele>710</ele>
        <time>2017-10-19T11:30:46Z</time>
      </trkpt>
      <trkpt lat="45.76833" lon="2.53647">
        <ele>710</ele>
        <time>2017-10-19T11:32:46Z</time>
      </trkpt>
      <trkpt lat="45.76835" lon="2.53652">
        <ele>710</ele>
        <time>2017-10-19T11:34:46Z</time>
      </trkpt>
      <trkpt lat="45.76837" lon="2.53658">
        <ele>711</ele>
        <time>2017-10-19T11:36:46Z</time>
      </trkpt>
      <trkpt lat="45.76846" lon="2.53676">
        <ele>711</ele>
        <time>2017-10-19T11:38:46Z</time>
      </trkpt>
      <trkpt lat="45.76866" lon="2.53738">
        <ele>712</ele>
        <time>2017-10-19T11:40:46Z</time>
      </trkpt>
      <trkpt lat="45.76863" lon="2.53753">
        <ele>712</ele>
        <time>2017-10-19T11:42:46Z</time>
      </trkpt>
      <trkpt lat="45.76859" lon="2.53774">
        <ele>711</ele>
        <time>2017-10-19T11:44:46Z</time>
      </trkpt>
      <trkpt lat="45.76858" lon="2.53777">
        <ele>711</ele>
        <time>2017-10-19T11:46:46Z</time>
      </trkpt>
      <trkpt lat="45.76831" lon="2.53814">
        <ele>711</ele>
        <time>2017-10-19T11:48:46Z</time>
      </trkpt>
      <trkpt lat="45.76796" lon="2.53826">
        <ele>710</ele>
        <time>2017-10-19T11:50:46Z</time>
      </trkpt>
      <trkpt lat="45.76792" lon="2.53828">
        <ele>710</ele>
        <time>2017-10-19T11:52:46Z</time>
      </trkpt>
      <trkpt lat="45.76788" lon="2.53832">
        <ele>709</ele>
        <time>2017-10-19T11:54:46Z</time>
      </trkpt>
      <trkpt lat="45.76772" lon="2.53854">
        <ele>708</ele>
        <time>2017-10-19T11:56:46Z</time>
      </trkpt>
      <trkpt lat="45.76762" lon="2.53874">
        <ele>707</ele>
        <time>2017-10-19T11:58:46Z</time>
      </trkpt>
      <trkpt lat="45.7675" lon="2.53897">
        <ele>706</ele>
        <time>2017-10-19T12:00:46Z</time>
      </trkpt>
      <trkpt lat="45.76747" lon="2.53901">
        <ele>706</ele>
        <time>2017-10-19T12:02:46Z</time>
      </trkpt>
      <trkpt lat="45.76728" lon="2.53917">
        <ele>706</ele>
        <time>2017-10-19T12:04:46Z</time>
      </trkpt>
      <trkpt lat="45.76724" lon="2.53922">
        <ele>706</ele>
        <time>2017-10-19T12:06:46Z</time>
      </trkpt>
      <trkpt lat="45.76709" lon="2.5395">
        <ele>706</ele>
        <time>2017-10-19T12:08:46Z</time>
      </trkpt>
      <trkpt lat="45.76706" lon="2.53956">
        <ele>707</ele>
        <time>2017-10-19T12:10:46Z</time>
      </trkpt>
      <trkpt lat="45.76702" lon="2.5398">
        <ele>708</ele>
        <time>2017-10-19T12:12:46Z</time>
      </trkpt>
      <trkpt lat="45.76706" lon="2.54008">
        <ele>709</ele>
        <time>2017-10-19T12:14:46Z</time>
      </trkpt>
      <trkpt lat="45.76704" lon="2.54024">
        <ele>710</ele>
        <time>2017-10-19T12:16:46Z</time>
      </trkpt>
      <trkpt lat="45.76695" lon="2.54039">
        <ele>712</ele>
        <time>2017-10-19T12:18:46Z</time>
      </trkpt>
      <trkpt lat="45.76678" lon="2.5404">
        <ele>713</ele>
        <time>2017-10-19T12:20:46Z</time>
      </trkpt>
      <trkpt lat="45.76665" lon="2.5404">
        <ele>713</ele>
        <time>2017-10-19T12:22:46Z</time>
      </trkpt>
      <trkpt lat="45.76647" lon="2.54045">
        <ele>713</ele>
        <time>2017-10-19T12:24:46Z</time>
      </trkpt>
      <trkpt lat="45.76641" lon="2.54053">
        <ele>713</ele>
        <time>2017-10-19T12:26:46Z</time>
      </trkpt>
      <trkpt lat="45.76627" lon="2.54068">
        <ele>712</ele>
        <time>2017-10-19T12:28:46Z</time>
      </trkpt>
      <trkpt lat="45.76604" lon="2.54061">
        <ele>711</ele>
        <time>2017-10-19T12:30:46Z</time>
      </trkpt>
      <trkpt lat="45.76599" lon="2.54061">
        <ele>710</ele>
        <time>2017-10-19T12:32:46Z</time>
      </trkpt>
      <trkpt lat="45.76579" lon="2.54064">
        <ele>709</ele>
        <time>2017-10-19T12:34:46Z</time>
      </trkpt>
      <trkpt lat="45.76572" lon="2.54048">
        <ele>709</ele>
        <time>2017-10-19T12:36:46Z</time>
      </trkpt>
      <trkpt lat="45.76568" lon="2.54034">
        <ele>708</ele>
        <time>2017-10-19T12:38:46Z</time>
      </trkpt>
      <trkpt lat="45.76567" lon="2.54027">
        <ele>708</ele>
        <time>2017-10-19T12:40:46Z</time>
      </trkpt>
      <trkpt lat="45.76556" lon="2.53951">
        <ele>706</ele>
        <time>2017-10-19T12:42:46Z</time>
      </trkpt>
      <trkpt lat="45.76549" lon="2.53934">
        <ele>706</ele>
        <time>2017-10-19T12:44:46Z</time>
      </trkpt>
      <trkpt lat="45.76547" lon="2.53929">
        <ele>706</ele>
        <time>2017-10-19T12:46:46Z</time>
      </trkpt>
      <trkpt lat="45.76546" lon="2.53929">
        <ele>706</ele>
        <time>2017-10-19T12:48:46Z</time>
      </trkpt>
      <trkpt lat="45.76543" lon="2.53931">
        <ele>706</ele>
        <time>2017-10-19T12:50:46Z</time>
      </trkpt>
      <trkpt lat="45.76541" lon="2.53937">
        <ele>706</ele>
        <time>2017-10-19T12:52:46Z</time>
      </trkpt>
      <trkpt lat="45.76527" lon="2.54005">
        <ele>706</ele>
        <time>2017-10-19T12:54:46Z</time>
      </trkpt>
      <trkpt lat="45.76527" lon="2.54077">
        <ele>706</ele>
        <time>2017-10-19T12:56:46Z</time>
      </trkpt>
      <trkpt lat="45.76538" lon="2.54188">
        <ele>707</ele>
        <time>2017-10-19T12:58:46Z</time>
      </trkpt>
      <trkpt lat="45.76541" lon="2.54209">
        <ele>707</ele>
        <time>2017-10-19T13:00:46Z</time>
      </trkpt>
      <trkpt lat="45.76538" lon="2.54221">
        <ele>707</ele>
        <time>2017-10-19T13:02:46Z</time>
      </trkpt>
      <trkpt lat="45.76546" lon="2.54259">
        <ele>707</ele>
        <time>2017-10-19T13:04:46Z</time>
      </trkpt>
      <trkpt lat="45.76554" lon="2.54316">
        <ele>708</ele>
        <time>2017-10-19T13:06:46Z</time>
      </trkpt>
      <trkpt lat="45.76561" lon="2.54368">
        <ele>708</ele>
        <time>2017-10-19T13:08:46Z</time>
      </trkpt>
      <trkpt lat="45.76564" lon="2.54403">
        <ele>709</ele>
        <time>2017-10-19T13:10:46Z</time>
      </trkpt>
      <trkpt lat="45.76565" lon="2.5441">
        <ele>709</ele>
        <time>2017-10-19T13:12:46Z</time>
      </trkpt>
      <trkpt lat="45.76566" lon="2.54418">
        <ele>709</ele>
        <time>2017-10-19T13:14:46Z</time>
      </trkpt>
      <trkpt lat="45.76576" lon="2.54507">
        <ele>712</ele>
        <time>2017-10-19T13:16:46Z</time>
      </trkpt>
      <trkpt lat="45.76578" lon="2.54544">
        <ele>713</ele>
        <time>2017-10-19T13:18:46Z</time>
      </trkpt>
      <trkpt lat="45.76577" lon="2.54588">
        <ele>714</ele>
        <time>2017-10-19T13:20:46Z</time>
      </trkpt>
      <trkpt lat="45.76573" lon="2.54626">
        <ele>717</ele>
        <time>2017-10-19T13:22:46Z</time>
      </trkpt>
      <trkpt lat="45.76574" lon="2.54628">
        <ele>718</ele>
        <time>2017-10-19T13:24:46Z</time>
      </trkpt>
      <trkpt lat="45.76588" lon="2.54667">
        <ele>720</ele>
        <time>2017-10-19T13:26:46Z</time>
      </trkpt>
      <trkpt lat="45.76592" lon="2.54671">
        <ele>720</ele>
        <time>2017-10-19T13:28:46Z</time>
      </trkpt>
      <trkpt lat="45.76597" lon="2.54673">
        <ele>720</ele>
        <time>2017-10-19T13:30:46Z</time>
      </trkpt>
      <trkpt lat="45.76602" lon="2.54672">
        <ele>720</ele>
        <time>2017-10-19T13:32:46Z</time>
      </trkpt>
      <trkpt lat="45.76647" lon="2.54675">
        <ele>718</ele>
        <time>2017-10-19T13:34:46Z</time>
      </trkpt>
      <trkpt lat="45.7669" lon="2.54684">
        <ele>717</ele>
        <time>2017-10-19T13:36:46Z</time>
      </trkpt>
      <trkpt lat="45.76715" lon="2.54675">
        <ele>716</ele>
        <time>2017-10-19T13:38:46Z</time>
      </trkpt>
      <trkpt lat="45.7674" lon="2.5466">
        <ele>715</ele>
        <time>2017-10-19T13:40:46Z</time>
      </trkpt>
      <trkpt lat="45.76743" lon="2.54661">
        <ele>715</ele>
        <time>2017-10-19T13:42:46Z</time>
      </trkpt>
      <trkpt lat="45.76746" lon="2.54665">
        <ele>715</ele>
        <time>2017-10-19T13:44:46Z</time>
      </trkpt>
      <trkpt lat="45.76748" lon="2.54671">
        <ele>715</ele>
        <time>2017-10-19T13:46:46Z</time>
      </trkpt>
      <trkpt lat="45.76749" lon="2.54679">
        <ele>715</ele>
        <time>2017-10-19T13:48:46Z</time>
      </trkpt>
      <trkpt lat="45.76758" lon="2.54759">
        <ele>716</ele>
        <time>2017-10-19T13:50:46Z</time>
      </trkpt>
      <trkpt lat="45.76763" lon="2.54801">
        <ele>716</ele>
        <time>2017-10-19T13:52:46Z</time>
      </trkpt>
      <trkpt lat="45.76763" lon="2.54803">
        <ele>716</ele>
        <time>2017-10-19T13:54:46Z</time>
      </trkpt>
      <trkpt lat="45.7677" lon="2.5483">
        <ele>716</ele>
        <time>2017-10-19T13:56:46Z</time>
      </trkpt>
      <trkpt lat="45.76792" lon="2.54899">
        <ele>716</ele>
        <time>2017-10-19T13:58:46Z</time>
      </trkpt>
      <trkpt lat="45.76807" lon="2.54945">
        <ele>717</ele>
        <time>2017-10-19T14:00:46Z</time>
      </trkpt>
      <trkpt lat="45.76817" lon="2.54976">
        <ele>719</ele>
        <time>2017-10-19T14:02:46Z</time>
      </trkpt>
      <trkpt lat="45.76829" lon="2.55003">
        <ele>720</ele>
        <time>2017-10-19T14:04:46Z</time>
      </trkpt>
      <trkpt lat="45.7683" lon="2.55007">
        <ele>721</ele>
        <time>2017-10-19T14:06:46Z</time>
      </trkpt>
      <trkpt lat="45.76845" lon="2.55036">
        <ele>722</ele>
        <time>2017-10-19T14:08:46Z</time>
      </trkpt>
      <trkpt lat="45.7686" lon="2.55059">
        <ele>723</ele>
        <time>2017-10-19T14:10:46Z</time>
      </trkpt>
      <trkpt lat="45.76872" lon="2.55083">
        <ele>724</ele>
        <time>2017-10-19T14:12:46Z</time>
      </trkpt>
      <trkpt lat="45.7688" lon="2.55103">
        <ele>726</ele>
        <time>2017-10-19T14:14:46Z</time>
      </trkpt>
      <trkpt lat="45.76888" lon="2.5512">
        <ele>727</ele>
        <time>2017-10-19T14:16:46Z</time>
      </trkpt>
      <trkpt lat="45.76903" lon="2.55139">
        <ele>729</ele>
        <time>2017-10-19T14:18:46Z</time>
      </trkpt>
      <trkpt lat="45.76917" lon="2.55152">
        <ele>729</ele>
        <time>2017-10-19T14:20:46Z</time>
      </trkpt>
      <trkpt lat="45.76931" lon="2.55164">
        <ele>730</ele>
        <time>2017-10-19T14:22:46Z</time>
      </trkpt>
      <trkpt lat="45.76933" lon="2.55168">
        <ele>730</ele>
        <time>2017-10-19T14:24:46Z</time>
      </trkpt>
      <trkpt lat="45.76938" lon="2.55172">
        <ele>731</ele>
        <time>2017-10-19T14:26:46Z</time>
      </trkpt>
      <trkpt lat="45.76938" lon="2.55177">
        <ele>731</ele>
        <time>2017-10-19T14:28:46Z</time>
      </trkpt>
      <trkpt lat="45.76943" lon="2.55183">
        <ele>732</ele>
        <time>2017-10-19T14:30:46Z</time>
      </trkpt>
      <trkpt lat="45.76951" lon="2.55198">
        <ele>734</ele>
        <time>2017-10-19T14:32:46Z</time>
      </trkpt>
      <trkpt lat="45.76959" lon="2.55217">
        <ele>736</ele>
        <time>2017-10-19T14:34:46Z</time>
      </trkpt>
      <trkpt lat="45.76966" lon="2.55236">
        <ele>739</ele>
        <time>2017-10-19T14:36:46Z</time>
      </trkpt>
      <trkpt lat="45.76966" lon="2.55243">
        <ele>740</ele>
        <time>2017-10-19T14:38:46Z</time>
      </trkpt>
      <trkpt lat="45.76961" lon="2.55262">
        <ele>741</ele>
        <time>2017-10-19T14:40:46Z</time>
      </trkpt>
      <trkpt lat="45.7696" lon="2.55273">
        <ele>742</ele>
        <time>2017-10-19T14:42:46Z</time>
      </trkpt>
      <trkpt lat="45.76955" lon="2.553">
        <ele>743</ele>
        <time>2017-10-19T14:44:46Z</time>
      </trkpt>
      <trkpt lat="45.76952" lon="2.55318">
        <ele>744</ele>
        <time>2017-10-19T14:46:46Z</time>
      </trkpt>
      <trkpt lat="45.7695" lon="2.55349">
        <ele>745</ele>
        <time>2017-10-19T14:48:46Z</time>
      </trkpt>
      <trkpt lat="45.76946" lon="2.55396">
        <ele>746</ele>
        <time>2017-10-19T14:50:46Z</time>
      </trkpt>
      <trkpt lat="45.76938" lon="2.55433">
        <ele>746</ele>
        <time>2017-10-19T14:52:46Z</time>
      </trkpt>
      <trkpt lat="45.76914" lon="2.55479">
        <ele>745</ele>
        <time>2017-10-19T14:54:46Z</time>
      </trkpt>
      <trkpt lat="45.76909" lon="2.55494">
        <ele>744</ele>
        <time>2017-10-19T14:56:46Z</time>
      </trkpt>
      <trkpt lat="45.76907" lon="2.5551">
        <ele>743</ele>
        <time>2017-10-19T14:58:46Z</time>
      </trkpt>
      <trkpt lat="45.76907" lon="2.55525">
        <ele>743</ele>
        <time>2017-10-19T15:00:46Z</time>
      </trkpt>
      <trkpt lat="45.76907" lon="2.55539">
        <ele>743</ele>
        <time>2017-10-19T15:02:46Z</time>
      </trkpt>
      <trkpt lat="45.76918" lon="2.55602">
        <ele>744</ele>
        <time>2017-10-19T15:04:46Z</time>
      </trkpt>
      <trkpt lat="45.76921" lon="2.55633">
        <ele>745</ele>
        <time>2017-10-19T15:06:46Z</time>
      </trkpt>
      <trkpt lat="45.76921" lon="2.55644">
        <ele>746</ele>
        <time>2017-10-19T15:08:46Z</time>
      </trkpt>
      <trkpt lat="45.76917" lon="2.55649">
        <ele>746</ele>
        <time>2017-10-19T15:10:46Z</time>
      </trkpt>
      <trkpt lat="45.76895" lon="2.5567">
        <ele>747</ele>
        <time>2017-10-19T15:12:46Z</time>
      </trkpt>
      <trkpt lat="45.76864" lon="2.55694">
        <ele>747</ele>
        <time>2017-10-19T15:14:46Z</time>
      </trkpt>
      <trkpt lat="45.76827" lon="2.55722">
        <ele>747</ele>
        <time>2017-10-19T15:16:46Z</time>
      </trkpt>
      <trkpt lat="45.76814" lon="2.55731">
        <ele>747</ele>
        <time>2017-10-19T15:18:46Z</time>
      </trkpt>
      <trkpt lat="45.76801" lon="2.55739">
        <ele>747</ele>
        <time>2017-10-19T15:20:46Z</time>
      </trkpt>
      <trkpt lat="45.7679" lon="2.55761">
        <ele>748</ele>
        <time>2017-10-19T15:22:46Z</time>
      </trkpt>
      <trkpt lat="45.7678" lon="2.55776">
        <ele>749</ele>
        <time>2017-10-19T15:24:46Z</time>
      </trkpt>
      <trkpt lat="45.76752" lon="2.55826">
        <ele>752</ele>
        <time>2017-10-19T15:26:46Z</time>
      </trkpt>
      <trkpt lat="45.76735" lon="2.55845">
        <ele>752</ele>
        <time>2017-10-19T15:28:46Z</time>
      </trkpt>
      <trkpt lat="45.76717" lon="2.55862">
        <ele>752</ele>
        <time>2017-10-19T15:30:46Z</time>
      </trkpt>
      <trkpt lat="45.76694" lon="2.55885">
        <ele>753</ele>
        <time>2017-10-19T15:32:46Z</time>
      </trkpt>
      <trkpt lat="45.76662" lon="2.55924">
        <ele>756</ele>
        <time>2017-10-19T15:34:46Z</time>
      </trkpt>
      <trkpt lat="45.76646" lon="2.55943">
        <ele>757</ele>
        <time>2017-10-19T15:36:46Z</time>
      </trkpt>
      <trkpt lat="45.76621" lon="2.5597">
        <ele>757</ele>
        <time>2017-10-19T15:38:46Z</time>
      </trkpt>
      <trkpt lat="45.76611" lon="2.55996">
        <ele>758</ele>
        <time>2017-10-19T15:40:46Z</time>
      </trkpt>
      <trkpt lat="45.766" lon="2.56025">
        <ele>758</ele>
        <time>2017-10-19T15:42:46Z</time>
      </trkpt>
      <trkpt lat="45.76589" lon="2.56055">
        <ele>758</ele>
        <time>2017-10-19T15:44:46Z</time>
      </trkpt>
      <trkpt lat="45.76569" lon="2.56096">
        <ele>759</ele>
        <time>2017-10-19T15:46:46Z</time>
      </trkpt>
      <trkpt lat="45.76516" lon="2.56111">
        <ele>760</ele>
        <time>2017-10-19T15:48:46Z</time>
      </trkpt>
      <trkpt lat="45.76485" lon="2.56119">
        <ele>761</ele>
        <time>2017-10-19T15:50:46Z</time>
      </trkpt>
      <trkpt lat="45.76438" lon="2.56129">
        <ele>764</ele>
        <time>2017-10-19T15:52:46Z</time>
      </trkpt>
      <trkpt lat="45.76404" lon="2.56134">
        <ele>766</ele>
        <time>2017-10-19T15:54:46Z</time>
      </trkpt>
      <trkpt lat="45.76373" lon="2.56148">
        <ele>768</ele>
        <time>2017-10-19T15:56:46Z</time>
      </trkpt>
      <trkpt lat="45.76347" lon="2.56164">
        <ele>771</ele>
        <time>2017-10-19T15:58:46Z</time>
      </trkpt>
      <trkpt lat="45.76298" lon="2.56214">
        <ele>771</ele>
        <time>2017-10-19T16:00:46Z</time>
      </trkpt>
      <trkpt lat="45.76224" lon="2.56274">
        <ele>771</ele>
        <time>2017-10-19T16:02:46Z</time>
      </trkpt>
      <trkpt lat="45.762" lon="2.56274">
        <ele>771</ele>
        <time>2017-10-19T16:04:46Z</time>
      </trkpt>
      <trkpt lat="45.76147" lon="2.5627">
        <ele>774</ele>
        <time>2017-10-19T16:06:46Z</time>
      </trkpt>
      <trkpt lat="45.76068" lon="2.56291">
        <ele>778</ele>
        <time>2017-10-19T16:08:46Z</time>
      </trkpt>
      <trkpt lat="45.75997" lon="2.56305">
        <ele>782</ele>
        <time>2017-10-19T16:10:46Z</time>
      </trkpt>
      <trkpt lat="45.75927" lon="2.56317">
        <ele>785</ele>
        <time>2017-10-19T16:12:46Z</time>
      </trkpt>
      <trkpt lat="45.75892" lon="2.56328">
        <ele>786</ele>
        <time>2017-10-19T16:14:46Z</time>
      </trkpt>
      <trkpt lat="45.75863" lon="2.56323">
        <ele>785</ele>
        <time>2017-10-19T16:16:46Z</time>
      </trkpt>
      <trkpt lat="45.75843" lon="2.56347">
        <ele>785</ele>
        <time>2017-10-19T16:18:46Z</time>
      </trkpt>
      <trkpt lat="45.75804" lon="2.5641">
        <ele>785</ele>
        <time>2017-10-19T16:20:46Z</time>
      </trkpt>
      <trkpt lat="45.75491" lon="2.56725">
        <ele>816</ele>
        <time>2017-10-19T16:24:46Z</time>
      </trkpt>
      <trkpt lat="45.75444" lon="2.56766">
        <ele>819</ele>
        <time>2017-10-19T16:26:46Z</time>
      </trkpt>
      <trkpt lat="45.75418" lon="2.56785">
        <ele>820</ele>
        <time>2017-10-19T16:28:46Z</time>
      </trkpt>
      <trkpt lat="45.75387" lon="2.56807">
        <ele>821</ele>
        <time>2017-10-19T16:30:46Z</time>
      </trkpt>
      <trkpt lat="45.75363" lon="2.56821">
        <ele>821</ele>
        <time>2017-10-19T16:32:46Z</time>
      </trkpt>
      <trkpt lat="45.75343" lon="2.56833">
        <ele>821</ele>
        <time>2017-10-19T16:34:46Z</time>
      </trkpt>
      <trkpt lat="45.75334" lon="2.56834">
        <ele>821</ele>
        <time>2017-10-19T16:36:46Z</time>
      </trkpt>
      <trkpt lat="45.75318" lon="2.56843">
        <ele>819</ele>
        <time>2017-10-19T16:38:46Z</time>
      </trkpt>
      <trkpt lat="45.7531" lon="2.56843">
        <ele>819</ele>
        <time>2017-10-19T16:40:46Z</time>
      </trkpt>
      <trkpt lat="45.75296" lon="2.56852">
        <ele>817</ele>
        <time>2017-10-19T16:42:46Z</time>
      </trkpt>
      <trkpt lat="45.75248" lon="2.56878">
        <ele>812</ele>
        <time>2017-10-19T16:44:46Z</time>
      </trkpt>
      <trkpt lat="45.75243" lon="2.56878">
        <ele>812</ele>
        <time>2017-10-19T16:46:46Z</time>
      </trkpt>
      <trkpt lat="45.75238" lon="2.56878">
        <ele>811</ele>
        <time>2017-10-19T16:48:46Z</time>
      </trkpt>
      <trkpt lat="45.75234" lon="2.56875">
        <ele>811</ele>
        <time>2017-10-19T16:50:46Z</time>
      </trkpt>
      <trkpt lat="45.75231" lon="2.56871">
        <ele>811</ele>
        <time>2017-10-19T16:52:46Z</time>
      </trkpt>
      <trkpt lat="45.7523" lon="2.56866">
        <ele>811</ele>
        <time>2017-10-19T16:54:46Z</time>
      </trkpt>
      <trkpt lat="45.75205" lon="2.56781">
        <ele>812</ele>
        <time>2017-10-19T16:56:46Z</time>
      </trkpt>
      <trkpt lat="45.75205" lon="2.5676">
        <ele>813</ele>
        <time>2017-10-19T16:58:46Z</time>
      </trkpt>
      <trkpt lat="45.75165" lon="2.56738">
        <ele>807</ele>
        <time>2017-10-19T17:00:46Z</time>
      </trkpt>
      <trkpt lat="45.75144" lon="2.56713">
        <ele>802</ele>
        <time>2017-10-19T17:02:46Z</time>
      </trkpt>
      <trkpt lat="45.75134" lon="2.56584">
        <ele>793</ele>
        <time>2017-10-19T17:04:46Z</time>
      </trkpt>
      <trkpt lat="45.75134" lon="2.56558">
        <ele>791</ele>
        <time>2017-10-19T17:06:46Z</time>
      </trkpt>
      <trkpt lat="45.75108" lon="2.56539">
        <ele>785</ele>
        <time>2017-10-19T17:08:46Z</time>
      </trkpt>
      <trkpt lat="45.75" lon="2.56488">
        <ele>770</ele>
        <time>2017-10-19T17:10:46Z</time>
      </trkpt>
      <trkpt lat="45.75059" lon="2.56375">
        <ele>767</ele>
        <time>2017-10-19T17:12:46Z</time>
      </trkpt>
      <trkpt lat="45.74978" lon="2.56288">
        <ele>757</ele>
        <time>2017-10-19T17:14:46Z</time>
      </trkpt>
      <trkpt lat="45.74883" lon="2.56144">
        <ele>747</ele>
        <time>2017-10-19T17:16:46Z</time>
      </trkpt>
      <trkpt lat="45.74861" lon="2.56045">
        <ele>745</ele>
        <time>2017-10-19T17:18:46Z</time>
      </trkpt>
      <trkpt lat="45.74826" lon="2.55936">
        <ele>748</ele>
        <time>2017-10-19T17:20:46Z</time>
      </trkpt>
      <trkpt lat="45.74788" lon="2.5591">
        <ele>748</ele>
        <time>2017-10-19T17:22:46Z</time>
      </trkpt>
      <trkpt lat="45.74746" lon="2.55831">
        <ele>752</ele>
        <time>2017-10-19T17:24:46Z</time>
      </trkpt>
      <trkpt lat="45.74661" lon="2.55635">
        <ele>748</ele>
        <time>2017-10-19T17:26:46Z</time>
      </trkpt>
      <trkpt lat="45.74628" lon="2.55562">
        <ele>745</ele>
        <time>2017-10-19T17:28:46Z</time>
      </trkpt>
      <trkpt lat="45.74573" lon="2.55475">
        <ele>741</ele>
        <time>2017-10-19T17:30:46Z</time>
      </trkpt>
      <trkpt lat="45.74544" lon="2.55454">
        <ele>741</ele>
        <time>2017-10-19T17:32:46Z</time>
      </trkpt>
      <trkpt lat="45.74475" lon="2.55393">
        <ele>742</ele>
        <time>2017-10-19T17:34:46Z</time>
      </trkpt>
      <trkpt lat="45.74429" lon="2.55326">
        <ele>741</ele>
        <time>2017-10-19T17:36:46Z</time>
      </trkpt>
      <trkpt lat="45.74398" lon="2.55311">
        <ele>739</ele>
        <time>2017-10-19T17:38:46Z</time>
      </trkpt>
      <trkpt lat="45.74342" lon="2.55311">
        <ele>736</ele>
        <time>2017-10-19T17:40:46Z</time>
      </trkpt>
      <trkpt lat="45.74336" lon="2.5531">
        <ele>735</ele>
        <time>2017-10-19T17:42:46Z</time>
      </trkpt>
      <trkpt lat="45.74328" lon="2.5527">
        <ele>734</ele>
        <time>2017-10-19T17:44:46Z</time>
      </trkpt>
      <trkpt lat="45.74326" lon="2.55266">
        <ele>734</ele>
        <time>2017-10-19T17:46:46Z</time>
      </trkpt>
      <trkpt lat="45.74328" lon="2.55265">
        <ele>734</ele>
        <time>2017-10-19T17:48:46Z</time>
      </trkpt>
      <trkpt lat="45.7434" lon="2.5524">
        <ele>734</ele>
        <time>2017-10-19T17:50:46Z</time>
      </trkpt>
      <trkpt lat="45.74355" lon="2.55204">
        <ele>732</ele>
        <time>2017-10-19T17:52:46Z</time>
      </trkpt>
      <trkpt lat="45.74353" lon="2.55187">
        <ele>731</ele>
        <time>2017-10-19T17:54:46Z</time>
      </trkpt>
      <trkpt lat="45.74336" lon="2.55151">
        <ele>727</ele>
        <time>2017-10-19T17:56:46Z</time>
      </trkpt>
      <trkpt lat="45.74327" lon="2.55031">
        <ele>719</ele>
        <time>2017-10-19T17:58:46Z</time>
      </trkpt>
      <trkpt lat="45.74324" lon="2.55022">
        <ele>718</ele>
        <time>2017-10-19T18:00:46Z</time>
      </trkpt>
      <trkpt lat="45.74321" lon="2.55013">
        <ele>718</ele>
        <time>2017-10-19T18:02:46Z</time>
      </trkpt>
      <trkpt lat="45.74314" lon="2.54996">
        <ele>717</ele>
        <time>2017-10-19T18:04:46Z</time>
      </trkpt>
      <trkpt lat="45.74258" lon="2.54889">
        <ele>716</ele>
        <time>2017-10-19T18:06:46Z</time>
      </trkpt>
      <trkpt lat="45.74222" lon="2.54817">
        <ele>718</ele>
        <time>2017-10-19T18:08:46Z</time>
      </trkpt>
      <trkpt lat="45.74213" lon="2.54802">
        <ele>719</ele>
        <time>2017-10-19T18:10:46Z</time>
      </trkpt>
      <trkpt lat="45.74199" lon="2.54782">
        <ele>720</ele>
        <time>2017-10-19T18:12:46Z</time>
      </trkpt>
      <trkpt lat="45.74192" lon="2.54784">
        <ele>721</ele>
        <time>2017-10-19T18:14:46Z</time>
      </trkpt>
      <trkpt lat="45.74192" lon="2.54783">
        <ele>721</ele>
        <time>2017-10-19T18:16:46Z</time>
      </trkpt>
      <trkpt lat="45.74173" lon="2.54799">
        <ele>721</ele>
        <time>2017-10-19T18:18:46Z</time>
      </trkpt>
      <trkpt lat="45.74076" lon="2.54869">
        <ele>721</ele>
        <time>2017-10-19T18:20:46Z</time>
      </trkpt>
      <trkpt lat="45.74026" lon="2.54907">
        <ele>720</ele>
        <time>2017-10-19T18:22:46Z</time>
      </trkpt>
      <trkpt lat="45.73995" lon="2.54944">
        <ele>722</ele>
        <time>2017-10-19T18:24:46Z</time>
      </trkpt>
      <trkpt lat="45.73985" lon="2.5499">
        <ele>726</ele>
        <time>2017-10-19T18:26:46Z</time>
      </trkpt>
      <trkpt lat="45.73982" lon="2.55023">
        <ele>728</ele>
        <time>2017-10-19T18:28:46Z</time>
      </trkpt>
      <trkpt lat="45.73979" lon="2.55038">
        <ele>730</ele>
        <time>2017-10-19T18:30:46Z</time>
      </trkpt>
      <trkpt lat="45.73975" lon="2.5506">
        <ele>731</ele>
        <time>2017-10-19T18:32:46Z</time>
      </trkpt>
      <trkpt lat="45.7397" lon="2.55074">
        <ele>732</ele>
        <time>2017-10-19T18:34:46Z</time>
      </trkpt>
      <trkpt lat="45.73966" lon="2.55093">
        <ele>732</ele>
        <time>2017-10-19T18:36:46Z</time>
      </trkpt>
      <trkpt lat="45.73963" lon="2.55101">
        <ele>732</ele>
        <time>2017-10-19T18:38:46Z</time>
      </trkpt>
      <trkpt lat="45.73953" lon="2.55138">
        <ele>730</ele>
        <time>2017-10-19T18:40:46Z</time>
      </trkpt>
      <trkpt lat="45.73943" lon="2.55182">
        <ele>728</ele>
        <time>2017-10-19T18:42:46Z</time>
      </trkpt>
      <trkpt lat="45.7393" lon="2.55234">
        <ele>724</ele>
        <time>2017-10-19T18:44:46Z</time>
      </trkpt>
      <trkpt lat="45.73918" lon="2.55284">
        <ele>725</ele>
        <time>2017-10-19T18:46:46Z</time>
      </trkpt>
      <trkpt lat="45.73906" lon="2.55326">
        <ele>726</ele>
        <time>2017-10-19T18:48:46Z</time>
      </trkpt>
      <trkpt lat="45.73897" lon="2.55358">
        <ele>728</ele>
        <time>2017-10-19T18:50:46Z</time>
      </trkpt>
      <trkpt lat="45.73896" lon="2.55365">
        <ele>728</ele>
        <time>2017-10-19T18:52:46Z</time>
      </trkpt>
      <trkpt lat="45.73895" lon="2.55372">
        <ele>729</ele>
        <time>2017-10-19T18:54:46Z</time>
      </trkpt>
      <trkpt lat="45.73894" lon="2.55379">
        <ele>729</ele>
        <time>2017-10-19T18:56:46Z</time>
      </trkpt>
      <trkpt lat="45.7389" lon="2.55402">
        <ele>730</ele>
        <time>2017-10-19T18:58:46Z</time>
      </trkpt>
      <trkpt lat="45.73889" lon="2.55406">
        <ele>730</ele>
        <time>2017-10-19T19:00:46Z</time>
      </trkpt>
      <trkpt lat="45.73885" lon="2.55419">
        <ele>730</ele>
        <time>2017-10-19T19:02:46Z</time>
      </trkpt>
      <trkpt lat="45.73877" lon="2.55465">
        <ele>730</ele>
        <time>2017-10-19T19:04:46Z</time>
      </trkpt>
      <trkpt lat="45.73868" lon="2.55517">
        <ele>729</ele>
        <time>2017-10-19T19:06:46Z</time>
      </trkpt>
      <trkpt lat="45.73857" lon="2.55591">
        <ele>727</ele>
        <time>2017-10-19T19:08:46Z</time>
      </trkpt>
      <trkpt lat="45.73855" lon="2.55595">
        <ele>727</ele>
        <time>2017-10-19T19:10:46Z</time>
      </trkpt>
      <trkpt lat="45.73845" lon="2.55598">
        <ele>726</ele>
        <time>2017-10-19T19:12:46Z</time>
      </trkpt>
      <trkpt lat="45.73792" lon="2.55591">
        <ele>724</ele>
        <time>2017-10-19T19:14:46Z</time>
      </trkpt>
      <trkpt lat="45.73779" lon="2.55583">
        <ele>723</ele>
        <time>2017-10-19T19:16:46Z</time>
      </trkpt>
      <trkpt lat="45.73774" lon="2.55578">
        <ele>723</ele>
        <time>2017-10-19T19:18:46Z</time>
      </trkpt>
      <trkpt lat="45.73711" lon="2.55498">
        <ele>725</ele>
        <time>2017-10-19T19:20:46Z</time>
      </trkpt>
      <trkpt lat="45.73679" lon="2.55453">
        <ele>726</ele>
        <time>2017-10-19T19:22:46Z</time>
      </trkpt>
      <trkpt lat="45.73669" lon="2.5544">
        <ele>726</ele>
        <time>2017-10-19T19:24:46Z</time>
      </trkpt>
      <trkpt lat="45.73656" lon="2.55425">
        <ele>727</ele>
        <time>2017-10-19T19:26:46Z</time>
      </trkpt>
      <trkpt lat="45.73633" lon="2.55399">
        <ele>727</ele>
        <time>2017-10-19T19:28:46Z</time>
      </trkpt>
      <trkpt lat="45.73621" lon="2.55387">
        <ele>727</ele>
        <time>2017-10-19T19:30:46Z</time>
      </trkpt>
      <trkpt lat="45.73602" lon="2.55363">
        <ele>728</ele>
        <time>2017-10-19T19:32:46Z</time>
      </trkpt>
      <trkpt lat="45.73584" lon="2.55336">
        <ele>730</ele>
        <time>2017-10-19T19:34:46Z</time>
      </trkpt>
      <trkpt lat="45.73557" lon="2.55287">
        <ele>731</ele>
        <time>2017-10-19T19:36:46Z</time>
      </trkpt>
      <trkpt lat="45.73492" lon="2.55166">
        <ele>728</ele>
        <time>2017-10-19T19:38:46Z</time>
      </trkpt>
      <trkpt lat="45.73461" lon="2.55059">
        <ele>730</ele>
        <time>2017-10-19T19:40:46Z</time>
      </trkpt>
      <trkpt lat="45.73443" lon="2.54985">
        <ele>733</ele>
        <time>2017-10-19T19:42:46Z</time>
      </trkpt>
      <trkpt lat="45.7342" lon="2.54903">
        <ele>736</ele>
        <time>2017-10-19T19:44:46Z</time>
      </trkpt>
      <trkpt lat="45.73406" lon="2.5485">
        <ele>737</ele>
        <time>2017-10-19T19:46:46Z</time>
      </trkpt>
      <trkpt lat="45.7338" lon="2.54782">
        <ele>737</ele>
        <time>2017-10-19T19:48:46Z</time>
      </trkpt>
      <trkpt lat="45.73304" lon="2.54637">
        <ele>741</ele>
        <time>2017-10-19T19:50:46Z</time>
      </trkpt>
      <trkpt lat="45.73272" lon="2.54594">
        <ele>744</ele>
        <time>2017-10-19T19:52:46Z</time>
      </trkpt>
      <trkpt lat="45.73248" lon="2.54577">
        <ele>744</ele>
        <time>2017-10-19T19:54:46Z</time>
      </trkpt>
      <trkpt lat="45.73227" lon="2.54572">
        <ele>743</ele>
        <time>2017-10-19T19:56:46Z</time>
      </trkpt>
      <trkpt lat="45.73219" lon="2.54572">
        <ele>743</ele>
        <time>2017-10-19T19:58:46Z</time>
      </trkpt>
      <trkpt lat="45.73157" lon="2.54538">
        <ele>741</ele>
        <time>2017-10-19T20:00:46Z</time>
      </trkpt>
      <trkpt lat="45.73145" lon="2.54521">
        <ele>741</ele>
        <time>2017-10-19T20:02:46Z</time>
      </trkpt>
      <trkpt lat="45.73118" lon="2.54434">
        <ele>741</ele>
        <time>2017-10-19T20:04:46Z</time>
      </trkpt>
      <trkpt lat="45.731" lon="2.54383">
        <ele>741</ele>
        <time>2017-10-19T20:06:46Z</time>
      </trkpt>
      <trkpt lat="45.73095" lon="2.54374">
        <ele>741</ele>
        <time>2017-10-19T20:08:46Z</time>
      </trkpt>
      <trkpt lat="45.7309" lon="2.54366">
        <ele>741</ele>
        <time>2017-10-19T20:10:46Z</time>
      </trkpt>
      <trkpt lat="45.73074" lon="2.54341">
        <ele>742</ele>
        <time>2017-10-19T20:12:46Z</time>
      </trkpt>
      <trkpt lat="45.7307" lon="2.54332">
        <ele>742</ele>
        <time>2017-10-19T20:14:46Z</time>
      </trkpt>
      <trkpt lat="45.73069" lon="2.54322">
        <ele>743</ele>
        <time>2017-10-19T20:16:46Z</time>
      </trkpt>
      <trkpt lat="45.73068" lon="2.54313">
        <ele>743</ele>
        <time>2017-10-19T20:18:46Z</time>
      </trkpt>
      <trkpt lat="45.73068" lon="2.54305">
        <ele>744</ele>
        <time>2017-10-19T20:20:46Z</time>
      </trkpt>
      <trkpt lat="45.73062" lon="2.54263">
        <ele>746</ele>
        <time>2017-10-19T20:22:46Z</time>
      </trkpt>
      <trkpt lat="45.73055" lon="2.54249">
        <ele>746</ele>
        <time>2017-10-19T20:24:46Z</time>
      </trkpt>
      <trkpt lat="45.73054" lon="2.54248">
        <ele>746</ele>
        <time>2017-10-19T20:26:46Z</time>
      </trkpt>
      <trkpt lat="45.73043" lon="2.54223">
        <ele>748</ele>
        <time>2017-10-19T20:28:46Z</time>
      </trkpt>
      <trkpt lat="45.73032" lon="2.54197">
        <ele>750</ele>
        <time>2017-10-19T20:30:46Z</time>
      </trkpt>
      <trkpt lat="45.73012" lon="2.54157">
        <ele>753</ele>
        <time>2017-10-19T20:32:46Z</time>
      </trkpt>
      <trkpt lat="45.72992" lon="2.54128">
        <ele>753</ele>
        <time>2017-10-19T20:34:46Z</time>
      </trkpt>
      <trkpt lat="45.72957" lon="2.54134">
        <ele>751</ele>
        <time>2017-10-19T20:36:46Z</time>
      </trkpt>
      <trkpt lat="45.72884" lon="2.54165">
        <ele>746</ele>
        <time>2017-10-19T20:38:46Z</time>
      </trkpt>
      <trkpt lat="45.72785" lon="2.54205">
        <ele>741</ele>
        <time>2017-10-19T20:40:46Z</time>
      </trkpt>
      <trkpt lat="45.72778" lon="2.54206">
        <ele>740</ele>
        <time>2017-10-19T20:42:46Z</time>
      </trkpt>
      <trkpt lat="45.7277" lon="2.54204">
        <ele>740</ele>
        <time>2017-10-19T20:44:46Z</time>
      </trkpt>
      <trkpt lat="45.72763" lon="2.54201">
        <ele>740</ele>
        <time>2017-10-19T20:46:46Z</time>
      </trkpt>
      <trkpt lat="45.72758" lon="2.54195">
        <ele>741</ele>
        <time>2017-10-19T20:48:46Z</time>
      </trkpt>
      <trkpt lat="45.72748" lon="2.54181">
        <ele>741</ele>
        <time>2017-10-19T20:50:46Z</time>
      </trkpt>
      <trkpt lat="45.72738" lon="2.54161">
        <ele>742</ele>
        <time>2017-10-19T20:52:46Z</time>
      </trkpt>
      <trkpt lat="45.72727" lon="2.54138">
        <ele>742</ele>
        <time>2017-10-19T20:54:46Z</time>
      </trkpt>
      <trkpt lat="45.72715" lon="2.54097">
        <ele>743</ele>
        <time>2017-10-19T20:56:46Z</time>
      </trkpt>
      <trkpt lat="45.72712" lon="2.54091">
        <ele>743</ele>
        <time>2017-10-19T20:58:46Z</time>
      </trkpt>
      <trkpt lat="45.72709" lon="2.54085">
        <ele>743</ele>
        <time>2017-10-19T21:00:46Z</time>
      </trkpt>
      <trkpt lat="45.72704" lon="2.54081">
        <ele>743</ele>
        <time>2017-10-19T21:02:46Z</time>
      </trkpt>
      <trkpt lat="45.72698" lon="2.54077">
        <ele>743</ele>
        <time>2017-10-19T21:04:46Z</time>
      </trkpt>
      <trkpt lat="45.72686" lon="2.54076">
        <ele>742</ele>
        <time>2017-10-19T21:06:46Z</time>
      </trkpt>
      <trkpt lat="45.72664" lon="2.5408">
        <ele>742</ele>
        <time>2017-10-19T21:08:46Z</time>
      </trkpt>
      <trkpt lat="45.72646" lon="2.54086">
        <ele>743</ele>
        <time>2017-10-19T21:10:46Z</time>
      </trkpt>
      <trkpt lat="45.72642" lon="2.54083">
        <ele>743</ele>
        <time>2017-10-19T21:12:46Z</time>
      </trkpt>
      <trkpt lat="45.72625" lon="2.54084">
        <ele>743</ele>
        <time>2017-10-19T21:14:46Z</time>
      </trkpt>
      <trkpt lat="45.72599" lon="2.5409">
        <ele>744</ele>
        <time>2017-10-19T21:16:46Z</time>
      </trkpt>
      <trkpt lat="45.72573" lon="2.54096">
        <ele>745</ele>
        <time>2017-10-19T21:18:46Z</time>
      </trkpt>
      <trkpt lat="45.72543" lon="2.54098">
        <ele>747</ele>
        <time>2017-10-19T21:20:46Z</time>
      </trkpt>
      <trkpt lat="45.72503" lon="2.54101">
        <ele>749</ele>
        <time>2017-10-19T21:22:46Z</time>
      </trkpt>
      <trkpt lat="45.72446" lon="2.54104">
        <ele>749</ele>
        <time>2017-10-19T21:24:46Z</time>
      </trkpt>
      <trkpt lat="45.72414" lon="2.54105">
        <ele>749</ele>
        <time>2017-10-19T21:26:46Z</time>
      </trkpt>
      <trkpt lat="45.72409" lon="2.5411">
        <ele>748</ele>
        <time>2017-10-19T21:28:46Z</time>
      </trkpt>
      <trkpt lat="45.724" lon="2.54118">
        <ele>748</ele>
        <time>2017-10-19T21:30:46Z</time>
      </trkpt>
      <trkpt lat="45.72388" lon="2.54125">
        <ele>747</ele>
        <time>2017-10-19T21:32:46Z</time>
      </trkpt>
      <trkpt lat="45.7233" lon="2.54165">
        <ele>743</ele>
        <time>2017-10-19T21:34:46Z</time>
      </trkpt>
      <trkpt lat="45.72297" lon="2.54187">
        <ele>742</ele>
        <time>2017-10-19T21:36:46Z</time>
      </trkpt>
      <trkpt lat="45.7228" lon="2.54197">
        <ele>741</ele>
        <time>2017-10-19T21:38:46Z</time>
      </trkpt>
      <trkpt lat="45.72217" lon="2.54219">
        <ele>743</ele>
        <time>2017-10-19T21:40:46Z</time>
      </trkpt>
      <trkpt lat="45.72213" lon="2.54223">
        <ele>743</ele>
        <time>2017-10-19T21:42:46Z</time>
      </trkpt>
      <trkpt lat="45.72209" lon="2.54228">
        <ele>743</ele>
        <time>2017-10-19T21:44:46Z</time>
      </trkpt>
      <trkpt lat="45.72207" lon="2.54234">
        <ele>744</ele>
        <time>2017-10-19T21:46:46Z</time>
      </trkpt>
      <trkpt lat="45.72205" lon="2.54241">
        <ele>744</ele>
        <time>2017-10-19T21:48:46Z</time>
      </trkpt>
      <trkpt lat="45.72204" lon="2.54255">
        <ele>744</ele>
        <time>2017-10-19T21:50:46Z</time>
      </trkpt>
      <trkpt lat="45.72205" lon="2.54269">
        <ele>743</ele>
        <time>2017-10-19T21:52:46Z</time>
      </trkpt>
      <trkpt lat="45.72205" lon="2.54285">
        <ele>743</ele>
        <time>2017-10-19T21:54:46Z</time>
      </trkpt>
      <trkpt lat="45.72219" lon="2.54509">
        <ele>738</ele>
        <time>2017-10-19T21:56:46Z</time>
      </trkpt>
      <trkpt lat="45.72223" lon="2.54536">
        <ele>739</ele>
        <time>2017-10-19T21:58:46Z</time>
      </trkpt>
      <trkpt lat="45.72225" lon="2.54542">
        <ele>739</ele>
        <time>2017-10-19T22:00:46Z</time>
      </trkpt>
      <trkpt lat="45.72229" lon="2.54547">
        <ele>739</ele>
        <time>2017-10-19T22:02:46Z</time>
      </trkpt>
      <trkpt lat="45.72235" lon="2.54556">
        <ele>740</ele>
        <time>2017-10-19T22:04:46Z</time>
      </trkpt>
      <trkpt lat="45.72253" lon="2.54576">
        <ele>741</ele>
        <time>2017-10-19T22:06:46Z</time>
      </trkpt>
      <trkpt lat="45.72287" lon="2.54601">
        <ele>740</ele>
        <time>2017-10-19T22:08:46Z</time>
      </trkpt>
      <trkpt lat="45.72295" lon="2.54602">
        <ele>740</ele>
        <time>2017-10-19T22:10:46Z</time>
      </trkpt>
      <trkpt lat="45.72337" lon="2.54605">
        <ele>739</ele>
        <time>2017-10-19T22:12:46Z</time>
      </trkpt>
      <trkpt lat="45.7235" lon="2.54611">
        <ele>739</ele>
        <time>2017-10-19T22:14:46Z</time>
      </trkpt>
      <trkpt lat="45.72357" lon="2.54619">
        <ele>739</ele>
        <time>2017-10-19T22:16:46Z</time>
      </trkpt>
      <trkpt lat="45.72364" lon="2.54628">
        <ele>739</ele>
        <time>2017-10-19T22:18:46Z</time>
      </trkpt>
      <trkpt lat="45.72399" lon="2.54695">
        <ele>740</ele>
        <time>2017-10-19T22:20:46Z</time>
      </trkpt>
      <trkpt lat="45.7242" lon="2.54742">
        <ele>741</ele>
        <time>2017-10-19T22:22:46Z</time>
      </trkpt>
      <trkpt lat="45.72455" lon="2.54819">
        <ele>740</ele>
        <time>2017-10-19T22:24:46Z</time>
      </trkpt>
      <trkpt lat="45.72491" lon="2.54889">
        <ele>740</ele>
        <time>2017-10-19T22:26:46Z</time>
      </trkpt>
      <trkpt lat="45.72515" lon="2.54944">
        <ele>742</ele>
        <time>2017-10-19T22:28:46Z</time>
      </trkpt>
      <trkpt lat="45.72513" lon="2.54947">
        <ele>741</ele>
        <time>2017-10-19T22:30:46Z</time>
      </trkpt>
      <trkpt lat="45.72407" lon="2.55062">
        <ele>741</ele>
        <time>2017-10-19T22:32:46Z</time>
      </trkpt>
      <trkpt lat="45.72348" lon="2.55127">
        <ele>745</ele>
        <time>2017-10-19T22:34:46Z</time>
      </trkpt>
      <trkpt lat="45.72281" lon="2.55199">
        <ele>745</ele>
        <time>2017-10-19T22:36:46Z</time>
      </trkpt>
      <trkpt lat="45.72266" lon="2.55221">
        <ele>745</ele>
        <time>2017-10-19T22:38:46Z</time>
      </trkpt>
      <trkpt lat="45.72257" lon="2.5524">
        <ele>745</ele>
        <time>2017-10-19T22:40:46Z</time>
      </trkpt>
      <trkpt lat="45.72247" lon="2.55268">
        <ele>744</ele>
        <time>2017-10-19T22:42:46Z</time>
      </trkpt>
      <trkpt lat="45.72246" lon="2.55275">
        <ele>744</ele>
        <time>2017-10-19T22:44:46Z</time>
      </trkpt>
      <trkpt lat="45.72245" lon="2.55284">
        <ele>744</ele>
        <time>2017-10-19T22:46:46Z</time>
      </trkpt>
      <trkpt lat="45.72245" lon="2.55292">
        <ele>744</ele>
        <time>2017-10-19T22:48:46Z</time>
      </trkpt>
      <trkpt lat="45.72251" lon="2.554">
        <ele>744</ele>
        <time>2017-10-19T22:50:46Z</time>
      </trkpt>
      <trkpt lat="45.72246" lon="2.55438">
        <ele>747</ele>
        <time>2017-10-19T22:52:46Z</time>
      </trkpt>
      <trkpt lat="45.72237" lon="2.5548">
        <ele>750</ele>
        <time>2017-10-19T22:54:46Z</time>
      </trkpt>
      <trkpt lat="45.72234" lon="2.55523">
        <ele>751</ele>
        <time>2017-10-19T22:56:46Z</time>
      </trkpt>
      <trkpt lat="45.72236" lon="2.55523">
        <ele>751</ele>
        <time>2017-10-19T22:58:46Z</time>
      </trkpt>
      <trkpt lat="45.72237" lon="2.55522">
        <ele>751</ele>
        <time>2017-10-19T23:00:46Z</time>
      </trkpt>
      <trkpt lat="45.72246" lon="2.5552">
        <ele>750</ele>
        <time>2017-10-19T23:02:46Z</time>
      </trkpt>
      <trkpt lat="45.72255" lon="2.5552">
        <ele>750</ele>
        <time>2017-10-19T23:04:46Z</time>
      </trkpt>
      <trkpt lat="45.72256" lon="2.5552">
        <ele>749</ele>
        <time>2017-10-19T23:06:46Z</time>
      </trkpt>
      <trkpt lat="45.7227" lon="2.55523">
        <ele>749</ele>
        <time>2017-10-19T23:08:46Z</time>
      </trkpt>
      <trkpt lat="45.72291" lon="2.55534">
        <ele>748</ele>
        <time>2017-10-19T23:10:46Z</time>
      </trkpt>
      <trkpt lat="45.72322" lon="2.55554">
        <ele>747</ele>
        <time>2017-10-19T23:12:46Z</time>
      </trkpt>
      <trkpt lat="45.72327" lon="2.55559">
        <ele>747</ele>
        <time>2017-10-19T23:14:46Z</time>
      </trkpt>
      <trkpt lat="45.72333" lon="2.55563">
        <ele>747</ele>
        <time>2017-10-19T23:16:46Z</time>
      </trkpt>
      <trkpt lat="45.7236" lon="2.55589">
        <ele>747</ele>
        <time>2017-10-19T23:18:46Z</time>
      </trkpt>
      <trkpt lat="45.72386" lon="2.55612">
        <ele>747</ele>
        <time>2017-10-19T23:20:46Z</time>
      </trkpt>
      <trkpt lat="45.72446" lon="2.5567">
        <ele>746</ele>
        <time>2017-10-19T23:22:46Z</time>
      </trkpt>
      <trkpt lat="45.72459" lon="2.55685">
        <ele>746</ele>
        <time>2017-10-19T23:24:46Z</time>
      </trkpt>
      <trkpt lat="45.72464" lon="2.55692">
        <ele>745</ele>
        <time>2017-10-19T23:26:46Z</time>
      </trkpt>
      <trkpt lat="45.72477" lon="2.55709">
        <ele>744</ele>
        <time>2017-10-19T23:28:46Z</time>
      </trkpt>
      <trkpt lat="45.72503" lon="2.55735">
        <ele>742</ele>
        <time>2017-10-19T23:30:46Z</time>
      </trkpt>
      <trkpt lat="45.72519" lon="2.55749">
        <ele>742</ele>
        <time>2017-10-19T23:32:46Z</time>
      </trkpt>
      <trkpt lat="45.72534" lon="2.55759">
        <ele>741</ele>
        <time>2017-10-19T23:34:46Z</time>
      </trkpt>
      <trkpt lat="45.72538" lon="2.55761">
        <ele>741</ele>
        <time>2017-10-19T23:36:46Z</time>
      </trkpt>
      <trkpt lat="45.72554" lon="2.5577">
        <ele>740</ele>
        <time>2017-10-19T23:38:46Z</time>
      </trkpt>
      <trkpt lat="45.72576" lon="2.55794">
        <ele>739</ele>
        <time>2017-10-19T23:40:46Z</time>
      </trkpt>
      <trkpt lat="45.72592" lon="2.55803">
        <ele>739</ele>
        <time>2017-10-19T23:42:46Z</time>
      </trkpt>
      <trkpt lat="45.72594" lon="2.55806">
        <ele>739</ele>
        <time>2017-10-19T23:44:46Z</time>
      </trkpt>
      <trkpt lat="45.72597" lon="2.55809">
        <ele>739</ele>
        <time>2017-10-19T23:46:46Z</time>
      </trkpt>
      <trkpt lat="45.72626" lon="2.5582">
        <ele>739</ele>
        <time>2017-10-19T23:48:46Z</time>
      </trkpt>
      <trkpt lat="45.72662" lon="2.55837">
        <ele>739</ele>
        <time>2017-10-19T23:50:46Z</time>
      </trkpt>
      <trkpt lat="45.72701" lon="2.55854">
        <ele>738</ele>
        <time>2017-10-19T23:52:46Z</time>
      </trkpt>
      <trkpt lat="45.72722" lon="2.55872">
        <ele>738</ele>
        <time>2017-10-19T23:54:46Z</time>
      </trkpt>
      <trkpt lat="45.72727" lon="2.55878">
        <ele>738</ele>
        <time>2017-10-19T23:56:46Z</time>
      </trkpt>
      <trkpt lat="45.72727" lon="2.5588">
        <ele>738</ele>
        <time>2017-10-19T23:58:46Z</time>
      </trkpt>
      <trkpt lat="45.72733" lon="2.55887">
        <ele>738</ele>
        <time>2017-10-20T00:00:46Z</time>
      </trkpt>
      <trkpt lat="45.72738" lon="2.55892">
        <ele>737</ele>
        <time>2017-10-20T00:02:46Z</time>
      </trkpt>
      <trkpt lat="45.72743" lon="2.55897">
        <ele>737</ele>
        <time>2017-10-20T00:04:46Z</time>
      </trkpt>
      <trkpt lat="45.72751" lon="2.5591">
        <ele>737</ele>
        <time>2017-10-20T00:06:46Z</time>
      </trkpt>
      <trkpt lat="45.72757" lon="2.55915">
        <ele>737</ele>
        <time>2017-10-20T00:08:46Z</time>
      </trkpt>
      <trkpt lat="45.72773" lon="2.55931">
        <ele>736</ele>
        <time>2017-10-20T00:10:46Z</time>
      </trkpt>
      <trkpt lat="45.72778" lon="2.55934">
        <ele>736</ele>
        <time>2017-10-20T00:12:46Z</time>
      </trkpt>
      <trkpt lat="45.72783" lon="2.55939">
        <ele>736</ele>
        <time>2017-10-20T00:14:46Z</time>
      </trkpt>
      <trkpt lat="45.72784" lon="2.5594">
        <ele>736</ele>
        <time>2017-10-20T00:16:46Z</time>
      </trkpt>
      <trkpt lat="45.72797" lon="2.55944">
        <ele>736</ele>
        <time>2017-10-20T00:18:46Z</time>
      </trkpt>
      <trkpt lat="45.72812" lon="2.55956">
        <ele>736</ele>
        <time>2017-10-20T00:20:46Z</time>
      </trkpt>
      <trkpt lat="45.7282" lon="2.55969">
        <ele>736</ele>
        <time>2017-10-20T00:22:46Z</time>
      </trkpt>
      <trkpt lat="45.72821" lon="2.55971">
        <ele>736</ele>
        <time>2017-10-20T00:24:46Z</time>
      </trkpt>
      <trkpt lat="45.72833" lon="2.55992">
        <ele>737</ele>
        <time>2017-10-20T00:26:46Z</time>
      </trkpt>
      <trkpt lat="45.7284" lon="2.55999">
        <ele>737</ele>
        <time>2017-10-20T00:28:46Z</time>
      </trkpt>
      <trkpt lat="45.72842" lon="2.56003">
        <ele>738</ele>
        <time>2017-10-20T00:30:46Z</time>
      </trkpt>
      <trkpt lat="45.72844" lon="2.56005">
        <ele>738</ele>
        <time>2017-10-20T00:32:46Z</time>
      </trkpt>
      <trkpt lat="45.72855" lon="2.56022">
        <ele>741</ele>
        <time>2017-10-20T00:34:46Z</time>
      </trkpt>
      <trkpt lat="45.72879" lon="2.56046">
        <ele>743</ele>
        <time>2017-10-20T00:36:46Z</time>
      </trkpt>
      <trkpt lat="45.72901" lon="2.56068">
        <ele>745</ele>
        <time>2017-10-20T00:38:46Z</time>
      </trkpt>
      <trkpt lat="45.72913" lon="2.56084">
        <ele>746</ele>
        <time>2017-10-20T00:40:46Z</time>
      </trkpt>
      <trkpt lat="45.72926" lon="2.56107">
        <ele>747</ele>
        <time>2017-10-20T00:42:46Z</time>
      </trkpt>
      <trkpt lat="45.72938" lon="2.56122">
        <ele>748</ele>
        <time>2017-10-20T00:44:46Z</time>
      </trkpt>
      <trkpt lat="45.72949" lon="2.56135">
        <ele>749</ele>
        <time>2017-10-20T00:46:46Z</time>
      </trkpt>
      <trkpt lat="45.72963" lon="2.5615">
        <ele>750</ele>
        <time>2017-10-20T00:48:46Z</time>
      </trkpt>
      <trkpt lat="45.72989" lon="2.56178">
        <ele>750</ele>
        <time>2017-10-20T00:50:46Z</time>
      </trkpt>
      <trkpt lat="45.72998" lon="2.56187">
        <ele>749</ele>
        <time>2017-10-20T00:52:46Z</time>
      </trkpt>
      <trkpt lat="45.73047" lon="2.56244">
        <ele>749</ele>
        <time>2017-10-20T00:54:46Z</time>
      </trkpt>
      <trkpt lat="45.73069" lon="2.56263">
        <ele>750</ele>
        <time>2017-10-20T00:56:46Z</time>
      </trkpt>
      <trkpt lat="45.73087" lon="2.56288">
        <ele>750</ele>
        <time>2017-10-20T00:58:46Z</time>
      </trkpt>
      <trkpt lat="45.73089" lon="2.56294">
        <ele>751</ele>
        <time>2017-10-20T01:00:46Z</time>
      </trkpt>
      <trkpt lat="45.73106" lon="2.56339">
        <ele>751</ele>
        <time>2017-10-20T01:02:46Z</time>
      </trkpt>
      <trkpt lat="45.73109" lon="2.56352">
        <ele>751</ele>
        <time>2017-10-20T01:04:46Z</time>
      </trkpt>
      <trkpt lat="45.73111" lon="2.5636">
        <ele>751</ele>
        <time>2017-10-20T01:06:46Z</time>
      </trkpt>
      <trkpt lat="45.73115" lon="2.56378">
        <ele>751</ele>
        <time>2017-10-20T01:08:46Z</time>
      </trkpt>
      <trkpt lat="45.73114" lon="2.56383">
        <ele>751</ele>
        <time>2017-10-20T01:10:46Z</time>
      </trkpt>
      <trkpt lat="45.73119" lon="2.56392">
        <ele>751</ele>
        <time>2017-10-20T01:12:46Z</time>
      </trkpt>
      <trkpt lat="45.73127" lon="2.56416">
        <ele>750</ele>
        <time>2017-10-20T01:14:46Z</time>
      </trkpt>
      <trkpt lat="45.73135" lon="2.56438">
        <ele>750</ele>
        <time>2017-10-20T01:16:46Z</time>
      </trkpt>
      <trkpt lat="45.73137" lon="2.56445">
        <ele>750</ele>
        <time>2017-10-20T01:18:46Z</time>
      </trkpt>
      <trkpt lat="45.73137" lon="2.56448">
        <ele>750</ele>
        <time>2017-10-20T01:20:46Z</time>
      </trkpt>
      <trkpt lat="45.73138" lon="2.56455">
        <ele>750</ele>
        <time>2017-10-20T01:22:46Z</time>
      </trkpt>
      <trkpt lat="45.73151" lon="2.56519">
        <ele>748</ele>
        <time>2017-10-20T01:24:46Z</time>
      </trkpt>
      <trkpt lat="45.73164" lon="2.56576">
        <ele>747</ele>
        <time>2017-10-20T01:26:46Z</time>
      </trkpt>
      <trkpt lat="45.73187" lon="2.56654">
        <ele>746</ele>
        <time>2017-10-20T01:28:46Z</time>
      </trkpt>
      <trkpt lat="45.7322" lon="2.56705">
        <ele>746</ele>
        <time>2017-10-20T01:30:46Z</time>
      </trkpt>
      <trkpt lat="45.73248" lon="2.56745">
        <ele>747</ele>
        <time>2017-10-20T01:32:46Z</time>
      </trkpt>
      <trkpt lat="45.73263" lon="2.56772">
        <ele>747</ele>
        <time>2017-10-20T01:34:46Z</time>
      </trkpt>
      <trkpt lat="45.73278" lon="2.568">
        <ele>746</ele>
        <time>2017-10-20T01:36:46Z</time>
      </trkpt>
      <trkpt lat="45.7328" lon="2.56802">
        <ele>746</ele>
        <time>2017-10-20T01:38:46Z</time>
      </trkpt>
      <trkpt lat="45.73281" lon="2.56805">
        <ele>746</ele>
        <time>2017-10-20T01:40:46Z</time>
      </trkpt>
      <trkpt lat="45.7331" lon="2.56891">
        <ele>744</ele>
        <time>2017-10-20T01:42:46Z</time>
      </trkpt>
      <trkpt lat="45.73337" lon="2.56931">
        <ele>743</ele>
        <time>2017-10-20T01:44:46Z</time>
      </trkpt>
      <trkpt lat="45.73367" lon="2.5697">
        <ele>741</ele>
        <time>2017-10-20T01:46:46Z</time>
      </trkpt>
      <trkpt lat="45.73396" lon="2.56997">
        <ele>740</ele>
        <time>2017-10-20T01:48:46Z</time>
      </trkpt>
      <trkpt lat="45.7343" lon="2.5703">
        <ele>738</ele>
        <time>2017-10-20T01:50:46Z</time>
      </trkpt>
      <trkpt lat="45.73437" lon="2.57032">
        <ele>738</ele>
        <time>2017-10-20T01:52:46Z</time>
      </trkpt>
      <trkpt lat="45.73441" lon="2.57027">
        <ele>737</ele>
        <time>2017-10-20T01:54:46Z</time>
      </trkpt>
      <trkpt lat="45.73444" lon="2.57025">
        <ele>737</ele>
        <time>2017-10-20T01:56:46Z</time>
      </trkpt>
      <trkpt lat="45.73476" lon="2.57015">
        <ele>735</ele>
        <time>2017-10-20T01:58:46Z</time>
      </trkpt>
      <trkpt lat="45.73487" lon="2.57027">
        <ele>734</ele>
        <time>2017-10-20T02:00:46Z</time>
      </trkpt>
      <trkpt lat="45.73498" lon="2.57067">
        <ele>734</ele>
        <time>2017-10-20T02:02:46Z</time>
      </trkpt>
      <trkpt lat="45.73498" lon="2.57094">
        <ele>734</ele>
        <time>2017-10-20T02:04:46Z</time>
      </trkpt>
      <trkpt lat="45.73497" lon="2.57118">
        <ele>733</ele>
        <time>2017-10-20T02:06:46Z</time>
      </trkpt>
      <trkpt lat="45.73505" lon="2.57154">
        <ele>732</ele>
        <time>2017-10-20T02:08:46Z</time>
      </trkpt>
      <trkpt lat="45.73517" lon="2.57169">
        <ele>732</ele>
        <time>2017-10-20T02:10:46Z</time>
      </trkpt>
      <trkpt lat="45.73542" lon="2.57213">
        <ele>736</ele>
        <time>2017-10-20T02:12:46Z</time>
      </trkpt>
      <trkpt lat="45.73558" lon="2.57235">
        <ele>738</ele>
        <time>2017-10-20T02:14:46Z</time>
      </trkpt>
      <trkpt lat="45.73575" lon="2.57255">
        <ele>740</ele>
        <time>2017-10-20T02:16:46Z</time>
      </trkpt>
      <trkpt lat="45.73595" lon="2.57276">
        <ele>742</ele>
        <time>2017-10-20T02:18:46Z</time>
      </trkpt>
      <trkpt lat="45.73611" lon="2.57293">
        <ele>743</ele>
        <time>2017-10-20T02:20:46Z</time>
      </trkpt>
      <trkpt lat="45.73626" lon="2.57306">
        <ele>744</ele>
        <time>2017-10-20T02:22:46Z</time>
      </trkpt>
      <trkpt lat="45.73646" lon="2.5732">
        <ele>744</ele>
        <time>2017-10-20T02:24:46Z</time>
      </trkpt>
      <trkpt lat="45.73664" lon="2.57339">
        <ele>745</ele>
        <time>2017-10-20T02:26:46Z</time>
      </trkpt>
      <trkpt lat="45.73667" lon="2.57343">
        <ele>746</ele>
        <time>2017-10-20T02:28:46Z</time>
      </trkpt>
      <trkpt lat="45.73674" lon="2.57369">
        <ele>747</ele>
        <time>2017-10-20T02:30:46Z</time>
      </trkpt>
      <trkpt lat="45.73685" lon="2.57401">
        <ele>749</ele>
        <time>2017-10-20T02:32:46Z</time>
      </trkpt>
      <trkpt lat="45.73697" lon="2.57443">
        <ele>750</ele>
        <time>2017-10-20T02:34:46Z</time>
      </trkpt>
      <trkpt lat="45.73714" lon="2.57499">
        <ele>749</ele>
        <time>2017-10-20T02:36:46Z</time>
      </trkpt>
      <trkpt lat="45.73714" lon="2.57505">
        <ele>749</ele>
        <time>2017-10-20T02:38:46Z</time>
      </trkpt>
      <trkpt lat="45.73713" lon="2.57509">
        <ele>749</ele>
        <time>2017-10-20T02:40:46Z</time>
      </trkpt>
      <trkpt lat="45.73711" lon="2.57516">
        <ele>749</ele>
        <time>2017-10-20T02:42:46Z</time>
      </trkpt>
      <trkpt lat="45.73694" lon="2.57536">
        <ele>749</ele>
        <time>2017-10-20T02:44:46Z</time>
      </trkpt>
      <trkpt lat="45.73689" lon="2.57537">
        <ele>749</ele>
        <time>2017-10-20T02:46:46Z</time>
      </trkpt>
      <trkpt lat="45.73649" lon="2.57503">
        <ele>750</ele>
        <time>2017-10-20T02:48:46Z</time>
      </trkpt>
      <trkpt lat="45.73643" lon="2.57502">
        <ele>750</ele>
        <time>2017-10-20T02:50:46Z</time>
      </trkpt>
      <trkpt lat="45.73613" lon="2.57474">
        <ele>748</ele>
        <time>2017-10-20T02:52:46Z</time>
      </trkpt>
      <trkpt lat="45.73562" lon="2.57433">
        <ele>749</ele>
        <time>2017-10-20T02:54:46Z</time>
      </trkpt>
      <trkpt lat="45.73555" lon="2.57433">
        <ele>749</ele>
        <time>2017-10-20T02:56:46Z</time>
      </trkpt>
      <trkpt lat="45.73546" lon="2.57435">
        <ele>749</ele>
        <time>2017-10-20T02:58:46Z</time>
      </trkpt>
      <trkpt lat="45.73541" lon="2.57441">
        <ele>749</ele>
        <time>2017-10-20T03:00:46Z</time>
      </trkpt>
      <trkpt lat="45.73539" lon="2.57445">
        <ele>749</ele>
        <time>2017-10-20T03:02:46Z</time>
      </trkpt>
      <trkpt lat="45.73524" lon="2.57483">
        <ele>748</ele>
        <time>2017-10-20T03:04:46Z</time>
      </trkpt>
      <trkpt lat="45.7351" lon="2.57526">
        <ele>747</ele>
        <time>2017-10-20T03:06:46Z</time>
      </trkpt>
      <trkpt lat="45.73486" lon="2.57608">
        <ele>743</ele>
        <time>2017-10-20T03:08:46Z</time>
      </trkpt>
      <trkpt lat="45.73483" lon="2.57615">
        <ele>742</ele>
        <time>2017-10-20T03:10:46Z</time>
      </trkpt>
      <trkpt lat="45.73479" lon="2.57623">
        <ele>742</ele>
        <time>2017-10-20T03:12:46Z</time>
      </trkpt>
      <trkpt lat="45.73473" lon="2.57631">
        <ele>742</ele>
        <time>2017-10-20T03:14:46Z</time>
      </trkpt>
      <trkpt lat="45.73431" lon="2.57681">
        <ele>743</ele>
        <time>2017-10-20T03:16:46Z</time>
      </trkpt>
      <trkpt lat="45.7341" lon="2.57706">
        <ele>744</ele>
        <time>2017-10-20T03:18:46Z</time>
      </trkpt>
      <trkpt lat="45.73338" lon="2.57796">
        <ele>748</ele>
        <time>2017-10-20T03:20:46Z</time>
      </trkpt>
      <trkpt lat="45.73318" lon="2.57823">
        <ele>749</ele>
        <time>2017-10-20T03:22:46Z</time>
      </trkpt>
      <trkpt lat="45.73313" lon="2.57829">
        <ele>749</ele>
        <time>2017-10-20T03:24:46Z</time>
      </trkpt>
      <trkpt lat="45.73303" lon="2.57842">
        <ele>749</ele>
        <time>2017-10-20T03:26:46Z</time>
      </trkpt>
      <trkpt lat="45.73301" lon="2.57843">
        <ele>749</ele>
        <time>2017-10-20T03:28:46Z</time>
      </trkpt>
      <trkpt lat="45.73297" lon="2.57849">
        <ele>749</ele>
        <time>2017-10-20T03:30:46Z</time>
      </trkpt>
      <trkpt lat="45.73256" lon="2.57902">
        <ele>749</ele>
        <time>2017-10-20T03:32:46Z</time>
      </trkpt>
      <trkpt lat="45.73165" lon="2.58017">
        <ele>744</ele>
        <time>2017-10-20T03:34:46Z</time>
      </trkpt>
      <trkpt lat="45.73133" lon="2.58058">
        <ele>745</ele>
        <time>2017-10-20T03:36:46Z</time>
      </trkpt>
      <trkpt lat="45.73059" lon="2.58149">
        <ele>750</ele>
        <time>2017-10-20T03:38:46Z</time>
      </trkpt>
      <trkpt lat="45.73034" lon="2.58182">
        <ele>752</ele>
        <time>2017-10-20T03:40:46Z</time>
      </trkpt>
      <trkpt lat="45.73008" lon="2.58213">
        <ele>753</ele>
        <time>2017-10-20T03:42:46Z</time>
      </trkpt>
      <trkpt lat="45.72988" lon="2.58238">
        <ele>754</ele>
        <time>2017-10-20T03:44:46Z</time>
      </trkpt>
      <trkpt lat="45.72983" lon="2.58247">
        <ele>754</ele>
        <time>2017-10-20T03:46:46Z</time>
      </trkpt>
      <trkpt lat="45.72963" lon="2.58313">
        <ele>754</ele>
        <time>2017-10-20T03:48:46Z</time>
      </trkpt>
      <trkpt lat="45.72941" lon="2.58403">
        <ele>756</ele>
        <time>2017-10-20T03:50:46Z</time>
      </trkpt>
      <trkpt lat="45.72899" lon="2.5848">
        <ele>759</ele>
        <time>2017-10-20T03:52:46Z</time>
      </trkpt>
      <trkpt lat="45.72884" lon="2.58504">
        <ele>760</ele>
        <time>2017-10-20T03:54:46Z</time>
      </trkpt>
      <trkpt lat="45.72883" lon="2.58506">
        <ele>760</ele>
        <time>2017-10-20T03:56:46Z</time>
      </trkpt>
      <trkpt lat="45.72883" lon="2.58509">
        <ele>760</ele>
        <time>2017-10-20T03:58:46Z</time>
      </trkpt>
      <trkpt lat="45.72884" lon="2.58537">
        <ele>762</ele>
        <time>2017-10-20T04:00:46Z</time>
      </trkpt>
      <trkpt lat="45.72883" lon="2.58545">
        <ele>763</ele>
        <time>2017-10-20T04:02:46Z</time>
      </trkpt>
      <trkpt lat="45.7288" lon="2.58591">
        <ele>765</ele>
        <time>2017-10-20T04:04:46Z</time>
      </trkpt>
      <trkpt lat="45.72885" lon="2.58649">
        <ele>766</ele>
        <time>2017-10-20T04:06:46Z</time>
      </trkpt>
      <trkpt lat="45.72896" lon="2.58705">
        <ele>767</ele>
        <time>2017-10-20T04:08:46Z</time>
      </trkpt>
      <trkpt lat="45.72915" lon="2.58759">
        <ele>766</ele>
        <time>2017-10-20T04:10:46Z</time>
      </trkpt>
      <trkpt lat="45.72934" lon="2.58831">
        <ele>768</ele>
        <time>2017-10-20T04:12:46Z</time>
      </trkpt>
      <trkpt lat="45.72946" lon="2.58907">
        <ele>771</ele>
        <time>2017-10-20T04:14:46Z</time>
      </trkpt>
      <trkpt lat="45.72951" lon="2.58976">
        <ele>771</ele>
        <time>2017-10-20T04:16:46Z</time>
      </trkpt>
      <trkpt lat="45.72956" lon="2.59024">
        <ele>771</ele>
        <time>2017-10-20T04:18:46Z</time>
      </trkpt>
      <trkpt lat="45.72962" lon="2.59051">
        <ele>770</ele>
        <time>2017-10-20T04:20:46Z</time>
      </trkpt>
      <trkpt lat="45.72964" lon="2.59058">
        <ele>770</ele>
        <time>2017-10-20T04:22:46Z</time>
      </trkpt>
      <trkpt lat="45.7298" lon="2.59087">
        <ele>770</ele>
        <time>2017-10-20T04:24:46Z</time>
      </trkpt>
      <trkpt lat="45.72983" lon="2.59092">
        <ele>770</ele>
        <time>2017-10-20T04:26:46Z</time>
      </trkpt>
      <trkpt lat="45.73054" lon="2.59186">
        <ele>770</ele>
        <time>2017-10-20T04:28:46Z</time>
      </trkpt>
      <trkpt lat="45.7307" lon="2.59202">
        <ele>769</ele>
        <time>2017-10-20T04:30:46Z</time>
      </trkpt>
      <trkpt lat="45.73085" lon="2.5922">
        <ele>768</ele>
        <time>2017-10-20T04:32:46Z</time>
      </trkpt>
      <trkpt lat="45.73089" lon="2.59223">
        <ele>768</ele>
        <time>2017-10-20T04:34:46Z</time>
      </trkpt>
      <trkpt lat="45.73185" lon="2.59325">
        <ele>765</ele>
        <time>2017-10-20T04:36:46Z</time>
      </trkpt>
      <trkpt lat="45.73274" lon="2.5938">
        <ele>761</ele>
        <time>2017-10-20T04:38:46Z</time>
      </trkpt>
      <trkpt lat="45.73359" lon="2.59413">
        <ele>757</ele>
        <time>2017-10-20T04:40:46Z</time>
      </trkpt>
      <trkpt lat="45.73382" lon="2.59422">
        <ele>756</ele>
        <time>2017-10-20T04:42:46Z</time>
      </trkpt>
      <trkpt lat="45.73404" lon="2.59427">
        <ele>755</ele>
        <time>2017-10-20T04:44:46Z</time>
      </trkpt>
      <trkpt lat="45.73421" lon="2.59428">
        <ele>754</ele>
        <time>2017-10-20T04:46:46Z</time>
      </trkpt>
      <trkpt lat="45.73424" lon="2.59431">
        <ele>754</ele>
        <time>2017-10-20T04:48:46Z</time>
      </trkpt>
      <trkpt lat="45.73476" lon="2.59447">
        <ele>755</ele>
        <time>2017-10-20T04:50:46Z</time>
      </trkpt>
      <trkpt lat="45.73478" lon="2.59451">
        <ele>755</ele>
        <time>2017-10-20T04:52:46Z</time>
      </trkpt>
      <trkpt lat="45.7348" lon="2.59456">
        <ele>755</ele>
        <time>2017-10-20T04:54:46Z</time>
      </trkpt>
      <trkpt lat="45.73481" lon="2.59469">
        <ele>755</ele>
        <time>2017-10-20T04:56:46Z</time>
      </trkpt>
      <trkpt lat="45.73483" lon="2.59488">
        <ele>755</ele>
        <time>2017-10-20T04:58:46Z</time>
      </trkpt>
      <trkpt lat="45.73487" lon="2.59565">
        <ele>755</ele>
        <time>2017-10-20T05:00:46Z</time>
      </trkpt>
      <trkpt lat="45.73488" lon="2.59637">
        <ele>755</ele>
        <time>2017-10-20T05:02:46Z</time>
      </trkpt>
      <trkpt lat="45.73492" lon="2.59704">
        <ele>755</ele>
        <time>2017-10-20T05:04:46Z</time>
      </trkpt>
      <trkpt lat="45.7349" lon="2.59747">
        <ele>756</ele>
        <time>2017-10-20T05:06:46Z</time>
      </trkpt>
      <trkpt lat="45.73507" lon="2.59797">
        <ele>757</ele>
        <time>2017-10-20T05:08:46Z</time>
      </trkpt>
      <trkpt lat="45.73524" lon="2.59836">
        <ele>757</ele>
        <time>2017-10-20T05:10:46Z</time>
      </trkpt>
      <trkpt lat="45.7354" lon="2.59863">
        <ele>758</ele>
        <time>2017-10-20T05:12:46Z</time>
      </trkpt>
      <trkpt lat="45.73549" lon="2.59884">
        <ele>758</ele>
        <time>2017-10-20T05:14:46Z</time>
      </trkpt>
      <trkpt lat="45.73554" lon="2.59898">
        <ele>759</ele>
        <time>2017-10-20T05:16:46Z</time>
      </trkpt>
      <trkpt lat="45.73567" lon="2.5993">
        <ele>759</ele>
        <time>2017-10-20T05:18:46Z</time>
      </trkpt>
      <trkpt lat="45.73576" lon="2.59955">
        <ele>759</ele>
        <time>2017-10-20T05:20:46Z</time>
      </trkpt>
      <trkpt lat="45.73581" lon="2.59966">
        <ele>759</ele>
        <time>2017-10-20T05:22:46Z</time>
      </trkpt>
      <trkpt lat="45.7359" lon="2.59995">
        <ele>759</ele>
        <time>2017-10-20T05:24:46Z</time>
      </trkpt>
      <trkpt lat="45.73607" lon="2.60035">
        <ele>758</ele>
        <time>2017-10-20T05:26:46Z</time>
      </trkpt>
      <trkpt lat="45.73632" lon="2.60076">
        <ele>759</ele>
        <time>2017-10-20T05:28:46Z</time>
      </trkpt>
      <trkpt lat="45.7373" lon="2.60189">
        <ele>752</ele>
        <time>2017-10-20T05:30:46Z</time>
      </trkpt>
      <trkpt lat="45.73763" lon="2.60239">
        <ele>746</ele>
        <time>2017-10-20T05:32:46Z</time>
      </trkpt>
      <trkpt lat="45.73768" lon="2.60249">
        <ele>745</ele>
        <time>2017-10-20T05:34:46Z</time>
      </trkpt>
      <trkpt lat="45.73795" lon="2.60287">
        <ele>741</ele>
        <time>2017-10-20T05:36:46Z</time>
      </trkpt>
      <trkpt lat="45.73827" lon="2.60355">
        <ele>737</ele>
        <time>2017-10-20T05:38:46Z</time>
      </trkpt>
      <trkpt lat="45.73849" lon="2.60414">
        <ele>733</ele>
        <time>2017-10-20T05:40:46Z</time>
      </trkpt>
      <trkpt lat="45.73867" lon="2.60442">
        <ele>729</ele>
        <time>2017-10-20T05:42:46Z</time>
      </trkpt>
      <trkpt lat="45.73888" lon="2.60482">
        <ele>725</ele>
        <time>2017-10-20T05:44:46Z</time>
      </trkpt>
      <trkpt lat="45.73954" lon="2.60555">
        <ele>717</ele>
        <time>2017-10-20T05:46:46Z</time>
      </trkpt>
      <trkpt lat="45.74014" lon="2.6062">
        <ele>713</ele>
        <time>2017-10-20T05:48:46Z</time>
      </trkpt>
      <trkpt lat="45.74021" lon="2.60628">
        <ele>713</ele>
        <time>2017-10-20T05:50:46Z</time>
      </trkpt>
      <trkpt lat="45.74022" lon="2.60635">
        <ele>712</ele>
        <time>2017-10-20T05:52:46Z</time>
      </trkpt>
      <trkpt lat="45.74009" lon="2.60669">
        <ele>711</ele>
        <time>2017-10-20T05:54:46Z</time>
      </trkpt>
      <trkpt lat="45.73972" lon="2.60732">
        <ele>711</ele>
        <time>2017-10-20T05:56:46Z</time>
      </trkpt>
      <trkpt lat="45.7397" lon="2.60758">
        <ele>711</ele>
        <time>2017-10-20T05:58:46Z</time>
      </trkpt>
      <trkpt lat="45.73999" lon="2.60803">
        <ele>711</ele>
        <time>2017-10-20T06:00:46Z</time>
      </trkpt>
      <trkpt lat="45.74032" lon="2.60847">
        <ele>711</ele>
        <time>2017-10-20T06:02:46Z</time>
      </trkpt>
      <trkpt lat="45.74043" lon="2.60873">
        <ele>713</ele>
        <time>2017-10-20T06:04:46Z</time>
      </trkpt>
      <trkpt lat="45.74068" lon="2.60923">
        <ele>715</ele>
        <time>2017-10-20T06:06:46Z</time>
      </trkpt>
      <trkpt lat="45.74097" lon="2.60987">
        <ele>719</ele>
        <time>2017-10-20T06:08:46Z</time>
      </trkpt>
      <trkpt lat="45.74113" lon="2.61019">
        <ele>721</ele>
        <time>2017-10-20T06:10:46Z</time>
      </trkpt>
      <trkpt lat="45.7413" lon="2.61047">
        <ele>724</ele>
        <time>2017-10-20T06:12:46Z</time>
      </trkpt>
      <trkpt lat="45.74149" lon="2.61083">
        <ele>728</ele>
        <time>2017-10-20T06:14:46Z</time>
      </trkpt>
      <trkpt lat="45.74156" lon="2.61119">
        <ele>731</ele>
        <time>2017-10-20T06:16:46Z</time>
      </trkpt>
      <trkpt lat="45.74164" lon="2.61134">
        <ele>732</ele>
        <time>2017-10-20T06:18:46Z</time>
      </trkpt>
      <trkpt lat="45.74167" lon="2.61134">
        <ele>732</ele>
        <time>2017-10-20T06:20:46Z</time>
      </trkpt>
      <trkpt lat="45.74205" lon="2.61151">
        <ele>730</ele>
        <time>2017-10-20T06:22:46Z</time>
      </trkpt>
      <trkpt lat="45.74238" lon="2.61156">
        <ele>728</ele>
        <time>2017-10-20T06:24:46Z</time>
      </trkpt>
      <trkpt lat="45.74268" lon="2.6116">
        <ele>725</ele>
        <time>2017-10-20T06:26:46Z</time>
      </trkpt>
      <trkpt lat="45.74329" lon="2.61201">
        <ele>725</ele>
        <time>2017-10-20T06:28:46Z</time>
      </trkpt>
      <trkpt lat="45.74381" lon="2.61231">
        <ele>725</ele>
        <time>2017-10-20T06:30:46Z</time>
      </trkpt>
      <trkpt lat="45.74413" lon="2.61229">
        <ele>723</ele>
        <time>2017-10-20T06:32:46Z</time>
      </trkpt>
      <trkpt lat="45.74502" lon="2.61194">
        <ele>715</ele>
        <time>2017-10-20T06:34:46Z</time>
      </trkpt>
      <trkpt lat="45.74528" lon="2.61193">
        <ele>715</ele>
        <time>2017-10-20T06:36:46Z</time>
      </trkpt>
      <trkpt lat="45.7458" lon="2.61196">
        <ele>714</ele>
        <time>2017-10-20T06:38:46Z</time>
      </trkpt>
      <trkpt lat="45.74594" lon="2.61197">
        <ele>714</ele>
        <time>2017-10-20T06:40:46Z</time>
      </trkpt>
      <trkpt lat="45.74625" lon="2.61203">
        <ele>715</ele>
        <time>2017-10-20T06:42:46Z</time>
      </trkpt>
      <trkpt lat="45.7464" lon="2.61207">
        <ele>715</ele>
        <time>2017-10-20T06:44:46Z</time>
      </trkpt>
      <trkpt lat="45.74655" lon="2.61211">
        <ele>715</ele>
        <time>2017-10-20T06:46:46Z</time>
      </trkpt>
      <trkpt lat="45.74668" lon="2.61214">
        <ele>716</ele>
        <time>2017-10-20T06:48:46Z</time>
      </trkpt>
      <trkpt lat="45.74691" lon="2.61223">
        <ele>716</ele>
        <time>2017-10-20T06:50:46Z</time>
      </trkpt>
      <trkpt lat="45.74743" lon="2.61254">
        <ele>717</ele>
        <time>2017-10-20T06:52:46Z</time>
      </trkpt>
      <trkpt lat="45.74748" lon="2.61253">
        <ele>717</ele>
        <time>2017-10-20T06:54:46Z</time>
      </trkpt>
      <trkpt lat="45.74794" lon="2.6124">
        <ele>717</ele>
        <time>2017-10-20T06:56:46Z</time>
      </trkpt>
      <trkpt lat="45.74834" lon="2.6124">
        <ele>718</ele>
        <time>2017-10-20T06:58:46Z</time>
      </trkpt>
      <trkpt lat="45.74879" lon="2.61241">
        <ele>718</ele>
        <time>2017-10-20T07:00:46Z</time>
      </trkpt>
      <trkpt lat="45.74903" lon="2.61247">
        <ele>718</ele>
        <time>2017-10-20T07:02:46Z</time>
      </trkpt>
      <trkpt lat="45.74937" lon="2.61263">
        <ele>717</ele>
        <time>2017-10-20T07:04:46Z</time>
      </trkpt>
      <trkpt lat="45.74974" lon="2.61297">
        <ele>715</ele>
        <time>2017-10-20T07:06:46Z</time>
      </trkpt>
      <trkpt lat="45.74998" lon="2.61315">
        <ele>714</ele>
        <time>2017-10-20T07:08:46Z</time>
      </trkpt>
      <trkpt lat="45.75003" lon="2.61317">
        <ele>714</ele>
        <time>2017-10-20T07:10:46Z</time>
      </trkpt>
      <trkpt lat="45.75022" lon="2.61317">
        <ele>714</ele>
        <time>2017-10-20T07:12:46Z</time>
      </trkpt>
      <trkpt lat="45.75064" lon="2.61302">
        <ele>716</ele>
        <time>2017-10-20T07:14:46Z</time>
      </trkpt>
      <trkpt lat="45.75104" lon="2.61296">
        <ele>719</ele>
        <time>2017-10-20T07:16:46Z</time>
      </trkpt>
      <trkpt lat="45.75143" lon="2.61294">
        <ele>722</ele>
        <time>2017-10-20T07:18:46Z</time>
      </trkpt>
      <trkpt lat="45.75172" lon="2.61293">
        <ele>724</ele>
        <time>2017-10-20T07:20:46Z</time>
      </trkpt>
      <trkpt lat="45.75201" lon="2.61293">
        <ele>725</ele>
        <time>2017-10-20T07:22:46Z</time>
      </trkpt>
      <trkpt lat="45.75222" lon="2.61294">
        <ele>727</ele>
        <time>2017-10-20T07:24:46Z</time>
      </trkpt>
      <trkpt lat="45.75249" lon="2.61301">
        <ele>728</ele>
        <time>2017-10-20T07:26:46Z</time>
      </trkpt>
      <trkpt lat="45.75277" lon="2.61303">
        <ele>729</ele>
        <time>2017-10-20T07:28:46Z</time>
      </trkpt>
      <trkpt lat="45.75305" lon="2.61307">
        <ele>730</ele>
        <time>2017-10-20T07:30:46Z</time>
      </trkpt>
      <trkpt lat="45.75327" lon="2.61324">
        <ele>731</ele>
        <time>2017-10-20T07:32:46Z</time>
      </trkpt>
      <trkpt lat="45.75349" lon="2.61338">
        <ele>732</ele>
        <time>2017-10-20T07:34:46Z</time>
      </trkpt>
      <trkpt lat="45.75383" lon="2.61355">
        <ele>732</ele>
        <time>2017-10-20T07:36:46Z</time>
      </trkpt>
      <trkpt lat="45.75394" lon="2.61367">
        <ele>733</ele>
        <time>2017-10-20T07:38:46Z</time>
      </trkpt>
      <trkpt lat="45.75394" lon="2.61383">
        <ele>733</ele>
        <time>2017-10-20T07:40:46Z</time>
      </trkpt>
      <trkpt lat="45.75384" lon="2.6141">
        <ele>733</ele>
        <time>2017-10-20T07:42:46Z</time>
      </trkpt>
      <trkpt lat="45.75382" lon="2.6142">
        <ele>734</ele>
        <time>2017-10-20T07:44:46Z</time>
      </trkpt>
      <trkpt lat="45.75364" lon="2.61471">
        <ele>735</ele>
        <time>2017-10-20T07:46:46Z</time>
      </trkpt>
      <trkpt lat="45.75367" lon="2.61516">
        <ele>737</ele>
        <time>2017-10-20T07:48:46Z</time>
      </trkpt>
      <trkpt lat="45.75376" lon="2.61564">
        <ele>739</ele>
        <time>2017-10-20T07:50:46Z</time>
      </trkpt>
      <trkpt lat="45.75387" lon="2.6163">
        <ele>741</ele>
        <time>2017-10-20T07:52:46Z</time>
      </trkpt>
      <trkpt lat="45.75398" lon="2.61696">
        <ele>742</ele>
        <time>2017-10-20T07:54:46Z</time>
      </trkpt>
      <trkpt lat="45.75396" lon="2.61744">
        <ele>740</ele>
        <time>2017-10-20T07:56:46Z</time>
      </trkpt>
      <trkpt lat="45.75396" lon="2.6177">
        <ele>740</ele>
        <time>2017-10-20T07:58:46Z</time>
      </trkpt>
      <trkpt lat="45.75397" lon="2.6179">
        <ele>739</ele>
        <time>2017-10-20T08:00:46Z</time>
      </trkpt>
      <trkpt lat="45.75399" lon="2.6181">
        <ele>738</ele>
        <time>2017-10-20T08:02:46Z</time>
      </trkpt>
      <trkpt lat="45.7541" lon="2.61853">
        <ele>737</ele>
        <time>2017-10-20T08:04:46Z</time>
      </trkpt>
      <trkpt lat="45.75412" lon="2.61858">
        <ele>737</ele>
        <time>2017-10-20T08:06:46Z</time>
      </trkpt>
      <trkpt lat="45.75459" lon="2.61951">
        <ele>737</ele>
        <time>2017-10-20T08:08:46Z</time>
      </trkpt>
      <trkpt lat="45.75497" lon="2.62021">
        <ele>735</ele>
        <time>2017-10-20T08:10:46Z</time>
      </trkpt>
      <trkpt lat="45.755" lon="2.62031">
        <ele>735</ele>
        <time>2017-10-20T08:12:46Z</time>
      </trkpt>
      <trkpt lat="45.75502" lon="2.62042">
        <ele>734</ele>
        <time>2017-10-20T08:14:46Z</time>
      </trkpt>
      <trkpt lat="45.75504" lon="2.62053">
        <ele>734</ele>
        <time>2017-10-20T08:16:46Z</time>
      </trkpt>
      <trkpt lat="45.75508" lon="2.62097">
        <ele>734</ele>
        <time>2017-10-20T08:18:46Z</time>
      </trkpt>
      <trkpt lat="45.75514" lon="2.62114">
        <ele>734</ele>
        <time>2017-10-20T08:20:46Z</time>
      </trkpt>
      <trkpt lat="45.75545" lon="2.6217">
        <ele>736</ele>
        <time>2017-10-20T08:22:46Z</time>
      </trkpt>
      <trkpt lat="45.75583" lon="2.62191">
        <ele>738</ele>
        <time>2017-10-20T08:24:46Z</time>
      </trkpt>
      <trkpt lat="45.75607" lon="2.622">
        <ele>741</ele>
        <time>2017-10-20T08:26:46Z</time>
      </trkpt>
      <trkpt lat="45.75633" lon="2.62213">
        <ele>743</ele>
        <time>2017-10-20T08:28:46Z</time>
      </trkpt>
      <trkpt lat="45.75655" lon="2.62192">
        <ele>742</ele>
        <time>2017-10-20T08:30:46Z</time>
      </trkpt>
      <trkpt lat="45.75671" lon="2.62179">
        <ele>742</ele>
        <time>2017-10-20T08:32:46Z</time>
      </trkpt>
      <trkpt lat="45.75674" lon="2.62182">
        <ele>742</ele>
        <time>2017-10-20T08:34:46Z</time>
      </trkpt>
      <trkpt lat="45.75674" lon="2.62185">
        <ele>742</ele>
        <time>2017-10-20T08:36:46Z</time>
      </trkpt>
      <trkpt lat="45.75672" lon="2.62192">
        <ele>743</ele>
        <time>2017-10-20T08:38:46Z</time>
      </trkpt>
      <trkpt lat="45.75663" lon="2.62228">
        <ele>746</ele>
        <time>2017-10-20T08:40:46Z</time>
      </trkpt>
      <trkpt lat="45.75656" lon="2.6226">
        <ele>748</ele>
        <time>2017-10-20T08:42:46Z</time>
      </trkpt>
      <trkpt lat="45.75649" lon="2.62291">
        <ele>751</ele>
        <time>2017-10-20T08:44:46Z</time>
      </trkpt>
      <trkpt lat="45.75639" lon="2.62332">
        <ele>754</ele>
        <time>2017-10-20T08:46:46Z</time>
      </trkpt>
      <trkpt lat="45.75633" lon="2.62353">
        <ele>756</ele>
        <time>2017-10-20T08:48:46Z</time>
      </trkpt>
      <trkpt lat="45.75627" lon="2.62364">
        <ele>757</ele>
        <time>2017-10-20T08:50:46Z</time>
      </trkpt>
      <trkpt lat="45.75625" lon="2.6237">
        <ele>758</ele>
        <time>2017-10-20T08:52:46Z</time>
      </trkpt>
      <trkpt lat="45.75613" lon="2.6239">
        <ele>760</ele>
        <time>2017-10-20T08:54:46Z</time>
      </trkpt>
      <trkpt lat="45.75603" lon="2.62428">
        <ele>763</ele>
        <time>2017-10-20T08:56:46Z</time>
      </trkpt>
      <trkpt lat="45.7562" lon="2.62472">
        <ele>767</ele>
        <time>2017-10-20T08:58:46Z</time>
      </trkpt>
      <trkpt lat="45.75633" lon="2.6252">
        <ele>769</ele>
        <time>2017-10-20T09:00:46Z</time>
      </trkpt>
      <trkpt lat="45.75626" lon="2.62563">
        <ele>770</ele>
        <time>2017-10-20T09:02:46Z</time>
      </trkpt>
      <trkpt lat="45.75609" lon="2.62604">
        <ele>770</ele>
        <time>2017-10-20T09:04:46Z</time>
      </trkpt>
      <trkpt lat="45.7558" lon="2.6263">
        <ele>771</ele>
        <time>2017-10-20T09:06:46Z</time>
      </trkpt>
      <trkpt lat="45.75542" lon="2.62651">
        <ele>773</ele>
        <time>2017-10-20T09:08:46Z</time>
      </trkpt>
      <trkpt lat="45.75506" lon="2.62665">
        <ele>776</ele>
        <time>2017-10-20T09:10:46Z</time>
      </trkpt>
      <trkpt lat="45.75429" lon="2.62693">
        <ele>782</ele>
        <time>2017-10-20T09:12:46Z</time>
      </trkpt>
      <trkpt lat="45.75402" lon="2.62702">
        <ele>784</ele>
        <time>2017-10-20T09:14:46Z</time>
      </trkpt>
      <trkpt lat="45.75389" lon="2.62727">
        <ele>786</ele>
        <time>2017-10-20T09:16:46Z</time>
      </trkpt>
      <trkpt lat="45.75405" lon="2.62777">
        <ele>787</ele>
        <time>2017-10-20T09:18:46Z</time>
      </trkpt>
      <trkpt lat="45.75418" lon="2.62834">
        <ele>789</ele>
        <time>2017-10-20T09:20:46Z</time>
      </trkpt>
      <trkpt lat="45.75425" lon="2.62846">
        <ele>789</ele>
        <time>2017-10-20T09:22:46Z</time>
      </trkpt>
      <trkpt lat="45.75443" lon="2.62864">
        <ele>787</ele>
        <time>2017-10-20T09:24:46Z</time>
      </trkpt>
      <trkpt lat="45.7548" lon="2.62909">
        <ele>784</ele>
        <time>2017-10-20T09:26:46Z</time>
      </trkpt>
      <trkpt lat="45.75501" lon="2.62913">
        <ele>780</ele>
        <time>2017-10-20T09:28:46Z</time>
      </trkpt>
      <trkpt lat="45.75538" lon="2.62952">
        <ele>775</ele>
        <time>2017-10-20T09:30:46Z</time>
      </trkpt>
      <trkpt lat="45.75547" lon="2.62966">
        <ele>774</ele>
        <time>2017-10-20T09:32:46Z</time>
      </trkpt>
      <trkpt lat="45.75548" lon="2.6297">
        <ele>774</ele>
        <time>2017-10-20T09:34:46Z</time>
      </trkpt>
      <trkpt lat="45.7555" lon="2.62972">
        <ele>773</ele>
        <time>2017-10-20T09:36:46Z</time>
      </trkpt>
      <trkpt lat="45.75574" lon="2.62965">
        <ele>767</ele>
        <time>2017-10-20T09:38:46Z</time>
      </trkpt>
      <trkpt lat="45.75593" lon="2.62956">
        <ele>764</ele>
        <time>2017-10-20T09:40:46Z</time>
      </trkpt>
      <trkpt lat="45.75611" lon="2.62953">
        <ele>763</ele>
        <time>2017-10-20T09:42:46Z</time>
      </trkpt>
      <trkpt lat="45.75664" lon="2.6297">
        <ele>761</ele>
        <time>2017-10-20T09:44:46Z</time>
      </trkpt>
      <trkpt lat="45.75675" lon="2.62981">
        <ele>762</ele>
        <time>2017-10-20T09:46:46Z</time>
      </trkpt>
      <trkpt lat="45.75685" lon="2.62992">
        <ele>764</ele>
        <time>2017-10-20T09:48:46Z</time>
      </trkpt>
      <trkpt lat="45.75691" lon="2.63003">
        <ele>765</ele>
        <time>2017-10-20T09:50:46Z</time>
      </trkpt>
      <trkpt lat="45.75693" lon="2.63007">
        <ele>765</ele>
        <time>2017-10-20T09:52:46Z</time>
      </trkpt>
      <trkpt lat="45.75711" lon="2.63031">
        <ele>767</ele>
        <time>2017-10-20T09:54:46Z</time>
      </trkpt>
      <trkpt lat="45.75721" lon="2.63058">
        <ele>768</ele>
        <time>2017-10-20T09:56:46Z</time>
      </trkpt>
      <trkpt lat="45.75734" lon="2.63088">
        <ele>769</ele>
        <time>2017-10-20T09:58:46Z</time>
      </trkpt>
      <trkpt lat="45.75741" lon="2.63114">
        <ele>771</ele>
        <time>2017-10-20T10:00:46Z</time>
      </trkpt>
      <trkpt lat="45.75747" lon="2.63135">
        <ele>773</ele>
        <time>2017-10-20T10:02:46Z</time>
      </trkpt>
      <trkpt lat="45.7575" lon="2.63143">
        <ele>773</ele>
        <time>2017-10-20T10:04:46Z</time>
      </trkpt>
      <trkpt lat="45.75758" lon="2.63165">
        <ele>776</ele>
        <time>2017-10-20T10:06:46Z</time>
      </trkpt>
      <trkpt lat="45.75768" lon="2.63184">
        <ele>779</ele>
        <time>2017-10-20T10:08:46Z</time>
      </trkpt>
      <trkpt lat="45.75775" lon="2.63206">
        <ele>782</ele>
        <time>2017-10-20T10:10:46Z</time>
      </trkpt>
      <trkpt lat="45.75778" lon="2.63225">
        <ele>783</ele>
        <time>2017-10-20T10:12:46Z</time>
      </trkpt>
      <trkpt lat="45.75783" lon="2.63243">
        <ele>785</ele>
        <time>2017-10-20T10:14:46Z</time>
      </trkpt>
      <trkpt lat="45.75786" lon="2.63265">
        <ele>787</ele>
        <time>2017-10-20T10:16:46Z</time>
      </trkpt>
      <trkpt lat="45.7579" lon="2.63289">
        <ele>789</ele>
        <time>2017-10-20T10:18:46Z</time>
      </trkpt>
      <trkpt lat="45.75798" lon="2.63307">
        <ele>791</ele>
        <time>2017-10-20T10:20:46Z</time>
      </trkpt>
      <trkpt lat="45.75805" lon="2.63325">
        <ele>793</ele>
        <time>2017-10-20T10:22:46Z</time>
      </trkpt>
      <trkpt lat="45.75815" lon="2.63335">
        <ele>795</ele>
        <time>2017-10-20T10:24:46Z</time>
      </trkpt>
      <trkpt lat="45.75825" lon="2.63349">
        <ele>796</ele>
        <time>2017-10-20T10:26:46Z</time>
      </trkpt>
      <trkpt lat="45.75831" lon="2.63359">
        <ele>797</ele>
        <time>2017-10-20T10:28:46Z</time>
      </trkpt>
      <trkpt lat="45.7584" lon="2.63383">
        <ele>798</ele>
        <time>2017-10-20T10:30:46Z</time>
      </trkpt>
      <trkpt lat="45.75845" lon="2.63403">
        <ele>799</ele>
        <time>2017-10-20T10:32:46Z</time>
      </trkpt>
      <trkpt lat="45.75845" lon="2.63434">
        <ele>800</ele>
        <time>2017-10-20T10:34:46Z</time>
      </trkpt>
      <trkpt lat="45.75843" lon="2.63461">
        <ele>801</ele>
        <time>2017-10-20T10:36:46Z</time>
      </trkpt>
      <trkpt lat="45.75841" lon="2.63512">
        <ele>804</ele>
        <time>2017-10-20T10:38:46Z</time>
      </trkpt>
      <trkpt lat="45.75839" lon="2.63571">
        <ele>809</ele>
        <time>2017-10-20T10:40:46Z</time>
      </trkpt>
      <trkpt lat="45.75837" lon="2.63628">
        <ele>814</ele>
        <time>2017-10-20T10:42:46Z</time>
      </trkpt>
      <trkpt lat="45.75835" lon="2.63683">
        <ele>816</ele>
        <time>2017-10-20T10:44:46Z</time>
      </trkpt>
      <trkpt lat="45.75833" lon="2.63723">
        <ele>815</ele>
        <time>2017-10-20T10:46:46Z</time>
      </trkpt>
      <trkpt lat="45.75829" lon="2.63895">
        <ele>819</ele>
        <time>2017-10-20T10:48:46Z</time>
      </trkpt>
      <trkpt lat="45.75829" lon="2.63913">
        <ele>820</ele>
        <time>2017-10-20T10:50:46Z</time>
      </trkpt>
      <trkpt lat="45.75828" lon="2.6392">
        <ele>820</ele>
        <time>2017-10-20T10:52:46Z</time>
      </trkpt>
      <trkpt lat="45.75827" lon="2.63963">
        <ele>822</ele>
        <time>2017-10-20T10:54:46Z</time>
      </trkpt>
      <trkpt lat="45.75825" lon="2.64004">
        <ele>825</ele>
        <time>2017-10-20T10:56:46Z</time>
      </trkpt>
      <trkpt lat="45.75823" lon="2.64048">
        <ele>826</ele>
        <time>2017-10-20T10:58:46Z</time>
      </trkpt>
      <trkpt lat="45.75821" lon="2.64091">
        <ele>827</ele>
        <time>2017-10-20T11:00:46Z</time>
      </trkpt>
      <trkpt lat="45.75821" lon="2.64138">
        <ele>829</ele>
        <time>2017-10-20T11:02:46Z</time>
      </trkpt>
      <trkpt lat="45.7582" lon="2.64178">
        <ele>831</ele>
        <time>2017-10-20T11:04:46Z</time>
      </trkpt>
      <trkpt lat="45.75818" lon="2.64269">
        <ele>834</ele>
        <time>2017-10-20T11:06:46Z</time>
      </trkpt>
      <trkpt lat="45.75817" lon="2.6438">
        <ele>839</ele>
        <time>2017-10-20T11:08:46Z</time>
      </trkpt>
      <trkpt lat="45.75818" lon="2.64425">
        <ele>840</ele>
        <time>2017-10-20T11:10:46Z</time>
      </trkpt>
      <trkpt lat="45.7582" lon="2.64459">
        <ele>841</ele>
        <time>2017-10-20T11:12:46Z</time>
      </trkpt>
      <trkpt lat="45.75822" lon="2.64463">
        <ele>841</ele>
        <time>2017-10-20T11:14:46Z</time>
      </trkpt>
      <trkpt lat="45.75823" lon="2.64459">
        <ele>841</ele>
        <time>2017-10-20T11:16:46Z</time>
      </trkpt>
      <trkpt lat="45.75875" lon="2.64429">
        <ele>838</ele>
        <time>2017-10-20T11:18:46Z</time>
      </trkpt>
      <trkpt lat="45.75965" lon="2.64377">
        <ele>832</ele>
        <time>2017-10-20T11:20:46Z</time>
      </trkpt>
      <trkpt lat="45.76066" lon="2.64318">
        <ele>834</ele>
        <time>2017-10-20T11:22:46Z</time>
      </trkpt>
      <trkpt lat="45.76132" lon="2.64288">
        <ele>835</ele>
        <time>2017-10-20T11:24:46Z</time>
      </trkpt>
      <trkpt lat="45.76228" lon="2.64288">
        <ele>832</ele>
        <time>2017-10-20T11:26:46Z</time>
      </trkpt>
      <trkpt lat="45.76394" lon="2.64291">
        <ele>822</ele>
        <time>2017-10-20T11:28:46Z</time>
      </trkpt>
      <trkpt lat="45.76402" lon="2.64288">
        <ele>822</ele>
        <time>2017-10-20T11:30:46Z</time>
      </trkpt>
      <trkpt lat="45.7641" lon="2.64282">
        <ele>821</ele>
        <time>2017-10-20T11:32:46Z</time>
      </trkpt>
      <trkpt lat="45.76416" lon="2.64275">
        <ele>821</ele>
        <time>2017-10-20T11:34:46Z</time>
      </trkpt>
      <trkpt lat="45.7642" lon="2.64267">
        <ele>821</ele>
        <time>2017-10-20T11:36:46Z</time>
      </trkpt>
      <trkpt lat="45.76424" lon="2.64258">
        <ele>821</ele>
        <time>2017-10-20T11:38:46Z</time>
      </trkpt>
      <trkpt lat="45.76428" lon="2.64249">
        <ele>821</ele>
        <time>2017-10-20T11:40:46Z</time>
      </trkpt>
      <trkpt lat="45.76472" lon="2.64194">
        <ele>828</ele>
        <time>2017-10-20T11:42:46Z</time>
      </trkpt>
      <trkpt lat="45.76476" lon="2.64191">
        <ele>828</ele>
        <time>2017-10-20T11:44:46Z</time>
      </trkpt>
      <trkpt lat="45.76478" lon="2.64189">
        <ele>829</ele>
        <time>2017-10-20T11:46:46Z</time>
      </trkpt>
      <trkpt lat="45.76487" lon="2.6419">
        <ele>829</ele>
        <time>2017-10-20T11:48:46Z</time>
      </trkpt>
      <trkpt lat="45.76521" lon="2.64182">
        <ele>830</ele>
        <time>2017-10-20T11:50:46Z</time>
      </trkpt>
      <trkpt lat="45.76529" lon="2.6418">
        <ele>830</ele>
        <time>2017-10-20T11:52:46Z</time>
      </trkpt>
      <trkpt lat="45.7656" lon="2.64182">
        <ele>830</ele>
        <time>2017-10-20T11:54:46Z</time>
      </trkpt>
      <trkpt lat="45.76582" lon="2.64185">
        <ele>829</ele>
        <time>2017-10-20T11:56:46Z</time>
      </trkpt>
      <trkpt lat="45.76618" lon="2.64196">
        <ele>828</ele>
        <time>2017-10-20T11:58:46Z</time>
      </trkpt>
      <trkpt lat="45.76655" lon="2.64209">
        <ele>827</ele>
        <time>2017-10-20T12:00:46Z</time>
      </trkpt>
      <trkpt lat="45.76684" lon="2.6422">
        <ele>828</ele>
        <time>2017-10-20T12:02:46Z</time>
      </trkpt>
      <trkpt lat="45.76717" lon="2.6423">
        <ele>831</ele>
        <time>2017-10-20T12:04:46Z</time>
      </trkpt>
      <trkpt lat="45.7673" lon="2.64239">
        <ele>832</ele>
        <time>2017-10-20T12:06:46Z</time>
      </trkpt>
      <trkpt lat="45.76737" lon="2.64285">
        <ele>832</ele>
        <time>2017-10-20T12:08:46Z</time>
      </trkpt>
      <trkpt lat="45.76744" lon="2.64349">
        <ele>831</ele>
        <time>2017-10-20T12:10:46Z</time>
      </trkpt>
      <trkpt lat="45.76746" lon="2.64393">
        <ele>829</ele>
        <time>2017-10-20T12:12:46Z</time>
      </trkpt>
      <trkpt lat="45.76748" lon="2.64458">
        <ele>826</ele>
        <time>2017-10-20T12:14:46Z</time>
      </trkpt>
      <trkpt lat="45.76761" lon="2.64524">
        <ele>826</ele>
        <time>2017-10-20T12:16:46Z</time>
      </trkpt>
      <trkpt lat="45.76763" lon="2.64575">
        <ele>824</ele>
        <time>2017-10-20T12:18:46Z</time>
      </trkpt>
      <trkpt lat="45.76767" lon="2.64621">
        <ele>823</ele>
        <time>2017-10-20T12:20:46Z</time>
      </trkpt>
      <trkpt lat="45.76788" lon="2.64721">
        <ele>817</ele>
        <time>2017-10-20T12:22:46Z</time>
      </trkpt>
      <trkpt lat="45.76792" lon="2.64743">
        <ele>815</ele>
        <time>2017-10-20T12:24:46Z</time>
      </trkpt>
      <trkpt lat="45.76794" lon="2.64749">
        <ele>815</ele>
        <time>2017-10-20T12:26:46Z</time>
      </trkpt>
      <trkpt lat="45.76804" lon="2.64766">
        <ele>813</ele>
        <time>2017-10-20T12:28:46Z</time>
      </trkpt>
      <trkpt lat="45.76807" lon="2.64776">
        <ele>813</ele>
        <time>2017-10-20T12:30:46Z</time>
      </trkpt>
      <trkpt lat="45.76813" lon="2.64793">
        <ele>812</ele>
        <time>2017-10-20T12:32:46Z</time>
      </trkpt>
      <trkpt lat="45.76822" lon="2.64818">
        <ele>810</ele>
        <time>2017-10-20T12:34:46Z</time>
      </trkpt>
      <trkpt lat="45.7683" lon="2.64838">
        <ele>809</ele>
        <time>2017-10-20T12:36:46Z</time>
      </trkpt>
      <trkpt lat="45.76837" lon="2.64882">
        <ele>804</ele>
        <time>2017-10-20T12:38:46Z</time>
      </trkpt>
      <trkpt lat="45.76839" lon="2.64892">
        <ele>803</ele>
        <time>2017-10-20T12:40:46Z</time>
      </trkpt>
      <trkpt lat="45.76882" lon="2.65018">
        <ele>795</ele>
        <time>2017-10-20T12:42:46Z</time>
      </trkpt>
      <trkpt lat="45.76906" lon="2.65071">
        <ele>792</ele>
        <time>2017-10-20T12:44:46Z</time>
      </trkpt>
      <trkpt lat="45.7691" lon="2.65091">
        <ele>791</ele>
        <time>2017-10-20T12:46:46Z</time>
      </trkpt>
      <trkpt lat="45.76914" lon="2.65123">
        <ele>791</ele>
        <time>2017-10-20T12:48:46Z</time>
      </trkpt>
      <trkpt lat="45.76917" lon="2.65153">
        <ele>790</ele>
        <time>2017-10-20T12:50:46Z</time>
      </trkpt>
      <trkpt lat="45.76928" lon="2.65193">
        <ele>792</ele>
        <time>2017-10-20T12:52:46Z</time>
      </trkpt>
      <trkpt lat="45.76941" lon="2.6522">
        <ele>795</ele>
        <time>2017-10-20T12:54:46Z</time>
      </trkpt>
      <trkpt lat="45.76952" lon="2.65236">
        <ele>797</ele>
        <time>2017-10-20T12:56:46Z</time>
      </trkpt>
      <trkpt lat="45.76968" lon="2.65252">
        <ele>799</ele>
        <time>2017-10-20T12:58:46Z</time>
      </trkpt>
      <trkpt lat="45.76977" lon="2.65267">
        <ele>801</ele>
        <time>2017-10-20T13:00:46Z</time>
      </trkpt>
      <trkpt lat="45.76995" lon="2.65299">
        <ele>805</ele>
        <time>2017-10-20T13:02:46Z</time>
      </trkpt>
      <trkpt lat="45.77005" lon="2.65319">
        <ele>807</ele>
        <time>2017-10-20T13:04:46Z</time>
      </trkpt>
      <trkpt lat="45.77011" lon="2.65344">
        <ele>809</ele>
        <time>2017-10-20T13:06:46Z</time>
      </trkpt>
      <trkpt lat="45.7701" lon="2.65373">
        <ele>811</ele>
        <time>2017-10-20T13:08:46Z</time>
      </trkpt>
      <trkpt lat="45.76995" lon="2.65427">
        <ele>816</ele>
        <time>2017-10-20T13:10:46Z</time>
      </trkpt>
      <trkpt lat="45.76992" lon="2.65476">
        <ele>821</ele>
        <time>2017-10-20T13:12:46Z</time>
      </trkpt>
      <trkpt lat="45.76982" lon="2.65488">
        <ele>822</ele>
        <time>2017-10-20T13:14:46Z</time>
      </trkpt>
      <trkpt lat="45.76982" lon="2.65494">
        <ele>823</ele>
        <time>2017-10-20T13:16:46Z</time>
      </trkpt>
      <trkpt lat="45.76985" lon="2.65509">
        <ele>824</ele>
        <time>2017-10-20T13:18:46Z</time>
      </trkpt>
      <trkpt lat="45.76988" lon="2.65531">
        <ele>827</ele>
        <time>2017-10-20T13:20:46Z</time>
      </trkpt>
      <trkpt lat="45.76989" lon="2.65556">
        <ele>829</ele>
        <time>2017-10-20T13:22:46Z</time>
      </trkpt>
      <trkpt lat="45.76984" lon="2.65576">
        <ele>832</ele>
        <time>2017-10-20T13:24:46Z</time>
      </trkpt>
      <trkpt lat="45.76982" lon="2.65596">
        <ele>834</ele>
        <time>2017-10-20T13:26:46Z</time>
      </trkpt>
      <trkpt lat="45.76979" lon="2.65644">
        <ele>838</ele>
        <time>2017-10-20T13:28:46Z</time>
      </trkpt>
      <trkpt lat="45.7698" lon="2.65657">
        <ele>839</ele>
        <time>2017-10-20T13:30:46Z</time>
      </trkpt>
      <trkpt lat="45.76979" lon="2.65675">
        <ele>841</ele>
        <time>2017-10-20T13:32:46Z</time>
      </trkpt>
      <trkpt lat="45.76966" lon="2.6575">
        <ele>846</ele>
        <time>2017-10-20T13:34:46Z</time>
      </trkpt>
      <trkpt lat="45.76962" lon="2.65811">
        <ele>845</ele>
        <time>2017-10-20T13:36:46Z</time>
      </trkpt>
      <trkpt lat="45.76954" lon="2.65886">
        <ele>845</ele>
        <time>2017-10-20T13:38:46Z</time>
      </trkpt>
      <trkpt lat="45.76946" lon="2.65947">
        <ele>846</ele>
        <time>2017-10-20T13:40:46Z</time>
      </trkpt>
      <trkpt lat="45.76943" lon="2.65985">
        <ele>846</ele>
        <time>2017-10-20T13:42:46Z</time>
      </trkpt>
      <trkpt lat="45.76937" lon="2.6601">
        <ele>847</ele>
        <time>2017-10-20T13:44:46Z</time>
      </trkpt>
      <trkpt lat="45.76932" lon="2.66021">
        <ele>847</ele>
        <time>2017-10-20T13:46:46Z</time>
      </trkpt>
      <trkpt lat="45.76929" lon="2.66031">
        <ele>847</ele>
        <time>2017-10-20T13:48:46Z</time>
      </trkpt>
      <trkpt lat="45.76925" lon="2.66051">
        <ele>846</ele>
        <time>2017-10-20T13:50:46Z</time>
      </trkpt>
      <trkpt lat="45.76905" lon="2.66106">
        <ele>846</ele>
        <time>2017-10-20T13:52:46Z</time>
      </trkpt>
      <trkpt lat="45.76896" lon="2.6619">
        <ele>846</ele>
        <time>2017-10-20T13:54:46Z</time>
      </trkpt>
      <trkpt lat="45.76893" lon="2.66236">
        <ele>849</ele>
        <time>2017-10-20T13:56:46Z</time>
      </trkpt>
      <trkpt lat="45.76889" lon="2.66281">
        <ele>852</ele>
        <time>2017-10-20T13:58:46Z</time>
      </trkpt>
      <trkpt lat="45.76888" lon="2.66318">
        <ele>854</ele>
        <time>2017-10-20T14:00:46Z</time>
      </trkpt>
      <trkpt lat="45.76885" lon="2.66337">
        <ele>856</ele>
        <time>2017-10-20T14:02:46Z</time>
      </trkpt>
      <trkpt lat="45.76889" lon="2.66407">
        <ele>860</ele>
        <time>2017-10-20T14:04:46Z</time>
      </trkpt>
      <trkpt lat="45.76893" lon="2.66443">
        <ele>862</ele>
        <time>2017-10-20T14:06:46Z</time>
      </trkpt>
      <trkpt lat="45.76912" lon="2.66516">
        <ele>866</ele>
        <time>2017-10-20T14:08:46Z</time>
      </trkpt>
      <trkpt lat="45.76935" lon="2.66571">
        <ele>867</ele>
        <time>2017-10-20T14:10:46Z</time>
      </trkpt>
      <trkpt lat="45.76966" lon="2.66642">
        <ele>869</ele>
        <time>2017-10-20T14:12:46Z</time>
      </trkpt>
      <trkpt lat="45.7699" lon="2.66705">
        <ele>872</ele>
        <time>2017-10-20T14:14:46Z</time>
      </trkpt>
      <trkpt lat="45.76996" lon="2.66737">
        <ele>873</ele>
        <time>2017-10-20T14:16:46Z</time>
      </trkpt>
      <trkpt lat="45.77006" lon="2.66762">
        <ele>874</ele>
        <time>2017-10-20T14:18:46Z</time>
      </trkpt>
      <trkpt lat="45.77026" lon="2.66829">
        <ele>877</ele>
        <time>2017-10-20T14:20:46Z</time>
      </trkpt>
      <trkpt lat="45.77032" lon="2.66858">
        <ele>878</ele>
        <time>2017-10-20T14:22:46Z</time>
      </trkpt>
      <trkpt lat="45.77037" lon="2.66887">
        <ele>879</ele>
        <time>2017-10-20T14:24:46Z</time>
      </trkpt>
      <trkpt lat="45.77038" lon="2.66902">
        <ele>879</ele>
        <time>2017-10-20T14:26:46Z</time>
      </trkpt>
      <trkpt lat="45.77054" lon="2.6694">
        <ele>880</ele>
        <time>2017-10-20T14:28:46Z</time>
      </trkpt>
      <trkpt lat="45.77067" lon="2.67">
        <ele>882</ele>
        <time>2017-10-20T14:30:46Z</time>
      </trkpt>
      <trkpt lat="45.7707" lon="2.67045">
        <ele>883</ele>
        <time>2017-10-20T14:32:46Z</time>
      </trkpt>
      <trkpt lat="45.77071" lon="2.67106">
        <ele>884</ele>
        <time>2017-10-20T14:34:46Z</time>
      </trkpt>
      <trkpt lat="45.77057" lon="2.6723">
        <ele>888</ele>
        <time>2017-10-20T14:36:46Z</time>
      </trkpt>
      <trkpt lat="45.77038" lon="2.6733">
        <ele>891</ele>
        <time>2017-10-20T14:38:46Z</time>
      </trkpt>
      <trkpt lat="45.77032" lon="2.67372">
        <ele>895</ele>
        <time>2017-10-20T14:40:46Z</time>
      </trkpt>
      <trkpt lat="45.77024" lon="2.67415">
        <ele>899</ele>
        <time>2017-10-20T14:42:46Z</time>
      </trkpt>
      <trkpt lat="45.7701" lon="2.67448">
        <ele>899</ele>
        <time>2017-10-20T14:44:46Z</time>
      </trkpt>
      <trkpt lat="45.76994" lon="2.67497">
        <ele>900</ele>
        <time>2017-10-20T14:46:46Z</time>
      </trkpt>
      <trkpt lat="45.76978" lon="2.6754">
        <ele>899</ele>
        <time>2017-10-20T14:48:46Z</time>
      </trkpt>
      <trkpt lat="45.76968" lon="2.67589">
        <ele>899</ele>
        <time>2017-10-20T14:50:46Z</time>
      </trkpt>
      <trkpt lat="45.76967" lon="2.67612">
        <ele>899</ele>
        <time>2017-10-20T14:52:46Z</time>
      </trkpt>
      <trkpt lat="45.76963" lon="2.67612">
        <ele>899</ele>
        <time>2017-10-20T14:54:46Z</time>
      </trkpt>
      <trkpt lat="45.76962" lon="2.67611">
        <ele>899</ele>
        <time>2017-10-20T14:56:46Z</time>
      </trkpt>
      <trkpt lat="45.76962" lon="2.67612">
        <ele>899</ele>
        <time>2017-10-20T14:58:46Z</time>
      </trkpt>
      <trkpt lat="45.76961" lon="2.67613">
        <ele>899</ele>
        <time>2017-10-20T15:00:46Z</time>
      </trkpt>
      <trkpt lat="45.76959" lon="2.67659">
        <ele>899</ele>
        <time>2017-10-20T15:02:46Z</time>
      </trkpt>
      <trkpt lat="45.7696" lon="2.67674">
        <ele>900</ele>
        <time>2017-10-20T15:04:46Z</time>
      </trkpt>
      <trkpt lat="45.76966" lon="2.67834">
        <ele>905</ele>
        <time>2017-10-20T15:06:46Z</time>
      </trkpt>
      <trkpt lat="45.76972" lon="2.67916">
        <ele>908</ele>
        <time>2017-10-20T15:08:46Z</time>
      </trkpt>
      <trkpt lat="45.76973" lon="2.67946">
        <ele>909</ele>
        <time>2017-10-20T15:10:46Z</time>
      </trkpt>
      <trkpt lat="45.76976" lon="2.67982">
        <ele>910</ele>
        <time>2017-10-20T15:12:46Z</time>
      </trkpt>
      <trkpt lat="45.76977" lon="2.68022">
        <ele>912</ele>
        <time>2017-10-20T15:14:46Z</time>
      </trkpt>
      <trkpt lat="45.76976" lon="2.6806">
        <ele>913</ele>
        <time>2017-10-20T15:16:46Z</time>
      </trkpt>
      <trkpt lat="45.76974" lon="2.68115">
        <ele>914</ele>
        <time>2017-10-20T15:18:46Z</time>
      </trkpt>
      <trkpt lat="45.76975" lon="2.68181">
        <ele>915</ele>
        <time>2017-10-20T15:20:46Z</time>
      </trkpt>
      <trkpt lat="45.76977" lon="2.68227">
        <ele>915</ele>
        <time>2017-10-20T15:22:46Z</time>
      </trkpt>
      <trkpt lat="45.76978" lon="2.68297">
        <ele>915</ele>
        <time>2017-10-20T15:24:46Z</time>
      </trkpt>
      <trkpt lat="45.76982" lon="2.6843">
        <ele>920</ele>
        <time>2017-10-20T15:26:46Z</time>
      </trkpt>
      <trkpt lat="45.77034" lon="2.68469">
        <ele>921</ele>
        <time>2017-10-20T15:28:46Z</time>
      </trkpt>
      <trkpt lat="45.7708" lon="2.68527">
        <ele>924</ele>
        <time>2017-10-20T15:30:46Z</time>
      </trkpt>
      <trkpt lat="45.77163" lon="2.68667">
        <ele>923</ele>
        <time>2017-10-20T15:32:46Z</time>
      </trkpt>
      <trkpt lat="45.77184" lon="2.68735">
        <ele>923</ele>
        <time>2017-10-20T15:34:46Z</time>
      </trkpt>
      <trkpt lat="45.77269" lon="2.68772">
        <ele>923</ele>
        <time>2017-10-20T15:36:46Z</time>
      </trkpt>
      <trkpt lat="45.77402" lon="2.68843">
        <ele>919</ele>
        <time>2017-10-20T15:38:46Z</time>
      </trkpt>
      <trkpt lat="45.77483" lon="2.68753">
        <ele>914</ele>
        <time>2017-10-20T15:40:46Z</time>
      </trkpt>
      <trkpt lat="45.77563" lon="2.68583">
        <ele>902</ele>
        <time>2017-10-20T15:42:46Z</time>
      </trkpt>
      <trkpt lat="45.77669" lon="2.68413">
        <ele>894</ele>
        <time>2017-10-20T15:44:46Z</time>
      </trkpt>
      <trkpt lat="45.7777" lon="2.68192">
        <ele>881</ele>
        <time>2017-10-20T15:46:46Z</time>
      </trkpt>
      <trkpt lat="45.77864" lon="2.68113">
        <ele>875</ele>
        <time>2017-10-20T15:48:46Z</time>
      </trkpt>
      <trkpt lat="45.78" lon="2.68375">
        <ele>876</ele>
        <time>2017-10-20T15:50:46Z</time>
      </trkpt>
      <trkpt lat="45.78064" lon="2.6843">
        <ele>874</ele>
        <time>2017-10-20T15:52:46Z</time>
      </trkpt>
      <trkpt lat="45.78093" lon="2.68532">
        <ele>877</ele>
        <time>2017-10-20T15:54:46Z</time>
      </trkpt>
      <trkpt lat="45.78147" lon="2.68796">
        <ele>872</ele>
        <time>2017-10-20T15:56:46Z</time>
      </trkpt>
      <trkpt lat="45.78181" lon="2.69095">
        <ele>861</ele>
        <time>2017-10-20T15:58:46Z</time>
      </trkpt>
      <trkpt lat="45.7823" lon="2.69507">
        <ele>849</ele>
        <time>2017-10-20T16:00:46Z</time>
      </trkpt>
      <trkpt lat="45.78332" lon="2.69536">
        <ele>843</ele>
        <time>2017-10-20T16:02:46Z</time>
      </trkpt>
      <trkpt lat="45.7834" lon="2.69672">
        <ele>835</ele>
        <time>2017-10-20T16:04:46Z</time>
      </trkpt>
      <trkpt lat="45.7833" lon="2.6974">
        <ele>827</ele>
        <time>2017-10-20T16:06:46Z</time>
      </trkpt>
      <trkpt lat="45.78287" lon="2.6979">
        <ele>823</ele>
        <time>2017-10-20T16:08:46Z</time>
      </trkpt>
      <trkpt lat="45.78282" lon="2.69884">
        <ele>824</ele>
        <time>2017-10-20T16:10:46Z</time>
      </trkpt>
      <trkpt lat="45.78305" lon="2.69924">
        <ele>825</ele>
        <time>2017-10-20T16:12:46Z</time>
      </trkpt>
      <trkpt lat="45.78333" lon="2.69987">
        <ele>830</ele>
        <time>2017-10-20T16:14:46Z</time>
      </trkpt>
      <trkpt lat="45.78359" lon="2.70107">
        <ele>834</ele>
        <time>2017-10-20T16:16:46Z</time>
      </trkpt>
      <trkpt lat="45.78397" lon="2.70241">
        <ele>840</ele>
        <time>2017-10-20T16:18:46Z</time>
      </trkpt>
      <trkpt lat="45.78461" lon="2.70383">
        <ele>838</ele>
        <time>2017-10-20T16:20:46Z</time>
      </trkpt>
      <trkpt lat="45.78244" lon="2.70406">
        <ele>847</ele>
        <time>2017-10-20T16:22:46Z</time>
      </trkpt>
      <trkpt lat="45.78146" lon="2.70523">
        <ele>852</ele>
        <time>2017-10-20T16:24:46Z</time>
      </trkpt>
      <trkpt lat="45.78156" lon="2.70579">
        <ele>852</ele>
        <time>2017-10-20T16:26:46Z</time>
      </trkpt>
      <trkpt lat="45.78189" lon="2.70667">
        <ele>855</ele>
        <time>2017-10-20T16:28:46Z</time>
      </trkpt>
      <trkpt lat="45.78209" lon="2.70746">
        <ele>854</ele>
        <time>2017-10-20T16:30:46Z</time>
      </trkpt>
      <trkpt lat="45.7823" lon="2.70827">
        <ele>852</ele>
        <time>2017-10-20T16:32:46Z</time>
      </trkpt>
      <trkpt lat="45.78259" lon="2.70869">
        <ele>849</ele>
        <time>2017-10-20T16:34:46Z</time>
      </trkpt>
      <trkpt lat="45.78266" lon="2.7091">
        <ele>847</ele>
        <time>2017-10-20T16:36:46Z</time>
      </trkpt>
      <trkpt lat="45.78277" lon="2.70991">
        <ele>848</ele>
        <time>2017-10-20T16:38:46Z</time>
      </trkpt>
      <trkpt lat="45.78314" lon="2.71091">
        <ele>848</ele>
        <time>2017-10-20T16:40:46Z</time>
      </trkpt>
      <trkpt lat="45.78347" lon="2.71138">
        <ele>846</ele>
        <time>2017-10-20T16:42:46Z</time>
      </trkpt>
      <trkpt lat="45.78415" lon="2.71226">
        <ele>836</ele>
        <time>2017-10-20T16:44:46Z</time>
      </trkpt>
      <trkpt lat="45.78477" lon="2.71258">
        <ele>832</ele>
        <time>2017-10-20T16:46:46Z</time>
      </trkpt>
      <trkpt lat="45.78531" lon="2.71294">
        <ele>828</ele>
        <time>2017-10-20T16:48:46Z</time>
      </trkpt>
      <trkpt lat="45.78616" lon="2.71385">
        <ele>820</ele>
        <time>2017-10-20T16:50:46Z</time>
      </trkpt>
      <trkpt lat="45.78686" lon="2.71427">
        <ele>823</ele>
        <time>2017-10-20T16:52:46Z</time>
      </trkpt>
      <trkpt lat="45.78769" lon="2.71468">
        <ele>822</ele>
        <time>2017-10-20T16:54:46Z</time>
      </trkpt>
      <trkpt lat="45.78823" lon="2.71464">
        <ele>821</ele>
        <time>2017-10-20T16:56:46Z</time>
      </trkpt>
      <trkpt lat="45.78859" lon="2.71476">
        <ele>817</ele>
        <time>2017-10-20T16:58:46Z</time>
      </trkpt>
      <trkpt lat="45.78896" lon="2.71486">
        <ele>812</ele>
        <time>2017-10-20T17:00:46Z</time>
      </trkpt>
      <trkpt lat="45.78927" lon="2.71485">
        <ele>808</ele>
        <time>2017-10-20T17:02:46Z</time>
      </trkpt>
      <trkpt lat="45.78935" lon="2.71488">
        <ele>806</ele>
        <time>2017-10-20T17:04:46Z</time>
      </trkpt>
      <trkpt lat="45.78969" lon="2.71512">
        <ele>801</ele>
        <time>2017-10-20T17:06:46Z</time>
      </trkpt>
      <trkpt lat="45.78986" lon="2.71534">
        <ele>796</ele>
        <time>2017-10-20T17:08:46Z</time>
      </trkpt>
      <trkpt lat="45.78986" lon="2.71537">
        <ele>796</ele>
        <time>2017-10-20T17:10:46Z</time>
      </trkpt>
      <trkpt lat="45.78992" lon="2.71556">
        <ele>793</ele>
        <time>2017-10-20T17:12:46Z</time>
      </trkpt>
      <trkpt lat="45.78984" lon="2.71566">
        <ele>793</ele>
        <time>2017-10-20T17:14:46Z</time>
      </trkpt>
      <trkpt lat="45.78951" lon="2.71578">
        <ele>796</ele>
        <time>2017-10-20T17:16:46Z</time>
      </trkpt>
      <trkpt lat="45.78938" lon="2.71587">
        <ele>796</ele>
        <time>2017-10-20T17:18:46Z</time>
      </trkpt>
      <trkpt lat="45.78913" lon="2.7159">
        <ele>799</ele>
        <time>2017-10-20T17:20:46Z</time>
      </trkpt>
      <trkpt lat="45.78873" lon="2.71618">
        <ele>794</ele>
        <time>2017-10-20T17:22:46Z</time>
      </trkpt>
      <trkpt lat="45.78862" lon="2.71646">
        <ele>787</ele>
        <time>2017-10-20T17:24:46Z</time>
      </trkpt>
      <trkpt lat="45.78825" lon="2.7168">
        <ele>782</ele>
        <time>2017-10-20T17:26:46Z</time>
      </trkpt>
      <trkpt lat="45.78815" lon="2.71691">
        <ele>782</ele>
        <time>2017-10-20T17:28:46Z</time>
      </trkpt>
      <trkpt lat="45.78812" lon="2.71712">
        <ele>780</ele>
        <time>2017-10-20T17:30:46Z</time>
      </trkpt>
      <trkpt lat="45.78812" lon="2.71719">
        <ele>780</ele>
        <time>2017-10-20T17:32:46Z</time>
      </trkpt>
      <trkpt lat="45.78826" lon="2.7172">
        <ele>779</ele>
        <time>2017-10-20T17:34:46Z</time>
      </trkpt>
      <trkpt lat="45.78864" lon="2.71727">
        <ele>778</ele>
        <time>2017-10-20T17:36:46Z</time>
      </trkpt>
      <trkpt lat="45.7891" lon="2.71749">
        <ele>776</ele>
        <time>2017-10-20T17:38:46Z</time>
      </trkpt>
      <trkpt lat="45.78931" lon="2.71773">
        <ele>780</ele>
        <time>2017-10-20T17:40:46Z</time>
      </trkpt>
      <trkpt lat="45.78937" lon="2.71771">
        <ele>781</ele>
        <time>2017-10-20T17:42:46Z</time>
      </trkpt>
      <trkpt lat="45.78936" lon="2.7176">
        <ele>780</ele>
        <time>2017-10-20T17:44:46Z</time>
      </trkpt>
      <trkpt lat="45.78936" lon="2.71747">
        <ele>779</ele>
        <time>2017-10-20T17:46:46Z</time>
      </trkpt>
      <trkpt lat="45.7894" lon="2.71731">
        <ele>780</ele>
        <time>2017-10-20T17:48:46Z</time>
      </trkpt>
      <trkpt lat="45.78945" lon="2.71727">
        <ele>781</ele>
        <time>2017-10-20T17:50:46Z</time>
      </trkpt>
      <trkpt lat="45.7895" lon="2.7173">
        <ele>781</ele>
        <time>2017-10-20T17:52:46Z</time>
      </trkpt>
      <trkpt lat="45.78971" lon="2.71731">
        <ele>784</ele>
        <time>2017-10-20T17:54:46Z</time>
      </trkpt>
      <trkpt lat="45.78973" lon="2.7173">
        <ele>785</ele>
        <time>2017-10-20T17:56:46Z</time>
      </trkpt>
      <trkpt lat="45.78972" lon="2.71728">
        <ele>784</ele>
        <time>2017-10-20T17:58:46Z</time>
      </trkpt>
      <trkpt lat="45.78978" lon="2.71718">
        <ele>784</ele>
        <time>2017-10-20T18:00:46Z</time>
      </trkpt>
      <trkpt lat="45.78983" lon="2.71713">
        <ele>784</ele>
        <time>2017-10-20T18:02:46Z</time>
      </trkpt>
      <trkpt lat="45.78997" lon="2.71709">
        <ele>785</ele>
        <time>2017-10-20T18:04:46Z</time>
      </trkpt>
      <trkpt lat="45.7902" lon="2.717">
        <ele>786</ele>
        <time>2017-10-20T18:06:46Z</time>
      </trkpt>
      <trkpt lat="45.79029" lon="2.717">
        <ele>786</ele>
        <time>2017-10-20T18:08:46Z</time>
      </trkpt>
      <trkpt lat="45.79047" lon="2.71709">
        <ele>789</ele>
        <time>2017-10-20T18:10:46Z</time>
      </trkpt>
      <trkpt lat="45.79065" lon="2.71718">
        <ele>793</ele>
        <time>2017-10-20T18:12:46Z</time>
      </trkpt>
      <trkpt lat="45.79088" lon="2.71725">
        <ele>795</ele>
        <time>2017-10-20T18:14:46Z</time>
      </trkpt>
      <trkpt lat="45.79113" lon="2.71726">
        <ele>795</ele>
        <time>2017-10-20T18:16:46Z</time>
      </trkpt>
      <trkpt lat="45.79135" lon="2.71752">
        <ele>798</ele>
        <time>2017-10-20T18:18:46Z</time>
      </trkpt>
      <trkpt lat="45.79162" lon="2.718">
        <ele>803</ele>
        <time>2017-10-20T18:20:46Z</time>
      </trkpt>
      <trkpt lat="45.79184" lon="2.71846">
        <ele>807</ele>
        <time>2017-10-20T18:22:46Z</time>
      </trkpt>
      <trkpt lat="45.79192" lon="2.71863">
        <ele>808</ele>
        <time>2017-10-20T18:24:46Z</time>
      </trkpt>
      <trkpt lat="45.79203" lon="2.71894">
        <ele>810</ele>
        <time>2017-10-20T18:26:46Z</time>
      </trkpt>
      <trkpt lat="45.7922" lon="2.71923">
        <ele>811</ele>
        <time>2017-10-20T18:28:46Z</time>
      </trkpt>
      <trkpt lat="45.79228" lon="2.71939">
        <ele>810</ele>
        <time>2017-10-20T18:30:46Z</time>
      </trkpt>
      <trkpt lat="45.7924" lon="2.71953">
        <ele>810</ele>
        <time>2017-10-20T18:32:46Z</time>
      </trkpt>
      <trkpt lat="45.79243" lon="2.71959">
        <ele>810</ele>
        <time>2017-10-20T18:34:46Z</time>
      </trkpt>
      <trkpt lat="45.79242" lon="2.71962">
        <ele>810</ele>
        <time>2017-10-20T18:36:46Z</time>
      </trkpt>
      <trkpt lat="45.79245" lon="2.71968">
        <ele>811</ele>
        <time>2017-10-20T18:38:46Z</time>
      </trkpt>
      <trkpt lat="45.79276" lon="2.71972">
        <ele>811</ele>
        <time>2017-10-20T18:40:46Z</time>
      </trkpt>
      <trkpt lat="45.79301" lon="2.71974">
        <ele>812</ele>
        <time>2017-10-20T18:42:46Z</time>
      </trkpt>
      <trkpt lat="45.79327" lon="2.71978">
        <ele>813</ele>
        <time>2017-10-20T18:44:46Z</time>
      </trkpt>
      <trkpt lat="45.79382" lon="2.71997">
        <ele>816</ele>
        <time>2017-10-20T18:46:46Z</time>
      </trkpt>
      <trkpt lat="45.7942" lon="2.72015">
        <ele>817</ele>
        <time>2017-10-20T18:48:46Z</time>
      </trkpt>
      <trkpt lat="45.79443" lon="2.7203">
        <ele>818</ele>
        <time>2017-10-20T18:50:46Z</time>
      </trkpt>
      <trkpt lat="45.79471" lon="2.72036">
        <ele>820</ele>
        <time>2017-10-20T18:52:46Z</time>
      </trkpt>
      <trkpt lat="45.79491" lon="2.72032">
        <ele>821</ele>
        <time>2017-10-20T18:54:46Z</time>
      </trkpt>
      <trkpt lat="45.7951" lon="2.7203">
        <ele>822</ele>
        <time>2017-10-20T18:56:46Z</time>
      </trkpt>
      <trkpt lat="45.79535" lon="2.72038">
        <ele>824</ele>
        <time>2017-10-20T18:58:46Z</time>
      </trkpt>
      <trkpt lat="45.79553" lon="2.72043">
        <ele>825</ele>
        <time>2017-10-20T19:00:46Z</time>
      </trkpt>
      <trkpt lat="45.79588" lon="2.72059">
        <ele>827</ele>
        <time>2017-10-20T19:02:46Z</time>
      </trkpt>
      <trkpt lat="45.79663" lon="2.72091">
        <ele>831</ele>
        <time>2017-10-20T19:04:46Z</time>
      </trkpt>
      <trkpt lat="45.79711" lon="2.72107">
        <ele>832</ele>
        <time>2017-10-20T19:06:46Z</time>
      </trkpt>
      <trkpt lat="45.79758" lon="2.72123">
        <ele>833</ele>
        <time>2017-10-20T19:08:46Z</time>
      </trkpt>
      <trkpt lat="45.79801" lon="2.72135">
        <ele>835</ele>
        <time>2017-10-20T19:10:46Z</time>
      </trkpt>
      <trkpt lat="45.79845" lon="2.7214">
        <ele>836</ele>
        <time>2017-10-20T19:12:46Z</time>
      </trkpt>
      <trkpt lat="45.79881" lon="2.72128">
        <ele>836</ele>
        <time>2017-10-20T19:14:46Z</time>
      </trkpt>
      <trkpt lat="45.79914" lon="2.72117">
        <ele>836</ele>
        <time>2017-10-20T19:16:46Z</time>
      </trkpt>
      <trkpt lat="45.7995" lon="2.72122">
        <ele>837</ele>
        <time>2017-10-20T19:18:46Z</time>
      </trkpt>
      <trkpt lat="45.79985" lon="2.7212">
        <ele>838</ele>
        <time>2017-10-20T19:20:46Z</time>
      </trkpt>
      <trkpt lat="45.80024" lon="2.72115">
        <ele>840</ele>
        <time>2017-10-20T19:22:46Z</time>
      </trkpt>
      <trkpt lat="45.80071" lon="2.72115">
        <ele>842</ele>
        <time>2017-10-20T19:24:46Z</time>
      </trkpt>
      <trkpt lat="45.80098" lon="2.72118">
        <ele>843</ele>
        <time>2017-10-20T19:26:46Z</time>
      </trkpt>
      <trkpt lat="45.80099" lon="2.72122">
        <ele>843</ele>
        <time>2017-10-20T19:28:46Z</time>
      </trkpt>
      <trkpt lat="45.80102" lon="2.72121">
        <ele>843</ele>
        <time>2017-10-20T19:30:46Z</time>
      </trkpt>
      <trkpt lat="45.80126" lon="2.72121">
        <ele>845</ele>
        <time>2017-10-20T19:32:46Z</time>
      </trkpt>
      <trkpt lat="45.80163" lon="2.72127">
        <ele>846</ele>
        <time>2017-10-20T19:34:46Z</time>
      </trkpt>
      <trkpt lat="45.80214" lon="2.72122">
        <ele>847</ele>
        <time>2017-10-20T19:36:46Z</time>
      </trkpt>
      <trkpt lat="45.8026" lon="2.72106">
        <ele>848</ele>
        <time>2017-10-20T19:38:46Z</time>
      </trkpt>
      <trkpt lat="45.80291" lon="2.72105">
        <ele>849</ele>
        <time>2017-10-20T19:40:46Z</time>
      </trkpt>
      <trkpt lat="45.80329" lon="2.72109">
        <ele>851</ele>
        <time>2017-10-20T19:42:46Z</time>
      </trkpt>
      <trkpt lat="45.80367" lon="2.72118">
        <ele>851</ele>
        <time>2017-10-20T19:44:46Z</time>
      </trkpt>
      <trkpt lat="45.80449" lon="2.72144">
        <ele>852</ele>
        <time>2017-10-20T19:46:46Z</time>
      </trkpt>
      <trkpt lat="45.80512" lon="2.72173">
        <ele>853</ele>
        <time>2017-10-20T19:48:46Z</time>
      </trkpt>
      <trkpt lat="45.80557" lon="2.72226">
        <ele>853</ele>
        <time>2017-10-20T19:50:46Z</time>
      </trkpt>
      <trkpt lat="45.8058" lon="2.7228">
        <ele>854</ele>
        <time>2017-10-20T19:52:46Z</time>
      </trkpt>
      <trkpt lat="45.806" lon="2.72333">
        <ele>854</ele>
        <time>2017-10-20T19:54:46Z</time>
      </trkpt>
      <trkpt lat="45.80619" lon="2.72398">
        <ele>855</ele>
        <time>2017-10-20T19:56:46Z</time>
      </trkpt>
      <trkpt lat="45.80641" lon="2.72465">
        <ele>856</ele>
        <time>2017-10-20T19:58:46Z</time>
      </trkpt>
      <trkpt lat="45.80676" lon="2.7254">
        <ele>857</ele>
        <time>2017-10-20T20:00:46Z</time>
      </trkpt>
      <trkpt lat="45.80705" lon="2.72581">
        <ele>858</ele>
        <time>2017-10-20T20:02:46Z</time>
      </trkpt>
      <trkpt lat="45.80742" lon="2.72639">
        <ele>859</ele>
        <time>2017-10-20T20:04:46Z</time>
      </trkpt>
      <trkpt lat="45.80771" lon="2.72674">
        <ele>860</ele>
        <time>2017-10-20T20:06:46Z</time>
      </trkpt>
      <trkpt lat="45.808" lon="2.72716">
        <ele>861</ele>
        <time>2017-10-20T20:08:46Z</time>
      </trkpt>
      <trkpt lat="45.80838" lon="2.72767">
        <ele>862</ele>
        <time>2017-10-20T20:10:46Z</time>
      </trkpt>
      <trkpt lat="45.8087" lon="2.72816">
        <ele>863</ele>
        <time>2017-10-20T20:12:46Z</time>
      </trkpt>
      <trkpt lat="45.80894" lon="2.72866">
        <ele>864</ele>
        <time>2017-10-20T20:14:46Z</time>
      </trkpt>
      <trkpt lat="45.80923" lon="2.72931">
        <ele>865</ele>
        <time>2017-10-20T20:16:46Z</time>
      </trkpt>
      <trkpt lat="45.80952" lon="2.72992">
        <ele>864</ele>
        <time>2017-10-20T20:18:46Z</time>
      </trkpt>
      <trkpt lat="45.80994" lon="2.7311">
        <ele>864</ele>
        <time>2017-10-20T20:20:46Z</time>
      </trkpt>
      <trkpt lat="45.81022" lon="2.7319">
        <ele>864</ele>
        <time>2017-10-20T20:22:46Z</time>
      </trkpt>
      <trkpt lat="45.81027" lon="2.73207">
        <ele>864</ele>
        <time>2017-10-20T20:24:46Z</time>
      </trkpt>
      <trkpt lat="45.8107" lon="2.73332">
        <ele>863</ele>
        <time>2017-10-20T20:26:46Z</time>
      </trkpt>
      <trkpt lat="45.81095" lon="2.73401">
        <ele>863</ele>
        <time>2017-10-20T20:28:46Z</time>
      </trkpt>
      <trkpt lat="45.81103" lon="2.73427">
        <ele>862</ele>
        <time>2017-10-20T20:30:46Z</time>
      </trkpt>
      <trkpt lat="45.81116" lon="2.73441">
        <ele>861</ele>
        <time>2017-10-20T20:32:46Z</time>
      </trkpt>
      <trkpt lat="45.81125" lon="2.73486">
        <ele>859</ele>
        <time>2017-10-20T20:34:46Z</time>
      </trkpt>
      <trkpt lat="45.81131" lon="2.73547">
        <ele>857</ele>
        <time>2017-10-20T20:36:46Z</time>
      </trkpt>
      <trkpt lat="45.81134" lon="2.73627">
        <ele>854</ele>
        <time>2017-10-20T20:38:46Z</time>
      </trkpt>
      <trkpt lat="45.81131" lon="2.73659">
        <ele>853</ele>
        <time>2017-10-20T20:40:46Z</time>
      </trkpt>
      <trkpt lat="45.81096" lon="2.73816">
        <ele>847</ele>
        <time>2017-10-20T20:42:46Z</time>
      </trkpt>
      <trkpt lat="45.81077" lon="2.73891">
        <ele>848</ele>
        <time>2017-10-20T20:44:46Z</time>
      </trkpt>
      <trkpt lat="45.81076" lon="2.73895">
        <ele>848</ele>
        <time>2017-10-20T20:46:46Z</time>
      </trkpt>
      <trkpt lat="45.81075" lon="2.73896">
        <ele>848</ele>
        <time>2017-10-20T20:48:46Z</time>
      </trkpt>
      <trkpt lat="45.81072" lon="2.73894">
        <ele>848</ele>
        <time>2017-10-20T20:50:46Z</time>
      </trkpt>
      <trkpt lat="45.81073" lon="2.73897">
        <ele>848</ele>
        <time>2017-10-20T20:52:46Z</time>
      </trkpt>
      <trkpt lat="45.81076" lon="2.73902">
        <ele>848</ele>
        <time>2017-10-20T20:54:46Z</time>
      </trkpt>
      <trkpt lat="45.81079" lon="2.73905">
        <ele>848</ele>
        <time>2017-10-20T20:56:46Z</time>
      </trkpt>
      <trkpt lat="45.81082" lon="2.73908">
        <ele>848</ele>
        <time>2017-10-20T20:58:46Z</time>
      </trkpt>
      <trkpt lat="45.81114" lon="2.7392">
        <ele>846</ele>
        <time>2017-10-20T21:00:46Z</time>
      </trkpt>
      <trkpt lat="45.81124" lon="2.73926">
        <ele>845</ele>
        <time>2017-10-20T21:02:46Z</time>
      </trkpt>
      <trkpt lat="45.81203" lon="2.74028">
        <ele>834</ele>
        <time>2017-10-20T21:04:46Z</time>
      </trkpt>
      <trkpt lat="45.8121" lon="2.74035">
        <ele>833</ele>
        <time>2017-10-20T21:06:46Z</time>
      </trkpt>
      <trkpt lat="45.81217" lon="2.7404">
        <ele>832</ele>
        <time>2017-10-20T21:08:46Z</time>
      </trkpt>
      <trkpt lat="45.81225" lon="2.74043">
        <ele>831</ele>
        <time>2017-10-20T21:10:46Z</time>
      </trkpt>
      <trkpt lat="45.81233" lon="2.74043">
        <ele>830</ele>
        <time>2017-10-20T21:12:46Z</time>
      </trkpt>
      <trkpt lat="45.81241" lon="2.7404">
        <ele>829</ele>
        <time>2017-10-20T21:14:46Z</time>
      </trkpt>
      <trkpt lat="45.81246" lon="2.74035">
        <ele>829</ele>
        <time>2017-10-20T21:16:46Z</time>
      </trkpt>
      <trkpt lat="45.8125" lon="2.7403">
        <ele>828</ele>
        <time>2017-10-20T21:18:46Z</time>
      </trkpt>
      <trkpt lat="45.81258" lon="2.74024">
        <ele>826</ele>
        <time>2017-10-20T21:20:46Z</time>
      </trkpt>
      <trkpt lat="45.81262" lon="2.74024">
        <ele>825</ele>
        <time>2017-10-20T21:22:46Z</time>
      </trkpt>
      <trkpt lat="45.81265" lon="2.74035">
        <ele>824</ele>
        <time>2017-10-20T21:24:46Z</time>
      </trkpt>
      <trkpt lat="45.81267" lon="2.74055">
        <ele>824</ele>
        <time>2017-10-20T21:26:46Z</time>
      </trkpt>
      <trkpt lat="45.81271" lon="2.74183">
        <ele>816</ele>
        <time>2017-10-20T21:28:46Z</time>
      </trkpt>
      <trkpt lat="45.81273" lon="2.74208">
        <ele>814</ele>
        <time>2017-10-20T21:30:46Z</time>
      </trkpt>
      <trkpt lat="45.81275" lon="2.7423">
        <ele>813</ele>
        <time>2017-10-20T21:32:46Z</time>
      </trkpt>
      <trkpt lat="45.81278" lon="2.74269">
        <ele>810</ele>
        <time>2017-10-20T21:34:46Z</time>
      </trkpt>
      <trkpt lat="45.81285" lon="2.74264">
        <ele>809</ele>
        <time>2017-10-20T21:36:46Z</time>
      </trkpt>
      <trkpt lat="45.8133" lon="2.7428">
        <ele>804</ele>
        <time>2017-10-20T21:38:46Z</time>
      </trkpt>
      <trkpt lat="45.81383" lon="2.74301">
        <ele>796</ele>
        <time>2017-10-20T21:40:46Z</time>
      </trkpt>
      <trkpt lat="45.81409" lon="2.74314">
        <ele>792</ele>
        <time>2017-10-20T21:42:46Z</time>
      </trkpt>
      <trkpt lat="45.81429" lon="2.74341">
        <ele>788</ele>
        <time>2017-10-20T21:44:46Z</time>
      </trkpt>
      <trkpt lat="45.81433" lon="2.74361">
        <ele>786</ele>
        <time>2017-10-20T21:46:46Z</time>
      </trkpt>
      <trkpt lat="45.81438" lon="2.74442">
        <ele>777</ele>
        <time>2017-10-20T21:48:46Z</time>
      </trkpt>
      <trkpt lat="45.81454" lon="2.74468">
        <ele>774</ele>
        <time>2017-10-20T21:50:46Z</time>
      </trkpt>
      <trkpt lat="45.81485" lon="2.74471">
        <ele>772</ele>
        <time>2017-10-20T21:52:46Z</time>
      </trkpt>
      <trkpt lat="45.81522" lon="2.74467">
        <ele>770</ele>
        <time>2017-10-20T21:54:46Z</time>
      </trkpt>
      <trkpt lat="45.81556" lon="2.74483">
        <ele>769</ele>
        <time>2017-10-20T21:56:46Z</time>
      </trkpt>
      <trkpt lat="45.81565" lon="2.74493">
        <ele>769</ele>
        <time>2017-10-20T21:58:46Z</time>
      </trkpt>
      <trkpt lat="45.81565" lon="2.745">
        <ele>769</ele>
        <time>2017-10-20T22:00:46Z</time>
      </trkpt>
      <trkpt lat="45.81568" lon="2.74501">
        <ele>769</ele>
        <time>2017-10-20T22:02:46Z</time>
      </trkpt>
      <trkpt lat="45.81568" lon="2.74503">
        <ele>770</ele>
        <time>2017-10-20T22:04:46Z</time>
      </trkpt>
      <trkpt lat="45.8157" lon="2.74504">
        <ele>770</ele>
        <time>2017-10-20T22:06:46Z</time>
      </trkpt>
      <trkpt lat="45.81573" lon="2.74509">
        <ele>771</ele>
        <time>2017-10-20T22:08:46Z</time>
      </trkpt>
      <trkpt lat="45.81582" lon="2.74512">
        <ele>771</ele>
        <time>2017-10-20T22:10:46Z</time>
      </trkpt>
      <trkpt lat="45.81587" lon="2.74511">
        <ele>771</ele>
        <time>2017-10-20T22:12:46Z</time>
      </trkpt>
      <trkpt lat="45.81602" lon="2.74512">
        <ele>771</ele>
        <time>2017-10-20T22:14:46Z</time>
      </trkpt>
      <trkpt lat="45.81623" lon="2.7451">
        <ele>771</ele>
        <time>2017-10-20T22:16:46Z</time>
      </trkpt>
      <trkpt lat="45.81649" lon="2.74513">
        <ele>772</ele>
        <time>2017-10-20T22:18:46Z</time>
      </trkpt>
      <trkpt lat="45.8166" lon="2.74517">
        <ele>773</ele>
        <time>2017-10-20T22:20:46Z</time>
      </trkpt>
      <trkpt lat="45.81675" lon="2.74512">
        <ele>773</ele>
        <time>2017-10-20T22:22:46Z</time>
      </trkpt>
      <trkpt lat="45.81681" lon="2.74506">
        <ele>773</ele>
        <time>2017-10-20T22:24:46Z</time>
      </trkpt>
      <trkpt lat="45.81699" lon="2.74498">
        <ele>773</ele>
        <time>2017-10-20T22:26:46Z</time>
      </trkpt>
      <trkpt lat="45.81703" lon="2.74497">
        <ele>773</ele>
        <time>2017-10-20T22:28:46Z</time>
      </trkpt>
      <trkpt lat="45.81727" lon="2.74487">
        <ele>774</ele>
        <time>2017-10-20T22:30:46Z</time>
      </trkpt>
      <trkpt lat="45.81751" lon="2.74491">
        <ele>776</ele>
        <time>2017-10-20T22:32:46Z</time>
      </trkpt>
      <trkpt lat="45.81772" lon="2.74491">
        <ele>777</ele>
        <time>2017-10-20T22:34:46Z</time>
      </trkpt>
      <trkpt lat="45.81783" lon="2.74488">
        <ele>777</ele>
        <time>2017-10-20T22:36:46Z</time>
      </trkpt>
      <trkpt lat="45.81812" lon="2.7449">
        <ele>778</ele>
        <time>2017-10-20T22:38:46Z</time>
      </trkpt>
      <trkpt lat="45.81832" lon="2.74497">
        <ele>780</ele>
        <time>2017-10-20T22:40:46Z</time>
      </trkpt>
      <trkpt lat="45.81846" lon="2.74514">
        <ele>783</ele>
        <time>2017-10-20T22:42:46Z</time>
      </trkpt>
      <trkpt lat="45.81871" lon="2.74532">
        <ele>787</ele>
        <time>2017-10-20T22:44:46Z</time>
      </trkpt>
      <trkpt lat="45.81896" lon="2.74552">
        <ele>791</ele>
        <time>2017-10-20T22:46:46Z</time>
      </trkpt>
      <trkpt lat="45.819" lon="2.74558">
        <ele>792</ele>
        <time>2017-10-20T22:48:46Z</time>
      </trkpt>
      <trkpt lat="45.81922" lon="2.74581">
        <ele>796</ele>
        <time>2017-10-20T22:50:46Z</time>
      </trkpt>
      <trkpt lat="45.81942" lon="2.74607">
        <ele>797</ele>
        <time>2017-10-20T22:52:46Z</time>
      </trkpt>
      <trkpt lat="45.81955" lon="2.74629">
        <ele>798</ele>
        <time>2017-10-20T22:54:46Z</time>
      </trkpt>
      <trkpt lat="45.81973" lon="2.74656">
        <ele>799</ele>
        <time>2017-10-20T22:56:46Z</time>
      </trkpt>
      <trkpt lat="45.82" lon="2.74691">
        <ele>799</ele>
        <time>2017-10-20T22:58:46Z</time>
      </trkpt>
      <trkpt lat="45.82055" lon="2.7472">
        <ele>797</ele>
        <time>2017-10-20T23:00:46Z</time>
      </trkpt>
      <trkpt lat="45.82081" lon="2.74727">
        <ele>796</ele>
        <time>2017-10-20T23:02:46Z</time>
      </trkpt>
      <trkpt lat="45.82081" lon="2.7473">
        <ele>796</ele>
        <time>2017-10-20T23:04:46Z</time>
      </trkpt>
      <trkpt lat="45.82102" lon="2.74739">
        <ele>795</ele>
        <time>2017-10-20T23:06:46Z</time>
      </trkpt>
      <trkpt lat="45.82114" lon="2.74752">
        <ele>794</ele>
        <time>2017-10-20T23:08:46Z</time>
      </trkpt>
      <trkpt lat="45.82119" lon="2.74749">
        <ele>794</ele>
        <time>2017-10-20T23:10:46Z</time>
      </trkpt>
      <trkpt lat="45.82122" lon="2.74748">
        <ele>794</ele>
        <time>2017-10-20T23:12:46Z</time>
      </trkpt>
      <trkpt lat="45.82126" lon="2.74749">
        <ele>794</ele>
        <time>2017-10-20T23:14:46Z</time>
      </trkpt>
      <trkpt lat="45.822" lon="2.74778">
        <ele>790</ele>
        <time>2017-10-20T23:16:46Z</time>
      </trkpt>
      <trkpt lat="45.82227" lon="2.74789">
        <ele>788</ele>
        <time>2017-10-20T23:18:46Z</time>
      </trkpt>
      <trkpt lat="45.82234" lon="2.74791">
        <ele>788</ele>
        <time>2017-10-20T23:20:46Z</time>
      </trkpt>
      <trkpt lat="45.82241" lon="2.74794">
        <ele>788</ele>
        <time>2017-10-20T23:22:46Z</time>
      </trkpt>
      <trkpt lat="45.82255" lon="2.74802">
        <ele>787</ele>
        <time>2017-10-20T23:24:46Z</time>
      </trkpt>
      <trkpt lat="45.82307" lon="2.7484">
        <ele>783</ele>
        <time>2017-10-20T23:26:46Z</time>
      </trkpt>
      <trkpt lat="45.82326" lon="2.74857">
        <ele>782</ele>
        <time>2017-10-20T23:28:46Z</time>
      </trkpt>
      <trkpt lat="45.82363" lon="2.74903">
        <ele>781</ele>
        <time>2017-10-20T23:30:46Z</time>
      </trkpt>
      <trkpt lat="45.82422" lon="2.74978">
        <ele>780</ele>
        <time>2017-10-20T23:32:46Z</time>
      </trkpt>
      <trkpt lat="45.82426" lon="2.74982">
        <ele>780</ele>
        <time>2017-10-20T23:34:46Z</time>
      </trkpt>
      <trkpt lat="45.82506" lon="2.75035">
        <ele>776</ele>
        <time>2017-10-20T23:36:46Z</time>
      </trkpt>
      <trkpt lat="45.82529" lon="2.75048">
        <ele>774</ele>
        <time>2017-10-20T23:38:46Z</time>
      </trkpt>
      <trkpt lat="45.82534" lon="2.75055">
        <ele>773</ele>
        <time>2017-10-20T23:40:46Z</time>
      </trkpt>
      <trkpt lat="45.82547" lon="2.75062">
        <ele>772</ele>
        <time>2017-10-20T23:42:46Z</time>
      </trkpt>
      <trkpt lat="45.82553" lon="2.75063">
        <ele>772</ele>
        <time>2017-10-20T23:44:46Z</time>
      </trkpt>
      <trkpt lat="45.82637" lon="2.75078">
        <ele>766</ele>
        <time>2017-10-20T23:46:46Z</time>
      </trkpt>
      <trkpt lat="45.82707" lon="2.7508">
        <ele>758</ele>
        <time>2017-10-20T23:48:46Z</time>
      </trkpt>
      <trkpt lat="45.82754" lon="2.7508">
        <ele>751</ele>
        <time>2017-10-20T23:50:46Z</time>
      </trkpt>
      <trkpt lat="45.82767" lon="2.75076">
        <ele>749</ele>
        <time>2017-10-20T23:52:46Z</time>
      </trkpt>
      <trkpt lat="45.82776" lon="2.75072">
        <ele>748</ele>
        <time>2017-10-20T23:54:46Z</time>
      </trkpt>
      <trkpt lat="45.82816" lon="2.75048">
        <ele>745</ele>
        <time>2017-10-20T23:56:46Z</time>
      </trkpt>
      <trkpt lat="45.82839" lon="2.75042">
        <ele>742</ele>
        <time>2017-10-20T23:58:46Z</time>
      </trkpt>
      <trkpt lat="45.82842" lon="2.75043">
        <ele>742</ele>
        <time>2017-10-21T00:00:46Z</time>
      </trkpt>
      <trkpt lat="45.82849" lon="2.75053">
        <ele>740</ele>
        <time>2017-10-21T00:02:46Z</time>
      </trkpt>
      <trkpt lat="45.82874" lon="2.75088">
        <ele>737</ele>
        <time>2017-10-21T00:04:46Z</time>
      </trkpt>
      <trkpt lat="45.82906" lon="2.75134">
        <ele>737</ele>
        <time>2017-10-21T00:06:46Z</time>
      </trkpt>
      <trkpt lat="45.82907" lon="2.75136">
        <ele>737</ele>
        <time>2017-10-21T00:08:46Z</time>
      </trkpt>
      <trkpt lat="45.82913" lon="2.7515">
        <ele>737</ele>
        <time>2017-10-21T00:10:46Z</time>
      </trkpt>
      <trkpt lat="45.82916" lon="2.75177">
        <ele>738</ele>
        <time>2017-10-21T00:12:46Z</time>
      </trkpt>
      <trkpt lat="45.82919" lon="2.75251">
        <ele>741</ele>
        <time>2017-10-21T00:14:46Z</time>
      </trkpt>
      <trkpt lat="45.82919" lon="2.75268">
        <ele>741</ele>
        <time>2017-10-21T00:16:46Z</time>
      </trkpt>
      <trkpt lat="45.8292" lon="2.75279">
        <ele>742</ele>
        <time>2017-10-21T00:18:46Z</time>
      </trkpt>
      <trkpt lat="45.82922" lon="2.75314">
        <ele>742</ele>
        <time>2017-10-21T00:20:46Z</time>
      </trkpt>
      <trkpt lat="45.82924" lon="2.75341">
        <ele>743</ele>
        <time>2017-10-21T00:22:46Z</time>
      </trkpt>
      <trkpt lat="45.82927" lon="2.75353">
        <ele>743</ele>
        <time>2017-10-21T00:24:46Z</time>
      </trkpt>
      <trkpt lat="45.82932" lon="2.75374">
        <ele>745</ele>
        <time>2017-10-21T00:26:46Z</time>
      </trkpt>
      <trkpt lat="45.82942" lon="2.75388">
        <ele>746</ele>
        <time>2017-10-21T00:28:46Z</time>
      </trkpt>
      <trkpt lat="45.82957" lon="2.75402">
        <ele>748</ele>
        <time>2017-10-21T00:30:46Z</time>
      </trkpt>
      <trkpt lat="45.82971" lon="2.75407">
        <ele>749</ele>
        <time>2017-10-21T00:32:46Z</time>
      </trkpt>
      <trkpt lat="45.82988" lon="2.75407">
        <ele>750</ele>
        <time>2017-10-21T00:34:46Z</time>
      </trkpt>
      <trkpt lat="45.83005" lon="2.75399">
        <ele>753</ele>
        <time>2017-10-21T00:36:46Z</time>
      </trkpt>
      <trkpt lat="45.83011" lon="2.75397">
        <ele>753</ele>
        <time>2017-10-21T00:38:46Z</time>
      </trkpt>
      <trkpt lat="45.83022" lon="2.75391">
        <ele>754</ele>
        <time>2017-10-21T00:40:46Z</time>
      </trkpt>
      <trkpt lat="45.83043" lon="2.75389">
        <ele>756</ele>
        <time>2017-10-21T00:42:46Z</time>
      </trkpt>
      <trkpt lat="45.83065" lon="2.75393">
        <ele>758</ele>
        <time>2017-10-21T00:44:46Z</time>
      </trkpt>
      <trkpt lat="45.83082" lon="2.75401">
        <ele>759</ele>
        <time>2017-10-21T00:46:46Z</time>
      </trkpt>
      <trkpt lat="45.831" lon="2.75408">
        <ele>761</ele>
        <time>2017-10-21T00:48:46Z</time>
      </trkpt>
      <trkpt lat="45.83121" lon="2.75421">
        <ele>762</ele>
        <time>2017-10-21T00:50:46Z</time>
      </trkpt>
      <trkpt lat="45.83142" lon="2.75431">
        <ele>764</ele>
        <time>2017-10-21T00:52:46Z</time>
      </trkpt>
      <trkpt lat="45.83149" lon="2.75435">
        <ele>765</ele>
        <time>2017-10-21T00:54:46Z</time>
      </trkpt>
      <trkpt lat="45.83157" lon="2.7547">
        <ele>766</ele>
        <time>2017-10-21T00:56:46Z</time>
      </trkpt>
      <trkpt lat="45.83157" lon="2.75513">
        <ele>766</ele>
        <time>2017-10-21T00:58:46Z</time>
      </trkpt>
      <trkpt lat="45.83162" lon="2.75597">
        <ele>768</ele>
        <time>2017-10-21T01:00:46Z</time>
      </trkpt>
      <trkpt lat="45.83155" lon="2.75626">
        <ele>770</ele>
        <time>2017-10-21T01:02:46Z</time>
      </trkpt>
      <trkpt lat="45.83142" lon="2.75667">
        <ele>772</ele>
        <time>2017-10-21T01:04:46Z</time>
      </trkpt>
      <trkpt lat="45.83119" lon="2.75743">
        <ele>774</ele>
        <time>2017-10-21T01:06:46Z</time>
      </trkpt>
      <trkpt lat="45.83113" lon="2.75778">
        <ele>775</ele>
        <time>2017-10-21T01:08:46Z</time>
      </trkpt>
      <trkpt lat="45.8312" lon="2.75817">
        <ele>778</ele>
        <time>2017-10-21T01:10:46Z</time>
      </trkpt>
      <trkpt lat="45.83132" lon="2.7586">
        <ele>780</ele>
        <time>2017-10-21T01:12:46Z</time>
      </trkpt>
      <trkpt lat="45.83149" lon="2.75898">
        <ele>782</ele>
        <time>2017-10-21T01:14:46Z</time>
      </trkpt>
      <trkpt lat="45.83162" lon="2.75942">
        <ele>783</ele>
        <time>2017-10-21T01:16:46Z</time>
      </trkpt>
      <trkpt lat="45.83156" lon="2.75986">
        <ele>782</ele>
        <time>2017-10-21T01:18:46Z</time>
      </trkpt>
      <trkpt lat="45.83148" lon="2.7603">
        <ele>782</ele>
        <time>2017-10-21T01:20:46Z</time>
      </trkpt>
      <trkpt lat="45.83143" lon="2.7607">
        <ele>784</ele>
        <time>2017-10-21T01:22:46Z</time>
      </trkpt>
      <trkpt lat="45.83141" lon="2.76076">
        <ele>784</ele>
        <time>2017-10-21T01:24:46Z</time>
      </trkpt>
      <trkpt lat="45.83133" lon="2.76114">
        <ele>786</ele>
        <time>2017-10-21T01:26:46Z</time>
      </trkpt>
      <trkpt lat="45.8313" lon="2.76159">
        <ele>788</ele>
        <time>2017-10-21T01:28:46Z</time>
      </trkpt>
      <trkpt lat="45.8312" lon="2.76219">
        <ele>790</ele>
        <time>2017-10-21T01:30:46Z</time>
      </trkpt>
      <trkpt lat="45.83112" lon="2.76267">
        <ele>791</ele>
        <time>2017-10-21T01:32:46Z</time>
      </trkpt>
      <trkpt lat="45.83108" lon="2.76314">
        <ele>793</ele>
        <time>2017-10-21T01:34:46Z</time>
      </trkpt>
      <trkpt lat="45.831" lon="2.76384">
        <ele>793</ele>
        <time>2017-10-21T01:36:46Z</time>
      </trkpt>
      <trkpt lat="45.83076" lon="2.76597">
        <ele>792</ele>
        <time>2017-10-21T01:38:46Z</time>
      </trkpt>
      <trkpt lat="45.8305" lon="2.76691">
        <ele>791</ele>
        <time>2017-10-21T01:40:46Z</time>
      </trkpt>
      <trkpt lat="45.83015" lon="2.76781">
        <ele>796</ele>
        <time>2017-10-21T01:42:46Z</time>
      </trkpt>
      <trkpt lat="45.83001" lon="2.76831">
        <ele>798</ele>
        <time>2017-10-21T01:44:46Z</time>
      </trkpt>
      <trkpt lat="45.82999" lon="2.76836">
        <ele>798</ele>
        <time>2017-10-21T01:46:46Z</time>
      </trkpt>
      <trkpt lat="45.82994" lon="2.7685">
        <ele>798</ele>
        <time>2017-10-21T01:48:46Z</time>
      </trkpt>
      <trkpt lat="45.82973" lon="2.76949">
        <ele>800</ele>
        <time>2017-10-21T01:50:46Z</time>
      </trkpt>
      <trkpt lat="45.82958" lon="2.76983">
        <ele>801</ele>
        <time>2017-10-21T01:52:46Z</time>
      </trkpt>
      <trkpt lat="45.82944" lon="2.77022">
        <ele>803</ele>
        <time>2017-10-21T01:54:46Z</time>
      </trkpt>
      <trkpt lat="45.82937" lon="2.77047">
        <ele>805</ele>
        <time>2017-10-21T01:56:46Z</time>
      </trkpt>
      <trkpt lat="45.82935" lon="2.77058">
        <ele>805</ele>
        <time>2017-10-21T01:58:46Z</time>
      </trkpt>
      <trkpt lat="45.82928" lon="2.77083">
        <ele>807</ele>
        <time>2017-10-21T02:00:46Z</time>
      </trkpt>
      <trkpt lat="45.82919" lon="2.77102">
        <ele>809</ele>
        <time>2017-10-21T02:02:46Z</time>
      </trkpt>
      <trkpt lat="45.82912" lon="2.7713">
        <ele>810</ele>
        <time>2017-10-21T02:04:46Z</time>
      </trkpt>
      <trkpt lat="45.82917" lon="2.7717">
        <ele>812</ele>
        <time>2017-10-21T02:06:46Z</time>
      </trkpt>
      <trkpt lat="45.8292" lon="2.77226">
        <ele>812</ele>
        <time>2017-10-21T02:08:46Z</time>
      </trkpt>
      <trkpt lat="45.82917" lon="2.77375">
        <ele>814</ele>
        <time>2017-10-21T02:10:46Z</time>
      </trkpt>
      <trkpt lat="45.8293" lon="2.77446">
        <ele>814</ele>
        <time>2017-10-21T02:12:46Z</time>
      </trkpt>
      <trkpt lat="45.82943" lon="2.77501">
        <ele>815</ele>
        <time>2017-10-21T02:14:46Z</time>
      </trkpt>
      <trkpt lat="45.82993" lon="2.77615">
        <ele>817</ele>
        <time>2017-10-21T02:16:46Z</time>
      </trkpt>
      <trkpt lat="45.83009" lon="2.7765">
        <ele>818</ele>
        <time>2017-10-21T02:18:46Z</time>
      </trkpt>
      <trkpt lat="45.83019" lon="2.77692">
        <ele>820</ele>
        <time>2017-10-21T02:20:46Z</time>
      </trkpt>
      <trkpt lat="45.83039" lon="2.77789">
        <ele>821</ele>
        <time>2017-10-21T02:22:46Z</time>
      </trkpt>
      <trkpt lat="45.83049" lon="2.77844">
        <ele>822</ele>
        <time>2017-10-21T02:24:46Z</time>
      </trkpt>
      <trkpt lat="45.83059" lon="2.77899">
        <ele>821</ele>
        <time>2017-10-21T02:26:46Z</time>
      </trkpt>
      <trkpt lat="45.83064" lon="2.77933">
        <ele>820</ele>
        <time>2017-10-21T02:28:46Z</time>
      </trkpt>
      <trkpt lat="45.83084" lon="2.78028">
        <ele>819</ele>
        <time>2017-10-21T02:30:46Z</time>
      </trkpt>
      <trkpt lat="45.83093" lon="2.78099">
        <ele>817</ele>
        <time>2017-10-21T02:32:46Z</time>
      </trkpt>
      <trkpt lat="45.83095" lon="2.78101">
        <ele>817</ele>
        <time>2017-10-21T02:34:46Z</time>
      </trkpt>
      <trkpt lat="45.831" lon="2.78111">
        <ele>816</ele>
        <time>2017-10-21T02:36:46Z</time>
      </trkpt>
      <trkpt lat="45.83101" lon="2.78112">
        <ele>816</ele>
        <time>2017-10-21T02:38:46Z</time>
      </trkpt>
      <trkpt lat="45.83135" lon="2.78135">
        <ele>813</ele>
        <time>2017-10-21T02:40:46Z</time>
      </trkpt>
      <trkpt lat="45.83206" lon="2.78193">
        <ele>807</ele>
        <time>2017-10-21T02:42:46Z</time>
      </trkpt>
      <trkpt lat="45.83338" lon="2.78303">
        <ele>800</ele>
        <time>2017-10-21T02:44:46Z</time>
      </trkpt>
      <trkpt lat="45.83406" lon="2.78357">
        <ele>799</ele>
        <time>2017-10-21T02:46:46Z</time>
      </trkpt>
      <trkpt lat="45.83411" lon="2.78358">
        <ele>799</ele>
        <time>2017-10-21T02:48:46Z</time>
      </trkpt>
      <trkpt lat="45.83433" lon="2.78371">
        <ele>797</ele>
        <time>2017-10-21T02:50:46Z</time>
      </trkpt>
      <trkpt lat="45.83445" lon="2.78383">
        <ele>796</ele>
        <time>2017-10-21T02:52:46Z</time>
      </trkpt>
      <trkpt lat="45.83448" lon="2.78388">
        <ele>795</ele>
        <time>2017-10-21T02:54:46Z</time>
      </trkpt>
      <trkpt lat="45.8345" lon="2.78394">
        <ele>795</ele>
        <time>2017-10-21T02:56:46Z</time>
      </trkpt>
      <trkpt lat="45.83451" lon="2.78402">
        <ele>795</ele>
        <time>2017-10-21T02:58:46Z</time>
      </trkpt>
      <trkpt lat="45.8345" lon="2.78408">
        <ele>794</ele>
        <time>2017-10-21T03:00:46Z</time>
      </trkpt>
      <trkpt lat="45.83451" lon="2.78447">
        <ele>791</ele>
        <time>2017-10-21T03:02:46Z</time>
      </trkpt>
      <trkpt lat="45.83443" lon="2.78464">
        <ele>791</ele>
        <time>2017-10-21T03:04:46Z</time>
      </trkpt>
      <trkpt lat="45.83417" lon="2.78478">
        <ele>792</ele>
        <time>2017-10-21T03:06:46Z</time>
      </trkpt>
      <trkpt lat="45.83414" lon="2.78481">
        <ele>792</ele>
        <time>2017-10-21T03:08:46Z</time>
      </trkpt>
      <trkpt lat="45.83403" lon="2.78498">
        <ele>791</ele>
        <time>2017-10-21T03:10:46Z</time>
      </trkpt>
      <trkpt lat="45.83401" lon="2.78497">
        <ele>791</ele>
        <time>2017-10-21T03:12:46Z</time>
      </trkpt>
      <trkpt lat="45.83397" lon="2.78501">
        <ele>791</ele>
        <time>2017-10-21T03:14:46Z</time>
      </trkpt>
      <trkpt lat="45.83398" lon="2.78502">
        <ele>791</ele>
        <time>2017-10-21T03:16:46Z</time>
      </trkpt>
      <trkpt lat="45.83399" lon="2.785">
        <ele>791</ele>
        <time>2017-10-21T03:18:46Z</time>
      </trkpt>
      <trkpt lat="45.83399" lon="2.78505">
        <ele>791</ele>
        <time>2017-10-21T03:20:46Z</time>
      </trkpt>
      <trkpt lat="45.83404" lon="2.78511">
        <ele>791</ele>
        <time>2017-10-21T03:22:46Z</time>
      </trkpt>
      <trkpt lat="45.83407" lon="2.78518">
        <ele>790</ele>
        <time>2017-10-21T03:24:46Z</time>
      </trkpt>
      <trkpt lat="45.83421" lon="2.78544">
        <ele>787</ele>
        <time>2017-10-21T03:26:46Z</time>
      </trkpt>
      <trkpt lat="45.83427" lon="2.78558">
        <ele>786</ele>
        <time>2017-10-21T03:28:46Z</time>
      </trkpt>
      <trkpt lat="45.83432" lon="2.78632">
        <ele>779</ele>
        <time>2017-10-21T03:30:46Z</time>
      </trkpt>
      <trkpt lat="45.83432" lon="2.7864">
        <ele>779</ele>
        <time>2017-10-21T03:32:46Z</time>
      </trkpt>
      <trkpt lat="45.83428" lon="2.78681">
        <ele>776</ele>
        <time>2017-10-21T03:34:46Z</time>
      </trkpt>
      <trkpt lat="45.83424" lon="2.78693">
        <ele>775</ele>
        <time>2017-10-21T03:36:46Z</time>
      </trkpt>
      <trkpt lat="45.83417" lon="2.78702">
        <ele>776</ele>
        <time>2017-10-21T03:38:46Z</time>
      </trkpt>
      <trkpt lat="45.83396" lon="2.78736">
        <ele>775</ele>
        <time>2017-10-21T03:40:46Z</time>
      </trkpt>
      <trkpt lat="45.83345" lon="2.78817">
        <ele>774</ele>
        <time>2017-10-21T03:42:46Z</time>
      </trkpt>
      <trkpt lat="45.83312" lon="2.78845">
        <ele>777</ele>
        <time>2017-10-21T03:44:46Z</time>
      </trkpt>
      <trkpt lat="45.83289" lon="2.78872">
        <ele>781</ele>
        <time>2017-10-21T03:46:46Z</time>
      </trkpt>
      <trkpt lat="45.83265" lon="2.78927">
        <ele>782</ele>
        <time>2017-10-21T03:48:46Z</time>
      </trkpt>
      <trkpt lat="45.83258" lon="2.78957">
        <ele>781</ele>
        <time>2017-10-21T03:50:46Z</time>
      </trkpt>
      <trkpt lat="45.83239" lon="2.79001">
        <ele>780</ele>
        <time>2017-10-21T03:52:46Z</time>
      </trkpt>
      <trkpt lat="45.83213" lon="2.79036">
        <ele>784</ele>
        <time>2017-10-21T03:54:46Z</time>
      </trkpt>
      <trkpt lat="45.83199" lon="2.79051">
        <ele>784</ele>
        <time>2017-10-21T03:56:46Z</time>
      </trkpt>
      <trkpt lat="45.83187" lon="2.79066">
        <ele>783</ele>
        <time>2017-10-21T03:58:46Z</time>
      </trkpt>
      <trkpt lat="45.83182" lon="2.79075">
        <ele>783</ele>
        <time>2017-10-21T04:00:46Z</time>
      </trkpt>
      <trkpt lat="45.83159" lon="2.79103">
        <ele>782</ele>
        <time>2017-10-21T04:02:46Z</time>
      </trkpt>
      <trkpt lat="45.83141" lon="2.79119">
        <ele>782</ele>
        <time>2017-10-21T04:04:46Z</time>
      </trkpt>
      <trkpt lat="45.83075" lon="2.79178">
        <ele>776</ele>
        <time>2017-10-21T04:06:46Z</time>
      </trkpt>
      <trkpt lat="45.83036" lon="2.79209">
        <ele>777</ele>
        <time>2017-10-21T04:08:46Z</time>
      </trkpt>
      <trkpt lat="45.83031" lon="2.79229">
        <ele>777</ele>
        <time>2017-10-21T04:10:46Z</time>
      </trkpt>
      <trkpt lat="45.8303" lon="2.79257">
        <ele>778</ele>
        <time>2017-10-21T04:12:46Z</time>
      </trkpt>
      <trkpt lat="45.83014" lon="2.79295">
        <ele>781</ele>
        <time>2017-10-21T04:14:46Z</time>
      </trkpt>
      <trkpt lat="45.83" lon="2.79327">
        <ele>782</ele>
        <time>2017-10-21T04:16:46Z</time>
      </trkpt>
      <trkpt lat="45.82995" lon="2.79331">
        <ele>782</ele>
        <time>2017-10-21T04:18:46Z</time>
      </trkpt>
      <trkpt lat="45.82986" lon="2.7936">
        <ele>785</ele>
        <time>2017-10-21T04:20:46Z</time>
      </trkpt>
      <trkpt lat="45.82982" lon="2.79382">
        <ele>787</ele>
        <time>2017-10-21T04:22:46Z</time>
      </trkpt>
      <trkpt lat="45.82987" lon="2.79391">
        <ele>789</ele>
        <time>2017-10-21T04:24:46Z</time>
      </trkpt>
      <trkpt lat="45.83015" lon="2.7939">
        <ele>793</ele>
        <time>2017-10-21T04:26:46Z</time>
      </trkpt>
      <trkpt lat="45.83035" lon="2.79378">
        <ele>794</ele>
        <time>2017-10-21T04:28:46Z</time>
      </trkpt>
      <trkpt lat="45.83046" lon="2.79366">
        <ele>794</ele>
        <time>2017-10-21T04:30:46Z</time>
      </trkpt>
      <trkpt lat="45.8307" lon="2.79343">
        <ele>795</ele>
        <time>2017-10-21T04:32:46Z</time>
      </trkpt>
      <trkpt lat="45.83098" lon="2.79321">
        <ele>795</ele>
        <time>2017-10-21T04:34:46Z</time>
      </trkpt>
      <trkpt lat="45.83123" lon="2.79304">
        <ele>795</ele>
        <time>2017-10-21T04:36:46Z</time>
      </trkpt>
      <trkpt lat="45.83141" lon="2.79306">
        <ele>798</ele>
        <time>2017-10-21T04:38:46Z</time>
      </trkpt>
      <trkpt lat="45.83156" lon="2.79312">
        <ele>801</ele>
        <time>2017-10-21T04:40:46Z</time>
      </trkpt>
      <trkpt lat="45.83174" lon="2.79322">
        <ele>803</ele>
        <time>2017-10-21T04:42:46Z</time>
      </trkpt>
      <trkpt lat="45.83183" lon="2.79335">
        <ele>805</ele>
        <time>2017-10-21T04:44:46Z</time>
      </trkpt>
      <trkpt lat="45.8319" lon="2.79358">
        <ele>807</ele>
        <time>2017-10-21T04:46:46Z</time>
      </trkpt>
      <trkpt lat="45.8319" lon="2.7936">
        <ele>808</ele>
        <time>2017-10-21T04:48:46Z</time>
      </trkpt>
      <trkpt lat="45.8319" lon="2.79367">
        <ele>808</ele>
        <time>2017-10-21T04:50:46Z</time>
      </trkpt>
      <trkpt lat="45.8319" lon="2.7937">
        <ele>809</ele>
        <time>2017-10-21T04:52:46Z</time>
      </trkpt>
      <trkpt lat="45.83188" lon="2.79428">
        <ele>814</ele>
        <time>2017-10-21T04:54:46Z</time>
      </trkpt>
      <trkpt lat="45.83188" lon="2.79433">
        <ele>815</ele>
        <time>2017-10-21T04:56:46Z</time>
      </trkpt>
      <trkpt lat="45.83186" lon="2.79464">
        <ele>817</ele>
        <time>2017-10-21T04:58:46Z</time>
      </trkpt>
      <trkpt lat="45.83191" lon="2.79499">
        <ele>820</ele>
        <time>2017-10-21T05:00:46Z</time>
      </trkpt>
      <trkpt lat="45.83194" lon="2.79514">
        <ele>821</ele>
        <time>2017-10-21T05:02:46Z</time>
      </trkpt>
      <trkpt lat="45.83195" lon="2.7952">
        <ele>821</ele>
        <time>2017-10-21T05:04:46Z</time>
      </trkpt>
      <trkpt lat="45.83197" lon="2.79529">
        <ele>822</ele>
        <time>2017-10-21T05:06:46Z</time>
      </trkpt>
      <trkpt lat="45.83198" lon="2.79531">
        <ele>822</ele>
        <time>2017-10-21T05:08:46Z</time>
      </trkpt>
      <trkpt lat="45.83215" lon="2.79601">
        <ele>826</ele>
        <time>2017-10-21T05:10:46Z</time>
      </trkpt>
      <trkpt lat="45.83218" lon="2.7964">
        <ele>828</ele>
        <time>2017-10-21T05:12:46Z</time>
      </trkpt>
      <trkpt lat="45.83227" lon="2.79678">
        <ele>830</ele>
        <time>2017-10-21T05:14:46Z</time>
      </trkpt>
      <trkpt lat="45.83233" lon="2.79712">
        <ele>831</ele>
        <time>2017-10-21T05:16:46Z</time>
      </trkpt>
      <trkpt lat="45.83247" lon="2.79777">
        <ele>835</ele>
        <time>2017-10-21T05:18:46Z</time>
      </trkpt>
      <trkpt lat="45.83256" lon="2.79814">
        <ele>836</ele>
        <time>2017-10-21T05:20:46Z</time>
      </trkpt>
      <trkpt lat="45.83285" lon="2.79933">
        <ele>836</ele>
        <time>2017-10-21T05:22:46Z</time>
      </trkpt>
      <trkpt lat="45.83301" lon="2.79994">
        <ele>835</ele>
        <time>2017-10-21T05:24:46Z</time>
      </trkpt>
      <trkpt lat="45.83302" lon="2.8">
        <ele>835</ele>
        <time>2017-10-21T05:26:46Z</time>
      </trkpt>
      <trkpt lat="45.83324" lon="2.80078">
        <ele>833</ele>
        <time>2017-10-21T05:28:46Z</time>
      </trkpt>
      <trkpt lat="45.83327" lon="2.801">
        <ele>833</ele>
        <time>2017-10-21T05:30:46Z</time>
      </trkpt>
      <trkpt lat="45.83329" lon="2.80108">
        <ele>833</ele>
        <time>2017-10-21T05:32:46Z</time>
      </trkpt>
      <trkpt lat="45.83362" lon="2.8021">
        <ele>832</ele>
        <time>2017-10-21T05:34:46Z</time>
      </trkpt>
      <trkpt lat="45.83389" lon="2.80305">
        <ele>829</ele>
        <time>2017-10-21T05:36:46Z</time>
      </trkpt>
      <trkpt lat="45.83391" lon="2.80314">
        <ele>829</ele>
        <time>2017-10-21T05:38:46Z</time>
      </trkpt>
      <trkpt lat="45.83412" lon="2.80371">
        <ele>827</ele>
        <time>2017-10-21T05:40:46Z</time>
      </trkpt>
      <trkpt lat="45.83416" lon="2.80377">
        <ele>826</ele>
        <time>2017-10-21T05:42:46Z</time>
      </trkpt>
      <trkpt lat="45.83428" lon="2.80394">
        <ele>825</ele>
        <time>2017-10-21T05:44:46Z</time>
      </trkpt>
      <trkpt lat="45.83435" lon="2.80402">
        <ele>825</ele>
        <time>2017-10-21T05:46:46Z</time>
      </trkpt>
      <trkpt lat="45.83448" lon="2.80424">
        <ele>824</ele>
        <time>2017-10-21T05:48:46Z</time>
      </trkpt>
      <trkpt lat="45.8346" lon="2.80449">
        <ele>823</ele>
        <time>2017-10-21T05:50:46Z</time>
      </trkpt>
      <trkpt lat="45.83462" lon="2.80455">
        <ele>823</ele>
        <time>2017-10-21T05:52:46Z</time>
      </trkpt>
      <trkpt lat="45.83487" lon="2.80509">
        <ele>821</ele>
        <time>2017-10-21T05:54:46Z</time>
      </trkpt>
      <trkpt lat="45.83525" lon="2.80605">
        <ele>816</ele>
        <time>2017-10-21T05:56:46Z</time>
      </trkpt>
      <trkpt lat="45.83596" lon="2.80748">
        <ele>809</ele>
        <time>2017-10-21T05:58:46Z</time>
      </trkpt>
      <trkpt lat="45.83661" lon="2.80881">
        <ele>802</ele>
        <time>2017-10-21T06:00:46Z</time>
      </trkpt>
      <trkpt lat="45.83683" lon="2.80919">
        <ele>797</ele>
        <time>2017-10-21T06:02:46Z</time>
      </trkpt>
      <trkpt lat="45.83716" lon="2.80997">
        <ele>788</ele>
        <time>2017-10-21T06:04:46Z</time>
      </trkpt>
      <trkpt lat="45.83724" lon="2.81019">
        <ele>786</ele>
        <time>2017-10-21T06:06:46Z</time>
      </trkpt>
      <trkpt lat="45.83736" lon="2.81059">
        <ele>783</ele>
        <time>2017-10-21T06:08:46Z</time>
      </trkpt>
      <trkpt lat="45.83761" lon="2.81175">
        <ele>778</ele>
        <time>2017-10-21T06:10:46Z</time>
      </trkpt>
      <trkpt lat="45.83803" lon="2.81346">
        <ele>769</ele>
        <time>2017-10-21T06:12:46Z</time>
      </trkpt>
      <trkpt lat="45.83816" lon="2.81391">
        <ele>768</ele>
        <time>2017-10-21T06:14:46Z</time>
      </trkpt>
      <trkpt lat="45.83816" lon="2.81402">
        <ele>768</ele>
        <time>2017-10-21T06:16:46Z</time>
      </trkpt>
      <trkpt lat="45.83815" lon="2.81425">
        <ele>768</ele>
        <time>2017-10-21T06:18:46Z</time>
      </trkpt>
      <trkpt lat="45.83816" lon="2.81435">
        <ele>768</ele>
        <time>2017-10-21T06:20:46Z</time>
      </trkpt>
      <trkpt lat="45.83819" lon="2.81445">
        <ele>768</ele>
        <time>2017-10-21T06:22:46Z</time>
      </trkpt>
      <trkpt lat="45.83823" lon="2.81453">
        <ele>768</ele>
        <time>2017-10-21T06:24:46Z</time>
      </trkpt>
      <trkpt lat="45.83829" lon="2.81459">
        <ele>768</ele>
        <time>2017-10-21T06:26:46Z</time>
      </trkpt>
      <trkpt lat="45.83835" lon="2.81463">
        <ele>768</ele>
        <time>2017-10-21T06:28:46Z</time>
      </trkpt>
      <trkpt lat="45.8384" lon="2.81468">
        <ele>768</ele>
        <time>2017-10-21T06:30:46Z</time>
      </trkpt>
      <trkpt lat="45.83844" lon="2.81475">
        <ele>768</ele>
        <time>2017-10-21T06:32:46Z</time>
      </trkpt>
      <trkpt lat="45.83848" lon="2.81481">
        <ele>768</ele>
        <time>2017-10-21T06:34:46Z</time>
      </trkpt>
      <trkpt lat="45.8391" lon="2.81579">
        <ele>770</ele>
        <time>2017-10-21T06:36:46Z</time>
      </trkpt>
      <trkpt lat="45.83928" lon="2.81618">
        <ele>770</ele>
        <time>2017-10-21T06:38:46Z</time>
      </trkpt>
      <trkpt lat="45.8393" lon="2.8162">
        <ele>770</ele>
        <time>2017-10-21T06:40:46Z</time>
      </trkpt>
      <trkpt lat="45.83932" lon="2.8162">
        <ele>770</ele>
        <time>2017-10-21T06:42:46Z</time>
      </trkpt>
      <trkpt lat="45.83933" lon="2.8162">
        <ele>770</ele>
        <time>2017-10-21T06:44:46Z</time>
      </trkpt>
      <trkpt lat="45.83938" lon="2.81619">
        <ele>770</ele>
        <time>2017-10-21T06:46:46Z</time>
      </trkpt>
      <trkpt lat="45.8394" lon="2.81619">
        <ele>770</ele>
        <time>2017-10-21T06:48:46Z</time>
      </trkpt>
      <trkpt lat="45.8395" lon="2.81623">
        <ele>769</ele>
        <time>2017-10-21T06:50:46Z</time>
      </trkpt>
      <trkpt lat="45.83954" lon="2.8163">
        <ele>769</ele>
        <time>2017-10-21T06:52:46Z</time>
      </trkpt>
      <trkpt lat="45.83972" lon="2.81685">
        <ele>770</ele>
        <time>2017-10-21T06:54:46Z</time>
      </trkpt>
      <trkpt lat="45.8398" lon="2.81694">
        <ele>770</ele>
        <time>2017-10-21T06:56:46Z</time>
      </trkpt>
      <trkpt lat="45.83981" lon="2.81695">
        <ele>770</ele>
        <time>2017-10-21T06:58:46Z</time>
      </trkpt>
      <trkpt lat="45.84024" lon="2.81786">
        <ele>771</ele>
        <time>2017-10-21T07:00:46Z</time>
      </trkpt>
      <trkpt lat="45.84045" lon="2.81837">
        <ele>772</ele>
        <time>2017-10-21T07:02:46Z</time>
      </trkpt>
      <trkpt lat="45.84071" lon="2.81856">
        <ele>771</ele>
        <time>2017-10-21T07:04:46Z</time>
      </trkpt>
      <trkpt lat="45.84133" lon="2.81902">
        <ele>769</ele>
        <time>2017-10-21T07:06:46Z</time>
      </trkpt>
      <trkpt lat="45.8416" lon="2.8193">
        <ele>768</ele>
        <time>2017-10-21T07:08:46Z</time>
      </trkpt>
      <trkpt lat="45.84161" lon="2.81933">
        <ele>768</ele>
        <time>2017-10-21T07:10:46Z</time>
      </trkpt>
      <trkpt lat="45.84161" lon="2.81934">
        <ele>768</ele>
        <time>2017-10-21T07:12:46Z</time>
      </trkpt>
      <trkpt lat="45.84164" lon="2.81939">
        <ele>768</ele>
        <time>2017-10-21T07:14:46Z</time>
      </trkpt>
      <trkpt lat="45.8417" lon="2.81947">
        <ele>768</ele>
        <time>2017-10-21T07:16:46Z</time>
      </trkpt>
      <trkpt lat="45.84182" lon="2.81966">
        <ele>767</ele>
        <time>2017-10-21T07:18:46Z</time>
      </trkpt>
      <trkpt lat="45.84185" lon="2.81971">
        <ele>767</ele>
        <time>2017-10-21T07:20:46Z</time>
      </trkpt>
      <trkpt lat="45.84198" lon="2.81985">
        <ele>766</ele>
        <time>2017-10-21T07:22:46Z</time>
      </trkpt>
      <trkpt lat="45.84207" lon="2.81996">
        <ele>765</ele>
        <time>2017-10-21T07:24:46Z</time>
      </trkpt>
      <trkpt lat="45.84218" lon="2.82008">
        <ele>764</ele>
        <time>2017-10-21T07:26:46Z</time>
      </trkpt>
      <trkpt lat="45.84223" lon="2.82015">
        <ele>764</ele>
        <time>2017-10-21T07:28:46Z</time>
      </trkpt>
      <trkpt lat="45.84234" lon="2.82028">
        <ele>763</ele>
        <time>2017-10-21T07:30:46Z</time>
      </trkpt>
      <trkpt lat="45.8424" lon="2.82034">
        <ele>763</ele>
        <time>2017-10-21T07:32:46Z</time>
      </trkpt>
      <trkpt lat="45.8425" lon="2.82047">
        <ele>763</ele>
        <time>2017-10-21T07:34:46Z</time>
      </trkpt>
      <trkpt lat="45.84259" lon="2.8206">
        <ele>763</ele>
        <time>2017-10-21T07:36:46Z</time>
      </trkpt>
      <trkpt lat="45.84268" lon="2.82072">
        <ele>763</ele>
        <time>2017-10-21T07:38:46Z</time>
      </trkpt>
      <trkpt lat="45.84273" lon="2.82077">
        <ele>763</ele>
        <time>2017-10-21T07:40:46Z</time>
      </trkpt>
      <trkpt lat="45.84286" lon="2.82089">
        <ele>764</ele>
        <time>2017-10-21T07:42:46Z</time>
      </trkpt>
      <trkpt lat="45.84291" lon="2.82092">
        <ele>763</ele>
        <time>2017-10-21T07:44:46Z</time>
      </trkpt>
      <trkpt lat="45.84298" lon="2.82097">
        <ele>763</ele>
        <time>2017-10-21T07:46:46Z</time>
      </trkpt>
      <trkpt lat="45.8431" lon="2.82102">
        <ele>763</ele>
        <time>2017-10-21T07:48:46Z</time>
      </trkpt>
      <trkpt lat="45.84325" lon="2.82107">
        <ele>763</ele>
        <time>2017-10-21T07:50:46Z</time>
      </trkpt>
      <trkpt lat="45.84333" lon="2.82111">
        <ele>763</ele>
        <time>2017-10-21T07:52:46Z</time>
      </trkpt>
      <trkpt lat="45.84336" lon="2.82114">
        <ele>763</ele>
        <time>2017-10-21T07:54:46Z</time>
      </trkpt>
      <trkpt lat="45.84356" lon="2.82125">
        <ele>763</ele>
        <time>2017-10-21T07:56:46Z</time>
      </trkpt>
      <trkpt lat="45.84366" lon="2.8213">
        <ele>763</ele>
        <time>2017-10-21T07:58:46Z</time>
      </trkpt>
      <trkpt lat="45.84381" lon="2.82138">
        <ele>763</ele>
        <time>2017-10-21T08:00:46Z</time>
      </trkpt>
      <trkpt lat="45.84385" lon="2.82141">
        <ele>763</ele>
        <time>2017-10-21T08:02:46Z</time>
      </trkpt>
      <trkpt lat="45.84397" lon="2.82152">
        <ele>763</ele>
        <time>2017-10-21T08:04:46Z</time>
      </trkpt>
      <trkpt lat="45.84414" lon="2.82166">
        <ele>764</ele>
        <time>2017-10-21T08:06:46Z</time>
      </trkpt>
      <trkpt lat="45.84418" lon="2.8217">
        <ele>764</ele>
        <time>2017-10-21T08:08:46Z</time>
      </trkpt>
      <trkpt lat="45.84432" lon="2.82181">
        <ele>764</ele>
        <time>2017-10-21T08:10:46Z</time>
      </trkpt>
      <trkpt lat="45.84445" lon="2.82192">
        <ele>764</ele>
        <time>2017-10-21T08:12:46Z</time>
      </trkpt>
      <trkpt lat="45.84472" lon="2.82212">
        <ele>763</ele>
        <time>2017-10-21T08:14:46Z</time>
      </trkpt>
      <trkpt lat="45.84485" lon="2.82219">
        <ele>763</ele>
        <time>2017-10-21T08:16:46Z</time>
      </trkpt>
      <trkpt lat="45.84494" lon="2.82225">
        <ele>763</ele>
        <time>2017-10-21T08:18:46Z</time>
      </trkpt>
      <trkpt lat="45.84502" lon="2.82231">
        <ele>763</ele>
        <time>2017-10-21T08:20:46Z</time>
      </trkpt>
      <trkpt lat="45.84511" lon="2.82236">
        <ele>763</ele>
        <time>2017-10-21T08:22:46Z</time>
      </trkpt>
      <trkpt lat="45.84521" lon="2.82241">
        <ele>762</ele>
        <time>2017-10-21T08:24:46Z</time>
      </trkpt>
      <trkpt lat="45.84525" lon="2.82241">
        <ele>762</ele>
        <time>2017-10-21T08:26:46Z</time>
      </trkpt>
      <trkpt lat="45.84526" lon="2.82239">
        <ele>762</ele>
        <time>2017-10-21T08:28:46Z</time>
      </trkpt>
      <trkpt lat="45.84528" lon="2.82239">
        <ele>762</ele>
        <time>2017-10-21T08:30:46Z</time>
      </trkpt>
      <trkpt lat="45.84533" lon="2.82239">
        <ele>762</ele>
        <time>2017-10-21T08:32:46Z</time>
      </trkpt>
      <trkpt lat="45.84537" lon="2.8224">
        <ele>762</ele>
        <time>2017-10-21T08:34:46Z</time>
      </trkpt>
      <trkpt lat="45.84548" lon="2.82242">
        <ele>761</ele>
        <time>2017-10-21T08:36:46Z</time>
      </trkpt>
      <trkpt lat="45.84565" lon="2.82246">
        <ele>761</ele>
        <time>2017-10-21T08:38:46Z</time>
      </trkpt>
      <trkpt lat="45.84574" lon="2.82248">
        <ele>760</ele>
        <time>2017-10-21T08:40:46Z</time>
      </trkpt>
      <trkpt lat="45.84579" lon="2.82248">
        <ele>760</ele>
        <time>2017-10-21T08:42:46Z</time>
      </trkpt>
      <trkpt lat="45.84596" lon="2.82248">
        <ele>759</ele>
        <time>2017-10-21T08:44:46Z</time>
      </trkpt>
      <trkpt lat="45.84633" lon="2.82246">
        <ele>757</ele>
        <time>2017-10-21T08:46:46Z</time>
      </trkpt>
      <trkpt lat="45.84639" lon="2.82246">
        <ele>757</ele>
        <time>2017-10-21T08:48:46Z</time>
      </trkpt>
      <trkpt lat="45.8466" lon="2.82248">
        <ele>755</ele>
        <time>2017-10-21T08:50:46Z</time>
      </trkpt>
      <trkpt lat="45.84684" lon="2.82248">
        <ele>754</ele>
        <time>2017-10-21T08:52:46Z</time>
      </trkpt>
      <trkpt lat="45.847" lon="2.8225">
        <ele>753</ele>
        <time>2017-10-21T08:54:46Z</time>
      </trkpt>
      <trkpt lat="45.84708" lon="2.82251">
        <ele>752</ele>
        <time>2017-10-21T08:56:46Z</time>
      </trkpt>
      <trkpt lat="45.84716" lon="2.82254">
        <ele>751</ele>
        <time>2017-10-21T08:58:46Z</time>
      </trkpt>
      <trkpt lat="45.84723" lon="2.82257">
        <ele>751</ele>
        <time>2017-10-21T09:00:46Z</time>
      </trkpt>
      <trkpt lat="45.8473" lon="2.82261">
        <ele>751</ele>
        <time>2017-10-21T09:02:46Z</time>
      </trkpt>
      <trkpt lat="45.84737" lon="2.82266">
        <ele>750</ele>
        <time>2017-10-21T09:04:46Z</time>
      </trkpt>
      <trkpt lat="45.84743" lon="2.82271">
        <ele>750</ele>
        <time>2017-10-21T09:06:46Z</time>
      </trkpt>
      <trkpt lat="45.84748" lon="2.82277">
        <ele>749</ele>
        <time>2017-10-21T09:08:46Z</time>
      </trkpt>
      <trkpt lat="45.84752" lon="2.82282">
        <ele>749</ele>
        <time>2017-10-21T09:10:46Z</time>
      </trkpt>
      <trkpt lat="45.84755" lon="2.82287">
        <ele>749</ele>
        <time>2017-10-21T09:12:46Z</time>
      </trkpt>
      <trkpt lat="45.84757" lon="2.82294">
        <ele>750</ele>
        <time>2017-10-21T09:14:46Z</time>
      </trkpt>
      <trkpt lat="45.84759" lon="2.823">
        <ele>750</ele>
        <time>2017-10-21T09:16:46Z</time>
      </trkpt>
      <trkpt lat="45.8476" lon="2.82319">
        <ele>750</ele>
        <time>2017-10-21T09:18:46Z</time>
      </trkpt>
      <trkpt lat="45.84761" lon="2.82325">
        <ele>750</ele>
        <time>2017-10-21T09:20:46Z</time>
      </trkpt>
      <trkpt lat="45.84766" lon="2.82344">
        <ele>750</ele>
        <time>2017-10-21T09:22:46Z</time>
      </trkpt>
      <trkpt lat="45.8477" lon="2.82355">
        <ele>750</ele>
        <time>2017-10-21T09:24:46Z</time>
      </trkpt>
      <trkpt lat="45.84777" lon="2.82369">
        <ele>750</ele>
        <time>2017-10-21T09:26:46Z</time>
      </trkpt>
      <trkpt lat="45.84785" lon="2.82381">
        <ele>750</ele>
        <time>2017-10-21T09:28:46Z</time>
      </trkpt>
      <trkpt lat="45.84797" lon="2.82396">
        <ele>750</ele>
        <time>2017-10-21T09:30:46Z</time>
      </trkpt>
      <trkpt lat="45.848" lon="2.824">
        <ele>750</ele>
        <time>2017-10-21T09:32:46Z</time>
      </trkpt>
      <trkpt lat="45.84809" lon="2.82412">
        <ele>750</ele>
        <time>2017-10-21T09:34:46Z</time>
      </trkpt>
      <trkpt lat="45.84811" lon="2.82417">
        <ele>750</ele>
        <time>2017-10-21T09:36:46Z</time>
      </trkpt>
      <trkpt lat="45.84814" lon="2.82422">
        <ele>750</ele>
        <time>2017-10-21T09:38:46Z</time>
      </trkpt>
      <trkpt lat="45.84815" lon="2.82427">
        <ele>750</ele>
        <time>2017-10-21T09:40:46Z</time>
      </trkpt>
      <trkpt lat="45.84816" lon="2.82433">
        <ele>750</ele>
        <time>2017-10-21T09:42:46Z</time>
      </trkpt>
      <trkpt lat="45.84816" lon="2.82439">
        <ele>750</ele>
        <time>2017-10-21T09:44:46Z</time>
      </trkpt>
      <trkpt lat="45.84813" lon="2.82456">
        <ele>750</ele>
        <time>2017-10-21T09:46:46Z</time>
      </trkpt>
      <trkpt lat="45.84811" lon="2.82468">
        <ele>750</ele>
        <time>2017-10-21T09:48:46Z</time>
      </trkpt>
      <trkpt lat="45.84806" lon="2.82489">
        <ele>750</ele>
        <time>2017-10-21T09:50:46Z</time>
      </trkpt>
      <trkpt lat="45.84802" lon="2.8251">
        <ele>750</ele>
        <time>2017-10-21T09:52:46Z</time>
      </trkpt>
      <trkpt lat="45.848" lon="2.82515">
        <ele>751</ele>
        <time>2017-10-21T09:54:46Z</time>
      </trkpt>
      <trkpt lat="45.84798" lon="2.8252">
        <ele>751</ele>
        <time>2017-10-21T09:56:46Z</time>
      </trkpt>
      <trkpt lat="45.84796" lon="2.82525">
        <ele>751</ele>
        <time>2017-10-21T09:58:46Z</time>
      </trkpt>
      <trkpt lat="45.84792" lon="2.82534">
        <ele>751</ele>
        <time>2017-10-21T10:00:46Z</time>
      </trkpt>
      <trkpt lat="45.84787" lon="2.82543">
        <ele>751</ele>
        <time>2017-10-21T10:02:46Z</time>
      </trkpt>
      <trkpt lat="45.84779" lon="2.82555">
        <ele>751</ele>
        <time>2017-10-21T10:04:46Z</time>
      </trkpt>
      <trkpt lat="45.84778" lon="2.82565">
        <ele>751</ele>
        <time>2017-10-21T10:06:46Z</time>
      </trkpt>
      <trkpt lat="45.84779" lon="2.82578">
        <ele>752</ele>
        <time>2017-10-21T10:08:46Z</time>
      </trkpt>
      <trkpt lat="45.84788" lon="2.82589">
        <ele>752</ele>
        <time>2017-10-21T10:10:46Z</time>
      </trkpt>
      <trkpt lat="45.84793" lon="2.82595">
        <ele>752</ele>
        <time>2017-10-21T10:12:46Z</time>
      </trkpt>
      <trkpt lat="45.84803" lon="2.82606">
        <ele>752</ele>
        <time>2017-10-21T10:14:46Z</time>
      </trkpt>
      <trkpt lat="45.84816" lon="2.82627">
        <ele>753</ele>
        <time>2017-10-21T10:16:46Z</time>
      </trkpt>
      <trkpt lat="45.84822" lon="2.82638">
        <ele>753</ele>
        <time>2017-10-21T10:18:46Z</time>
      </trkpt>
      <trkpt lat="45.84826" lon="2.8265">
        <ele>753</ele>
        <time>2017-10-21T10:20:46Z</time>
      </trkpt>
      <trkpt lat="45.84828" lon="2.82661">
        <ele>754</ele>
        <time>2017-10-21T10:22:46Z</time>
      </trkpt>
      <trkpt lat="45.84828" lon="2.82667">
        <ele>754</ele>
        <time>2017-10-21T10:24:46Z</time>
      </trkpt>
      <trkpt lat="45.84827" lon="2.82671">
        <ele>754</ele>
        <time>2017-10-21T10:26:46Z</time>
      </trkpt>
      <trkpt lat="45.84827" lon="2.82675">
        <ele>754</ele>
        <time>2017-10-21T10:28:46Z</time>
      </trkpt>
      <trkpt lat="45.84828" lon="2.82681">
        <ele>754</ele>
        <time>2017-10-21T10:30:46Z</time>
      </trkpt>
      <trkpt lat="45.84828" lon="2.82686">
        <ele>754</ele>
        <time>2017-10-21T10:32:46Z</time>
      </trkpt>
      <trkpt lat="45.84827" lon="2.82702">
        <ele>755</ele>
        <time>2017-10-21T10:34:46Z</time>
      </trkpt>
      <trkpt lat="45.84824" lon="2.82734">
        <ele>756</ele>
        <time>2017-10-21T10:36:46Z</time>
      </trkpt>
      <trkpt lat="45.84819" lon="2.82772">
        <ele>757</ele>
        <time>2017-10-21T10:38:46Z</time>
      </trkpt>
      <trkpt lat="45.84819" lon="2.82783">
        <ele>757</ele>
        <time>2017-10-21T10:40:46Z</time>
      </trkpt>
      <trkpt lat="45.84819" lon="2.82798">
        <ele>758</ele>
        <time>2017-10-21T10:42:46Z</time>
      </trkpt>
      <trkpt lat="45.8482" lon="2.82818">
        <ele>758</ele>
        <time>2017-10-21T10:44:46Z</time>
      </trkpt>
      <trkpt lat="45.84825" lon="2.82848">
        <ele>760</ele>
        <time>2017-10-21T10:46:46Z</time>
      </trkpt>
      <trkpt lat="45.84825" lon="2.8286">
        <ele>760</ele>
        <time>2017-10-21T10:48:46Z</time>
      </trkpt>
      <trkpt lat="45.84827" lon="2.82874">
        <ele>761</ele>
        <time>2017-10-21T10:50:46Z</time>
      </trkpt>
      <trkpt lat="45.84828" lon="2.82913">
        <ele>763</ele>
        <time>2017-10-21T10:52:46Z</time>
      </trkpt>
      <trkpt lat="45.84829" lon="2.82978">
        <ele>765</ele>
        <time>2017-10-21T10:54:46Z</time>
      </trkpt>
      <trkpt lat="45.8483" lon="2.83014">
        <ele>766</ele>
        <time>2017-10-21T10:56:46Z</time>
      </trkpt>
      <trkpt lat="45.84838" lon="2.83033">
        <ele>766</ele>
        <time>2017-10-21T10:58:46Z</time>
      </trkpt>
      <trkpt lat="45.84846" lon="2.83048">
        <ele>766</ele>
        <time>2017-10-21T11:00:46Z</time>
      </trkpt>
      <trkpt lat="45.84858" lon="2.83064">
        <ele>767</ele>
        <time>2017-10-21T11:02:46Z</time>
      </trkpt>
      <trkpt lat="45.84879" lon="2.8309">
        <ele>769</ele>
        <time>2017-10-21T11:04:46Z</time>
      </trkpt>
      <trkpt lat="45.84891" lon="2.83106">
        <ele>769</ele>
        <time>2017-10-21T11:06:46Z</time>
      </trkpt>
      <trkpt lat="45.84903" lon="2.83124">
        <ele>770</ele>
        <time>2017-10-21T11:08:46Z</time>
      </trkpt>
      <trkpt lat="45.84907" lon="2.83133">
        <ele>770</ele>
        <time>2017-10-21T11:10:46Z</time>
      </trkpt>
      <trkpt lat="45.84935" lon="2.83153">
        <ele>772</ele>
        <time>2017-10-21T11:12:46Z</time>
      </trkpt>
      <trkpt lat="45.84952" lon="2.83163">
        <ele>773</ele>
        <time>2017-10-21T11:14:46Z</time>
      </trkpt>
      <trkpt lat="45.84961" lon="2.83166">
        <ele>774</ele>
        <time>2017-10-21T11:16:46Z</time>
      </trkpt>
      <trkpt lat="45.84974" lon="2.8317">
        <ele>776</ele>
        <time>2017-10-21T11:18:46Z</time>
      </trkpt>
      <trkpt lat="45.8498" lon="2.8317">
        <ele>776</ele>
        <time>2017-10-21T11:20:46Z</time>
      </trkpt>
      <trkpt lat="45.84991" lon="2.8317">
        <ele>777</ele>
        <time>2017-10-21T11:22:46Z</time>
      </trkpt>
      <trkpt lat="45.85028" lon="2.83168">
        <ele>779</ele>
        <time>2017-10-21T11:24:46Z</time>
      </trkpt>
      <trkpt lat="45.8505" lon="2.83168">
        <ele>780</ele>
        <time>2017-10-21T11:26:46Z</time>
      </trkpt>
      <trkpt lat="45.85069" lon="2.83173">
        <ele>781</ele>
        <time>2017-10-21T11:28:46Z</time>
      </trkpt>
      <trkpt lat="45.85097" lon="2.83186">
        <ele>782</ele>
        <time>2017-10-21T11:30:46Z</time>
      </trkpt>
      <trkpt lat="45.85109" lon="2.83197">
        <ele>783</ele>
        <time>2017-10-21T11:32:46Z</time>
      </trkpt>
      <trkpt lat="45.85116" lon="2.83208">
        <ele>784</ele>
        <time>2017-10-21T11:34:46Z</time>
      </trkpt>
      <trkpt lat="45.8512" lon="2.83216">
        <ele>784</ele>
        <time>2017-10-21T11:36:46Z</time>
      </trkpt>
      <trkpt lat="45.85126" lon="2.83224">
        <ele>785</ele>
        <time>2017-10-21T11:38:46Z</time>
      </trkpt>
      <trkpt lat="45.85134" lon="2.83239">
        <ele>786</ele>
        <time>2017-10-21T11:40:46Z</time>
      </trkpt>
      <trkpt lat="45.85146" lon="2.83262">
        <ele>788</ele>
        <time>2017-10-21T11:42:46Z</time>
      </trkpt>
      <trkpt lat="45.85153" lon="2.83271">
        <ele>789</ele>
        <time>2017-10-21T11:44:46Z</time>
      </trkpt>
      <trkpt lat="45.85155" lon="2.83276">
        <ele>789</ele>
        <time>2017-10-21T11:46:46Z</time>
      </trkpt>
      <trkpt lat="45.85167" lon="2.83308">
        <ele>794</ele>
        <time>2017-10-21T11:48:46Z</time>
      </trkpt>
      <trkpt lat="45.85171" lon="2.83317">
        <ele>795</ele>
        <time>2017-10-21T11:50:46Z</time>
      </trkpt>
      <trkpt lat="45.85178" lon="2.83331">
        <ele>796</ele>
        <time>2017-10-21T11:52:46Z</time>
      </trkpt>
      <trkpt lat="45.85187" lon="2.83346">
        <ele>796</ele>
        <time>2017-10-21T11:54:46Z</time>
      </trkpt>
      <trkpt lat="45.852" lon="2.83366">
        <ele>796</ele>
        <time>2017-10-21T11:56:46Z</time>
      </trkpt>
      <trkpt lat="45.85213" lon="2.83387">
        <ele>796</ele>
        <time>2017-10-21T11:58:46Z</time>
      </trkpt>
      <trkpt lat="45.85232" lon="2.83419">
        <ele>797</ele>
        <time>2017-10-21T12:00:46Z</time>
      </trkpt>
      <trkpt lat="45.85245" lon="2.83442">
        <ele>797</ele>
        <time>2017-10-21T12:02:46Z</time>
      </trkpt>
      <trkpt lat="45.85256" lon="2.83463">
        <ele>797</ele>
        <time>2017-10-21T12:04:46Z</time>
      </trkpt>
      <trkpt lat="45.85271" lon="2.83495">
        <ele>797</ele>
        <time>2017-10-21T12:06:46Z</time>
      </trkpt>
      <trkpt lat="45.85281" lon="2.83524">
        <ele>795</ele>
        <time>2017-10-21T12:08:46Z</time>
      </trkpt>
      <trkpt lat="45.8529" lon="2.83563">
        <ele>794</ele>
        <time>2017-10-21T12:10:46Z</time>
      </trkpt>
      <trkpt lat="45.85296" lon="2.83605">
        <ele>793</ele>
        <time>2017-10-21T12:12:46Z</time>
      </trkpt>
      <trkpt lat="45.85307" lon="2.83689">
        <ele>791</ele>
        <time>2017-10-21T12:14:46Z</time>
      </trkpt>
      <trkpt lat="45.8531" lon="2.83733">
        <ele>790</ele>
        <time>2017-10-21T12:16:46Z</time>
      </trkpt>
      <trkpt lat="45.85309" lon="2.83777">
        <ele>788</ele>
        <time>2017-10-21T12:18:46Z</time>
      </trkpt>
      <trkpt lat="45.85309" lon="2.83817">
        <ele>786</ele>
        <time>2017-10-21T12:20:46Z</time>
      </trkpt>
      <trkpt lat="45.85312" lon="2.83882">
        <ele>785</ele>
        <time>2017-10-21T12:22:46Z</time>
      </trkpt>
      <trkpt lat="45.85314" lon="2.83924">
        <ele>785</ele>
        <time>2017-10-21T12:24:46Z</time>
      </trkpt>
      <trkpt lat="45.85317" lon="2.83986">
        <ele>785</ele>
        <time>2017-10-21T12:26:46Z</time>
      </trkpt>
      <trkpt lat="45.85318" lon="2.8402">
        <ele>785</ele>
        <time>2017-10-21T12:28:46Z</time>
      </trkpt>
      <trkpt lat="45.85315" lon="2.8406">
        <ele>784</ele>
        <time>2017-10-21T12:30:46Z</time>
      </trkpt>
      <trkpt lat="45.85314" lon="2.84098">
        <ele>783</ele>
        <time>2017-10-21T12:32:46Z</time>
      </trkpt>
      <trkpt lat="45.85318" lon="2.84133">
        <ele>782</ele>
        <time>2017-10-21T12:34:46Z</time>
      </trkpt>
      <trkpt lat="45.85326" lon="2.84175">
        <ele>781</ele>
        <time>2017-10-21T12:36:46Z</time>
      </trkpt>
      <trkpt lat="45.85336" lon="2.84232">
        <ele>780</ele>
        <time>2017-10-21T12:38:46Z</time>
      </trkpt>
      <trkpt lat="45.85344" lon="2.84283">
        <ele>780</ele>
        <time>2017-10-21T12:40:46Z</time>
      </trkpt>
      <trkpt lat="45.85352" lon="2.84342">
        <ele>780</ele>
        <time>2017-10-21T12:42:46Z</time>
      </trkpt>
      <trkpt lat="45.8536" lon="2.84409">
        <ele>779</ele>
        <time>2017-10-21T12:44:46Z</time>
      </trkpt>
      <trkpt lat="45.85368" lon="2.84513">
        <ele>779</ele>
        <time>2017-10-21T12:46:46Z</time>
      </trkpt>
      <trkpt lat="45.85371" lon="2.84538">
        <ele>779</ele>
        <time>2017-10-21T12:48:46Z</time>
      </trkpt>
      <trkpt lat="45.85374" lon="2.8455">
        <ele>779</ele>
        <time>2017-10-21T12:50:46Z</time>
      </trkpt>
      <trkpt lat="45.85378" lon="2.84559">
        <ele>779</ele>
        <time>2017-10-21T12:52:46Z</time>
      </trkpt>
      <trkpt lat="45.85385" lon="2.84569">
        <ele>779</ele>
        <time>2017-10-21T12:54:46Z</time>
      </trkpt>
      <trkpt lat="45.8539" lon="2.84574">
        <ele>779</ele>
        <time>2017-10-21T12:56:46Z</time>
      </trkpt>
      <trkpt lat="45.85395" lon="2.84574">
        <ele>779</ele>
        <time>2017-10-21T12:58:46Z</time>
      </trkpt>
      <trkpt lat="45.85396" lon="2.84572">
        <ele>779</ele>
        <time>2017-10-21T13:00:46Z</time>
      </trkpt>
      <trkpt lat="45.85402" lon="2.84562">
        <ele>779</ele>
        <time>2017-10-21T13:02:46Z</time>
      </trkpt>
      <trkpt lat="45.85412" lon="2.84548">
        <ele>779</ele>
        <time>2017-10-21T13:04:46Z</time>
      </trkpt>
      <trkpt lat="45.85425" lon="2.84527">
        <ele>778</ele>
        <time>2017-10-21T13:06:46Z</time>
      </trkpt>
      <trkpt lat="45.85446" lon="2.8449">
        <ele>778</ele>
        <time>2017-10-21T13:08:46Z</time>
      </trkpt>
      <trkpt lat="45.85465" lon="2.84457">
        <ele>777</ele>
        <time>2017-10-21T13:10:46Z</time>
      </trkpt>
      <trkpt lat="45.85478" lon="2.84433">
        <ele>777</ele>
        <time>2017-10-21T13:12:46Z</time>
      </trkpt>
      <trkpt lat="45.85491" lon="2.84398">
        <ele>776</ele>
        <time>2017-10-21T13:14:46Z</time>
      </trkpt>
      <trkpt lat="45.85513" lon="2.84341">
        <ele>774</ele>
        <time>2017-10-21T13:16:46Z</time>
      </trkpt>
      <trkpt lat="45.85525" lon="2.84313">
        <ele>774</ele>
        <time>2017-10-21T13:18:46Z</time>
      </trkpt>
      <trkpt lat="45.8554" lon="2.84286">
        <ele>774</ele>
        <time>2017-10-21T13:20:46Z</time>
      </trkpt>
      <trkpt lat="45.85556" lon="2.84261">
        <ele>775</ele>
        <time>2017-10-21T13:22:46Z</time>
      </trkpt>
      <trkpt lat="45.85574" lon="2.84227">
        <ele>774</ele>
        <time>2017-10-21T13:24:46Z</time>
      </trkpt>
      <trkpt lat="45.85588" lon="2.8419">
        <ele>772</ele>
        <time>2017-10-21T13:26:46Z</time>
      </trkpt>
      <trkpt lat="45.85617" lon="2.84065">
        <ele>769</ele>
        <time>2017-10-21T13:28:46Z</time>
      </trkpt>
      <trkpt lat="45.85621" lon="2.8405">
        <ele>768</ele>
        <time>2017-10-21T13:30:46Z</time>
      </trkpt>
      <trkpt lat="45.85625" lon="2.84033">
        <ele>767</ele>
        <time>2017-10-21T13:32:46Z</time>
      </trkpt>
      <trkpt lat="45.85629" lon="2.84014">
        <ele>767</ele>
        <time>2017-10-21T13:34:46Z</time>
      </trkpt>
      <trkpt lat="45.8563" lon="2.84009">
        <ele>766</ele>
        <time>2017-10-21T13:36:46Z</time>
      </trkpt>
      <trkpt lat="45.85634" lon="2.83998">
        <ele>766</ele>
        <time>2017-10-21T13:38:46Z</time>
      </trkpt>
      <trkpt lat="45.85636" lon="2.83996">
        <ele>765</ele>
        <time>2017-10-21T13:40:46Z</time>
      </trkpt>
      <trkpt lat="45.85646" lon="2.83985">
        <ele>764</ele>
        <time>2017-10-21T13:42:46Z</time>
      </trkpt>
      <trkpt lat="45.85663" lon="2.83966">
        <ele>762</ele>
        <time>2017-10-21T13:44:46Z</time>
      </trkpt>
      <trkpt lat="45.8568" lon="2.83946">
        <ele>760</ele>
        <time>2017-10-21T13:46:46Z</time>
      </trkpt>
      <trkpt lat="45.85698" lon="2.83925">
        <ele>758</ele>
        <time>2017-10-21T13:48:46Z</time>
      </trkpt>
      <trkpt lat="45.85704" lon="2.83917">
        <ele>758</ele>
        <time>2017-10-21T13:50:46Z</time>
      </trkpt>
      <trkpt lat="45.8571" lon="2.83908">
        <ele>757</ele>
        <time>2017-10-21T13:52:46Z</time>
      </trkpt>
      <trkpt lat="45.85716" lon="2.83898">
        <ele>756</ele>
        <time>2017-10-21T13:54:46Z</time>
      </trkpt>
      <trkpt lat="45.8572" lon="2.83886">
        <ele>756</ele>
        <time>2017-10-21T13:56:46Z</time>
      </trkpt>
      <trkpt lat="45.85723" lon="2.83874">
        <ele>755</ele>
        <time>2017-10-21T13:58:46Z</time>
      </trkpt>
      <trkpt lat="45.85723" lon="2.83861">
        <ele>754</ele>
        <time>2017-10-21T14:00:46Z</time>
      </trkpt>
      <trkpt lat="45.85722" lon="2.83819">
        <ele>752</ele>
        <time>2017-10-21T14:02:46Z</time>
      </trkpt>
      <trkpt lat="45.85723" lon="2.83804">
        <ele>751</ele>
        <time>2017-10-21T14:04:46Z</time>
      </trkpt>
      <trkpt lat="45.85724" lon="2.83788">
        <ele>750</ele>
        <time>2017-10-21T14:06:46Z</time>
      </trkpt>
      <trkpt lat="45.85724" lon="2.83772">
        <ele>748</ele>
        <time>2017-10-21T14:08:46Z</time>
      </trkpt>
      <trkpt lat="45.85721" lon="2.83757">
        <ele>747</ele>
        <time>2017-10-21T14:10:46Z</time>
      </trkpt>
      <trkpt lat="45.85719" lon="2.83742">
        <ele>746</ele>
        <time>2017-10-21T14:12:46Z</time>
      </trkpt>
      <trkpt lat="45.85712" lon="2.83715">
        <ele>745</ele>
        <time>2017-10-21T14:14:46Z</time>
      </trkpt>
      <trkpt lat="45.85709" lon="2.83702">
        <ele>744</ele>
        <time>2017-10-21T14:16:46Z</time>
      </trkpt>
      <trkpt lat="45.85706" lon="2.83689">
        <ele>743</ele>
        <time>2017-10-21T14:18:46Z</time>
      </trkpt>
      <trkpt lat="45.85704" lon="2.83676">
        <ele>742</ele>
        <time>2017-10-21T14:20:46Z</time>
      </trkpt>
      <trkpt lat="45.85703" lon="2.83662">
        <ele>741</ele>
        <time>2017-10-21T14:22:46Z</time>
      </trkpt>
      <trkpt lat="45.85704" lon="2.83647">
        <ele>741</ele>
        <time>2017-10-21T14:24:46Z</time>
      </trkpt>
      <trkpt lat="45.85705" lon="2.83632">
        <ele>740</ele>
        <time>2017-10-21T14:26:46Z</time>
      </trkpt>
      <trkpt lat="45.85708" lon="2.83618">
        <ele>740</ele>
        <time>2017-10-21T14:28:46Z</time>
      </trkpt>
      <trkpt lat="45.8571" lon="2.83603">
        <ele>739</ele>
        <time>2017-10-21T14:30:46Z</time>
      </trkpt>
      <trkpt lat="45.85711" lon="2.83589">
        <ele>739</ele>
        <time>2017-10-21T14:32:46Z</time>
      </trkpt>
      <trkpt lat="45.85713" lon="2.83575">
        <ele>738</ele>
        <time>2017-10-21T14:34:46Z</time>
      </trkpt>
      <trkpt lat="45.85715" lon="2.83561">
        <ele>738</ele>
        <time>2017-10-21T14:36:46Z</time>
      </trkpt>
      <trkpt lat="45.85717" lon="2.83548">
        <ele>737</ele>
        <time>2017-10-21T14:38:46Z</time>
      </trkpt>
      <trkpt lat="45.8572" lon="2.83522">
        <ele>736</ele>
        <time>2017-10-21T14:40:46Z</time>
      </trkpt>
      <trkpt lat="45.85722" lon="2.83509">
        <ele>735</ele>
        <time>2017-10-21T14:42:46Z</time>
      </trkpt>
      <trkpt lat="45.85724" lon="2.83496">
        <ele>734</ele>
        <time>2017-10-21T14:44:46Z</time>
      </trkpt>
      <trkpt lat="45.85729" lon="2.83468">
        <ele>731</ele>
        <time>2017-10-21T14:46:46Z</time>
      </trkpt>
      <trkpt lat="45.85738" lon="2.83425">
        <ele>725</ele>
        <time>2017-10-21T14:48:46Z</time>
      </trkpt>
      <trkpt lat="45.85741" lon="2.83412">
        <ele>723</ele>
        <time>2017-10-21T14:50:46Z</time>
      </trkpt>
      <trkpt lat="45.85743" lon="2.83398">
        <ele>722</ele>
        <time>2017-10-21T14:52:46Z</time>
      </trkpt>
      <trkpt lat="45.85744" lon="2.83384">
        <ele>721</ele>
        <time>2017-10-21T14:54:46Z</time>
      </trkpt>
      <trkpt lat="45.85743" lon="2.83343">
        <ele>717</ele>
        <time>2017-10-21T14:56:46Z</time>
      </trkpt>
      <trkpt lat="45.85743" lon="2.83328">
        <ele>715</ele>
        <time>2017-10-21T14:58:46Z</time>
      </trkpt>
      <trkpt lat="45.85745" lon="2.83296">
        <ele>712</ele>
        <time>2017-10-21T15:00:46Z</time>
      </trkpt>
      <trkpt lat="45.85747" lon="2.83278">
        <ele>710</ele>
        <time>2017-10-21T15:02:46Z</time>
      </trkpt>
      <trkpt lat="45.8575" lon="2.83259">
        <ele>707</ele>
        <time>2017-10-21T15:04:46Z</time>
      </trkpt>
      <trkpt lat="45.85753" lon="2.8324">
        <ele>706</ele>
        <time>2017-10-21T15:06:46Z</time>
      </trkpt>
      <trkpt lat="45.85755" lon="2.83222">
        <ele>705</ele>
        <time>2017-10-21T15:08:46Z</time>
      </trkpt>
      <trkpt lat="45.85757" lon="2.83203">
        <ele>703</ele>
        <time>2017-10-21T15:10:46Z</time>
      </trkpt>
      <trkpt lat="45.85757" lon="2.83188">
        <ele>702</ele>
        <time>2017-10-21T15:12:46Z</time>
      </trkpt>
      <trkpt lat="45.85757" lon="2.83163">
        <ele>700</ele>
        <time>2017-10-21T15:14:46Z</time>
      </trkpt>
      <trkpt lat="45.85758" lon="2.83145">
        <ele>698</ele>
        <time>2017-10-21T15:16:46Z</time>
      </trkpt>
      <trkpt lat="45.8576" lon="2.83139">
        <ele>698</ele>
        <time>2017-10-21T15:18:46Z</time>
      </trkpt>
      <trkpt lat="45.85761" lon="2.83125">
        <ele>696</ele>
        <time>2017-10-21T15:20:46Z</time>
      </trkpt>
      <trkpt lat="45.85764" lon="2.83118">
        <ele>696</ele>
        <time>2017-10-21T15:22:46Z</time>
      </trkpt>
      <trkpt lat="45.85765" lon="2.8311">
        <ele>695</ele>
        <time>2017-10-21T15:24:46Z</time>
      </trkpt>
      <trkpt lat="45.85766" lon="2.83106">
        <ele>695</ele>
        <time>2017-10-21T15:26:46Z</time>
      </trkpt>
      <trkpt lat="45.85769" lon="2.83096">
        <ele>695</ele>
        <time>2017-10-21T15:28:46Z</time>
      </trkpt>
      <trkpt lat="45.85769" lon="2.83089">
        <ele>694</ele>
        <time>2017-10-21T15:30:46Z</time>
      </trkpt>
      <trkpt lat="45.85771" lon="2.83074">
        <ele>693</ele>
        <time>2017-10-21T15:32:46Z</time>
      </trkpt>
      <trkpt lat="45.85773" lon="2.83065">
        <ele>692</ele>
        <time>2017-10-21T15:34:46Z</time>
      </trkpt>
      <trkpt lat="45.85774" lon="2.83057">
        <ele>692</ele>
        <time>2017-10-21T15:36:46Z</time>
      </trkpt>
      <trkpt lat="45.85776" lon="2.83048">
        <ele>691</ele>
        <time>2017-10-21T15:38:46Z</time>
      </trkpt>
      <trkpt lat="45.85784" lon="2.83022">
        <ele>689</ele>
        <time>2017-10-21T15:40:46Z</time>
      </trkpt>
      <trkpt lat="45.85787" lon="2.83013">
        <ele>689</ele>
        <time>2017-10-21T15:42:46Z</time>
      </trkpt>
      <trkpt lat="45.85789" lon="2.83005">
        <ele>688</ele>
        <time>2017-10-21T15:44:46Z</time>
      </trkpt>
      <trkpt lat="45.85793" lon="2.82988">
        <ele>686</ele>
        <time>2017-10-21T15:46:46Z</time>
      </trkpt>
      <trkpt lat="45.85796" lon="2.82978">
        <ele>685</ele>
        <time>2017-10-21T15:48:46Z</time>
      </trkpt>
      <trkpt lat="45.85799" lon="2.82969">
        <ele>683</ele>
        <time>2017-10-21T15:50:46Z</time>
      </trkpt>
      <trkpt lat="45.85809" lon="2.82952">
        <ele>681</ele>
        <time>2017-10-21T15:52:46Z</time>
      </trkpt>
      <trkpt lat="45.85819" lon="2.82937">
        <ele>678</ele>
        <time>2017-10-21T15:54:46Z</time>
      </trkpt>
      <trkpt lat="45.8583" lon="2.82924">
        <ele>675</ele>
        <time>2017-10-21T15:56:46Z</time>
      </trkpt>
      <trkpt lat="45.85836" lon="2.82917">
        <ele>673</ele>
        <time>2017-10-21T15:58:46Z</time>
      </trkpt>
      <trkpt lat="45.85843" lon="2.82912">
        <ele>672</ele>
        <time>2017-10-21T16:00:46Z</time>
      </trkpt>
      <trkpt lat="45.85851" lon="2.82909">
        <ele>672</ele>
        <time>2017-10-21T16:02:46Z</time>
      </trkpt>
      <trkpt lat="45.85859" lon="2.82906">
        <ele>671</ele>
        <time>2017-10-21T16:04:46Z</time>
      </trkpt>
      <trkpt lat="45.85867" lon="2.82905">
        <ele>671</ele>
        <time>2017-10-21T16:06:46Z</time>
      </trkpt>
      <trkpt lat="45.85876" lon="2.82904">
        <ele>671</ele>
        <time>2017-10-21T16:08:46Z</time>
      </trkpt>
      <trkpt lat="45.85884" lon="2.82904">
        <ele>670</ele>
        <time>2017-10-21T16:10:46Z</time>
      </trkpt>
      <trkpt lat="45.85917" lon="2.82907">
        <ele>669</ele>
        <time>2017-10-21T16:12:46Z</time>
      </trkpt>
      <trkpt lat="45.85933" lon="2.8291">
        <ele>668</ele>
        <time>2017-10-21T16:14:46Z</time>
      </trkpt>
      <trkpt lat="45.85941" lon="2.82911">
        <ele>668</ele>
        <time>2017-10-21T16:16:46Z</time>
      </trkpt>
      <trkpt lat="45.85949" lon="2.82914">
        <ele>667</ele>
        <time>2017-10-21T16:18:46Z</time>
      </trkpt>
      <trkpt lat="45.85972" lon="2.82922">
        <ele>666</ele>
        <time>2017-10-21T16:20:46Z</time>
      </trkpt>
      <trkpt lat="45.8598" lon="2.82924">
        <ele>666</ele>
        <time>2017-10-21T16:22:46Z</time>
      </trkpt>
      <trkpt lat="45.86004" lon="2.82927">
        <ele>664</ele>
        <time>2017-10-21T16:24:46Z</time>
      </trkpt>
      <trkpt lat="45.86013" lon="2.82929">
        <ele>663</ele>
        <time>2017-10-21T16:26:46Z</time>
      </trkpt>
      <trkpt lat="45.86056" lon="2.82941">
        <ele>661</ele>
        <time>2017-10-21T16:28:46Z</time>
      </trkpt>
      <trkpt lat="45.86068" lon="2.82944">
        <ele>660</ele>
        <time>2017-10-21T16:30:46Z</time>
      </trkpt>
      <trkpt lat="45.86076" lon="2.82944">
        <ele>659</ele>
        <time>2017-10-21T16:32:46Z</time>
      </trkpt>
      <trkpt lat="45.86079" lon="2.82943">
        <ele>659</ele>
        <time>2017-10-21T16:34:46Z</time>
      </trkpt>
      <trkpt lat="45.86084" lon="2.8294">
        <ele>658</ele>
        <time>2017-10-21T16:36:46Z</time>
      </trkpt>
      <trkpt lat="45.86086" lon="2.82939">
        <ele>658</ele>
        <time>2017-10-21T16:38:46Z</time>
      </trkpt>
      <trkpt lat="45.8609" lon="2.82934">
        <ele>658</ele>
        <time>2017-10-21T16:40:46Z</time>
      </trkpt>
      <trkpt lat="45.86092" lon="2.82929">
        <ele>658</ele>
        <time>2017-10-21T16:42:46Z</time>
      </trkpt>
      <trkpt lat="45.86092" lon="2.82928">
        <ele>658</ele>
        <time>2017-10-21T16:44:46Z</time>
      </trkpt>
      <trkpt lat="45.86092" lon="2.82928">
        <ele>658</ele>
        <time>2017-10-21T16:46:46Z</time>
      </trkpt>
      <trkpt lat="45.86093" lon="2.82927">
        <ele>658</ele>
        <time>2017-10-21T16:48:46Z</time>
      </trkpt>
      <trkpt lat="45.86093" lon="2.82927">
        <ele>658</ele>
        <time>2017-10-21T16:50:46Z</time>
      </trkpt>
      <trkpt lat="45.86093" lon="2.82927">
        <ele>658</ele>
        <time>2017-10-21T16:52:46Z</time>
      </trkpt>
      <trkpt lat="45.86093" lon="2.82926">
        <ele>658</ele>
        <time>2017-10-21T16:54:46Z</time>
      </trkpt>
      <trkpt lat="45.86093" lon="2.82926">
        <ele>658</ele>
        <time>2017-10-21T16:56:46Z</time>
      </trkpt>
      <trkpt lat="45.86093" lon="2.82926">
        <ele>658</ele>
        <time>2017-10-21T16:58:46Z</time>
      </trkpt>
      <trkpt lat="45.86093" lon="2.82926">
        <ele>658</ele>
        <time>2017-10-21T17:00:46Z</time>
      </trkpt>
      <trkpt lat="45.86093" lon="2.82926">
        <ele>658</ele>
        <time>2017-10-21T17:02:46Z</time>
      </trkpt>
      <trkpt lat="45.86096" lon="2.82923">
        <ele>658</ele>
        <time>2017-10-21T17:04:46Z</time>
      </trkpt>
      <trkpt lat="45.86098" lon="2.82924">
        <ele>658</ele>
        <time>2017-10-21T17:06:46Z</time>
      </trkpt>
      <trkpt lat="45.86101" lon="2.82924">
        <ele>658</ele>
        <time>2017-10-21T17:08:46Z</time>
      </trkpt>
      <trkpt lat="45.86102" lon="2.82924">
        <ele>657</ele>
        <time>2017-10-21T17:10:46Z</time>
      </trkpt>
      <trkpt lat="45.86104" lon="2.82923">
        <ele>657</ele>
        <time>2017-10-21T17:12:46Z</time>
      </trkpt>
      <trkpt lat="45.86105" lon="2.82922">
        <ele>657</ele>
        <time>2017-10-21T17:14:46Z</time>
      </trkpt>
      <trkpt lat="45.86108" lon="2.82918">
        <ele>657</ele>
        <time>2017-10-21T17:16:46Z</time>
      </trkpt>
      <trkpt lat="45.86109" lon="2.82913">
        <ele>658</ele>
        <time>2017-10-21T17:18:46Z</time>
      </trkpt>
      <trkpt lat="45.8611" lon="2.82909">
        <ele>658</ele>
        <time>2017-10-21T17:20:46Z</time>
      </trkpt>
      <trkpt lat="45.86111" lon="2.82905">
        <ele>659</ele>
        <time>2017-10-21T17:22:46Z</time>
      </trkpt>
      <trkpt lat="45.86112" lon="2.82905">
        <ele>659</ele>
        <time>2017-10-21T17:24:46Z</time>
      </trkpt>
      <trkpt lat="45.86112" lon="2.82903">
        <ele>659</ele>
        <time>2017-10-21T17:26:46Z</time>
      </trkpt>
      <trkpt lat="45.86112" lon="2.82902">
        <ele>659</ele>
        <time>2017-10-21T17:28:46Z</time>
      </trkpt>
      <trkpt lat="45.86112" lon="2.82902">
        <ele>659</ele>
        <time>2017-10-21T17:30:46Z</time>
      </trkpt>
      <trkpt lat="45.86112" lon="2.82901">
        <ele>659</ele>
        <time>2017-10-21T17:32:46Z</time>
      </trkpt>
      <trkpt lat="45.86112" lon="2.82901">
        <ele>659</ele>
        <time>2017-10-21T17:34:46Z</time>
      </trkpt>
      <trkpt lat="45.86112" lon="2.82901">
        <ele>659</ele>
        <time>2017-10-21T17:36:46Z</time>
      </trkpt>
      <trkpt lat="45.86112" lon="2.82901">
        <ele>659</ele>
        <time>2017-10-21T17:38:46Z</time>
      </trkpt>
      <trkpt lat="45.86112" lon="2.82901">
        <ele>659</ele>
        <time>2017-10-21T17:40:46Z</time>
      </trkpt>
      <trkpt lat="45.86112" lon="2.829">
        <ele>659</ele>
        <time>2017-10-21T17:42:46Z</time>
      </trkpt>
      <trkpt lat="45.86111" lon="2.82899">
        <ele>660</ele>
        <time>2017-10-21T17:44:46Z</time>
      </trkpt>
      <trkpt lat="45.86111" lon="2.82899">
        <ele>660</ele>
        <time>2017-10-21T17:46:46Z</time>
      </trkpt>
      <trkpt lat="45.86111" lon="2.82895">
        <ele>660</ele>
        <time>2017-10-21T17:48:46Z</time>
      </trkpt>
      <trkpt lat="45.86112" lon="2.82891">
        <ele>661</ele>
        <time>2017-10-21T17:50:46Z</time>
      </trkpt>
      <trkpt lat="45.86112" lon="2.82889">
        <ele>661</ele>
        <time>2017-10-21T17:52:46Z</time>
      </trkpt>
      <trkpt lat="45.86113" lon="2.82885">
        <ele>662</ele>
        <time>2017-10-21T17:54:46Z</time>
      </trkpt>
      <trkpt lat="45.86113" lon="2.82883">
        <ele>662</ele>
        <time>2017-10-21T17:56:46Z</time>
      </trkpt>
      <trkpt lat="45.86115" lon="2.82881">
        <ele>662</ele>
        <time>2017-10-21T17:58:46Z</time>
      </trkpt>
      <trkpt lat="45.86117" lon="2.82877">
        <ele>663</ele>
        <time>2017-10-21T18:00:46Z</time>
      </trkpt>
      <trkpt lat="45.86119" lon="2.82873">
        <ele>663</ele>
        <time>2017-10-21T18:02:46Z</time>
      </trkpt>
      <trkpt lat="45.86121" lon="2.82869">
        <ele>664</ele>
        <time>2017-10-21T18:04:46Z</time>
      </trkpt>
      <trkpt lat="45.86123" lon="2.82866">
        <ele>664</ele>
        <time>2017-10-21T18:06:46Z</time>
      </trkpt>
      <trkpt lat="45.86131" lon="2.82858">
        <ele>665</ele>
        <time>2017-10-21T18:08:46Z</time>
      </trkpt>
      <trkpt lat="45.86137" lon="2.82854">
        <ele>666</ele>
        <time>2017-10-21T18:10:46Z</time>
      </trkpt>
      <trkpt lat="45.86141" lon="2.82851">
        <ele>667</ele>
        <time>2017-10-21T18:12:46Z</time>
      </trkpt>
      <trkpt lat="45.86146" lon="2.82849">
        <ele>667</ele>
        <time>2017-10-21T18:14:46Z</time>
      </trkpt>
      <trkpt lat="45.86152" lon="2.82846">
        <ele>667</ele>
        <time>2017-10-21T18:16:46Z</time>
      </trkpt>
      <trkpt lat="45.86157" lon="2.82842">
        <ele>668</ele>
        <time>2017-10-21T18:18:46Z</time>
      </trkpt>
      <trkpt lat="45.86167" lon="2.82833">
        <ele>670</ele>
        <time>2017-10-21T18:20:46Z</time>
      </trkpt>
      <trkpt lat="45.86174" lon="2.82829">
        <ele>670</ele>
        <time>2017-10-21T18:22:46Z</time>
      </trkpt>
      <trkpt lat="45.86176" lon="2.82828">
        <ele>670</ele>
        <time>2017-10-21T18:24:46Z</time>
      </trkpt>
      <trkpt lat="45.86201" lon="2.82812">
        <ele>671</ele>
        <time>2017-10-21T18:26:46Z</time>
      </trkpt>
      <trkpt lat="45.86205" lon="2.82808">
        <ele>672</ele>
        <time>2017-10-21T18:28:46Z</time>
      </trkpt>
      <trkpt lat="45.86208" lon="2.82807">
        <ele>671</ele>
        <time>2017-10-21T18:30:46Z</time>
      </trkpt>
      <trkpt lat="45.8621" lon="2.82805">
        <ele>672</ele>
        <time>2017-10-21T18:32:46Z</time>
      </trkpt>
      <trkpt lat="45.8622" lon="2.82795">
        <ele>673</ele>
        <time>2017-10-21T18:34:46Z</time>
      </trkpt>
      <trkpt lat="45.86225" lon="2.82788">
        <ele>674</ele>
        <time>2017-10-21T18:36:46Z</time>
      </trkpt>
      <trkpt lat="45.86227" lon="2.82786">
        <ele>674</ele>
        <time>2017-10-21T18:38:46Z</time>
      </trkpt>
      <trkpt lat="45.86234" lon="2.82779">
        <ele>675</ele>
        <time>2017-10-21T18:40:46Z</time>
      </trkpt>
      <trkpt lat="45.86238" lon="2.82773">
        <ele>675</ele>
        <time>2017-10-21T18:42:46Z</time>
      </trkpt>
      <trkpt lat="45.86241" lon="2.82769">
        <ele>676</ele>
        <time>2017-10-21T18:44:46Z</time>
      </trkpt>
      <trkpt lat="45.86244" lon="2.82766">
        <ele>676</ele>
        <time>2017-10-21T18:46:46Z</time>
      </trkpt>
      <trkpt lat="45.86246" lon="2.82763">
        <ele>677</ele>
        <time>2017-10-21T18:48:46Z</time>
      </trkpt>
      <trkpt lat="45.86248" lon="2.82761">
        <ele>677</ele>
        <time>2017-10-21T18:50:46Z</time>
      </trkpt>
      <trkpt lat="45.86249" lon="2.8276">
        <ele>677</ele>
        <time>2017-10-21T18:52:46Z</time>
      </trkpt>
      <trkpt lat="45.86249" lon="2.82759">
        <ele>677</ele>
        <time>2017-10-21T18:54:46Z</time>
      </trkpt>
      <trkpt lat="45.86252" lon="2.82755">
        <ele>677</ele>
        <time>2017-10-21T18:56:46Z</time>
      </trkpt>
      <trkpt lat="45.86256" lon="2.8275">
        <ele>678</ele>
        <time>2017-10-21T18:58:46Z</time>
      </trkpt>
      <trkpt lat="45.86257" lon="2.82747">
        <ele>678</ele>
        <time>2017-10-21T19:00:46Z</time>
      </trkpt>
      <trkpt lat="45.86258" lon="2.82746">
        <ele>678</ele>
        <time>2017-10-21T19:02:46Z</time>
      </trkpt>
      <trkpt lat="45.86261" lon="2.8274">
        <ele>679</ele>
        <time>2017-10-21T19:04:46Z</time>
      </trkpt>
      <trkpt lat="45.86261" lon="2.82738">
        <ele>679</ele>
        <time>2017-10-21T19:06:46Z</time>
      </trkpt>
      <trkpt lat="45.86263" lon="2.82733">
        <ele>680</ele>
        <time>2017-10-21T19:08:46Z</time>
      </trkpt>
      <trkpt lat="45.86265" lon="2.82729">
        <ele>680</ele>
        <time>2017-10-21T19:10:46Z</time>
      </trkpt>
      <trkpt lat="45.86266" lon="2.82726">
        <ele>680</ele>
        <time>2017-10-21T19:12:46Z</time>
      </trkpt>
      <trkpt lat="45.86268" lon="2.82719">
        <ele>681</ele>
        <time>2017-10-21T19:14:46Z</time>
      </trkpt>
      <trkpt lat="45.86269" lon="2.82717">
        <ele>681</ele>
        <time>2017-10-21T19:16:46Z</time>
      </trkpt>
      <trkpt lat="45.86272" lon="2.82709">
        <ele>682</ele>
        <time>2017-10-21T19:18:46Z</time>
      </trkpt>
      <trkpt lat="45.86274" lon="2.82704">
        <ele>683</ele>
        <time>2017-10-21T19:20:46Z</time>
      </trkpt>
      <trkpt lat="45.86276" lon="2.827">
        <ele>683</ele>
        <time>2017-10-21T19:22:46Z</time>
      </trkpt>
      <trkpt lat="45.86277" lon="2.82695">
        <ele>683</ele>
        <time>2017-10-21T19:24:46Z</time>
      </trkpt>
      <trkpt lat="45.86279" lon="2.82691">
        <ele>683</ele>
        <time>2017-10-21T19:26:46Z</time>
      </trkpt>
      <trkpt lat="45.86281" lon="2.82689">
        <ele>683</ele>
        <time>2017-10-21T19:28:46Z</time>
      </trkpt>
      <trkpt lat="45.86283" lon="2.82683">
        <ele>683</ele>
        <time>2017-10-21T19:30:46Z</time>
      </trkpt>
      <trkpt lat="45.86287" lon="2.82676">
        <ele>683</ele>
        <time>2017-10-21T19:32:46Z</time>
      </trkpt>
      <trkpt lat="45.86293" lon="2.82665">
        <ele>683</ele>
        <time>2017-10-21T19:34:46Z</time>
      </trkpt>
      <trkpt lat="45.86298" lon="2.82656">
        <ele>682</ele>
        <time>2017-10-21T19:36:46Z</time>
      </trkpt>
      <trkpt lat="45.863" lon="2.82653">
        <ele>682</ele>
        <time>2017-10-21T19:38:46Z</time>
      </trkpt>
      <trkpt lat="45.86301" lon="2.82651">
        <ele>681</ele>
        <time>2017-10-21T19:40:46Z</time>
      </trkpt>
      <trkpt lat="45.86302" lon="2.82648">
        <ele>681</ele>
        <time>2017-10-21T19:42:46Z</time>
      </trkpt>
      <trkpt lat="45.86303" lon="2.82646">
        <ele>681</ele>
        <time>2017-10-21T19:44:46Z</time>
      </trkpt>
      <trkpt lat="45.86303" lon="2.82645">
        <ele>682</ele>
        <time>2017-10-21T19:46:46Z</time>
      </trkpt>
      <trkpt lat="45.86303" lon="2.82645">
        <ele>682</ele>
        <time>2017-10-21T19:48:46Z</time>
      </trkpt>
      <trkpt lat="45.86303" lon="2.82643">
        <ele>682</ele>
        <time>2017-10-21T19:50:46Z</time>
      </trkpt>
      <trkpt lat="45.86304" lon="2.82643">
        <ele>681</ele>
        <time>2017-10-21T19:52:46Z</time>
      </trkpt>
      <trkpt lat="45.86304" lon="2.82641">
        <ele>682</ele>
        <time>2017-10-21T19:54:46Z</time>
      </trkpt>
      <trkpt lat="45.86307" lon="2.82636">
        <ele>681</ele>
        <time>2017-10-21T19:56:46Z</time>
      </trkpt>
      <trkpt lat="45.86308" lon="2.82633">
        <ele>681</ele>
        <time>2017-10-21T19:58:46Z</time>
      </trkpt>
      <trkpt lat="45.86316" lon="2.82619">
        <ele>680</ele>
        <time>2017-10-21T20:00:46Z</time>
      </trkpt>
      <trkpt lat="45.86321" lon="2.82611">
        <ele>679</ele>
        <time>2017-10-21T20:02:46Z</time>
      </trkpt>
      <trkpt lat="45.86325" lon="2.82604">
        <ele>678</ele>
        <time>2017-10-21T20:04:46Z</time>
      </trkpt>
      <trkpt lat="45.86329" lon="2.82593">
        <ele>678</ele>
        <time>2017-10-21T20:06:46Z</time>
      </trkpt>
      <trkpt lat="45.86332" lon="2.82584">
        <ele>678</ele>
        <time>2017-10-21T20:08:46Z</time>
      </trkpt>
      <trkpt lat="45.86333" lon="2.82579">
        <ele>679</ele>
        <time>2017-10-21T20:10:46Z</time>
      </trkpt>
      <trkpt lat="45.86337" lon="2.82566">
        <ele>680</ele>
        <time>2017-10-21T20:12:46Z</time>
      </trkpt>
      <trkpt lat="45.8634" lon="2.82557">
        <ele>680</ele>
        <time>2017-10-21T20:14:46Z</time>
      </trkpt>
      <trkpt lat="45.86341" lon="2.82553">
        <ele>680</ele>
        <time>2017-10-21T20:16:46Z</time>
      </trkpt>
      <trkpt lat="45.86342" lon="2.82541">
        <ele>682</ele>
        <time>2017-10-21T20:18:46Z</time>
      </trkpt>
      <trkpt lat="45.86343" lon="2.82537">
        <ele>682</ele>
        <time>2017-10-21T20:20:46Z</time>
      </trkpt>
      <trkpt lat="45.86343" lon="2.82534">
        <ele>682</ele>
        <time>2017-10-21T20:22:46Z</time>
      </trkpt>
      <trkpt lat="45.86346" lon="2.82527">
        <ele>682</ele>
        <time>2017-10-21T20:24:46Z</time>
      </trkpt>
      <trkpt lat="45.86348" lon="2.82523">
        <ele>682</ele>
        <time>2017-10-21T20:26:46Z</time>
      </trkpt>
      <trkpt lat="45.86353" lon="2.82516">
        <ele>682</ele>
        <time>2017-10-21T20:28:46Z</time>
      </trkpt>
      <trkpt lat="45.86367" lon="2.82504">
        <ele>680</ele>
        <time>2017-10-21T20:30:46Z</time>
      </trkpt>
      <trkpt lat="45.86372" lon="2.825">
        <ele>679</ele>
        <time>2017-10-21T20:32:46Z</time>
      </trkpt>
      <trkpt lat="45.86379" lon="2.82496">
        <ele>678</ele>
        <time>2017-10-21T20:34:46Z</time>
      </trkpt>
      <trkpt lat="45.86385" lon="2.8249">
        <ele>677</ele>
        <time>2017-10-21T20:36:46Z</time>
      </trkpt>
      <trkpt lat="45.8639" lon="2.82485">
        <ele>676</ele>
        <time>2017-10-21T20:38:46Z</time>
      </trkpt>
      <trkpt lat="45.86392" lon="2.82482">
        <ele>675</ele>
        <time>2017-10-21T20:40:46Z</time>
      </trkpt>
      <trkpt lat="45.86398" lon="2.82477">
        <ele>674</ele>
        <time>2017-10-21T20:42:46Z</time>
      </trkpt>
      <trkpt lat="45.86407" lon="2.82467">
        <ele>673</ele>
        <time>2017-10-21T20:44:46Z</time>
      </trkpt>
      <trkpt lat="45.86409" lon="2.82463">
        <ele>673</ele>
        <time>2017-10-21T20:46:46Z</time>
      </trkpt>
      <trkpt lat="45.86414" lon="2.82455">
        <ele>672</ele>
        <time>2017-10-21T20:48:46Z</time>
      </trkpt>
      <trkpt lat="45.86419" lon="2.82446">
        <ele>672</ele>
        <time>2017-10-21T20:50:46Z</time>
      </trkpt>
      <trkpt lat="45.86424" lon="2.82436">
        <ele>672</ele>
        <time>2017-10-21T20:52:46Z</time>
      </trkpt>
      <trkpt lat="45.86429" lon="2.82424">
        <ele>672</ele>
        <time>2017-10-21T20:54:46Z</time>
      </trkpt>
      <trkpt lat="45.86433" lon="2.82413">
        <ele>671</ele>
        <time>2017-10-21T20:56:46Z</time>
      </trkpt>
      <trkpt lat="45.86435" lon="2.82403">
        <ele>671</ele>
        <time>2017-10-21T20:58:46Z</time>
      </trkpt>
      <trkpt lat="45.86439" lon="2.82387">
        <ele>669</ele>
        <time>2017-10-21T21:00:46Z</time>
      </trkpt>
      <trkpt lat="45.8644" lon="2.82381">
        <ele>669</ele>
        <time>2017-10-21T21:02:46Z</time>
      </trkpt>
      <trkpt lat="45.86441" lon="2.82375">
        <ele>669</ele>
        <time>2017-10-21T21:04:46Z</time>
      </trkpt>
      <trkpt lat="45.86442" lon="2.82371">
        <ele>669</ele>
        <time>2017-10-21T21:06:46Z</time>
      </trkpt>
      <trkpt lat="45.86444" lon="2.82367">
        <ele>668</ele>
        <time>2017-10-21T21:08:46Z</time>
      </trkpt>
      <trkpt lat="45.86445" lon="2.82364">
        <ele>668</ele>
        <time>2017-10-21T21:10:46Z</time>
      </trkpt>
      <trkpt lat="45.86446" lon="2.82361">
        <ele>668</ele>
        <time>2017-10-21T21:12:46Z</time>
      </trkpt>
      <trkpt lat="45.8645" lon="2.82366">
        <ele>667</ele>
        <time>2017-10-21T21:14:46Z</time>
      </trkpt>
      <trkpt lat="45.86458" lon="2.82371">
        <ele>666</ele>
        <time>2017-10-21T21:16:46Z</time>
      </trkpt>
      <trkpt lat="45.86468" lon="2.82379">
        <ele>664</ele>
        <time>2017-10-21T21:18:46Z</time>
      </trkpt>
      <trkpt lat="45.86487" lon="2.82395">
        <ele>660</ele>
        <time>2017-10-21T21:20:46Z</time>
      </trkpt>
      <trkpt lat="45.86502" lon="2.82407">
        <ele>657</ele>
        <time>2017-10-21T21:22:46Z</time>
      </trkpt>
      <trkpt lat="45.86518" lon="2.82421">
        <ele>655</ele>
        <time>2017-10-21T21:24:46Z</time>
      </trkpt>
      <trkpt lat="45.8655" lon="2.82447">
        <ele>652</ele>
        <time>2017-10-21T21:26:46Z</time>
      </trkpt>
      <trkpt lat="45.86559" lon="2.82455">
        <ele>651</ele>
        <time>2017-10-21T21:28:46Z</time>
      </trkpt>
      <trkpt lat="45.86567" lon="2.82463">
        <ele>651</ele>
        <time>2017-10-21T21:30:46Z</time>
      </trkpt>
      <trkpt lat="45.86574" lon="2.82472">
        <ele>650</ele>
        <time>2017-10-21T21:32:46Z</time>
      </trkpt>
      <trkpt lat="45.8658" lon="2.8248">
        <ele>649</ele>
        <time>2017-10-21T21:34:46Z</time>
      </trkpt>
      <trkpt lat="45.86585" lon="2.82488">
        <ele>649</ele>
        <time>2017-10-21T21:36:46Z</time>
      </trkpt>
      <trkpt lat="45.86589" lon="2.82494">
        <ele>649</ele>
        <time>2017-10-21T21:38:46Z</time>
      </trkpt>
      <trkpt lat="45.86593" lon="2.82498">
        <ele>648</ele>
        <time>2017-10-21T21:40:46Z</time>
      </trkpt>
      <trkpt lat="45.86597" lon="2.82501">
        <ele>648</ele>
        <time>2017-10-21T21:42:46Z</time>
      </trkpt>
      <trkpt lat="45.86601" lon="2.82502">
        <ele>648</ele>
        <time>2017-10-21T21:44:46Z</time>
      </trkpt>
      <trkpt lat="45.86605" lon="2.82501">
        <ele>648</ele>
        <time>2017-10-21T21:46:46Z</time>
      </trkpt>
      <trkpt lat="45.8661" lon="2.825">
        <ele>647</ele>
        <time>2017-10-21T21:48:46Z</time>
      </trkpt>
      <trkpt lat="45.86618" lon="2.82494">
        <ele>647</ele>
        <time>2017-10-21T21:50:46Z</time>
      </trkpt>
      <trkpt lat="45.86627" lon="2.82489">
        <ele>646</ele>
        <time>2017-10-21T21:52:46Z</time>
      </trkpt>
      <trkpt lat="45.8663" lon="2.82487">
        <ele>646</ele>
        <time>2017-10-21T21:54:46Z</time>
      </trkpt>
      <trkpt lat="45.86633" lon="2.82485">
        <ele>646</ele>
        <time>2017-10-21T21:56:46Z</time>
      </trkpt>
      <trkpt lat="45.86635" lon="2.82483">
        <ele>645</ele>
        <time>2017-10-21T21:58:46Z</time>
      </trkpt>
      <trkpt lat="45.86638" lon="2.82483">
        <ele>645</ele>
        <time>2017-10-21T22:00:46Z</time>
      </trkpt>
      <trkpt lat="45.8664" lon="2.82483">
        <ele>645</ele>
        <time>2017-10-21T22:02:46Z</time>
      </trkpt>
      <trkpt lat="45.86643" lon="2.82485">
        <ele>645</ele>
        <time>2017-10-21T22:04:46Z</time>
      </trkpt>
      <trkpt lat="45.86646" lon="2.82487">
        <ele>645</ele>
        <time>2017-10-21T22:06:46Z</time>
      </trkpt>
      <trkpt lat="45.86652" lon="2.82492">
        <ele>645</ele>
        <time>2017-10-21T22:08:46Z</time>
      </trkpt>
      <trkpt lat="45.86659" lon="2.82498">
        <ele>644</ele>
        <time>2017-10-21T22:10:46Z</time>
      </trkpt>
      <trkpt lat="45.86663" lon="2.825">
        <ele>644</ele>
        <time>2017-10-21T22:12:46Z</time>
      </trkpt>
      <trkpt lat="45.86679" lon="2.82507">
        <ele>643</ele>
        <time>2017-10-21T22:14:46Z</time>
      </trkpt>
      <trkpt lat="45.86687" lon="2.8251">
        <ele>643</ele>
        <time>2017-10-21T22:16:46Z</time>
      </trkpt>
      <trkpt lat="45.86702" lon="2.82515">
        <ele>642</ele>
        <time>2017-10-21T22:18:46Z</time>
      </trkpt>
      <trkpt lat="45.86712" lon="2.8252">
        <ele>642</ele>
        <time>2017-10-21T22:20:46Z</time>
      </trkpt>
      <trkpt lat="45.86713" lon="2.8252">
        <ele>642</ele>
        <time>2017-10-21T22:22:46Z</time>
      </trkpt>
      <trkpt lat="45.86716" lon="2.8252">
        <ele>641</ele>
        <time>2017-10-21T22:24:46Z</time>
      </trkpt>
      <trkpt lat="45.86717" lon="2.82514">
        <ele>641</ele>
        <time>2017-10-21T22:26:46Z</time>
      </trkpt>
      <trkpt lat="45.86718" lon="2.82512">
        <ele>641</ele>
        <time>2017-10-21T22:28:46Z</time>
      </trkpt>
      <trkpt lat="45.8672" lon="2.82511">
        <ele>641</ele>
        <time>2017-10-21T22:30:46Z</time>
      </trkpt>
      <trkpt lat="45.86724" lon="2.82508">
        <ele>640</ele>
        <time>2017-10-21T22:32:46Z</time>
      </trkpt>
      <trkpt lat="45.86726" lon="2.82508">
        <ele>640</ele>
        <time>2017-10-21T22:34:46Z</time>
      </trkpt>
      <trkpt lat="45.8673" lon="2.82506">
        <ele>640</ele>
        <time>2017-10-21T22:36:46Z</time>
      </trkpt>
      <trkpt lat="45.86741" lon="2.82501">
        <ele>639</ele>
        <time>2017-10-21T22:38:46Z</time>
      </trkpt>
      <trkpt lat="45.8675" lon="2.825">
        <ele>638</ele>
        <time>2017-10-21T22:40:46Z</time>
      </trkpt>
      <trkpt lat="45.86753" lon="2.825">
        <ele>638</ele>
        <time>2017-10-21T22:42:46Z</time>
      </trkpt>
      <trkpt lat="45.8676" lon="2.82498">
        <ele>637</ele>
        <time>2017-10-21T22:44:46Z</time>
      </trkpt>
      <trkpt lat="45.86778" lon="2.82497">
        <ele>635</ele>
        <time>2017-10-21T22:46:46Z</time>
      </trkpt>
      <trkpt lat="45.86783" lon="2.82496">
        <ele>635</ele>
        <time>2017-10-21T22:48:46Z</time>
      </trkpt>
      <trkpt lat="45.86798" lon="2.82492">
        <ele>633</ele>
        <time>2017-10-21T22:50:46Z</time>
      </trkpt>
      <trkpt lat="45.86808" lon="2.8249">
        <ele>632</ele>
        <time>2017-10-21T22:52:46Z</time>
      </trkpt>
      <trkpt lat="45.86813" lon="2.82489">
        <ele>632</ele>
        <time>2017-10-21T22:54:46Z</time>
      </trkpt>
      <trkpt lat="45.86824" lon="2.82487">
        <ele>631</ele>
        <time>2017-10-21T22:56:46Z</time>
      </trkpt>
      <trkpt lat="45.8683" lon="2.82487">
        <ele>630</ele>
        <time>2017-10-21T22:58:46Z</time>
      </trkpt>
      <trkpt lat="45.86834" lon="2.82486">
        <ele>630</ele>
        <time>2017-10-21T23:00:46Z</time>
      </trkpt>
      <trkpt lat="45.86844" lon="2.82485">
        <ele>629</ele>
        <time>2017-10-21T23:02:46Z</time>
      </trkpt>
      <trkpt lat="45.86853" lon="2.82482">
        <ele>627</ele>
        <time>2017-10-21T23:04:46Z</time>
      </trkpt>
      <trkpt lat="45.86858" lon="2.82479">
        <ele>627</ele>
        <time>2017-10-21T23:06:46Z</time>
      </trkpt>
      <trkpt lat="45.86862" lon="2.82475">
        <ele>626</ele>
        <time>2017-10-21T23:08:46Z</time>
      </trkpt>
      <trkpt lat="45.86864" lon="2.82473">
        <ele>626</ele>
        <time>2017-10-21T23:10:46Z</time>
      </trkpt>
      <trkpt lat="45.86865" lon="2.82469">
        <ele>625</ele>
        <time>2017-10-21T23:12:46Z</time>
      </trkpt>
      <trkpt lat="45.86867" lon="2.82465">
        <ele>625</ele>
        <time>2017-10-21T23:14:46Z</time>
      </trkpt>
      <trkpt lat="45.86869" lon="2.8245">
        <ele>623</ele>
        <time>2017-10-21T23:16:46Z</time>
      </trkpt>
      <trkpt lat="45.86869" lon="2.82437">
        <ele>622</ele>
        <time>2017-10-21T23:18:46Z</time>
      </trkpt>
      <trkpt lat="45.86867" lon="2.82401">
        <ele>620</ele>
        <time>2017-10-21T23:20:46Z</time>
      </trkpt>
      <trkpt lat="45.86864" lon="2.82368">
        <ele>619</ele>
        <time>2017-10-21T23:22:46Z</time>
      </trkpt>
      <trkpt lat="45.86861" lon="2.82355">
        <ele>619</ele>
        <time>2017-10-21T23:24:46Z</time>
      </trkpt>
      <trkpt lat="45.8686" lon="2.82349">
        <ele>619</ele>
        <time>2017-10-21T23:26:46Z</time>
      </trkpt>
      <trkpt lat="45.86858" lon="2.82343">
        <ele>619</ele>
        <time>2017-10-21T23:28:46Z</time>
      </trkpt>
      <trkpt lat="45.86855" lon="2.82337">
        <ele>620</ele>
        <time>2017-10-21T23:30:46Z</time>
      </trkpt>
      <trkpt lat="45.86853" lon="2.82332">
        <ele>620</ele>
        <time>2017-10-21T23:32:46Z</time>
      </trkpt>
      <trkpt lat="45.86825" lon="2.82291">
        <ele>621</ele>
        <time>2017-10-21T23:34:46Z</time>
      </trkpt>
      <trkpt lat="45.86816" lon="2.82279">
        <ele>620</ele>
        <time>2017-10-21T23:36:46Z</time>
      </trkpt>
      <trkpt lat="45.86813" lon="2.82275">
        <ele>620</ele>
        <time>2017-10-21T23:38:46Z</time>
      </trkpt>
      <trkpt lat="45.86811" lon="2.8227">
        <ele>620</ele>
        <time>2017-10-21T23:40:46Z</time>
      </trkpt>
      <trkpt lat="45.868" lon="2.82253">
        <ele>620</ele>
        <time>2017-10-21T23:42:46Z</time>
      </trkpt>
      <trkpt lat="45.86789" lon="2.82233">
        <ele>619</ele>
        <time>2017-10-21T23:44:46Z</time>
      </trkpt>
      <trkpt lat="45.86786" lon="2.82226">
        <ele>619</ele>
        <time>2017-10-21T23:46:46Z</time>
      </trkpt>
      <trkpt lat="45.86779" lon="2.82211">
        <ele>618</ele>
        <time>2017-10-21T23:48:46Z</time>
      </trkpt>
      <trkpt lat="45.86777" lon="2.82203">
        <ele>618</ele>
        <time>2017-10-21T23:50:46Z</time>
      </trkpt>
      <trkpt lat="45.86775" lon="2.82195">
        <ele>617</ele>
        <time>2017-10-21T23:52:46Z</time>
      </trkpt>
      <trkpt lat="45.86772" lon="2.82179">
        <ele>616</ele>
        <time>2017-10-21T23:54:46Z</time>
      </trkpt>
      <trkpt lat="45.86771" lon="2.82171">
        <ele>616</ele>
        <time>2017-10-21T23:56:46Z</time>
      </trkpt>
      <trkpt lat="45.86771" lon="2.82156">
        <ele>615</ele>
        <time>2017-10-21T23:58:46Z</time>
      </trkpt>
      <trkpt lat="45.86772" lon="2.82148">
        <ele>614</ele>
        <time>2017-10-22T00:00:46Z</time>
      </trkpt>
      <trkpt lat="45.86773" lon="2.8214">
        <ele>614</ele>
        <time>2017-10-22T00:02:46Z</time>
      </trkpt>
      <trkpt lat="45.86775" lon="2.82133">
        <ele>614</ele>
        <time>2017-10-22T00:04:46Z</time>
      </trkpt>
      <trkpt lat="45.86777" lon="2.82127">
        <ele>613</ele>
        <time>2017-10-22T00:06:46Z</time>
      </trkpt>
      <trkpt lat="45.86781" lon="2.82115">
        <ele>612</ele>
        <time>2017-10-22T00:08:46Z</time>
      </trkpt>
      <trkpt lat="45.86788" lon="2.82104">
        <ele>611</ele>
        <time>2017-10-22T00:10:46Z</time>
      </trkpt>
      <trkpt lat="45.86792" lon="2.82099">
        <ele>611</ele>
        <time>2017-10-22T00:12:46Z</time>
      </trkpt>
      <trkpt lat="45.86797" lon="2.82097">
        <ele>611</ele>
        <time>2017-10-22T00:14:46Z</time>
      </trkpt>
      <trkpt lat="45.86803" lon="2.82095">
        <ele>610</ele>
        <time>2017-10-22T00:16:46Z</time>
      </trkpt>
      <trkpt lat="45.86814" lon="2.82096">
        <ele>610</ele>
        <time>2017-10-22T00:18:46Z</time>
      </trkpt>
      <trkpt lat="45.86831" lon="2.82099">
        <ele>609</ele>
        <time>2017-10-22T00:20:46Z</time>
      </trkpt>
      <trkpt lat="45.8684" lon="2.821">
        <ele>609</ele>
        <time>2017-10-22T00:22:46Z</time>
      </trkpt>
      <trkpt lat="45.86864" lon="2.82105">
        <ele>610</ele>
        <time>2017-10-22T00:24:46Z</time>
      </trkpt>
      <trkpt lat="45.8687" lon="2.82107">
        <ele>611</ele>
        <time>2017-10-22T00:26:46Z</time>
      </trkpt>
      <trkpt lat="45.86874" lon="2.82108">
        <ele>611</ele>
        <time>2017-10-22T00:28:46Z</time>
      </trkpt>
      <trkpt lat="45.86879" lon="2.82108">
        <ele>611</ele>
        <time>2017-10-22T00:30:46Z</time>
      </trkpt>
      <trkpt lat="45.86885" lon="2.82108">
        <ele>611</ele>
        <time>2017-10-22T00:32:46Z</time>
      </trkpt>
      <trkpt lat="45.86891" lon="2.82105">
        <ele>611</ele>
        <time>2017-10-22T00:34:46Z</time>
      </trkpt>
      <trkpt lat="45.86894" lon="2.82103">
        <ele>611</ele>
        <time>2017-10-22T00:36:46Z</time>
      </trkpt>
      <trkpt lat="45.869" lon="2.82099">
        <ele>612</ele>
        <time>2017-10-22T00:38:46Z</time>
      </trkpt>
      <trkpt lat="45.86901" lon="2.82098">
        <ele>612</ele>
        <time>2017-10-22T00:40:46Z</time>
      </trkpt>
      <trkpt lat="45.86905" lon="2.82095">
        <ele>612</ele>
        <time>2017-10-22T00:42:46Z</time>
      </trkpt>
      <trkpt lat="45.86906" lon="2.82093">
        <ele>612</ele>
        <time>2017-10-22T00:44:46Z</time>
      </trkpt>
      <trkpt lat="45.86907" lon="2.82092">
        <ele>612</ele>
        <time>2017-10-22T00:46:46Z</time>
      </trkpt>
      <trkpt lat="45.86912" lon="2.8209">
        <ele>612</ele>
        <time>2017-10-22T00:48:46Z</time>
      </trkpt>
      <trkpt lat="45.86921" lon="2.82084">
        <ele>612</ele>
        <time>2017-10-22T00:50:46Z</time>
      </trkpt>
      <trkpt lat="45.86923" lon="2.8208">
        <ele>612</ele>
        <time>2017-10-22T00:52:46Z</time>
      </trkpt>
      <trkpt lat="45.86926" lon="2.82074">
        <ele>612</ele>
        <time>2017-10-22T00:54:46Z</time>
      </trkpt>
      <trkpt lat="45.86927" lon="2.82072">
        <ele>612</ele>
        <time>2017-10-22T00:56:46Z</time>
      </trkpt>
      <trkpt lat="45.86927" lon="2.82065">
        <ele>612</ele>
        <time>2017-10-22T00:58:46Z</time>
      </trkpt>
      <trkpt lat="45.86926" lon="2.82058">
        <ele>613</ele>
        <time>2017-10-22T01:00:46Z</time>
      </trkpt>
      <trkpt lat="45.86925" lon="2.82056">
        <ele>614</ele>
        <time>2017-10-22T01:02:46Z</time>
      </trkpt>
      <trkpt lat="45.86925" lon="2.82054">
        <ele>614</ele>
        <time>2017-10-22T01:04:46Z</time>
      </trkpt>
      <trkpt lat="45.86926" lon="2.8205">
        <ele>614</ele>
        <time>2017-10-22T01:06:46Z</time>
      </trkpt>
      <trkpt lat="45.86925" lon="2.82047">
        <ele>614</ele>
        <time>2017-10-22T01:08:46Z</time>
      </trkpt>
      <trkpt lat="45.86924" lon="2.82043">
        <ele>615</ele>
        <time>2017-10-22T01:10:46Z</time>
      </trkpt>
      <trkpt lat="45.86925" lon="2.82041">
        <ele>615</ele>
        <time>2017-10-22T01:12:46Z</time>
      </trkpt>
      <trkpt lat="45.86932" lon="2.82024">
        <ele>614</ele>
        <time>2017-10-22T01:14:46Z</time>
      </trkpt>
      <trkpt lat="45.86932" lon="2.82017">
        <ele>615</ele>
        <time>2017-10-22T01:16:46Z</time>
      </trkpt>
      <trkpt lat="45.86932" lon="2.8201">
        <ele>615</ele>
        <time>2017-10-22T01:18:46Z</time>
      </trkpt>
      <trkpt lat="45.86931" lon="2.82002">
        <ele>616</ele>
        <time>2017-10-22T01:20:46Z</time>
      </trkpt>
      <trkpt lat="45.86923" lon="2.81971">
        <ele>621</ele>
        <time>2017-10-22T01:22:46Z</time>
      </trkpt>
      <trkpt lat="45.86922" lon="2.81967">
        <ele>621</ele>
        <time>2017-10-22T01:24:46Z</time>
      </trkpt>
      <trkpt lat="45.86922" lon="2.81962">
        <ele>622</ele>
        <time>2017-10-22T01:26:46Z</time>
      </trkpt>
      <trkpt lat="45.86921" lon="2.81942">
        <ele>623</ele>
        <time>2017-10-22T01:28:46Z</time>
      </trkpt>
      <trkpt lat="45.86921" lon="2.81931">
        <ele>624</ele>
        <time>2017-10-22T01:30:46Z</time>
      </trkpt>
      <trkpt lat="45.8692" lon="2.81904">
        <ele>626</ele>
        <time>2017-10-22T01:32:46Z</time>
      </trkpt>
      <trkpt lat="45.86921" lon="2.81899">
        <ele>626</ele>
        <time>2017-10-22T01:34:46Z</time>
      </trkpt>
      <trkpt lat="45.86921" lon="2.81881">
        <ele>628</ele>
        <time>2017-10-22T01:36:46Z</time>
      </trkpt>
      <trkpt lat="45.86923" lon="2.81868">
        <ele>628</ele>
        <time>2017-10-22T01:38:46Z</time>
      </trkpt>
      <trkpt lat="45.86925" lon="2.81855">
        <ele>628</ele>
        <time>2017-10-22T01:40:46Z</time>
      </trkpt>
      <trkpt lat="45.86933" lon="2.81822">
        <ele>627</ele>
        <time>2017-10-22T01:42:46Z</time>
      </trkpt>
      <trkpt lat="45.86934" lon="2.81814">
        <ele>627</ele>
        <time>2017-10-22T01:44:46Z</time>
      </trkpt>
      <trkpt lat="45.86941" lon="2.81783">
        <ele>628</ele>
        <time>2017-10-22T01:46:46Z</time>
      </trkpt>
      <trkpt lat="45.86943" lon="2.81775">
        <ele>628</ele>
        <time>2017-10-22T01:48:46Z</time>
      </trkpt>
      <trkpt lat="45.86944" lon="2.81767">
        <ele>628</ele>
        <time>2017-10-22T01:50:46Z</time>
      </trkpt>
      <trkpt lat="45.86946" lon="2.81759">
        <ele>628</ele>
        <time>2017-10-22T01:52:46Z</time>
      </trkpt>
      <trkpt lat="45.8695" lon="2.81742">
        <ele>628</ele>
        <time>2017-10-22T01:54:46Z</time>
      </trkpt>
      <trkpt lat="45.86954" lon="2.81718">
        <ele>629</ele>
        <time>2017-10-22T01:56:46Z</time>
      </trkpt>
      <trkpt lat="45.86956" lon="2.8171">
        <ele>629</ele>
        <time>2017-10-22T01:58:46Z</time>
      </trkpt>
      <trkpt lat="45.86957" lon="2.81702">
        <ele>630</ele>
        <time>2017-10-22T02:00:46Z</time>
      </trkpt>
      <trkpt lat="45.86959" lon="2.81693">
        <ele>630</ele>
        <time>2017-10-22T02:02:46Z</time>
      </trkpt>
      <trkpt lat="45.86963" lon="2.81668">
        <ele>632</ele>
        <time>2017-10-22T02:04:46Z</time>
      </trkpt>
      <trkpt lat="45.8697" lon="2.81634">
        <ele>633</ele>
        <time>2017-10-22T02:06:46Z</time>
      </trkpt>
      <trkpt lat="45.86972" lon="2.81625">
        <ele>633</ele>
        <time>2017-10-22T02:08:46Z</time>
      </trkpt>
      <trkpt lat="45.86975" lon="2.81616">
        <ele>633</ele>
        <time>2017-10-22T02:10:46Z</time>
      </trkpt>
      <trkpt lat="45.86978" lon="2.81608">
        <ele>633</ele>
        <time>2017-10-22T02:12:46Z</time>
      </trkpt>
      <trkpt lat="45.86982" lon="2.81601">
        <ele>632</ele>
        <time>2017-10-22T02:14:46Z</time>
      </trkpt>
      <trkpt lat="45.86986" lon="2.81595">
        <ele>632</ele>
        <time>2017-10-22T02:16:46Z</time>
      </trkpt>
      <trkpt lat="45.86991" lon="2.8159">
        <ele>631</ele>
        <time>2017-10-22T02:18:46Z</time>
      </trkpt>
      <trkpt lat="45.86996" lon="2.81586">
        <ele>630</ele>
        <time>2017-10-22T02:20:46Z</time>
      </trkpt>
      <trkpt lat="45.87001" lon="2.81583">
        <ele>629</ele>
        <time>2017-10-22T02:22:46Z</time>
      </trkpt>
      <trkpt lat="45.87027" lon="2.8157">
        <ele>630</ele>
        <time>2017-10-22T02:24:46Z</time>
      </trkpt>
      <trkpt lat="45.87043" lon="2.81564">
        <ele>630</ele>
        <time>2017-10-22T02:26:46Z</time>
      </trkpt>
      <trkpt lat="45.87058" lon="2.81558">
        <ele>630</ele>
        <time>2017-10-22T02:28:46Z</time>
      </trkpt>
      <trkpt lat="45.87073" lon="2.81551">
        <ele>630</ele>
        <time>2017-10-22T02:30:46Z</time>
      </trkpt>
      <trkpt lat="45.87088" lon="2.81545">
        <ele>630</ele>
        <time>2017-10-22T02:32:46Z</time>
      </trkpt>
      <trkpt lat="45.87107" lon="2.81538">
        <ele>629</ele>
        <time>2017-10-22T02:34:46Z</time>
      </trkpt>
      <trkpt lat="45.87111" lon="2.81536">
        <ele>630</ele>
        <time>2017-10-22T02:36:46Z</time>
      </trkpt>
      <trkpt lat="45.87124" lon="2.81531">
        <ele>630</ele>
        <time>2017-10-22T02:38:46Z</time>
      </trkpt>
      <trkpt lat="45.87128" lon="2.8153">
        <ele>630</ele>
        <time>2017-10-22T02:40:46Z</time>
      </trkpt>
      <trkpt lat="45.87136" lon="2.81529">
        <ele>629</ele>
        <time>2017-10-22T02:42:46Z</time>
      </trkpt>
      <trkpt lat="45.8714" lon="2.81528">
        <ele>629</ele>
        <time>2017-10-22T02:44:46Z</time>
      </trkpt>
      <trkpt lat="45.87144" lon="2.81527">
        <ele>629</ele>
        <time>2017-10-22T02:46:46Z</time>
      </trkpt>
      <trkpt lat="45.87147" lon="2.81525">
        <ele>629</ele>
        <time>2017-10-22T02:48:46Z</time>
      </trkpt>
      <trkpt lat="45.87153" lon="2.81521">
        <ele>630</ele>
        <time>2017-10-22T02:50:46Z</time>
      </trkpt>
      <trkpt lat="45.87159" lon="2.81519">
        <ele>630</ele>
        <time>2017-10-22T02:52:46Z</time>
      </trkpt>
      <trkpt lat="45.87166" lon="2.81518">
        <ele>629</ele>
        <time>2017-10-22T02:54:46Z</time>
      </trkpt>
      <trkpt lat="45.87172" lon="2.81518">
        <ele>629</ele>
        <time>2017-10-22T02:56:46Z</time>
      </trkpt>
      <trkpt lat="45.87182" lon="2.81518">
        <ele>629</ele>
        <time>2017-10-22T02:58:46Z</time>
      </trkpt>
      <trkpt lat="45.87197" lon="2.8152">
        <ele>629</ele>
        <time>2017-10-22T03:00:46Z</time>
      </trkpt>
      <trkpt lat="45.87203" lon="2.8152">
        <ele>629</ele>
        <time>2017-10-22T03:02:46Z</time>
      </trkpt>
      <trkpt lat="45.87206" lon="2.8152">
        <ele>629</ele>
        <time>2017-10-22T03:04:46Z</time>
      </trkpt>
      <trkpt lat="45.87213" lon="2.81521">
        <ele>629</ele>
        <time>2017-10-22T03:06:46Z</time>
      </trkpt>
      <trkpt lat="45.8723" lon="2.81521">
        <ele>629</ele>
        <time>2017-10-22T03:08:46Z</time>
      </trkpt>
      <trkpt lat="45.87236" lon="2.81522">
        <ele>629</ele>
        <time>2017-10-22T03:10:46Z</time>
      </trkpt>
      <trkpt lat="45.87239" lon="2.81522">
        <ele>629</ele>
        <time>2017-10-22T03:12:46Z</time>
      </trkpt>
      <trkpt lat="45.87242" lon="2.81523">
        <ele>628</ele>
        <time>2017-10-22T03:14:46Z</time>
      </trkpt>
      <trkpt lat="45.87248" lon="2.81523">
        <ele>628</ele>
        <time>2017-10-22T03:16:46Z</time>
      </trkpt>
      <trkpt lat="45.8725" lon="2.81524">
        <ele>628</ele>
        <time>2017-10-22T03:18:46Z</time>
      </trkpt>
      <trkpt lat="45.87256" lon="2.81525">
        <ele>628</ele>
        <time>2017-10-22T03:20:46Z</time>
      </trkpt>
      <trkpt lat="45.87265" lon="2.81526">
        <ele>628</ele>
        <time>2017-10-22T03:22:46Z</time>
      </trkpt>
      <trkpt lat="45.87273" lon="2.81526">
        <ele>629</ele>
        <time>2017-10-22T03:24:46Z</time>
      </trkpt>
      <trkpt lat="45.87277" lon="2.81526">
        <ele>629</ele>
        <time>2017-10-22T03:26:46Z</time>
      </trkpt>
      <trkpt lat="45.87282" lon="2.81527">
        <ele>629</ele>
        <time>2017-10-22T03:28:46Z</time>
      </trkpt>
      <trkpt lat="45.87284" lon="2.81527">
        <ele>629</ele>
        <time>2017-10-22T03:30:46Z</time>
      </trkpt>
      <trkpt lat="45.87293" lon="2.81529">
        <ele>629</ele>
        <time>2017-10-22T03:32:46Z</time>
      </trkpt>
      <trkpt lat="45.87298" lon="2.81531">
        <ele>628</ele>
        <time>2017-10-22T03:34:46Z</time>
      </trkpt>
      <trkpt lat="45.873" lon="2.81532">
        <ele>628</ele>
        <time>2017-10-22T03:36:46Z</time>
      </trkpt>
      <trkpt lat="45.87302" lon="2.81531">
        <ele>629</ele>
        <time>2017-10-22T03:38:46Z</time>
      </trkpt>
      <trkpt lat="45.87306" lon="2.81531">
        <ele>629</ele>
        <time>2017-10-22T03:40:46Z</time>
      </trkpt>
      <trkpt lat="45.8731" lon="2.81533">
        <ele>628</ele>
        <time>2017-10-22T03:42:46Z</time>
      </trkpt>
      <trkpt lat="45.87312" lon="2.81533">
        <ele>629</ele>
        <time>2017-10-22T03:44:46Z</time>
      </trkpt>
      <trkpt lat="45.87314" lon="2.81532">
        <ele>629</ele>
        <time>2017-10-22T03:46:46Z</time>
      </trkpt>
      <trkpt lat="45.87317" lon="2.81531">
        <ele>629</ele>
        <time>2017-10-22T03:48:46Z</time>
      </trkpt>
      <trkpt lat="45.87321" lon="2.81533">
        <ele>629</ele>
        <time>2017-10-22T03:50:46Z</time>
      </trkpt>
      <trkpt lat="45.87326" lon="2.81535">
        <ele>629</ele>
        <time>2017-10-22T03:52:46Z</time>
      </trkpt>
      <trkpt lat="45.87331" lon="2.81536">
        <ele>628</ele>
        <time>2017-10-22T03:54:46Z</time>
      </trkpt>
      <trkpt lat="45.87336" lon="2.81537">
        <ele>628</ele>
        <time>2017-10-22T03:56:46Z</time>
      </trkpt>
      <trkpt lat="45.87338" lon="2.81538">
        <ele>628</ele>
        <time>2017-10-22T03:58:46Z</time>
      </trkpt>
      <trkpt lat="45.87343" lon="2.81539">
        <ele>628</ele>
        <time>2017-10-22T04:00:46Z</time>
      </trkpt>
      <trkpt lat="45.87349" lon="2.81538">
        <ele>629</ele>
        <time>2017-10-22T04:02:46Z</time>
      </trkpt>
      <trkpt lat="45.87351" lon="2.81539">
        <ele>629</ele>
        <time>2017-10-22T04:04:46Z</time>
      </trkpt>
      <trkpt lat="45.87354" lon="2.81539">
        <ele>629</ele>
        <time>2017-10-22T04:06:46Z</time>
      </trkpt>
      <trkpt lat="45.87362" lon="2.81537">
        <ele>630</ele>
        <time>2017-10-22T04:08:46Z</time>
      </trkpt>
      <trkpt lat="45.87364" lon="2.81537">
        <ele>630</ele>
        <time>2017-10-22T04:10:46Z</time>
      </trkpt>
      <trkpt lat="45.87369" lon="2.81539">
        <ele>630</ele>
        <time>2017-10-22T04:12:46Z</time>
      </trkpt>
      <trkpt lat="45.8737" lon="2.81538">
        <ele>630</ele>
        <time>2017-10-22T04:14:46Z</time>
      </trkpt>
      <trkpt lat="45.87372" lon="2.81537">
        <ele>630</ele>
        <time>2017-10-22T04:16:46Z</time>
      </trkpt>
      <trkpt lat="45.87375" lon="2.81537">
        <ele>630</ele>
        <time>2017-10-22T04:18:46Z</time>
      </trkpt>
      <trkpt lat="45.87376" lon="2.81539">
        <ele>630</ele>
        <time>2017-10-22T04:20:46Z</time>
      </trkpt>
      <trkpt lat="45.8738" lon="2.81541">
        <ele>630</ele>
        <time>2017-10-22T04:22:46Z</time>
      </trkpt>
      <trkpt lat="45.87384" lon="2.81543">
        <ele>629</ele>
        <time>2017-10-22T04:24:46Z</time>
      </trkpt>
      <trkpt lat="45.87386" lon="2.81543">
        <ele>630</ele>
        <time>2017-10-22T04:26:46Z</time>
      </trkpt>
      <trkpt lat="45.87393" lon="2.81543">
        <ele>630</ele>
        <time>2017-10-22T04:28:46Z</time>
      </trkpt>
      <trkpt lat="45.874" lon="2.81545">
        <ele>630</ele>
        <time>2017-10-22T04:30:46Z</time>
      </trkpt>
      <trkpt lat="45.87404" lon="2.81547">
        <ele>630</ele>
        <time>2017-10-22T04:32:46Z</time>
      </trkpt>
      <trkpt lat="45.87408" lon="2.81549">
        <ele>629</ele>
        <time>2017-10-22T04:34:46Z</time>
      </trkpt>
      <trkpt lat="45.87417" lon="2.81554">
        <ele>629</ele>
        <time>2017-10-22T04:36:46Z</time>
      </trkpt>
      <trkpt lat="45.87422" lon="2.81556">
        <ele>629</ele>
        <time>2017-10-22T04:38:46Z</time>
      </trkpt>
      <trkpt lat="45.87429" lon="2.81556">
        <ele>629</ele>
        <time>2017-10-22T04:40:46Z</time>
      </trkpt>
      <trkpt lat="45.87431" lon="2.81556">
        <ele>629</ele>
        <time>2017-10-22T04:42:46Z</time>
      </trkpt>
      <trkpt lat="45.87435" lon="2.81555">
        <ele>629</ele>
        <time>2017-10-22T04:44:46Z</time>
      </trkpt>
      <trkpt lat="45.87436" lon="2.81555">
        <ele>629</ele>
        <time>2017-10-22T04:46:46Z</time>
      </trkpt>
      <trkpt lat="45.87437" lon="2.81555">
        <ele>629</ele>
        <time>2017-10-22T04:48:46Z</time>
      </trkpt>
      <trkpt lat="45.87438" lon="2.81554">
        <ele>629</ele>
        <time>2017-10-22T04:50:46Z</time>
      </trkpt>
      <trkpt lat="45.87439" lon="2.81554">
        <ele>629</ele>
        <time>2017-10-22T04:52:46Z</time>
      </trkpt>
      <trkpt lat="45.87446" lon="2.81557">
        <ele>629</ele>
        <time>2017-10-22T04:54:46Z</time>
      </trkpt>
      <trkpt lat="45.87449" lon="2.81557">
        <ele>629</ele>
        <time>2017-10-22T04:56:46Z</time>
      </trkpt>
      <trkpt lat="45.87462" lon="2.81565">
        <ele>628</ele>
        <time>2017-10-22T04:58:46Z</time>
      </trkpt>
      <trkpt lat="45.87468" lon="2.81568">
        <ele>628</ele>
        <time>2017-10-22T05:00:46Z</time>
      </trkpt>
      <trkpt lat="45.87475" lon="2.8157">
        <ele>628</ele>
        <time>2017-10-22T05:02:46Z</time>
      </trkpt>
      <trkpt lat="45.87478" lon="2.8157">
        <ele>629</ele>
        <time>2017-10-22T05:04:46Z</time>
      </trkpt>
      <trkpt lat="45.87481" lon="2.8157">
        <ele>629</ele>
        <time>2017-10-22T05:06:46Z</time>
      </trkpt>
      <trkpt lat="45.87487" lon="2.81567">
        <ele>629</ele>
        <time>2017-10-22T05:08:46Z</time>
      </trkpt>
      <trkpt lat="45.87494" lon="2.81563">
        <ele>630</ele>
        <time>2017-10-22T05:10:46Z</time>
      </trkpt>
      <trkpt lat="45.87503" lon="2.81554">
        <ele>630</ele>
        <time>2017-10-22T05:12:46Z</time>
      </trkpt>
      <trkpt lat="45.87511" lon="2.81549">
        <ele>630</ele>
        <time>2017-10-22T05:14:46Z</time>
      </trkpt>
      <trkpt lat="45.87515" lon="2.81547">
        <ele>630</ele>
        <time>2017-10-22T05:16:46Z</time>
      </trkpt>
      <trkpt lat="45.87519" lon="2.81546">
        <ele>629</ele>
        <time>2017-10-22T05:18:46Z</time>
      </trkpt>
      <trkpt lat="45.87523" lon="2.81545">
        <ele>629</ele>
        <time>2017-10-22T05:20:46Z</time>
      </trkpt>
      <trkpt lat="45.87527" lon="2.81546">
        <ele>629</ele>
        <time>2017-10-22T05:22:46Z</time>
      </trkpt>
      <trkpt lat="45.87536" lon="2.81551">
        <ele>628</ele>
        <time>2017-10-22T05:24:46Z</time>
      </trkpt>
      <trkpt lat="45.87546" lon="2.81558">
        <ele>627</ele>
        <time>2017-10-22T05:26:46Z</time>
      </trkpt>
      <trkpt lat="45.87557" lon="2.81564">
        <ele>627</ele>
        <time>2017-10-22T05:28:46Z</time>
      </trkpt>
      <trkpt lat="45.87563" lon="2.81567">
        <ele>626</ele>
        <time>2017-10-22T05:30:46Z</time>
      </trkpt>
      <trkpt lat="45.87568" lon="2.81568">
        <ele>626</ele>
        <time>2017-10-22T05:32:46Z</time>
      </trkpt>
      <trkpt lat="45.87579" lon="2.8157">
        <ele>626</ele>
        <time>2017-10-22T05:34:46Z</time>
      </trkpt>
      <trkpt lat="45.87584" lon="2.81571">
        <ele>626</ele>
        <time>2017-10-22T05:36:46Z</time>
      </trkpt>
      <trkpt lat="45.8759" lon="2.81572">
        <ele>625</ele>
        <time>2017-10-22T05:38:46Z</time>
      </trkpt>
      <trkpt lat="45.87603" lon="2.81574">
        <ele>624</ele>
        <time>2017-10-22T05:40:46Z</time>
      </trkpt>
      <trkpt lat="45.87615" lon="2.81575">
        <ele>624</ele>
        <time>2017-10-22T05:42:46Z</time>
      </trkpt>
      <trkpt lat="45.8762" lon="2.81576">
        <ele>623</ele>
        <time>2017-10-22T05:44:46Z</time>
      </trkpt>
      <trkpt lat="45.87631" lon="2.81577">
        <ele>623</ele>
        <time>2017-10-22T05:46:46Z</time>
      </trkpt>
      <trkpt lat="45.87637" lon="2.81576">
        <ele>622</ele>
        <time>2017-10-22T05:48:46Z</time>
      </trkpt>
      <trkpt lat="45.87654" lon="2.81575">
        <ele>621</ele>
        <time>2017-10-22T05:50:46Z</time>
      </trkpt>
      <trkpt lat="45.8766" lon="2.81574">
        <ele>621</ele>
        <time>2017-10-22T05:52:46Z</time>
      </trkpt>
      <trkpt lat="45.87666" lon="2.81572">
        <ele>620</ele>
        <time>2017-10-22T05:54:46Z</time>
      </trkpt>
      <trkpt lat="45.87672" lon="2.81569">
        <ele>619</ele>
        <time>2017-10-22T05:56:46Z</time>
      </trkpt>
      <trkpt lat="45.87677" lon="2.81566">
        <ele>619</ele>
        <time>2017-10-22T05:58:46Z</time>
      </trkpt>
      <trkpt lat="45.87681" lon="2.81565">
        <ele>618</ele>
        <time>2017-10-22T06:00:46Z</time>
      </trkpt>
      <trkpt lat="45.87685" lon="2.81564">
        <ele>617</ele>
        <time>2017-10-22T06:02:46Z</time>
      </trkpt>
      <trkpt lat="45.87688" lon="2.81565">
        <ele>617</ele>
        <time>2017-10-22T06:04:46Z</time>
      </trkpt>
      <trkpt lat="45.8769" lon="2.81568">
        <ele>617</ele>
        <time>2017-10-22T06:06:46Z</time>
      </trkpt>
      <trkpt lat="45.87691" lon="2.81568">
        <ele>617</ele>
        <time>2017-10-22T06:08:46Z</time>
      </trkpt>
      <trkpt lat="45.87692" lon="2.81569">
        <ele>617</ele>
        <time>2017-10-22T06:10:46Z</time>
      </trkpt>
      <trkpt lat="45.87692" lon="2.81569">
        <ele>617</ele>
        <time>2017-10-22T06:12:46Z</time>
      </trkpt>
      <trkpt lat="45.87692" lon="2.81569">
        <ele>617</ele>
        <time>2017-10-22T06:14:46Z</time>
      </trkpt>
      <trkpt lat="45.87692" lon="2.8157">
        <ele>617</ele>
        <time>2017-10-22T06:16:46Z</time>
      </trkpt>
      <trkpt lat="45.87694" lon="2.81571">
        <ele>617</ele>
        <time>2017-10-22T06:18:46Z</time>
      </trkpt>
      <trkpt lat="45.87696" lon="2.8157">
        <ele>617</ele>
        <time>2017-10-22T06:20:46Z</time>
      </trkpt>
      <trkpt lat="45.87696" lon="2.81574">
        <ele>617</ele>
        <time>2017-10-22T06:22:46Z</time>
      </trkpt>
      <trkpt lat="45.87694" lon="2.81583">
        <ele>617</ele>
        <time>2017-10-22T06:24:46Z</time>
      </trkpt>
      <trkpt lat="45.87694" lon="2.8159">
        <ele>618</ele>
        <time>2017-10-22T06:26:46Z</time>
      </trkpt>
      <trkpt lat="45.87695" lon="2.816">
        <ele>618</ele>
        <time>2017-10-22T06:28:46Z</time>
      </trkpt>
      <trkpt lat="45.87696" lon="2.81605">
        <ele>618</ele>
        <time>2017-10-22T06:30:46Z</time>
      </trkpt>
      <trkpt lat="45.87696" lon="2.81609">
        <ele>618</ele>
        <time>2017-10-22T06:32:46Z</time>
      </trkpt>
      <trkpt lat="45.87696" lon="2.8162">
        <ele>618</ele>
        <time>2017-10-22T06:34:46Z</time>
      </trkpt>
      <trkpt lat="45.87697" lon="2.81625">
        <ele>618</ele>
        <time>2017-10-22T06:36:46Z</time>
      </trkpt>
      <trkpt lat="45.87699" lon="2.81637">
        <ele>619</ele>
        <time>2017-10-22T06:38:46Z</time>
      </trkpt>
      <trkpt lat="45.87701" lon="2.81643">
        <ele>618</ele>
        <time>2017-10-22T06:40:46Z</time>
      </trkpt>
      <trkpt lat="45.87703" lon="2.81649">
        <ele>618</ele>
        <time>2017-10-22T06:42:46Z</time>
      </trkpt>
      <trkpt lat="45.87706" lon="2.81653">
        <ele>618</ele>
        <time>2017-10-22T06:44:46Z</time>
      </trkpt>
      <trkpt lat="45.8771" lon="2.81657">
        <ele>617</ele>
        <time>2017-10-22T06:46:46Z</time>
      </trkpt>
      <trkpt lat="45.87715" lon="2.8166">
        <ele>617</ele>
        <time>2017-10-22T06:48:46Z</time>
      </trkpt>
      <trkpt lat="45.8772" lon="2.81662">
        <ele>616</ele>
        <time>2017-10-22T06:50:46Z</time>
      </trkpt>
      <trkpt lat="45.87724" lon="2.81662">
        <ele>615</ele>
        <time>2017-10-22T06:52:46Z</time>
      </trkpt>
      <trkpt lat="45.87728" lon="2.81661">
        <ele>615</ele>
        <time>2017-10-22T06:54:46Z</time>
      </trkpt>
      <trkpt lat="45.87731" lon="2.8166">
        <ele>614</ele>
        <time>2017-10-22T06:56:46Z</time>
      </trkpt>
      <trkpt lat="45.87733" lon="2.8166">
        <ele>614</ele>
        <time>2017-10-22T06:58:46Z</time>
      </trkpt>
      <trkpt lat="45.87736" lon="2.81657">
        <ele>613</ele>
        <time>2017-10-22T07:00:46Z</time>
      </trkpt>
      <trkpt lat="45.87738" lon="2.81655">
        <ele>613</ele>
        <time>2017-10-22T07:02:46Z</time>
      </trkpt>
      <trkpt lat="45.87743" lon="2.81648">
        <ele>612</ele>
        <time>2017-10-22T07:04:46Z</time>
      </trkpt>
      <trkpt lat="45.87746" lon="2.81644">
        <ele>611</ele>
        <time>2017-10-22T07:06:46Z</time>
      </trkpt>
      <trkpt lat="45.8775" lon="2.8164">
        <ele>611</ele>
        <time>2017-10-22T07:08:46Z</time>
      </trkpt>
      <trkpt lat="45.87754" lon="2.81635">
        <ele>610</ele>
        <time>2017-10-22T07:10:46Z</time>
      </trkpt>
      <trkpt lat="45.87759" lon="2.81631">
        <ele>608</ele>
        <time>2017-10-22T07:12:46Z</time>
      </trkpt>
      <trkpt lat="45.87768" lon="2.81619">
        <ele>606</ele>
        <time>2017-10-22T07:14:46Z</time>
      </trkpt>
      <trkpt lat="45.87776" lon="2.81606">
        <ele>603</ele>
        <time>2017-10-22T07:16:46Z</time>
      </trkpt>
      <trkpt lat="45.87787" lon="2.81585">
        <ele>600</ele>
        <time>2017-10-22T07:18:46Z</time>
      </trkpt>
      <trkpt lat="45.87791" lon="2.81579">
        <ele>599</ele>
        <time>2017-10-22T07:20:46Z</time>
      </trkpt>
      <trkpt lat="45.87798" lon="2.81568">
        <ele>598</ele>
        <time>2017-10-22T07:22:46Z</time>
      </trkpt>
      <trkpt lat="45.87805" lon="2.81557">
        <ele>596</ele>
        <time>2017-10-22T07:24:46Z</time>
      </trkpt>
      <trkpt lat="45.87808" lon="2.81552">
        <ele>595</ele>
        <time>2017-10-22T07:26:46Z</time>
      </trkpt>
      <trkpt lat="45.87816" lon="2.81543">
        <ele>593</ele>
        <time>2017-10-22T07:28:46Z</time>
      </trkpt>
      <trkpt lat="45.8782" lon="2.81538">
        <ele>592</ele>
        <time>2017-10-22T07:30:46Z</time>
      </trkpt>
      <trkpt lat="45.87828" lon="2.81529">
        <ele>591</ele>
        <time>2017-10-22T07:32:46Z</time>
      </trkpt>
      <trkpt lat="45.87833" lon="2.81527">
        <ele>589</ele>
        <time>2017-10-22T07:34:46Z</time>
      </trkpt>
      <trkpt lat="45.87837" lon="2.81525">
        <ele>588</ele>
        <time>2017-10-22T07:36:46Z</time>
      </trkpt>
      <trkpt lat="45.87847" lon="2.81525">
        <ele>585</ele>
        <time>2017-10-22T07:38:46Z</time>
      </trkpt>
      <trkpt lat="45.87852" lon="2.81524">
        <ele>584</ele>
        <time>2017-10-22T07:40:46Z</time>
      </trkpt>
      <trkpt lat="45.87856" lon="2.81522">
        <ele>583</ele>
        <time>2017-10-22T07:42:46Z</time>
      </trkpt>
      <trkpt lat="45.87859" lon="2.81519">
        <ele>582</ele>
        <time>2017-10-22T07:44:46Z</time>
      </trkpt>
      <trkpt lat="45.87862" lon="2.81515">
        <ele>581</ele>
        <time>2017-10-22T07:46:46Z</time>
      </trkpt>
      <trkpt lat="45.87865" lon="2.81509">
        <ele>580</ele>
        <time>2017-10-22T07:48:46Z</time>
      </trkpt>
      <trkpt lat="45.87867" lon="2.81503">
        <ele>580</ele>
        <time>2017-10-22T07:50:46Z</time>
      </trkpt>
      <trkpt lat="45.87868" lon="2.81496">
        <ele>580</ele>
        <time>2017-10-22T07:52:46Z</time>
      </trkpt>
      <trkpt lat="45.87872" lon="2.8148">
        <ele>578</ele>
        <time>2017-10-22T07:54:46Z</time>
      </trkpt>
      <trkpt lat="45.87877" lon="2.81464">
        <ele>576</ele>
        <time>2017-10-22T07:56:46Z</time>
      </trkpt>
      <trkpt lat="45.87878" lon="2.81457">
        <ele>575</ele>
        <time>2017-10-22T07:58:46Z</time>
      </trkpt>
      <trkpt lat="45.87879" lon="2.81451">
        <ele>575</ele>
        <time>2017-10-22T08:00:46Z</time>
      </trkpt>
      <trkpt lat="45.8788" lon="2.81446">
        <ele>575</ele>
        <time>2017-10-22T08:02:46Z</time>
      </trkpt>
      <trkpt lat="45.87878" lon="2.81424">
        <ele>575</ele>
        <time>2017-10-22T08:04:46Z</time>
      </trkpt>
      <trkpt lat="45.87876" lon="2.81409">
        <ele>575</ele>
        <time>2017-10-22T08:06:46Z</time>
      </trkpt>
      <trkpt lat="45.87873" lon="2.8139">
        <ele>575</ele>
        <time>2017-10-22T08:08:46Z</time>
      </trkpt>
      <trkpt lat="45.87873" lon="2.8138">
        <ele>575</ele>
        <time>2017-10-22T08:10:46Z</time>
      </trkpt>
      <trkpt lat="45.87874" lon="2.81374">
        <ele>574</ele>
        <time>2017-10-22T08:12:46Z</time>
      </trkpt>
      <trkpt lat="45.87874" lon="2.81365">
        <ele>574</ele>
        <time>2017-10-22T08:14:46Z</time>
      </trkpt>
      <trkpt lat="45.87874" lon="2.8136">
        <ele>574</ele>
        <time>2017-10-22T08:16:46Z</time>
      </trkpt>
      <trkpt lat="45.87872" lon="2.81349">
        <ele>574</ele>
        <time>2017-10-22T08:18:46Z</time>
      </trkpt>
      <trkpt lat="45.8787" lon="2.81332">
        <ele>574</ele>
        <time>2017-10-22T08:20:46Z</time>
      </trkpt>
      <trkpt lat="45.8787" lon="2.81326">
        <ele>574</ele>
        <time>2017-10-22T08:22:46Z</time>
      </trkpt>
      <trkpt lat="45.8787" lon="2.81321">
        <ele>574</ele>
        <time>2017-10-22T08:24:46Z</time>
      </trkpt>
      <trkpt lat="45.87872" lon="2.81288">
        <ele>572</ele>
        <time>2017-10-22T08:26:46Z</time>
      </trkpt>
      <trkpt lat="45.87873" lon="2.81273">
        <ele>572</ele>
        <time>2017-10-22T08:28:46Z</time>
      </trkpt>
      <trkpt lat="45.87873" lon="2.81256">
        <ele>572</ele>
        <time>2017-10-22T08:30:46Z</time>
      </trkpt>
      <trkpt lat="45.87876" lon="2.81217">
        <ele>573</ele>
        <time>2017-10-22T08:32:46Z</time>
      </trkpt>
      <trkpt lat="45.87876" lon="2.81201">
        <ele>574</ele>
        <time>2017-10-22T08:34:46Z</time>
      </trkpt>
      <trkpt lat="45.87876" lon="2.81168">
        <ele>576</ele>
        <time>2017-10-22T08:36:46Z</time>
      </trkpt>
      <trkpt lat="45.87876" lon="2.8116">
        <ele>576</ele>
        <time>2017-10-22T08:38:46Z</time>
      </trkpt>
      <trkpt lat="45.87873" lon="2.81127">
        <ele>575</ele>
        <time>2017-10-22T08:40:46Z</time>
      </trkpt>
      <trkpt lat="45.87872" lon="2.81119">
        <ele>575</ele>
        <time>2017-10-22T08:42:46Z</time>
      </trkpt>
      <trkpt lat="45.8786" lon="2.81043">
        <ele>578</ele>
        <time>2017-10-22T08:44:46Z</time>
      </trkpt>
      <trkpt lat="45.87858" lon="2.81026">
        <ele>579</ele>
        <time>2017-10-22T08:46:46Z</time>
      </trkpt>
      <trkpt lat="45.87857" lon="2.81008">
        <ele>580</ele>
        <time>2017-10-22T08:48:46Z</time>
      </trkpt>
      <trkpt lat="45.87857" lon="2.81">
        <ele>580</ele>
        <time>2017-10-22T08:50:46Z</time>
      </trkpt>
      <trkpt lat="45.87858" lon="2.80991">
        <ele>581</ele>
        <time>2017-10-22T08:52:46Z</time>
      </trkpt>
      <trkpt lat="45.87859" lon="2.80983">
        <ele>582</ele>
        <time>2017-10-22T08:54:46Z</time>
      </trkpt>
      <trkpt lat="45.87861" lon="2.80975">
        <ele>582</ele>
        <time>2017-10-22T08:56:46Z</time>
      </trkpt>
      <trkpt lat="45.87866" lon="2.80959">
        <ele>583</ele>
        <time>2017-10-22T08:58:46Z</time>
      </trkpt>
      <trkpt lat="45.87868" lon="2.80952">
        <ele>583</ele>
        <time>2017-10-22T09:00:46Z</time>
      </trkpt>
      <trkpt lat="45.87871" lon="2.80945">
        <ele>583</ele>
        <time>2017-10-22T09:02:46Z</time>
      </trkpt>
      <trkpt lat="45.87875" lon="2.80938">
        <ele>582</ele>
        <time>2017-10-22T09:04:46Z</time>
      </trkpt>
      <trkpt lat="45.87886" lon="2.80919">
        <ele>581</ele>
        <time>2017-10-22T09:06:46Z</time>
      </trkpt>
      <trkpt lat="45.8789" lon="2.80913">
        <ele>580</ele>
        <time>2017-10-22T09:08:46Z</time>
      </trkpt>
      <trkpt lat="45.87902" lon="2.80896">
        <ele>579</ele>
        <time>2017-10-22T09:10:46Z</time>
      </trkpt>
      <trkpt lat="45.87905" lon="2.8089">
        <ele>579</ele>
        <time>2017-10-22T09:12:46Z</time>
      </trkpt>
      <trkpt lat="45.8791" lon="2.80885">
        <ele>579</ele>
        <time>2017-10-22T09:14:46Z</time>
      </trkpt>
      <trkpt lat="45.87914" lon="2.8088">
        <ele>578</ele>
        <time>2017-10-22T09:16:46Z</time>
      </trkpt>
      <trkpt lat="45.87919" lon="2.80876">
        <ele>578</ele>
        <time>2017-10-22T09:18:46Z</time>
      </trkpt>
      <trkpt lat="45.87924" lon="2.80874">
        <ele>577</ele>
        <time>2017-10-22T09:20:46Z</time>
      </trkpt>
      <trkpt lat="45.87929" lon="2.80872">
        <ele>577</ele>
        <time>2017-10-22T09:22:46Z</time>
      </trkpt>
      <trkpt lat="45.87935" lon="2.8087">
        <ele>576</ele>
        <time>2017-10-22T09:24:46Z</time>
      </trkpt>
      <trkpt lat="45.8794" lon="2.8087">
        <ele>575</ele>
        <time>2017-10-22T09:26:46Z</time>
      </trkpt>
      <trkpt lat="45.87945" lon="2.80872">
        <ele>574</ele>
        <time>2017-10-22T09:28:46Z</time>
      </trkpt>
      <trkpt lat="45.8795" lon="2.80874">
        <ele>572</ele>
        <time>2017-10-22T09:30:46Z</time>
      </trkpt>
      <trkpt lat="45.87954" lon="2.80877">
        <ele>571</ele>
        <time>2017-10-22T09:32:46Z</time>
      </trkpt>
      <trkpt lat="45.87958" lon="2.80881">
        <ele>570</ele>
        <time>2017-10-22T09:34:46Z</time>
      </trkpt>
      <trkpt lat="45.87961" lon="2.80884">
        <ele>569</ele>
        <time>2017-10-22T09:36:46Z</time>
      </trkpt>
      <trkpt lat="45.87966" lon="2.80891">
        <ele>567</ele>
        <time>2017-10-22T09:38:46Z</time>
      </trkpt>
      <trkpt lat="45.87968" lon="2.80893">
        <ele>566</ele>
        <time>2017-10-22T09:40:46Z</time>
      </trkpt>
      <trkpt lat="45.87971" lon="2.80897">
        <ele>565</ele>
        <time>2017-10-22T09:42:46Z</time>
      </trkpt>
      <trkpt lat="45.87971" lon="2.80898">
        <ele>565</ele>
        <time>2017-10-22T09:44:46Z</time>
      </trkpt>
      <trkpt lat="45.87972" lon="2.809">
        <ele>564</ele>
        <time>2017-10-22T09:46:46Z</time>
      </trkpt>
      <trkpt lat="45.87973" lon="2.80905">
        <ele>564</ele>
        <time>2017-10-22T09:48:46Z</time>
      </trkpt>
      <trkpt lat="45.87975" lon="2.80909">
        <ele>563</ele>
        <time>2017-10-22T09:50:46Z</time>
      </trkpt>
      <trkpt lat="45.87978" lon="2.80915">
        <ele>562</ele>
        <time>2017-10-22T09:52:46Z</time>
      </trkpt>
      <trkpt lat="45.87981" lon="2.80921">
        <ele>561</ele>
        <time>2017-10-22T09:54:46Z</time>
      </trkpt>
      <trkpt lat="45.87982" lon="2.80924">
        <ele>561</ele>
        <time>2017-10-22T09:56:46Z</time>
      </trkpt>
      <trkpt lat="45.87985" lon="2.80932">
        <ele>561</ele>
        <time>2017-10-22T09:58:46Z</time>
      </trkpt>
      <trkpt lat="45.87987" lon="2.80941">
        <ele>562</ele>
        <time>2017-10-22T10:00:46Z</time>
      </trkpt>
      <trkpt lat="45.8799" lon="2.8095">
        <ele>562</ele>
        <time>2017-10-22T10:02:46Z</time>
      </trkpt>
      <trkpt lat="45.87991" lon="2.80954">
        <ele>563</ele>
        <time>2017-10-22T10:04:46Z</time>
      </trkpt>
      <trkpt lat="45.87992" lon="2.80964">
        <ele>563</ele>
        <time>2017-10-22T10:06:46Z</time>
      </trkpt>
      <trkpt lat="45.87992" lon="2.80974">
        <ele>564</ele>
        <time>2017-10-22T10:08:46Z</time>
      </trkpt>
      <trkpt lat="45.8799" lon="2.80983">
        <ele>565</ele>
        <time>2017-10-22T10:10:46Z</time>
      </trkpt>
      <trkpt lat="45.87986" lon="2.80996">
        <ele>565</ele>
        <time>2017-10-22T10:12:46Z</time>
      </trkpt>
      <trkpt lat="45.87982" lon="2.81006">
        <ele>566</ele>
        <time>2017-10-22T10:14:46Z</time>
      </trkpt>
      <trkpt lat="45.87978" lon="2.81015">
        <ele>566</ele>
        <time>2017-10-22T10:16:46Z</time>
      </trkpt>
      <trkpt lat="45.87971" lon="2.81028">
        <ele>567</ele>
        <time>2017-10-22T10:18:46Z</time>
      </trkpt>
      <trkpt lat="45.87955" lon="2.81061">
        <ele>567</ele>
        <time>2017-10-22T10:20:46Z</time>
      </trkpt>
      <trkpt lat="45.8795" lon="2.81071">
        <ele>567</ele>
        <time>2017-10-22T10:22:46Z</time>
      </trkpt>
      <trkpt lat="45.87948" lon="2.81076">
        <ele>567</ele>
        <time>2017-10-22T10:24:46Z</time>
      </trkpt>
      <trkpt lat="45.87945" lon="2.81087">
        <ele>567</ele>
        <time>2017-10-22T10:26:46Z</time>
      </trkpt>
      <trkpt lat="45.87944" lon="2.81092">
        <ele>567</ele>
        <time>2017-10-22T10:28:46Z</time>
      </trkpt>
      <trkpt lat="45.87942" lon="2.81102">
        <ele>567</ele>
        <time>2017-10-22T10:30:46Z</time>
      </trkpt>
      <trkpt lat="45.87942" lon="2.81106">
        <ele>568</ele>
        <time>2017-10-22T10:32:46Z</time>
      </trkpt>
      <trkpt lat="45.87942" lon="2.81111">
        <ele>568</ele>
        <time>2017-10-22T10:34:46Z</time>
      </trkpt>
      <trkpt lat="45.8794" lon="2.81131">
        <ele>569</ele>
        <time>2017-10-22T10:36:46Z</time>
      </trkpt>
      <trkpt lat="45.87939" lon="2.81142">
        <ele>569</ele>
        <time>2017-10-22T10:38:46Z</time>
      </trkpt>
      <trkpt lat="45.8794" lon="2.81153">
        <ele>570</ele>
        <time>2017-10-22T10:40:46Z</time>
      </trkpt>
      <trkpt lat="45.8794" lon="2.81158">
        <ele>570</ele>
        <time>2017-10-22T10:42:46Z</time>
      </trkpt>
      <trkpt lat="45.87941" lon="2.81163">
        <ele>571</ele>
        <time>2017-10-22T10:44:46Z</time>
      </trkpt>
      <trkpt lat="45.87944" lon="2.81179">
        <ele>571</ele>
        <time>2017-10-22T10:46:46Z</time>
      </trkpt>
      <trkpt lat="45.87946" lon="2.81188">
        <ele>571</ele>
        <time>2017-10-22T10:48:46Z</time>
      </trkpt>
      <trkpt lat="45.87948" lon="2.81192">
        <ele>572</ele>
        <time>2017-10-22T10:50:46Z</time>
      </trkpt>
      <trkpt lat="45.87953" lon="2.81205">
        <ele>572</ele>
        <time>2017-10-22T10:52:46Z</time>
      </trkpt>
      <trkpt lat="45.87954" lon="2.81209">
        <ele>572</ele>
        <time>2017-10-22T10:54:46Z</time>
      </trkpt>
      <trkpt lat="45.87957" lon="2.81212">
        <ele>573</ele>
        <time>2017-10-22T10:56:46Z</time>
      </trkpt>
      <trkpt lat="45.87959" lon="2.81215">
        <ele>573</ele>
        <time>2017-10-22T10:58:46Z</time>
      </trkpt>
      <trkpt lat="45.87962" lon="2.81222">
        <ele>574</ele>
        <time>2017-10-22T11:00:46Z</time>
      </trkpt>
      <trkpt lat="45.87963" lon="2.81225">
        <ele>574</ele>
        <time>2017-10-22T11:02:46Z</time>
      </trkpt>
      <trkpt lat="45.87968" lon="2.81234">
        <ele>575</ele>
        <time>2017-10-22T11:04:46Z</time>
      </trkpt>
      <trkpt lat="45.8797" lon="2.81238">
        <ele>575</ele>
        <time>2017-10-22T11:06:46Z</time>
      </trkpt>
      <trkpt lat="45.87973" lon="2.81246">
        <ele>575</ele>
        <time>2017-10-22T11:08:46Z</time>
      </trkpt>
      <trkpt lat="45.87977" lon="2.81254">
        <ele>575</ele>
        <time>2017-10-22T11:10:46Z</time>
      </trkpt>
      <trkpt lat="45.87979" lon="2.81258">
        <ele>575</ele>
        <time>2017-10-22T11:12:46Z</time>
      </trkpt>
      <trkpt lat="45.87981" lon="2.81262">
        <ele>575</ele>
        <time>2017-10-22T11:14:46Z</time>
      </trkpt>
      <trkpt lat="45.87988" lon="2.81275">
        <ele>575</ele>
        <time>2017-10-22T11:16:46Z</time>
      </trkpt>
      <trkpt lat="45.87991" lon="2.81278">
        <ele>575</ele>
        <time>2017-10-22T11:18:46Z</time>
      </trkpt>
      <trkpt lat="45.87996" lon="2.81287">
        <ele>574</ele>
        <time>2017-10-22T11:20:46Z</time>
      </trkpt>
      <trkpt lat="45.88008" lon="2.81309">
        <ele>572</ele>
        <time>2017-10-22T11:22:46Z</time>
      </trkpt>
      <trkpt lat="45.88013" lon="2.81318">
        <ele>571</ele>
        <time>2017-10-22T11:24:46Z</time>
      </trkpt>
      <trkpt lat="45.88019" lon="2.81333">
        <ele>570</ele>
        <time>2017-10-22T11:26:46Z</time>
      </trkpt>
      <trkpt lat="45.88027" lon="2.81351">
        <ele>570</ele>
        <time>2017-10-22T11:28:46Z</time>
      </trkpt>
      <trkpt lat="45.88031" lon="2.8136">
        <ele>570</ele>
        <time>2017-10-22T11:30:46Z</time>
      </trkpt>
      <trkpt lat="45.88032" lon="2.81364">
        <ele>570</ele>
        <time>2017-10-22T11:32:46Z</time>
      </trkpt>
      <trkpt lat="45.88039" lon="2.81386">
        <ele>570</ele>
        <time>2017-10-22T11:34:46Z</time>
      </trkpt>
      <trkpt lat="45.88043" lon="2.81403">
        <ele>570</ele>
        <time>2017-10-22T11:36:46Z</time>
      </trkpt>
      <trkpt lat="45.88044" lon="2.81411">
        <ele>570</ele>
        <time>2017-10-22T11:38:46Z</time>
      </trkpt>
      <trkpt lat="45.88045" lon="2.81418">
        <ele>570</ele>
        <time>2017-10-22T11:40:46Z</time>
      </trkpt>
      <trkpt lat="45.88046" lon="2.81425">
        <ele>571</ele>
        <time>2017-10-22T11:42:46Z</time>
      </trkpt>
      <trkpt lat="45.88047" lon="2.81432">
        <ele>571</ele>
        <time>2017-10-22T11:44:46Z</time>
      </trkpt>
      <trkpt lat="45.88048" lon="2.81447">
        <ele>571</ele>
        <time>2017-10-22T11:46:46Z</time>
      </trkpt>
      <trkpt lat="45.88048" lon="2.81451">
        <ele>571</ele>
        <time>2017-10-22T11:48:46Z</time>
      </trkpt>
      <trkpt lat="45.88049" lon="2.81458">
        <ele>571</ele>
        <time>2017-10-22T11:50:46Z</time>
      </trkpt>
      <trkpt lat="45.88049" lon="2.81472">
        <ele>571</ele>
        <time>2017-10-22T11:52:46Z</time>
      </trkpt>
      <trkpt lat="45.8805" lon="2.81492">
        <ele>572</ele>
        <time>2017-10-22T11:54:46Z</time>
      </trkpt>
      <trkpt lat="45.8805" lon="2.81499">
        <ele>572</ele>
        <time>2017-10-22T11:56:46Z</time>
      </trkpt>
      <trkpt lat="45.8805" lon="2.81502">
        <ele>572</ele>
        <time>2017-10-22T11:58:46Z</time>
      </trkpt>
      <trkpt lat="45.8805" lon="2.81506">
        <ele>572</ele>
        <time>2017-10-22T12:00:46Z</time>
      </trkpt>
      <trkpt lat="45.8805" lon="2.81513">
        <ele>573</ele>
        <time>2017-10-22T12:02:46Z</time>
      </trkpt>
      <trkpt lat="45.8805" lon="2.8152">
        <ele>574</ele>
        <time>2017-10-22T12:04:46Z</time>
      </trkpt>
      <trkpt lat="45.8805" lon="2.8153">
        <ele>574</ele>
        <time>2017-10-22T12:06:46Z</time>
      </trkpt>
      <trkpt lat="45.88049" lon="2.81533">
        <ele>574</ele>
        <time>2017-10-22T12:08:46Z</time>
      </trkpt>
      <trkpt lat="45.88049" lon="2.81539">
        <ele>575</ele>
        <time>2017-10-22T12:10:46Z</time>
      </trkpt>
      <trkpt lat="45.88049" lon="2.81545">
        <ele>575</ele>
        <time>2017-10-22T12:12:46Z</time>
      </trkpt>
      <trkpt lat="45.88048" lon="2.81551">
        <ele>576</ele>
        <time>2017-10-22T12:14:46Z</time>
      </trkpt>
      <trkpt lat="45.88048" lon="2.81563">
        <ele>577</ele>
        <time>2017-10-22T12:16:46Z</time>
      </trkpt>
      <trkpt lat="45.88047" lon="2.81569">
        <ele>577</ele>
        <time>2017-10-22T12:18:46Z</time>
      </trkpt>
      <trkpt lat="45.88047" lon="2.81578">
        <ele>578</ele>
        <time>2017-10-22T12:20:46Z</time>
      </trkpt>
      <trkpt lat="45.88046" lon="2.81587">
        <ele>578</ele>
        <time>2017-10-22T12:22:46Z</time>
      </trkpt>
      <trkpt lat="45.88046" lon="2.816">
        <ele>580</ele>
        <time>2017-10-22T12:24:46Z</time>
      </trkpt>
      <trkpt lat="45.88046" lon="2.81603">
        <ele>581</ele>
        <time>2017-10-22T12:26:46Z</time>
      </trkpt>
      <trkpt lat="45.88046" lon="2.81611">
        <ele>582</ele>
        <time>2017-10-22T12:28:46Z</time>
      </trkpt>
      <trkpt lat="45.88045" lon="2.81616">
        <ele>583</ele>
        <time>2017-10-22T12:30:46Z</time>
      </trkpt>
      <trkpt lat="45.88045" lon="2.81619">
        <ele>583</ele>
        <time>2017-10-22T12:32:46Z</time>
      </trkpt>
      <trkpt lat="45.88045" lon="2.8163">
        <ele>585</ele>
        <time>2017-10-22T12:34:46Z</time>
      </trkpt>
      <trkpt lat="45.88044" lon="2.81632">
        <ele>585</ele>
        <time>2017-10-22T12:36:46Z</time>
      </trkpt>
      <trkpt lat="45.88044" lon="2.81635">
        <ele>585</ele>
        <time>2017-10-22T12:38:46Z</time>
      </trkpt>
      <trkpt lat="45.88044" lon="2.81638">
        <ele>586</ele>
        <time>2017-10-22T12:40:46Z</time>
      </trkpt>
      <trkpt lat="45.88044" lon="2.8164">
        <ele>586</ele>
        <time>2017-10-22T12:42:46Z</time>
      </trkpt>
      <trkpt lat="45.88044" lon="2.81643">
        <ele>586</ele>
        <time>2017-10-22T12:44:46Z</time>
      </trkpt>
      <trkpt lat="45.88044" lon="2.81648">
        <ele>587</ele>
        <time>2017-10-22T12:46:46Z</time>
      </trkpt>
      <trkpt lat="45.8804" lon="2.81649">
        <ele>586</ele>
        <time>2017-10-22T12:48:46Z</time>
      </trkpt>
      <trkpt lat="45.88039" lon="2.81648">
        <ele>585</ele>
        <time>2017-10-22T12:50:46Z</time>
      </trkpt>
      <trkpt lat="45.88039" lon="2.81649">
        <ele>585</ele>
        <time>2017-10-22T12:52:46Z</time>
      </trkpt>
      <trkpt lat="45.88037" lon="2.81652">
        <ele>585</ele>
        <time>2017-10-22T12:54:46Z</time>
      </trkpt>
      <trkpt lat="45.88037" lon="2.81653">
        <ele>585</ele>
        <time>2017-10-22T12:56:46Z</time>
      </trkpt>
      <trkpt lat="45.88037" lon="2.81653">
        <ele>585</ele>
        <time>2017-10-22T12:58:46Z</time>
      </trkpt>
      <trkpt lat="45.88036" lon="2.81659">
        <ele>585</ele>
        <time>2017-10-22T13:00:46Z</time>
      </trkpt>
      <trkpt lat="45.88034" lon="2.81665">
        <ele>585</ele>
        <time>2017-10-22T13:02:46Z</time>
      </trkpt>
      <trkpt lat="45.88032" lon="2.81672">
        <ele>585</ele>
        <time>2017-10-22T13:04:46Z</time>
      </trkpt>
      <trkpt lat="45.88032" lon="2.81675">
        <ele>586</ele>
        <time>2017-10-22T13:06:46Z</time>
      </trkpt>
      <trkpt lat="45.88029" lon="2.81684">
        <ele>586</ele>
        <time>2017-10-22T13:08:46Z</time>
      </trkpt>
      <trkpt lat="45.88028" lon="2.81691">
        <ele>586</ele>
        <time>2017-10-22T13:10:46Z</time>
      </trkpt>
      <trkpt lat="45.88026" lon="2.81694">
        <ele>586</ele>
        <time>2017-10-22T13:12:46Z</time>
      </trkpt>
      <trkpt lat="45.88021" lon="2.81706">
        <ele>585</ele>
        <time>2017-10-22T13:14:46Z</time>
      </trkpt>
      <trkpt lat="45.8802" lon="2.8171">
        <ele>585</ele>
        <time>2017-10-22T13:16:46Z</time>
      </trkpt>
      <trkpt lat="45.88012" lon="2.81727">
        <ele>584</ele>
        <time>2017-10-22T13:18:46Z</time>
      </trkpt>
      <trkpt lat="45.88011" lon="2.8173">
        <ele>583</ele>
        <time>2017-10-22T13:20:46Z</time>
      </trkpt>
      <trkpt lat="45.88009" lon="2.81733">
        <ele>583</ele>
        <time>2017-10-22T13:22:46Z</time>
      </trkpt>
      <trkpt lat="45.88007" lon="2.81737">
        <ele>583</ele>
        <time>2017-10-22T13:24:46Z</time>
      </trkpt>
      <trkpt lat="45.87994" lon="2.81763">
        <ele>582</ele>
        <time>2017-10-22T13:26:46Z</time>
      </trkpt>
      <trkpt lat="45.8799" lon="2.81772">
        <ele>582</ele>
        <time>2017-10-22T13:28:46Z</time>
      </trkpt>
      <trkpt lat="45.87985" lon="2.81781">
        <ele>583</ele>
        <time>2017-10-22T13:30:46Z</time>
      </trkpt>
      <trkpt lat="45.87981" lon="2.8179">
        <ele>583</ele>
        <time>2017-10-22T13:32:46Z</time>
      </trkpt>
      <trkpt lat="45.87977" lon="2.81798">
        <ele>583</ele>
        <time>2017-10-22T13:34:46Z</time>
      </trkpt>
      <trkpt lat="45.87975" lon="2.81802">
        <ele>583</ele>
        <time>2017-10-22T13:36:46Z</time>
      </trkpt>
      <trkpt lat="45.8797" lon="2.81815">
        <ele>584</ele>
        <time>2017-10-22T13:38:46Z</time>
      </trkpt>
      <trkpt lat="45.87967" lon="2.81824">
        <ele>584</ele>
        <time>2017-10-22T13:40:46Z</time>
      </trkpt>
      <trkpt lat="45.87963" lon="2.81833">
        <ele>584</ele>
        <time>2017-10-22T13:42:46Z</time>
      </trkpt>
      <trkpt lat="45.87953" lon="2.81851">
        <ele>584</ele>
        <time>2017-10-22T13:44:46Z</time>
      </trkpt>
      <trkpt lat="45.87952" lon="2.81854">
        <ele>584</ele>
        <time>2017-10-22T13:46:46Z</time>
      </trkpt>
      <trkpt lat="45.87951" lon="2.81858">
        <ele>584</ele>
        <time>2017-10-22T13:48:46Z</time>
      </trkpt>
      <trkpt lat="45.87949" lon="2.81861">
        <ele>584</ele>
        <time>2017-10-22T13:50:46Z</time>
      </trkpt>
      <trkpt lat="45.87945" lon="2.81867">
        <ele>583</ele>
        <time>2017-10-22T13:52:46Z</time>
      </trkpt>
      <trkpt lat="45.87941" lon="2.81873">
        <ele>583</ele>
        <time>2017-10-22T13:54:46Z</time>
      </trkpt>
      <trkpt lat="45.87939" lon="2.81876">
        <ele>582</ele>
        <time>2017-10-22T13:56:46Z</time>
      </trkpt>
      <trkpt lat="45.87934" lon="2.81884">
        <ele>581</ele>
        <time>2017-10-22T13:58:46Z</time>
      </trkpt>
      <trkpt lat="45.8793" lon="2.81892">
        <ele>580</ele>
        <time>2017-10-22T14:00:46Z</time>
      </trkpt>
      <trkpt lat="45.87924" lon="2.81909">
        <ele>579</ele>
        <time>2017-10-22T14:02:46Z</time>
      </trkpt>
      <trkpt lat="45.87922" lon="2.81917">
        <ele>579</ele>
        <time>2017-10-22T14:04:46Z</time>
      </trkpt>
      <trkpt lat="45.87919" lon="2.81924">
        <ele>579</ele>
        <time>2017-10-22T14:06:46Z</time>
      </trkpt>
      <trkpt lat="45.87917" lon="2.8193">
        <ele>579</ele>
        <time>2017-10-22T14:08:46Z</time>
      </trkpt>
      <trkpt lat="45.87912" lon="2.81941">
        <ele>580</ele>
        <time>2017-10-22T14:10:46Z</time>
      </trkpt>
      <trkpt lat="45.87906" lon="2.81954">
        <ele>582</ele>
        <time>2017-10-22T14:12:46Z</time>
      </trkpt>
      <trkpt lat="45.87902" lon="2.81961">
        <ele>582</ele>
        <time>2017-10-22T14:14:46Z</time>
      </trkpt>
      <trkpt lat="45.879" lon="2.81964">
        <ele>583</ele>
        <time>2017-10-22T14:16:46Z</time>
      </trkpt>
      <trkpt lat="45.87895" lon="2.81971">
        <ele>583</ele>
        <time>2017-10-22T14:18:46Z</time>
      </trkpt>
      <trkpt lat="45.87883" lon="2.81986">
        <ele>581</ele>
        <time>2017-10-22T14:20:46Z</time>
      </trkpt>
      <trkpt lat="45.87879" lon="2.8199">
        <ele>581</ele>
        <time>2017-10-22T14:22:46Z</time>
      </trkpt>
      <trkpt lat="45.8787" lon="2.82">
        <ele>579</ele>
        <time>2017-10-22T14:24:46Z</time>
      </trkpt>
      <trkpt lat="45.87868" lon="2.82004">
        <ele>579</ele>
        <time>2017-10-22T14:26:46Z</time>
      </trkpt>
      <trkpt lat="45.87863" lon="2.8201">
        <ele>578</ele>
        <time>2017-10-22T14:28:46Z</time>
      </trkpt>
      <trkpt lat="45.87858" lon="2.82015">
        <ele>577</ele>
        <time>2017-10-22T14:30:46Z</time>
      </trkpt>
      <trkpt lat="45.87854" lon="2.82021">
        <ele>576</ele>
        <time>2017-10-22T14:32:46Z</time>
      </trkpt>
      <trkpt lat="45.8784" lon="2.82043">
        <ele>574</ele>
        <time>2017-10-22T14:34:46Z</time>
      </trkpt>
      <trkpt lat="45.87837" lon="2.82051">
        <ele>574</ele>
        <time>2017-10-22T14:36:46Z</time>
      </trkpt>
      <trkpt lat="45.87827" lon="2.82068">
        <ele>573</ele>
        <time>2017-10-22T14:38:46Z</time>
      </trkpt>
      <trkpt lat="45.87824" lon="2.82074">
        <ele>574</ele>
        <time>2017-10-22T14:40:46Z</time>
      </trkpt>
      <trkpt lat="45.87822" lon="2.82077">
        <ele>574</ele>
        <time>2017-10-22T14:42:46Z</time>
      </trkpt>
      <trkpt lat="45.87821" lon="2.82081">
        <ele>574</ele>
        <time>2017-10-22T14:44:46Z</time>
      </trkpt>
      <trkpt lat="45.87819" lon="2.82084">
        <ele>574</ele>
        <time>2017-10-22T14:46:46Z</time>
      </trkpt>
      <trkpt lat="45.87817" lon="2.8209">
        <ele>574</ele>
        <time>2017-10-22T14:48:46Z</time>
      </trkpt>
      <trkpt lat="45.87816" lon="2.82093">
        <ele>575</ele>
        <time>2017-10-22T14:50:46Z</time>
      </trkpt>
      <trkpt lat="45.87815" lon="2.82093">
        <ele>574</ele>
        <time>2017-10-22T14:52:46Z</time>
      </trkpt>
      <trkpt lat="45.87815" lon="2.82094">
        <ele>575</ele>
        <time>2017-10-22T14:54:46Z</time>
      </trkpt>
      <trkpt lat="45.87814" lon="2.82094">
        <ele>575</ele>
        <time>2017-10-22T14:56:46Z</time>
      </trkpt>
      <trkpt lat="45.87814" lon="2.82095">
        <ele>575</ele>
        <time>2017-10-22T14:58:46Z</time>
      </trkpt>
      <trkpt lat="45.87813" lon="2.82095">
        <ele>575</ele>
        <time>2017-10-22T15:00:46Z</time>
      </trkpt>
      <trkpt lat="45.87813" lon="2.82095">
        <ele>575</ele>
        <time>2017-10-22T15:02:46Z</time>
      </trkpt>
      <trkpt lat="45.8781" lon="2.82097">
        <ele>575</ele>
        <time>2017-10-22T15:04:46Z</time>
      </trkpt>
      <trkpt lat="45.87809" lon="2.82097">
        <ele>575</ele>
        <time>2017-10-22T15:06:46Z</time>
      </trkpt>
      <trkpt lat="45.87807" lon="2.82098">
        <ele>575</ele>
        <time>2017-10-22T15:08:46Z</time>
      </trkpt>
      <trkpt lat="45.87805" lon="2.82098">
        <ele>574</ele>
        <time>2017-10-22T15:10:46Z</time>
      </trkpt>
      <trkpt lat="45.87804" lon="2.82098">
        <ele>574</ele>
        <time>2017-10-22T15:12:46Z</time>
      </trkpt>
      <trkpt lat="45.87803" lon="2.82098">
        <ele>574</ele>
        <time>2017-10-22T15:14:46Z</time>
      </trkpt>
      <trkpt lat="45.87799" lon="2.82099">
        <ele>574</ele>
        <time>2017-10-22T15:16:46Z</time>
      </trkpt>
      <trkpt lat="45.87794" lon="2.82101">
        <ele>574</ele>
        <time>2017-10-22T15:18:46Z</time>
      </trkpt>
      <trkpt lat="45.87788" lon="2.82105">
        <ele>575</ele>
        <time>2017-10-22T15:20:46Z</time>
      </trkpt>
      <trkpt lat="45.8778" lon="2.8211">
        <ele>575</ele>
        <time>2017-10-22T15:22:46Z</time>
      </trkpt>
      <trkpt lat="45.87778" lon="2.8211">
        <ele>575</ele>
        <time>2017-10-22T15:24:46Z</time>
      </trkpt>
      <trkpt lat="45.87774" lon="2.82112">
        <ele>575</ele>
        <time>2017-10-22T15:26:46Z</time>
      </trkpt>
      <trkpt lat="45.8777" lon="2.82116">
        <ele>576</ele>
        <time>2017-10-22T15:28:46Z</time>
      </trkpt>
      <trkpt lat="45.8777" lon="2.82118">
        <ele>576</ele>
        <time>2017-10-22T15:30:46Z</time>
      </trkpt>
      <trkpt lat="45.87769" lon="2.82122">
        <ele>577</ele>
        <time>2017-10-22T15:32:46Z</time>
      </trkpt>
      <trkpt lat="45.8777" lon="2.82124">
        <ele>577</ele>
        <time>2017-10-22T15:34:46Z</time>
      </trkpt>
      <trkpt lat="45.87769" lon="2.82124">
        <ele>577</ele>
        <time>2017-10-22T15:36:46Z</time>
      </trkpt>
      <trkpt lat="45.87769" lon="2.82124">
        <ele>577</ele>
        <time>2017-10-22T15:38:46Z</time>
      </trkpt>
      <trkpt lat="45.87769" lon="2.82125">
        <ele>578</ele>
        <time>2017-10-22T15:40:46Z</time>
      </trkpt>
      <trkpt lat="45.87769" lon="2.82125">
        <ele>578</ele>
        <time>2017-10-22T15:42:46Z</time>
      </trkpt>
      <trkpt lat="45.8777" lon="2.82129">
        <ele>578</ele>
        <time>2017-10-22T15:44:46Z</time>
      </trkpt>
      <trkpt lat="45.87771" lon="2.82131">
        <ele>579</ele>
        <time>2017-10-22T15:46:46Z</time>
      </trkpt>
      <trkpt lat="45.87772" lon="2.82133">
        <ele>579</ele>
        <time>2017-10-22T15:48:46Z</time>
      </trkpt>
      <trkpt lat="45.87773" lon="2.82139">
        <ele>580</ele>
        <time>2017-10-22T15:50:46Z</time>
      </trkpt>
      <trkpt lat="45.87772" lon="2.82139">
        <ele>580</ele>
        <time>2017-10-22T15:52:46Z</time>
      </trkpt>
      <trkpt lat="45.87773" lon="2.82141">
        <ele>581</ele>
        <time>2017-10-22T15:54:46Z</time>
      </trkpt>
      <trkpt lat="45.87772" lon="2.82144">
        <ele>581</ele>
        <time>2017-10-22T15:56:46Z</time>
      </trkpt>
      <trkpt lat="45.87772" lon="2.82145">
        <ele>581</ele>
        <time>2017-10-22T15:58:46Z</time>
      </trkpt>
      <trkpt lat="45.87771" lon="2.82149">
        <ele>582</ele>
        <time>2017-10-22T16:00:46Z</time>
      </trkpt>
      <trkpt lat="45.87771" lon="2.8215">
        <ele>582</ele>
        <time>2017-10-22T16:02:46Z</time>
      </trkpt>
      <trkpt lat="45.87771" lon="2.82152">
        <ele>583</ele>
        <time>2017-10-22T16:04:46Z</time>
      </trkpt>
      <trkpt lat="45.87769" lon="2.82164">
        <ele>585</ele>
        <time>2017-10-22T16:06:46Z</time>
      </trkpt>
      <trkpt lat="45.87768" lon="2.82169">
        <ele>586</ele>
        <time>2017-10-22T16:08:46Z</time>
      </trkpt>
      <trkpt lat="45.87768" lon="2.82177">
        <ele>587</ele>
        <time>2017-10-22T16:10:46Z</time>
      </trkpt>
      <trkpt lat="45.87767" lon="2.8218">
        <ele>588</ele>
        <time>2017-10-22T16:12:46Z</time>
      </trkpt>
      <trkpt lat="45.87767" lon="2.82184">
        <ele>589</ele>
        <time>2017-10-22T16:14:46Z</time>
      </trkpt>
      <trkpt lat="45.87766" lon="2.82186">
        <ele>589</ele>
        <time>2017-10-22T16:16:46Z</time>
      </trkpt>
      <trkpt lat="45.87766" lon="2.82188">
        <ele>590</ele>
        <time>2017-10-22T16:18:46Z</time>
      </trkpt>
      <trkpt lat="45.87765" lon="2.82193">
        <ele>591</ele>
        <time>2017-10-22T16:20:46Z</time>
      </trkpt>
      <trkpt lat="45.87764" lon="2.822">
        <ele>592</ele>
        <time>2017-10-22T16:22:46Z</time>
      </trkpt>
      <trkpt lat="45.87763" lon="2.82201">
        <ele>592</ele>
        <time>2017-10-22T16:24:46Z</time>
      </trkpt>
      <trkpt lat="45.87763" lon="2.82204">
        <ele>593</ele>
        <time>2017-10-22T16:26:46Z</time>
      </trkpt>
      <trkpt lat="45.87763" lon="2.82206">
        <ele>593</ele>
        <time>2017-10-22T16:28:46Z</time>
      </trkpt>
      <trkpt lat="45.87761" lon="2.8221">
        <ele>594</ele>
        <time>2017-10-22T16:30:46Z</time>
      </trkpt>
      <trkpt lat="45.87761" lon="2.82211">
        <ele>594</ele>
        <time>2017-10-22T16:32:46Z</time>
      </trkpt>
      <trkpt lat="45.8776" lon="2.82215">
        <ele>595</ele>
        <time>2017-10-22T16:34:46Z</time>
      </trkpt>
      <trkpt lat="45.8776" lon="2.82217">
        <ele>596</ele>
        <time>2017-10-22T16:36:46Z</time>
      </trkpt>
      <trkpt lat="45.87759" lon="2.82219">
        <ele>596</ele>
        <time>2017-10-22T16:38:46Z</time>
      </trkpt>
      <trkpt lat="45.87758" lon="2.82221">
        <ele>597</ele>
        <time>2017-10-22T16:40:46Z</time>
      </trkpt>
      <trkpt lat="45.87759" lon="2.82223">
        <ele>597</ele>
        <time>2017-10-22T16:42:46Z</time>
      </trkpt>
      <trkpt lat="45.87758" lon="2.82226">
        <ele>598</ele>
        <time>2017-10-22T16:44:46Z</time>
      </trkpt>
      <trkpt lat="45.87757" lon="2.8223">
        <ele>599</ele>
        <time>2017-10-22T16:46:46Z</time>
      </trkpt>
      <trkpt lat="45.87755" lon="2.82233">
        <ele>600</ele>
        <time>2017-10-22T16:48:46Z</time>
      </trkpt>
      <trkpt lat="45.87755" lon="2.82235">
        <ele>600</ele>
        <time>2017-10-22T16:50:46Z</time>
      </trkpt>
      <trkpt lat="45.87755" lon="2.82236">
        <ele>601</ele>
        <time>2017-10-22T16:52:46Z</time>
      </trkpt>
      <trkpt lat="45.87754" lon="2.82239">
        <ele>602</ele>
        <time>2017-10-22T16:54:46Z</time>
      </trkpt>
      <trkpt lat="45.87754" lon="2.82241">
        <ele>602</ele>
        <time>2017-10-22T16:56:46Z</time>
      </trkpt>
      <trkpt lat="45.87754" lon="2.82242">
        <ele>602</ele>
        <time>2017-10-22T16:58:46Z</time>
      </trkpt>
      <trkpt lat="45.87753" lon="2.8225">
        <ele>604</ele>
        <time>2017-10-22T17:00:46Z</time>
      </trkpt>
      <trkpt lat="45.87753" lon="2.82251">
        <ele>604</ele>
        <time>2017-10-22T17:02:46Z</time>
      </trkpt>
      <trkpt lat="45.87752" lon="2.82253">
        <ele>605</ele>
        <time>2017-10-22T17:04:46Z</time>
      </trkpt>
      <trkpt lat="45.87752" lon="2.82256">
        <ele>605</ele>
        <time>2017-10-22T17:06:46Z</time>
      </trkpt>
      <trkpt lat="45.87752" lon="2.82259">
        <ele>606</ele>
        <time>2017-10-22T17:08:46Z</time>
      </trkpt>
      <trkpt lat="45.87751" lon="2.8226">
        <ele>606</ele>
        <time>2017-10-22T17:10:46Z</time>
      </trkpt>
      <trkpt lat="45.87751" lon="2.82262">
        <ele>607</ele>
        <time>2017-10-22T17:12:46Z</time>
      </trkpt>
      <trkpt lat="45.87751" lon="2.82263">
        <ele>607</ele>
        <time>2017-10-22T17:14:46Z</time>
      </trkpt>
      <trkpt lat="45.8775" lon="2.82263">
        <ele>607</ele>
        <time>2017-10-22T17:16:46Z</time>
      </trkpt>
      <trkpt lat="45.87749" lon="2.82265">
        <ele>608</ele>
        <time>2017-10-22T17:18:46Z</time>
      </trkpt>
      <trkpt lat="45.87749" lon="2.82267">
        <ele>608</ele>
        <time>2017-10-22T17:20:46Z</time>
      </trkpt>
      <trkpt lat="45.87749" lon="2.82267">
        <ele>608</ele>
        <time>2017-10-22T17:22:46Z</time>
      </trkpt>
      <trkpt lat="45.87748" lon="2.82269">
        <ele>609</ele>
        <time>2017-10-22T17:24:46Z</time>
      </trkpt>
      <trkpt lat="45.87748" lon="2.82271">
        <ele>609</ele>
        <time>2017-10-22T17:26:46Z</time>
      </trkpt>
      <trkpt lat="45.87748" lon="2.82274">
        <ele>610</ele>
        <time>2017-10-22T17:28:46Z</time>
      </trkpt>
      <trkpt lat="45.87748" lon="2.82276">
        <ele>610</ele>
        <time>2017-10-22T17:30:46Z</time>
      </trkpt>
      <trkpt lat="45.87748" lon="2.82279">
        <ele>610</ele>
        <time>2017-10-22T17:32:46Z</time>
      </trkpt>
      <trkpt lat="45.87748" lon="2.8228">
        <ele>610</ele>
        <time>2017-10-22T17:34:46Z</time>
      </trkpt>
      <trkpt lat="45.87746" lon="2.82284">
        <ele>612</ele>
        <time>2017-10-22T17:36:46Z</time>
      </trkpt>
      <trkpt lat="45.87745" lon="2.82284">
        <ele>612</ele>
        <time>2017-10-22T17:38:46Z</time>
      </trkpt>
      <trkpt lat="45.87745" lon="2.82283">
        <ele>612</ele>
        <time>2017-10-22T17:40:46Z</time>
      </trkpt>
      <trkpt lat="45.87744" lon="2.82282">
        <ele>612</ele>
        <time>2017-10-22T17:42:46Z</time>
      </trkpt>
      <trkpt lat="45.8774" lon="2.82275">
        <ele>613</ele>
        <time>2017-10-22T17:44:46Z</time>
      </trkpt>
      <trkpt lat="45.87737" lon="2.82272">
        <ele>613</ele>
        <time>2017-10-22T17:46:46Z</time>
      </trkpt>
      <trkpt lat="45.87736" lon="2.82271">
        <ele>614</ele>
        <time>2017-10-22T17:48:46Z</time>
      </trkpt>
      <trkpt lat="45.87732" lon="2.82267">
        <ele>614</ele>
        <time>2017-10-22T17:50:46Z</time>
      </trkpt>
      <trkpt lat="45.87723" lon="2.82262">
        <ele>617</ele>
        <time>2017-10-22T17:52:46Z</time>
      </trkpt>
      <trkpt lat="45.8772" lon="2.82258">
        <ele>617</ele>
        <time>2017-10-22T17:54:46Z</time>
      </trkpt>
      <trkpt lat="45.87718" lon="2.82257">
        <ele>618</ele>
        <time>2017-10-22T17:56:46Z</time>
      </trkpt>
      <trkpt lat="45.87717" lon="2.82256">
        <ele>618</ele>
        <time>2017-10-22T17:58:46Z</time>
      </trkpt>
      <trkpt lat="45.87715" lon="2.82254">
        <ele>618</ele>
        <time>2017-10-22T18:00:46Z</time>
      </trkpt>
      <trkpt lat="45.87713" lon="2.82252">
        <ele>618</ele>
        <time>2017-10-22T18:02:46Z</time>
      </trkpt>
      <trkpt lat="45.87711" lon="2.8225">
        <ele>619</ele>
        <time>2017-10-22T18:04:46Z</time>
      </trkpt>
      <trkpt lat="45.87709" lon="2.82248">
        <ele>619</ele>
        <time>2017-10-22T18:06:46Z</time>
      </trkpt>
      <trkpt lat="45.87708" lon="2.82247">
        <ele>619</ele>
        <time>2017-10-22T18:08:46Z</time>
      </trkpt>
      <trkpt lat="45.87705" lon="2.82244">
        <ele>619</ele>
        <time>2017-10-22T18:10:46Z</time>
      </trkpt>
      <trkpt lat="45.87705" lon="2.82243">
        <ele>618</ele>
        <time>2017-10-22T18:12:46Z</time>
      </trkpt>
      <trkpt lat="45.87705" lon="2.82243">
        <ele>618</ele>
        <time>2017-10-22T18:14:46Z</time>
      </trkpt>
      <trkpt lat="45.87705" lon="2.82242">
        <ele>618</ele>
        <time>2017-10-22T18:16:46Z</time>
      </trkpt>
      <trkpt lat="45.87705" lon="2.82242">
        <ele>618</ele>
        <time>2017-10-22T18:18:46Z</time>
      </trkpt>
      <trkpt lat="45.87705" lon="2.82242">
        <ele>618</ele>
        <time>2017-10-22T18:20:46Z</time>
      </trkpt>
      <trkpt lat="45.87704" lon="2.82241">
        <ele>618</ele>
        <time>2017-10-22T18:22:46Z</time>
      </trkpt>
      <trkpt lat="45.87703" lon="2.8224">
        <ele>618</ele>
        <time>2017-10-22T18:24:46Z</time>
      </trkpt>
      <trkpt lat="45.87699" lon="2.8224">
        <ele>619</ele>
        <time>2017-10-22T18:26:46Z</time>
      </trkpt>
      <trkpt lat="45.87697" lon="2.82241">
        <ele>620</ele>
        <time>2017-10-22T18:28:46Z</time>
      </trkpt>
      <trkpt lat="45.87696" lon="2.82243">
        <ele>621</ele>
        <time>2017-10-22T18:30:46Z</time>
      </trkpt>
      <trkpt lat="45.87696" lon="2.82244">
        <ele>622</ele>
        <time>2017-10-22T18:32:46Z</time>
      </trkpt>
      <trkpt lat="45.87696" lon="2.82245">
        <ele>622</ele>
        <time>2017-10-22T18:34:46Z</time>
      </trkpt>
      <trkpt lat="45.87696" lon="2.82246">
        <ele>622</ele>
        <time>2017-10-22T18:36:46Z</time>
      </trkpt>
      <trkpt lat="45.87695" lon="2.82249">
        <ele>624</ele>
        <time>2017-10-22T18:38:46Z</time>
      </trkpt>
      <trkpt lat="45.87695" lon="2.82255">
        <ele>625</ele>
        <time>2017-10-22T18:40:46Z</time>
      </trkpt>
      <trkpt lat="45.87694" lon="2.82258">
        <ele>626</ele>
        <time>2017-10-22T18:42:46Z</time>
      </trkpt>
      <trkpt lat="45.87693" lon="2.82259">
        <ele>627</ele>
        <time>2017-10-22T18:44:46Z</time>
      </trkpt>
      <trkpt lat="45.87693" lon="2.8226">
        <ele>627</ele>
        <time>2017-10-22T18:46:46Z</time>
      </trkpt>
      <trkpt lat="45.87692" lon="2.8226">
        <ele>627</ele>
        <time>2017-10-22T18:48:46Z</time>
      </trkpt>
      <trkpt lat="45.87692" lon="2.82263">
        <ele>628</ele>
        <time>2017-10-22T18:50:46Z</time>
      </trkpt>
      <trkpt lat="45.87691" lon="2.82264">
        <ele>629</ele>
        <time>2017-10-22T18:52:46Z</time>
      </trkpt>
      <trkpt lat="45.87691" lon="2.82267">
        <ele>629</ele>
        <time>2017-10-22T18:54:46Z</time>
      </trkpt>
      <trkpt lat="45.87691" lon="2.82267">
        <ele>629</ele>
        <time>2017-10-22T18:56:46Z</time>
      </trkpt>
      <trkpt lat="45.87691" lon="2.82268">
        <ele>630</ele>
        <time>2017-10-22T18:58:46Z</time>
      </trkpt>
      <trkpt lat="45.87691" lon="2.82268">
        <ele>630</ele>
        <time>2017-10-22T19:00:46Z</time>
      </trkpt>
      <trkpt lat="45.87692" lon="2.82268">
        <ele>629</ele>
        <time>2017-10-22T19:02:46Z</time>
      </trkpt>
      <trkpt lat="45.87693" lon="2.82269">
        <ele>629</ele>
        <time>2017-10-22T19:04:46Z</time>
      </trkpt>
      <trkpt lat="45.87693" lon="2.82269">
        <ele>629</ele>
        <time>2017-10-22T19:06:46Z</time>
      </trkpt>
      <trkpt lat="45.87693" lon="2.8227">
        <ele>629</ele>
        <time>2017-10-22T19:08:46Z</time>
      </trkpt>
      <trkpt lat="45.87693" lon="2.82271">
        <ele>630</ele>
        <time>2017-10-22T19:10:46Z</time>
      </trkpt>
      <trkpt lat="45.87694" lon="2.82275">
        <ele>630</ele>
        <time>2017-10-22T19:12:46Z</time>
      </trkpt>
      <trkpt lat="45.87694" lon="2.82276">
        <ele>630</ele>
        <time>2017-10-22T19:14:46Z</time>
      </trkpt>
      <trkpt lat="45.87694" lon="2.82277">
        <ele>631</ele>
        <time>2017-10-22T19:16:46Z</time>
      </trkpt>
      <trkpt lat="45.87694" lon="2.82278">
        <ele>631</ele>
        <time>2017-10-22T19:18:46Z</time>
      </trkpt>
      <trkpt lat="45.87695" lon="2.82282">
        <ele>631</ele>
        <time>2017-10-22T19:20:46Z</time>
      </trkpt>
      <trkpt lat="45.87695" lon="2.82283">
        <ele>632</ele>
        <time>2017-10-22T19:22:46Z</time>
      </trkpt>
      <trkpt lat="45.87695" lon="2.82284">
        <ele>632</ele>
        <time>2017-10-22T19:24:46Z</time>
      </trkpt>
      <trkpt lat="45.87696" lon="2.82285">
        <ele>632</ele>
        <time>2017-10-22T19:26:46Z</time>
      </trkpt>
      <trkpt lat="45.87696" lon="2.82289">
        <ele>633</ele>
        <time>2017-10-22T19:28:46Z</time>
      </trkpt>
      <trkpt lat="45.87696" lon="2.82293">
        <ele>634</ele>
        <time>2017-10-22T19:30:46Z</time>
      </trkpt>
      <trkpt lat="45.87696" lon="2.82295">
        <ele>634</ele>
        <time>2017-10-22T19:32:46Z</time>
      </trkpt>
      <trkpt lat="45.87696" lon="2.82296">
        <ele>634</ele>
        <time>2017-10-22T19:34:46Z</time>
      </trkpt>
      <trkpt lat="45.87696" lon="2.82297">
        <ele>634</ele>
        <time>2017-10-22T19:36:46Z</time>
      </trkpt>
      <trkpt lat="45.87696" lon="2.82299">
        <ele>635</ele>
        <time>2017-10-22T19:38:46Z</time>
      </trkpt>
      <trkpt lat="45.87696" lon="2.82303">
        <ele>636</ele>
        <time>2017-10-22T19:40:46Z</time>
      </trkpt>
      <trkpt lat="45.87697" lon="2.82304">
        <ele>636</ele>
        <time>2017-10-22T19:42:46Z</time>
      </trkpt>
      <trkpt lat="45.87697" lon="2.82307">
        <ele>636</ele>
        <time>2017-10-22T19:44:46Z</time>
      </trkpt>
      <trkpt lat="45.87699" lon="2.8231">
        <ele>636</ele>
        <time>2017-10-22T19:46:46Z</time>
      </trkpt>
      <trkpt lat="45.877" lon="2.82315">
        <ele>637</ele>
        <time>2017-10-22T19:48:46Z</time>
      </trkpt>
      <trkpt lat="45.87701" lon="2.82321">
        <ele>638</ele>
        <time>2017-10-22T19:50:46Z</time>
      </trkpt>
      <trkpt lat="45.877" lon="2.82325">
        <ele>639</ele>
        <time>2017-10-22T19:52:46Z</time>
      </trkpt>
      <trkpt lat="45.87701" lon="2.82335">
        <ele>641</ele>
        <time>2017-10-22T19:54:46Z</time>
      </trkpt>
      <trkpt lat="45.87704" lon="2.82342">
        <ele>641</ele>
        <time>2017-10-22T19:56:46Z</time>
      </trkpt>
      <trkpt lat="45.87704" lon="2.82344">
        <ele>641</ele>
        <time>2017-10-22T19:58:46Z</time>
      </trkpt>
      <trkpt lat="45.87705" lon="2.82347">
        <ele>642</ele>
        <time>2017-10-22T20:00:46Z</time>
      </trkpt>
      <trkpt lat="45.87706" lon="2.82349">
        <ele>642</ele>
        <time>2017-10-22T20:02:46Z</time>
      </trkpt>
      <trkpt lat="45.87707" lon="2.82352">
        <ele>642</ele>
        <time>2017-10-22T20:04:46Z</time>
      </trkpt>
      <trkpt lat="45.87707" lon="2.82354">
        <ele>642</ele>
        <time>2017-10-22T20:06:46Z</time>
      </trkpt>
      <trkpt lat="45.87709" lon="2.82359">
        <ele>643</ele>
        <time>2017-10-22T20:08:46Z</time>
      </trkpt>
      <trkpt lat="45.8771" lon="2.82363">
        <ele>643</ele>
        <time>2017-10-22T20:10:46Z</time>
      </trkpt>
      <trkpt lat="45.8771" lon="2.82366">
        <ele>644</ele>
        <time>2017-10-22T20:12:46Z</time>
      </trkpt>
      <trkpt lat="45.87711" lon="2.82368">
        <ele>644</ele>
        <time>2017-10-22T20:14:46Z</time>
      </trkpt>
      <trkpt lat="45.87713" lon="2.82372">
        <ele>644</ele>
        <time>2017-10-22T20:16:46Z</time>
      </trkpt>
      <trkpt lat="45.87716" lon="2.82376">
        <ele>644</ele>
        <time>2017-10-22T20:18:46Z</time>
      </trkpt>
      <trkpt lat="45.87718" lon="2.82382">
        <ele>644</ele>
        <time>2017-10-22T20:20:46Z</time>
      </trkpt>
      <trkpt lat="45.87719" lon="2.82386">
        <ele>645</ele>
        <time>2017-10-22T20:22:46Z</time>
      </trkpt>
      <trkpt lat="45.87719" lon="2.82387">
        <ele>645</ele>
        <time>2017-10-22T20:24:46Z</time>
      </trkpt>
      <trkpt lat="45.87718" lon="2.82388">
        <ele>645</ele>
        <time>2017-10-22T20:26:46Z</time>
      </trkpt>
      <trkpt lat="45.87716" lon="2.82386">
        <ele>646</ele>
        <time>2017-10-22T20:28:46Z</time>
      </trkpt>
      <trkpt lat="45.87715" lon="2.82386">
        <ele>646</ele>
        <time>2017-10-22T20:30:46Z</time>
      </trkpt>
      <trkpt lat="45.87711" lon="2.82383">
        <ele>647</ele>
        <time>2017-10-22T20:32:46Z</time>
      </trkpt>
      <trkpt lat="45.87709" lon="2.8238">
        <ele>648</ele>
        <time>2017-10-22T20:34:46Z</time>
      </trkpt>
      <trkpt lat="45.87708" lon="2.82379">
        <ele>648</ele>
        <time>2017-10-22T20:36:46Z</time>
      </trkpt>
      <trkpt lat="45.87707" lon="2.82379">
        <ele>648</ele>
        <time>2017-10-22T20:38:46Z</time>
      </trkpt>
      <trkpt lat="45.87704" lon="2.82376">
        <ele>649</ele>
        <time>2017-10-22T20:40:46Z</time>
      </trkpt>
      <trkpt lat="45.87703" lon="2.82375">
        <ele>649</ele>
        <time>2017-10-22T20:42:46Z</time>
      </trkpt>
      <trkpt lat="45.87693" lon="2.82369">
        <ele>652</ele>
        <time>2017-10-22T20:44:46Z</time>
      </trkpt>
      <trkpt lat="45.87691" lon="2.82367">
        <ele>653</ele>
        <time>2017-10-22T20:46:46Z</time>
      </trkpt>
      <trkpt lat="45.8769" lon="2.82367">
        <ele>653</ele>
        <time>2017-10-22T20:48:46Z</time>
      </trkpt>
      <trkpt lat="45.87689" lon="2.82366">
        <ele>653</ele>
        <time>2017-10-22T20:50:46Z</time>
      </trkpt>
      <trkpt lat="45.87689" lon="2.82365">
        <ele>653</ele>
        <time>2017-10-22T20:52:46Z</time>
      </trkpt>
      <trkpt lat="45.87688" lon="2.82363">
        <ele>653</ele>
        <time>2017-10-22T20:54:46Z</time>
      </trkpt>
      <trkpt lat="45.87686" lon="2.8236">
        <ele>653</ele>
        <time>2017-10-22T20:56:46Z</time>
      </trkpt>
      <trkpt lat="45.87685" lon="2.82359">
        <ele>654</ele>
        <time>2017-10-22T20:58:46Z</time>
      </trkpt>
      <trkpt lat="45.87683" lon="2.82357">
        <ele>654</ele>
        <time>2017-10-22T21:00:46Z</time>
      </trkpt>
      <trkpt lat="45.87681" lon="2.82355">
        <ele>654</ele>
        <time>2017-10-22T21:02:46Z</time>
      </trkpt>
      <trkpt lat="45.87681" lon="2.82355">
        <ele>654</ele>
        <time>2017-10-22T21:04:46Z</time>
      </trkpt>
      <trkpt lat="45.87679" lon="2.82354">
        <ele>655</ele>
        <time>2017-10-22T21:06:46Z</time>
      </trkpt>
      <trkpt lat="45.87678" lon="2.82352">
        <ele>655</ele>
        <time>2017-10-22T21:08:46Z</time>
      </trkpt>
      <trkpt lat="45.87678" lon="2.82352">
        <ele>655</ele>
        <time>2017-10-22T21:10:46Z</time>
      </trkpt>
      <trkpt lat="45.87676" lon="2.82349">
        <ele>655</ele>
        <time>2017-10-22T21:12:46Z</time>
      </trkpt>
      <trkpt lat="45.87672" lon="2.82346">
        <ele>656</ele>
        <time>2017-10-22T21:14:46Z</time>
      </trkpt>
      <trkpt lat="45.87671" lon="2.82345">
        <ele>657</ele>
        <time>2017-10-22T21:16:46Z</time>
      </trkpt>
      <trkpt lat="45.87671" lon="2.82344">
        <ele>656</ele>
        <time>2017-10-22T21:18:46Z</time>
      </trkpt>
      <trkpt lat="45.87666" lon="2.82339">
        <ele>657</ele>
        <time>2017-10-22T21:20:46Z</time>
      </trkpt>
      <trkpt lat="45.87665" lon="2.82335">
        <ele>657</ele>
        <time>2017-10-22T21:22:46Z</time>
      </trkpt>
      <trkpt lat="45.87665" lon="2.82335">
        <ele>657</ele>
        <time>2017-10-06T23:50:46Z</time>
      </trkpt>
      <trkpt lat="45.87663" lon="2.82334">
        <ele>657</ele>
        <time>2017-10-06T23:52:46Z</time>
      </trkpt>
      <trkpt lat="45.87662" lon="2.82334">
        <ele>657</ele>
        <time>2017-10-06T23:54:46Z</time>
      </trkpt>
      <trkpt lat="45.87661" lon="2.82334">
        <ele>657</ele>
        <time>2017-10-06T23:56:46Z</time>
      </trkpt>
      <trkpt lat="45.8766" lon="2.82334">
        <ele>657</ele>
        <time>2017-10-06T23:58:46Z</time>
      </trkpt>
      <trkpt lat="45.87656" lon="2.82331">
        <ele>657</ele>
        <time>2017-10-07T00:00:46Z</time>
      </trkpt>
      <trkpt lat="45.87653" lon="2.82329">
        <ele>657</ele>
        <time>2017-10-07T00:02:46Z</time>
      </trkpt>
      <trkpt lat="45.87651" lon="2.82325">
        <ele>657</ele>
        <time>2017-10-07T00:04:46Z</time>
      </trkpt>
      <trkpt lat="45.87649" lon="2.82322">
        <ele>656</ele>
        <time>2017-10-07T00:06:46Z</time>
      </trkpt>
      <trkpt lat="45.87647" lon="2.82318">
        <ele>656</ele>
        <time>2017-10-07T00:08:46Z</time>
      </trkpt>
      <trkpt lat="45.87645" lon="2.82316">
        <ele>656</ele>
        <time>2017-10-07T00:10:46Z</time>
      </trkpt>
      <trkpt lat="45.87644" lon="2.82314">
        <ele>655</ele>
        <time>2017-10-07T00:12:46Z</time>
      </trkpt>
      <trkpt lat="45.87641" lon="2.82311">
        <ele>655</ele>
        <time>2017-10-07T00:14:46Z</time>
      </trkpt>
      <trkpt lat="45.87637" lon="2.82306">
        <ele>654</ele>
        <time>2017-10-07T00:16:46Z</time>
      </trkpt>
      <trkpt lat="45.87636" lon="2.82304">
        <ele>654</ele>
        <time>2017-10-07T00:18:46Z</time>
      </trkpt>
      <trkpt lat="45.87635" lon="2.82302">
        <ele>654</ele>
        <time>2017-10-07T00:20:46Z</time>
      </trkpt>
      <trkpt lat="45.87632" lon="2.82299">
        <ele>653</ele>
        <time>2017-10-07T00:22:46Z</time>
      </trkpt>
      <trkpt lat="45.87631" lon="2.82298">
        <ele>653</ele>
        <time>2017-10-07T00:24:46Z</time>
      </trkpt>
      <trkpt lat="45.87629" lon="2.82296">
        <ele>653</ele>
        <time>2017-10-07T00:26:46Z</time>
      </trkpt>
      <trkpt lat="45.87624" lon="2.82291">
        <ele>653</ele>
        <time>2017-10-07T00:28:46Z</time>
      </trkpt>
      <trkpt lat="45.8762" lon="2.82287">
        <ele>652</ele>
        <time>2017-10-07T00:30:46Z</time>
      </trkpt>
      <trkpt lat="45.87619" lon="2.82287">
        <ele>653</ele>
        <time>2017-10-07T00:32:46Z</time>
      </trkpt>
      <trkpt lat="45.87617" lon="2.82285">
        <ele>652</ele>
        <time>2017-10-07T00:34:46Z</time>
      </trkpt>
      <trkpt lat="45.87612" lon="2.82282">
        <ele>653</ele>
        <time>2017-10-07T00:36:46Z</time>
      </trkpt>
      <trkpt lat="45.87607" lon="2.82282">
        <ele>653</ele>
        <time>2017-10-07T00:38:46Z</time>
      </trkpt>
      <trkpt lat="45.87601" lon="2.82282">
        <ele>655</ele>
        <time>2017-10-07T00:40:46Z</time>
      </trkpt>
      <trkpt lat="45.87589" lon="2.82286">
        <ele>658</ele>
        <time>2017-10-07T00:42:46Z</time>
      </trkpt>
      <trkpt lat="45.87585" lon="2.8229">
        <ele>660</ele>
        <time>2017-10-07T00:44:46Z</time>
      </trkpt>
      <trkpt lat="45.87581" lon="2.82293">
        <ele>661</ele>
        <time>2017-10-07T00:46:46Z</time>
      </trkpt>
      <trkpt lat="45.8758" lon="2.82294">
        <ele>661</ele>
        <time>2017-10-07T00:48:46Z</time>
      </trkpt>
      <trkpt lat="45.8758" lon="2.82294">
        <ele>661</ele>
        <time>2017-10-07T00:50:46Z</time>
      </trkpt>
      <trkpt lat="45.87579" lon="2.82296">
        <ele>661</ele>
        <time>2017-10-07T00:52:46Z</time>
      </trkpt>
      <trkpt lat="45.87579" lon="2.82299">
        <ele>662</ele>
        <time>2017-10-07T00:54:46Z</time>
      </trkpt>
      <trkpt lat="45.87579" lon="2.82301">
        <ele>663</ele>
        <time>2017-10-07T00:56:46Z</time>
      </trkpt>
      <trkpt lat="45.8758" lon="2.82302">
        <ele>663</ele>
        <time>2017-10-07T00:58:46Z</time>
      </trkpt>
      <trkpt lat="45.8758" lon="2.82303">
        <ele>663</ele>
        <time>2017-10-07T01:00:46Z</time>
      </trkpt>
      <trkpt lat="45.87585" lon="2.82308">
        <ele>665</ele>
        <time>2017-10-07T01:02:46Z</time>
      </trkpt>
      <trkpt lat="45.87587" lon="2.82312">
        <ele>665</ele>
        <time>2017-10-07T01:04:46Z</time>
      </trkpt>
      <trkpt lat="45.87588" lon="2.82313">
        <ele>666</ele>
        <time>2017-10-07T01:06:46Z</time>
      </trkpt>
      <trkpt lat="45.8759" lon="2.82317">
        <ele>666</ele>
        <time>2017-10-07T01:08:46Z</time>
      </trkpt>
      <trkpt lat="45.87591" lon="2.8232">
        <ele>667</ele>
        <time>2017-10-07T01:10:46Z</time>
      </trkpt>
      <trkpt lat="45.87593" lon="2.82325">
        <ele>668</ele>
        <time>2017-10-07T01:12:46Z</time>
      </trkpt>
      <trkpt lat="45.87593" lon="2.82326">
        <ele>668</ele>
        <time>2017-10-07T01:14:46Z</time>
      </trkpt>
      <trkpt lat="45.87594" lon="2.82327">
        <ele>668</ele>
        <time>2017-10-07T01:16:46Z</time>
      </trkpt>
      <trkpt lat="45.87594" lon="2.82333">
        <ele>670</ele>
        <time>2017-10-07T01:18:46Z</time>
      </trkpt>
      <trkpt lat="45.87595" lon="2.82334">
        <ele>670</ele>
        <time>2017-10-07T01:20:46Z</time>
      </trkpt>
      <trkpt lat="45.87595" lon="2.82339">
        <ele>671</ele>
        <time>2017-10-07T01:22:46Z</time>
      </trkpt>
      <trkpt lat="45.87594" lon="2.82341">
        <ele>671</ele>
        <time>2017-10-07T01:24:46Z</time>
      </trkpt>
      <trkpt lat="45.87592" lon="2.82344">
        <ele>672</ele>
        <time>2017-10-07T01:26:46Z</time>
      </trkpt>
      <trkpt lat="45.87589" lon="2.82346">
        <ele>673</ele>
        <time>2017-10-07T01:28:46Z</time>
      </trkpt>
      <trkpt lat="45.87588" lon="2.82348">
        <ele>674</ele>
        <time>2017-10-07T01:30:46Z</time>
      </trkpt>
      <trkpt lat="45.87587" lon="2.82348">
        <ele>674</ele>
        <time>2017-10-07T01:32:46Z</time>
      </trkpt>
      <trkpt lat="45.87584" lon="2.82348">
        <ele>674</ele>
        <time>2017-10-07T01:34:46Z</time>
      </trkpt>
      <trkpt lat="45.87583" lon="2.8235">
        <ele>675</ele>
        <time>2017-10-07T01:36:46Z</time>
      </trkpt>
      <trkpt lat="45.87582" lon="2.8235">
        <ele>675</ele>
        <time>2017-10-07T01:38:46Z</time>
      </trkpt>
      <trkpt lat="45.87579" lon="2.82353">
        <ele>675</ele>
        <time>2017-10-07T01:40:46Z</time>
      </trkpt>
      <trkpt lat="45.87576" lon="2.82358">
        <ele>675</ele>
        <time>2017-10-07T01:42:46Z</time>
      </trkpt>
      <trkpt lat="45.87571" lon="2.82363">
        <ele>675</ele>
        <time>2017-10-07T01:44:46Z</time>
      </trkpt>
      <trkpt lat="45.87565" lon="2.82371">
        <ele>676</ele>
        <time>2017-10-07T01:46:46Z</time>
      </trkpt>
      <trkpt lat="45.87554" lon="2.82387">
        <ele>677</ele>
        <time>2017-10-07T01:48:46Z</time>
      </trkpt>
      <trkpt lat="45.87548" lon="2.82396">
        <ele>677</ele>
        <time>2017-10-07T01:50:46Z</time>
      </trkpt>
      <trkpt lat="45.8754" lon="2.82408">
        <ele>678</ele>
        <time>2017-10-07T01:52:46Z</time>
      </trkpt>
      <trkpt lat="45.87536" lon="2.82412">
        <ele>678</ele>
        <time>2017-10-07T01:54:46Z</time>
      </trkpt>
      <trkpt lat="45.87533" lon="2.82418">
        <ele>678</ele>
        <time>2017-10-07T01:56:46Z</time>
      </trkpt>
      <trkpt lat="45.8753" lon="2.82423">
        <ele>678</ele>
        <time>2017-10-07T01:58:46Z</time>
      </trkpt>
      <trkpt lat="45.87528" lon="2.82427">
        <ele>679</ele>
        <time>2017-10-07T02:00:46Z</time>
      </trkpt>
      <trkpt lat="45.87509" lon="2.82455">
        <ele>679</ele>
        <time>2017-10-07T02:02:46Z</time>
      </trkpt>
      <trkpt lat="45.87505" lon="2.82462">
        <ele>679</ele>
        <time>2017-10-07T02:04:46Z</time>
      </trkpt>
      <trkpt lat="45.87501" lon="2.82469">
        <ele>679</ele>
        <time>2017-10-07T02:06:46Z</time>
      </trkpt>
      <trkpt lat="45.87497" lon="2.8248">
        <ele>680</ele>
        <time>2017-10-07T02:08:46Z</time>
      </trkpt>
      <trkpt lat="45.87494" lon="2.82486">
        <ele>680</ele>
        <time>2017-10-07T02:10:46Z</time>
      </trkpt>
      <trkpt lat="45.87493" lon="2.82492">
        <ele>680</ele>
        <time>2017-10-07T02:12:46Z</time>
      </trkpt>
      <trkpt lat="45.87489" lon="2.82502">
        <ele>680</ele>
        <time>2017-10-07T02:14:46Z</time>
      </trkpt>
      <trkpt lat="45.87483" lon="2.8252">
        <ele>681</ele>
        <time>2017-10-07T02:16:46Z</time>
      </trkpt>
      <trkpt lat="45.87479" lon="2.82532">
        <ele>681</ele>
        <time>2017-10-07T02:18:46Z</time>
      </trkpt>
      <trkpt lat="45.87475" lon="2.82552">
        <ele>682</ele>
        <time>2017-10-07T02:20:46Z</time>
      </trkpt>
      <trkpt lat="45.87471" lon="2.82566">
        <ele>682</ele>
        <time>2017-10-07T02:22:46Z</time>
      </trkpt>
      <trkpt lat="45.87469" lon="2.82576">
        <ele>682</ele>
        <time>2017-10-07T02:24:46Z</time>
      </trkpt>
      <trkpt lat="45.87467" lon="2.82585">
        <ele>682</ele>
        <time>2017-10-07T02:26:46Z</time>
      </trkpt>
      <trkpt lat="45.87466" lon="2.82593">
        <ele>682</ele>
        <time>2017-10-07T02:28:46Z</time>
      </trkpt>
      <trkpt lat="45.87464" lon="2.82607">
        <ele>682</ele>
        <time>2017-10-07T02:30:46Z</time>
      </trkpt>
      <trkpt lat="45.87464" lon="2.82617">
        <ele>682</ele>
        <time>2017-10-07T02:32:46Z</time>
      </trkpt>
      <trkpt lat="45.87464" lon="2.82625">
        <ele>683</ele>
        <time>2017-10-07T02:34:46Z</time>
      </trkpt>
      <trkpt lat="45.87463" lon="2.82638">
        <ele>683</ele>
        <time>2017-10-07T02:36:46Z</time>
      </trkpt>
      <trkpt lat="45.87463" lon="2.82644">
        <ele>683</ele>
        <time>2017-10-07T02:38:46Z</time>
      </trkpt>
      <trkpt lat="45.87463" lon="2.82659">
        <ele>683</ele>
        <time>2017-10-07T02:40:46Z</time>
      </trkpt>
      <trkpt lat="45.87462" lon="2.82667">
        <ele>683</ele>
        <time>2017-10-07T02:42:46Z</time>
      </trkpt>
      <trkpt lat="45.87459" lon="2.8268">
        <ele>683</ele>
        <time>2017-10-07T02:44:46Z</time>
      </trkpt>
      <trkpt lat="45.87457" lon="2.82685">
        <ele>683</ele>
        <time>2017-10-07T02:46:46Z</time>
      </trkpt>
      <trkpt lat="45.87455" lon="2.82692">
        <ele>683</ele>
        <time>2017-10-07T02:48:46Z</time>
      </trkpt>
      <trkpt lat="45.87454" lon="2.82702">
        <ele>684</ele>
        <time>2017-10-07T02:50:46Z</time>
      </trkpt>
      <trkpt lat="45.87454" lon="2.82714">
        <ele>685</ele>
        <time>2017-10-07T02:52:46Z</time>
      </trkpt>
      <trkpt lat="45.87454" lon="2.82722">
        <ele>685</ele>
        <time>2017-10-07T02:54:46Z</time>
      </trkpt>
      <trkpt lat="45.87456" lon="2.8273">
        <ele>686</ele>
        <time>2017-10-07T02:56:46Z</time>
      </trkpt>
      <trkpt lat="45.87456" lon="2.82738">
        <ele>687</ele>
        <time>2017-10-07T02:58:46Z</time>
      </trkpt>
      <trkpt lat="45.87457" lon="2.8275">
        <ele>688</ele>
        <time>2017-10-07T03:00:46Z</time>
      </trkpt>
      <trkpt lat="45.87457" lon="2.8276">
        <ele>689</ele>
        <time>2017-10-07T03:02:46Z</time>
      </trkpt>
      <trkpt lat="45.87456" lon="2.82766">
        <ele>689</ele>
        <time>2017-10-07T03:04:46Z</time>
      </trkpt>
      <trkpt lat="45.87454" lon="2.82771">
        <ele>689</ele>
        <time>2017-10-07T03:06:46Z</time>
      </trkpt>
      <trkpt lat="45.87451" lon="2.82778">
        <ele>690</ele>
        <time>2017-10-07T03:08:46Z</time>
      </trkpt>
      <trkpt lat="45.8744" lon="2.82795">
        <ele>690</ele>
        <time>2017-10-07T03:10:46Z</time>
      </trkpt>
      <trkpt lat="45.87437" lon="2.828">
        <ele>690</ele>
        <time>2017-10-07T03:12:46Z</time>
      </trkpt>
      <trkpt lat="45.87431" lon="2.82808">
        <ele>690</ele>
        <time>2017-10-07T03:14:46Z</time>
      </trkpt>
      <trkpt lat="45.87429" lon="2.82814">
        <ele>691</ele>
        <time>2017-10-07T03:16:46Z</time>
      </trkpt>
      <trkpt lat="45.8742" lon="2.82829">
        <ele>693</ele>
        <time>2017-10-07T03:18:46Z</time>
      </trkpt>
      <trkpt lat="45.87407" lon="2.82852">
        <ele>692</ele>
        <time>2017-10-07T03:20:46Z</time>
      </trkpt>
      <trkpt lat="45.87405" lon="2.82856">
        <ele>692</ele>
        <time>2017-10-07T03:22:46Z</time>
      </trkpt>
      <trkpt lat="45.87402" lon="2.82866">
        <ele>692</ele>
        <time>2017-10-07T03:24:46Z</time>
      </trkpt>
      <trkpt lat="45.87402" lon="2.8287">
        <ele>693</ele>
        <time>2017-10-07T03:26:46Z</time>
      </trkpt>
      <trkpt lat="45.87404" lon="2.82876">
        <ele>694</ele>
        <time>2017-10-07T03:28:46Z</time>
      </trkpt>
      <trkpt lat="45.87403" lon="2.8288">
        <ele>694</ele>
        <time>2017-10-07T03:30:46Z</time>
      </trkpt>
      <trkpt lat="45.87403" lon="2.82891">
        <ele>695</ele>
        <time>2017-10-07T03:32:46Z</time>
      </trkpt>
      <trkpt lat="45.87403" lon="2.82897">
        <ele>695</ele>
        <time>2017-10-07T03:34:46Z</time>
      </trkpt>
      <trkpt lat="45.87405" lon="2.82914">
        <ele>697</ele>
        <time>2017-10-07T03:36:46Z</time>
      </trkpt>
      <trkpt lat="45.87405" lon="2.82925">
        <ele>698</ele>
        <time>2017-10-07T03:38:46Z</time>
      </trkpt>
      <trkpt lat="45.87404" lon="2.82936">
        <ele>698</ele>
        <time>2017-10-07T03:40:46Z</time>
      </trkpt>
      <trkpt lat="45.87402" lon="2.82944">
        <ele>698</ele>
        <time>2017-10-07T03:42:46Z</time>
      </trkpt>
      <trkpt lat="45.87399" lon="2.82955">
        <ele>698</ele>
        <time>2017-10-07T03:44:46Z</time>
      </trkpt>
      <trkpt lat="45.87396" lon="2.82965">
        <ele>699</ele>
        <time>2017-10-07T03:46:46Z</time>
      </trkpt>
      <trkpt lat="45.87389" lon="2.82988">
        <ele>700</ele>
        <time>2017-10-07T03:48:46Z</time>
      </trkpt>
      <trkpt lat="45.87386" lon="2.82999">
        <ele>700</ele>
        <time>2017-10-07T03:50:46Z</time>
      </trkpt>
      <trkpt lat="45.87379" lon="2.83026">
        <ele>700</ele>
        <time>2017-10-07T03:52:46Z</time>
      </trkpt>
      <trkpt lat="45.87379" lon="2.83031">
        <ele>701</ele>
        <time>2017-10-07T03:54:46Z</time>
      </trkpt>
      <trkpt lat="45.87375" lon="2.83045">
        <ele>701</ele>
        <time>2017-10-07T03:56:46Z</time>
      </trkpt>
      <trkpt lat="45.87369" lon="2.83074">
        <ele>701</ele>
        <time>2017-10-07T03:58:46Z</time>
      </trkpt>
      <trkpt lat="45.87366" lon="2.8309">
        <ele>702</ele>
        <time>2017-10-07T04:00:46Z</time>
      </trkpt>
      <trkpt lat="45.87364" lon="2.831">
        <ele>702</ele>
        <time>2017-10-07T04:02:46Z</time>
      </trkpt>
      <trkpt lat="45.87351" lon="2.83146">
        <ele>704</ele>
        <time>2017-10-07T04:04:46Z</time>
      </trkpt>
      <trkpt lat="45.87343" lon="2.83168">
        <ele>705</ele>
        <time>2017-10-07T04:06:46Z</time>
      </trkpt>
      <trkpt lat="45.8734" lon="2.8318">
        <ele>705</ele>
        <time>2017-10-07T04:08:46Z</time>
      </trkpt>
      <trkpt lat="45.87338" lon="2.83191">
        <ele>706</ele>
        <time>2017-10-07T04:10:46Z</time>
      </trkpt>
      <trkpt lat="45.87337" lon="2.83198">
        <ele>706</ele>
        <time>2017-10-07T04:12:46Z</time>
      </trkpt>
      <trkpt lat="45.87339" lon="2.8321">
        <ele>706</ele>
        <time>2017-10-07T04:14:46Z</time>
      </trkpt>
      <trkpt lat="45.87342" lon="2.83228">
        <ele>707</ele>
        <time>2017-10-07T04:16:46Z</time>
      </trkpt>
      <trkpt lat="45.87343" lon="2.83231">
        <ele>707</ele>
        <time>2017-10-07T04:18:46Z</time>
      </trkpt>
      <trkpt lat="45.87348" lon="2.83252">
        <ele>707</ele>
        <time>2017-10-07T04:20:46Z</time>
      </trkpt>
      <trkpt lat="45.8735" lon="2.83256">
        <ele>707</ele>
        <time>2017-10-07T04:22:46Z</time>
      </trkpt>
      <trkpt lat="45.87354" lon="2.83262">
        <ele>708</ele>
        <time>2017-10-07T04:24:46Z</time>
      </trkpt>
      <trkpt lat="45.87359" lon="2.83264">
        <ele>708</ele>
        <time>2017-10-07T04:26:46Z</time>
      </trkpt>
      <trkpt lat="45.8737" lon="2.83266">
        <ele>708</ele>
        <time>2017-10-07T04:28:46Z</time>
      </trkpt>
      <trkpt lat="45.87375" lon="2.83268">
        <ele>708</ele>
        <time>2017-10-07T04:30:46Z</time>
      </trkpt>
      <trkpt lat="45.87382" lon="2.83269">
        <ele>708</ele>
        <time>2017-10-07T04:32:46Z</time>
      </trkpt>
      <trkpt lat="45.87384" lon="2.83271">
        <ele>709</ele>
        <time>2017-10-07T04:34:46Z</time>
      </trkpt>
      <trkpt lat="45.87388" lon="2.83273">
        <ele>709</ele>
        <time>2017-10-07T04:36:46Z</time>
      </trkpt>
      <trkpt lat="45.87398" lon="2.83274">
        <ele>709</ele>
        <time>2017-10-07T04:38:46Z</time>
      </trkpt>
      <trkpt lat="45.87407" lon="2.83276">
        <ele>709</ele>
        <time>2017-10-07T04:40:46Z</time>
      </trkpt>
      <trkpt lat="45.87415" lon="2.83277">
        <ele>709</ele>
        <time>2017-10-07T04:42:46Z</time>
      </trkpt>
      <trkpt lat="45.87423" lon="2.83281">
        <ele>709</ele>
        <time>2017-10-07T04:44:46Z</time>
      </trkpt>
      <trkpt lat="45.8743" lon="2.83284">
        <ele>709</ele>
        <time>2017-10-07T04:46:46Z</time>
      </trkpt>
      <trkpt lat="45.87437" lon="2.83289">
        <ele>708</ele>
        <time>2017-10-07T04:48:46Z</time>
      </trkpt>
      <trkpt lat="45.87443" lon="2.83295">
        <ele>708</ele>
        <time>2017-10-07T04:50:46Z</time>
      </trkpt>
      <trkpt lat="45.8745" lon="2.83299">
        <ele>708</ele>
        <time>2017-10-07T04:52:46Z</time>
      </trkpt>
      <trkpt lat="45.87454" lon="2.83301">
        <ele>708</ele>
        <time>2017-10-07T04:54:46Z</time>
      </trkpt>
      <trkpt lat="45.87465" lon="2.83303">
        <ele>707</ele>
        <time>2017-10-07T04:56:46Z</time>
      </trkpt>
      <trkpt lat="45.87485" lon="2.83311">
        <ele>706</ele>
        <time>2017-10-07T04:58:46Z</time>
      </trkpt>
      <trkpt lat="45.87493" lon="2.83315">
        <ele>706</ele>
        <time>2017-10-07T05:00:46Z</time>
      </trkpt>
      <trkpt lat="45.87513" lon="2.83326">
        <ele>706</ele>
        <time>2017-10-07T05:02:46Z</time>
      </trkpt>
      <trkpt lat="45.87531" lon="2.83336">
        <ele>707</ele>
        <time>2017-10-07T05:04:46Z</time>
      </trkpt>
      <trkpt lat="45.8754" lon="2.83343">
        <ele>708</ele>
        <time>2017-10-07T05:06:46Z</time>
      </trkpt>
      <trkpt lat="45.87547" lon="2.83349">
        <ele>709</ele>
        <time>2017-10-07T05:08:46Z</time>
      </trkpt>
      <trkpt lat="45.87558" lon="2.83363">
        <ele>711</ele>
        <time>2017-10-07T05:10:46Z</time>
      </trkpt>
      <trkpt lat="45.87577" lon="2.83384">
        <ele>714</ele>
        <time>2017-10-07T05:12:46Z</time>
      </trkpt>
      <trkpt lat="45.87587" lon="2.83396">
        <ele>716</ele>
        <time>2017-10-07T05:14:46Z</time>
      </trkpt>
      <trkpt lat="45.87592" lon="2.83401">
        <ele>717</ele>
        <time>2017-10-07T05:16:46Z</time>
      </trkpt>
      <trkpt lat="45.87598" lon="2.83405">
        <ele>717</ele>
        <time>2017-10-07T05:18:46Z</time>
      </trkpt>
      <trkpt lat="45.87609" lon="2.83408">
        <ele>718</ele>
        <time>2017-10-07T05:20:46Z</time>
      </trkpt>
      <trkpt lat="45.87618" lon="2.83408">
        <ele>718</ele>
        <time>2017-10-07T05:22:46Z</time>
      </trkpt>
      <trkpt lat="45.8762" lon="2.83408">
        <ele>718</ele>
        <time>2017-10-07T05:24:46Z</time>
      </trkpt>
      <trkpt lat="45.87623" lon="2.83408">
        <ele>718</ele>
        <time>2017-10-07T05:26:46Z</time>
      </trkpt>
      <trkpt lat="45.87627" lon="2.8341">
        <ele>718</ele>
        <time>2017-10-07T05:28:46Z</time>
      </trkpt>
      <trkpt lat="45.87629" lon="2.83411">
        <ele>718</ele>
        <time>2017-10-07T05:30:46Z</time>
      </trkpt>
      <trkpt lat="45.87632" lon="2.8341">
        <ele>718</ele>
        <time>2017-10-07T05:32:46Z</time>
      </trkpt>
      <trkpt lat="45.87634" lon="2.83411">
        <ele>718</ele>
        <time>2017-10-07T05:34:46Z</time>
      </trkpt>
      <trkpt lat="45.8764" lon="2.83412">
        <ele>718</ele>
        <time>2017-10-07T05:36:46Z</time>
      </trkpt>
      <trkpt lat="45.87645" lon="2.83415">
        <ele>719</ele>
        <time>2017-10-07T05:38:46Z</time>
      </trkpt>
      <trkpt lat="45.8765" lon="2.8342">
        <ele>719</ele>
        <time>2017-10-07T05:40:46Z</time>
      </trkpt>
      <trkpt lat="45.87654" lon="2.83426">
        <ele>719</ele>
        <time>2017-10-07T05:42:46Z</time>
      </trkpt>
      <trkpt lat="45.87656" lon="2.83429">
        <ele>720</ele>
        <time>2017-10-07T05:44:46Z</time>
      </trkpt>
      <trkpt lat="45.8766" lon="2.83435">
        <ele>720</ele>
        <time>2017-10-07T05:46:46Z</time>
      </trkpt>
      <trkpt lat="45.87667" lon="2.83449">
        <ele>721</ele>
        <time>2017-10-07T05:48:46Z</time>
      </trkpt>
      <trkpt lat="45.87671" lon="2.83454">
        <ele>721</ele>
        <time>2017-10-07T05:50:46Z</time>
      </trkpt>
      <trkpt lat="45.87673" lon="2.83457">
        <ele>721</ele>
        <time>2017-10-07T05:52:46Z</time>
      </trkpt>
      <trkpt lat="45.87675" lon="2.83462">
        <ele>721</ele>
        <time>2017-10-07T05:54:46Z</time>
      </trkpt>
      <trkpt lat="45.87678" lon="2.83466">
        <ele>721</ele>
        <time>2017-10-07T05:56:46Z</time>
      </trkpt>
      <trkpt lat="45.87681" lon="2.83469">
        <ele>721</ele>
        <time>2017-10-07T05:58:46Z</time>
      </trkpt>
      <trkpt lat="45.87684" lon="2.83471">
        <ele>721</ele>
        <time>2017-10-07T06:00:46Z</time>
      </trkpt>
      <trkpt lat="45.87687" lon="2.83476">
        <ele>721</ele>
        <time>2017-10-07T06:02:46Z</time>
      </trkpt>
      <trkpt lat="45.87691" lon="2.83482">
        <ele>722</ele>
        <time>2017-10-07T06:04:46Z</time>
      </trkpt>
      <trkpt lat="45.87698" lon="2.83488">
        <ele>722</ele>
        <time>2017-10-07T06:06:46Z</time>
      </trkpt>
      <trkpt lat="45.87703" lon="2.83492">
        <ele>722</ele>
        <time>2017-10-07T06:08:46Z</time>
      </trkpt>
      <trkpt lat="45.87708" lon="2.83501">
        <ele>723</ele>
        <time>2017-10-07T06:10:46Z</time>
      </trkpt>
      <trkpt lat="45.87711" lon="2.83503">
        <ele>723</ele>
        <time>2017-10-07T06:12:46Z</time>
      </trkpt>
      <trkpt lat="45.87714" lon="2.83504">
        <ele>723</ele>
        <time>2017-10-07T06:14:46Z</time>
      </trkpt>
      <trkpt lat="45.87716" lon="2.83506">
        <ele>723</ele>
        <time>2017-10-07T06:16:46Z</time>
      </trkpt>
      <trkpt lat="45.87722" lon="2.83515">
        <ele>723</ele>
        <time>2017-10-07T06:18:46Z</time>
      </trkpt>
      <trkpt lat="45.87732" lon="2.83521">
        <ele>723</ele>
        <time>2017-10-07T06:20:46Z</time>
      </trkpt>
      <trkpt lat="45.87738" lon="2.83527">
        <ele>723</ele>
        <time>2017-10-07T06:22:46Z</time>
      </trkpt>
      <trkpt lat="45.87746" lon="2.83534">
        <ele>724</ele>
        <time>2017-10-07T06:24:46Z</time>
      </trkpt>
      <trkpt lat="45.87765" lon="2.83548">
        <ele>724</ele>
        <time>2017-10-07T06:26:46Z</time>
      </trkpt>
      <trkpt lat="45.87792" lon="2.83565">
        <ele>724</ele>
        <time>2017-10-07T06:28:46Z</time>
      </trkpt>
      <trkpt lat="45.87816" lon="2.83578">
        <ele>724</ele>
        <time>2017-10-07T06:30:46Z</time>
      </trkpt>
      <trkpt lat="45.87832" lon="2.83587">
        <ele>724</ele>
        <time>2017-10-07T06:32:46Z</time>
      </trkpt>
      <trkpt lat="45.87848" lon="2.83594">
        <ele>723</ele>
        <time>2017-10-07T06:34:46Z</time>
      </trkpt>
      <trkpt lat="45.87856" lon="2.83599">
        <ele>723</ele>
        <time>2017-10-07T06:36:46Z</time>
      </trkpt>
      <trkpt lat="45.87881" lon="2.83611">
        <ele>722</ele>
        <time>2017-10-07T06:38:46Z</time>
      </trkpt>
      <trkpt lat="45.87895" lon="2.83618">
        <ele>721</ele>
        <time>2017-10-07T06:40:46Z</time>
      </trkpt>
      <trkpt lat="45.87904" lon="2.83624">
        <ele>720</ele>
        <time>2017-10-07T06:42:46Z</time>
      </trkpt>
      <trkpt lat="45.87924" lon="2.83635">
        <ele>719</ele>
        <time>2017-10-07T06:44:46Z</time>
      </trkpt>
      <trkpt lat="45.87956" lon="2.83653">
        <ele>720</ele>
        <time>2017-10-07T06:46:46Z</time>
      </trkpt>
      <trkpt lat="45.8799" lon="2.8367">
        <ele>720</ele>
        <time>2017-10-07T06:48:46Z</time>
      </trkpt>
      <trkpt lat="45.88029" lon="2.83691">
        <ele>719</ele>
        <time>2017-10-07T06:50:46Z</time>
      </trkpt>
      <trkpt lat="45.88027" lon="2.83704">
        <ele>718</ele>
        <time>2017-10-07T06:52:46Z</time>
      </trkpt>
      <trkpt lat="45.88026" lon="2.83705">
        <ele>717</ele>
        <time>2017-10-07T06:54:46Z</time>
      </trkpt>
      <trkpt lat="45.88024" lon="2.8371">
        <ele>716</ele>
        <time>2017-10-07T06:56:46Z</time>
      </trkpt>
      <trkpt lat="45.88022" lon="2.83719">
        <ele>715</ele>
        <time>2017-10-07T06:58:46Z</time>
      </trkpt>
      <trkpt lat="45.88021" lon="2.83722">
        <ele>714</ele>
        <time>2017-10-07T07:00:46Z</time>
      </trkpt>
      <trkpt lat="45.88021" lon="2.83725">
        <ele>714</ele>
        <time>2017-10-07T07:02:46Z</time>
      </trkpt>
      <trkpt lat="45.88022" lon="2.83728">
        <ele>714</ele>
        <time>2017-10-07T07:04:46Z</time>
      </trkpt>
      <trkpt lat="45.88025" lon="2.83734">
        <ele>714</ele>
        <time>2017-10-07T07:06:46Z</time>
      </trkpt>
      <trkpt lat="45.88033" lon="2.83746">
        <ele>714</ele>
        <time>2017-10-07T07:08:46Z</time>
      </trkpt>
      <trkpt lat="45.88037" lon="2.83755">
        <ele>714</ele>
        <time>2017-10-07T07:10:46Z</time>
      </trkpt>
      <trkpt lat="45.88039" lon="2.83759">
        <ele>714</ele>
        <time>2017-10-07T07:12:46Z</time>
      </trkpt>
      <trkpt lat="45.88041" lon="2.83763">
        <ele>714</ele>
        <time>2017-10-07T07:14:46Z</time>
      </trkpt>
      <trkpt lat="45.88045" lon="2.83769">
        <ele>714</ele>
        <time>2017-10-07T07:16:46Z</time>
      </trkpt>
      <trkpt lat="45.8805" lon="2.8378">
        <ele>714</ele>
        <time>2017-10-07T07:18:46Z</time>
      </trkpt>
      <trkpt lat="45.88051" lon="2.83784">
        <ele>714</ele>
        <time>2017-10-07T07:20:46Z</time>
      </trkpt>
      <trkpt lat="45.88052" lon="2.83787">
        <ele>714</ele>
        <time>2017-10-07T07:22:46Z</time>
      </trkpt>
      <trkpt lat="45.88052" lon="2.83791">
        <ele>713</ele>
        <time>2017-10-07T07:24:46Z</time>
      </trkpt>
      <trkpt lat="45.88053" lon="2.83793">
        <ele>714</ele>
        <time>2017-10-07T07:26:46Z</time>
      </trkpt>
      <trkpt lat="45.88053" lon="2.83797">
        <ele>713</ele>
        <time>2017-10-07T07:28:46Z</time>
      </trkpt>
      <trkpt lat="45.88053" lon="2.83801">
        <ele>713</ele>
        <time>2017-10-07T07:30:46Z</time>
      </trkpt>
      <trkpt lat="45.88053" lon="2.83807">
        <ele>712</ele>
        <time>2017-10-07T07:32:46Z</time>
      </trkpt>
      <trkpt lat="45.88053" lon="2.8381">
        <ele>712</ele>
        <time>2017-10-07T07:34:46Z</time>
      </trkpt>
      <trkpt lat="45.88056" lon="2.83818">
        <ele>712</ele>
        <time>2017-10-07T07:36:46Z</time>
      </trkpt>
      <trkpt lat="45.88057" lon="2.83821">
        <ele>712</ele>
        <time>2017-10-07T07:38:46Z</time>
      </trkpt>
      <trkpt lat="45.88059" lon="2.83824">
        <ele>713</ele>
        <time>2017-10-07T07:40:46Z</time>
      </trkpt>
      <trkpt lat="45.8806" lon="2.83827">
        <ele>713</ele>
        <time>2017-10-07T07:42:46Z</time>
      </trkpt>
      <trkpt lat="45.88062" lon="2.83831">
        <ele>713</ele>
        <time>2017-10-07T07:44:46Z</time>
      </trkpt>
      <trkpt lat="45.88063" lon="2.8384">
        <ele>713</ele>
        <time>2017-10-07T07:46:46Z</time>
      </trkpt>
      <trkpt lat="45.88067" lon="2.83852">
        <ele>713</ele>
        <time>2017-10-07T07:48:46Z</time>
      </trkpt>
      <trkpt lat="45.88067" lon="2.83855">
        <ele>713</ele>
        <time>2017-10-07T07:50:46Z</time>
      </trkpt>
      <trkpt lat="45.88067" lon="2.8386">
        <ele>713</ele>
        <time>2017-10-07T07:52:46Z</time>
      </trkpt>
      <trkpt lat="45.88068" lon="2.83865">
        <ele>713</ele>
        <time>2017-10-07T07:54:46Z</time>
      </trkpt>
      <trkpt lat="45.88069" lon="2.83877">
        <ele>712</ele>
        <time>2017-10-07T07:56:46Z</time>
      </trkpt>
      <trkpt lat="45.88068" lon="2.83882">
        <ele>711</ele>
        <time>2017-10-07T07:58:46Z</time>
      </trkpt>
      <trkpt lat="45.8807" lon="2.83899">
        <ele>711</ele>
        <time>2017-10-07T08:00:46Z</time>
      </trkpt>
      <trkpt lat="45.8807" lon="2.83905">
        <ele>710</ele>
        <time>2017-10-07T08:02:46Z</time>
      </trkpt>
      <trkpt lat="45.88069" lon="2.83917">
        <ele>708</ele>
        <time>2017-10-07T08:04:46Z</time>
      </trkpt>
      <trkpt lat="45.88069" lon="2.83923">
        <ele>708</ele>
        <time>2017-10-07T08:06:46Z</time>
      </trkpt>
      <trkpt lat="45.88069" lon="2.83929">
        <ele>708</ele>
        <time>2017-10-07T08:08:46Z</time>
      </trkpt>
      <trkpt lat="45.88067" lon="2.83945">
        <ele>706</ele>
        <time>2017-10-07T08:10:46Z</time>
      </trkpt>
      <trkpt lat="45.88066" lon="2.83949">
        <ele>706</ele>
        <time>2017-10-07T08:12:46Z</time>
      </trkpt>
      <trkpt lat="45.88065" lon="2.83953">
        <ele>705</ele>
        <time>2017-10-07T08:14:46Z</time>
      </trkpt>
      <trkpt lat="45.88064" lon="2.83957">
        <ele>704</ele>
        <time>2017-10-07T08:16:46Z</time>
      </trkpt>
      <trkpt lat="45.88061" lon="2.83967">
        <ele>703</ele>
        <time>2017-10-07T08:18:46Z</time>
      </trkpt>
      <trkpt lat="45.8806" lon="2.83972">
        <ele>702</ele>
        <time>2017-10-07T08:20:46Z</time>
      </trkpt>
      <trkpt lat="45.88059" lon="2.83982">
        <ele>701</ele>
        <time>2017-10-07T08:22:46Z</time>
      </trkpt>
      <trkpt lat="45.88059" lon="2.83988">
        <ele>701</ele>
        <time>2017-10-07T08:24:46Z</time>
      </trkpt>
      <trkpt lat="45.88057" lon="2.83998">
        <ele>699</ele>
        <time>2017-10-07T08:26:46Z</time>
      </trkpt>
      <trkpt lat="45.88056" lon="2.84019">
        <ele>698</ele>
        <time>2017-10-07T08:28:46Z</time>
      </trkpt>
      <trkpt lat="45.88056" lon="2.84027">
        <ele>697</ele>
        <time>2017-10-07T08:30:46Z</time>
      </trkpt>
      <trkpt lat="45.88055" lon="2.84034">
        <ele>696</ele>
        <time>2017-10-07T08:32:46Z</time>
      </trkpt>
      <trkpt lat="45.88055" lon="2.84037">
        <ele>696</ele>
        <time>2017-10-07T08:34:46Z</time>
      </trkpt>
      <trkpt lat="45.88057" lon="2.8405">
        <ele>696</ele>
        <time>2017-10-07T08:36:46Z</time>
      </trkpt>
      <trkpt lat="45.88059" lon="2.84065">
        <ele>696</ele>
        <time>2017-10-07T08:38:46Z</time>
      </trkpt>
      <trkpt lat="45.88059" lon="2.84068">
        <ele>695</ele>
        <time>2017-10-07T08:40:46Z</time>
      </trkpt>
      <trkpt lat="45.88061" lon="2.84078">
        <ele>695</ele>
        <time>2017-10-07T08:42:46Z</time>
      </trkpt>
      <trkpt lat="45.88061" lon="2.84086">
        <ele>694</ele>
        <time>2017-10-07T08:44:46Z</time>
      </trkpt>
      <trkpt lat="45.88064" lon="2.84098">
        <ele>694</ele>
        <time>2017-10-07T08:46:46Z</time>
      </trkpt>
      <trkpt lat="45.88065" lon="2.84099">
        <ele>694</ele>
        <time>2017-10-07T08:48:46Z</time>
      </trkpt>
      <trkpt lat="45.88067" lon="2.84101">
        <ele>694</ele>
        <time>2017-10-07T08:50:46Z</time>
      </trkpt>
      <trkpt lat="45.88067" lon="2.84104">
        <ele>693</ele>
        <time>2017-10-07T08:52:46Z</time>
      </trkpt>
      <trkpt lat="45.88068" lon="2.8411">
        <ele>693</ele>
        <time>2017-10-07T08:54:46Z</time>
      </trkpt>
      <trkpt lat="45.8807" lon="2.84118">
        <ele>692</ele>
        <time>2017-10-07T08:56:46Z</time>
      </trkpt>
      <trkpt lat="45.88072" lon="2.84122">
        <ele>691</ele>
        <time>2017-10-07T08:58:46Z</time>
      </trkpt>
      <trkpt lat="45.88072" lon="2.84126">
        <ele>691</ele>
        <time>2017-10-07T09:00:46Z</time>
      </trkpt>
      <trkpt lat="45.88072" lon="2.84128">
        <ele>691</ele>
        <time>2017-10-07T09:02:46Z</time>
      </trkpt>
      <trkpt lat="45.88072" lon="2.84133">
        <ele>690</ele>
        <time>2017-10-07T09:04:46Z</time>
      </trkpt>
      <trkpt lat="45.88072" lon="2.84135">
        <ele>689</ele>
        <time>2017-10-07T09:06:46Z</time>
      </trkpt>
      <trkpt lat="45.88073" lon="2.84137">
        <ele>689</ele>
        <time>2017-10-07T09:08:46Z</time>
      </trkpt>
      <trkpt lat="45.88074" lon="2.84141">
        <ele>689</ele>
        <time>2017-10-07T09:10:46Z</time>
      </trkpt>
      <trkpt lat="45.88075" lon="2.84147">
        <ele>688</ele>
        <time>2017-10-07T09:12:46Z</time>
      </trkpt>
      <trkpt lat="45.88077" lon="2.84149">
        <ele>687</ele>
        <time>2017-10-07T09:14:46Z</time>
      </trkpt>
      <trkpt lat="45.88078" lon="2.8415">
        <ele>687</ele>
        <time>2017-10-07T09:16:46Z</time>
      </trkpt>
      <trkpt lat="45.8808" lon="2.84153">
        <ele>687</ele>
        <time>2017-10-07T09:18:46Z</time>
      </trkpt>
      <trkpt lat="45.88081" lon="2.84154">
        <ele>687</ele>
        <time>2017-10-07T09:20:46Z</time>
      </trkpt>
      <trkpt lat="45.88084" lon="2.84156">
        <ele>686</ele>
        <time>2017-10-07T09:22:46Z</time>
      </trkpt>
      <trkpt lat="45.88087" lon="2.84161">
        <ele>686</ele>
        <time>2017-10-07T09:24:46Z</time>
      </trkpt>
      <trkpt lat="45.88088" lon="2.84165">
        <ele>685</ele>
        <time>2017-10-07T09:26:46Z</time>
      </trkpt>
      <trkpt lat="45.88091" lon="2.84169">
        <ele>686</ele>
        <time>2017-10-07T09:28:46Z</time>
      </trkpt>
      <trkpt lat="45.88092" lon="2.84172">
        <ele>686</ele>
        <time>2017-10-07T09:30:46Z</time>
      </trkpt>
      <trkpt lat="45.88095" lon="2.84178">
        <ele>686</ele>
        <time>2017-10-07T09:32:46Z</time>
      </trkpt>
      <trkpt lat="45.88099" lon="2.84187">
        <ele>686</ele>
        <time>2017-10-07T09:34:46Z</time>
      </trkpt>
      <trkpt lat="45.88101" lon="2.84189">
        <ele>687</ele>
        <time>2017-10-07T09:36:46Z</time>
      </trkpt>
      <trkpt lat="45.88103" lon="2.84191">
        <ele>687</ele>
        <time>2017-10-07T09:38:46Z</time>
      </trkpt>
      <trkpt lat="45.88109" lon="2.842">
        <ele>687</ele>
        <time>2017-10-07T09:40:46Z</time>
      </trkpt>
      <trkpt lat="45.88113" lon="2.84207">
        <ele>687</ele>
        <time>2017-10-07T09:42:46Z</time>
      </trkpt>
      <trkpt lat="45.88114" lon="2.84208">
        <ele>687</ele>
        <time>2017-10-07T09:44:46Z</time>
      </trkpt>
      <trkpt lat="45.88115" lon="2.84209">
        <ele>687</ele>
        <time>2017-10-07T09:46:46Z</time>
      </trkpt>
      <trkpt lat="45.88115" lon="2.8421">
        <ele>687</ele>
        <time>2017-10-07T09:48:46Z</time>
      </trkpt>
      <trkpt lat="45.88115" lon="2.84211">
        <ele>687</ele>
        <time>2017-10-07T09:50:46Z</time>
      </trkpt>
      <trkpt lat="45.88116" lon="2.84212">
        <ele>687</ele>
        <time>2017-10-07T09:52:46Z</time>
      </trkpt>
      <trkpt lat="45.88115" lon="2.84213">
        <ele>687</ele>
        <time>2017-10-07T09:54:46Z</time>
      </trkpt>
      <trkpt lat="45.88116" lon="2.84214">
        <ele>687</ele>
        <time>2017-10-07T09:56:46Z</time>
      </trkpt>
      <trkpt lat="45.88115" lon="2.84215">
        <ele>686</ele>
        <time>2017-10-07T09:58:46Z</time>
      </trkpt>
      <trkpt lat="45.8811" lon="2.84216">
        <ele>686</ele>
        <time>2017-10-07T10:00:46Z</time>
      </trkpt>
      <trkpt lat="45.8811" lon="2.84215">
        <ele>686</ele>
        <time>2017-10-07T10:02:46Z</time>
      </trkpt>
      <trkpt lat="45.88104" lon="2.84215">
        <ele>685</ele>
        <time>2017-10-07T10:04:46Z</time>
      </trkpt>
      <trkpt lat="45.881" lon="2.84214">
        <ele>685</ele>
        <time>2017-10-07T10:06:46Z</time>
      </trkpt>
      <trkpt lat="45.88098" lon="2.84214">
        <ele>685</ele>
        <time>2017-10-07T10:08:46Z</time>
      </trkpt>
      <trkpt lat="45.88097" lon="2.84215">
        <ele>685</ele>
        <time>2017-10-07T10:10:46Z</time>
      </trkpt>
      <trkpt lat="45.88095" lon="2.8422">
        <ele>684</ele>
        <time>2017-10-07T10:12:46Z</time>
      </trkpt>
      <trkpt lat="45.88094" lon="2.84222">
        <ele>684</ele>
        <time>2017-10-07T10:14:46Z</time>
      </trkpt>
      <trkpt lat="45.88093" lon="2.84224">
        <ele>684</ele>
        <time>2017-10-07T10:16:46Z</time>
      </trkpt>
      <trkpt lat="45.88093" lon="2.84227">
        <ele>684</ele>
        <time>2017-10-07T10:18:46Z</time>
      </trkpt>
      <trkpt lat="45.88095" lon="2.84229">
        <ele>684</ele>
        <time>2017-10-07T10:20:46Z</time>
      </trkpt>
      <trkpt lat="45.88099" lon="2.84232">
        <ele>684</ele>
        <time>2017-10-07T10:22:46Z</time>
      </trkpt>
      <trkpt lat="45.88101" lon="2.84232">
        <ele>684</ele>
        <time>2017-10-07T10:24:46Z</time>
      </trkpt>
      <trkpt lat="45.88109" lon="2.84237">
        <ele>684</ele>
        <time>2017-10-07T10:26:46Z</time>
      </trkpt>
      <trkpt lat="45.88114" lon="2.84238">
        <ele>684</ele>
        <time>2017-10-07T10:28:46Z</time>
      </trkpt>
      <trkpt lat="45.88116" lon="2.84239">
        <ele>684</ele>
        <time>2017-10-07T10:30:46Z</time>
      </trkpt>
      <trkpt lat="45.88119" lon="2.84242">
        <ele>684</ele>
        <time>2017-10-07T10:32:46Z</time>
      </trkpt>
      <trkpt lat="45.88122" lon="2.84244">
        <ele>684</ele>
        <time>2017-10-07T10:34:46Z</time>
      </trkpt>
      <trkpt lat="45.88125" lon="2.84248">
        <ele>683</ele>
        <time>2017-10-07T10:36:46Z</time>
      </trkpt>
      <trkpt lat="45.88128" lon="2.84251">
        <ele>683</ele>
        <time>2017-10-07T10:38:46Z</time>
      </trkpt>
      <trkpt lat="45.88132" lon="2.84254">
        <ele>683</ele>
        <time>2017-10-07T10:40:46Z</time>
      </trkpt>
      <trkpt lat="45.88134" lon="2.84256">
        <ele>684</ele>
        <time>2017-10-07T10:42:46Z</time>
      </trkpt>
      <trkpt lat="45.88137" lon="2.84262">
        <ele>684</ele>
        <time>2017-10-07T10:44:46Z</time>
      </trkpt>
      <trkpt lat="45.88138" lon="2.84264">
        <ele>684</ele>
        <time>2017-10-07T10:46:46Z</time>
      </trkpt>
      <trkpt lat="45.8814" lon="2.84266">
        <ele>684</ele>
        <time>2017-10-07T10:48:46Z</time>
      </trkpt>
      <trkpt lat="45.88143" lon="2.84271">
        <ele>684</ele>
        <time>2017-10-07T10:50:46Z</time>
      </trkpt>
      <trkpt lat="45.88145" lon="2.84275">
        <ele>684</ele>
        <time>2017-10-07T10:52:46Z</time>
      </trkpt>
      <trkpt lat="45.88146" lon="2.84279">
        <ele>685</ele>
        <time>2017-10-07T10:54:46Z</time>
      </trkpt>
      <trkpt lat="45.88147" lon="2.8428">
        <ele>685</ele>
        <time>2017-10-07T10:56:46Z</time>
      </trkpt>
      <trkpt lat="45.88147" lon="2.84282">
        <ele>685</ele>
        <time>2017-10-07T10:58:46Z</time>
      </trkpt>
      <trkpt lat="45.88146" lon="2.8429">
        <ele>685</ele>
        <time>2017-10-07T11:00:46Z</time>
      </trkpt>
      <trkpt lat="45.88146" lon="2.84293">
        <ele>685</ele>
        <time>2017-10-07T11:02:46Z</time>
      </trkpt>
      <trkpt lat="45.88147" lon="2.84296">
        <ele>685</ele>
        <time>2017-10-07T11:04:46Z</time>
      </trkpt>
      <trkpt lat="45.88147" lon="2.84298">
        <ele>685</ele>
        <time>2017-10-07T11:06:46Z</time>
      </trkpt>
      <trkpt lat="45.88147" lon="2.84299">
        <ele>685</ele>
        <time>2017-10-07T11:08:46Z</time>
      </trkpt>
      <trkpt lat="45.88147" lon="2.84301">
        <ele>686</ele>
        <time>2017-10-07T11:10:46Z</time>
      </trkpt>
      <trkpt lat="45.88147" lon="2.84309">
        <ele>686</ele>
        <time>2017-10-07T11:12:46Z</time>
      </trkpt>
      <trkpt lat="45.88146" lon="2.84313">
        <ele>686</ele>
        <time>2017-10-07T11:14:46Z</time>
      </trkpt>
      <trkpt lat="45.88143" lon="2.84318">
        <ele>687</ele>
        <time>2017-10-07T11:16:46Z</time>
      </trkpt>
      <trkpt lat="45.88142" lon="2.8432">
        <ele>688</ele>
        <time>2017-10-07T11:18:46Z</time>
      </trkpt>
      <trkpt lat="45.88142" lon="2.84326">
        <ele>688</ele>
        <time>2017-10-07T11:20:46Z</time>
      </trkpt>
      <trkpt lat="45.88142" lon="2.84327">
        <ele>688</ele>
        <time>2017-10-07T11:22:46Z</time>
      </trkpt>
      <trkpt lat="45.88141" lon="2.84331">
        <ele>689</ele>
        <time>2017-10-07T11:24:46Z</time>
      </trkpt>
      <trkpt lat="45.88139" lon="2.84336">
        <ele>690</ele>
        <time>2017-10-07T11:26:46Z</time>
      </trkpt>
      <trkpt lat="45.88137" lon="2.84338">
        <ele>690</ele>
        <time>2017-10-07T11:28:46Z</time>
      </trkpt>
      <trkpt lat="45.88133" lon="2.84346">
        <ele>692</ele>
        <time>2017-10-07T11:30:46Z</time>
      </trkpt>
      <trkpt lat="45.88132" lon="2.84346">
        <ele>692</ele>
        <time>2017-10-07T11:32:46Z</time>
      </trkpt>
      <trkpt lat="45.88129" lon="2.84349">
        <ele>694</ele>
        <time>2017-10-07T11:34:46Z</time>
      </trkpt>
      <trkpt lat="45.88129" lon="2.8435">
        <ele>694</ele>
        <time>2017-10-07T11:36:46Z</time>
      </trkpt>
      <trkpt lat="45.88128" lon="2.84352">
        <ele>694</ele>
        <time>2017-10-07T11:38:46Z</time>
      </trkpt>
      <trkpt lat="45.88127" lon="2.84355">
        <ele>695</ele>
        <time>2017-10-07T11:40:46Z</time>
      </trkpt>
      <trkpt lat="45.88124" lon="2.8436">
        <ele>696</ele>
        <time>2017-10-07T11:42:46Z</time>
      </trkpt>
      <trkpt lat="45.88124" lon="2.8436">
        <ele>696</ele>
        <time>2017-10-07T11:44:46Z</time>
      </trkpt>
      <trkpt lat="45.88122" lon="2.84363">
        <ele>697</ele>
        <time>2017-10-07T11:46:46Z</time>
      </trkpt>
      <trkpt lat="45.88121" lon="2.84366">
        <ele>698</ele>
        <time>2017-10-07T11:48:46Z</time>
      </trkpt>
      <trkpt lat="45.88123" lon="2.84368">
        <ele>698</ele>
        <time>2017-10-07T11:50:46Z</time>
      </trkpt>
      <trkpt lat="45.88122" lon="2.84371">
        <ele>698</ele>
        <time>2017-10-07T11:52:46Z</time>
      </trkpt>
      <trkpt lat="45.88122" lon="2.84373">
        <ele>698</ele>
        <time>2017-10-07T11:54:46Z</time>
      </trkpt>
      <trkpt lat="45.88121" lon="2.84375">
        <ele>699</ele>
        <time>2017-10-07T11:56:46Z</time>
      </trkpt>
      <trkpt lat="45.88121" lon="2.84376">
        <ele>699</ele>
        <time>2017-10-07T11:58:46Z</time>
      </trkpt>
      <trkpt lat="45.8812" lon="2.84383">
        <ele>700</ele>
        <time>2017-10-07T12:00:46Z</time>
      </trkpt>
      <trkpt lat="45.8812" lon="2.84388">
        <ele>701</ele>
        <time>2017-10-07T12:02:46Z</time>
      </trkpt>
      <trkpt lat="45.88119" lon="2.84392">
        <ele>702</ele>
        <time>2017-10-07T12:04:46Z</time>
      </trkpt>
      <trkpt lat="45.88119" lon="2.84394">
        <ele>702</ele>
        <time>2017-10-07T12:06:46Z</time>
      </trkpt>
      <trkpt lat="45.88119" lon="2.84399">
        <ele>703</ele>
        <time>2017-10-07T12:08:46Z</time>
      </trkpt>
      <trkpt lat="45.88119" lon="2.84404">
        <ele>703</ele>
        <time>2017-10-07T12:10:46Z</time>
      </trkpt>
      <trkpt lat="45.88119" lon="2.84406">
        <ele>703</ele>
        <time>2017-10-07T12:12:46Z</time>
      </trkpt>
      <trkpt lat="45.88119" lon="2.84411">
        <ele>704</ele>
        <time>2017-10-07T12:14:46Z</time>
      </trkpt>
      <trkpt lat="45.88118" lon="2.84417">
        <ele>705</ele>
        <time>2017-10-07T12:16:46Z</time>
      </trkpt>
      <trkpt lat="45.88118" lon="2.84421">
        <ele>706</ele>
        <time>2017-10-07T12:18:46Z</time>
      </trkpt>
      <trkpt lat="45.88118" lon="2.84422">
        <ele>706</ele>
        <time>2017-10-07T12:20:46Z</time>
      </trkpt>
      <trkpt lat="45.88119" lon="2.84424">
        <ele>705</ele>
        <time>2017-10-07T12:22:46Z</time>
      </trkpt>
      <trkpt lat="45.88119" lon="2.84426">
        <ele>706</ele>
        <time>2017-10-07T12:24:46Z</time>
      </trkpt>
      <trkpt lat="45.88119" lon="2.84438">
        <ele>707</ele>
        <time>2017-10-07T12:26:46Z</time>
      </trkpt>
      <trkpt lat="45.8812" lon="2.84447">
        <ele>707</ele>
        <time>2017-10-07T12:28:46Z</time>
      </trkpt>
      <trkpt lat="45.8812" lon="2.84454">
        <ele>708</ele>
        <time>2017-10-07T12:30:46Z</time>
      </trkpt>
      <trkpt lat="45.88122" lon="2.84457">
        <ele>708</ele>
        <time>2017-10-07T12:32:46Z</time>
      </trkpt>
      <trkpt lat="45.88123" lon="2.84462">
        <ele>708</ele>
        <time>2017-10-07T12:34:46Z</time>
      </trkpt>
      <trkpt lat="45.88123" lon="2.84465">
        <ele>708</ele>
        <time>2017-10-07T12:36:46Z</time>
      </trkpt>
      <trkpt lat="45.88123" lon="2.84469">
        <ele>709</ele>
        <time>2017-10-07T12:38:46Z</time>
      </trkpt>
      <trkpt lat="45.88123" lon="2.84471">
        <ele>709</ele>
        <time>2017-10-07T12:40:46Z</time>
      </trkpt>
      <trkpt lat="45.88123" lon="2.84473">
        <ele>709</ele>
        <time>2017-10-07T12:42:46Z</time>
      </trkpt>
      <trkpt lat="45.88123" lon="2.84474">
        <ele>709</ele>
        <time>2017-10-07T12:44:46Z</time>
      </trkpt>
      <trkpt lat="45.88122" lon="2.84482">
        <ele>710</ele>
        <time>2017-10-07T12:46:46Z</time>
      </trkpt>
      <trkpt lat="45.88123" lon="2.84486">
        <ele>710</ele>
        <time>2017-10-07T12:48:46Z</time>
      </trkpt>
      <trkpt lat="45.88123" lon="2.84488">
        <ele>710</ele>
        <time>2017-10-07T12:50:46Z</time>
      </trkpt>
      <trkpt lat="45.88122" lon="2.84491">
        <ele>711</ele>
        <time>2017-10-07T12:52:46Z</time>
      </trkpt>
      <trkpt lat="45.88121" lon="2.84493">
        <ele>712</ele>
        <time>2017-10-07T12:54:46Z</time>
      </trkpt>
      <trkpt lat="45.88121" lon="2.84494">
        <ele>712</ele>
        <time>2017-10-07T12:56:46Z</time>
      </trkpt>
      <trkpt lat="45.88121" lon="2.84494">
        <ele>712</ele>
        <time>2017-10-07T12:58:46Z</time>
      </trkpt>
      <trkpt lat="45.88121" lon="2.84498">
        <ele>712</ele>
        <time>2017-10-07T13:00:46Z</time>
      </trkpt>
      <trkpt lat="45.8812" lon="2.845">
        <ele>713</ele>
        <time>2017-10-07T13:02:46Z</time>
      </trkpt>
      <trkpt lat="45.8812" lon="2.84502">
        <ele>713</ele>
        <time>2017-10-07T13:04:46Z</time>
      </trkpt>
      <trkpt lat="45.88119" lon="2.84503">
        <ele>713</ele>
        <time>2017-10-07T13:06:46Z</time>
      </trkpt>
      <trkpt lat="45.88119" lon="2.84504">
        <ele>713</ele>
        <time>2017-10-07T13:08:46Z</time>
      </trkpt>
      <trkpt lat="45.88118" lon="2.84508">
        <ele>713</ele>
        <time>2017-10-07T13:10:46Z</time>
      </trkpt>
      <trkpt lat="45.88118" lon="2.84509">
        <ele>713</ele>
        <time>2017-10-07T13:12:46Z</time>
      </trkpt>
      <trkpt lat="45.88117" lon="2.84511">
        <ele>713</ele>
        <time>2017-10-07T13:14:46Z</time>
      </trkpt>
      <trkpt lat="45.88117" lon="2.84512">
        <ele>713</ele>
        <time>2017-10-07T13:16:46Z</time>
      </trkpt>
      <trkpt lat="45.88116" lon="2.84515">
        <ele>714</ele>
        <time>2017-10-07T13:18:46Z</time>
      </trkpt>
      <trkpt lat="45.88115" lon="2.84521">
        <ele>714</ele>
        <time>2017-10-07T13:20:46Z</time>
      </trkpt>
      <trkpt lat="45.88114" lon="2.84522">
        <ele>714</ele>
        <time>2017-10-07T13:22:46Z</time>
      </trkpt>
      <trkpt lat="45.88113" lon="2.84527">
        <ele>714</ele>
        <time>2017-10-07T13:24:46Z</time>
      </trkpt>
      <trkpt lat="45.88111" lon="2.84531">
        <ele>714</ele>
        <time>2017-10-07T13:26:46Z</time>
      </trkpt>
      <trkpt lat="45.88108" lon="2.84535">
        <ele>715</ele>
        <time>2017-10-07T13:28:46Z</time>
      </trkpt>
      <trkpt lat="45.88104" lon="2.84539">
        <ele>716</ele>
        <time>2017-10-07T13:30:46Z</time>
      </trkpt>
      <trkpt lat="45.88102" lon="2.84542">
        <ele>717</ele>
        <time>2017-10-07T13:32:46Z</time>
      </trkpt>
      <trkpt lat="45.88092" lon="2.84548">
        <ele>720</ele>
        <time>2017-10-07T13:34:46Z</time>
      </trkpt>
      <trkpt lat="45.88089" lon="2.84547">
        <ele>721</ele>
        <time>2017-10-07T13:36:46Z</time>
      </trkpt>
      <trkpt lat="45.88088" lon="2.84546">
        <ele>721</ele>
        <time>2017-10-07T13:38:46Z</time>
      </trkpt>
      <trkpt lat="45.88085" lon="2.84547">
        <ele>722</ele>
        <time>2017-10-07T13:40:46Z</time>
      </trkpt>
      <trkpt lat="45.88084" lon="2.84548">
        <ele>722</ele>
        <time>2017-10-07T13:42:46Z</time>
      </trkpt>
      <trkpt lat="45.88085" lon="2.84551">
        <ele>722</ele>
        <time>2017-10-07T13:44:46Z</time>
      </trkpt>
      <trkpt lat="45.88084" lon="2.84551">
        <ele>722</ele>
        <time>2017-10-07T13:46:46Z</time>
      </trkpt>
      <trkpt lat="45.88083" lon="2.84551">
        <ele>722</ele>
        <time>2017-10-07T13:48:46Z</time>
      </trkpt>
      <trkpt lat="45.88083" lon="2.84549">
        <ele>723</ele>
        <time>2017-10-07T13:50:46Z</time>
      </trkpt>
      <trkpt lat="45.88082" lon="2.84547">
        <ele>723</ele>
        <time>2017-10-07T13:52:46Z</time>
      </trkpt>
      <trkpt lat="45.88082" lon="2.84545">
        <ele>723</ele>
        <time>2017-10-07T13:54:46Z</time>
      </trkpt>
      <trkpt lat="45.88082" lon="2.84544">
        <ele>723</ele>
        <time>2017-10-07T13:56:46Z</time>
      </trkpt>
      <trkpt lat="45.88079" lon="2.8454">
        <ele>724</ele>
        <time>2017-10-07T13:58:46Z</time>
      </trkpt>
      <trkpt lat="45.88075" lon="2.84534">
        <ele>724</ele>
        <time>2017-10-07T14:00:46Z</time>
      </trkpt>
      <trkpt lat="45.88069" lon="2.84529">
        <ele>726</ele>
        <time>2017-10-07T14:02:46Z</time>
      </trkpt>
      <trkpt lat="45.88064" lon="2.84523">
        <ele>726</ele>
        <time>2017-10-07T14:04:46Z</time>
      </trkpt>
      <trkpt lat="45.88061" lon="2.84521">
        <ele>727</ele>
        <time>2017-10-07T14:06:46Z</time>
      </trkpt>
      <trkpt lat="45.88058" lon="2.84518">
        <ele>728</ele>
        <time>2017-10-07T14:08:46Z</time>
      </trkpt>
      <trkpt lat="45.88056" lon="2.84514">
        <ele>728</ele>
        <time>2017-10-07T14:10:46Z</time>
      </trkpt>
      <trkpt lat="45.88052" lon="2.8451">
        <ele>729</ele>
        <time>2017-10-07T14:12:46Z</time>
      </trkpt>
      <trkpt lat="45.8805" lon="2.84507">
        <ele>729</ele>
        <time>2017-10-07T14:14:46Z</time>
      </trkpt>
      <trkpt lat="45.88044" lon="2.845">
        <ele>730</ele>
        <time>2017-10-07T14:16:46Z</time>
      </trkpt>
      <trkpt lat="45.88041" lon="2.84497">
        <ele>730</ele>
        <time>2017-10-07T14:18:46Z</time>
      </trkpt>
      <trkpt lat="45.8804" lon="2.84494">
        <ele>730</ele>
        <time>2017-10-07T14:20:46Z</time>
      </trkpt>
      <trkpt lat="45.88036" lon="2.84489">
        <ele>731</ele>
        <time>2017-10-07T14:22:46Z</time>
      </trkpt>
      <trkpt lat="45.88034" lon="2.84487">
        <ele>731</ele>
        <time>2017-10-07T14:24:46Z</time>
      </trkpt>
      <trkpt lat="45.88031" lon="2.84485">
        <ele>731</ele>
        <time>2017-10-07T14:26:46Z</time>
      </trkpt>
      <trkpt lat="45.88025" lon="2.84477">
        <ele>732</ele>
        <time>2017-10-07T14:28:46Z</time>
      </trkpt>
      <trkpt lat="45.88019" lon="2.84471">
        <ele>733</ele>
        <time>2017-10-07T14:30:46Z</time>
      </trkpt>
      <trkpt lat="45.88018" lon="2.8447">
        <ele>733</ele>
        <time>2017-10-07T14:32:46Z</time>
      </trkpt>
      <trkpt lat="45.88012" lon="2.84466">
        <ele>734</ele>
        <time>2017-10-07T14:34:46Z</time>
      </trkpt>
      <trkpt lat="45.88006" lon="2.84459">
        <ele>735</ele>
        <time>2017-10-07T14:36:46Z</time>
      </trkpt>
      <trkpt lat="45.88001" lon="2.84454">
        <ele>735</ele>
        <time>2017-10-07T14:38:46Z</time>
      </trkpt>
      <trkpt lat="45.87995" lon="2.84448">
        <ele>736</ele>
        <time>2017-10-07T14:40:46Z</time>
      </trkpt>
      <trkpt lat="45.87987" lon="2.84445">
        <ele>737</ele>
        <time>2017-10-07T14:42:46Z</time>
      </trkpt>
      <trkpt lat="45.87986" lon="2.84443">
        <ele>737</ele>
        <time>2017-10-07T14:44:46Z</time>
      </trkpt>
      <trkpt lat="45.87984" lon="2.84444">
        <ele>737</ele>
        <time>2017-10-07T14:46:46Z</time>
      </trkpt>
      <trkpt lat="45.87975" lon="2.84447">
        <ele>738</ele>
        <time>2017-10-07T14:48:46Z</time>
      </trkpt>
      <trkpt lat="45.87972" lon="2.84448">
        <ele>739</ele>
        <time>2017-10-07T14:50:46Z</time>
      </trkpt>
      <trkpt lat="45.8796" lon="2.84454">
        <ele>740</ele>
        <time>2017-10-07T14:52:46Z</time>
      </trkpt>
      <trkpt lat="45.87956" lon="2.84454">
        <ele>740</ele>
        <time>2017-10-07T14:54:46Z</time>
      </trkpt>
      <trkpt lat="45.87954" lon="2.84454">
        <ele>740</ele>
        <time>2017-10-07T14:56:46Z</time>
      </trkpt>
      <trkpt lat="45.87951" lon="2.84454">
        <ele>741</ele>
        <time>2017-10-07T14:58:46Z</time>
      </trkpt>
      <trkpt lat="45.87948" lon="2.84454">
        <ele>741</ele>
        <time>2017-10-07T15:00:46Z</time>
      </trkpt>
      <trkpt lat="45.8794" lon="2.84454">
        <ele>742</ele>
        <time>2017-10-07T15:02:46Z</time>
      </trkpt>
      <trkpt lat="45.87938" lon="2.84454">
        <ele>742</ele>
        <time>2017-10-07T15:04:46Z</time>
      </trkpt>
      <trkpt lat="45.87934" lon="2.84454">
        <ele>742</ele>
        <time>2017-10-07T15:06:46Z</time>
      </trkpt>
      <trkpt lat="45.87931" lon="2.84454">
        <ele>743</ele>
        <time>2017-10-07T15:08:46Z</time>
      </trkpt>
      <trkpt lat="45.87923" lon="2.84456">
        <ele>743</ele>
        <time>2017-10-07T15:10:46Z</time>
      </trkpt>
      <trkpt lat="45.87919" lon="2.84456">
        <ele>744</ele>
        <time>2017-10-07T15:12:46Z</time>
      </trkpt>
      <trkpt lat="45.87916" lon="2.84456">
        <ele>744</ele>
        <time>2017-10-07T15:14:46Z</time>
      </trkpt>
      <trkpt lat="45.87913" lon="2.84457">
        <ele>745</ele>
        <time>2017-10-07T15:16:46Z</time>
      </trkpt>
      <trkpt lat="45.87907" lon="2.84458">
        <ele>746</ele>
        <time>2017-10-07T15:18:46Z</time>
      </trkpt>
      <trkpt lat="45.87903" lon="2.84458">
        <ele>746</ele>
        <time>2017-10-07T15:20:46Z</time>
      </trkpt>
      <trkpt lat="45.87901" lon="2.84458">
        <ele>747</ele>
        <time>2017-10-07T15:22:46Z</time>
      </trkpt>
      <trkpt lat="45.87888" lon="2.84459">
        <ele>749</ele>
        <time>2017-10-07T15:24:46Z</time>
      </trkpt>
      <trkpt lat="45.87884" lon="2.84459">
        <ele>750</ele>
        <time>2017-10-07T15:26:46Z</time>
      </trkpt>
      <trkpt lat="45.87873" lon="2.84463">
        <ele>751</ele>
        <time>2017-10-07T15:28:46Z</time>
      </trkpt>
      <trkpt lat="45.8787" lon="2.84465">
        <ele>752</ele>
        <time>2017-10-07T15:30:46Z</time>
      </trkpt>
      <trkpt lat="45.87866" lon="2.84467">
        <ele>753</ele>
        <time>2017-10-07T15:32:46Z</time>
      </trkpt>
      <trkpt lat="45.87861" lon="2.84468">
        <ele>753</ele>
        <time>2017-10-07T15:34:46Z</time>
      </trkpt>
      <trkpt lat="45.87847" lon="2.84469">
        <ele>756</ele>
        <time>2017-10-07T15:36:46Z</time>
      </trkpt>
      <trkpt lat="45.87842" lon="2.84471">
        <ele>757</ele>
        <time>2017-10-07T15:38:46Z</time>
      </trkpt>
      <trkpt lat="45.87836" lon="2.84473">
        <ele>758</ele>
        <time>2017-10-07T15:40:46Z</time>
      </trkpt>
      <trkpt lat="45.8783" lon="2.84478">
        <ele>758</ele>
        <time>2017-10-07T15:42:46Z</time>
      </trkpt>
      <trkpt lat="45.87825" lon="2.84483">
        <ele>758</ele>
        <time>2017-10-07T15:44:46Z</time>
      </trkpt>
      <trkpt lat="45.87824" lon="2.84484">
        <ele>758</ele>
        <time>2017-10-07T15:46:46Z</time>
      </trkpt>
      <trkpt lat="45.87815" lon="2.84492">
        <ele>759</ele>
        <time>2017-10-07T15:48:46Z</time>
      </trkpt>
      <trkpt lat="45.87809" lon="2.84496">
        <ele>759</ele>
        <time>2017-10-07T15:50:46Z</time>
      </trkpt>
      <trkpt lat="45.87804" lon="2.84501">
        <ele>760</ele>
        <time>2017-10-07T15:52:46Z</time>
      </trkpt>
      <trkpt lat="45.87798" lon="2.84505">
        <ele>760</ele>
        <time>2017-10-07T15:54:46Z</time>
      </trkpt>
      <trkpt lat="45.87786" lon="2.8451">
        <ele>761</ele>
        <time>2017-10-07T15:56:46Z</time>
      </trkpt>
      <trkpt lat="45.87771" lon="2.84521">
        <ele>762</ele>
        <time>2017-10-07T15:58:46Z</time>
      </trkpt>
      <trkpt lat="45.87766" lon="2.84524">
        <ele>763</ele>
        <time>2017-10-07T16:00:46Z</time>
      </trkpt>
      <trkpt lat="45.87758" lon="2.84529">
        <ele>763</ele>
        <time>2017-10-07T16:02:46Z</time>
      </trkpt>
      <trkpt lat="45.87756" lon="2.84531">
        <ele>764</ele>
        <time>2017-10-07T16:04:46Z</time>
      </trkpt>
      <trkpt lat="45.87751" lon="2.84534">
        <ele>764</ele>
        <time>2017-10-07T16:06:46Z</time>
      </trkpt>
      <trkpt lat="45.87749" lon="2.84535">
        <ele>764</ele>
        <time>2017-10-07T16:08:46Z</time>
      </trkpt>
      <trkpt lat="45.87745" lon="2.84538">
        <ele>764</ele>
        <time>2017-10-07T16:10:46Z</time>
      </trkpt>
      <trkpt lat="45.87738" lon="2.84543">
        <ele>764</ele>
        <time>2017-10-07T16:12:46Z</time>
      </trkpt>
      <trkpt lat="45.87729" lon="2.84552">
        <ele>764</ele>
        <time>2017-10-07T16:14:46Z</time>
      </trkpt>
      <trkpt lat="45.87715" lon="2.84564">
        <ele>763</ele>
        <time>2017-10-07T16:16:46Z</time>
      </trkpt>
      <trkpt lat="45.87708" lon="2.84572">
        <ele>763</ele>
        <time>2017-10-07T16:18:46Z</time>
      </trkpt>
      <trkpt lat="45.87705" lon="2.84578">
        <ele>763</ele>
        <time>2017-10-07T16:20:46Z</time>
      </trkpt>
      <trkpt lat="45.87698" lon="2.84586">
        <ele>763</ele>
        <time>2017-10-07T16:22:46Z</time>
      </trkpt>
      <trkpt lat="45.87693" lon="2.84597">
        <ele>763</ele>
        <time>2017-10-07T16:24:46Z</time>
      </trkpt>
      <trkpt lat="45.87691" lon="2.846">
        <ele>763</ele>
        <time>2017-10-07T16:26:46Z</time>
      </trkpt>
      <trkpt lat="45.87687" lon="2.84605">
        <ele>764</ele>
        <time>2017-10-07T16:28:46Z</time>
      </trkpt>
      <trkpt lat="45.87685" lon="2.84611">
        <ele>764</ele>
        <time>2017-10-07T16:30:46Z</time>
      </trkpt>
      <trkpt lat="45.87684" lon="2.84614">
        <ele>764</ele>
        <time>2017-10-07T16:32:46Z</time>
      </trkpt>
      <trkpt lat="45.87684" lon="2.84618">
        <ele>764</ele>
        <time>2017-10-07T16:34:46Z</time>
      </trkpt>
      <trkpt lat="45.87684" lon="2.84621">
        <ele>764</ele>
        <time>2017-10-07T16:36:46Z</time>
      </trkpt>
      <trkpt lat="45.87684" lon="2.84629">
        <ele>764</ele>
        <time>2017-10-07T16:38:46Z</time>
      </trkpt>
      <trkpt lat="45.87686" lon="2.84633">
        <ele>764</ele>
        <time>2017-10-07T16:40:46Z</time>
      </trkpt>
      <trkpt lat="45.87688" lon="2.84637">
        <ele>764</ele>
        <time>2017-10-07T16:42:46Z</time>
      </trkpt>
      <trkpt lat="45.8769" lon="2.84639">
        <ele>764</ele>
        <time>2017-10-07T16:44:46Z</time>
      </trkpt>
      <trkpt lat="45.87696" lon="2.84643">
        <ele>764</ele>
        <time>2017-10-07T16:46:46Z</time>
      </trkpt>
      <trkpt lat="45.87698" lon="2.84645">
        <ele>764</ele>
        <time>2017-10-07T16:48:46Z</time>
      </trkpt>
      <trkpt lat="45.877" lon="2.84647">
        <ele>764</ele>
        <time>2017-10-07T16:50:46Z</time>
      </trkpt>
      <trkpt lat="45.87705" lon="2.84659">
        <ele>764</ele>
        <time>2017-10-07T16:52:46Z</time>
      </trkpt>
      <trkpt lat="45.87711" lon="2.84668">
        <ele>764</ele>
        <time>2017-10-07T16:54:46Z</time>
      </trkpt>
      <trkpt lat="45.87714" lon="2.84674">
        <ele>765</ele>
        <time>2017-10-07T16:56:46Z</time>
      </trkpt>
      <trkpt lat="45.87723" lon="2.8469">
        <ele>765</ele>
        <time>2017-10-07T16:58:46Z</time>
      </trkpt>
      <trkpt lat="45.87724" lon="2.84694">
        <ele>765</ele>
        <time>2017-10-07T17:00:46Z</time>
      </trkpt>
      <trkpt lat="45.87727" lon="2.84702">
        <ele>765</ele>
        <time>2017-10-07T17:02:46Z</time>
      </trkpt>
      <trkpt lat="45.87728" lon="2.84712">
        <ele>766</ele>
        <time>2017-10-07T17:04:46Z</time>
      </trkpt>
      <trkpt lat="45.87729" lon="2.84715">
        <ele>766</ele>
        <time>2017-10-07T17:06:46Z</time>
      </trkpt>
      <trkpt lat="45.8773" lon="2.84718">
        <ele>766</ele>
        <time>2017-10-07T17:08:46Z</time>
      </trkpt>
      <trkpt lat="45.87731" lon="2.84719">
        <ele>766</ele>
        <time>2017-10-07T17:10:46Z</time>
      </trkpt>
      <trkpt lat="45.87731" lon="2.8472">
        <ele>766</ele>
        <time>2017-10-07T17:12:46Z</time>
      </trkpt>
      <trkpt lat="45.87733" lon="2.84724">
        <ele>766</ele>
        <time>2017-10-07T17:14:46Z</time>
      </trkpt>
      <trkpt lat="45.87733" lon="2.84726">
        <ele>766</ele>
        <time>2017-10-07T17:16:46Z</time>
      </trkpt>
      <trkpt lat="45.87734" lon="2.84733">
        <ele>766</ele>
        <time>2017-10-07T17:18:46Z</time>
      </trkpt>
      <trkpt lat="45.87736" lon="2.84742">
        <ele>767</ele>
        <time>2017-10-07T17:20:46Z</time>
      </trkpt>
      <trkpt lat="45.87736" lon="2.84744">
        <ele>767</ele>
        <time>2017-10-07T17:22:46Z</time>
      </trkpt>
      <trkpt lat="45.87738" lon="2.84749">
        <ele>767</ele>
        <time>2017-10-07T17:24:46Z</time>
      </trkpt>
      <trkpt lat="45.87738" lon="2.84755">
        <ele>767</ele>
        <time>2017-10-07T17:26:46Z</time>
      </trkpt>
      <trkpt lat="45.87741" lon="2.84763">
        <ele>767</ele>
        <time>2017-10-07T17:28:46Z</time>
      </trkpt>
      <trkpt lat="45.87741" lon="2.84767">
        <ele>768</ele>
        <time>2017-10-07T17:30:46Z</time>
      </trkpt>
      <trkpt lat="45.87742" lon="2.84768">
        <ele>768</ele>
        <time>2017-10-07T17:32:46Z</time>
      </trkpt>
      <trkpt lat="45.87744" lon="2.8477">
        <ele>768</ele>
        <time>2017-10-07T17:34:46Z</time>
      </trkpt>
      <trkpt lat="45.87745" lon="2.8477">
        <ele>768</ele>
        <time>2017-10-07T17:36:46Z</time>
      </trkpt>
      <trkpt lat="45.87747" lon="2.84772">
        <ele>768</ele>
        <time>2017-10-07T17:38:46Z</time>
      </trkpt>
      <trkpt lat="45.87751" lon="2.84774">
        <ele>768</ele>
        <time>2017-10-07T17:40:46Z</time>
      </trkpt>
      <trkpt lat="45.87772" lon="2.84778">
        <ele>765</ele>
        <time>2017-10-07T17:42:46Z</time>
      </trkpt>
      <trkpt lat="45.87775" lon="2.84781">
        <ele>765</ele>
        <time>2017-10-07T17:44:46Z</time>
      </trkpt>
      <trkpt lat="45.87779" lon="2.84784">
        <ele>764</ele>
        <time>2017-10-07T17:46:46Z</time>
      </trkpt>
      <trkpt lat="45.87781" lon="2.84789">
        <ele>764</ele>
        <time>2017-10-07T17:48:46Z</time>
      </trkpt>
      <trkpt lat="45.87783" lon="2.84794">
        <ele>764</ele>
        <time>2017-10-07T17:50:46Z</time>
      </trkpt>
      <trkpt lat="45.87785" lon="2.84798">
        <ele>764</ele>
        <time>2017-10-07T17:52:46Z</time>
      </trkpt>
      <trkpt lat="45.87787" lon="2.84801">
        <ele>764</ele>
        <time>2017-10-07T17:54:46Z</time>
      </trkpt>
      <trkpt lat="45.87795" lon="2.84807">
        <ele>764</ele>
        <time>2017-10-07T17:56:46Z</time>
      </trkpt>
      <trkpt lat="45.87803" lon="2.84816">
        <ele>764</ele>
        <time>2017-10-07T17:58:46Z</time>
      </trkpt>
      <trkpt lat="45.87808" lon="2.84819">
        <ele>764</ele>
        <time>2017-10-07T18:00:46Z</time>
      </trkpt>
      <trkpt lat="45.87814" lon="2.84821">
        <ele>763</ele>
        <time>2017-10-07T18:02:46Z</time>
      </trkpt>
      <trkpt lat="45.8782" lon="2.84823">
        <ele>763</ele>
        <time>2017-10-07T18:04:46Z</time>
      </trkpt>
      <trkpt lat="45.87851" lon="2.84823">
        <ele>760</ele>
        <time>2017-10-07T18:06:46Z</time>
      </trkpt>
      <trkpt lat="45.8786" lon="2.84825">
        <ele>759</ele>
        <time>2017-10-07T18:08:46Z</time>
      </trkpt>
      <trkpt lat="45.87868" lon="2.84828">
        <ele>759</ele>
        <time>2017-10-07T18:10:46Z</time>
      </trkpt>
      <trkpt lat="45.87875" lon="2.84831">
        <ele>759</ele>
        <time>2017-10-07T18:12:46Z</time>
      </trkpt>
      <trkpt lat="45.87896" lon="2.84845">
        <ele>758</ele>
        <time>2017-10-07T18:14:46Z</time>
      </trkpt>
      <trkpt lat="45.87909" lon="2.84853">
        <ele>758</ele>
        <time>2017-10-07T18:16:46Z</time>
      </trkpt>
      <trkpt lat="45.87927" lon="2.8487">
        <ele>757</ele>
        <time>2017-10-07T18:18:46Z</time>
      </trkpt>
      <trkpt lat="45.87933" lon="2.84875">
        <ele>757</ele>
        <time>2017-10-07T18:20:46Z</time>
      </trkpt>
      <trkpt lat="45.87958" lon="2.84891">
        <ele>754</ele>
        <time>2017-10-07T18:22:46Z</time>
      </trkpt>
      <trkpt lat="45.87963" lon="2.84896">
        <ele>754</ele>
        <time>2017-10-07T18:24:46Z</time>
      </trkpt>
      <trkpt lat="45.87969" lon="2.84901">
        <ele>754</ele>
        <time>2017-10-07T18:26:46Z</time>
      </trkpt>
      <trkpt lat="45.87979" lon="2.84911">
        <ele>753</ele>
        <time>2017-10-07T18:28:46Z</time>
      </trkpt>
      <trkpt lat="45.87987" lon="2.8492">
        <ele>752</ele>
        <time>2017-10-07T18:30:46Z</time>
      </trkpt>
      <trkpt lat="45.87994" lon="2.8493">
        <ele>752</ele>
        <time>2017-10-07T18:32:46Z</time>
      </trkpt>
      <trkpt lat="45.88001" lon="2.8494">
        <ele>752</ele>
        <time>2017-10-07T18:34:46Z</time>
      </trkpt>
      <trkpt lat="45.88006" lon="2.84951">
        <ele>752</ele>
        <time>2017-10-07T18:36:46Z</time>
      </trkpt>
      <trkpt lat="45.88008" lon="2.84957">
        <ele>752</ele>
        <time>2017-10-07T18:38:46Z</time>
      </trkpt>
      <trkpt lat="45.88012" lon="2.84969">
        <ele>752</ele>
        <time>2017-10-07T18:40:46Z</time>
      </trkpt>
      <trkpt lat="45.88014" lon="2.84976">
        <ele>752</ele>
        <time>2017-10-07T18:42:46Z</time>
      </trkpt>
      <trkpt lat="45.88016" lon="2.84989">
        <ele>753</ele>
        <time>2017-10-07T18:44:46Z</time>
      </trkpt>
      <trkpt lat="45.88016" lon="2.84996">
        <ele>753</ele>
        <time>2017-10-07T18:46:46Z</time>
      </trkpt>
      <trkpt lat="45.88017" lon="2.85003">
        <ele>754</ele>
        <time>2017-10-07T18:48:46Z</time>
      </trkpt>
      <trkpt lat="45.88016" lon="2.8501">
        <ele>754</ele>
        <time>2017-10-07T18:50:46Z</time>
      </trkpt>
      <trkpt lat="45.88016" lon="2.85016">
        <ele>755</ele>
        <time>2017-10-07T18:52:46Z</time>
      </trkpt>
      <trkpt lat="45.88015" lon="2.85021">
        <ele>755</ele>
        <time>2017-10-07T18:54:46Z</time>
      </trkpt>
      <trkpt lat="45.88007" lon="2.85034">
        <ele>758</ele>
        <time>2017-10-07T18:56:46Z</time>
      </trkpt>
      <trkpt lat="45.88004" lon="2.8504">
        <ele>759</ele>
        <time>2017-10-07T18:58:46Z</time>
      </trkpt>
      <trkpt lat="45.88002" lon="2.85046">
        <ele>760</ele>
        <time>2017-10-07T19:00:46Z</time>
      </trkpt>
      <trkpt lat="45.88" lon="2.85054">
        <ele>761</ele>
        <time>2017-10-07T19:02:46Z</time>
      </trkpt>
      <trkpt lat="45.87999" lon="2.85063">
        <ele>762</ele>
        <time>2017-10-07T19:04:46Z</time>
      </trkpt>
      <trkpt lat="45.87999" lon="2.85071">
        <ele>762</ele>
        <time>2017-10-07T19:06:46Z</time>
      </trkpt>
      <trkpt lat="45.88" lon="2.8508">
        <ele>763</ele>
        <time>2017-10-07T19:08:46Z</time>
      </trkpt>
      <trkpt lat="45.88002" lon="2.85088">
        <ele>763</ele>
        <time>2017-10-07T19:10:46Z</time>
      </trkpt>
      <trkpt lat="45.88005" lon="2.85096">
        <ele>763</ele>
        <time>2017-10-07T19:12:46Z</time>
      </trkpt>
      <trkpt lat="45.88009" lon="2.85102">
        <ele>762</ele>
        <time>2017-10-07T19:14:46Z</time>
      </trkpt>
      <trkpt lat="45.88014" lon="2.85108">
        <ele>762</ele>
        <time>2017-10-07T19:16:46Z</time>
      </trkpt>
      <trkpt lat="45.88019" lon="2.85113">
        <ele>761</ele>
        <time>2017-10-07T19:18:46Z</time>
      </trkpt>
      <trkpt lat="45.88024" lon="2.85116">
        <ele>760</ele>
        <time>2017-10-07T19:20:46Z</time>
      </trkpt>
      <trkpt lat="45.8803" lon="2.85119">
        <ele>759</ele>
        <time>2017-10-07T19:22:46Z</time>
      </trkpt>
      <trkpt lat="45.88049" lon="2.85128">
        <ele>756</ele>
        <time>2017-10-07T19:24:46Z</time>
      </trkpt>
      <trkpt lat="45.88066" lon="2.85134">
        <ele>753</ele>
        <time>2017-10-07T19:26:46Z</time>
      </trkpt>
      <trkpt lat="45.88081" lon="2.85137">
        <ele>751</ele>
        <time>2017-10-07T19:28:46Z</time>
      </trkpt>
      <trkpt lat="45.88089" lon="2.85139">
        <ele>750</ele>
        <time>2017-10-07T19:30:46Z</time>
      </trkpt>
      <trkpt lat="45.88101" lon="2.8514">
        <ele>748</ele>
        <time>2017-10-07T19:32:46Z</time>
      </trkpt>
      <trkpt lat="45.88113" lon="2.8514">
        <ele>747</ele>
        <time>2017-10-07T19:34:46Z</time>
      </trkpt>
      <trkpt lat="45.88117" lon="2.85141">
        <ele>747</ele>
        <time>2017-10-07T19:36:46Z</time>
      </trkpt>
      <trkpt lat="45.88128" lon="2.85145">
        <ele>746</ele>
        <time>2017-10-07T19:38:46Z</time>
      </trkpt>
      <trkpt lat="45.88134" lon="2.85148">
        <ele>746</ele>
        <time>2017-10-07T19:40:46Z</time>
      </trkpt>
      <trkpt lat="45.8814" lon="2.85152">
        <ele>746</ele>
        <time>2017-10-07T19:42:46Z</time>
      </trkpt>
      <trkpt lat="45.88145" lon="2.85156">
        <ele>746</ele>
        <time>2017-10-07T19:44:46Z</time>
      </trkpt>
      <trkpt lat="45.88154" lon="2.85164">
        <ele>747</ele>
        <time>2017-10-07T19:46:46Z</time>
      </trkpt>
      <trkpt lat="45.88162" lon="2.85171">
        <ele>747</ele>
        <time>2017-10-07T19:48:46Z</time>
      </trkpt>
      <trkpt lat="45.8817" lon="2.85177">
        <ele>746</ele>
        <time>2017-10-07T19:50:46Z</time>
      </trkpt>
      <trkpt lat="45.88184" lon="2.85186">
        <ele>745</ele>
        <time>2017-10-07T19:52:46Z</time>
      </trkpt>
      <trkpt lat="45.88194" lon="2.85191">
        <ele>745</ele>
        <time>2017-10-07T19:54:46Z</time>
      </trkpt>
      <trkpt lat="45.88199" lon="2.85194">
        <ele>744</ele>
        <time>2017-10-07T19:56:46Z</time>
      </trkpt>
      <trkpt lat="45.88205" lon="2.85199">
        <ele>744</ele>
        <time>2017-10-07T19:58:46Z</time>
      </trkpt>
      <trkpt lat="45.88214" lon="2.85205">
        <ele>744</ele>
        <time>2017-10-07T20:00:46Z</time>
      </trkpt>
      <trkpt lat="45.8822" lon="2.85208">
        <ele>744</ele>
        <time>2017-10-07T20:02:46Z</time>
      </trkpt>
      <trkpt lat="45.88225" lon="2.85208">
        <ele>743</ele>
        <time>2017-10-07T20:04:46Z</time>
      </trkpt>
      <trkpt lat="45.88228" lon="2.85208">
        <ele>743</ele>
        <time>2017-10-07T20:06:46Z</time>
      </trkpt>
      <trkpt lat="45.88235" lon="2.85211">
        <ele>742</ele>
        <time>2017-10-07T20:08:46Z</time>
      </trkpt>
      <trkpt lat="45.88241" lon="2.85214">
        <ele>742</ele>
        <time>2017-10-07T20:10:46Z</time>
      </trkpt>
      <trkpt lat="45.88247" lon="2.85218">
        <ele>742</ele>
        <time>2017-10-07T20:12:46Z</time>
      </trkpt>
      <trkpt lat="45.88253" lon="2.85223">
        <ele>742</ele>
        <time>2017-10-07T20:14:46Z</time>
      </trkpt>
      <trkpt lat="45.88262" lon="2.8523">
        <ele>742</ele>
        <time>2017-10-07T20:16:46Z</time>
      </trkpt>
      <trkpt lat="45.88264" lon="2.85232">
        <ele>742</ele>
        <time>2017-10-07T20:18:46Z</time>
      </trkpt>
      <trkpt lat="45.88265" lon="2.85234">
        <ele>742</ele>
        <time>2017-10-07T20:20:46Z</time>
      </trkpt>
      <trkpt lat="45.88274" lon="2.8525">
        <ele>743</ele>
        <time>2017-10-07T20:22:46Z</time>
      </trkpt>
      <trkpt lat="45.88278" lon="2.85258">
        <ele>743</ele>
        <time>2017-10-07T20:24:46Z</time>
      </trkpt>
      <trkpt lat="45.88279" lon="2.85261">
        <ele>743</ele>
        <time>2017-10-07T20:26:46Z</time>
      </trkpt>
      <trkpt lat="45.88284" lon="2.85267">
        <ele>743</ele>
        <time>2017-10-07T20:28:46Z</time>
      </trkpt>
      <trkpt lat="45.88287" lon="2.85271">
        <ele>743</ele>
        <time>2017-10-07T20:30:46Z</time>
      </trkpt>
      <trkpt lat="45.88292" lon="2.85277">
        <ele>743</ele>
        <time>2017-10-07T20:32:46Z</time>
      </trkpt>
      <trkpt lat="45.88295" lon="2.85281">
        <ele>743</ele>
        <time>2017-10-07T20:34:46Z</time>
      </trkpt>
      <trkpt lat="45.88296" lon="2.85283">
        <ele>743</ele>
        <time>2017-10-07T20:36:46Z</time>
      </trkpt>
      <trkpt lat="45.88298" lon="2.85284">
        <ele>742</ele>
        <time>2017-10-07T20:38:46Z</time>
      </trkpt>
      <trkpt lat="45.88303" lon="2.85286">
        <ele>742</ele>
        <time>2017-10-07T20:40:46Z</time>
      </trkpt>
      <trkpt lat="45.88311" lon="2.85292">
        <ele>741</ele>
        <time>2017-10-07T20:42:46Z</time>
      </trkpt>
      <trkpt lat="45.88317" lon="2.85297">
        <ele>741</ele>
        <time>2017-10-07T20:44:46Z</time>
      </trkpt>
      <trkpt lat="45.8833" lon="2.85306">
        <ele>740</ele>
        <time>2017-10-07T20:46:46Z</time>
      </trkpt>
      <trkpt lat="45.88339" lon="2.85314">
        <ele>740</ele>
        <time>2017-10-07T20:48:46Z</time>
      </trkpt>
      <trkpt lat="45.88342" lon="2.85319">
        <ele>740</ele>
        <time>2017-10-07T20:50:46Z</time>
      </trkpt>
      <trkpt lat="45.88349" lon="2.85327">
        <ele>739</ele>
        <time>2017-10-07T20:52:46Z</time>
      </trkpt>
      <trkpt lat="45.88356" lon="2.85341">
        <ele>738</ele>
        <time>2017-10-07T20:54:46Z</time>
      </trkpt>
      <trkpt lat="45.8836" lon="2.85346">
        <ele>736</ele>
        <time>2017-10-07T20:56:46Z</time>
      </trkpt>
      <trkpt lat="45.88362" lon="2.8535">
        <ele>735</ele>
        <time>2017-10-07T20:58:46Z</time>
      </trkpt>
      <trkpt lat="45.88363" lon="2.85352">
        <ele>735</ele>
        <time>2017-10-07T21:00:46Z</time>
      </trkpt>
      <trkpt lat="45.88366" lon="2.85358">
        <ele>734</ele>
        <time>2017-10-07T21:02:46Z</time>
      </trkpt>
      <trkpt lat="45.88368" lon="2.85361">
        <ele>733</ele>
        <time>2017-10-07T21:04:46Z</time>
      </trkpt>
      <trkpt lat="45.88373" lon="2.85367">
        <ele>732</ele>
        <time>2017-10-07T21:06:46Z</time>
      </trkpt>
      <trkpt lat="45.8838" lon="2.85373">
        <ele>730</ele>
        <time>2017-10-07T21:08:46Z</time>
      </trkpt>
      <trkpt lat="45.88388" lon="2.85377">
        <ele>729</ele>
        <time>2017-10-07T21:10:46Z</time>
      </trkpt>
      <trkpt lat="45.88392" lon="2.85381">
        <ele>728</ele>
        <time>2017-10-07T21:12:46Z</time>
      </trkpt>
      <trkpt lat="45.88393" lon="2.85383">
        <ele>728</ele>
        <time>2017-10-07T21:14:46Z</time>
      </trkpt>
      <trkpt lat="45.88394" lon="2.85387">
        <ele>727</ele>
        <time>2017-10-07T21:16:46Z</time>
      </trkpt>
      <trkpt lat="45.88394" lon="2.8539">
        <ele>727</ele>
        <time>2017-10-07T21:18:46Z</time>
      </trkpt>
      <trkpt lat="45.88391" lon="2.85394">
        <ele>728</ele>
        <time>2017-10-07T21:20:46Z</time>
      </trkpt>
      <trkpt lat="45.88389" lon="2.85397">
        <ele>728</ele>
        <time>2017-10-07T21:22:46Z</time>
      </trkpt>
      <trkpt lat="45.88386" lon="2.85399">
        <ele>728</ele>
        <time>2017-10-07T21:24:46Z</time>
      </trkpt>
      <trkpt lat="45.88383" lon="2.854">
        <ele>728</ele>
        <time>2017-10-07T21:26:46Z</time>
      </trkpt>
      <trkpt lat="45.8838" lon="2.854">
        <ele>729</ele>
        <time>2017-10-07T21:28:46Z</time>
      </trkpt>
      <trkpt lat="45.88374" lon="2.85401">
        <ele>730</ele>
        <time>2017-10-07T21:30:46Z</time>
      </trkpt>
      <trkpt lat="45.88366" lon="2.85401">
        <ele>731</ele>
        <time>2017-10-07T21:32:46Z</time>
      </trkpt>
      <trkpt lat="45.88357" lon="2.85402">
        <ele>732</ele>
        <time>2017-10-07T21:34:46Z</time>
      </trkpt>
      <trkpt lat="45.88353" lon="2.85402">
        <ele>732</ele>
        <time>2017-10-07T21:36:46Z</time>
      </trkpt>
      <trkpt lat="45.88347" lon="2.85401">
        <ele>733</ele>
        <time>2017-10-07T21:38:46Z</time>
      </trkpt>
      <trkpt lat="45.88341" lon="2.85399">
        <ele>734</ele>
        <time>2017-10-07T21:40:46Z</time>
      </trkpt>
      <trkpt lat="45.88335" lon="2.85399">
        <ele>735</ele>
        <time>2017-10-07T21:42:46Z</time>
      </trkpt>
      <trkpt lat="45.8833" lon="2.85398">
        <ele>736</ele>
        <time>2017-10-07T21:44:46Z</time>
      </trkpt>
      <trkpt lat="45.88319" lon="2.85399">
        <ele>737</ele>
        <time>2017-10-07T21:46:46Z</time>
      </trkpt>
      <trkpt lat="45.88312" lon="2.85401">
        <ele>738</ele>
        <time>2017-10-07T21:48:46Z</time>
      </trkpt>
      <trkpt lat="45.88306" lon="2.85404">
        <ele>738</ele>
        <time>2017-10-07T21:50:46Z</time>
      </trkpt>
      <trkpt lat="45.883" lon="2.85408">
        <ele>739</ele>
        <time>2017-10-07T21:52:46Z</time>
      </trkpt>
      <trkpt lat="45.88297" lon="2.85411">
        <ele>739</ele>
        <time>2017-10-07T21:54:46Z</time>
      </trkpt>
      <trkpt lat="45.88282" lon="2.85428">
        <ele>738</ele>
        <time>2017-10-07T21:56:46Z</time>
      </trkpt>
      <trkpt lat="45.88272" lon="2.85439">
        <ele>737</ele>
        <time>2017-10-07T21:58:46Z</time>
      </trkpt>
      <trkpt lat="45.88263" lon="2.8545">
        <ele>736</ele>
        <time>2017-10-07T22:00:46Z</time>
      </trkpt>
      <trkpt lat="45.88255" lon="2.85462">
        <ele>734</ele>
        <time>2017-10-07T22:02:46Z</time>
      </trkpt>
      <trkpt lat="45.88252" lon="2.85466">
        <ele>734</ele>
        <time>2017-10-07T22:04:46Z</time>
      </trkpt>
      <trkpt lat="45.8825" lon="2.8547">
        <ele>733</ele>
        <time>2017-10-07T22:06:46Z</time>
      </trkpt>
      <trkpt lat="45.88248" lon="2.85472">
        <ele>733</ele>
        <time>2017-10-07T22:08:46Z</time>
      </trkpt>
      <trkpt lat="45.88246" lon="2.85475">
        <ele>733</ele>
        <time>2017-10-07T22:10:46Z</time>
      </trkpt>
      <trkpt lat="45.88244" lon="2.85483">
        <ele>732</ele>
        <time>2017-10-07T22:12:46Z</time>
      </trkpt>
      <trkpt lat="45.88235" lon="2.85491">
        <ele>731</ele>
        <time>2017-10-07T22:14:46Z</time>
      </trkpt>
      <trkpt lat="45.88229" lon="2.85495">
        <ele>732</ele>
        <time>2017-10-07T22:16:46Z</time>
      </trkpt>
      <trkpt lat="45.88226" lon="2.85498">
        <ele>732</ele>
        <time>2017-10-07T22:18:46Z</time>
      </trkpt>
      <trkpt lat="45.88217" lon="2.8551">
        <ele>733</ele>
        <time>2017-10-07T22:20:46Z</time>
      </trkpt>
      <trkpt lat="45.88216" lon="2.85513">
        <ele>733</ele>
        <time>2017-10-07T22:22:46Z</time>
      </trkpt>
      <trkpt lat="45.88214" lon="2.85519">
        <ele>733</ele>
        <time>2017-10-07T22:24:46Z</time>
      </trkpt>
      <trkpt lat="45.88215" lon="2.85525">
        <ele>733</ele>
        <time>2017-10-07T22:26:46Z</time>
      </trkpt>
      <trkpt lat="45.88216" lon="2.85529">
        <ele>733</ele>
        <time>2017-10-07T22:28:46Z</time>
      </trkpt>
      <trkpt lat="45.88218" lon="2.85532">
        <ele>733</ele>
        <time>2017-10-07T22:30:46Z</time>
      </trkpt>
      <trkpt lat="45.8822" lon="2.85534">
        <ele>733</ele>
        <time>2017-10-07T22:32:46Z</time>
      </trkpt>
      <trkpt lat="45.88226" lon="2.85537">
        <ele>733</ele>
        <time>2017-10-07T22:34:46Z</time>
      </trkpt>
      <trkpt lat="45.88229" lon="2.85538">
        <ele>732</ele>
        <time>2017-10-07T22:36:46Z</time>
      </trkpt>
      <trkpt lat="45.88236" lon="2.85539">
        <ele>732</ele>
        <time>2017-10-07T22:38:46Z</time>
      </trkpt>
      <trkpt lat="45.88241" lon="2.85538">
        <ele>732</ele>
        <time>2017-10-07T22:40:46Z</time>
      </trkpt>
      <trkpt lat="45.88244" lon="2.85538">
        <ele>731</ele>
        <time>2017-10-07T22:42:46Z</time>
      </trkpt>
      <trkpt lat="45.88247" lon="2.85537">
        <ele>731</ele>
        <time>2017-10-07T22:44:46Z</time>
      </trkpt>
      <trkpt lat="45.88251" lon="2.85536">
        <ele>731</ele>
        <time>2017-10-07T22:46:46Z</time>
      </trkpt>
      <trkpt lat="45.88256" lon="2.85536">
        <ele>731</ele>
        <time>2017-10-07T22:48:46Z</time>
      </trkpt>
      <trkpt lat="45.88262" lon="2.85537">
        <ele>731</ele>
        <time>2017-10-07T22:50:46Z</time>
      </trkpt>
      <trkpt lat="45.88267" lon="2.85537">
        <ele>731</ele>
        <time>2017-10-07T22:52:46Z</time>
      </trkpt>
      <trkpt lat="45.88272" lon="2.85536">
        <ele>731</ele>
        <time>2017-10-07T22:54:46Z</time>
      </trkpt>
      <trkpt lat="45.88274" lon="2.85537">
        <ele>731</ele>
        <time>2017-10-07T22:56:46Z</time>
      </trkpt>
      <trkpt lat="45.88275" lon="2.85537">
        <ele>731</ele>
        <time>2017-10-07T22:58:46Z</time>
      </trkpt>
      <trkpt lat="45.88278" lon="2.8554">
        <ele>732</ele>
        <time>2017-10-07T23:00:46Z</time>
      </trkpt>
      <trkpt lat="45.88279" lon="2.85541">
        <ele>732</ele>
        <time>2017-10-07T23:02:46Z</time>
      </trkpt>
      <trkpt lat="45.88284" lon="2.85544">
        <ele>732</ele>
        <time>2017-10-07T23:04:46Z</time>
      </trkpt>
      <trkpt lat="45.88287" lon="2.85545">
        <ele>733</ele>
        <time>2017-10-07T23:06:46Z</time>
      </trkpt>
      <trkpt lat="45.88291" lon="2.85549">
        <ele>733</ele>
        <time>2017-10-07T23:08:46Z</time>
      </trkpt>
      <trkpt lat="45.88295" lon="2.8555">
        <ele>734</ele>
        <time>2017-10-07T23:10:46Z</time>
      </trkpt>
      <trkpt lat="45.88299" lon="2.85553">
        <ele>734</ele>
        <time>2017-10-07T23:12:46Z</time>
      </trkpt>
      <trkpt lat="45.88304" lon="2.85555">
        <ele>735</ele>
        <time>2017-10-07T23:14:46Z</time>
      </trkpt>
      <trkpt lat="45.88306" lon="2.85557">
        <ele>735</ele>
        <time>2017-10-07T23:16:46Z</time>
      </trkpt>
      <trkpt lat="45.8831" lon="2.85558">
        <ele>736</ele>
        <time>2017-10-07T23:18:46Z</time>
      </trkpt>
      <trkpt lat="45.88315" lon="2.85561">
        <ele>737</ele>
        <time>2017-10-07T23:20:46Z</time>
      </trkpt>
      <trkpt lat="45.88318" lon="2.85562">
        <ele>737</ele>
        <time>2017-10-07T23:22:46Z</time>
      </trkpt>
      <trkpt lat="45.88328" lon="2.85567">
        <ele>739</ele>
        <time>2017-10-07T23:24:46Z</time>
      </trkpt>
      <trkpt lat="45.88332" lon="2.85569">
        <ele>739</ele>
        <time>2017-10-07T23:26:46Z</time>
      </trkpt>
      <trkpt lat="45.88335" lon="2.85571">
        <ele>740</ele>
        <time>2017-10-07T23:28:46Z</time>
      </trkpt>
      <trkpt lat="45.88336" lon="2.85572">
        <ele>740</ele>
        <time>2017-10-07T23:30:46Z</time>
      </trkpt>
      <trkpt lat="45.88339" lon="2.85574">
        <ele>740</ele>
        <time>2017-10-07T23:32:46Z</time>
      </trkpt>
      <trkpt lat="45.88341" lon="2.85576">
        <ele>741</ele>
        <time>2017-10-07T23:34:46Z</time>
      </trkpt>
      <trkpt lat="45.88342" lon="2.85576">
        <ele>741</ele>
        <time>2017-10-07T23:36:46Z</time>
      </trkpt>
      <trkpt lat="45.88347" lon="2.8558">
        <ele>742</ele>
        <time>2017-10-07T23:38:46Z</time>
      </trkpt>
      <trkpt lat="45.88351" lon="2.85582">
        <ele>742</ele>
        <time>2017-10-07T23:40:46Z</time>
      </trkpt>
      <trkpt lat="45.88354" lon="2.85584">
        <ele>742</ele>
        <time>2017-10-07T23:42:46Z</time>
      </trkpt>
      <trkpt lat="45.88355" lon="2.85586">
        <ele>743</ele>
        <time>2017-10-07T23:44:46Z</time>
      </trkpt>
      <trkpt lat="45.88357" lon="2.85588">
        <ele>743</ele>
        <time>2017-10-07T23:46:46Z</time>
      </trkpt>
      <trkpt lat="45.8836" lon="2.85591">
        <ele>744</ele>
        <time>2017-10-07T23:48:46Z</time>
      </trkpt>
      <trkpt lat="45.88361" lon="2.85591">
        <ele>744</ele>
        <time>2017-10-07T23:50:46Z</time>
      </trkpt>
      <trkpt lat="45.88362" lon="2.85593">
        <ele>744</ele>
        <time>2017-10-07T23:52:46Z</time>
      </trkpt>
      <trkpt lat="45.88364" lon="2.85594">
        <ele>744</ele>
        <time>2017-10-07T23:54:46Z</time>
      </trkpt>
      <trkpt lat="45.88366" lon="2.85597">
        <ele>745</ele>
        <time>2017-10-07T23:56:46Z</time>
      </trkpt>
      <trkpt lat="45.88371" lon="2.85601">
        <ele>745</ele>
        <time>2017-10-07T23:58:46Z</time>
      </trkpt>
      <trkpt lat="45.88377" lon="2.85605">
        <ele>746</ele>
        <time>2017-10-08T00:00:46Z</time>
      </trkpt>
      <trkpt lat="45.8838" lon="2.85607">
        <ele>746</ele>
        <time>2017-10-08T00:02:46Z</time>
      </trkpt>
      <trkpt lat="45.88383" lon="2.85608">
        <ele>746</ele>
        <time>2017-10-08T00:04:46Z</time>
      </trkpt>
      <trkpt lat="45.88384" lon="2.85609">
        <ele>747</ele>
        <time>2017-10-08T00:06:46Z</time>
      </trkpt>
      <trkpt lat="45.88387" lon="2.85612">
        <ele>747</ele>
        <time>2017-10-08T00:08:46Z</time>
      </trkpt>
      <trkpt lat="45.88394" lon="2.85615">
        <ele>747</ele>
        <time>2017-10-08T00:10:46Z</time>
      </trkpt>
      <trkpt lat="45.88396" lon="2.85617">
        <ele>748</ele>
        <time>2017-10-08T00:12:46Z</time>
      </trkpt>
      <trkpt lat="45.88398" lon="2.85617">
        <ele>748</ele>
        <time>2017-10-08T00:14:46Z</time>
      </trkpt>
      <trkpt lat="45.88401" lon="2.8562">
        <ele>748</ele>
        <time>2017-10-08T00:16:46Z</time>
      </trkpt>
      <trkpt lat="45.88406" lon="2.85623">
        <ele>749</ele>
        <time>2017-10-08T00:18:46Z</time>
      </trkpt>
      <trkpt lat="45.88409" lon="2.85625">
        <ele>749</ele>
        <time>2017-10-08T00:20:46Z</time>
      </trkpt>
      <trkpt lat="45.88412" lon="2.85627">
        <ele>749</ele>
        <time>2017-10-08T00:22:46Z</time>
      </trkpt>
      <trkpt lat="45.88414" lon="2.85628">
        <ele>749</ele>
        <time>2017-10-08T00:24:46Z</time>
      </trkpt>
      <trkpt lat="45.88417" lon="2.85631">
        <ele>750</ele>
        <time>2017-10-08T00:26:46Z</time>
      </trkpt>
      <trkpt lat="45.88417" lon="2.85632">
        <ele>750</ele>
        <time>2017-10-08T00:28:46Z</time>
      </trkpt>
      <trkpt lat="45.88423" lon="2.85638">
        <ele>751</ele>
        <time>2017-10-08T00:30:46Z</time>
      </trkpt>
      <trkpt lat="45.88424" lon="2.85637">
        <ele>751</ele>
        <time>2017-10-08T00:32:46Z</time>
      </trkpt>
      <trkpt lat="45.88429" lon="2.85637">
        <ele>751</ele>
        <time>2017-10-08T00:34:46Z</time>
      </trkpt>
      <trkpt lat="45.88432" lon="2.85636">
        <ele>750</ele>
        <time>2017-10-08T00:36:46Z</time>
      </trkpt>
      <trkpt lat="45.8844" lon="2.85635">
        <ele>750</ele>
        <time>2017-10-08T00:38:46Z</time>
      </trkpt>
      <trkpt lat="45.88444" lon="2.85635">
        <ele>750</ele>
        <time>2017-10-08T00:40:46Z</time>
      </trkpt>
      <trkpt lat="45.8845" lon="2.85636">
        <ele>750</ele>
        <time>2017-10-08T00:42:46Z</time>
      </trkpt>
      <trkpt lat="45.88458" lon="2.85638">
        <ele>750</ele>
        <time>2017-10-08T00:44:46Z</time>
      </trkpt>
      <trkpt lat="45.88465" lon="2.85642">
        <ele>750</ele>
        <time>2017-10-08T00:46:46Z</time>
      </trkpt>
      <trkpt lat="45.88472" lon="2.85647">
        <ele>751</ele>
        <time>2017-10-08T00:48:46Z</time>
      </trkpt>
      <trkpt lat="45.88476" lon="2.85649">
        <ele>751</ele>
        <time>2017-10-08T00:50:46Z</time>
      </trkpt>
      <trkpt lat="45.88479" lon="2.85652">
        <ele>751</ele>
        <time>2017-10-08T00:52:46Z</time>
      </trkpt>
      <trkpt lat="45.88482" lon="2.85654">
        <ele>751</ele>
        <time>2017-10-08T00:54:46Z</time>
      </trkpt>
      <trkpt lat="45.88489" lon="2.85656">
        <ele>751</ele>
        <time>2017-10-08T00:56:46Z</time>
      </trkpt>
      <trkpt lat="45.88493" lon="2.85657">
        <ele>751</ele>
        <time>2017-10-08T00:58:46Z</time>
      </trkpt>
      <trkpt lat="45.88498" lon="2.85658">
        <ele>751</ele>
        <time>2017-10-08T01:00:46Z</time>
      </trkpt>
      <trkpt lat="45.885" lon="2.85658">
        <ele>751</ele>
        <time>2017-10-08T01:02:46Z</time>
      </trkpt>
      <trkpt lat="45.88507" lon="2.85656">
        <ele>751</ele>
        <time>2017-10-08T01:04:46Z</time>
      </trkpt>
      <trkpt lat="45.88508" lon="2.85656">
        <ele>751</ele>
        <time>2017-10-08T01:06:46Z</time>
      </trkpt>
      <trkpt lat="45.88512" lon="2.85648">
        <ele>751</ele>
        <time>2017-10-08T01:08:46Z</time>
      </trkpt>
      <trkpt lat="45.88513" lon="2.85645">
        <ele>750</ele>
        <time>2017-10-08T01:10:46Z</time>
      </trkpt>
      <trkpt lat="45.88514" lon="2.85643">
        <ele>750</ele>
        <time>2017-10-08T01:12:46Z</time>
      </trkpt>
      <trkpt lat="45.88517" lon="2.85639">
        <ele>750</ele>
        <time>2017-10-08T01:14:46Z</time>
      </trkpt>
      <trkpt lat="45.88518" lon="2.85638">
        <ele>750</ele>
        <time>2017-10-08T01:16:46Z</time>
      </trkpt>
      <trkpt lat="45.8852" lon="2.85636">
        <ele>750</ele>
        <time>2017-10-08T01:18:46Z</time>
      </trkpt>
      <trkpt lat="45.88523" lon="2.85633">
        <ele>749</ele>
        <time>2017-10-08T01:20:46Z</time>
      </trkpt>
      <trkpt lat="45.88531" lon="2.85626">
        <ele>749</ele>
        <time>2017-10-08T01:22:46Z</time>
      </trkpt>
      <trkpt lat="45.88536" lon="2.85622">
        <ele>748</ele>
        <time>2017-10-08T01:24:46Z</time>
      </trkpt>
      <trkpt lat="45.8854" lon="2.8562">
        <ele>748</ele>
        <time>2017-10-08T01:26:46Z</time>
      </trkpt>
      <trkpt lat="45.88543" lon="2.85619">
        <ele>748</ele>
        <time>2017-10-08T01:28:46Z</time>
      </trkpt>
      <trkpt lat="45.88546" lon="2.85619">
        <ele>748</ele>
        <time>2017-10-08T01:30:46Z</time>
      </trkpt>
      <trkpt lat="45.8855" lon="2.85619">
        <ele>748</ele>
        <time>2017-10-08T01:32:46Z</time>
      </trkpt>
      <trkpt lat="45.88573" lon="2.85621">
        <ele>749</ele>
        <time>2017-10-08T01:34:46Z</time>
      </trkpt>
      <trkpt lat="45.88581" lon="2.85622">
        <ele>750</ele>
        <time>2017-10-08T01:36:46Z</time>
      </trkpt>
      <trkpt lat="45.88589" lon="2.85624">
        <ele>750</ele>
        <time>2017-10-08T01:38:46Z</time>
      </trkpt>
      <trkpt lat="45.88598" lon="2.85625">
        <ele>750</ele>
        <time>2017-10-08T01:40:46Z</time>
      </trkpt>
      <trkpt lat="45.88615" lon="2.8563">
        <ele>751</ele>
        <time>2017-10-08T01:42:46Z</time>
      </trkpt>
      <trkpt lat="45.8862" lon="2.85631">
        <ele>751</ele>
        <time>2017-10-08T01:44:46Z</time>
      </trkpt>
      <trkpt lat="45.88625" lon="2.85633">
        <ele>751</ele>
        <time>2017-10-08T01:46:46Z</time>
      </trkpt>
      <trkpt lat="45.88636" lon="2.85634">
        <ele>751</ele>
        <time>2017-10-08T01:48:46Z</time>
      </trkpt>
      <trkpt lat="45.88641" lon="2.85635">
        <ele>751</ele>
        <time>2017-10-08T01:50:46Z</time>
      </trkpt>
      <trkpt lat="45.8865" lon="2.85637">
        <ele>751</ele>
        <time>2017-10-08T01:52:46Z</time>
      </trkpt>
      <trkpt lat="45.88657" lon="2.85639">
        <ele>751</ele>
        <time>2017-10-08T01:54:46Z</time>
      </trkpt>
      <trkpt lat="45.88663" lon="2.85641">
        <ele>751</ele>
        <time>2017-10-08T01:56:46Z</time>
      </trkpt>
      <trkpt lat="45.8868" lon="2.85649">
        <ele>751</ele>
        <time>2017-10-08T01:58:46Z</time>
      </trkpt>
      <trkpt lat="45.88687" lon="2.85652">
        <ele>751</ele>
        <time>2017-10-08T02:00:46Z</time>
      </trkpt>
      <trkpt lat="45.8869" lon="2.85653">
        <ele>751</ele>
        <time>2017-10-08T02:02:46Z</time>
      </trkpt>
      <trkpt lat="45.88699" lon="2.85656">
        <ele>751</ele>
        <time>2017-10-08T02:04:46Z</time>
      </trkpt>
      <trkpt lat="45.88722" lon="2.85661">
        <ele>750</ele>
        <time>2017-10-08T02:06:46Z</time>
      </trkpt>
      <trkpt lat="45.88725" lon="2.85662">
        <ele>750</ele>
        <time>2017-10-08T02:08:46Z</time>
      </trkpt>
      <trkpt lat="45.88732" lon="2.85665">
        <ele>749</ele>
        <time>2017-10-08T02:10:46Z</time>
      </trkpt>
      <trkpt lat="45.88735" lon="2.85667">
        <ele>749</ele>
        <time>2017-10-08T02:12:46Z</time>
      </trkpt>
      <trkpt lat="45.88746" lon="2.85674">
        <ele>750</ele>
        <time>2017-10-08T02:14:46Z</time>
      </trkpt>
      <trkpt lat="45.88752" lon="2.85677">
        <ele>750</ele>
        <time>2017-10-08T02:16:46Z</time>
      </trkpt>
      <trkpt lat="45.88755" lon="2.85679">
        <ele>750</ele>
        <time>2017-10-08T02:18:46Z</time>
      </trkpt>
      <trkpt lat="45.88758" lon="2.85681">
        <ele>751</ele>
        <time>2017-10-08T02:20:46Z</time>
      </trkpt>
      <trkpt lat="45.88768" lon="2.85691">
        <ele>752</ele>
        <time>2017-10-08T02:22:46Z</time>
      </trkpt>
      <trkpt lat="45.88771" lon="2.85697">
        <ele>753</ele>
        <time>2017-10-08T02:24:46Z</time>
      </trkpt>
      <trkpt lat="45.88774" lon="2.85699">
        <ele>753</ele>
        <time>2017-10-08T02:26:46Z</time>
      </trkpt>
      <trkpt lat="45.88778" lon="2.85704">
        <ele>754</ele>
        <time>2017-10-08T02:28:46Z</time>
      </trkpt>
      <trkpt lat="45.88779" lon="2.85707">
        <ele>755</ele>
        <time>2017-10-08T02:30:46Z</time>
      </trkpt>
      <trkpt lat="45.88781" lon="2.85709">
        <ele>755</ele>
        <time>2017-10-08T02:32:46Z</time>
      </trkpt>
      <trkpt lat="45.88782" lon="2.85711">
        <ele>755</ele>
        <time>2017-10-08T02:34:46Z</time>
      </trkpt>
      <trkpt lat="45.88783" lon="2.85712">
        <ele>755</ele>
        <time>2017-10-08T02:36:46Z</time>
      </trkpt>
      <trkpt lat="45.88784" lon="2.85714">
        <ele>755</ele>
        <time>2017-10-08T02:38:46Z</time>
      </trkpt>
      <trkpt lat="45.88786" lon="2.85716">
        <ele>756</ele>
        <time>2017-10-08T02:40:46Z</time>
      </trkpt>
      <trkpt lat="45.88788" lon="2.8572">
        <ele>756</ele>
        <time>2017-10-08T02:42:46Z</time>
      </trkpt>
      <trkpt lat="45.88792" lon="2.85723">
        <ele>756</ele>
        <time>2017-10-08T02:44:46Z</time>
      </trkpt>
      <trkpt lat="45.88795" lon="2.85725">
        <ele>756</ele>
        <time>2017-10-08T02:46:46Z</time>
      </trkpt>
      <trkpt lat="45.88801" lon="2.85725">
        <ele>756</ele>
        <time>2017-10-08T02:48:46Z</time>
      </trkpt>
      <trkpt lat="45.88811" lon="2.85729">
        <ele>756</ele>
        <time>2017-10-08T02:50:46Z</time>
      </trkpt>
      <trkpt lat="45.88816" lon="2.85729">
        <ele>755</ele>
        <time>2017-10-08T02:52:46Z</time>
      </trkpt>
      <trkpt lat="45.88817" lon="2.85729">
        <ele>755</ele>
        <time>2017-10-08T02:54:46Z</time>
      </trkpt>
      <trkpt lat="45.8882" lon="2.85731">
        <ele>755</ele>
        <time>2017-10-08T02:56:46Z</time>
      </trkpt>
      <trkpt lat="45.8882" lon="2.85731">
        <ele>755</ele>
        <time>2017-10-08T02:58:46Z</time>
      </trkpt>
      <trkpt lat="45.88823" lon="2.85731">
        <ele>755</ele>
        <time>2017-10-08T03:00:46Z</time>
      </trkpt>
      <trkpt lat="45.88825" lon="2.85732">
        <ele>755</ele>
        <time>2017-10-08T03:02:46Z</time>
      </trkpt>
      <trkpt lat="45.88832" lon="2.85735">
        <ele>755</ele>
        <time>2017-10-08T03:04:46Z</time>
      </trkpt>
      <trkpt lat="45.88835" lon="2.85737">
        <ele>755</ele>
        <time>2017-10-08T03:06:46Z</time>
      </trkpt>
      <trkpt lat="45.8884" lon="2.85741">
        <ele>756</ele>
        <time>2017-10-08T03:08:46Z</time>
      </trkpt>
      <trkpt lat="45.88841" lon="2.85741">
        <ele>756</ele>
        <time>2017-10-08T03:10:46Z</time>
      </trkpt>
      <trkpt lat="45.88843" lon="2.85742">
        <ele>756</ele>
        <time>2017-10-08T03:12:46Z</time>
      </trkpt>
      <trkpt lat="45.88844" lon="2.85742">
        <ele>756</ele>
        <time>2017-10-08T03:14:46Z</time>
      </trkpt>
      <trkpt lat="45.88846" lon="2.85743">
        <ele>756</ele>
        <time>2017-10-08T03:16:46Z</time>
      </trkpt>
      <trkpt lat="45.88855" lon="2.85746">
        <ele>757</ele>
        <time>2017-10-08T03:18:46Z</time>
      </trkpt>
      <trkpt lat="45.88859" lon="2.85745">
        <ele>757</ele>
        <time>2017-10-08T03:20:46Z</time>
      </trkpt>
      <trkpt lat="45.88861" lon="2.85744">
        <ele>757</ele>
        <time>2017-10-08T03:22:46Z</time>
      </trkpt>
      <trkpt lat="45.88864" lon="2.85745">
        <ele>757</ele>
        <time>2017-10-08T03:24:46Z</time>
      </trkpt>
      <trkpt lat="45.88865" lon="2.85746">
        <ele>757</ele>
        <time>2017-10-08T03:26:46Z</time>
      </trkpt>
      <trkpt lat="45.88869" lon="2.85749">
        <ele>758</ele>
        <time>2017-10-08T03:28:46Z</time>
      </trkpt>
      <trkpt lat="45.88872" lon="2.8575">
        <ele>758</ele>
        <time>2017-10-08T03:30:46Z</time>
      </trkpt>
      <trkpt lat="45.8888" lon="2.85756">
        <ele>759</ele>
        <time>2017-10-08T03:32:46Z</time>
      </trkpt>
      <trkpt lat="45.88892" lon="2.85764">
        <ele>760</ele>
        <time>2017-10-08T03:34:46Z</time>
      </trkpt>
      <trkpt lat="45.88901" lon="2.85769">
        <ele>761</ele>
        <time>2017-10-08T03:36:46Z</time>
      </trkpt>
      <trkpt lat="45.88922" lon="2.85779">
        <ele>763</ele>
        <time>2017-10-08T03:38:46Z</time>
      </trkpt>
      <trkpt lat="45.88923" lon="2.8578">
        <ele>763</ele>
        <time>2017-10-08T03:40:46Z</time>
      </trkpt>
      <trkpt lat="45.88928" lon="2.85783">
        <ele>763</ele>
        <time>2017-10-08T03:42:46Z</time>
      </trkpt>
      <trkpt lat="45.88941" lon="2.85791">
        <ele>765</ele>
        <time>2017-10-08T03:44:46Z</time>
      </trkpt>
      <trkpt lat="45.88942" lon="2.85792">
        <ele>765</ele>
        <time>2017-10-08T03:46:46Z</time>
      </trkpt>
      <trkpt lat="45.88946" lon="2.85794">
        <ele>765</ele>
        <time>2017-10-08T03:48:46Z</time>
      </trkpt>
      <trkpt lat="45.88948" lon="2.85795">
        <ele>765</ele>
        <time>2017-10-08T03:50:46Z</time>
      </trkpt>
      <trkpt lat="45.88951" lon="2.85796">
        <ele>765</ele>
        <time>2017-10-08T03:52:46Z</time>
      </trkpt>
      <trkpt lat="45.88958" lon="2.858">
        <ele>766</ele>
        <time>2017-10-08T03:54:46Z</time>
      </trkpt>
      <trkpt lat="45.88964" lon="2.85803">
        <ele>766</ele>
        <time>2017-10-08T03:56:46Z</time>
      </trkpt>
      <trkpt lat="45.88968" lon="2.85804">
        <ele>766</ele>
        <time>2017-10-08T03:58:46Z</time>
      </trkpt>
      <trkpt lat="45.88971" lon="2.85806">
        <ele>766</ele>
        <time>2017-10-08T04:00:46Z</time>
      </trkpt>
      <trkpt lat="45.88982" lon="2.85811">
        <ele>767</ele>
        <time>2017-10-08T04:02:46Z</time>
      </trkpt>
      <trkpt lat="45.88992" lon="2.85817">
        <ele>768</ele>
        <time>2017-10-08T04:04:46Z</time>
      </trkpt>
      <trkpt lat="45.88998" lon="2.85823">
        <ele>768</ele>
        <time>2017-10-08T04:06:46Z</time>
      </trkpt>
      <trkpt lat="45.89" lon="2.85827">
        <ele>769</ele>
        <time>2017-10-08T04:08:46Z</time>
      </trkpt>
      <trkpt lat="45.89008" lon="2.85841">
        <ele>769</ele>
        <time>2017-10-08T04:10:46Z</time>
      </trkpt>
      <trkpt lat="45.89013" lon="2.8585">
        <ele>770</ele>
        <time>2017-10-08T04:12:46Z</time>
      </trkpt>
      <trkpt lat="45.89014" lon="2.85853">
        <ele>770</ele>
        <time>2017-10-08T04:14:46Z</time>
      </trkpt>
      <trkpt lat="45.89017" lon="2.85861">
        <ele>770</ele>
        <time>2017-10-08T04:16:46Z</time>
      </trkpt>
      <trkpt lat="45.8902" lon="2.85866">
        <ele>770</ele>
        <time>2017-10-08T04:18:46Z</time>
      </trkpt>
      <trkpt lat="45.89028" lon="2.85893">
        <ele>772</ele>
        <time>2017-10-08T04:20:46Z</time>
      </trkpt>
      <trkpt lat="45.89035" lon="2.85921">
        <ele>773</ele>
        <time>2017-10-08T04:22:46Z</time>
      </trkpt>
      <trkpt lat="45.89036" lon="2.85924">
        <ele>773</ele>
        <time>2017-10-08T04:24:46Z</time>
      </trkpt>
      <trkpt lat="45.89038" lon="2.85939">
        <ele>774</ele>
        <time>2017-10-08T04:26:46Z</time>
      </trkpt>
      <trkpt lat="45.89039" lon="2.85942">
        <ele>774</ele>
        <time>2017-10-08T04:28:46Z</time>
      </trkpt>
      <trkpt lat="45.8904" lon="2.85947">
        <ele>774</ele>
        <time>2017-10-08T04:30:46Z</time>
      </trkpt>
      <trkpt lat="45.89041" lon="2.85952">
        <ele>774</ele>
        <time>2017-10-08T04:32:46Z</time>
      </trkpt>
      <trkpt lat="45.89042" lon="2.85955">
        <ele>774</ele>
        <time>2017-10-08T04:34:46Z</time>
      </trkpt>
      <trkpt lat="45.89045" lon="2.85967">
        <ele>775</ele>
        <time>2017-10-08T04:36:46Z</time>
      </trkpt>
      <trkpt lat="45.89047" lon="2.85984">
        <ele>776</ele>
        <time>2017-10-08T04:38:46Z</time>
      </trkpt>
      <trkpt lat="45.89048" lon="2.85991">
        <ele>776</ele>
        <time>2017-10-08T04:40:46Z</time>
      </trkpt>
      <trkpt lat="45.89051" lon="2.86004">
        <ele>776</ele>
        <time>2017-10-08T04:42:46Z</time>
      </trkpt>
      <trkpt lat="45.89054" lon="2.86013">
        <ele>777</ele>
        <time>2017-10-08T04:44:46Z</time>
      </trkpt>
      <trkpt lat="45.89056" lon="2.86019">
        <ele>777</ele>
        <time>2017-10-08T04:46:46Z</time>
      </trkpt>
      <trkpt lat="45.8906" lon="2.86027">
        <ele>778</ele>
        <time>2017-10-08T04:48:46Z</time>
      </trkpt>
      <trkpt lat="45.89062" lon="2.86032">
        <ele>778</ele>
        <time>2017-10-08T04:50:46Z</time>
      </trkpt>
      <trkpt lat="45.89065" lon="2.86039">
        <ele>778</ele>
        <time>2017-10-08T04:52:46Z</time>
      </trkpt>
      <trkpt lat="45.89069" lon="2.8605">
        <ele>779</ele>
        <time>2017-10-08T04:54:46Z</time>
      </trkpt>
      <trkpt lat="45.89072" lon="2.86059">
        <ele>779</ele>
        <time>2017-10-08T04:56:46Z</time>
      </trkpt>
      <trkpt lat="45.89077" lon="2.86072">
        <ele>780</ele>
        <time>2017-10-08T04:58:46Z</time>
      </trkpt>
      <trkpt lat="45.89082" lon="2.86082">
        <ele>781</ele>
        <time>2017-10-08T05:00:46Z</time>
      </trkpt>
      <trkpt lat="45.89084" lon="2.86087">
        <ele>781</ele>
        <time>2017-10-08T05:02:46Z</time>
      </trkpt>
      <trkpt lat="45.89088" lon="2.86094">
        <ele>781</ele>
        <time>2017-10-08T05:04:46Z</time>
      </trkpt>
      <trkpt lat="45.89091" lon="2.86097">
        <ele>781</ele>
        <time>2017-10-08T05:06:46Z</time>
      </trkpt>
      <trkpt lat="45.89095" lon="2.861">
        <ele>781</ele>
        <time>2017-10-08T05:08:46Z</time>
      </trkpt>
      <trkpt lat="45.89098" lon="2.86102">
        <ele>781</ele>
        <time>2017-10-08T05:10:46Z</time>
      </trkpt>
      <trkpt lat="45.89101" lon="2.86102">
        <ele>781</ele>
        <time>2017-10-08T05:12:46Z</time>
      </trkpt>
      <trkpt lat="45.89114" lon="2.86099">
        <ele>780</ele>
        <time>2017-10-08T05:14:46Z</time>
      </trkpt>
      <trkpt lat="45.89118" lon="2.86099">
        <ele>780</ele>
        <time>2017-10-08T05:16:46Z</time>
      </trkpt>
      <trkpt lat="45.89123" lon="2.861">
        <ele>779</ele>
        <time>2017-10-08T05:18:46Z</time>
      </trkpt>
      <trkpt lat="45.89127" lon="2.86102">
        <ele>779</ele>
        <time>2017-10-08T05:20:46Z</time>
      </trkpt>
      <trkpt lat="45.8913" lon="2.86105">
        <ele>779</ele>
        <time>2017-10-08T05:22:46Z</time>
      </trkpt>
      <trkpt lat="45.89136" lon="2.86112">
        <ele>779</ele>
        <time>2017-10-08T05:24:46Z</time>
      </trkpt>
      <trkpt lat="45.89147" lon="2.86128">
        <ele>780</ele>
        <time>2017-10-08T05:26:46Z</time>
      </trkpt>
      <trkpt lat="45.89152" lon="2.86137">
        <ele>780</ele>
        <time>2017-10-08T05:28:46Z</time>
      </trkpt>
      <trkpt lat="45.89166" lon="2.86154">
        <ele>781</ele>
        <time>2017-10-08T05:30:46Z</time>
      </trkpt>
      <trkpt lat="45.89177" lon="2.86164">
        <ele>782</ele>
        <time>2017-10-08T05:32:46Z</time>
      </trkpt>
      <trkpt lat="45.89182" lon="2.86171">
        <ele>782</ele>
        <time>2017-10-08T05:34:46Z</time>
      </trkpt>
      <trkpt lat="45.89184" lon="2.86175">
        <ele>782</ele>
        <time>2017-10-08T05:36:46Z</time>
      </trkpt>
      <trkpt lat="45.8919" lon="2.86184">
        <ele>782</ele>
        <time>2017-10-08T05:38:46Z</time>
      </trkpt>
      <trkpt lat="45.89191" lon="2.86186">
        <ele>782</ele>
        <time>2017-10-08T05:40:46Z</time>
      </trkpt>
      <trkpt lat="45.89194" lon="2.86192">
        <ele>782</ele>
        <time>2017-10-08T05:42:46Z</time>
      </trkpt>
      <trkpt lat="45.89195" lon="2.86194">
        <ele>782</ele>
        <time>2017-10-08T05:44:46Z</time>
      </trkpt>
      <trkpt lat="45.89196" lon="2.86194">
        <ele>782</ele>
        <time>2017-10-08T05:46:46Z</time>
      </trkpt>
      <trkpt lat="45.89204" lon="2.86194">
        <ele>782</ele>
        <time>2017-10-08T05:48:46Z</time>
      </trkpt>
      <trkpt lat="45.89205" lon="2.86195">
        <ele>782</ele>
        <time>2017-10-08T05:50:46Z</time>
      </trkpt>
      <trkpt lat="45.89207" lon="2.86194">
        <ele>782</ele>
        <time>2017-10-08T05:52:46Z</time>
      </trkpt>
      <trkpt lat="45.89212" lon="2.86191">
        <ele>781</ele>
        <time>2017-10-08T05:54:46Z</time>
      </trkpt>
      <trkpt lat="45.89222" lon="2.86187">
        <ele>781</ele>
        <time>2017-10-08T05:56:46Z</time>
      </trkpt>
      <trkpt lat="45.89228" lon="2.86184">
        <ele>781</ele>
        <time>2017-10-08T05:58:46Z</time>
      </trkpt>
      <trkpt lat="45.89233" lon="2.86182">
        <ele>780</ele>
        <time>2017-10-08T06:00:46Z</time>
      </trkpt>
      <trkpt lat="45.89237" lon="2.86181">
        <ele>780</ele>
        <time>2017-10-08T06:02:46Z</time>
      </trkpt>
      <trkpt lat="45.89242" lon="2.8618">
        <ele>780</ele>
        <time>2017-10-08T06:04:46Z</time>
      </trkpt>
      <trkpt lat="45.89243" lon="2.86178">
        <ele>780</ele>
        <time>2017-10-08T06:06:46Z</time>
      </trkpt>
      <trkpt lat="45.89246" lon="2.86171">
        <ele>780</ele>
        <time>2017-10-08T06:08:46Z</time>
      </trkpt>
      <trkpt lat="45.89245" lon="2.86152">
        <ele>779</ele>
        <time>2017-10-08T06:10:46Z</time>
      </trkpt>
      <trkpt lat="45.89246" lon="2.86144">
        <ele>779</ele>
        <time>2017-10-08T06:12:46Z</time>
      </trkpt>
      <trkpt lat="45.8925" lon="2.86126">
        <ele>778</ele>
        <time>2017-10-08T06:14:46Z</time>
      </trkpt>
      <trkpt lat="45.89251" lon="2.86122">
        <ele>778</ele>
        <time>2017-10-08T06:16:46Z</time>
      </trkpt>
      <trkpt lat="45.89254" lon="2.86113">
        <ele>777</ele>
        <time>2017-10-08T06:18:46Z</time>
      </trkpt>
      <trkpt lat="45.89255" lon="2.86105">
        <ele>777</ele>
        <time>2017-10-08T06:20:46Z</time>
      </trkpt>
      <trkpt lat="45.89256" lon="2.86102">
        <ele>777</ele>
        <time>2017-10-08T06:22:46Z</time>
      </trkpt>
      <trkpt lat="45.89257" lon="2.861">
        <ele>777</ele>
        <time>2017-10-08T06:24:46Z</time>
      </trkpt>
      <trkpt lat="45.89258" lon="2.86098">
        <ele>777</ele>
        <time>2017-10-08T06:26:46Z</time>
      </trkpt>
      <trkpt lat="45.8926" lon="2.86094">
        <ele>776</ele>
        <time>2017-10-08T06:28:46Z</time>
      </trkpt>
      <trkpt lat="45.89273" lon="2.86096">
        <ele>776</ele>
        <time>2017-10-08T06:30:46Z</time>
      </trkpt>
      <trkpt lat="45.89282" lon="2.86101">
        <ele>776</ele>
        <time>2017-10-08T06:32:46Z</time>
      </trkpt>
      <trkpt lat="45.89285" lon="2.86102">
        <ele>776</ele>
        <time>2017-10-08T06:34:46Z</time>
      </trkpt>
      <trkpt lat="45.89291" lon="2.86107">
        <ele>776</ele>
        <time>2017-10-08T06:36:46Z</time>
      </trkpt>
      <trkpt lat="45.89298" lon="2.86116">
        <ele>776</ele>
        <time>2017-10-08T06:38:46Z</time>
      </trkpt>
      <trkpt lat="45.89306" lon="2.86121">
        <ele>776</ele>
        <time>2017-10-08T06:40:46Z</time>
      </trkpt>
      <trkpt lat="45.89309" lon="2.86127">
        <ele>776</ele>
        <time>2017-10-08T06:42:46Z</time>
      </trkpt>
      <trkpt lat="45.8931" lon="2.86131">
        <ele>776</ele>
        <time>2017-10-08T06:44:46Z</time>
      </trkpt>
      <trkpt lat="45.89309" lon="2.86141">
        <ele>776</ele>
        <time>2017-10-08T06:46:46Z</time>
      </trkpt>
      <trkpt lat="45.89307" lon="2.86148">
        <ele>776</ele>
        <time>2017-10-08T06:48:46Z</time>
      </trkpt>
      <trkpt lat="45.89301" lon="2.86158">
        <ele>777</ele>
        <time>2017-10-08T06:50:46Z</time>
      </trkpt>
      <trkpt lat="45.89296" lon="2.86168">
        <ele>777</ele>
        <time>2017-10-08T06:52:46Z</time>
      </trkpt>
      <trkpt lat="45.89293" lon="2.86174">
        <ele>777</ele>
        <time>2017-10-08T06:54:46Z</time>
      </trkpt>
      <trkpt lat="45.89292" lon="2.8618">
        <ele>778</ele>
        <time>2017-10-08T06:56:46Z</time>
      </trkpt>
      <trkpt lat="45.89294" lon="2.86186">
        <ele>777</ele>
        <time>2017-10-08T06:58:46Z</time>
      </trkpt>
      <trkpt lat="45.89299" lon="2.86191">
        <ele>777</ele>
        <time>2017-10-08T07:00:46Z</time>
      </trkpt>
      <trkpt lat="45.89307" lon="2.86199">
        <ele>777</ele>
        <time>2017-10-08T07:02:46Z</time>
      </trkpt>
      <trkpt lat="45.89316" lon="2.86206">
        <ele>777</ele>
        <time>2017-10-08T07:04:46Z</time>
      </trkpt>
      <trkpt lat="45.89323" lon="2.86211">
        <ele>776</ele>
        <time>2017-10-08T07:06:46Z</time>
      </trkpt>
      <trkpt lat="45.89337" lon="2.86216">
        <ele>776</ele>
        <time>2017-10-08T07:08:46Z</time>
      </trkpt>
      <trkpt lat="45.89348" lon="2.8622">
        <ele>775</ele>
        <time>2017-10-08T07:10:46Z</time>
      </trkpt>
      <trkpt lat="45.89365" lon="2.86226">
        <ele>773</ele>
        <time>2017-10-08T07:12:46Z</time>
      </trkpt>
      <trkpt lat="45.89385" lon="2.86241">
        <ele>771</ele>
        <time>2017-10-08T07:14:46Z</time>
      </trkpt>
      <trkpt lat="45.89396" lon="2.8625">
        <ele>769</ele>
        <time>2017-10-08T07:16:46Z</time>
      </trkpt>
      <trkpt lat="45.8941" lon="2.86268">
        <ele>769</ele>
        <time>2017-10-08T07:18:46Z</time>
      </trkpt>
      <trkpt lat="45.89419" lon="2.86283">
        <ele>769</ele>
        <time>2017-10-08T07:20:46Z</time>
      </trkpt>
      <trkpt lat="45.89428" lon="2.86298">
        <ele>769</ele>
        <time>2017-10-08T07:22:46Z</time>
      </trkpt>
      <trkpt lat="45.89437" lon="2.86312">
        <ele>769</ele>
        <time>2017-10-08T07:24:46Z</time>
      </trkpt>
      <trkpt lat="45.89443" lon="2.86317">
        <ele>768</ele>
        <time>2017-10-08T07:26:46Z</time>
      </trkpt>
      <trkpt lat="45.89449" lon="2.8632">
        <ele>768</ele>
        <time>2017-10-08T07:28:46Z</time>
      </trkpt>
      <trkpt lat="45.89455" lon="2.86321">
        <ele>767</ele>
        <time>2017-10-08T07:30:46Z</time>
      </trkpt>
      <trkpt lat="45.89468" lon="2.8632">
        <ele>766</ele>
        <time>2017-10-08T07:32:46Z</time>
      </trkpt>
      <trkpt lat="45.89481" lon="2.86321">
        <ele>765</ele>
        <time>2017-10-08T07:34:46Z</time>
      </trkpt>
      <trkpt lat="45.895" lon="2.86322">
        <ele>763</ele>
        <time>2017-10-08T07:36:46Z</time>
      </trkpt>
      <trkpt lat="45.89511" lon="2.86323">
        <ele>763</ele>
        <time>2017-10-08T07:38:46Z</time>
      </trkpt>
      <trkpt lat="45.89521" lon="2.86326">
        <ele>762</ele>
        <time>2017-10-08T07:40:46Z</time>
      </trkpt>
      <trkpt lat="45.89526" lon="2.86328">
        <ele>762</ele>
        <time>2017-10-08T07:42:46Z</time>
      </trkpt>
      <trkpt lat="45.89531" lon="2.8633">
        <ele>762</ele>
        <time>2017-10-08T07:44:46Z</time>
      </trkpt>
      <trkpt lat="45.89541" lon="2.86335">
        <ele>762</ele>
        <time>2017-10-08T07:46:46Z</time>
      </trkpt>
      <trkpt lat="45.8955" lon="2.86341">
        <ele>762</ele>
        <time>2017-10-08T07:48:46Z</time>
      </trkpt>
      <trkpt lat="45.89558" lon="2.86348">
        <ele>762</ele>
        <time>2017-10-08T07:50:46Z</time>
      </trkpt>
      <trkpt lat="45.89568" lon="2.86354">
        <ele>762</ele>
        <time>2017-10-08T07:52:46Z</time>
      </trkpt>
      <trkpt lat="45.89604" lon="2.86371">
        <ele>761</ele>
        <time>2017-10-08T07:54:46Z</time>
      </trkpt>
      <trkpt lat="45.89631" lon="2.86382">
        <ele>760</ele>
        <time>2017-10-08T07:56:46Z</time>
      </trkpt>
      <trkpt lat="45.89636" lon="2.86383">
        <ele>760</ele>
        <time>2017-10-08T07:58:46Z</time>
      </trkpt>
      <trkpt lat="45.89647" lon="2.86389">
        <ele>760</ele>
        <time>2017-10-08T08:00:46Z</time>
      </trkpt>
      <trkpt lat="45.89657" lon="2.86393">
        <ele>760</ele>
        <time>2017-10-08T08:02:46Z</time>
      </trkpt>
      <trkpt lat="45.89673" lon="2.86399">
        <ele>760</ele>
        <time>2017-10-08T08:04:46Z</time>
      </trkpt>
      <trkpt lat="45.89684" lon="2.86404">
        <ele>760</ele>
        <time>2017-10-08T08:06:46Z</time>
      </trkpt>
      <trkpt lat="45.897" lon="2.86413">
        <ele>760</ele>
        <time>2017-10-08T08:08:46Z</time>
      </trkpt>
      <trkpt lat="45.89705" lon="2.86417">
        <ele>761</ele>
        <time>2017-10-08T08:10:46Z</time>
      </trkpt>
      <trkpt lat="45.8971" lon="2.8642">
        <ele>761</ele>
        <time>2017-10-08T08:12:46Z</time>
      </trkpt>
      <trkpt lat="45.8974" lon="2.86437">
        <ele>761</ele>
        <time>2017-10-08T08:14:46Z</time>
      </trkpt>
      <trkpt lat="45.8975" lon="2.86441">
        <ele>761</ele>
        <time>2017-10-08T08:16:46Z</time>
      </trkpt>
      <trkpt lat="45.89755" lon="2.86443">
        <ele>761</ele>
        <time>2017-10-08T08:18:46Z</time>
      </trkpt>
      <trkpt lat="45.8977" lon="2.86448">
        <ele>760</ele>
        <time>2017-10-08T08:20:46Z</time>
      </trkpt>
      <trkpt lat="45.89784" lon="2.86456">
        <ele>759</ele>
        <time>2017-10-08T08:22:46Z</time>
      </trkpt>
      <trkpt lat="45.89786" lon="2.86455">
        <ele>759</ele>
        <time>2017-10-08T08:24:46Z</time>
      </trkpt>
      <trkpt lat="45.89793" lon="2.86452">
        <ele>758</ele>
        <time>2017-10-08T08:26:46Z</time>
      </trkpt>
      <trkpt lat="45.89796" lon="2.86451">
        <ele>758</ele>
        <time>2017-10-08T08:28:46Z</time>
      </trkpt>
      <trkpt lat="45.89817" lon="2.8645">
        <ele>757</ele>
        <time>2017-10-08T08:30:46Z</time>
      </trkpt>
      <trkpt lat="45.89833" lon="2.8645">
        <ele>756</ele>
        <time>2017-10-08T08:32:46Z</time>
      </trkpt>
      <trkpt lat="45.89844" lon="2.8645">
        <ele>755</ele>
        <time>2017-10-08T08:34:46Z</time>
      </trkpt>
      <trkpt lat="45.89854" lon="2.86452">
        <ele>754</ele>
        <time>2017-10-08T08:36:46Z</time>
      </trkpt>
      <trkpt lat="45.89865" lon="2.86454">
        <ele>753</ele>
        <time>2017-10-08T08:38:46Z</time>
      </trkpt>
      <trkpt lat="45.89905" lon="2.86466">
        <ele>750</ele>
        <time>2017-10-08T08:40:46Z</time>
      </trkpt>
      <trkpt lat="45.89928" lon="2.86472">
        <ele>748</ele>
        <time>2017-10-08T08:42:46Z</time>
      </trkpt>
      <trkpt lat="45.89945" lon="2.86475">
        <ele>747</ele>
        <time>2017-10-08T08:44:46Z</time>
      </trkpt>
      <trkpt lat="45.8997" lon="2.86479">
        <ele>746</ele>
        <time>2017-10-08T08:46:46Z</time>
      </trkpt>
      <trkpt lat="45.89986" lon="2.8648">
        <ele>746</ele>
        <time>2017-10-08T08:48:46Z</time>
      </trkpt>
      <trkpt lat="45.89994" lon="2.86481">
        <ele>745</ele>
        <time>2017-10-08T08:50:46Z</time>
      </trkpt>
      <trkpt lat="45.9001" lon="2.86486">
        <ele>745</ele>
        <time>2017-10-08T08:52:46Z</time>
      </trkpt>
      <trkpt lat="45.90017" lon="2.8649">
        <ele>745</ele>
        <time>2017-10-08T08:54:46Z</time>
      </trkpt>
      <trkpt lat="45.90024" lon="2.86493">
        <ele>745</ele>
        <time>2017-10-08T08:56:46Z</time>
      </trkpt>
      <trkpt lat="45.90031" lon="2.86495">
        <ele>745</ele>
        <time>2017-10-08T08:58:46Z</time>
      </trkpt>
      <trkpt lat="45.90037" lon="2.86496">
        <ele>745</ele>
        <time>2017-10-08T09:00:46Z</time>
      </trkpt>
      <trkpt lat="45.90056" lon="2.86494">
        <ele>744</ele>
        <time>2017-10-08T09:02:46Z</time>
      </trkpt>
      <trkpt lat="45.90062" lon="2.86495">
        <ele>744</ele>
        <time>2017-10-08T09:04:46Z</time>
      </trkpt>
      <trkpt lat="45.90068" lon="2.86496">
        <ele>744</ele>
        <time>2017-10-08T09:06:46Z</time>
      </trkpt>
      <trkpt lat="45.90073" lon="2.86498">
        <ele>744</ele>
        <time>2017-10-08T09:08:46Z</time>
      </trkpt>
      <trkpt lat="45.90078" lon="2.86502">
        <ele>744</ele>
        <time>2017-10-08T09:10:46Z</time>
      </trkpt>
      <trkpt lat="45.90082" lon="2.86507">
        <ele>744</ele>
        <time>2017-10-08T09:12:46Z</time>
      </trkpt>
      <trkpt lat="45.90085" lon="2.86514">
        <ele>744</ele>
        <time>2017-10-08T09:14:46Z</time>
      </trkpt>
      <trkpt lat="45.90088" lon="2.86529">
        <ele>744</ele>
        <time>2017-10-08T09:16:46Z</time>
      </trkpt>
      <trkpt lat="45.90089" lon="2.86536">
        <ele>744</ele>
        <time>2017-10-08T09:18:46Z</time>
      </trkpt>
      <trkpt lat="45.9009" lon="2.86543">
        <ele>744</ele>
        <time>2017-10-08T09:20:46Z</time>
      </trkpt>
      <trkpt lat="45.9009" lon="2.86553">
        <ele>744</ele>
        <time>2017-10-08T09:22:46Z</time>
      </trkpt>
      <trkpt lat="45.90091" lon="2.86555">
        <ele>744</ele>
        <time>2017-10-08T09:24:46Z</time>
      </trkpt>
      <trkpt lat="45.9009" lon="2.86564">
        <ele>744</ele>
        <time>2017-10-08T09:26:46Z</time>
      </trkpt>
      <trkpt lat="45.90089" lon="2.86569">
        <ele>744</ele>
        <time>2017-10-08T09:28:46Z</time>
      </trkpt>
      <trkpt lat="45.90088" lon="2.86574">
        <ele>744</ele>
        <time>2017-10-08T09:30:46Z</time>
      </trkpt>
      <trkpt lat="45.90087" lon="2.8658">
        <ele>744</ele>
        <time>2017-10-08T09:32:46Z</time>
      </trkpt>
      <trkpt lat="45.90086" lon="2.86586">
        <ele>744</ele>
        <time>2017-10-08T09:34:46Z</time>
      </trkpt>
      <trkpt lat="45.90086" lon="2.86592">
        <ele>744</ele>
        <time>2017-10-08T09:36:46Z</time>
      </trkpt>
      <trkpt lat="45.90087" lon="2.86597">
        <ele>745</ele>
        <time>2017-10-08T09:38:46Z</time>
      </trkpt>
      <trkpt lat="45.90088" lon="2.86603">
        <ele>745</ele>
        <time>2017-10-08T09:40:46Z</time>
      </trkpt>
      <trkpt lat="45.9009" lon="2.86608">
        <ele>745</ele>
        <time>2017-10-08T09:42:46Z</time>
      </trkpt>
      <trkpt lat="45.90094" lon="2.86617">
        <ele>746</ele>
        <time>2017-10-08T09:44:46Z</time>
      </trkpt>
      <trkpt lat="45.90097" lon="2.86622">
        <ele>746</ele>
        <time>2017-10-08T09:46:46Z</time>
      </trkpt>
      <trkpt lat="45.90099" lon="2.86625">
        <ele>747</ele>
        <time>2017-10-08T09:48:46Z</time>
      </trkpt>
      <trkpt lat="45.90102" lon="2.86627">
        <ele>747</ele>
        <time>2017-10-08T09:50:46Z</time>
      </trkpt>
      <trkpt lat="45.90106" lon="2.86628">
        <ele>747</ele>
        <time>2017-10-08T09:52:46Z</time>
      </trkpt>
      <trkpt lat="45.90112" lon="2.8663">
        <ele>748</ele>
        <time>2017-10-08T09:54:46Z</time>
      </trkpt>
      <trkpt lat="45.90115" lon="2.86631">
        <ele>748</ele>
        <time>2017-10-08T09:56:46Z</time>
      </trkpt>
      <trkpt lat="45.90119" lon="2.86632">
        <ele>748</ele>
        <time>2017-10-08T09:58:46Z</time>
      </trkpt>
      <trkpt lat="45.90125" lon="2.86632">
        <ele>749</ele>
        <time>2017-10-08T10:00:46Z</time>
      </trkpt>
      <trkpt lat="45.90139" lon="2.86631">
        <ele>750</ele>
        <time>2017-10-08T10:02:46Z</time>
      </trkpt>
      <trkpt lat="45.90148" lon="2.86632">
        <ele>750</ele>
        <time>2017-10-08T10:04:46Z</time>
      </trkpt>
      <trkpt lat="45.90151" lon="2.86634">
        <ele>751</ele>
        <time>2017-10-08T10:06:46Z</time>
      </trkpt>
      <trkpt lat="45.90155" lon="2.86634">
        <ele>751</ele>
        <time>2017-10-08T10:08:46Z</time>
      </trkpt>
      <trkpt lat="45.9016" lon="2.86626">
        <ele>751</ele>
        <time>2017-10-08T10:10:46Z</time>
      </trkpt>
      <trkpt lat="45.9016" lon="2.86622">
        <ele>750</ele>
        <time>2017-10-08T10:12:46Z</time>
      </trkpt>
      <trkpt lat="45.90161" lon="2.86617">
        <ele>750</ele>
        <time>2017-10-08T10:14:46Z</time>
      </trkpt>
      <trkpt lat="45.90163" lon="2.8661">
        <ele>750</ele>
        <time>2017-10-08T10:16:46Z</time>
      </trkpt>
      <trkpt lat="45.90165" lon="2.86604">
        <ele>749</ele>
        <time>2017-10-08T10:18:46Z</time>
      </trkpt>
      <trkpt lat="45.90169" lon="2.86592">
        <ele>749</ele>
        <time>2017-10-08T10:20:46Z</time>
      </trkpt>
      <trkpt lat="45.90171" lon="2.86579">
        <ele>748</ele>
        <time>2017-10-08T10:22:46Z</time>
      </trkpt>
      <trkpt lat="45.90173" lon="2.86573">
        <ele>749</ele>
        <time>2017-10-08T10:24:46Z</time>
      </trkpt>
      <trkpt lat="45.90174" lon="2.86569">
        <ele>749</ele>
        <time>2017-10-08T10:26:46Z</time>
      </trkpt>
      <trkpt lat="45.90175" lon="2.86565">
        <ele>749</ele>
        <time>2017-10-08T10:28:46Z</time>
      </trkpt>
      <trkpt lat="45.90175" lon="2.8656">
        <ele>749</ele>
        <time>2017-10-08T10:30:46Z</time>
      </trkpt>
      <trkpt lat="45.90178" lon="2.86535">
        <ele>749</ele>
        <time>2017-10-08T10:32:46Z</time>
      </trkpt>
      <trkpt lat="45.9018" lon="2.86526">
        <ele>749</ele>
        <time>2017-10-08T10:34:46Z</time>
      </trkpt>
      <trkpt lat="45.90182" lon="2.86518">
        <ele>749</ele>
        <time>2017-10-08T10:36:46Z</time>
      </trkpt>
      <trkpt lat="45.90183" lon="2.86516">
        <ele>749</ele>
        <time>2017-10-08T10:38:46Z</time>
      </trkpt>
      <trkpt lat="45.90183" lon="2.86511">
        <ele>749</ele>
        <time>2017-10-08T10:40:46Z</time>
      </trkpt>
      <trkpt lat="45.90184" lon="2.86509">
        <ele>749</ele>
        <time>2017-10-08T10:42:46Z</time>
      </trkpt>
      <trkpt lat="45.90183" lon="2.86503">
        <ele>749</ele>
        <time>2017-10-08T10:44:46Z</time>
      </trkpt>
      <trkpt lat="45.90183" lon="2.86499">
        <ele>749</ele>
        <time>2017-10-08T10:46:46Z</time>
      </trkpt>
      <trkpt lat="45.90182" lon="2.86493">
        <ele>749</ele>
        <time>2017-10-08T10:48:46Z</time>
      </trkpt>
      <trkpt lat="45.9018" lon="2.8649">
        <ele>749</ele>
        <time>2017-10-08T10:50:46Z</time>
      </trkpt>
      <trkpt lat="45.90178" lon="2.86487">
        <ele>748</ele>
        <time>2017-10-08T10:52:46Z</time>
      </trkpt>
      <trkpt lat="45.90175" lon="2.86484">
        <ele>748</ele>
        <time>2017-10-08T10:54:46Z</time>
      </trkpt>
      <trkpt lat="45.90172" lon="2.86481">
        <ele>748</ele>
        <time>2017-10-08T10:56:46Z</time>
      </trkpt>
      <trkpt lat="45.9017" lon="2.86477">
        <ele>747</ele>
        <time>2017-10-08T10:58:46Z</time>
      </trkpt>
      <trkpt lat="45.90164" lon="2.86463">
        <ele>746</ele>
        <time>2017-10-08T11:00:46Z</time>
      </trkpt>
      <trkpt lat="45.90159" lon="2.86448">
        <ele>746</ele>
        <time>2017-10-08T11:02:46Z</time>
      </trkpt>
      <trkpt lat="45.90157" lon="2.86444">
        <ele>746</ele>
        <time>2017-10-08T11:04:46Z</time>
      </trkpt>
      <trkpt lat="45.90152" lon="2.86434">
        <ele>746</ele>
        <time>2017-10-08T11:06:46Z</time>
      </trkpt>
      <trkpt lat="45.90148" lon="2.86424">
        <ele>745</ele>
        <time>2017-10-08T11:08:46Z</time>
      </trkpt>
      <trkpt lat="45.90146" lon="2.86412">
        <ele>745</ele>
        <time>2017-10-08T11:10:46Z</time>
      </trkpt>
      <trkpt lat="45.90145" lon="2.86406">
        <ele>745</ele>
        <time>2017-10-08T11:12:46Z</time>
      </trkpt>
      <trkpt lat="45.90144" lon="2.86377">
        <ele>746</ele>
        <time>2017-10-08T11:14:46Z</time>
      </trkpt>
      <trkpt lat="45.90141" lon="2.86353">
        <ele>746</ele>
        <time>2017-10-08T11:16:46Z</time>
      </trkpt>
      <trkpt lat="45.90141" lon="2.86347">
        <ele>746</ele>
        <time>2017-10-08T11:18:46Z</time>
      </trkpt>
      <trkpt lat="45.90141" lon="2.86344">
        <ele>746</ele>
        <time>2017-10-08T11:20:46Z</time>
      </trkpt>
      <trkpt lat="45.90141" lon="2.86339">
        <ele>746</ele>
        <time>2017-10-08T11:22:46Z</time>
      </trkpt>
      <trkpt lat="45.90139" lon="2.86327">
        <ele>747</ele>
        <time>2017-10-08T11:24:46Z</time>
      </trkpt>
      <trkpt lat="45.90139" lon="2.86311">
        <ele>747</ele>
        <time>2017-10-08T11:26:46Z</time>
      </trkpt>
      <trkpt lat="45.90138" lon="2.86304">
        <ele>747</ele>
        <time>2017-10-08T11:28:46Z</time>
      </trkpt>
      <trkpt lat="45.90137" lon="2.86294">
        <ele>747</ele>
        <time>2017-10-08T11:30:46Z</time>
      </trkpt>
      <trkpt lat="45.90137" lon="2.86288">
        <ele>748</ele>
        <time>2017-10-08T11:32:46Z</time>
      </trkpt>
      <trkpt lat="45.90137" lon="2.86286">
        <ele>748</ele>
        <time>2017-10-08T11:34:46Z</time>
      </trkpt>
      <trkpt lat="45.90136" lon="2.86283">
        <ele>748</ele>
        <time>2017-10-08T11:36:46Z</time>
      </trkpt>
      <trkpt lat="45.90136" lon="2.8628">
        <ele>748</ele>
        <time>2017-10-08T11:38:46Z</time>
      </trkpt>
      <trkpt lat="45.90136" lon="2.8627">
        <ele>748</ele>
        <time>2017-10-08T11:40:46Z</time>
      </trkpt>
      <trkpt lat="45.90134" lon="2.86243">
        <ele>749</ele>
        <time>2017-10-08T11:42:46Z</time>
      </trkpt>
      <trkpt lat="45.9013" lon="2.86212">
        <ele>749</ele>
        <time>2017-10-08T11:44:46Z</time>
      </trkpt>
      <trkpt lat="45.90128" lon="2.86186">
        <ele>750</ele>
        <time>2017-10-08T11:46:46Z</time>
      </trkpt>
      <trkpt lat="45.90125" lon="2.86157">
        <ele>749</ele>
        <time>2017-10-08T11:48:46Z</time>
      </trkpt>
      <trkpt lat="45.90125" lon="2.86152">
        <ele>749</ele>
        <time>2017-10-08T11:50:46Z</time>
      </trkpt>
      <trkpt lat="45.90125" lon="2.86147">
        <ele>749</ele>
        <time>2017-10-08T11:52:46Z</time>
      </trkpt>
      <trkpt lat="45.90126" lon="2.86136">
        <ele>750</ele>
        <time>2017-10-08T11:54:46Z</time>
      </trkpt>
      <trkpt lat="45.90127" lon="2.86131">
        <ele>750</ele>
        <time>2017-10-08T11:56:46Z</time>
      </trkpt>
      <trkpt lat="45.90133" lon="2.86115">
        <ele>750</ele>
        <time>2017-10-08T11:58:46Z</time>
      </trkpt>
      <trkpt lat="45.90134" lon="2.86111">
        <ele>751</ele>
        <time>2017-10-08T12:00:46Z</time>
      </trkpt>
      <trkpt lat="45.90138" lon="2.861">
        <ele>751</ele>
        <time>2017-10-08T12:02:46Z</time>
      </trkpt>
      <trkpt lat="45.90148" lon="2.86072">
        <ele>751</ele>
        <time>2017-10-08T12:04:46Z</time>
      </trkpt>
      <trkpt lat="45.90149" lon="2.86065">
        <ele>751</ele>
        <time>2017-10-08T12:06:46Z</time>
      </trkpt>
      <trkpt lat="45.90152" lon="2.86058">
        <ele>751</ele>
        <time>2017-10-08T12:08:46Z</time>
      </trkpt>
      <trkpt lat="45.90153" lon="2.86052">
        <ele>751</ele>
        <time>2017-10-08T12:10:46Z</time>
      </trkpt>
      <trkpt lat="45.90155" lon="2.86046">
        <ele>751</ele>
        <time>2017-10-08T12:12:46Z</time>
      </trkpt>
      <trkpt lat="45.90156" lon="2.86043">
        <ele>750</ele>
        <time>2017-10-08T12:14:46Z</time>
      </trkpt>
      <trkpt lat="45.9016" lon="2.86033">
        <ele>750</ele>
        <time>2017-10-08T12:16:46Z</time>
      </trkpt>
      <trkpt lat="45.90161" lon="2.86028">
        <ele>750</ele>
        <time>2017-10-08T12:18:46Z</time>
      </trkpt>
      <trkpt lat="45.90173" lon="2.85989">
        <ele>749</ele>
        <time>2017-10-08T12:20:46Z</time>
      </trkpt>
      <trkpt lat="45.90178" lon="2.85969">
        <ele>749</ele>
        <time>2017-10-08T12:22:46Z</time>
      </trkpt>
      <trkpt lat="45.9018" lon="2.85963">
        <ele>749</ele>
        <time>2017-10-08T12:24:46Z</time>
      </trkpt>
      <trkpt lat="45.90182" lon="2.85951">
        <ele>749</ele>
        <time>2017-10-08T12:26:46Z</time>
      </trkpt>
      <trkpt lat="45.90186" lon="2.85909">
        <ele>749</ele>
        <time>2017-10-08T12:28:46Z</time>
      </trkpt>
      <trkpt lat="45.90187" lon="2.85899">
        <ele>749</ele>
        <time>2017-10-08T12:30:46Z</time>
      </trkpt>
      <trkpt lat="45.90187" lon="2.85893">
        <ele>750</ele>
        <time>2017-10-08T12:32:46Z</time>
      </trkpt>
      <trkpt lat="45.90189" lon="2.85874">
        <ele>750</ele>
        <time>2017-10-08T12:34:46Z</time>
      </trkpt>
      <trkpt lat="45.9019" lon="2.85866">
        <ele>751</ele>
        <time>2017-10-08T12:36:46Z</time>
      </trkpt>
      <trkpt lat="45.90191" lon="2.85842">
        <ele>752</ele>
        <time>2017-10-08T12:38:46Z</time>
      </trkpt>
      <trkpt lat="45.90192" lon="2.85827">
        <ele>752</ele>
        <time>2017-10-08T12:40:46Z</time>
      </trkpt>
      <trkpt lat="45.90192" lon="2.85824">
        <ele>752</ele>
        <time>2017-10-08T12:42:46Z</time>
      </trkpt>
      <trkpt lat="45.90193" lon="2.8582">
        <ele>752</ele>
        <time>2017-10-08T12:44:46Z</time>
      </trkpt>
      <trkpt lat="45.90193" lon="2.85816">
        <ele>752</ele>
        <time>2017-10-08T12:46:46Z</time>
      </trkpt>
      <trkpt lat="45.90193" lon="2.85812">
        <ele>752</ele>
        <time>2017-10-08T12:48:46Z</time>
      </trkpt>
      <trkpt lat="45.90193" lon="2.85808">
        <ele>752</ele>
        <time>2017-10-08T12:50:46Z</time>
      </trkpt>
      <trkpt lat="45.90194" lon="2.85796">
        <ele>752</ele>
        <time>2017-10-08T12:52:46Z</time>
      </trkpt>
      <trkpt lat="45.90195" lon="2.8578">
        <ele>753</ele>
        <time>2017-10-08T12:54:46Z</time>
      </trkpt>
      <trkpt lat="45.90196" lon="2.85768">
        <ele>753</ele>
        <time>2017-10-08T12:56:46Z</time>
      </trkpt>
      <trkpt lat="45.90198" lon="2.85758">
        <ele>753</ele>
        <time>2017-10-08T12:58:46Z</time>
      </trkpt>
      <trkpt lat="45.90199" lon="2.85754">
        <ele>753</ele>
        <time>2017-10-08T13:00:46Z</time>
      </trkpt>
      <trkpt lat="45.90201" lon="2.8575">
        <ele>753</ele>
        <time>2017-10-08T13:02:46Z</time>
      </trkpt>
      <trkpt lat="45.90204" lon="2.85748">
        <ele>753</ele>
        <time>2017-10-08T13:04:46Z</time>
      </trkpt>
      <trkpt lat="45.90206" lon="2.85747">
        <ele>754</ele>
        <time>2017-10-08T13:06:46Z</time>
      </trkpt>
      <trkpt lat="45.90209" lon="2.85746">
        <ele>754</ele>
        <time>2017-10-08T13:08:46Z</time>
      </trkpt>
      <trkpt lat="45.90211" lon="2.85747">
        <ele>754</ele>
        <time>2017-10-08T13:10:46Z</time>
      </trkpt>
      <trkpt lat="45.90213" lon="2.85748">
        <ele>754</ele>
        <time>2017-10-08T13:12:46Z</time>
      </trkpt>
      <trkpt lat="45.90215" lon="2.85749">
        <ele>755</ele>
        <time>2017-10-08T13:14:46Z</time>
      </trkpt>
      <trkpt lat="45.90223" lon="2.85752">
        <ele>756</ele>
        <time>2017-10-08T13:16:46Z</time>
      </trkpt>
      <trkpt lat="45.90226" lon="2.85752">
        <ele>756</ele>
        <time>2017-10-08T13:18:46Z</time>
      </trkpt>
      <trkpt lat="45.9023" lon="2.85753">
        <ele>757</ele>
        <time>2017-10-08T13:20:46Z</time>
      </trkpt>
      <trkpt lat="45.90242" lon="2.85755">
        <ele>758</ele>
        <time>2017-10-08T13:22:46Z</time>
      </trkpt>
      <trkpt lat="45.9025" lon="2.85758">
        <ele>759</ele>
        <time>2017-10-08T13:24:46Z</time>
      </trkpt>
      <trkpt lat="45.90256" lon="2.85761">
        <ele>760</ele>
        <time>2017-10-08T13:26:46Z</time>
      </trkpt>
      <trkpt lat="45.90265" lon="2.85767">
        <ele>760</ele>
        <time>2017-10-08T13:28:46Z</time>
      </trkpt>
      <trkpt lat="45.90268" lon="2.85768">
        <ele>760</ele>
        <time>2017-10-08T13:30:46Z</time>
      </trkpt>
      <trkpt lat="45.90291" lon="2.85784">
        <ele>762</ele>
        <time>2017-10-08T13:32:46Z</time>
      </trkpt>
      <trkpt lat="45.90303" lon="2.85791">
        <ele>763</ele>
        <time>2017-10-08T13:34:46Z</time>
      </trkpt>
      <trkpt lat="45.90306" lon="2.85792">
        <ele>764</ele>
        <time>2017-10-08T13:36:46Z</time>
      </trkpt>
      <trkpt lat="45.90308" lon="2.85793">
        <ele>764</ele>
        <time>2017-10-08T13:38:46Z</time>
      </trkpt>
      <trkpt lat="45.90312" lon="2.85795">
        <ele>764</ele>
        <time>2017-10-08T13:40:46Z</time>
      </trkpt>
      <trkpt lat="45.90317" lon="2.85795">
        <ele>764</ele>
        <time>2017-10-08T13:42:46Z</time>
      </trkpt>
      <trkpt lat="45.90321" lon="2.85791">
        <ele>765</ele>
        <time>2017-10-08T13:44:46Z</time>
      </trkpt>
      <trkpt lat="45.90324" lon="2.85786">
        <ele>765</ele>
        <time>2017-10-08T13:46:46Z</time>
      </trkpt>
      <trkpt lat="45.90324" lon="2.85784">
        <ele>765</ele>
        <time>2017-10-08T13:48:46Z</time>
      </trkpt>
      <trkpt lat="45.90326" lon="2.85782">
        <ele>765</ele>
        <time>2017-10-08T13:50:46Z</time>
      </trkpt>
      <trkpt lat="45.9033" lon="2.85777">
        <ele>765</ele>
        <time>2017-10-08T13:52:46Z</time>
      </trkpt>
      <trkpt lat="45.90332" lon="2.85775">
        <ele>765</ele>
        <time>2017-10-08T13:54:46Z</time>
      </trkpt>
      <trkpt lat="45.90334" lon="2.85774">
        <ele>765</ele>
        <time>2017-10-08T13:56:46Z</time>
      </trkpt>
      <trkpt lat="45.9034" lon="2.85767">
        <ele>765</ele>
        <time>2017-10-08T13:58:46Z</time>
      </trkpt>
      <trkpt lat="45.90344" lon="2.85763">
        <ele>765</ele>
        <time>2017-10-08T14:00:46Z</time>
      </trkpt>
      <trkpt lat="45.90349" lon="2.85759">
        <ele>765</ele>
        <time>2017-10-08T14:02:46Z</time>
      </trkpt>
      <trkpt lat="45.90357" lon="2.85751">
        <ele>765</ele>
        <time>2017-10-08T14:04:46Z</time>
      </trkpt>
      <trkpt lat="45.90362" lon="2.85746">
        <ele>765</ele>
        <time>2017-10-08T14:06:46Z</time>
      </trkpt>
      <trkpt lat="45.90374" lon="2.85735">
        <ele>765</ele>
        <time>2017-10-08T14:08:46Z</time>
      </trkpt>
      <trkpt lat="45.90388" lon="2.85722">
        <ele>765</ele>
        <time>2017-10-08T14:10:46Z</time>
      </trkpt>
      <trkpt lat="45.90394" lon="2.85717">
        <ele>765</ele>
        <time>2017-10-08T14:12:46Z</time>
      </trkpt>
      <trkpt lat="45.90399" lon="2.85711">
        <ele>765</ele>
        <time>2017-10-08T14:14:46Z</time>
      </trkpt>
      <trkpt lat="45.90413" lon="2.85699">
        <ele>765</ele>
        <time>2017-10-08T14:16:46Z</time>
      </trkpt>
      <trkpt lat="45.90416" lon="2.85694">
        <ele>765</ele>
        <time>2017-10-08T14:18:46Z</time>
      </trkpt>
      <trkpt lat="45.90417" lon="2.85693">
        <ele>765</ele>
        <time>2017-10-08T14:20:46Z</time>
      </trkpt>
      <trkpt lat="45.90422" lon="2.85689">
        <ele>765</ele>
        <time>2017-10-08T14:22:46Z</time>
      </trkpt>
      <trkpt lat="45.90428" lon="2.85683">
        <ele>765</ele>
        <time>2017-10-08T14:24:46Z</time>
      </trkpt>
      <trkpt lat="45.90432" lon="2.85678">
        <ele>765</ele>
        <time>2017-10-08T14:26:46Z</time>
      </trkpt>
      <trkpt lat="45.90438" lon="2.8567">
        <ele>765</ele>
        <time>2017-10-08T14:28:46Z</time>
      </trkpt>
      <trkpt lat="45.9044" lon="2.85667">
        <ele>765</ele>
        <time>2017-10-08T14:30:46Z</time>
      </trkpt>
      <trkpt lat="45.90445" lon="2.85662">
        <ele>766</ele>
        <time>2017-10-08T14:32:46Z</time>
      </trkpt>
      <trkpt lat="45.9045" lon="2.85657">
        <ele>766</ele>
        <time>2017-10-08T14:34:46Z</time>
      </trkpt>
      <trkpt lat="45.90456" lon="2.85652">
        <ele>766</ele>
        <time>2017-10-08T14:36:46Z</time>
      </trkpt>
      <trkpt lat="45.90459" lon="2.85651">
        <ele>766</ele>
        <time>2017-10-08T14:38:46Z</time>
      </trkpt>
      <trkpt lat="45.90461" lon="2.8565">
        <ele>766</ele>
        <time>2017-10-08T14:40:46Z</time>
      </trkpt>
      <trkpt lat="45.90469" lon="2.85643">
        <ele>766</ele>
        <time>2017-10-08T14:42:46Z</time>
      </trkpt>
      <trkpt lat="45.90479" lon="2.85636">
        <ele>767</ele>
        <time>2017-10-08T14:44:46Z</time>
      </trkpt>
      <trkpt lat="45.90484" lon="2.85633">
        <ele>767</ele>
        <time>2017-10-08T14:46:46Z</time>
      </trkpt>
      <trkpt lat="45.90487" lon="2.85631">
        <ele>767</ele>
        <time>2017-10-08T14:48:46Z</time>
      </trkpt>
      <trkpt lat="45.90489" lon="2.85629">
        <ele>767</ele>
        <time>2017-10-08T14:50:46Z</time>
      </trkpt>
      <trkpt lat="45.90498" lon="2.85623">
        <ele>767</ele>
        <time>2017-10-08T14:52:46Z</time>
      </trkpt>
      <trkpt lat="45.90503" lon="2.85622">
        <ele>767</ele>
        <time>2017-10-08T14:54:46Z</time>
      </trkpt>
      <trkpt lat="45.90508" lon="2.8562">
        <ele>767</ele>
        <time>2017-10-08T14:56:46Z</time>
      </trkpt>
      <trkpt lat="45.90515" lon="2.85615">
        <ele>767</ele>
        <time>2017-10-08T14:58:46Z</time>
      </trkpt>
      <trkpt lat="45.90517" lon="2.85615">
        <ele>767</ele>
        <time>2017-10-08T15:00:46Z</time>
      </trkpt>
      <trkpt lat="45.9052" lon="2.85613">
        <ele>767</ele>
        <time>2017-10-08T15:02:46Z</time>
      </trkpt>
      <trkpt lat="45.9053" lon="2.85608">
        <ele>766</ele>
        <time>2017-10-08T15:04:46Z</time>
      </trkpt>
      <trkpt lat="45.90532" lon="2.85607">
        <ele>766</ele>
        <time>2017-10-08T15:06:46Z</time>
      </trkpt>
      <trkpt lat="45.90536" lon="2.85605">
        <ele>766</ele>
        <time>2017-10-08T15:08:46Z</time>
      </trkpt>
      <trkpt lat="45.90543" lon="2.85602">
        <ele>766</ele>
        <time>2017-10-08T15:10:46Z</time>
      </trkpt>
      <trkpt lat="45.90549" lon="2.85601">
        <ele>766</ele>
        <time>2017-10-08T15:12:46Z</time>
      </trkpt>
      <trkpt lat="45.90553" lon="2.85602">
        <ele>766</ele>
        <time>2017-10-08T15:14:46Z</time>
      </trkpt>
      <trkpt lat="45.9056" lon="2.85601">
        <ele>765</ele>
        <time>2017-10-08T15:16:46Z</time>
      </trkpt>
      <trkpt lat="45.9057" lon="2.85601">
        <ele>765</ele>
        <time>2017-10-08T15:18:46Z</time>
      </trkpt>
      <trkpt lat="45.90575" lon="2.85602">
        <ele>765</ele>
        <time>2017-10-08T15:20:46Z</time>
      </trkpt>
      <trkpt lat="45.9058" lon="2.85602">
        <ele>765</ele>
        <time>2017-10-08T15:22:46Z</time>
      </trkpt>
      <trkpt lat="45.90597" lon="2.85603">
        <ele>764</ele>
        <time>2017-10-08T15:24:46Z</time>
      </trkpt>
      <trkpt lat="45.9061" lon="2.85603">
        <ele>764</ele>
        <time>2017-10-08T15:26:46Z</time>
      </trkpt>
      <trkpt lat="45.90624" lon="2.85603">
        <ele>763</ele>
        <time>2017-10-08T15:28:46Z</time>
      </trkpt>
      <trkpt lat="45.90636" lon="2.85602">
        <ele>762</ele>
        <time>2017-10-08T15:30:46Z</time>
      </trkpt>
      <trkpt lat="45.90646" lon="2.85601">
        <ele>762</ele>
        <time>2017-10-08T15:32:46Z</time>
      </trkpt>
      <trkpt lat="45.90652" lon="2.85601">
        <ele>761</ele>
        <time>2017-10-08T15:34:46Z</time>
      </trkpt>
      <trkpt lat="45.90656" lon="2.85599">
        <ele>761</ele>
        <time>2017-10-08T15:36:46Z</time>
      </trkpt>
      <trkpt lat="45.90656" lon="2.85596">
        <ele>761</ele>
        <time>2017-10-08T15:38:46Z</time>
      </trkpt>
      <trkpt lat="45.90656" lon="2.85593">
        <ele>761</ele>
        <time>2017-10-08T15:40:46Z</time>
      </trkpt>
      <trkpt lat="45.90655" lon="2.85589">
        <ele>761</ele>
        <time>2017-10-08T15:42:46Z</time>
      </trkpt>
      <trkpt lat="45.90653" lon="2.85586">
        <ele>761</ele>
        <time>2017-10-08T15:44:46Z</time>
      </trkpt>
      <trkpt lat="45.9065" lon="2.85582">
        <ele>761</ele>
        <time>2017-10-08T15:46:46Z</time>
      </trkpt>
      <trkpt lat="45.90649" lon="2.85579">
        <ele>761</ele>
        <time>2017-10-08T15:48:46Z</time>
      </trkpt>
      <trkpt lat="45.90649" lon="2.85577">
        <ele>761</ele>
        <time>2017-10-08T15:50:46Z</time>
      </trkpt>
      <trkpt lat="45.9065" lon="2.8557">
        <ele>760</ele>
        <time>2017-10-08T15:52:46Z</time>
      </trkpt>
      <trkpt lat="45.9065" lon="2.85567">
        <ele>760</ele>
        <time>2017-10-08T15:54:46Z</time>
      </trkpt>
      <trkpt lat="45.90652" lon="2.85564">
        <ele>760</ele>
        <time>2017-10-08T15:56:46Z</time>
      </trkpt>
      <trkpt lat="45.90658" lon="2.85558">
        <ele>760</ele>
        <time>2017-10-08T15:58:46Z</time>
      </trkpt>
      <trkpt lat="45.90661" lon="2.85553">
        <ele>759</ele>
        <time>2017-10-08T16:00:46Z</time>
      </trkpt>
      <trkpt lat="45.90663" lon="2.85549">
        <ele>759</ele>
        <time>2017-10-08T16:02:46Z</time>
      </trkpt>
      <trkpt lat="45.90665" lon="2.85548">
        <ele>759</ele>
        <time>2017-10-08T16:04:46Z</time>
      </trkpt>
      <trkpt lat="45.90665" lon="2.85546">
        <ele>759</ele>
        <time>2017-10-08T16:06:46Z</time>
      </trkpt>
      <trkpt lat="45.9067" lon="2.85536">
        <ele>758</ele>
        <time>2017-10-08T16:08:46Z</time>
      </trkpt>
      <trkpt lat="45.90677" lon="2.85526">
        <ele>757</ele>
        <time>2017-10-08T16:10:46Z</time>
      </trkpt>
      <trkpt lat="45.9068" lon="2.8552">
        <ele>757</ele>
        <time>2017-10-08T16:12:46Z</time>
      </trkpt>
      <trkpt lat="45.90686" lon="2.85508">
        <ele>756</ele>
        <time>2017-10-08T16:14:46Z</time>
      </trkpt>
      <trkpt lat="45.9069" lon="2.85502">
        <ele>755</ele>
        <time>2017-10-08T16:16:46Z</time>
      </trkpt>
      <trkpt lat="45.90694" lon="2.85498">
        <ele>755</ele>
        <time>2017-10-08T16:18:46Z</time>
      </trkpt>
      <trkpt lat="45.90698" lon="2.85495">
        <ele>755</ele>
        <time>2017-10-08T16:20:46Z</time>
      </trkpt>
      <trkpt lat="45.90703" lon="2.85494">
        <ele>754</ele>
        <time>2017-10-08T16:22:46Z</time>
      </trkpt>
      <trkpt lat="45.90719" lon="2.85495">
        <ele>753</ele>
        <time>2017-10-08T16:24:46Z</time>
      </trkpt>
      <trkpt lat="45.90736" lon="2.85493">
        <ele>752</ele>
        <time>2017-10-08T16:26:46Z</time>
      </trkpt>
      <trkpt lat="45.90749" lon="2.85493">
        <ele>751</ele>
        <time>2017-10-08T16:28:46Z</time>
      </trkpt>
      <trkpt lat="45.90761" lon="2.85494">
        <ele>750</ele>
        <time>2017-10-08T16:30:46Z</time>
      </trkpt>
      <trkpt lat="45.90785" lon="2.85498">
        <ele>747</ele>
        <time>2017-10-08T16:32:46Z</time>
      </trkpt>
      <trkpt lat="45.90797" lon="2.85498">
        <ele>746</ele>
        <time>2017-10-08T16:34:46Z</time>
      </trkpt>
      <trkpt lat="45.90803" lon="2.85499">
        <ele>745</ele>
        <time>2017-10-08T16:36:46Z</time>
      </trkpt>
      <trkpt lat="45.90809" lon="2.855">
        <ele>745</ele>
        <time>2017-10-08T16:38:46Z</time>
      </trkpt>
      <trkpt lat="45.90815" lon="2.85502">
        <ele>744</ele>
        <time>2017-10-08T16:40:46Z</time>
      </trkpt>
      <trkpt lat="45.90826" lon="2.85506">
        <ele>742</ele>
        <time>2017-10-08T16:42:46Z</time>
      </trkpt>
      <trkpt lat="45.90838" lon="2.85512">
        <ele>740</ele>
        <time>2017-10-08T16:44:46Z</time>
      </trkpt>
      <trkpt lat="45.90843" lon="2.85517">
        <ele>739</ele>
        <time>2017-10-08T16:46:46Z</time>
      </trkpt>
      <trkpt lat="45.90855" lon="2.85525">
        <ele>737</ele>
        <time>2017-10-08T16:48:46Z</time>
      </trkpt>
      <trkpt lat="45.90876" lon="2.85545">
        <ele>733</ele>
        <time>2017-10-08T16:50:46Z</time>
      </trkpt>
      <trkpt lat="45.90881" lon="2.85548">
        <ele>732</ele>
        <time>2017-10-08T16:52:46Z</time>
      </trkpt>
      <trkpt lat="45.90886" lon="2.85551">
        <ele>731</ele>
        <time>2017-10-08T16:54:46Z</time>
      </trkpt>
      <trkpt lat="45.9089" lon="2.85552">
        <ele>730</ele>
        <time>2017-10-08T16:56:46Z</time>
      </trkpt>
      <trkpt lat="45.90893" lon="2.85552">
        <ele>730</ele>
        <time>2017-10-08T16:58:46Z</time>
      </trkpt>
      <trkpt lat="45.90897" lon="2.85551">
        <ele>729</ele>
        <time>2017-10-08T17:00:46Z</time>
      </trkpt>
      <trkpt lat="45.909" lon="2.85548">
        <ele>729</ele>
        <time>2017-10-08T17:02:46Z</time>
      </trkpt>
      <trkpt lat="45.90904" lon="2.85544">
        <ele>728</ele>
        <time>2017-10-08T17:04:46Z</time>
      </trkpt>
      <trkpt lat="45.90909" lon="2.85539">
        <ele>728</ele>
        <time>2017-10-08T17:06:46Z</time>
      </trkpt>
      <trkpt lat="45.90912" lon="2.85533">
        <ele>727</ele>
        <time>2017-10-08T17:08:46Z</time>
      </trkpt>
      <trkpt lat="45.90915" lon="2.85528">
        <ele>727</ele>
        <time>2017-10-08T17:10:46Z</time>
      </trkpt>
      <trkpt lat="45.90916" lon="2.85521">
        <ele>727</ele>
        <time>2017-10-08T17:12:46Z</time>
      </trkpt>
      <trkpt lat="45.90917" lon="2.85521">
        <ele>727</ele>
        <time>2017-10-08T17:14:46Z</time>
      </trkpt>
      <trkpt lat="45.90917" lon="2.85519">
        <ele>727</ele>
        <time>2017-10-08T17:16:46Z</time>
      </trkpt>
      <trkpt lat="45.90918" lon="2.85514">
        <ele>727</ele>
        <time>2017-10-08T17:18:46Z</time>
      </trkpt>
      <trkpt lat="45.90919" lon="2.85503">
        <ele>727</ele>
        <time>2017-10-08T17:20:46Z</time>
      </trkpt>
      <trkpt lat="45.90921" lon="2.85499">
        <ele>727</ele>
        <time>2017-10-08T17:22:46Z</time>
      </trkpt>
      <trkpt lat="45.90922" lon="2.85495">
        <ele>727</ele>
        <time>2017-10-08T17:24:46Z</time>
      </trkpt>
      <trkpt lat="45.90925" lon="2.85485">
        <ele>727</ele>
        <time>2017-10-08T17:26:46Z</time>
      </trkpt>
      <trkpt lat="45.90927" lon="2.85479">
        <ele>726</ele>
        <time>2017-10-08T17:28:46Z</time>
      </trkpt>
      <trkpt lat="45.90937" lon="2.85461">
        <ele>725</ele>
        <time>2017-10-08T17:30:46Z</time>
      </trkpt>
      <trkpt lat="45.9094" lon="2.85455">
        <ele>725</ele>
        <time>2017-10-08T17:32:46Z</time>
      </trkpt>
      <trkpt lat="45.90943" lon="2.85448">
        <ele>724</ele>
        <time>2017-10-08T17:34:46Z</time>
      </trkpt>
      <trkpt lat="45.90953" lon="2.85425">
        <ele>723</ele>
        <time>2017-10-08T17:36:46Z</time>
      </trkpt>
      <trkpt lat="45.90963" lon="2.85402">
        <ele>721</ele>
        <time>2017-10-08T17:38:46Z</time>
      </trkpt>
      <trkpt lat="45.90966" lon="2.85395">
        <ele>720</ele>
        <time>2017-10-08T17:40:46Z</time>
      </trkpt>
      <trkpt lat="45.9097" lon="2.85387">
        <ele>719</ele>
        <time>2017-10-08T17:42:46Z</time>
      </trkpt>
      <trkpt lat="45.90973" lon="2.85379">
        <ele>719</ele>
        <time>2017-10-08T17:44:46Z</time>
      </trkpt>
      <trkpt lat="45.90979" lon="2.85363">
        <ele>717</ele>
        <time>2017-10-08T17:46:46Z</time>
      </trkpt>
      <trkpt lat="45.90983" lon="2.85355">
        <ele>716</ele>
        <time>2017-10-08T17:48:46Z</time>
      </trkpt>
      <trkpt lat="45.90986" lon="2.85347">
        <ele>716</ele>
        <time>2017-10-08T17:50:46Z</time>
      </trkpt>
      <trkpt lat="45.90989" lon="2.85338">
        <ele>715</ele>
        <time>2017-10-08T17:52:46Z</time>
      </trkpt>
      <trkpt lat="45.90991" lon="2.85329">
        <ele>715</ele>
        <time>2017-10-08T17:54:46Z</time>
      </trkpt>
      <trkpt lat="45.90992" lon="2.85321">
        <ele>714</ele>
        <time>2017-10-08T17:56:46Z</time>
      </trkpt>
      <trkpt lat="45.90994" lon="2.85309">
        <ele>714</ele>
        <time>2017-10-08T17:58:46Z</time>
      </trkpt>
      <trkpt lat="45.90994" lon="2.85306">
        <ele>714</ele>
        <time>2017-10-08T18:00:46Z</time>
      </trkpt>
      <trkpt lat="45.90994" lon="2.85305">
        <ele>714</ele>
        <time>2017-10-08T18:02:46Z</time>
      </trkpt>
      <trkpt lat="45.90994" lon="2.85304">
        <ele>714</ele>
        <time>2017-10-08T18:04:46Z</time>
      </trkpt>
      <trkpt lat="45.90996" lon="2.85302">
        <ele>714</ele>
        <time>2017-10-08T18:06:46Z</time>
      </trkpt>
      <trkpt lat="45.90999" lon="2.853">
        <ele>714</ele>
        <time>2017-10-08T18:08:46Z</time>
      </trkpt>
      <trkpt lat="45.91001" lon="2.853">
        <ele>714</ele>
        <time>2017-10-08T18:10:46Z</time>
      </trkpt>
      <trkpt lat="45.91002" lon="2.85301">
        <ele>714</ele>
        <time>2017-10-08T18:12:46Z</time>
      </trkpt>
      <trkpt lat="45.91004" lon="2.85303">
        <ele>714</ele>
        <time>2017-10-08T18:14:46Z</time>
      </trkpt>
      <trkpt lat="45.91005" lon="2.85306">
        <ele>714</ele>
        <time>2017-10-08T18:16:46Z</time>
      </trkpt>
      <trkpt lat="45.91004" lon="2.85307">
        <ele>714</ele>
        <time>2017-10-08T18:18:46Z</time>
      </trkpt>
      <trkpt lat="45.91005" lon="2.85309">
        <ele>714</ele>
        <time>2017-10-08T18:20:46Z</time>
      </trkpt>
      <trkpt lat="45.91007" lon="2.85315">
        <ele>714</ele>
        <time>2017-10-08T18:22:46Z</time>
      </trkpt>
      <trkpt lat="45.91008" lon="2.85318">
        <ele>714</ele>
        <time>2017-10-08T18:24:46Z</time>
      </trkpt>
      <trkpt lat="45.91009" lon="2.8532">
        <ele>714</ele>
        <time>2017-10-08T18:26:46Z</time>
      </trkpt>
      <trkpt lat="45.91013" lon="2.85326">
        <ele>715</ele>
        <time>2017-10-08T18:28:46Z</time>
      </trkpt>
      <trkpt lat="45.91014" lon="2.85327">
        <ele>715</ele>
        <time>2017-10-08T18:30:46Z</time>
      </trkpt>
      <trkpt lat="45.91018" lon="2.85329">
        <ele>716</ele>
        <time>2017-10-08T18:32:46Z</time>
      </trkpt>
      <trkpt lat="45.91021" lon="2.85329">
        <ele>716</ele>
        <time>2017-10-08T18:34:46Z</time>
      </trkpt>
      <trkpt lat="45.91022" lon="2.85329">
        <ele>716</ele>
        <time>2017-10-08T18:36:46Z</time>
      </trkpt>
      <trkpt lat="45.91024" lon="2.85328">
        <ele>717</ele>
        <time>2017-10-08T18:38:46Z</time>
      </trkpt>
      <trkpt lat="45.91025" lon="2.85326">
        <ele>717</ele>
        <time>2017-10-08T18:40:46Z</time>
      </trkpt>
      <trkpt lat="45.91029" lon="2.85323">
        <ele>717</ele>
        <time>2017-10-08T18:42:46Z</time>
      </trkpt>
      <trkpt lat="45.9103" lon="2.85322">
        <ele>718</ele>
        <time>2017-10-08T18:44:46Z</time>
      </trkpt>
      <trkpt lat="45.91031" lon="2.85319">
        <ele>718</ele>
        <time>2017-10-08T18:46:46Z</time>
      </trkpt>
      <trkpt lat="45.91032" lon="2.85319">
        <ele>718</ele>
        <time>2017-10-08T18:48:46Z</time>
      </trkpt>
      <trkpt lat="45.91032" lon="2.85318">
        <ele>718</ele>
        <time>2017-10-08T18:50:46Z</time>
      </trkpt>
      <trkpt lat="45.91033" lon="2.85315">
        <ele>718</ele>
        <time>2017-10-08T18:52:46Z</time>
      </trkpt>
      <trkpt lat="45.91033" lon="2.85313">
        <ele>718</ele>
        <time>2017-10-08T18:54:46Z</time>
      </trkpt>
      <trkpt lat="45.91037" lon="2.85308">
        <ele>719</ele>
        <time>2017-10-08T18:56:46Z</time>
      </trkpt>
      <trkpt lat="45.91038" lon="2.85305">
        <ele>719</ele>
        <time>2017-10-08T18:58:46Z</time>
      </trkpt>
      <trkpt lat="45.91042" lon="2.853">
        <ele>720</ele>
        <time>2017-10-08T19:00:46Z</time>
      </trkpt>
      <trkpt lat="45.9105" lon="2.85291">
        <ele>721</ele>
        <time>2017-10-08T19:02:46Z</time>
      </trkpt>
      <trkpt lat="45.91051" lon="2.8529">
        <ele>721</ele>
        <time>2017-10-08T19:04:46Z</time>
      </trkpt>
      <trkpt lat="45.91054" lon="2.85289">
        <ele>722</ele>
        <time>2017-10-08T19:06:46Z</time>
      </trkpt>
      <trkpt lat="45.91057" lon="2.85287">
        <ele>722</ele>
        <time>2017-10-08T19:08:46Z</time>
      </trkpt>
      <trkpt lat="45.91063" lon="2.85284">
        <ele>723</ele>
        <time>2017-10-08T19:10:46Z</time>
      </trkpt>
      <trkpt lat="45.91064" lon="2.85284">
        <ele>723</ele>
        <time>2017-10-08T19:12:46Z</time>
      </trkpt>
      <trkpt lat="45.91066" lon="2.85282">
        <ele>724</ele>
        <time>2017-10-08T19:14:46Z</time>
      </trkpt>
      <trkpt lat="45.91069" lon="2.85281">
        <ele>724</ele>
        <time>2017-10-08T19:16:46Z</time>
      </trkpt>
      <trkpt lat="45.91071" lon="2.85279">
        <ele>724</ele>
        <time>2017-10-08T19:18:46Z</time>
      </trkpt>
      <trkpt lat="45.91074" lon="2.85279">
        <ele>725</ele>
        <time>2017-10-08T19:20:46Z</time>
      </trkpt>
      <trkpt lat="45.91086" lon="2.85276">
        <ele>727</ele>
        <time>2017-10-08T19:22:46Z</time>
      </trkpt>
      <trkpt lat="45.91097" lon="2.85272">
        <ele>728</ele>
        <time>2017-10-08T19:24:46Z</time>
      </trkpt>
      <trkpt lat="45.91102" lon="2.8527">
        <ele>728</ele>
        <time>2017-10-08T19:26:46Z</time>
      </trkpt>
      <trkpt lat="45.9111" lon="2.85269">
        <ele>729</ele>
        <time>2017-10-08T19:28:46Z</time>
      </trkpt>
      <trkpt lat="45.91113" lon="2.85268">
        <ele>730</ele>
        <time>2017-10-08T19:30:46Z</time>
      </trkpt>
      <trkpt lat="45.91118" lon="2.85267">
        <ele>730</ele>
        <time>2017-10-08T19:32:46Z</time>
      </trkpt>
      <trkpt lat="45.9114" lon="2.85259">
        <ele>733</ele>
        <time>2017-10-08T19:34:46Z</time>
      </trkpt>
      <trkpt lat="45.91144" lon="2.85259">
        <ele>733</ele>
        <time>2017-10-08T19:36:46Z</time>
      </trkpt>
      <trkpt lat="45.91148" lon="2.85258">
        <ele>734</ele>
        <time>2017-10-08T19:38:46Z</time>
      </trkpt>
      <trkpt lat="45.91151" lon="2.85259">
        <ele>734</ele>
        <time>2017-10-08T19:40:46Z</time>
      </trkpt>
      <trkpt lat="45.91158" lon="2.8526">
        <ele>735</ele>
        <time>2017-10-08T19:42:46Z</time>
      </trkpt>
      <trkpt lat="45.91164" lon="2.85261">
        <ele>735</ele>
        <time>2017-10-08T19:44:46Z</time>
      </trkpt>
      <trkpt lat="45.91168" lon="2.85263">
        <ele>735</ele>
        <time>2017-10-08T19:46:46Z</time>
      </trkpt>
      <trkpt lat="45.91174" lon="2.85266">
        <ele>736</ele>
        <time>2017-10-08T19:48:46Z</time>
      </trkpt>
      <trkpt lat="45.9118" lon="2.85271">
        <ele>736</ele>
        <time>2017-10-08T19:50:46Z</time>
      </trkpt>
      <trkpt lat="45.91194" lon="2.85289">
        <ele>735</ele>
        <time>2017-10-08T19:52:46Z</time>
      </trkpt>
      <trkpt lat="45.91211" lon="2.85311">
        <ele>735</ele>
        <time>2017-10-08T19:54:46Z</time>
      </trkpt>
      <trkpt lat="45.91218" lon="2.8532">
        <ele>735</ele>
        <time>2017-10-08T19:56:46Z</time>
      </trkpt>
      <trkpt lat="45.91223" lon="2.85326">
        <ele>735</ele>
        <time>2017-10-08T19:58:46Z</time>
      </trkpt>
      <trkpt lat="45.91224" lon="2.85328">
        <ele>735</ele>
        <time>2017-10-08T20:00:46Z</time>
      </trkpt>
      <trkpt lat="45.91228" lon="2.85334">
        <ele>735</ele>
        <time>2017-10-08T20:02:46Z</time>
      </trkpt>
      <trkpt lat="45.91232" lon="2.85339">
        <ele>735</ele>
        <time>2017-10-08T20:04:46Z</time>
      </trkpt>
      <trkpt lat="45.91238" lon="2.85349">
        <ele>734</ele>
        <time>2017-10-08T20:06:46Z</time>
      </trkpt>
      <trkpt lat="45.91253" lon="2.85362">
        <ele>734</ele>
        <time>2017-10-08T20:08:46Z</time>
      </trkpt>
      <trkpt lat="45.91258" lon="2.85365">
        <ele>734</ele>
        <time>2017-10-08T20:10:46Z</time>
      </trkpt>
      <trkpt lat="45.91265" lon="2.85368">
        <ele>734</ele>
        <time>2017-10-08T20:12:46Z</time>
      </trkpt>
      <trkpt lat="45.91271" lon="2.85374">
        <ele>734</ele>
        <time>2017-10-08T20:14:46Z</time>
      </trkpt>
      <trkpt lat="45.91276" lon="2.85377">
        <ele>734</ele>
        <time>2017-10-08T20:16:46Z</time>
      </trkpt>
      <trkpt lat="45.91282" lon="2.85379">
        <ele>734</ele>
        <time>2017-10-08T20:18:46Z</time>
      </trkpt>
      <trkpt lat="45.91289" lon="2.8538">
        <ele>735</ele>
        <time>2017-10-08T20:20:46Z</time>
      </trkpt>
      <trkpt lat="45.91292" lon="2.85379">
        <ele>735</ele>
        <time>2017-10-08T20:22:46Z</time>
      </trkpt>
      <trkpt lat="45.91305" lon="2.85374">
        <ele>736</ele>
        <time>2017-10-08T20:24:46Z</time>
      </trkpt>
      <trkpt lat="45.9131" lon="2.85372">
        <ele>736</ele>
        <time>2017-10-08T20:26:46Z</time>
      </trkpt>
      <trkpt lat="45.91324" lon="2.85367">
        <ele>737</ele>
        <time>2017-10-08T20:28:46Z</time>
      </trkpt>
      <trkpt lat="45.91334" lon="2.85365">
        <ele>738</ele>
        <time>2017-10-08T20:30:46Z</time>
      </trkpt>
      <trkpt lat="45.9134" lon="2.85362">
        <ele>738</ele>
        <time>2017-10-08T20:32:46Z</time>
      </trkpt>
      <trkpt lat="45.91353" lon="2.85358">
        <ele>738</ele>
        <time>2017-10-08T20:34:46Z</time>
      </trkpt>
      <trkpt lat="45.91358" lon="2.85355">
        <ele>739</ele>
        <time>2017-10-08T20:36:46Z</time>
      </trkpt>
      <trkpt lat="45.9136" lon="2.85354">
        <ele>739</ele>
        <time>2017-10-08T20:38:46Z</time>
      </trkpt>
      <trkpt lat="45.91373" lon="2.8535">
        <ele>739</ele>
        <time>2017-10-08T20:40:46Z</time>
      </trkpt>
      <trkpt lat="45.91379" lon="2.85347">
        <ele>739</ele>
        <time>2017-10-08T20:42:46Z</time>
      </trkpt>
      <trkpt lat="45.91383" lon="2.85346">
        <ele>739</ele>
        <time>2017-10-08T20:44:46Z</time>
      </trkpt>
      <trkpt lat="45.91396" lon="2.85344">
        <ele>740</ele>
        <time>2017-10-08T20:46:46Z</time>
      </trkpt>
      <trkpt lat="45.91411" lon="2.85341">
        <ele>740</ele>
        <time>2017-10-08T20:48:46Z</time>
      </trkpt>
      <trkpt lat="45.91415" lon="2.8534">
        <ele>740</ele>
        <time>2017-10-08T20:50:46Z</time>
      </trkpt>
      <trkpt lat="45.91422" lon="2.85341">
        <ele>740</ele>
        <time>2017-10-08T20:52:46Z</time>
      </trkpt>
      <trkpt lat="45.91429" lon="2.85341">
        <ele>740</ele>
        <time>2017-10-08T20:54:46Z</time>
      </trkpt>
      <trkpt lat="45.9145" lon="2.85342">
        <ele>741</ele>
        <time>2017-10-08T20:56:46Z</time>
      </trkpt>
      <trkpt lat="45.91467" lon="2.85343">
        <ele>741</ele>
        <time>2017-10-08T20:58:46Z</time>
      </trkpt>
      <trkpt lat="45.91474" lon="2.85343">
        <ele>741</ele>
        <time>2017-10-08T21:00:46Z</time>
      </trkpt>
      <trkpt lat="45.91488" lon="2.85344">
        <ele>741</ele>
        <time>2017-10-08T21:02:46Z</time>
      </trkpt>
      <trkpt lat="45.91507" lon="2.85347">
        <ele>741</ele>
        <time>2017-10-08T21:04:46Z</time>
      </trkpt>
      <trkpt lat="45.91515" lon="2.85348">
        <ele>740</ele>
        <time>2017-10-08T21:06:46Z</time>
      </trkpt>
      <trkpt lat="45.91523" lon="2.85349">
        <ele>740</ele>
        <time>2017-10-08T21:08:46Z</time>
      </trkpt>
      <trkpt lat="45.91548" lon="2.85355">
        <ele>738</ele>
        <time>2017-10-08T21:10:46Z</time>
      </trkpt>
      <trkpt lat="45.9156" lon="2.85358">
        <ele>737</ele>
        <time>2017-10-08T21:12:46Z</time>
      </trkpt>
      <trkpt lat="45.91568" lon="2.85361">
        <ele>736</ele>
        <time>2017-10-08T21:14:46Z</time>
      </trkpt>
      <trkpt lat="45.91571" lon="2.8536">
        <ele>736</ele>
        <time>2017-10-08T21:16:46Z</time>
      </trkpt>
      <trkpt lat="45.91573" lon="2.85359">
        <ele>736</ele>
        <time>2017-10-08T21:18:46Z</time>
      </trkpt>
      <trkpt lat="45.91575" lon="2.85356">
        <ele>736</ele>
        <time>2017-10-08T21:20:46Z</time>
      </trkpt>
      <trkpt lat="45.91579" lon="2.85349">
        <ele>736</ele>
        <time>2017-10-08T21:22:46Z</time>
      </trkpt>
      <trkpt lat="45.91581" lon="2.85345">
        <ele>735</ele>
        <time>2017-10-08T21:24:46Z</time>
      </trkpt>
      <trkpt lat="45.91582" lon="2.85342">
        <ele>735</ele>
        <time>2017-10-08T21:26:46Z</time>
      </trkpt>
      <trkpt lat="45.91583" lon="2.8534">
        <ele>735</ele>
        <time>2017-10-08T21:28:46Z</time>
      </trkpt>
      <trkpt lat="45.91586" lon="2.85337">
        <ele>735</ele>
        <time>2017-10-08T21:30:46Z</time>
      </trkpt>
      <trkpt lat="45.91587" lon="2.85336">
        <ele>735</ele>
        <time>2017-10-08T21:32:46Z</time>
      </trkpt>
      <trkpt lat="45.9159" lon="2.85337">
        <ele>735</ele>
        <time>2017-10-08T21:34:46Z</time>
      </trkpt>
      <trkpt lat="45.91592" lon="2.85338">
        <ele>735</ele>
        <time>2017-10-08T21:36:46Z</time>
      </trkpt>
      <trkpt lat="45.91596" lon="2.85339">
        <ele>734</ele>
        <time>2017-10-08T21:38:46Z</time>
      </trkpt>
      <trkpt lat="45.91599" lon="2.85339">
        <ele>734</ele>
        <time>2017-10-08T21:40:46Z</time>
      </trkpt>
      <trkpt lat="45.91602" lon="2.85339">
        <ele>734</ele>
        <time>2017-10-08T21:42:46Z</time>
      </trkpt>
      <trkpt lat="45.91606" lon="2.8534">
        <ele>734</ele>
        <time>2017-10-08T21:44:46Z</time>
      </trkpt>
      <trkpt lat="45.91609" lon="2.85343">
        <ele>734</ele>
        <time>2017-10-08T21:46:46Z</time>
      </trkpt>
      <trkpt lat="45.91612" lon="2.85346">
        <ele>733</ele>
        <time>2017-10-08T21:48:46Z</time>
      </trkpt>
      <trkpt lat="45.91614" lon="2.85351">
        <ele>733</ele>
        <time>2017-10-08T21:50:46Z</time>
      </trkpt>
      <trkpt lat="45.91616" lon="2.85355">
        <ele>733</ele>
        <time>2017-10-08T21:52:46Z</time>
      </trkpt>
      <trkpt lat="45.91617" lon="2.85357">
        <ele>733</ele>
        <time>2017-10-08T21:54:46Z</time>
      </trkpt>
      <trkpt lat="45.91618" lon="2.85361">
        <ele>733</ele>
        <time>2017-10-08T21:56:46Z</time>
      </trkpt>
      <trkpt lat="45.91621" lon="2.85366">
        <ele>733</ele>
        <time>2017-10-08T21:58:46Z</time>
      </trkpt>
      <trkpt lat="45.91622" lon="2.85369">
        <ele>733</ele>
        <time>2017-10-08T22:00:46Z</time>
      </trkpt>
      <trkpt lat="45.91624" lon="2.85378">
        <ele>733</ele>
        <time>2017-10-08T22:02:46Z</time>
      </trkpt>
      <trkpt lat="45.91625" lon="2.85387">
        <ele>733</ele>
        <time>2017-10-08T22:04:46Z</time>
      </trkpt>
      <trkpt lat="45.91625" lon="2.85397">
        <ele>733</ele>
        <time>2017-10-08T22:06:46Z</time>
      </trkpt>
      <trkpt lat="45.91627" lon="2.85413">
        <ele>733</ele>
        <time>2017-10-08T22:08:46Z</time>
      </trkpt>
      <trkpt lat="45.91629" lon="2.85451">
        <ele>733</ele>
        <time>2017-10-08T22:10:46Z</time>
      </trkpt>
      <trkpt lat="45.91629" lon="2.85465">
        <ele>732</ele>
        <time>2017-10-08T22:12:46Z</time>
      </trkpt>
      <trkpt lat="45.91629" lon="2.85474">
        <ele>732</ele>
        <time>2017-10-08T22:14:46Z</time>
      </trkpt>
      <trkpt lat="45.91631" lon="2.85476">
        <ele>732</ele>
        <time>2017-10-08T22:16:46Z</time>
      </trkpt>
      <trkpt lat="45.91632" lon="2.85476">
        <ele>732</ele>
        <time>2017-10-08T22:18:46Z</time>
      </trkpt>
      <trkpt lat="45.91635" lon="2.85474">
        <ele>732</ele>
        <time>2017-10-08T22:20:46Z</time>
      </trkpt>
      <trkpt lat="45.91639" lon="2.85473">
        <ele>732</ele>
        <time>2017-10-08T22:22:46Z</time>
      </trkpt>
      <trkpt lat="45.91641" lon="2.85474">
        <ele>731</ele>
        <time>2017-10-08T22:24:46Z</time>
      </trkpt>
      <trkpt lat="45.91646" lon="2.85478">
        <ele>731</ele>
        <time>2017-10-08T22:26:46Z</time>
      </trkpt>
      <trkpt lat="45.91657" lon="2.85488">
        <ele>730</ele>
        <time>2017-10-08T22:28:46Z</time>
      </trkpt>
      <trkpt lat="45.91667" lon="2.85497">
        <ele>729</ele>
        <time>2017-10-08T22:30:46Z</time>
      </trkpt>
      <trkpt lat="45.91697" lon="2.85523">
        <ele>727</ele>
        <time>2017-10-08T22:32:46Z</time>
      </trkpt>
      <trkpt lat="45.91715" lon="2.85541">
        <ele>726</ele>
        <time>2017-10-08T22:34:46Z</time>
      </trkpt>
      <trkpt lat="45.91729" lon="2.85553">
        <ele>725</ele>
        <time>2017-10-08T22:36:46Z</time>
      </trkpt>
      <trkpt lat="45.91735" lon="2.85558">
        <ele>725</ele>
        <time>2017-10-08T22:38:46Z</time>
      </trkpt>
      <trkpt lat="45.91742" lon="2.85563">
        <ele>724</ele>
        <time>2017-10-08T22:40:46Z</time>
      </trkpt>
      <trkpt lat="45.91749" lon="2.85567">
        <ele>724</ele>
        <time>2017-10-08T22:42:46Z</time>
      </trkpt>
      <trkpt lat="45.91756" lon="2.85569">
        <ele>724</ele>
        <time>2017-10-08T22:44:46Z</time>
      </trkpt>
      <trkpt lat="45.91763" lon="2.8557">
        <ele>724</ele>
        <time>2017-10-08T22:46:46Z</time>
      </trkpt>
      <trkpt lat="45.9177" lon="2.85569">
        <ele>723</ele>
        <time>2017-10-08T22:48:46Z</time>
      </trkpt>
      <trkpt lat="45.91777" lon="2.85569">
        <ele>723</ele>
        <time>2017-10-08T22:50:46Z</time>
      </trkpt>
      <trkpt lat="45.91784" lon="2.85567">
        <ele>723</ele>
        <time>2017-10-08T22:52:46Z</time>
      </trkpt>
      <trkpt lat="45.91798" lon="2.85561">
        <ele>723</ele>
        <time>2017-10-08T22:54:46Z</time>
      </trkpt>
      <trkpt lat="45.9181" lon="2.85553">
        <ele>722</ele>
        <time>2017-10-08T22:56:46Z</time>
      </trkpt>
      <trkpt lat="45.91822" lon="2.85545">
        <ele>722</ele>
        <time>2017-10-08T22:58:46Z</time>
      </trkpt>
      <trkpt lat="45.91832" lon="2.85536">
        <ele>721</ele>
        <time>2017-10-08T23:00:46Z</time>
      </trkpt>
      <trkpt lat="45.91842" lon="2.85527">
        <ele>721</ele>
        <time>2017-10-08T23:02:46Z</time>
      </trkpt>
      <trkpt lat="45.91884" lon="2.85488">
        <ele>721</ele>
        <time>2017-10-08T23:04:46Z</time>
      </trkpt>
      <trkpt lat="45.91915" lon="2.85458">
        <ele>719</ele>
        <time>2017-10-08T23:06:46Z</time>
      </trkpt>
      <trkpt lat="45.91919" lon="2.85453">
        <ele>719</ele>
        <time>2017-10-08T23:08:46Z</time>
      </trkpt>
      <trkpt lat="45.91929" lon="2.85444">
        <ele>719</ele>
        <time>2017-10-08T23:10:46Z</time>
      </trkpt>
      <trkpt lat="45.91939" lon="2.85437">
        <ele>719</ele>
        <time>2017-10-08T23:12:46Z</time>
      </trkpt>
      <trkpt lat="45.9195" lon="2.8543">
        <ele>719</ele>
        <time>2017-10-08T23:14:46Z</time>
      </trkpt>
      <trkpt lat="45.91967" lon="2.85421">
        <ele>719</ele>
        <time>2017-10-08T23:16:46Z</time>
      </trkpt>
      <trkpt lat="45.91985" lon="2.85414">
        <ele>719</ele>
        <time>2017-10-08T23:18:46Z</time>
      </trkpt>
      <trkpt lat="45.9201" lon="2.85404">
        <ele>719</ele>
        <time>2017-10-08T23:20:46Z</time>
      </trkpt>
      <trkpt lat="45.92023" lon="2.854">
        <ele>719</ele>
        <time>2017-10-08T23:22:46Z</time>
      </trkpt>
      <trkpt lat="45.92043" lon="2.85396">
        <ele>719</ele>
        <time>2017-10-08T23:24:46Z</time>
      </trkpt>
      <trkpt lat="45.92057" lon="2.85394">
        <ele>719</ele>
        <time>2017-10-08T23:26:46Z</time>
      </trkpt>
      <trkpt lat="45.92063" lon="2.85393">
        <ele>719</ele>
        <time>2017-10-08T23:28:46Z</time>
      </trkpt>
      <trkpt lat="45.92069" lon="2.85394">
        <ele>719</ele>
        <time>2017-10-08T23:30:46Z</time>
      </trkpt>
      <trkpt lat="45.92076" lon="2.85395">
        <ele>719</ele>
        <time>2017-10-08T23:32:46Z</time>
      </trkpt>
      <trkpt lat="45.92088" lon="2.85398">
        <ele>719</ele>
        <time>2017-10-08T23:34:46Z</time>
      </trkpt>
      <trkpt lat="45.92104" lon="2.85404">
        <ele>718</ele>
        <time>2017-10-08T23:36:46Z</time>
      </trkpt>
      <trkpt lat="45.9211" lon="2.85407">
        <ele>718</ele>
        <time>2017-10-08T23:38:46Z</time>
      </trkpt>
      <trkpt lat="45.92119" lon="2.85413">
        <ele>718</ele>
        <time>2017-10-08T23:40:46Z</time>
      </trkpt>
      <trkpt lat="45.92124" lon="2.85417">
        <ele>718</ele>
        <time>2017-10-08T23:42:46Z</time>
      </trkpt>
      <trkpt lat="45.92129" lon="2.8542">
        <ele>718</ele>
        <time>2017-10-08T23:44:46Z</time>
      </trkpt>
      <trkpt lat="45.92148" lon="2.85435">
        <ele>718</ele>
        <time>2017-10-08T23:46:46Z</time>
      </trkpt>
      <trkpt lat="45.92153" lon="2.85438">
        <ele>718</ele>
        <time>2017-10-08T23:48:46Z</time>
      </trkpt>
      <trkpt lat="45.92158" lon="2.85441">
        <ele>718</ele>
        <time>2017-10-08T23:50:46Z</time>
      </trkpt>
      <trkpt lat="45.92163" lon="2.85445">
        <ele>718</ele>
        <time>2017-10-08T23:52:46Z</time>
      </trkpt>
      <trkpt lat="45.92171" lon="2.85453">
        <ele>718</ele>
        <time>2017-10-08T23:54:46Z</time>
      </trkpt>
      <trkpt lat="45.92183" lon="2.85463">
        <ele>718</ele>
        <time>2017-10-08T23:56:46Z</time>
      </trkpt>
      <trkpt lat="45.92188" lon="2.85466">
        <ele>718</ele>
        <time>2017-10-08T23:58:46Z</time>
      </trkpt>
      <trkpt lat="45.92217" lon="2.85492">
        <ele>716</ele>
        <time>2017-10-09T00:00:46Z</time>
      </trkpt>
      <trkpt lat="45.92236" lon="2.8551">
        <ele>715</ele>
        <time>2017-10-09T00:02:46Z</time>
      </trkpt>
      <trkpt lat="45.9224" lon="2.85514">
        <ele>715</ele>
        <time>2017-10-09T00:04:46Z</time>
      </trkpt>
      <trkpt lat="45.92247" lon="2.85522">
        <ele>715</ele>
        <time>2017-10-09T00:06:46Z</time>
      </trkpt>
      <trkpt lat="45.92252" lon="2.85529">
        <ele>715</ele>
        <time>2017-10-09T00:08:46Z</time>
      </trkpt>
      <trkpt lat="45.92254" lon="2.85532">
        <ele>715</ele>
        <time>2017-10-09T00:10:46Z</time>
      </trkpt>
      <trkpt lat="45.92255" lon="2.85536">
        <ele>715</ele>
        <time>2017-10-09T00:12:46Z</time>
      </trkpt>
      <trkpt lat="45.92257" lon="2.85539">
        <ele>715</ele>
        <time>2017-10-09T00:14:46Z</time>
      </trkpt>
      <trkpt lat="45.92257" lon="2.85542">
        <ele>715</ele>
        <time>2017-10-09T00:16:46Z</time>
      </trkpt>
      <trkpt lat="45.92258" lon="2.85547">
        <ele>715</ele>
        <time>2017-10-09T00:18:46Z</time>
      </trkpt>
      <trkpt lat="45.92258" lon="2.85563">
        <ele>716</ele>
        <time>2017-10-09T00:20:46Z</time>
      </trkpt>
      <trkpt lat="45.92257" lon="2.85577">
        <ele>717</ele>
        <time>2017-10-09T00:22:46Z</time>
      </trkpt>
      <trkpt lat="45.92255" lon="2.85601">
        <ele>717</ele>
        <time>2017-10-09T00:24:46Z</time>
      </trkpt>
      <trkpt lat="45.92254" lon="2.85621">
        <ele>717</ele>
        <time>2017-10-09T00:26:46Z</time>
      </trkpt>
      <trkpt lat="45.92254" lon="2.85624">
        <ele>717</ele>
        <time>2017-10-09T00:28:46Z</time>
      </trkpt>
      <trkpt lat="45.92254" lon="2.85635">
        <ele>717</ele>
        <time>2017-10-09T00:30:46Z</time>
      </trkpt>
      <trkpt lat="45.92253" lon="2.85654">
        <ele>717</ele>
        <time>2017-10-09T00:32:46Z</time>
      </trkpt>
      <trkpt lat="45.9225" lon="2.85674">
        <ele>717</ele>
        <time>2017-10-09T00:34:46Z</time>
      </trkpt>
      <trkpt lat="45.9225" lon="2.8568">
        <ele>717</ele>
        <time>2017-10-09T00:36:46Z</time>
      </trkpt>
      <trkpt lat="45.92246" lon="2.85711">
        <ele>716</ele>
        <time>2017-10-09T00:38:46Z</time>
      </trkpt>
      <trkpt lat="45.92245" lon="2.85731">
        <ele>715</ele>
        <time>2017-10-09T00:40:46Z</time>
      </trkpt>
      <trkpt lat="45.92244" lon="2.8575">
        <ele>714</ele>
        <time>2017-10-09T00:42:46Z</time>
      </trkpt>
      <trkpt lat="45.92243" lon="2.85764">
        <ele>715</ele>
        <time>2017-10-09T00:44:46Z</time>
      </trkpt>
      <trkpt lat="45.92243" lon="2.85771">
        <ele>715</ele>
        <time>2017-10-09T00:46:46Z</time>
      </trkpt>
      <trkpt lat="45.92242" lon="2.85784">
        <ele>715</ele>
        <time>2017-10-09T00:48:46Z</time>
      </trkpt>
      <trkpt lat="45.92241" lon="2.85798">
        <ele>715</ele>
        <time>2017-10-09T00:50:46Z</time>
      </trkpt>
      <trkpt lat="45.9224" lon="2.8581">
        <ele>715</ele>
        <time>2017-10-09T00:52:46Z</time>
      </trkpt>
      <trkpt lat="45.92241" lon="2.85833">
        <ele>715</ele>
        <time>2017-10-09T00:54:46Z</time>
      </trkpt>
      <trkpt lat="45.92241" lon="2.85839">
        <ele>715</ele>
        <time>2017-10-09T00:56:46Z</time>
      </trkpt>
      <trkpt lat="45.9224" lon="2.85844">
        <ele>716</ele>
        <time>2017-10-09T00:58:46Z</time>
      </trkpt>
      <trkpt lat="45.9224" lon="2.8585">
        <ele>716</ele>
        <time>2017-10-09T01:00:46Z</time>
      </trkpt>
      <trkpt lat="45.92241" lon="2.85856">
        <ele>717</ele>
        <time>2017-10-09T01:02:46Z</time>
      </trkpt>
      <trkpt lat="45.92242" lon="2.8586">
        <ele>717</ele>
        <time>2017-10-09T01:04:46Z</time>
      </trkpt>
      <trkpt lat="45.92245" lon="2.85864">
        <ele>717</ele>
        <time>2017-10-09T01:06:46Z</time>
      </trkpt>
      <trkpt lat="45.92247" lon="2.85866">
        <ele>717</ele>
        <time>2017-10-09T01:08:46Z</time>
      </trkpt>
      <trkpt lat="45.9225" lon="2.85868">
        <ele>717</ele>
        <time>2017-10-09T01:10:46Z</time>
      </trkpt>
      <trkpt lat="45.92257" lon="2.8587">
        <ele>717</ele>
        <time>2017-10-09T01:12:46Z</time>
      </trkpt>
      <trkpt lat="45.92264" lon="2.85871">
        <ele>717</ele>
        <time>2017-10-09T01:14:46Z</time>
      </trkpt>
      <trkpt lat="45.92268" lon="2.85872">
        <ele>717</ele>
        <time>2017-10-09T01:16:46Z</time>
      </trkpt>
      <trkpt lat="45.92271" lon="2.85874">
        <ele>717</ele>
        <time>2017-10-09T01:18:46Z</time>
      </trkpt>
      <trkpt lat="45.92275" lon="2.85877">
        <ele>717</ele>
        <time>2017-10-09T01:20:46Z</time>
      </trkpt>
      <trkpt lat="45.92287" lon="2.85887">
        <ele>717</ele>
        <time>2017-10-09T01:22:46Z</time>
      </trkpt>
      <trkpt lat="45.92292" lon="2.85892">
        <ele>716</ele>
        <time>2017-10-09T01:24:46Z</time>
      </trkpt>
      <trkpt lat="45.923" lon="2.85901">
        <ele>716</ele>
        <time>2017-10-09T01:26:46Z</time>
      </trkpt>
      <trkpt lat="45.92303" lon="2.85903">
        <ele>716</ele>
        <time>2017-10-09T01:28:46Z</time>
      </trkpt>
      <trkpt lat="45.92312" lon="2.85912">
        <ele>716</ele>
        <time>2017-10-09T01:30:46Z</time>
      </trkpt>
      <trkpt lat="45.92318" lon="2.85918">
        <ele>716</ele>
        <time>2017-10-09T01:32:46Z</time>
      </trkpt>
      <trkpt lat="45.92324" lon="2.85925">
        <ele>716</ele>
        <time>2017-10-09T01:34:46Z</time>
      </trkpt>
      <trkpt lat="45.92336" lon="2.85939">
        <ele>716</ele>
        <time>2017-10-09T01:36:46Z</time>
      </trkpt>
      <trkpt lat="45.92341" lon="2.85944">
        <ele>716</ele>
        <time>2017-10-09T01:38:46Z</time>
      </trkpt>
      <trkpt lat="45.92344" lon="2.85947">
        <ele>716</ele>
        <time>2017-10-09T01:40:46Z</time>
      </trkpt>
      <trkpt lat="45.92356" lon="2.8596">
        <ele>717</ele>
        <time>2017-10-09T01:42:46Z</time>
      </trkpt>
      <trkpt lat="45.92369" lon="2.85971">
        <ele>717</ele>
        <time>2017-10-09T01:44:46Z</time>
      </trkpt>
      <trkpt lat="45.92371" lon="2.85974">
        <ele>717</ele>
        <time>2017-10-09T01:46:46Z</time>
      </trkpt>
      <trkpt lat="45.92374" lon="2.85976">
        <ele>717</ele>
        <time>2017-10-09T01:48:46Z</time>
      </trkpt>
      <trkpt lat="45.9238" lon="2.85979">
        <ele>717</ele>
        <time>2017-10-09T01:50:46Z</time>
      </trkpt>
      <trkpt lat="45.92383" lon="2.85979">
        <ele>717</ele>
        <time>2017-10-09T01:52:46Z</time>
      </trkpt>
      <trkpt lat="45.92389" lon="2.85982">
        <ele>717</ele>
        <time>2017-10-09T01:54:46Z</time>
      </trkpt>
      <trkpt lat="45.92402" lon="2.85985">
        <ele>717</ele>
        <time>2017-10-09T01:56:46Z</time>
      </trkpt>
      <trkpt lat="45.9241" lon="2.85988">
        <ele>718</ele>
        <time>2017-10-09T01:58:46Z</time>
      </trkpt>
      <trkpt lat="45.92415" lon="2.85989">
        <ele>718</ele>
        <time>2017-10-09T02:00:46Z</time>
      </trkpt>
      <trkpt lat="45.92423" lon="2.85991">
        <ele>718</ele>
        <time>2017-10-09T02:02:46Z</time>
      </trkpt>
      <trkpt lat="45.9243" lon="2.85992">
        <ele>718</ele>
        <time>2017-10-09T02:04:46Z</time>
      </trkpt>
      <trkpt lat="45.92453" lon="2.86">
        <ele>719</ele>
        <time>2017-10-09T02:06:46Z</time>
      </trkpt>
      <trkpt lat="45.92456" lon="2.86001">
        <ele>719</ele>
        <time>2017-10-09T02:08:46Z</time>
      </trkpt>
      <trkpt lat="45.92463" lon="2.86003">
        <ele>719</ele>
        <time>2017-10-09T02:10:46Z</time>
      </trkpt>
      <trkpt lat="45.92467" lon="2.86005">
        <ele>719</ele>
        <time>2017-10-09T02:12:46Z</time>
      </trkpt>
      <trkpt lat="45.92481" lon="2.86012">
        <ele>720</ele>
        <time>2017-10-09T02:14:46Z</time>
      </trkpt>
      <trkpt lat="45.92495" lon="2.8602">
        <ele>721</ele>
        <time>2017-10-09T02:16:46Z</time>
      </trkpt>
      <trkpt lat="45.92502" lon="2.86023">
        <ele>721</ele>
        <time>2017-10-09T02:18:46Z</time>
      </trkpt>
      <trkpt lat="45.92505" lon="2.86023">
        <ele>721</ele>
        <time>2017-10-09T02:20:46Z</time>
      </trkpt>
      <trkpt lat="45.9251" lon="2.86023">
        <ele>721</ele>
        <time>2017-10-09T02:22:46Z</time>
      </trkpt>
      <trkpt lat="45.92514" lon="2.86024">
        <ele>721</ele>
        <time>2017-10-09T02:24:46Z</time>
      </trkpt>
      <trkpt lat="45.9252" lon="2.86024">
        <ele>721</ele>
        <time>2017-10-09T02:26:46Z</time>
      </trkpt>
      <trkpt lat="45.92522" lon="2.86034">
        <ele>722</ele>
        <time>2017-10-09T02:28:46Z</time>
      </trkpt>
      <trkpt lat="45.92522" lon="2.86039">
        <ele>722</ele>
        <time>2017-10-09T02:30:46Z</time>
      </trkpt>
      <trkpt lat="45.92523" lon="2.8605">
        <ele>723</ele>
        <time>2017-10-09T02:32:46Z</time>
      </trkpt>
      <trkpt lat="45.92526" lon="2.86059">
        <ele>723</ele>
        <time>2017-10-09T02:34:46Z</time>
      </trkpt>
      <trkpt lat="45.92527" lon="2.86064">
        <ele>724</ele>
        <time>2017-10-09T02:36:46Z</time>
      </trkpt>
      <trkpt lat="45.92532" lon="2.86079">
        <ele>725</ele>
        <time>2017-10-09T02:38:46Z</time>
      </trkpt>
      <trkpt lat="45.92534" lon="2.86083">
        <ele>725</ele>
        <time>2017-10-09T02:40:46Z</time>
      </trkpt>
      <trkpt lat="45.92538" lon="2.86091">
        <ele>725</ele>
        <time>2017-10-09T02:42:46Z</time>
      </trkpt>
      <trkpt lat="45.9254" lon="2.86095">
        <ele>726</ele>
        <time>2017-10-09T02:44:46Z</time>
      </trkpt>
      <trkpt lat="45.92543" lon="2.86098">
        <ele>726</ele>
        <time>2017-10-09T02:46:46Z</time>
      </trkpt>
      <trkpt lat="45.92546" lon="2.86101">
        <ele>726</ele>
        <time>2017-10-09T02:48:46Z</time>
      </trkpt>
      <trkpt lat="45.92555" lon="2.86106">
        <ele>726</ele>
        <time>2017-10-09T02:50:46Z</time>
      </trkpt>
      <trkpt lat="45.92569" lon="2.86113">
        <ele>727</ele>
        <time>2017-10-09T02:52:46Z</time>
      </trkpt>
      <trkpt lat="45.92576" lon="2.86116">
        <ele>727</ele>
        <time>2017-10-09T02:54:46Z</time>
      </trkpt>
      <trkpt lat="45.92588" lon="2.86118">
        <ele>727</ele>
        <time>2017-10-09T02:56:46Z</time>
      </trkpt>
      <trkpt lat="45.92595" lon="2.86118">
        <ele>727</ele>
        <time>2017-10-09T02:58:46Z</time>
      </trkpt>
      <trkpt lat="45.92601" lon="2.86118">
        <ele>727</ele>
        <time>2017-10-09T03:00:46Z</time>
      </trkpt>
      <trkpt lat="45.92603" lon="2.86117">
        <ele>727</ele>
        <time>2017-10-09T03:02:46Z</time>
      </trkpt>
      <trkpt lat="45.92605" lon="2.86116">
        <ele>727</ele>
        <time>2017-10-09T03:04:46Z</time>
      </trkpt>
      <trkpt lat="45.92607" lon="2.86114">
        <ele>727</ele>
        <time>2017-10-09T03:06:46Z</time>
      </trkpt>
      <trkpt lat="45.92609" lon="2.86109">
        <ele>727</ele>
        <time>2017-10-09T03:08:46Z</time>
      </trkpt>
      <trkpt lat="45.92611" lon="2.86106">
        <ele>727</ele>
        <time>2017-10-09T03:10:46Z</time>
      </trkpt>
      <trkpt lat="45.92614" lon="2.86094">
        <ele>726</ele>
        <time>2017-10-09T03:12:46Z</time>
      </trkpt>
      <trkpt lat="45.92615" lon="2.8609">
        <ele>726</ele>
        <time>2017-10-09T03:14:46Z</time>
      </trkpt>
      <trkpt lat="45.92617" lon="2.86082">
        <ele>726</ele>
        <time>2017-10-09T03:16:46Z</time>
      </trkpt>
      <trkpt lat="45.92619" lon="2.86074">
        <ele>725</ele>
        <time>2017-10-09T03:18:46Z</time>
      </trkpt>
      <trkpt lat="45.92622" lon="2.86065">
        <ele>725</ele>
        <time>2017-10-09T03:20:46Z</time>
      </trkpt>
      <trkpt lat="45.92624" lon="2.86061">
        <ele>725</ele>
        <time>2017-10-09T03:22:46Z</time>
      </trkpt>
      <trkpt lat="45.92627" lon="2.86058">
        <ele>724</ele>
        <time>2017-10-09T03:24:46Z</time>
      </trkpt>
      <trkpt lat="45.92631" lon="2.86055">
        <ele>724</ele>
        <time>2017-10-09T03:26:46Z</time>
      </trkpt>
      <trkpt lat="45.92635" lon="2.86053">
        <ele>724</ele>
        <time>2017-10-09T03:28:46Z</time>
      </trkpt>
      <trkpt lat="45.92639" lon="2.86051">
        <ele>724</ele>
        <time>2017-10-09T03:30:46Z</time>
      </trkpt>
      <trkpt lat="45.92644" lon="2.86051">
        <ele>724</ele>
        <time>2017-10-09T03:32:46Z</time>
      </trkpt>
      <trkpt lat="45.92648" lon="2.86051">
        <ele>724</ele>
        <time>2017-10-09T03:34:46Z</time>
      </trkpt>
      <trkpt lat="45.92657" lon="2.86053">
        <ele>724</ele>
        <time>2017-10-09T03:36:46Z</time>
      </trkpt>
      <trkpt lat="45.92661" lon="2.86054">
        <ele>724</ele>
        <time>2017-10-09T03:38:46Z</time>
      </trkpt>
      <trkpt lat="45.92666" lon="2.86054">
        <ele>724</ele>
        <time>2017-10-09T03:40:46Z</time>
      </trkpt>
      <trkpt lat="45.92671" lon="2.86054">
        <ele>724</ele>
        <time>2017-10-09T03:42:46Z</time>
      </trkpt>
      <trkpt lat="45.92675" lon="2.86053">
        <ele>724</ele>
        <time>2017-10-09T03:44:46Z</time>
      </trkpt>
      <trkpt lat="45.9268" lon="2.86051">
        <ele>724</ele>
        <time>2017-10-09T03:46:46Z</time>
      </trkpt>
      <trkpt lat="45.92691" lon="2.86044">
        <ele>724</ele>
        <time>2017-10-09T03:48:46Z</time>
      </trkpt>
      <trkpt lat="45.92695" lon="2.86042">
        <ele>724</ele>
        <time>2017-10-09T03:50:46Z</time>
      </trkpt>
      <trkpt lat="45.92703" lon="2.86042">
        <ele>724</ele>
        <time>2017-10-09T03:52:46Z</time>
      </trkpt>
      <trkpt lat="45.92707" lon="2.86042">
        <ele>724</ele>
        <time>2017-10-09T03:54:46Z</time>
      </trkpt>
      <trkpt lat="45.92715" lon="2.86045">
        <ele>724</ele>
        <time>2017-10-09T03:56:46Z</time>
      </trkpt>
      <trkpt lat="45.92719" lon="2.86047">
        <ele>725</ele>
        <time>2017-10-09T03:58:46Z</time>
      </trkpt>
      <trkpt lat="45.92721" lon="2.8605">
        <ele>725</ele>
        <time>2017-10-09T04:00:46Z</time>
      </trkpt>
      <trkpt lat="45.92731" lon="2.86064">
        <ele>725</ele>
        <time>2017-10-09T04:02:46Z</time>
      </trkpt>
      <trkpt lat="45.92733" lon="2.86068">
        <ele>725</ele>
        <time>2017-10-09T04:04:46Z</time>
      </trkpt>
      <trkpt lat="45.92739" lon="2.86077">
        <ele>725</ele>
        <time>2017-10-09T04:06:46Z</time>
      </trkpt>
      <trkpt lat="45.92741" lon="2.86081">
        <ele>725</ele>
        <time>2017-10-09T04:08:46Z</time>
      </trkpt>
      <trkpt lat="45.92759" lon="2.86111">
        <ele>726</ele>
        <time>2017-10-09T04:10:46Z</time>
      </trkpt>
      <trkpt lat="45.92762" lon="2.86116">
        <ele>726</ele>
        <time>2017-10-09T04:12:46Z</time>
      </trkpt>
      <trkpt lat="45.92773" lon="2.86134">
        <ele>726</ele>
        <time>2017-10-09T04:14:46Z</time>
      </trkpt>
      <trkpt lat="45.92783" lon="2.86148">
        <ele>727</ele>
        <time>2017-10-09T04:16:46Z</time>
      </trkpt>
      <trkpt lat="45.92787" lon="2.86152">
        <ele>727</ele>
        <time>2017-10-09T04:18:46Z</time>
      </trkpt>
      <trkpt lat="45.92795" lon="2.86159">
        <ele>726</ele>
        <time>2017-10-09T04:20:46Z</time>
      </trkpt>
      <trkpt lat="45.92807" lon="2.8617">
        <ele>726</ele>
        <time>2017-10-09T04:22:46Z</time>
      </trkpt>
      <trkpt lat="45.92827" lon="2.86187">
        <ele>726</ele>
        <time>2017-10-09T04:24:46Z</time>
      </trkpt>
      <trkpt lat="45.92835" lon="2.86194">
        <ele>726</ele>
        <time>2017-10-09T04:26:46Z</time>
      </trkpt>
      <trkpt lat="45.92855" lon="2.8621">
        <ele>727</ele>
        <time>2017-10-09T04:28:46Z</time>
      </trkpt>
      <trkpt lat="45.92874" lon="2.86225">
        <ele>728</ele>
        <time>2017-10-09T04:30:46Z</time>
      </trkpt>
      <trkpt lat="45.92884" lon="2.86233">
        <ele>728</ele>
        <time>2017-10-09T04:32:46Z</time>
      </trkpt>
      <trkpt lat="45.92893" lon="2.8624">
        <ele>729</ele>
        <time>2017-10-09T04:34:46Z</time>
      </trkpt>
      <trkpt lat="45.92899" lon="2.86246">
        <ele>729</ele>
        <time>2017-10-09T04:36:46Z</time>
      </trkpt>
      <trkpt lat="45.92921" lon="2.86263">
        <ele>730</ele>
        <time>2017-10-09T04:38:46Z</time>
      </trkpt>
      <trkpt lat="45.92928" lon="2.86268">
        <ele>730</ele>
        <time>2017-10-09T04:40:46Z</time>
      </trkpt>
      <trkpt lat="45.92932" lon="2.8627">
        <ele>731</ele>
        <time>2017-10-09T04:42:46Z</time>
      </trkpt>
      <trkpt lat="45.92936" lon="2.86271">
        <ele>731</ele>
        <time>2017-10-09T04:44:46Z</time>
      </trkpt>
      <trkpt lat="45.92944" lon="2.86272">
        <ele>731</ele>
        <time>2017-10-09T04:46:46Z</time>
      </trkpt>
      <trkpt lat="45.92951" lon="2.86272">
        <ele>731</ele>
        <time>2017-10-09T04:48:46Z</time>
      </trkpt>
      <trkpt lat="45.92957" lon="2.86273">
        <ele>731</ele>
        <time>2017-10-09T04:50:46Z</time>
      </trkpt>
      <trkpt lat="45.92962" lon="2.86274">
        <ele>732</ele>
        <time>2017-10-09T04:52:46Z</time>
      </trkpt>
      <trkpt lat="45.92964" lon="2.86274">
        <ele>732</ele>
        <time>2017-10-09T04:54:46Z</time>
      </trkpt>
      <trkpt lat="45.92969" lon="2.86274">
        <ele>732</ele>
        <time>2017-10-09T04:56:46Z</time>
      </trkpt>
      <trkpt lat="45.92973" lon="2.86275">
        <ele>732</ele>
        <time>2017-10-09T04:58:46Z</time>
      </trkpt>
      <trkpt lat="45.92975" lon="2.86275">
        <ele>732</ele>
        <time>2017-10-09T05:00:46Z</time>
      </trkpt>
      <trkpt lat="45.92981" lon="2.86277">
        <ele>732</ele>
        <time>2017-10-09T05:02:46Z</time>
      </trkpt>
      <trkpt lat="45.92986" lon="2.86281">
        <ele>732</ele>
        <time>2017-10-09T05:04:46Z</time>
      </trkpt>
      <trkpt lat="45.92992" lon="2.86286">
        <ele>733</ele>
        <time>2017-10-09T05:06:46Z</time>
      </trkpt>
      <trkpt lat="45.92994" lon="2.86289">
        <ele>733</ele>
        <time>2017-10-09T05:08:46Z</time>
      </trkpt>
      <trkpt lat="45.92998" lon="2.86296">
        <ele>733</ele>
        <time>2017-10-09T05:10:46Z</time>
      </trkpt>
      <trkpt lat="45.93" lon="2.86299">
        <ele>733</ele>
        <time>2017-10-09T05:12:46Z</time>
      </trkpt>
      <trkpt lat="45.93007" lon="2.86311">
        <ele>733</ele>
        <time>2017-10-09T05:14:46Z</time>
      </trkpt>
      <trkpt lat="45.93011" lon="2.86318">
        <ele>733</ele>
        <time>2017-10-09T05:16:46Z</time>
      </trkpt>
      <trkpt lat="45.93017" lon="2.86328">
        <ele>734</ele>
        <time>2017-10-09T05:18:46Z</time>
      </trkpt>
      <trkpt lat="45.93018" lon="2.86332">
        <ele>734</ele>
        <time>2017-10-09T05:20:46Z</time>
      </trkpt>
      <trkpt lat="45.93022" lon="2.86338">
        <ele>734</ele>
        <time>2017-10-09T05:22:46Z</time>
      </trkpt>
      <trkpt lat="45.93023" lon="2.86342">
        <ele>734</ele>
        <time>2017-10-09T05:24:46Z</time>
      </trkpt>
      <trkpt lat="45.93025" lon="2.86347">
        <ele>734</ele>
        <time>2017-10-09T05:26:46Z</time>
      </trkpt>
      <trkpt lat="45.93025" lon="2.86351">
        <ele>734</ele>
        <time>2017-10-09T05:28:46Z</time>
      </trkpt>
      <trkpt lat="45.93026" lon="2.86355">
        <ele>734</ele>
        <time>2017-10-09T05:30:46Z</time>
      </trkpt>
      <trkpt lat="45.93025" lon="2.8636">
        <ele>734</ele>
        <time>2017-10-09T05:32:46Z</time>
      </trkpt>
      <trkpt lat="45.93022" lon="2.86372">
        <ele>734</ele>
        <time>2017-10-09T05:34:46Z</time>
      </trkpt>
      <trkpt lat="45.9302" lon="2.86375">
        <ele>734</ele>
        <time>2017-10-09T05:36:46Z</time>
      </trkpt>
      <trkpt lat="45.93019" lon="2.86382">
        <ele>734</ele>
        <time>2017-10-09T05:38:46Z</time>
      </trkpt>
      <trkpt lat="45.93017" lon="2.86385">
        <ele>734</ele>
        <time>2017-10-09T05:40:46Z</time>
      </trkpt>
      <trkpt lat="45.93015" lon="2.86388">
        <ele>734</ele>
        <time>2017-10-09T05:42:46Z</time>
      </trkpt>
      <trkpt lat="45.93008" lon="2.86397">
        <ele>733</ele>
        <time>2017-10-09T05:44:46Z</time>
      </trkpt>
      <trkpt lat="45.93006" lon="2.864">
        <ele>733</ele>
        <time>2017-10-09T05:46:46Z</time>
      </trkpt>
      <trkpt lat="45.93004" lon="2.86404">
        <ele>733</ele>
        <time>2017-10-09T05:48:46Z</time>
      </trkpt>
      <trkpt lat="45.92997" lon="2.86416">
        <ele>733</ele>
        <time>2017-10-09T05:50:46Z</time>
      </trkpt>
      <trkpt lat="45.92991" lon="2.86427">
        <ele>733</ele>
        <time>2017-10-09T05:52:46Z</time>
      </trkpt>
      <trkpt lat="45.92984" lon="2.86442">
        <ele>733</ele>
        <time>2017-10-09T05:54:46Z</time>
      </trkpt>
      <trkpt lat="45.92981" lon="2.86445">
        <ele>733</ele>
        <time>2017-10-09T05:56:46Z</time>
      </trkpt>
      <trkpt lat="45.92974" lon="2.86456">
        <ele>733</ele>
        <time>2017-10-09T05:58:46Z</time>
      </trkpt>
      <trkpt lat="45.92968" lon="2.86462">
        <ele>732</ele>
        <time>2017-10-09T06:00:46Z</time>
      </trkpt>
      <trkpt lat="45.92964" lon="2.86471">
        <ele>733</ele>
        <time>2017-10-09T06:02:46Z</time>
      </trkpt>
      <trkpt lat="45.9296" lon="2.8648">
        <ele>733</ele>
        <time>2017-10-09T06:04:46Z</time>
      </trkpt>
      <trkpt lat="45.92959" lon="2.86486">
        <ele>733</ele>
        <time>2017-10-09T06:06:46Z</time>
      </trkpt>
      <trkpt lat="45.92959" lon="2.86487">
        <ele>733</ele>
        <time>2017-10-09T06:08:46Z</time>
      </trkpt>
      <trkpt lat="45.92962" lon="2.86494">
        <ele>733</ele>
        <time>2017-10-09T06:10:46Z</time>
      </trkpt>
      <trkpt lat="45.92964" lon="2.86501">
        <ele>733</ele>
        <time>2017-10-09T06:12:46Z</time>
      </trkpt>
      <trkpt lat="45.92966" lon="2.86505">
        <ele>733</ele>
        <time>2017-10-09T06:14:46Z</time>
      </trkpt>
      <trkpt lat="45.92968" lon="2.86509">
        <ele>733</ele>
        <time>2017-10-09T06:16:46Z</time>
      </trkpt>
      <trkpt lat="45.92971" lon="2.86518">
        <ele>734</ele>
        <time>2017-10-09T06:18:46Z</time>
      </trkpt>
      <trkpt lat="45.92982" lon="2.86549">
        <ele>734</ele>
        <time>2017-10-09T06:20:46Z</time>
      </trkpt>
      <trkpt lat="45.92989" lon="2.86573">
        <ele>735</ele>
        <time>2017-10-09T06:22:46Z</time>
      </trkpt>
      <trkpt lat="45.92993" lon="2.86586">
        <ele>735</ele>
        <time>2017-10-09T06:24:46Z</time>
      </trkpt>
      <trkpt lat="45.92995" lon="2.86592">
        <ele>735</ele>
        <time>2017-10-09T06:26:46Z</time>
      </trkpt>
      <trkpt lat="45.92998" lon="2.86598">
        <ele>735</ele>
        <time>2017-10-09T06:28:46Z</time>
      </trkpt>
      <trkpt lat="45.93001" lon="2.86603">
        <ele>734</ele>
        <time>2017-10-09T06:30:46Z</time>
      </trkpt>
      <trkpt lat="45.93005" lon="2.86608">
        <ele>734</ele>
        <time>2017-10-09T06:32:46Z</time>
      </trkpt>
      <trkpt lat="45.9301" lon="2.86612">
        <ele>734</ele>
        <time>2017-10-09T06:34:46Z</time>
      </trkpt>
      <trkpt lat="45.93015" lon="2.86615">
        <ele>734</ele>
        <time>2017-10-09T06:36:46Z</time>
      </trkpt>
      <trkpt lat="45.93024" lon="2.86624">
        <ele>734</ele>
        <time>2017-10-09T06:38:46Z</time>
      </trkpt>
      <trkpt lat="45.93032" lon="2.86633">
        <ele>733</ele>
        <time>2017-10-09T06:40:46Z</time>
      </trkpt>
      <trkpt lat="45.9304" lon="2.86644">
        <ele>733</ele>
        <time>2017-10-09T06:42:46Z</time>
      </trkpt>
      <trkpt lat="45.93044" lon="2.8665">
        <ele>732</ele>
        <time>2017-10-09T06:44:46Z</time>
      </trkpt>
      <trkpt lat="45.93063" lon="2.86677">
        <ele>731</ele>
        <time>2017-10-09T06:46:46Z</time>
      </trkpt>
      <trkpt lat="45.93066" lon="2.86683">
        <ele>730</ele>
        <time>2017-10-09T06:48:46Z</time>
      </trkpt>
      <trkpt lat="45.93078" lon="2.86699">
        <ele>729</ele>
        <time>2017-10-09T06:50:46Z</time>
      </trkpt>
      <trkpt lat="45.93089" lon="2.86718">
        <ele>727</ele>
        <time>2017-10-09T06:52:46Z</time>
      </trkpt>
      <trkpt lat="45.93093" lon="2.86724">
        <ele>727</ele>
        <time>2017-10-09T06:54:46Z</time>
      </trkpt>
      <trkpt lat="45.93102" lon="2.86745">
        <ele>725</ele>
        <time>2017-10-09T06:56:46Z</time>
      </trkpt>
      <trkpt lat="45.93105" lon="2.86752">
        <ele>724</ele>
        <time>2017-10-09T06:58:46Z</time>
      </trkpt>
      <trkpt lat="45.93111" lon="2.86767">
        <ele>724</ele>
        <time>2017-10-09T07:00:46Z</time>
      </trkpt>
      <trkpt lat="45.93119" lon="2.86792">
        <ele>723</ele>
        <time>2017-10-09T07:02:46Z</time>
      </trkpt>
      <trkpt lat="45.93126" lon="2.86818">
        <ele>722</ele>
        <time>2017-10-09T07:04:46Z</time>
      </trkpt>
      <trkpt lat="45.93128" lon="2.86827">
        <ele>722</ele>
        <time>2017-10-09T07:06:46Z</time>
      </trkpt>
      <trkpt lat="45.93131" lon="2.86836">
        <ele>721</ele>
        <time>2017-10-09T07:08:46Z</time>
      </trkpt>
      <trkpt lat="45.93137" lon="2.86853">
        <ele>721</ele>
        <time>2017-10-09T07:10:46Z</time>
      </trkpt>
      <trkpt lat="45.93142" lon="2.86872">
        <ele>721</ele>
        <time>2017-10-09T07:12:46Z</time>
      </trkpt>
      <trkpt lat="45.93167" lon="2.86951">
        <ele>719</ele>
        <time>2017-10-09T07:14:46Z</time>
      </trkpt>
      <trkpt lat="45.9317" lon="2.86961">
        <ele>718</ele>
        <time>2017-10-09T07:16:46Z</time>
      </trkpt>
      <trkpt lat="45.93175" lon="2.86979">
        <ele>718</ele>
        <time>2017-10-09T07:18:46Z</time>
      </trkpt>
      <trkpt lat="45.93181" lon="2.86997">
        <ele>717</ele>
        <time>2017-10-09T07:20:46Z</time>
      </trkpt>
      <trkpt lat="45.93184" lon="2.87006">
        <ele>717</ele>
        <time>2017-10-09T07:22:46Z</time>
      </trkpt>
      <trkpt lat="45.93186" lon="2.87015">
        <ele>716</ele>
        <time>2017-10-09T07:24:46Z</time>
      </trkpt>
      <trkpt lat="45.93186" lon="2.87024">
        <ele>716</ele>
        <time>2017-10-09T07:26:46Z</time>
      </trkpt>
      <trkpt lat="45.93185" lon="2.87033">
        <ele>716</ele>
        <time>2017-10-09T07:28:46Z</time>
      </trkpt>
      <trkpt lat="45.93183" lon="2.87041">
        <ele>715</ele>
        <time>2017-10-09T07:30:46Z</time>
      </trkpt>
      <trkpt lat="45.93175" lon="2.87057">
        <ele>715</ele>
        <time>2017-10-09T07:32:46Z</time>
      </trkpt>
      <trkpt lat="45.93165" lon="2.87073">
        <ele>716</ele>
        <time>2017-10-09T07:34:46Z</time>
      </trkpt>
      <trkpt lat="45.93161" lon="2.87083">
        <ele>716</ele>
        <time>2017-10-09T07:36:46Z</time>
      </trkpt>
      <trkpt lat="45.93158" lon="2.87093">
        <ele>718</ele>
        <time>2017-10-09T07:38:46Z</time>
      </trkpt>
      <trkpt lat="45.93158" lon="2.87104">
        <ele>719</ele>
        <time>2017-10-09T07:40:46Z</time>
      </trkpt>
      <trkpt lat="45.9316" lon="2.87113">
        <ele>719</ele>
        <time>2017-10-09T07:42:46Z</time>
      </trkpt>
      <trkpt lat="45.93167" lon="2.8713">
        <ele>718</ele>
        <time>2017-10-09T07:44:46Z</time>
      </trkpt>
      <trkpt lat="45.93176" lon="2.87156">
        <ele>719</ele>
        <time>2017-10-09T07:46:46Z</time>
      </trkpt>
      <trkpt lat="45.93179" lon="2.87163">
        <ele>719</ele>
        <time>2017-10-09T07:48:46Z</time>
      </trkpt>
      <trkpt lat="45.93188" lon="2.87178">
        <ele>718</ele>
        <time>2017-10-09T07:50:46Z</time>
      </trkpt>
      <trkpt lat="45.93192" lon="2.87186">
        <ele>718</ele>
        <time>2017-10-09T07:52:46Z</time>
      </trkpt>
      <trkpt lat="45.93196" lon="2.87195">
        <ele>717</ele>
        <time>2017-10-09T07:54:46Z</time>
      </trkpt>
      <trkpt lat="45.93201" lon="2.87203">
        <ele>717</ele>
        <time>2017-10-09T07:56:46Z</time>
      </trkpt>
      <trkpt lat="45.93205" lon="2.87212">
        <ele>716</ele>
        <time>2017-10-09T07:58:46Z</time>
      </trkpt>
      <trkpt lat="45.93211" lon="2.8723">
        <ele>716</ele>
        <time>2017-10-09T08:00:46Z</time>
      </trkpt>
      <trkpt lat="45.93217" lon="2.87248">
        <ele>715</ele>
        <time>2017-10-09T08:02:46Z</time>
      </trkpt>
      <trkpt lat="45.93219" lon="2.87257">
        <ele>715</ele>
        <time>2017-10-09T08:04:46Z</time>
      </trkpt>
      <trkpt lat="45.93222" lon="2.87265">
        <ele>714</ele>
        <time>2017-10-09T08:06:46Z</time>
      </trkpt>
      <trkpt lat="45.93225" lon="2.87273">
        <ele>713</ele>
        <time>2017-10-09T08:08:46Z</time>
      </trkpt>
      <trkpt lat="45.93228" lon="2.87282">
        <ele>712</ele>
        <time>2017-10-09T08:10:46Z</time>
      </trkpt>
      <trkpt lat="45.93233" lon="2.87298">
        <ele>710</ele>
        <time>2017-10-09T08:12:46Z</time>
      </trkpt>
      <trkpt lat="45.93235" lon="2.87307">
        <ele>710</ele>
        <time>2017-10-09T08:14:46Z</time>
      </trkpt>
      <trkpt lat="45.93241" lon="2.87332">
        <ele>708</ele>
        <time>2017-10-09T08:16:46Z</time>
      </trkpt>
      <trkpt lat="45.93243" lon="2.8734">
        <ele>708</ele>
        <time>2017-10-09T08:18:46Z</time>
      </trkpt>
      <trkpt lat="45.93246" lon="2.87365">
        <ele>708</ele>
        <time>2017-10-09T08:20:46Z</time>
      </trkpt>
      <trkpt lat="45.93249" lon="2.87379">
        <ele>707</ele>
        <time>2017-10-09T08:22:46Z</time>
      </trkpt>
      <trkpt lat="45.9325" lon="2.87392">
        <ele>707</ele>
        <time>2017-10-09T08:24:46Z</time>
      </trkpt>
      <trkpt lat="45.9325" lon="2.87398">
        <ele>708</ele>
        <time>2017-10-09T08:26:46Z</time>
      </trkpt>
      <trkpt lat="45.9325" lon="2.87411">
        <ele>708</ele>
        <time>2017-10-09T08:28:46Z</time>
      </trkpt>
      <trkpt lat="45.9325" lon="2.87423">
        <ele>708</ele>
        <time>2017-10-09T08:30:46Z</time>
      </trkpt>
      <trkpt lat="45.93249" lon="2.87431">
        <ele>708</ele>
        <time>2017-10-09T08:32:46Z</time>
      </trkpt>
      <trkpt lat="45.93247" lon="2.87443">
        <ele>709</ele>
        <time>2017-10-09T08:34:46Z</time>
      </trkpt>
      <trkpt lat="45.93246" lon="2.87447">
        <ele>709</ele>
        <time>2017-10-09T08:36:46Z</time>
      </trkpt>
      <trkpt lat="45.93243" lon="2.8747">
        <ele>709</ele>
        <time>2017-10-09T08:38:46Z</time>
      </trkpt>
      <trkpt lat="45.93243" lon="2.87475">
        <ele>709</ele>
        <time>2017-10-09T08:40:46Z</time>
      </trkpt>
      <trkpt lat="45.93241" lon="2.87484">
        <ele>710</ele>
        <time>2017-10-09T08:42:46Z</time>
      </trkpt>
      <trkpt lat="45.93239" lon="2.87494">
        <ele>710</ele>
        <time>2017-10-09T08:44:46Z</time>
      </trkpt>
      <trkpt lat="45.93235" lon="2.87514">
        <ele>711</ele>
        <time>2017-10-09T08:46:46Z</time>
      </trkpt>
      <trkpt lat="45.93235" lon="2.87519">
        <ele>711</ele>
        <time>2017-10-09T08:48:46Z</time>
      </trkpt>
      <trkpt lat="45.93234" lon="2.87523">
        <ele>711</ele>
        <time>2017-10-09T08:50:46Z</time>
      </trkpt>
      <trkpt lat="45.93232" lon="2.87528">
        <ele>711</ele>
        <time>2017-10-09T08:52:46Z</time>
      </trkpt>
      <trkpt lat="45.93232" lon="2.87532">
        <ele>711</ele>
        <time>2017-10-09T08:54:46Z</time>
      </trkpt>
      <trkpt lat="45.93229" lon="2.87547">
        <ele>711</ele>
        <time>2017-10-09T08:56:46Z</time>
      </trkpt>
      <trkpt lat="45.93226" lon="2.87557">
        <ele>712</ele>
        <time>2017-10-09T08:58:46Z</time>
      </trkpt>
      <trkpt lat="45.93224" lon="2.87568">
        <ele>712</ele>
        <time>2017-10-09T09:00:46Z</time>
      </trkpt>
      <trkpt lat="45.93214" lon="2.87612">
        <ele>712</ele>
        <time>2017-10-09T09:02:46Z</time>
      </trkpt>
      <trkpt lat="45.9321" lon="2.87627">
        <ele>712</ele>
        <time>2017-10-09T09:04:46Z</time>
      </trkpt>
      <trkpt lat="45.93208" lon="2.87636">
        <ele>712</ele>
        <time>2017-10-09T09:06:46Z</time>
      </trkpt>
      <trkpt lat="45.93206" lon="2.87644">
        <ele>712</ele>
        <time>2017-10-09T09:08:46Z</time>
      </trkpt>
      <trkpt lat="45.93204" lon="2.87649">
        <ele>713</ele>
        <time>2017-10-09T09:10:46Z</time>
      </trkpt>
      <trkpt lat="45.93203" lon="2.87654">
        <ele>713</ele>
        <time>2017-10-09T09:12:46Z</time>
      </trkpt>
      <trkpt lat="45.93203" lon="2.87658">
        <ele>713</ele>
        <time>2017-10-09T09:14:46Z</time>
      </trkpt>
      <trkpt lat="45.93203" lon="2.87659">
        <ele>713</ele>
        <time>2017-10-09T09:16:46Z</time>
      </trkpt>
      <trkpt lat="45.93204" lon="2.87661">
        <ele>712</ele>
        <time>2017-10-09T09:18:46Z</time>
      </trkpt>
      <trkpt lat="45.93207" lon="2.87663">
        <ele>712</ele>
        <time>2017-10-09T09:20:46Z</time>
      </trkpt>
      <trkpt lat="45.93208" lon="2.87666">
        <ele>712</ele>
        <time>2017-10-09T09:22:46Z</time>
      </trkpt>
      <trkpt lat="45.93216" lon="2.8768">
        <ele>710</ele>
        <time>2017-10-09T09:24:46Z</time>
      </trkpt>
      <trkpt lat="45.9323" lon="2.87704">
        <ele>708</ele>
        <time>2017-10-09T09:26:46Z</time>
      </trkpt>
      <trkpt lat="45.93241" lon="2.87722">
        <ele>708</ele>
        <time>2017-10-09T09:28:46Z</time>
      </trkpt>
      <trkpt lat="45.93246" lon="2.87728">
        <ele>708</ele>
        <time>2017-10-09T09:30:46Z</time>
      </trkpt>
      <trkpt lat="45.93251" lon="2.87734">
        <ele>707</ele>
        <time>2017-10-09T09:32:46Z</time>
      </trkpt>
      <trkpt lat="45.93256" lon="2.87739">
        <ele>707</ele>
        <time>2017-10-09T09:34:46Z</time>
      </trkpt>
      <trkpt lat="45.93261" lon="2.87743">
        <ele>707</ele>
        <time>2017-10-09T09:36:46Z</time>
      </trkpt>
      <trkpt lat="45.93279" lon="2.87751">
        <ele>706</ele>
        <time>2017-10-09T09:38:46Z</time>
      </trkpt>
      <trkpt lat="45.93305" lon="2.87761">
        <ele>704</ele>
        <time>2017-10-09T09:40:46Z</time>
      </trkpt>
      <trkpt lat="45.93315" lon="2.87767">
        <ele>704</ele>
        <time>2017-10-09T09:42:46Z</time>
      </trkpt>
      <trkpt lat="45.93323" lon="2.87774">
        <ele>704</ele>
        <time>2017-10-09T09:44:46Z</time>
      </trkpt>
      <trkpt lat="45.93331" lon="2.87782">
        <ele>705</ele>
        <time>2017-10-09T09:46:46Z</time>
      </trkpt>
      <trkpt lat="45.93339" lon="2.87792">
        <ele>705</ele>
        <time>2017-10-09T09:48:46Z</time>
      </trkpt>
      <trkpt lat="45.93343" lon="2.87797">
        <ele>706</ele>
        <time>2017-10-09T09:50:46Z</time>
      </trkpt>
      <trkpt lat="45.9335" lon="2.87808">
        <ele>706</ele>
        <time>2017-10-09T09:52:46Z</time>
      </trkpt>
      <trkpt lat="45.93353" lon="2.87813">
        <ele>707</ele>
        <time>2017-10-09T09:54:46Z</time>
      </trkpt>
      <trkpt lat="45.93358" lon="2.87824">
        <ele>707</ele>
        <time>2017-10-09T09:56:46Z</time>
      </trkpt>
      <trkpt lat="45.93367" lon="2.87841">
        <ele>707</ele>
        <time>2017-10-09T09:58:46Z</time>
      </trkpt>
      <trkpt lat="45.93371" lon="2.87854">
        <ele>707</ele>
        <time>2017-10-09T10:00:46Z</time>
      </trkpt>
      <trkpt lat="45.93373" lon="2.8786">
        <ele>706</ele>
        <time>2017-10-09T10:02:46Z</time>
      </trkpt>
      <trkpt lat="45.93379" lon="2.87882">
        <ele>706</ele>
        <time>2017-10-09T10:04:46Z</time>
      </trkpt>
      <trkpt lat="45.93381" lon="2.87889">
        <ele>705</ele>
        <time>2017-10-09T10:06:46Z</time>
      </trkpt>
      <trkpt lat="45.93383" lon="2.87896">
        <ele>705</ele>
        <time>2017-10-09T10:08:46Z</time>
      </trkpt>
      <trkpt lat="45.93385" lon="2.87901">
        <ele>705</ele>
        <time>2017-10-09T10:10:46Z</time>
      </trkpt>
      <trkpt lat="45.93387" lon="2.87904">
        <ele>705</ele>
        <time>2017-10-09T10:12:46Z</time>
      </trkpt>
      <trkpt lat="45.9339" lon="2.87908">
        <ele>704</ele>
        <time>2017-10-09T10:14:46Z</time>
      </trkpt>
      <trkpt lat="45.93392" lon="2.87909">
        <ele>704</ele>
        <time>2017-10-09T10:16:46Z</time>
      </trkpt>
      <trkpt lat="45.93394" lon="2.8791">
        <ele>704</ele>
        <time>2017-10-09T10:18:46Z</time>
      </trkpt>
      <trkpt lat="45.93396" lon="2.87909">
        <ele>704</ele>
        <time>2017-10-09T10:20:46Z</time>
      </trkpt>
      <trkpt lat="45.93401" lon="2.87907">
        <ele>703</ele>
        <time>2017-10-09T10:22:46Z</time>
      </trkpt>
      <trkpt lat="45.93413" lon="2.87904">
        <ele>702</ele>
        <time>2017-10-09T10:24:46Z</time>
      </trkpt>
      <trkpt lat="45.93423" lon="2.87903">
        <ele>703</ele>
        <time>2017-10-09T10:26:46Z</time>
      </trkpt>
      <trkpt lat="45.93426" lon="2.87904">
        <ele>704</ele>
        <time>2017-10-09T10:28:46Z</time>
      </trkpt>
      <trkpt lat="45.93429" lon="2.87906">
        <ele>705</ele>
        <time>2017-10-09T10:30:46Z</time>
      </trkpt>
      <trkpt lat="45.93433" lon="2.87909">
        <ele>705</ele>
        <time>2017-10-09T10:32:46Z</time>
      </trkpt>
      <trkpt lat="45.93435" lon="2.87914">
        <ele>706</ele>
        <time>2017-10-09T10:34:46Z</time>
      </trkpt>
      <trkpt lat="45.93437" lon="2.87921">
        <ele>706</ele>
        <time>2017-10-09T10:36:46Z</time>
      </trkpt>
      <trkpt lat="45.93438" lon="2.87929">
        <ele>706</ele>
        <time>2017-10-09T10:38:46Z</time>
      </trkpt>
      <trkpt lat="45.93438" lon="2.87937">
        <ele>706</ele>
        <time>2017-10-09T10:40:46Z</time>
      </trkpt>
      <trkpt lat="45.93434" lon="2.87964">
        <ele>704</ele>
        <time>2017-10-09T10:42:46Z</time>
      </trkpt>
      <trkpt lat="45.93432" lon="2.87985">
        <ele>703</ele>
        <time>2017-10-09T10:44:46Z</time>
      </trkpt>
      <trkpt lat="45.93432" lon="2.87995">
        <ele>703</ele>
        <time>2017-10-09T10:46:46Z</time>
      </trkpt>
      <trkpt lat="45.93433" lon="2.88005">
        <ele>703</ele>
        <time>2017-10-09T10:48:46Z</time>
      </trkpt>
      <trkpt lat="45.93434" lon="2.88015">
        <ele>702</ele>
        <time>2017-10-09T10:50:46Z</time>
      </trkpt>
      <trkpt lat="45.93436" lon="2.88025">
        <ele>701</ele>
        <time>2017-10-09T10:52:46Z</time>
      </trkpt>
      <trkpt lat="45.93439" lon="2.88034">
        <ele>701</ele>
        <time>2017-10-09T10:54:46Z</time>
      </trkpt>
      <trkpt lat="45.93442" lon="2.88042">
        <ele>701</ele>
        <time>2017-10-09T10:56:46Z</time>
      </trkpt>
      <trkpt lat="45.9345" lon="2.88057">
        <ele>701</ele>
        <time>2017-10-09T10:58:46Z</time>
      </trkpt>
      <trkpt lat="45.93469" lon="2.88083">
        <ele>700</ele>
        <time>2017-10-09T11:00:46Z</time>
      </trkpt>
      <trkpt lat="45.93477" lon="2.88095">
        <ele>700</ele>
        <time>2017-10-09T11:02:46Z</time>
      </trkpt>
      <trkpt lat="45.93484" lon="2.88107">
        <ele>700</ele>
        <time>2017-10-09T11:04:46Z</time>
      </trkpt>
      <trkpt lat="45.93487" lon="2.88114">
        <ele>700</ele>
        <time>2017-10-09T11:06:46Z</time>
      </trkpt>
      <trkpt lat="45.9349" lon="2.88121">
        <ele>699</ele>
        <time>2017-10-09T11:08:46Z</time>
      </trkpt>
      <trkpt lat="45.93493" lon="2.88135">
        <ele>698</ele>
        <time>2017-10-09T11:10:46Z</time>
      </trkpt>
      <trkpt lat="45.93496" lon="2.88149">
        <ele>697</ele>
        <time>2017-10-09T11:12:46Z</time>
      </trkpt>
      <trkpt lat="45.935" lon="2.88169">
        <ele>696</ele>
        <time>2017-10-09T11:14:46Z</time>
      </trkpt>
      <trkpt lat="45.93502" lon="2.8818">
        <ele>696</ele>
        <time>2017-10-09T11:16:46Z</time>
      </trkpt>
      <trkpt lat="45.93504" lon="2.88186">
        <ele>696</ele>
        <time>2017-10-09T11:18:46Z</time>
      </trkpt>
      <trkpt lat="45.93508" lon="2.88201">
        <ele>696</ele>
        <time>2017-10-09T11:20:46Z</time>
      </trkpt>
      <trkpt lat="45.93513" lon="2.88215">
        <ele>696</ele>
        <time>2017-10-09T11:22:46Z</time>
      </trkpt>
      <trkpt lat="45.93517" lon="2.88225">
        <ele>696</ele>
        <time>2017-10-09T11:24:46Z</time>
      </trkpt>
      <trkpt lat="45.93519" lon="2.8823">
        <ele>696</ele>
        <time>2017-10-09T11:26:46Z</time>
      </trkpt>
      <trkpt lat="45.93521" lon="2.88236">
        <ele>696</ele>
        <time>2017-10-09T11:28:46Z</time>
      </trkpt>
      <trkpt lat="45.93523" lon="2.88242">
        <ele>696</ele>
        <time>2017-10-09T11:30:46Z</time>
      </trkpt>
      <trkpt lat="45.93524" lon="2.88248">
        <ele>696</ele>
        <time>2017-10-09T11:32:46Z</time>
      </trkpt>
      <trkpt lat="45.93524" lon="2.88255">
        <ele>696</ele>
        <time>2017-10-09T11:34:46Z</time>
      </trkpt>
      <trkpt lat="45.93523" lon="2.88261">
        <ele>695</ele>
        <time>2017-10-09T11:36:46Z</time>
      </trkpt>
      <trkpt lat="45.93523" lon="2.88267">
        <ele>695</ele>
        <time>2017-10-09T11:38:46Z</time>
      </trkpt>
      <trkpt lat="45.93524" lon="2.88272">
        <ele>695</ele>
        <time>2017-10-09T11:40:46Z</time>
      </trkpt>
      <trkpt lat="45.93523" lon="2.88275">
        <ele>695</ele>
        <time>2017-10-09T11:42:46Z</time>
      </trkpt>
      <trkpt lat="45.9352" lon="2.88284">
        <ele>694</ele>
        <time>2017-10-09T11:44:46Z</time>
      </trkpt>
      <trkpt lat="45.93518" lon="2.88287">
        <ele>694</ele>
        <time>2017-10-09T11:46:46Z</time>
      </trkpt>
      <trkpt lat="45.93514" lon="2.88292">
        <ele>693</ele>
        <time>2017-10-09T11:48:46Z</time>
      </trkpt>
      <trkpt lat="45.93509" lon="2.88295">
        <ele>693</ele>
        <time>2017-10-09T11:50:46Z</time>
      </trkpt>
      <trkpt lat="45.93498" lon="2.88303">
        <ele>692</ele>
        <time>2017-10-09T11:52:46Z</time>
      </trkpt>
      <trkpt lat="45.93492" lon="2.88307">
        <ele>692</ele>
        <time>2017-10-09T11:54:46Z</time>
      </trkpt>
      <trkpt lat="45.93489" lon="2.88309">
        <ele>692</ele>
        <time>2017-10-09T11:56:46Z</time>
      </trkpt>
      <trkpt lat="45.93485" lon="2.8831">
        <ele>692</ele>
        <time>2017-10-09T11:58:46Z</time>
      </trkpt>
      <trkpt lat="45.93456" lon="2.8833">
        <ele>692</ele>
        <time>2017-10-09T12:00:46Z</time>
      </trkpt>
      <trkpt lat="45.93434" lon="2.88344">
        <ele>692</ele>
        <time>2017-10-09T12:02:46Z</time>
      </trkpt>
      <trkpt lat="45.9343" lon="2.88347">
        <ele>692</ele>
        <time>2017-10-09T12:04:46Z</time>
      </trkpt>
      <trkpt lat="45.93421" lon="2.88351">
        <ele>692</ele>
        <time>2017-10-09T12:06:46Z</time>
      </trkpt>
      <trkpt lat="45.93417" lon="2.88352">
        <ele>693</ele>
        <time>2017-10-09T12:08:46Z</time>
      </trkpt>
      <trkpt lat="45.93413" lon="2.88352">
        <ele>693</ele>
        <time>2017-10-09T12:10:46Z</time>
      </trkpt>
      <trkpt lat="45.93409" lon="2.88352">
        <ele>693</ele>
        <time>2017-10-09T12:12:46Z</time>
      </trkpt>
      <trkpt lat="45.93405" lon="2.88351">
        <ele>693</ele>
        <time>2017-10-09T12:14:46Z</time>
      </trkpt>
      <trkpt lat="45.93402" lon="2.88349">
        <ele>693</ele>
        <time>2017-10-09T12:16:46Z</time>
      </trkpt>
      <trkpt lat="45.93392" lon="2.88343">
        <ele>694</ele>
        <time>2017-10-09T12:18:46Z</time>
      </trkpt>
      <trkpt lat="45.93386" lon="2.88338">
        <ele>694</ele>
        <time>2017-10-09T12:20:46Z</time>
      </trkpt>
      <trkpt lat="45.93374" lon="2.88326">
        <ele>695</ele>
        <time>2017-10-09T12:22:46Z</time>
      </trkpt>
      <trkpt lat="45.93372" lon="2.88323">
        <ele>695</ele>
        <time>2017-10-09T12:24:46Z</time>
      </trkpt>
      <trkpt lat="45.93362" lon="2.88312">
        <ele>695</ele>
        <time>2017-10-09T12:26:46Z</time>
      </trkpt>
      <trkpt lat="45.93359" lon="2.88309">
        <ele>696</ele>
        <time>2017-10-09T12:28:46Z</time>
      </trkpt>
      <trkpt lat="45.93355" lon="2.88304">
        <ele>696</ele>
        <time>2017-10-09T12:30:46Z</time>
      </trkpt>
      <trkpt lat="45.93348" lon="2.88297">
        <ele>696</ele>
        <time>2017-10-09T12:32:46Z</time>
      </trkpt>
      <trkpt lat="45.93343" lon="2.88292">
        <ele>697</ele>
        <time>2017-10-09T12:34:46Z</time>
      </trkpt>
      <trkpt lat="45.93341" lon="2.8829">
        <ele>697</ele>
        <time>2017-10-09T12:36:46Z</time>
      </trkpt>
      <trkpt lat="45.9333" lon="2.88281">
        <ele>697</ele>
        <time>2017-10-09T12:38:46Z</time>
      </trkpt>
      <trkpt lat="45.93323" lon="2.88275">
        <ele>698</ele>
        <time>2017-10-09T12:40:46Z</time>
      </trkpt>
      <trkpt lat="45.9332" lon="2.88274">
        <ele>698</ele>
        <time>2017-10-09T12:42:46Z</time>
      </trkpt>
      <trkpt lat="45.93317" lon="2.88272">
        <ele>698</ele>
        <time>2017-10-09T12:44:46Z</time>
      </trkpt>
      <trkpt lat="45.93279" lon="2.8825">
        <ele>699</ele>
        <time>2017-10-09T12:46:46Z</time>
      </trkpt>
      <trkpt lat="45.93262" lon="2.88241">
        <ele>699</ele>
        <time>2017-10-09T12:48:46Z</time>
      </trkpt>
      <trkpt lat="45.93252" lon="2.88235">
        <ele>700</ele>
        <time>2017-10-09T12:50:46Z</time>
      </trkpt>
      <trkpt lat="45.93242" lon="2.8823">
        <ele>700</ele>
        <time>2017-10-09T12:52:46Z</time>
      </trkpt>
      <trkpt lat="45.93237" lon="2.88226">
        <ele>700</ele>
        <time>2017-10-09T12:54:46Z</time>
      </trkpt>
      <trkpt lat="45.93232" lon="2.88223">
        <ele>700</ele>
        <time>2017-10-09T12:56:46Z</time>
      </trkpt>
      <trkpt lat="45.93223" lon="2.88218">
        <ele>700</ele>
        <time>2017-10-09T12:58:46Z</time>
      </trkpt>
      <trkpt lat="45.9322" lon="2.88217">
        <ele>700</ele>
        <time>2017-10-09T13:00:46Z</time>
      </trkpt>
      <trkpt lat="45.93195" lon="2.882">
        <ele>700</ele>
        <time>2017-10-09T13:02:46Z</time>
      </trkpt>
      <trkpt lat="45.93181" lon="2.88192">
        <ele>701</ele>
        <time>2017-10-09T13:04:46Z</time>
      </trkpt>
      <trkpt lat="45.93167" lon="2.88183">
        <ele>702</ele>
        <time>2017-10-09T13:06:46Z</time>
      </trkpt>
      <trkpt lat="45.93162" lon="2.8818">
        <ele>702</ele>
        <time>2017-10-09T13:08:46Z</time>
      </trkpt>
      <trkpt lat="45.93148" lon="2.88171">
        <ele>702</ele>
        <time>2017-10-09T13:10:46Z</time>
      </trkpt>
      <trkpt lat="45.9314" lon="2.88166">
        <ele>702</ele>
        <time>2017-10-09T13:12:46Z</time>
      </trkpt>
      <trkpt lat="45.93128" lon="2.88159">
        <ele>703</ele>
        <time>2017-10-09T13:14:46Z</time>
      </trkpt>
      <trkpt lat="45.93109" lon="2.88147">
        <ele>704</ele>
        <time>2017-10-09T13:16:46Z</time>
      </trkpt>
      <trkpt lat="45.93099" lon="2.8814">
        <ele>705</ele>
        <time>2017-10-09T13:18:46Z</time>
      </trkpt>
      <trkpt lat="45.93094" lon="2.88136">
        <ele>705</ele>
        <time>2017-10-09T13:20:46Z</time>
      </trkpt>
      <trkpt lat="45.93085" lon="2.88129">
        <ele>706</ele>
        <time>2017-10-09T13:22:46Z</time>
      </trkpt>
      <trkpt lat="45.93083" lon="2.88128">
        <ele>706</ele>
        <time>2017-10-09T13:24:46Z</time>
      </trkpt>
      <trkpt lat="45.93081" lon="2.88128">
        <ele>706</ele>
        <time>2017-10-09T13:26:46Z</time>
      </trkpt>
      <trkpt lat="45.93079" lon="2.88128">
        <ele>706</ele>
        <time>2017-10-09T13:28:46Z</time>
      </trkpt>
      <trkpt lat="45.93076" lon="2.88129">
        <ele>706</ele>
        <time>2017-10-09T13:30:46Z</time>
      </trkpt>
      <trkpt lat="45.93074" lon="2.88129">
        <ele>706</ele>
        <time>2017-10-09T13:32:46Z</time>
      </trkpt>
      <trkpt lat="45.93074" lon="2.88133">
        <ele>706</ele>
        <time>2017-10-09T13:34:46Z</time>
      </trkpt>
      <trkpt lat="45.93074" lon="2.88135">
        <ele>706</ele>
        <time>2017-10-09T13:36:46Z</time>
      </trkpt>
      <trkpt lat="45.93075" lon="2.88138">
        <ele>706</ele>
        <time>2017-10-09T13:38:46Z</time>
      </trkpt>
      <trkpt lat="45.93077" lon="2.88143">
        <ele>705</ele>
        <time>2017-10-09T13:40:46Z</time>
      </trkpt>
      <trkpt lat="45.93082" lon="2.88154">
        <ele>704</ele>
        <time>2017-10-09T13:42:46Z</time>
      </trkpt>
      <trkpt lat="45.93091" lon="2.88173">
        <ele>703</ele>
        <time>2017-10-09T13:44:46Z</time>
      </trkpt>
      <trkpt lat="45.93104" lon="2.88203">
        <ele>702</ele>
        <time>2017-10-09T13:46:46Z</time>
      </trkpt>
      <trkpt lat="45.93115" lon="2.8823">
        <ele>702</ele>
        <time>2017-10-09T13:48:46Z</time>
      </trkpt>
      <trkpt lat="45.9312" lon="2.88241">
        <ele>701</ele>
        <time>2017-10-09T13:50:46Z</time>
      </trkpt>
      <trkpt lat="45.93128" lon="2.8826">
        <ele>701</ele>
        <time>2017-10-09T13:52:46Z</time>
      </trkpt>
      <trkpt lat="45.93131" lon="2.88265">
        <ele>701</ele>
        <time>2017-10-09T13:54:46Z</time>
      </trkpt>
      <trkpt lat="45.93133" lon="2.88271">
        <ele>701</ele>
        <time>2017-10-09T13:56:46Z</time>
      </trkpt>
      <trkpt lat="45.93141" lon="2.88289">
        <ele>700</ele>
        <time>2017-10-09T13:58:46Z</time>
      </trkpt>
      <trkpt lat="45.93147" lon="2.883">
        <ele>700</ele>
        <time>2017-10-09T14:00:46Z</time>
      </trkpt>
      <trkpt lat="45.93153" lon="2.88312">
        <ele>700</ele>
        <time>2017-10-09T14:02:46Z</time>
      </trkpt>
      <trkpt lat="45.93157" lon="2.88318">
        <ele>700</ele>
        <time>2017-10-09T14:04:46Z</time>
      </trkpt>
      <trkpt lat="45.93165" lon="2.88329">
        <ele>699</ele>
        <time>2017-10-09T14:06:46Z</time>
      </trkpt>
      <trkpt lat="45.93174" lon="2.8834">
        <ele>699</ele>
        <time>2017-10-09T14:08:46Z</time>
      </trkpt>
      <trkpt lat="45.93183" lon="2.88351">
        <ele>699</ele>
        <time>2017-10-09T14:10:46Z</time>
      </trkpt>
      <trkpt lat="45.93186" lon="2.88358">
        <ele>699</ele>
        <time>2017-10-09T14:12:46Z</time>
      </trkpt>
      <trkpt lat="45.93189" lon="2.88365">
        <ele>699</ele>
        <time>2017-10-09T14:14:46Z</time>
      </trkpt>
      <trkpt lat="45.9319" lon="2.88373">
        <ele>700</ele>
        <time>2017-10-09T14:16:46Z</time>
      </trkpt>
      <trkpt lat="45.9319" lon="2.8838">
        <ele>700</ele>
        <time>2017-10-09T14:18:46Z</time>
      </trkpt>
      <trkpt lat="45.9319" lon="2.88388">
        <ele>700</ele>
        <time>2017-10-09T14:20:46Z</time>
      </trkpt>
      <trkpt lat="45.93188" lon="2.88401">
        <ele>701</ele>
        <time>2017-10-09T14:22:46Z</time>
      </trkpt>
      <trkpt lat="45.93187" lon="2.88407">
        <ele>701</ele>
        <time>2017-10-09T14:24:46Z</time>
      </trkpt>
      <trkpt lat="45.93185" lon="2.88413">
        <ele>701</ele>
        <time>2017-10-09T14:26:46Z</time>
      </trkpt>
      <trkpt lat="45.93183" lon="2.88418">
        <ele>701</ele>
        <time>2017-10-09T14:28:46Z</time>
      </trkpt>
      <trkpt lat="45.93181" lon="2.88423">
        <ele>702</ele>
        <time>2017-10-09T14:30:46Z</time>
      </trkpt>
      <trkpt lat="45.93176" lon="2.88431">
        <ele>703</ele>
        <time>2017-10-09T14:32:46Z</time>
      </trkpt>
      <trkpt lat="45.93174" lon="2.88434">
        <ele>703</ele>
        <time>2017-10-09T14:34:46Z</time>
      </trkpt>
      <trkpt lat="45.93163" lon="2.88445">
        <ele>704</ele>
        <time>2017-10-09T14:36:46Z</time>
      </trkpt>
      <trkpt lat="45.93159" lon="2.88449">
        <ele>705</ele>
        <time>2017-10-09T14:38:46Z</time>
      </trkpt>
      <trkpt lat="45.93149" lon="2.8846">
        <ele>706</ele>
        <time>2017-10-09T14:40:46Z</time>
      </trkpt>
      <trkpt lat="45.93143" lon="2.88469">
        <ele>707</ele>
        <time>2017-10-09T14:42:46Z</time>
      </trkpt>
      <trkpt lat="45.93142" lon="2.88473">
        <ele>707</ele>
        <time>2017-10-09T14:44:46Z</time>
      </trkpt>
      <trkpt lat="45.93139" lon="2.88483">
        <ele>708</ele>
        <time>2017-10-09T14:46:46Z</time>
      </trkpt>
      <trkpt lat="45.93138" lon="2.88492">
        <ele>708</ele>
        <time>2017-10-09T14:48:46Z</time>
      </trkpt>
      <trkpt lat="45.93137" lon="2.88498">
        <ele>709</ele>
        <time>2017-10-09T14:50:46Z</time>
      </trkpt>
      <trkpt lat="45.93136" lon="2.8851">
        <ele>709</ele>
        <time>2017-10-09T14:52:46Z</time>
      </trkpt>
      <trkpt lat="45.93136" lon="2.88519">
        <ele>710</ele>
        <time>2017-10-09T14:54:46Z</time>
      </trkpt>
      <trkpt lat="45.93137" lon="2.88523">
        <ele>710</ele>
        <time>2017-10-09T14:56:46Z</time>
      </trkpt>
      <trkpt lat="45.93139" lon="2.88526">
        <ele>710</ele>
        <time>2017-10-09T14:58:46Z</time>
      </trkpt>
      <trkpt lat="45.93139" lon="2.88528">
        <ele>710</ele>
        <time>2017-10-09T15:00:46Z</time>
      </trkpt>
      <trkpt lat="45.9314" lon="2.88529">
        <ele>710</ele>
        <time>2017-10-09T15:02:46Z</time>
      </trkpt>
      <trkpt lat="45.93142" lon="2.88531">
        <ele>711</ele>
        <time>2017-10-09T15:04:46Z</time>
      </trkpt>
      <trkpt lat="45.93152" lon="2.88545">
        <ele>711</ele>
        <time>2017-10-09T15:06:46Z</time>
      </trkpt>
      <trkpt lat="45.93155" lon="2.88547">
        <ele>711</ele>
        <time>2017-10-09T15:08:46Z</time>
      </trkpt>
      <trkpt lat="45.93159" lon="2.88549">
        <ele>711</ele>
        <time>2017-10-09T15:10:46Z</time>
      </trkpt>
      <trkpt lat="45.93165" lon="2.88555">
        <ele>711</ele>
        <time>2017-10-09T15:12:46Z</time>
      </trkpt>
      <trkpt lat="45.93176" lon="2.88566">
        <ele>712</ele>
        <time>2017-10-09T15:14:46Z</time>
      </trkpt>
      <trkpt lat="45.93177" lon="2.88568">
        <ele>712</ele>
        <time>2017-10-09T15:16:46Z</time>
      </trkpt>
      <trkpt lat="45.9318" lon="2.88571">
        <ele>712</ele>
        <time>2017-10-09T15:18:46Z</time>
      </trkpt>
      <trkpt lat="45.9319" lon="2.88583">
        <ele>712</ele>
        <time>2017-10-09T15:20:46Z</time>
      </trkpt>
      <trkpt lat="45.93195" lon="2.88589">
        <ele>713</ele>
        <time>2017-10-09T15:22:46Z</time>
      </trkpt>
      <trkpt lat="45.93199" lon="2.88594">
        <ele>713</ele>
        <time>2017-10-09T15:24:46Z</time>
      </trkpt>
      <trkpt lat="45.93209" lon="2.88604">
        <ele>713</ele>
        <time>2017-10-09T15:26:46Z</time>
      </trkpt>
      <trkpt lat="45.93213" lon="2.88607">
        <ele>713</ele>
        <time>2017-10-09T15:28:46Z</time>
      </trkpt>
      <trkpt lat="45.93221" lon="2.88613">
        <ele>713</ele>
        <time>2017-10-09T15:30:46Z</time>
      </trkpt>
      <trkpt lat="45.93233" lon="2.8862">
        <ele>713</ele>
        <time>2017-10-09T15:32:46Z</time>
      </trkpt>
      <trkpt lat="45.93245" lon="2.88624">
        <ele>712</ele>
        <time>2017-10-09T15:34:46Z</time>
      </trkpt>
      <trkpt lat="45.93247" lon="2.88626">
        <ele>712</ele>
        <time>2017-10-09T15:36:46Z</time>
      </trkpt>
      <trkpt lat="45.93249" lon="2.88629">
        <ele>712</ele>
        <time>2017-10-09T15:38:46Z</time>
      </trkpt>
      <trkpt lat="45.93249" lon="2.88632">
        <ele>712</ele>
        <time>2017-10-09T15:40:46Z</time>
      </trkpt>
      <trkpt lat="45.93248" lon="2.88635">
        <ele>712</ele>
        <time>2017-10-09T15:42:46Z</time>
      </trkpt>
      <trkpt lat="45.93247" lon="2.88636">
        <ele>712</ele>
        <time>2017-10-09T15:44:46Z</time>
      </trkpt>
      <trkpt lat="45.93245" lon="2.88638">
        <ele>713</ele>
        <time>2017-10-09T15:46:46Z</time>
      </trkpt>
      <trkpt lat="45.93238" lon="2.88645">
        <ele>713</ele>
        <time>2017-10-09T15:48:46Z</time>
      </trkpt>
      <trkpt lat="45.93233" lon="2.88651">
        <ele>714</ele>
        <time>2017-10-09T15:50:46Z</time>
      </trkpt>
      <trkpt lat="45.93226" lon="2.88656">
        <ele>715</ele>
        <time>2017-10-09T15:52:46Z</time>
      </trkpt>
      <trkpt lat="45.93223" lon="2.8866">
        <ele>715</ele>
        <time>2017-10-09T15:54:46Z</time>
      </trkpt>
      <trkpt lat="45.93219" lon="2.88664">
        <ele>715</ele>
        <time>2017-10-09T15:56:46Z</time>
      </trkpt>
      <trkpt lat="45.93218" lon="2.88665">
        <ele>716</ele>
        <time>2017-10-09T15:58:46Z</time>
      </trkpt>
      <trkpt lat="45.93216" lon="2.88667">
        <ele>716</ele>
        <time>2017-10-09T16:00:46Z</time>
      </trkpt>
      <trkpt lat="45.93215" lon="2.88669">
        <ele>716</ele>
        <time>2017-10-09T16:02:46Z</time>
      </trkpt>
      <trkpt lat="45.93212" lon="2.88671">
        <ele>716</ele>
        <time>2017-10-09T16:04:46Z</time>
      </trkpt>
      <trkpt lat="45.93204" lon="2.88679">
        <ele>717</ele>
        <time>2017-10-09T16:06:46Z</time>
      </trkpt>
      <trkpt lat="45.93198" lon="2.88684">
        <ele>718</ele>
        <time>2017-10-09T16:08:46Z</time>
      </trkpt>
      <trkpt lat="45.93194" lon="2.88686">
        <ele>718</ele>
        <time>2017-10-09T16:10:46Z</time>
      </trkpt>
      <trkpt lat="45.93192" lon="2.88689">
        <ele>719</ele>
        <time>2017-10-09T16:12:46Z</time>
      </trkpt>
      <trkpt lat="45.93185" lon="2.88694">
        <ele>719</ele>
        <time>2017-10-09T16:14:46Z</time>
      </trkpt>
      <trkpt lat="45.93178" lon="2.887">
        <ele>720</ele>
        <time>2017-10-09T16:16:46Z</time>
      </trkpt>
      <trkpt lat="45.93176" lon="2.88703">
        <ele>721</ele>
        <time>2017-10-09T16:18:46Z</time>
      </trkpt>
      <trkpt lat="45.93171" lon="2.88705">
        <ele>721</ele>
        <time>2017-10-09T16:20:46Z</time>
      </trkpt>
      <trkpt lat="45.93167" lon="2.88708">
        <ele>722</ele>
        <time>2017-10-09T16:22:46Z</time>
      </trkpt>
      <trkpt lat="45.93166" lon="2.88708">
        <ele>722</ele>
        <time>2017-10-09T16:24:46Z</time>
      </trkpt>
      <trkpt lat="45.93162" lon="2.8871">
        <ele>723</ele>
        <time>2017-10-09T16:26:46Z</time>
      </trkpt>
      <trkpt lat="45.9316" lon="2.88712">
        <ele>723</ele>
        <time>2017-10-09T16:28:46Z</time>
      </trkpt>
      <trkpt lat="45.93158" lon="2.88713">
        <ele>723</ele>
        <time>2017-10-09T16:30:46Z</time>
      </trkpt>
      <trkpt lat="45.93156" lon="2.88714">
        <ele>723</ele>
        <time>2017-10-09T16:32:46Z</time>
      </trkpt>
      <trkpt lat="45.93153" lon="2.88717">
        <ele>724</ele>
        <time>2017-10-09T16:34:46Z</time>
      </trkpt>
      <trkpt lat="45.93152" lon="2.88718">
        <ele>724</ele>
        <time>2017-10-09T16:36:46Z</time>
      </trkpt>
      <trkpt lat="45.93151" lon="2.88718">
        <ele>724</ele>
        <time>2017-10-09T16:38:46Z</time>
      </trkpt>
      <trkpt lat="45.93147" lon="2.8872">
        <ele>725</ele>
        <time>2017-10-09T16:40:46Z</time>
      </trkpt>
      <trkpt lat="45.93145" lon="2.88722">
        <ele>725</ele>
        <time>2017-10-09T16:42:46Z</time>
      </trkpt>
      <trkpt lat="45.93144" lon="2.88722">
        <ele>725</ele>
        <time>2017-10-09T16:44:46Z</time>
      </trkpt>
      <trkpt lat="45.93143" lon="2.88723">
        <ele>725</ele>
        <time>2017-10-09T16:46:46Z</time>
      </trkpt>
      <trkpt lat="45.93141" lon="2.88725">
        <ele>726</ele>
        <time>2017-10-09T16:48:46Z</time>
      </trkpt>
      <trkpt lat="45.9314" lon="2.88727">
        <ele>726</ele>
        <time>2017-10-09T16:50:46Z</time>
      </trkpt>
      <trkpt lat="45.93139" lon="2.88728">
        <ele>726</ele>
        <time>2017-10-09T16:52:46Z</time>
      </trkpt>
      <trkpt lat="45.93137" lon="2.88729">
        <ele>727</ele>
        <time>2017-10-09T16:54:46Z</time>
      </trkpt>
      <trkpt lat="45.93134" lon="2.88731">
        <ele>727</ele>
        <time>2017-10-09T16:56:46Z</time>
      </trkpt>
      <trkpt lat="45.93133" lon="2.88732">
        <ele>727</ele>
        <time>2017-10-09T16:58:46Z</time>
      </trkpt>
      <trkpt lat="45.9313" lon="2.88734">
        <ele>728</ele>
        <time>2017-10-09T17:00:46Z</time>
      </trkpt>
      <trkpt lat="45.93127" lon="2.88737">
        <ele>728</ele>
        <time>2017-10-09T17:02:46Z</time>
      </trkpt>
      <trkpt lat="45.93124" lon="2.88739">
        <ele>729</ele>
        <time>2017-10-09T17:04:46Z</time>
      </trkpt>
      <trkpt lat="45.93121" lon="2.88742">
        <ele>729</ele>
        <time>2017-10-09T17:06:46Z</time>
      </trkpt>
      <trkpt lat="45.93117" lon="2.88745">
        <ele>730</ele>
        <time>2017-10-09T17:08:46Z</time>
      </trkpt>
      <trkpt lat="45.93115" lon="2.88746">
        <ele>731</ele>
        <time>2017-10-09T17:10:46Z</time>
      </trkpt>
      <trkpt lat="45.93113" lon="2.88747">
        <ele>731</ele>
        <time>2017-10-09T17:12:46Z</time>
      </trkpt>
      <trkpt lat="45.93112" lon="2.88748">
        <ele>731</ele>
        <time>2017-10-09T17:14:46Z</time>
      </trkpt>
      <trkpt lat="45.93108" lon="2.8875">
        <ele>732</ele>
        <time>2017-10-09T17:16:46Z</time>
      </trkpt>
      <trkpt lat="45.93106" lon="2.88752">
        <ele>732</ele>
        <time>2017-10-09T17:18:46Z</time>
      </trkpt>
      <trkpt lat="45.93102" lon="2.88755">
        <ele>733</ele>
        <time>2017-10-09T17:20:46Z</time>
      </trkpt>
      <trkpt lat="45.93101" lon="2.88756">
        <ele>733</ele>
        <time>2017-10-09T17:22:46Z</time>
      </trkpt>
      <trkpt lat="45.93094" lon="2.88759">
        <ele>734</ele>
        <time>2017-10-09T17:24:46Z</time>
      </trkpt>
      <trkpt lat="45.93091" lon="2.88762">
        <ele>735</ele>
        <time>2017-10-09T17:26:46Z</time>
      </trkpt>
      <trkpt lat="45.93089" lon="2.88762">
        <ele>735</ele>
        <time>2017-10-09T17:28:46Z</time>
      </trkpt>
      <trkpt lat="45.93086" lon="2.88765">
        <ele>735</ele>
        <time>2017-10-09T17:30:46Z</time>
      </trkpt>
      <trkpt lat="45.93084" lon="2.88768">
        <ele>736</ele>
        <time>2017-10-09T17:32:46Z</time>
      </trkpt>
      <trkpt lat="45.93081" lon="2.8877">
        <ele>736</ele>
        <time>2017-10-09T17:34:46Z</time>
      </trkpt>
      <trkpt lat="45.93079" lon="2.88772">
        <ele>736</ele>
        <time>2017-10-09T17:36:46Z</time>
      </trkpt>
      <trkpt lat="45.93076" lon="2.88775">
        <ele>736</ele>
        <time>2017-10-09T17:38:46Z</time>
      </trkpt>
      <trkpt lat="45.93075" lon="2.88776">
        <ele>736</ele>
        <time>2017-10-09T17:40:46Z</time>
      </trkpt>
      <trkpt lat="45.93072" lon="2.88779">
        <ele>737</ele>
        <time>2017-10-09T17:42:46Z</time>
      </trkpt>
      <trkpt lat="45.93067" lon="2.88787">
        <ele>737</ele>
        <time>2017-10-09T17:44:46Z</time>
      </trkpt>
      <trkpt lat="45.93061" lon="2.88794">
        <ele>738</ele>
        <time>2017-10-09T17:46:46Z</time>
      </trkpt>
      <trkpt lat="45.93059" lon="2.88798">
        <ele>738</ele>
        <time>2017-10-09T17:48:46Z</time>
      </trkpt>
      <trkpt lat="45.93056" lon="2.88801">
        <ele>738</ele>
        <time>2017-10-09T17:50:46Z</time>
      </trkpt>
      <trkpt lat="45.93055" lon="2.88803">
        <ele>738</ele>
        <time>2017-10-09T17:52:46Z</time>
      </trkpt>
      <trkpt lat="45.93053" lon="2.88804">
        <ele>738</ele>
        <time>2017-10-09T17:54:46Z</time>
      </trkpt>
      <trkpt lat="45.9305" lon="2.88809">
        <ele>739</ele>
        <time>2017-10-09T17:56:46Z</time>
      </trkpt>
      <trkpt lat="45.93049" lon="2.88813">
        <ele>739</ele>
        <time>2017-10-09T17:58:46Z</time>
      </trkpt>
      <trkpt lat="45.93048" lon="2.88814">
        <ele>739</ele>
        <time>2017-10-09T18:00:46Z</time>
      </trkpt>
      <trkpt lat="45.93044" lon="2.8882">
        <ele>739</ele>
        <time>2017-10-09T18:02:46Z</time>
      </trkpt>
      <trkpt lat="45.9304" lon="2.88828">
        <ele>740</ele>
        <time>2017-10-09T18:04:46Z</time>
      </trkpt>
      <trkpt lat="45.93038" lon="2.88831">
        <ele>740</ele>
        <time>2017-10-09T18:06:46Z</time>
      </trkpt>
      <trkpt lat="45.93036" lon="2.88835">
        <ele>740</ele>
        <time>2017-10-09T18:08:46Z</time>
      </trkpt>
      <trkpt lat="45.93035" lon="2.88837">
        <ele>741</ele>
        <time>2017-10-09T18:10:46Z</time>
      </trkpt>
      <trkpt lat="45.93034" lon="2.88839">
        <ele>741</ele>
        <time>2017-10-09T18:12:46Z</time>
      </trkpt>
      <trkpt lat="45.93032" lon="2.88844">
        <ele>741</ele>
        <time>2017-10-09T18:14:46Z</time>
      </trkpt>
      <trkpt lat="45.93028" lon="2.88853">
        <ele>742</ele>
        <time>2017-10-09T18:16:46Z</time>
      </trkpt>
      <trkpt lat="45.93026" lon="2.88857">
        <ele>743</ele>
        <time>2017-10-09T18:18:46Z</time>
      </trkpt>
      <trkpt lat="45.93026" lon="2.88859">
        <ele>743</ele>
        <time>2017-10-09T18:20:46Z</time>
      </trkpt>
      <trkpt lat="45.93022" lon="2.88868">
        <ele>744</ele>
        <time>2017-10-09T18:22:46Z</time>
      </trkpt>
      <trkpt lat="45.93022" lon="2.88871">
        <ele>744</ele>
        <time>2017-10-09T18:24:46Z</time>
      </trkpt>
      <trkpt lat="45.93018" lon="2.88881">
        <ele>746</ele>
        <time>2017-10-09T18:26:46Z</time>
      </trkpt>
      <trkpt lat="45.93018" lon="2.88883">
        <ele>746</ele>
        <time>2017-10-09T18:28:46Z</time>
      </trkpt>
      <trkpt lat="45.93016" lon="2.88889">
        <ele>747</ele>
        <time>2017-10-09T18:30:46Z</time>
      </trkpt>
      <trkpt lat="45.93013" lon="2.88901">
        <ele>748</ele>
        <time>2017-10-09T18:32:46Z</time>
      </trkpt>
      <trkpt lat="45.93013" lon="2.88904">
        <ele>749</ele>
        <time>2017-10-09T18:34:46Z</time>
      </trkpt>
      <trkpt lat="45.9301" lon="2.88917">
        <ele>750</ele>
        <time>2017-10-09T18:36:46Z</time>
      </trkpt>
      <trkpt lat="45.9301" lon="2.8892">
        <ele>750</ele>
        <time>2017-10-09T18:38:46Z</time>
      </trkpt>
      <trkpt lat="45.93009" lon="2.88923">
        <ele>751</ele>
        <time>2017-10-09T18:40:46Z</time>
      </trkpt>
      <trkpt lat="45.93009" lon="2.88925">
        <ele>751</ele>
        <time>2017-10-09T18:42:46Z</time>
      </trkpt>
      <trkpt lat="45.93008" lon="2.88931">
        <ele>751</ele>
        <time>2017-10-09T18:44:46Z</time>
      </trkpt>
      <trkpt lat="45.93008" lon="2.88933">
        <ele>751</ele>
        <time>2017-10-09T18:46:46Z</time>
      </trkpt>
      <trkpt lat="45.93007" lon="2.88941">
        <ele>751</ele>
        <time>2017-10-09T18:48:46Z</time>
      </trkpt>
      <trkpt lat="45.93006" lon="2.88946">
        <ele>752</ele>
        <time>2017-10-09T18:50:46Z</time>
      </trkpt>
      <trkpt lat="45.93004" lon="2.88958">
        <ele>753</ele>
        <time>2017-10-09T18:52:46Z</time>
      </trkpt>
      <trkpt lat="45.93002" lon="2.88965">
        <ele>753</ele>
        <time>2017-10-09T18:54:46Z</time>
      </trkpt>
      <trkpt lat="45.93" lon="2.88972">
        <ele>754</ele>
        <time>2017-10-09T18:56:46Z</time>
      </trkpt>
      <trkpt lat="45.92998" lon="2.88979">
        <ele>754</ele>
        <time>2017-10-09T18:58:46Z</time>
      </trkpt>
      <trkpt lat="45.92996" lon="2.88983">
        <ele>755</ele>
        <time>2017-10-09T19:00:46Z</time>
      </trkpt>
      <trkpt lat="45.92995" lon="2.88988">
        <ele>755</ele>
        <time>2017-10-09T19:02:46Z</time>
      </trkpt>
      <trkpt lat="45.92993" lon="2.88991">
        <ele>756</ele>
        <time>2017-10-09T19:04:46Z</time>
      </trkpt>
      <trkpt lat="45.92987" lon="2.89005">
        <ele>757</ele>
        <time>2017-10-09T19:06:46Z</time>
      </trkpt>
      <trkpt lat="45.92986" lon="2.89007">
        <ele>757</ele>
        <time>2017-10-09T19:08:46Z</time>
      </trkpt>
      <trkpt lat="45.92984" lon="2.8901">
        <ele>757</ele>
        <time>2017-10-09T19:10:46Z</time>
      </trkpt>
      <trkpt lat="45.92981" lon="2.89013">
        <ele>758</ele>
        <time>2017-10-09T19:12:46Z</time>
      </trkpt>
      <trkpt lat="45.9298" lon="2.89015">
        <ele>758</ele>
        <time>2017-10-09T19:14:46Z</time>
      </trkpt>
      <trkpt lat="45.92977" lon="2.89017">
        <ele>758</ele>
        <time>2017-10-09T19:16:46Z</time>
      </trkpt>
      <trkpt lat="45.92975" lon="2.89018">
        <ele>758</ele>
        <time>2017-10-09T19:18:46Z</time>
      </trkpt>
      <trkpt lat="45.92971" lon="2.89023">
        <ele>759</ele>
        <time>2017-10-09T19:20:46Z</time>
      </trkpt>
      <trkpt lat="45.9297" lon="2.89024">
        <ele>759</ele>
        <time>2017-10-09T19:22:46Z</time>
      </trkpt>
      <trkpt lat="45.92968" lon="2.89026">
        <ele>759</ele>
        <time>2017-10-09T19:24:46Z</time>
      </trkpt>
      <trkpt lat="45.92956" lon="2.89038">
        <ele>760</ele>
        <time>2017-10-09T19:26:46Z</time>
      </trkpt>
      <trkpt lat="45.92953" lon="2.89041">
        <ele>761</ele>
        <time>2017-10-09T19:28:46Z</time>
      </trkpt>
      <trkpt lat="45.92952" lon="2.89043">
        <ele>761</ele>
        <time>2017-10-09T19:30:46Z</time>
      </trkpt>
      <trkpt lat="45.92946" lon="2.8905">
        <ele>761</ele>
        <time>2017-10-09T19:32:46Z</time>
      </trkpt>
      <trkpt lat="45.92944" lon="2.89051">
        <ele>761</ele>
        <time>2017-10-09T19:34:46Z</time>
      </trkpt>
      <trkpt lat="45.92941" lon="2.89054">
        <ele>762</ele>
        <time>2017-10-09T19:36:46Z</time>
      </trkpt>
      <trkpt lat="45.9294" lon="2.89056">
        <ele>762</ele>
        <time>2017-10-09T19:38:46Z</time>
      </trkpt>
      <trkpt lat="45.92929" lon="2.89067">
        <ele>762</ele>
        <time>2017-10-09T19:40:46Z</time>
      </trkpt>
      <trkpt lat="45.92925" lon="2.8907">
        <ele>763</ele>
        <time>2017-10-09T19:42:46Z</time>
      </trkpt>
      <trkpt lat="45.92915" lon="2.8908">
        <ele>763</ele>
        <time>2017-10-09T19:44:46Z</time>
      </trkpt>
      <trkpt lat="45.92912" lon="2.89083">
        <ele>763</ele>
        <time>2017-10-09T19:46:46Z</time>
      </trkpt>
      <trkpt lat="45.92901" lon="2.89095">
        <ele>764</ele>
        <time>2017-10-09T19:48:46Z</time>
      </trkpt>
      <trkpt lat="45.92897" lon="2.891">
        <ele>764</ele>
        <time>2017-10-09T19:50:46Z</time>
      </trkpt>
      <trkpt lat="45.92895" lon="2.89102">
        <ele>764</ele>
        <time>2017-10-09T19:52:46Z</time>
      </trkpt>
      <trkpt lat="45.92873" lon="2.89128">
        <ele>765</ele>
        <time>2017-10-09T19:54:46Z</time>
      </trkpt>
      <trkpt lat="45.92871" lon="2.8913">
        <ele>765</ele>
        <time>2017-10-09T19:56:46Z</time>
      </trkpt>
      <trkpt lat="45.92868" lon="2.89134">
        <ele>765</ele>
        <time>2017-10-09T19:58:46Z</time>
      </trkpt>
      <trkpt lat="45.92865" lon="2.89137">
        <ele>765</ele>
        <time>2017-10-09T20:00:46Z</time>
      </trkpt>
      <trkpt lat="45.92862" lon="2.89141">
        <ele>766</ele>
        <time>2017-10-09T20:02:46Z</time>
      </trkpt>
      <trkpt lat="45.9286" lon="2.89144">
        <ele>766</ele>
        <time>2017-10-09T20:04:46Z</time>
      </trkpt>
      <trkpt lat="45.92856" lon="2.89148">
        <ele>766</ele>
        <time>2017-10-09T20:06:46Z</time>
      </trkpt>
      <trkpt lat="45.92849" lon="2.89156">
        <ele>767</ele>
        <time>2017-10-09T20:08:46Z</time>
      </trkpt>
      <trkpt lat="45.92847" lon="2.89157">
        <ele>767</ele>
        <time>2017-10-09T20:10:46Z</time>
      </trkpt>
      <trkpt lat="45.92838" lon="2.89167">
        <ele>768</ele>
        <time>2017-10-09T20:12:46Z</time>
      </trkpt>
      <trkpt lat="45.92832" lon="2.89174">
        <ele>768</ele>
        <time>2017-10-09T20:14:46Z</time>
      </trkpt>
      <trkpt lat="45.92831" lon="2.89175">
        <ele>768</ele>
        <time>2017-10-09T20:16:46Z</time>
      </trkpt>
      <trkpt lat="45.92827" lon="2.89179">
        <ele>768</ele>
        <time>2017-10-09T20:18:46Z</time>
      </trkpt>
      <trkpt lat="45.92825" lon="2.89179">
        <ele>769</ele>
        <time>2017-10-09T20:20:46Z</time>
      </trkpt>
      <trkpt lat="45.92824" lon="2.89181">
        <ele>769</ele>
        <time>2017-10-09T20:22:46Z</time>
      </trkpt>
      <trkpt lat="45.92822" lon="2.89182">
        <ele>769</ele>
        <time>2017-10-09T20:24:46Z</time>
      </trkpt>
      <trkpt lat="45.92819" lon="2.89184">
        <ele>769</ele>
        <time>2017-10-09T20:26:46Z</time>
      </trkpt>
      <trkpt lat="45.92817" lon="2.89185">
        <ele>769</ele>
        <time>2017-10-09T20:28:46Z</time>
      </trkpt>
      <trkpt lat="45.92813" lon="2.89188">
        <ele>770</ele>
        <time>2017-10-09T20:30:46Z</time>
      </trkpt>
      <trkpt lat="45.92811" lon="2.89191">
        <ele>770</ele>
        <time>2017-10-09T20:32:46Z</time>
      </trkpt>
      <trkpt lat="45.92808" lon="2.89192">
        <ele>770</ele>
        <time>2017-10-09T20:34:46Z</time>
      </trkpt>
      <trkpt lat="45.92804" lon="2.89195">
        <ele>770</ele>
        <time>2017-10-09T20:36:46Z</time>
      </trkpt>
      <trkpt lat="45.928" lon="2.89197">
        <ele>771</ele>
        <time>2017-10-09T20:38:46Z</time>
      </trkpt>
      <trkpt lat="45.92796" lon="2.892">
        <ele>771</ele>
        <time>2017-10-09T20:40:46Z</time>
      </trkpt>
      <trkpt lat="45.92787" lon="2.89206">
        <ele>772</ele>
        <time>2017-10-09T20:42:46Z</time>
      </trkpt>
      <trkpt lat="45.92783" lon="2.89209">
        <ele>773</ele>
        <time>2017-10-09T20:44:46Z</time>
      </trkpt>
      <trkpt lat="45.92777" lon="2.89213">
        <ele>773</ele>
        <time>2017-10-09T20:46:46Z</time>
      </trkpt>
      <trkpt lat="45.92776" lon="2.89214">
        <ele>774</ele>
        <time>2017-10-09T20:48:46Z</time>
      </trkpt>
      <trkpt lat="45.92772" lon="2.89216">
        <ele>774</ele>
        <time>2017-10-09T20:50:46Z</time>
      </trkpt>
      <trkpt lat="45.92765" lon="2.89221">
        <ele>775</ele>
        <time>2017-10-09T20:52:46Z</time>
      </trkpt>
      <trkpt lat="45.92763" lon="2.89222">
        <ele>775</ele>
        <time>2017-10-09T20:54:46Z</time>
      </trkpt>
      <trkpt lat="45.92762" lon="2.89223">
        <ele>775</ele>
        <time>2017-10-09T20:56:46Z</time>
      </trkpt>
      <trkpt lat="45.92758" lon="2.89225">
        <ele>776</ele>
        <time>2017-10-09T20:58:46Z</time>
      </trkpt>
      <trkpt lat="45.9275" lon="2.8923">
        <ele>777</ele>
        <time>2017-10-09T21:00:46Z</time>
      </trkpt>
      <trkpt lat="45.92737" lon="2.89238">
        <ele>778</ele>
        <time>2017-10-09T21:02:46Z</time>
      </trkpt>
      <trkpt lat="45.92735" lon="2.8924">
        <ele>779</ele>
        <time>2017-10-09T21:04:46Z</time>
      </trkpt>
      <trkpt lat="45.92734" lon="2.89241">
        <ele>779</ele>
        <time>2017-10-09T21:06:46Z</time>
      </trkpt>
      <trkpt lat="45.92733" lon="2.89246">
        <ele>779</ele>
        <time>2017-10-09T21:08:46Z</time>
      </trkpt>
      <trkpt lat="45.92734" lon="2.89251">
        <ele>779</ele>
        <time>2017-10-09T21:10:46Z</time>
      </trkpt>
      <trkpt lat="45.92734" lon="2.89253">
        <ele>779</ele>
        <time>2017-10-09T21:12:46Z</time>
      </trkpt>
      <trkpt lat="45.92733" lon="2.89259">
        <ele>779</ele>
        <time>2017-10-09T21:14:46Z</time>
      </trkpt>
      <trkpt lat="45.92735" lon="2.89268">
        <ele>779</ele>
        <time>2017-10-09T21:16:46Z</time>
      </trkpt>
      <trkpt lat="45.92735" lon="2.89271">
        <ele>779</ele>
        <time>2017-10-09T21:18:46Z</time>
      </trkpt>
      <trkpt lat="45.92735" lon="2.89273">
        <ele>779</ele>
        <time>2017-10-09T21:20:46Z</time>
      </trkpt>
      <trkpt lat="45.92736" lon="2.89288">
        <ele>779</ele>
        <time>2017-10-09T21:22:46Z</time>
      </trkpt>
      <trkpt lat="45.92733" lon="2.89308">
        <ele>779</ele>
        <time>2017-10-09T21:24:46Z</time>
      </trkpt>
      <trkpt lat="45.92731" lon="2.89317">
        <ele>780</ele>
        <time>2017-10-09T21:26:46Z</time>
      </trkpt>
      <trkpt lat="45.9273" lon="2.89328">
        <ele>780</ele>
        <time>2017-10-09T21:28:46Z</time>
      </trkpt>
      <trkpt lat="45.9273" lon="2.89333">
        <ele>780</ele>
        <time>2017-10-09T21:30:46Z</time>
      </trkpt>
      <trkpt lat="45.92731" lon="2.89345">
        <ele>780</ele>
        <time>2017-10-09T21:32:46Z</time>
      </trkpt>
      <trkpt lat="45.92732" lon="2.89361">
        <ele>779</ele>
        <time>2017-10-09T21:34:46Z</time>
      </trkpt>
      <trkpt lat="45.92733" lon="2.89367">
        <ele>778</ele>
        <time>2017-10-09T21:36:46Z</time>
      </trkpt>
      <trkpt lat="45.92732" lon="2.89377">
        <ele>778</ele>
        <time>2017-10-09T21:38:46Z</time>
      </trkpt>
      <trkpt lat="45.9273" lon="2.89388">
        <ele>778</ele>
        <time>2017-10-09T21:40:46Z</time>
      </trkpt>
      <trkpt lat="45.92726" lon="2.89404">
        <ele>779</ele>
        <time>2017-10-09T21:42:46Z</time>
      </trkpt>
      <trkpt lat="45.92724" lon="2.89409">
        <ele>779</ele>
        <time>2017-10-09T21:44:46Z</time>
      </trkpt>
      <trkpt lat="45.92721" lon="2.89419">
        <ele>780</ele>
        <time>2017-10-09T21:46:46Z</time>
      </trkpt>
      <trkpt lat="45.92719" lon="2.89425">
        <ele>780</ele>
        <time>2017-10-09T21:48:46Z</time>
      </trkpt>
      <trkpt lat="45.92715" lon="2.8944">
        <ele>781</ele>
        <time>2017-10-09T21:50:46Z</time>
      </trkpt>
      <trkpt lat="45.92715" lon="2.89444">
        <ele>780</ele>
        <time>2017-10-09T21:52:46Z</time>
      </trkpt>
      <trkpt lat="45.92714" lon="2.89452">
        <ele>781</ele>
        <time>2017-10-09T21:54:46Z</time>
      </trkpt>
      <trkpt lat="45.92714" lon="2.89456">
        <ele>780</ele>
        <time>2017-10-09T21:56:46Z</time>
      </trkpt>
      <trkpt lat="45.92714" lon="2.89466">
        <ele>780</ele>
        <time>2017-10-09T21:58:46Z</time>
      </trkpt>
      <trkpt lat="45.92714" lon="2.89471">
        <ele>780</ele>
        <time>2017-10-09T22:00:46Z</time>
      </trkpt>
      <trkpt lat="45.92714" lon="2.89485">
        <ele>780</ele>
        <time>2017-10-09T22:02:46Z</time>
      </trkpt>
      <trkpt lat="45.92715" lon="2.89487">
        <ele>780</ele>
        <time>2017-10-09T22:04:46Z</time>
      </trkpt>
      <trkpt lat="45.92715" lon="2.89493">
        <ele>780</ele>
        <time>2017-10-09T22:06:46Z</time>
      </trkpt>
      <trkpt lat="45.92714" lon="2.89506">
        <ele>779</ele>
        <time>2017-10-09T22:08:46Z</time>
      </trkpt>
      <trkpt lat="45.92714" lon="2.89509">
        <ele>779</ele>
        <time>2017-10-09T22:10:46Z</time>
      </trkpt>
      <trkpt lat="45.92713" lon="2.89514">
        <ele>779</ele>
        <time>2017-10-09T22:12:46Z</time>
      </trkpt>
      <trkpt lat="45.92708" lon="2.89538">
        <ele>779</ele>
        <time>2017-10-09T22:14:46Z</time>
      </trkpt>
      <trkpt lat="45.92707" lon="2.89543">
        <ele>779</ele>
        <time>2017-10-09T22:16:46Z</time>
      </trkpt>
      <trkpt lat="45.92705" lon="2.89548">
        <ele>779</ele>
        <time>2017-10-09T22:18:46Z</time>
      </trkpt>
      <trkpt lat="45.927" lon="2.89555">
        <ele>780</ele>
        <time>2017-10-09T22:20:46Z</time>
      </trkpt>
      <trkpt lat="45.92699" lon="2.89556">
        <ele>780</ele>
        <time>2017-10-09T22:22:46Z</time>
      </trkpt>
      <trkpt lat="45.92697" lon="2.89558">
        <ele>780</ele>
        <time>2017-10-09T22:24:46Z</time>
      </trkpt>
      <trkpt lat="45.92688" lon="2.89562">
        <ele>782</ele>
        <time>2017-10-09T22:26:46Z</time>
      </trkpt>
      <trkpt lat="45.92687" lon="2.89563">
        <ele>782</ele>
        <time>2017-10-09T22:28:46Z</time>
      </trkpt>
      <trkpt lat="45.92682" lon="2.89565">
        <ele>783</ele>
        <time>2017-10-09T22:30:46Z</time>
      </trkpt>
      <trkpt lat="45.92676" lon="2.89568">
        <ele>784</ele>
        <time>2017-10-09T22:32:46Z</time>
      </trkpt>
      <trkpt lat="45.92675" lon="2.89568">
        <ele>784</ele>
        <time>2017-10-09T22:34:46Z</time>
      </trkpt>
      <trkpt lat="45.92672" lon="2.8957">
        <ele>784</ele>
        <time>2017-10-09T22:36:46Z</time>
      </trkpt>
      <trkpt lat="45.9267" lon="2.8957">
        <ele>784</ele>
        <time>2017-10-09T22:38:46Z</time>
      </trkpt>
      <trkpt lat="45.92665" lon="2.89573">
        <ele>785</ele>
        <time>2017-10-09T22:40:46Z</time>
      </trkpt>
      <trkpt lat="45.92664" lon="2.89574">
        <ele>786</ele>
        <time>2017-10-09T22:42:46Z</time>
      </trkpt>
      <trkpt lat="45.92662" lon="2.89574">
        <ele>786</ele>
        <time>2017-10-09T22:44:46Z</time>
      </trkpt>
      <trkpt lat="45.92654" lon="2.8958">
        <ele>789</ele>
        <time>2017-10-09T22:46:46Z</time>
      </trkpt>
      <trkpt lat="45.92649" lon="2.89583">
        <ele>790</ele>
        <time>2017-10-09T22:48:46Z</time>
      </trkpt>
      <trkpt lat="45.92642" lon="2.89589">
        <ele>792</ele>
        <time>2017-10-09T22:50:46Z</time>
      </trkpt>
      <trkpt lat="45.92641" lon="2.8959">
        <ele>793</ele>
        <time>2017-10-09T22:52:46Z</time>
      </trkpt>
      <trkpt lat="45.92636" lon="2.89594">
        <ele>794</ele>
        <time>2017-10-09T22:54:46Z</time>
      </trkpt>
      <trkpt lat="45.92631" lon="2.896">
        <ele>795</ele>
        <time>2017-10-09T22:56:46Z</time>
      </trkpt>
      <trkpt lat="45.92626" lon="2.89604">
        <ele>797</ele>
        <time>2017-10-09T22:58:46Z</time>
      </trkpt>
      <trkpt lat="45.92621" lon="2.89611">
        <ele>798</ele>
        <time>2017-10-09T23:00:46Z</time>
      </trkpt>
      <trkpt lat="45.92619" lon="2.89612">
        <ele>799</ele>
        <time>2017-10-09T23:02:46Z</time>
      </trkpt>
      <trkpt lat="45.92617" lon="2.89615">
        <ele>799</ele>
        <time>2017-10-09T23:04:46Z</time>
      </trkpt>
      <trkpt lat="45.92604" lon="2.8963">
        <ele>802</ele>
        <time>2017-10-09T23:06:46Z</time>
      </trkpt>
      <trkpt lat="45.92599" lon="2.89635">
        <ele>803</ele>
        <time>2017-10-09T23:08:46Z</time>
      </trkpt>
      <trkpt lat="45.92598" lon="2.89637">
        <ele>803</ele>
        <time>2017-10-09T23:10:46Z</time>
      </trkpt>
      <trkpt lat="45.92596" lon="2.89638">
        <ele>804</ele>
        <time>2017-10-09T23:12:46Z</time>
      </trkpt>
      <trkpt lat="45.92595" lon="2.89639">
        <ele>804</ele>
        <time>2017-10-09T23:14:46Z</time>
      </trkpt>
      <trkpt lat="45.92592" lon="2.89643">
        <ele>805</ele>
        <time>2017-10-09T23:16:46Z</time>
      </trkpt>
      <trkpt lat="45.92585" lon="2.89652">
        <ele>806</ele>
        <time>2017-10-09T23:18:46Z</time>
      </trkpt>
      <trkpt lat="45.92583" lon="2.89654">
        <ele>806</ele>
        <time>2017-10-09T23:20:46Z</time>
      </trkpt>
      <trkpt lat="45.92581" lon="2.89657">
        <ele>807</ele>
        <time>2017-10-09T23:22:46Z</time>
      </trkpt>
      <trkpt lat="45.92577" lon="2.89663">
        <ele>807</ele>
        <time>2017-10-09T23:24:46Z</time>
      </trkpt>
      <trkpt lat="45.92574" lon="2.89665">
        <ele>808</ele>
        <time>2017-10-09T23:26:46Z</time>
      </trkpt>
      <trkpt lat="45.92574" lon="2.89667">
        <ele>808</ele>
        <time>2017-10-09T23:28:46Z</time>
      </trkpt>
      <trkpt lat="45.92569" lon="2.89672">
        <ele>809</ele>
        <time>2017-10-09T23:30:46Z</time>
      </trkpt>
      <trkpt lat="45.92568" lon="2.89673">
        <ele>809</ele>
        <time>2017-10-09T23:32:46Z</time>
      </trkpt>
      <trkpt lat="45.92566" lon="2.89676">
        <ele>809</ele>
        <time>2017-10-09T23:34:46Z</time>
      </trkpt>
      <trkpt lat="45.92563" lon="2.89679">
        <ele>810</ele>
        <time>2017-10-09T23:36:46Z</time>
      </trkpt>
      <trkpt lat="45.92557" lon="2.89684">
        <ele>812</ele>
        <time>2017-10-09T23:38:46Z</time>
      </trkpt>
      <trkpt lat="45.92555" lon="2.89686">
        <ele>812</ele>
        <time>2017-10-09T23:40:46Z</time>
      </trkpt>
      <trkpt lat="45.92551" lon="2.8969">
        <ele>813</ele>
        <time>2017-10-09T23:42:46Z</time>
      </trkpt>
      <trkpt lat="45.92547" lon="2.89693">
        <ele>814</ele>
        <time>2017-10-09T23:44:46Z</time>
      </trkpt>
      <trkpt lat="45.92541" lon="2.89698">
        <ele>815</ele>
        <time>2017-10-09T23:46:46Z</time>
      </trkpt>
      <trkpt lat="45.92539" lon="2.89699">
        <ele>816</ele>
        <time>2017-10-09T23:48:46Z</time>
      </trkpt>
      <trkpt lat="45.92529" lon="2.8971">
        <ele>818</ele>
        <time>2017-10-09T23:50:46Z</time>
      </trkpt>
      <trkpt lat="45.92527" lon="2.89713">
        <ele>818</ele>
        <time>2017-10-09T23:52:46Z</time>
      </trkpt>
      <trkpt lat="45.92526" lon="2.89716">
        <ele>818</ele>
        <time>2017-10-09T23:54:46Z</time>
      </trkpt>
      <trkpt lat="45.92524" lon="2.89721">
        <ele>818</ele>
        <time>2017-10-09T23:56:46Z</time>
      </trkpt>
      <trkpt lat="45.92523" lon="2.89725">
        <ele>819</ele>
        <time>2017-10-09T23:58:46Z</time>
      </trkpt>
      <trkpt lat="45.92518" lon="2.89737">
        <ele>819</ele>
        <time>2017-10-10T00:00:46Z</time>
      </trkpt>
      <trkpt lat="45.92517" lon="2.89739">
        <ele>819</ele>
        <time>2017-10-10T00:02:46Z</time>
      </trkpt>
      <trkpt lat="45.92515" lon="2.89744">
        <ele>820</ele>
        <time>2017-10-10T00:04:46Z</time>
      </trkpt>
      <trkpt lat="45.92513" lon="2.89747">
        <ele>820</ele>
        <time>2017-10-10T00:06:46Z</time>
      </trkpt>
      <trkpt lat="45.92512" lon="2.8975">
        <ele>820</ele>
        <time>2017-10-10T00:08:46Z</time>
      </trkpt>
      <trkpt lat="45.9251" lon="2.89752">
        <ele>820</ele>
        <time>2017-10-10T00:10:46Z</time>
      </trkpt>
      <trkpt lat="45.92507" lon="2.89759">
        <ele>821</ele>
        <time>2017-10-10T00:12:46Z</time>
      </trkpt>
      <trkpt lat="45.92505" lon="2.89762">
        <ele>822</ele>
        <time>2017-10-10T00:14:46Z</time>
      </trkpt>
      <trkpt lat="45.92505" lon="2.89764">
        <ele>822</ele>
        <time>2017-10-10T00:16:46Z</time>
      </trkpt>
      <trkpt lat="45.92504" lon="2.89766">
        <ele>822</ele>
        <time>2017-10-10T00:18:46Z</time>
      </trkpt>
      <trkpt lat="45.92501" lon="2.89774">
        <ele>822</ele>
        <time>2017-10-10T00:20:46Z</time>
      </trkpt>
      <trkpt lat="45.92499" lon="2.89783">
        <ele>823</ele>
        <time>2017-10-10T00:22:46Z</time>
      </trkpt>
      <trkpt lat="45.92498" lon="2.89788">
        <ele>823</ele>
        <time>2017-10-10T00:24:46Z</time>
      </trkpt>
      <trkpt lat="45.92496" lon="2.89801">
        <ele>823</ele>
        <time>2017-10-10T00:26:46Z</time>
      </trkpt>
      <trkpt lat="45.92496" lon="2.89808">
        <ele>823</ele>
        <time>2017-10-10T00:28:46Z</time>
      </trkpt>
      <trkpt lat="45.92494" lon="2.89816">
        <ele>823</ele>
        <time>2017-10-10T00:30:46Z</time>
      </trkpt>
      <trkpt lat="45.92494" lon="2.89819">
        <ele>823</ele>
        <time>2017-10-10T00:32:46Z</time>
      </trkpt>
      <trkpt lat="45.92493" lon="2.8982">
        <ele>824</ele>
        <time>2017-10-10T00:34:46Z</time>
      </trkpt>
      <trkpt lat="45.92493" lon="2.89822">
        <ele>824</ele>
        <time>2017-10-10T00:36:46Z</time>
      </trkpt>
      <trkpt lat="45.92493" lon="2.89822">
        <ele>824</ele>
        <time>2017-10-10T00:38:46Z</time>
      </trkpt>
      <trkpt lat="45.92494" lon="2.8983">
        <ele>823</ele>
        <time>2017-10-10T00:40:46Z</time>
      </trkpt>
      <trkpt lat="45.92493" lon="2.89832">
        <ele>824</ele>
        <time>2017-10-10T00:42:46Z</time>
      </trkpt>
      <trkpt lat="45.92493" lon="2.89836">
        <ele>824</ele>
        <time>2017-10-10T00:44:46Z</time>
      </trkpt>
      <trkpt lat="45.92492" lon="2.89847">
        <ele>824</ele>
        <time>2017-10-10T00:46:46Z</time>
      </trkpt>
      <trkpt lat="45.92492" lon="2.89861">
        <ele>824</ele>
        <time>2017-10-10T00:48:46Z</time>
      </trkpt>
      <trkpt lat="45.92492" lon="2.89864">
        <ele>824</ele>
        <time>2017-10-10T00:50:46Z</time>
      </trkpt>
      <trkpt lat="45.92493" lon="2.89872">
        <ele>824</ele>
        <time>2017-10-10T00:52:46Z</time>
      </trkpt>
      <trkpt lat="45.92493" lon="2.89887">
        <ele>824</ele>
        <time>2017-10-10T00:54:46Z</time>
      </trkpt>
      <trkpt lat="45.92494" lon="2.89901">
        <ele>824</ele>
        <time>2017-10-10T00:56:46Z</time>
      </trkpt>
      <trkpt lat="45.92496" lon="2.89912">
        <ele>824</ele>
        <time>2017-10-10T00:58:46Z</time>
      </trkpt>
      <trkpt lat="45.92497" lon="2.89916">
        <ele>824</ele>
        <time>2017-10-10T01:00:46Z</time>
      </trkpt>
      <trkpt lat="45.92499" lon="2.89928">
        <ele>824</ele>
        <time>2017-10-10T01:02:46Z</time>
      </trkpt>
      <trkpt lat="45.92503" lon="2.89943">
        <ele>824</ele>
        <time>2017-10-10T01:04:46Z</time>
      </trkpt>
      <trkpt lat="45.92505" lon="2.89946">
        <ele>824</ele>
        <time>2017-10-10T01:06:46Z</time>
      </trkpt>
      <trkpt lat="45.92507" lon="2.89953">
        <ele>824</ele>
        <time>2017-10-10T01:08:46Z</time>
      </trkpt>
      <trkpt lat="45.92509" lon="2.89957">
        <ele>823</ele>
        <time>2017-10-10T01:10:46Z</time>
      </trkpt>
      <trkpt lat="45.9251" lon="2.89961">
        <ele>823</ele>
        <time>2017-10-10T01:12:46Z</time>
      </trkpt>
      <trkpt lat="45.92514" lon="2.89974">
        <ele>823</ele>
        <time>2017-10-10T01:14:46Z</time>
      </trkpt>
      <trkpt lat="45.92515" lon="2.89982">
        <ele>824</ele>
        <time>2017-10-10T01:16:46Z</time>
      </trkpt>
      <trkpt lat="45.92516" lon="2.8999">
        <ele>824</ele>
        <time>2017-10-10T01:18:46Z</time>
      </trkpt>
      <trkpt lat="45.92516" lon="2.89998">
        <ele>824</ele>
        <time>2017-10-10T01:20:46Z</time>
      </trkpt>
      <trkpt lat="45.92516" lon="2.90002">
        <ele>824</ele>
        <time>2017-10-10T01:22:46Z</time>
      </trkpt>
      <trkpt lat="45.92516" lon="2.90006">
        <ele>824</ele>
        <time>2017-10-10T01:24:46Z</time>
      </trkpt>
      <trkpt lat="45.92516" lon="2.90009">
        <ele>825</ele>
        <time>2017-10-10T01:26:46Z</time>
      </trkpt>
      <trkpt lat="45.92516" lon="2.90013">
        <ele>825</ele>
        <time>2017-10-10T01:28:46Z</time>
      </trkpt>
      <trkpt lat="45.92516" lon="2.90027">
        <ele>826</ele>
        <time>2017-10-10T01:30:46Z</time>
      </trkpt>
      <trkpt lat="45.92516" lon="2.90031">
        <ele>826</ele>
        <time>2017-10-10T01:32:46Z</time>
      </trkpt>
      <trkpt lat="45.92514" lon="2.90046">
        <ele>827</ele>
        <time>2017-10-10T01:34:46Z</time>
      </trkpt>
      <trkpt lat="45.92514" lon="2.90049">
        <ele>827</ele>
        <time>2017-10-10T01:36:46Z</time>
      </trkpt>
      <trkpt lat="45.92512" lon="2.90058">
        <ele>828</ele>
        <time>2017-10-10T01:38:46Z</time>
      </trkpt>
      <trkpt lat="45.9251" lon="2.90063">
        <ele>829</ele>
        <time>2017-10-10T01:40:46Z</time>
      </trkpt>
      <trkpt lat="45.92509" lon="2.90068">
        <ele>829</ele>
        <time>2017-10-10T01:42:46Z</time>
      </trkpt>
      <trkpt lat="45.92507" lon="2.90077">
        <ele>830</ele>
        <time>2017-10-10T01:44:46Z</time>
      </trkpt>
      <trkpt lat="45.92505" lon="2.90086">
        <ele>831</ele>
        <time>2017-10-10T01:46:46Z</time>
      </trkpt>
      <trkpt lat="45.92503" lon="2.90098">
        <ele>832</ele>
        <time>2017-10-10T01:48:46Z</time>
      </trkpt>
      <trkpt lat="45.92503" lon="2.90106">
        <ele>832</ele>
        <time>2017-10-10T01:50:46Z</time>
      </trkpt>
      <trkpt lat="45.92499" lon="2.90124">
        <ele>833</ele>
        <time>2017-10-10T01:52:46Z</time>
      </trkpt>
      <trkpt lat="45.92499" lon="2.90127">
        <ele>833</ele>
        <time>2017-10-10T01:54:46Z</time>
      </trkpt>
      <trkpt lat="45.92499" lon="2.90137">
        <ele>834</ele>
        <time>2017-10-10T01:56:46Z</time>
      </trkpt>
      <trkpt lat="45.92498" lon="2.90146">
        <ele>834</ele>
        <time>2017-10-10T01:58:46Z</time>
      </trkpt>
      <trkpt lat="45.92498" lon="2.90148">
        <ele>834</ele>
        <time>2017-10-10T02:00:46Z</time>
      </trkpt>
      <trkpt lat="45.92499" lon="2.90151">
        <ele>834</ele>
        <time>2017-10-10T02:02:46Z</time>
      </trkpt>
      <trkpt lat="45.92499" lon="2.9016">
        <ele>834</ele>
        <time>2017-10-10T02:04:46Z</time>
      </trkpt>
      <trkpt lat="45.925" lon="2.90168">
        <ele>834</ele>
        <time>2017-10-10T02:06:46Z</time>
      </trkpt>
      <trkpt lat="45.92501" lon="2.90174">
        <ele>835</ele>
        <time>2017-10-10T02:08:46Z</time>
      </trkpt>
      <trkpt lat="45.92501" lon="2.90181">
        <ele>835</ele>
        <time>2017-10-10T02:10:46Z</time>
      </trkpt>
      <trkpt lat="45.92501" lon="2.90189">
        <ele>836</ele>
        <time>2017-10-10T02:12:46Z</time>
      </trkpt>
      <trkpt lat="45.92501" lon="2.90192">
        <ele>836</ele>
        <time>2017-10-10T02:14:46Z</time>
      </trkpt>
      <trkpt lat="45.92501" lon="2.90195">
        <ele>837</ele>
        <time>2017-10-10T02:16:46Z</time>
      </trkpt>
      <trkpt lat="45.925" lon="2.90206">
        <ele>838</ele>
        <time>2017-10-10T02:18:46Z</time>
      </trkpt>
      <trkpt lat="45.92499" lon="2.90208">
        <ele>838</ele>
        <time>2017-10-10T02:20:46Z</time>
      </trkpt>
      <trkpt lat="45.92497" lon="2.90216">
        <ele>840</ele>
        <time>2017-10-10T02:22:46Z</time>
      </trkpt>
      <trkpt lat="45.92497" lon="2.90227">
        <ele>841</ele>
        <time>2017-10-10T02:24:46Z</time>
      </trkpt>
      <trkpt lat="45.92497" lon="2.90229">
        <ele>841</ele>
        <time>2017-10-10T02:26:46Z</time>
      </trkpt>
      <trkpt lat="45.92497" lon="2.90235">
        <ele>841</ele>
        <time>2017-10-10T02:28:46Z</time>
      </trkpt>
      <trkpt lat="45.92498" lon="2.90244">
        <ele>842</ele>
        <time>2017-10-10T02:30:46Z</time>
      </trkpt>
      <trkpt lat="45.92498" lon="2.90252">
        <ele>843</ele>
        <time>2017-10-10T02:32:46Z</time>
      </trkpt>
      <trkpt lat="45.92499" lon="2.90258">
        <ele>843</ele>
        <time>2017-10-10T02:34:46Z</time>
      </trkpt>
      <trkpt lat="45.925" lon="2.90264">
        <ele>843</ele>
        <time>2017-10-10T02:36:46Z</time>
      </trkpt>
      <trkpt lat="45.92501" lon="2.90267">
        <ele>843</ele>
        <time>2017-10-10T02:38:46Z</time>
      </trkpt>
      <trkpt lat="45.92501" lon="2.90278">
        <ele>844</ele>
        <time>2017-10-10T02:40:46Z</time>
      </trkpt>
      <trkpt lat="45.92502" lon="2.90288">
        <ele>845</ele>
        <time>2017-10-10T02:42:46Z</time>
      </trkpt>
      <trkpt lat="45.92501" lon="2.90296">
        <ele>846</ele>
        <time>2017-10-10T02:44:46Z</time>
      </trkpt>
      <trkpt lat="45.925" lon="2.90298">
        <ele>846</ele>
        <time>2017-10-10T02:46:46Z</time>
      </trkpt>
      <trkpt lat="45.92499" lon="2.90302">
        <ele>847</ele>
        <time>2017-10-10T02:48:46Z</time>
      </trkpt>
      <trkpt lat="45.92499" lon="2.90307">
        <ele>847</ele>
        <time>2017-10-10T02:50:46Z</time>
      </trkpt>
      <trkpt lat="45.92496" lon="2.90313">
        <ele>848</ele>
        <time>2017-10-10T02:52:46Z</time>
      </trkpt>
      <trkpt lat="45.92495" lon="2.90315">
        <ele>848</ele>
        <time>2017-10-10T02:54:46Z</time>
      </trkpt>
      <trkpt lat="45.92493" lon="2.90321">
        <ele>849</ele>
        <time>2017-10-10T02:56:46Z</time>
      </trkpt>
      <trkpt lat="45.92491" lon="2.90327">
        <ele>850</ele>
        <time>2017-10-10T02:58:46Z</time>
      </trkpt>
      <trkpt lat="45.9249" lon="2.90331">
        <ele>851</ele>
        <time>2017-10-10T03:00:46Z</time>
      </trkpt>
      <trkpt lat="45.92488" lon="2.90335">
        <ele>851</ele>
        <time>2017-10-10T03:02:46Z</time>
      </trkpt>
      <trkpt lat="45.92487" lon="2.90339">
        <ele>851</ele>
        <time>2017-10-10T03:04:46Z</time>
      </trkpt>
      <trkpt lat="45.92484" lon="2.90346">
        <ele>852</ele>
        <time>2017-10-10T03:06:46Z</time>
      </trkpt>
      <trkpt lat="45.92484" lon="2.90348">
        <ele>852</ele>
        <time>2017-10-10T03:08:46Z</time>
      </trkpt>
      <trkpt lat="45.92484" lon="2.9035">
        <ele>852</ele>
        <time>2017-10-10T03:10:46Z</time>
      </trkpt>
      <trkpt lat="45.92483" lon="2.90353">
        <ele>852</ele>
        <time>2017-10-10T03:12:46Z</time>
      </trkpt>
      <trkpt lat="45.92481" lon="2.90358">
        <ele>853</ele>
        <time>2017-10-10T03:14:46Z</time>
      </trkpt>
      <trkpt lat="45.9248" lon="2.90364">
        <ele>853</ele>
        <time>2017-10-10T03:16:46Z</time>
      </trkpt>
      <trkpt lat="45.92479" lon="2.90369">
        <ele>853</ele>
        <time>2017-10-10T03:18:46Z</time>
      </trkpt>
      <trkpt lat="45.92479" lon="2.90374">
        <ele>854</ele>
        <time>2017-10-10T03:20:46Z</time>
      </trkpt>
      <trkpt lat="45.9248" lon="2.90376">
        <ele>854</ele>
        <time>2017-10-10T03:22:46Z</time>
      </trkpt>
      <trkpt lat="45.92484" lon="2.90388">
        <ele>853</ele>
        <time>2017-10-10T03:24:46Z</time>
      </trkpt>
      <trkpt lat="45.92487" lon="2.90392">
        <ele>853</ele>
        <time>2017-10-10T03:26:46Z</time>
      </trkpt>
      <trkpt lat="45.9249" lon="2.90399">
        <ele>853</ele>
        <time>2017-10-10T03:28:46Z</time>
      </trkpt>
      <trkpt lat="45.92492" lon="2.90401">
        <ele>853</ele>
        <time>2017-10-10T03:30:46Z</time>
      </trkpt>
      <trkpt lat="45.92499" lon="2.90412">
        <ele>852</ele>
        <time>2017-10-10T03:32:46Z</time>
      </trkpt>
      <trkpt lat="45.92504" lon="2.90417">
        <ele>852</ele>
        <time>2017-10-10T03:34:46Z</time>
      </trkpt>
      <trkpt lat="45.92507" lon="2.9042">
        <ele>851</ele>
        <time>2017-10-10T03:36:46Z</time>
      </trkpt>
      <trkpt lat="45.92511" lon="2.90424">
        <ele>851</ele>
        <time>2017-10-10T03:38:46Z</time>
      </trkpt>
      <trkpt lat="45.92513" lon="2.90424">
        <ele>851</ele>
        <time>2017-10-10T03:40:46Z</time>
      </trkpt>
      <trkpt lat="45.92516" lon="2.90426">
        <ele>851</ele>
        <time>2017-10-10T03:42:46Z</time>
      </trkpt>
      <trkpt lat="45.92519" lon="2.90429">
        <ele>851</ele>
        <time>2017-10-10T03:44:46Z</time>
      </trkpt>
      <trkpt lat="45.92521" lon="2.9043">
        <ele>851</ele>
        <time>2017-10-10T03:46:46Z</time>
      </trkpt>
      <trkpt lat="45.92524" lon="2.90433">
        <ele>850</ele>
        <time>2017-10-10T03:48:46Z</time>
      </trkpt>
      <trkpt lat="45.92526" lon="2.90437">
        <ele>850</ele>
        <time>2017-10-10T03:50:46Z</time>
      </trkpt>
      <trkpt lat="45.9253" lon="2.90446">
        <ele>851</ele>
        <time>2017-10-10T03:52:46Z</time>
      </trkpt>
      <trkpt lat="45.9253" lon="2.90448">
        <ele>851</ele>
        <time>2017-10-10T03:54:46Z</time>
      </trkpt>
      <trkpt lat="45.92532" lon="2.90453">
        <ele>851</ele>
        <time>2017-10-10T03:56:46Z</time>
      </trkpt>
      <trkpt lat="45.92536" lon="2.90459">
        <ele>851</ele>
        <time>2017-10-10T03:58:46Z</time>
      </trkpt>
      <trkpt lat="45.92539" lon="2.90463">
        <ele>850</ele>
        <time>2017-10-10T04:00:46Z</time>
      </trkpt>
      <trkpt lat="45.92541" lon="2.90467">
        <ele>850</ele>
        <time>2017-10-10T04:02:46Z</time>
      </trkpt>
      <trkpt lat="45.92548" lon="2.90479">
        <ele>850</ele>
        <time>2017-10-10T04:04:46Z</time>
      </trkpt>
      <trkpt lat="45.92549" lon="2.90482">
        <ele>850</ele>
        <time>2017-10-10T04:06:46Z</time>
      </trkpt>
      <trkpt lat="45.92549" lon="2.90489">
        <ele>851</ele>
        <time>2017-10-10T04:08:46Z</time>
      </trkpt>
      <trkpt lat="45.9255" lon="2.90491">
        <ele>851</ele>
        <time>2017-10-10T04:10:46Z</time>
      </trkpt>
      <trkpt lat="45.9255" lon="2.90493">
        <ele>851</ele>
        <time>2017-10-10T04:12:46Z</time>
      </trkpt>
      <trkpt lat="45.92551" lon="2.90497">
        <ele>851</ele>
        <time>2017-10-10T04:14:46Z</time>
      </trkpt>
      <trkpt lat="45.9255" lon="2.90503">
        <ele>851</ele>
        <time>2017-10-10T04:16:46Z</time>
      </trkpt>
      <trkpt lat="45.9255" lon="2.9051">
        <ele>851</ele>
        <time>2017-10-10T04:18:46Z</time>
      </trkpt>
      <trkpt lat="45.92551" lon="2.90512">
        <ele>851</ele>
        <time>2017-10-10T04:20:46Z</time>
      </trkpt>
      <trkpt lat="45.9255" lon="2.9052">
        <ele>851</ele>
        <time>2017-10-10T04:22:46Z</time>
      </trkpt>
      <trkpt lat="45.92551" lon="2.90525">
        <ele>851</ele>
        <time>2017-10-10T04:24:46Z</time>
      </trkpt>
      <trkpt lat="45.92551" lon="2.90528">
        <ele>851</ele>
        <time>2017-10-10T04:26:46Z</time>
      </trkpt>
      <trkpt lat="45.92553" lon="2.90541">
        <ele>851</ele>
        <time>2017-10-10T04:28:46Z</time>
      </trkpt>
      <trkpt lat="45.92553" lon="2.90544">
        <ele>851</ele>
        <time>2017-10-10T04:30:46Z</time>
      </trkpt>
      <trkpt lat="45.92552" lon="2.90547">
        <ele>852</ele>
        <time>2017-10-10T04:32:46Z</time>
      </trkpt>
      <trkpt lat="45.92551" lon="2.90549">
        <ele>852</ele>
        <time>2017-10-10T04:34:46Z</time>
      </trkpt>
      <trkpt lat="45.9255" lon="2.9055">
        <ele>852</ele>
        <time>2017-10-10T04:36:46Z</time>
      </trkpt>
      <trkpt lat="45.92548" lon="2.9055">
        <ele>852</ele>
        <time>2017-10-10T04:38:46Z</time>
      </trkpt>
      <trkpt lat="45.92547" lon="2.9055">
        <ele>852</ele>
        <time>2017-10-10T04:40:46Z</time>
      </trkpt>
      <trkpt lat="45.92537" lon="2.90555">
        <ele>854</ele>
        <time>2017-10-10T04:42:46Z</time>
      </trkpt>
      <trkpt lat="45.92533" lon="2.90554">
        <ele>854</ele>
        <time>2017-10-10T04:44:46Z</time>
      </trkpt>
      <trkpt lat="45.92528" lon="2.90553">
        <ele>855</ele>
        <time>2017-10-10T04:46:46Z</time>
      </trkpt>
      <trkpt lat="45.92525" lon="2.90553">
        <ele>855</ele>
        <time>2017-10-10T04:48:46Z</time>
      </trkpt>
      <trkpt lat="45.92523" lon="2.90553">
        <ele>855</ele>
        <time>2017-10-10T04:50:46Z</time>
      </trkpt>
      <trkpt lat="45.92521" lon="2.90553">
        <ele>856</ele>
        <time>2017-10-10T04:52:46Z</time>
      </trkpt>
      <trkpt lat="45.92516" lon="2.90554">
        <ele>856</ele>
        <time>2017-10-10T04:54:46Z</time>
      </trkpt>
      <trkpt lat="45.92515" lon="2.90555">
        <ele>857</ele>
        <time>2017-10-10T04:56:46Z</time>
      </trkpt>
      <trkpt lat="45.92513" lon="2.90555">
        <ele>857</ele>
        <time>2017-10-10T04:58:46Z</time>
      </trkpt>
      <trkpt lat="45.9251" lon="2.90558">
        <ele>857</ele>
        <time>2017-10-10T05:00:46Z</time>
      </trkpt>
      <trkpt lat="45.92509" lon="2.90558">
        <ele>858</ele>
        <time>2017-10-10T05:02:46Z</time>
      </trkpt>
      <trkpt lat="45.92503" lon="2.90554">
        <ele>858</ele>
        <time>2017-10-10T05:04:46Z</time>
      </trkpt>
      <trkpt lat="45.92503" lon="2.90553">
        <ele>858</ele>
        <time>2017-10-10T05:06:46Z</time>
      </trkpt>
      <trkpt lat="45.92501" lon="2.90552">
        <ele>858</ele>
        <time>2017-10-10T05:08:46Z</time>
      </trkpt>
      <trkpt lat="45.925" lon="2.90551">
        <ele>858</ele>
        <time>2017-10-10T05:10:46Z</time>
      </trkpt>
      <trkpt lat="45.92499" lon="2.9055">
        <ele>858</ele>
        <time>2017-10-10T05:12:46Z</time>
      </trkpt>
      <trkpt lat="45.92497" lon="2.90549">
        <ele>859</ele>
        <time>2017-10-10T05:14:46Z</time>
      </trkpt>
      <trkpt lat="45.92494" lon="2.90546">
        <ele>859</ele>
        <time>2017-10-10T05:16:46Z</time>
      </trkpt>
      <trkpt lat="45.92491" lon="2.90543">
        <ele>859</ele>
        <time>2017-10-10T05:18:46Z</time>
      </trkpt>
      <trkpt lat="45.9249" lon="2.90541">
        <ele>859</ele>
        <time>2017-10-10T05:20:46Z</time>
      </trkpt>
      <trkpt lat="45.92489" lon="2.90539">
        <ele>859</ele>
        <time>2017-10-10T05:22:46Z</time>
      </trkpt>
      <trkpt lat="45.92488" lon="2.90537">
        <ele>859</ele>
        <time>2017-10-10T05:24:46Z</time>
      </trkpt>
      <trkpt lat="45.92485" lon="2.90534">
        <ele>859</ele>
        <time>2017-10-10T05:26:46Z</time>
      </trkpt>
      <trkpt lat="45.92483" lon="2.90531">
        <ele>859</ele>
        <time>2017-10-10T05:28:46Z</time>
      </trkpt>
      <trkpt lat="45.92482" lon="2.90528">
        <ele>859</ele>
        <time>2017-10-10T05:30:46Z</time>
      </trkpt>
      <trkpt lat="45.92476" lon="2.90521">
        <ele>859</ele>
        <time>2017-10-10T05:32:46Z</time>
      </trkpt>
      <trkpt lat="45.9247" lon="2.90511">
        <ele>859</ele>
        <time>2017-10-10T05:34:46Z</time>
      </trkpt>
      <trkpt lat="45.92469" lon="2.9051">
        <ele>859</ele>
        <time>2017-10-10T05:36:46Z</time>
      </trkpt>
      <trkpt lat="45.92465" lon="2.90504">
        <ele>860</ele>
        <time>2017-10-10T05:38:46Z</time>
      </trkpt>
      <trkpt lat="45.92459" lon="2.90495">
        <ele>860</ele>
        <time>2017-10-10T05:40:46Z</time>
      </trkpt>
      <trkpt lat="45.92454" lon="2.90491">
        <ele>860</ele>
        <time>2017-10-10T05:42:46Z</time>
      </trkpt>
      <trkpt lat="45.92453" lon="2.90489">
        <ele>860</ele>
        <time>2017-10-10T05:44:46Z</time>
      </trkpt>
      <trkpt lat="45.92449" lon="2.90483">
        <ele>860</ele>
        <time>2017-10-10T05:46:46Z</time>
      </trkpt>
      <trkpt lat="45.92447" lon="2.9048">
        <ele>861</ele>
        <time>2017-10-10T05:48:46Z</time>
      </trkpt>
      <trkpt lat="45.92439" lon="2.90472">
        <ele>861</ele>
        <time>2017-10-10T05:50:46Z</time>
      </trkpt>
      <trkpt lat="45.92436" lon="2.90469">
        <ele>862</ele>
        <time>2017-10-10T05:52:46Z</time>
      </trkpt>
      <trkpt lat="45.92435" lon="2.90468">
        <ele>862</ele>
        <time>2017-10-10T05:54:46Z</time>
      </trkpt>
      <trkpt lat="45.92431" lon="2.90466">
        <ele>862</ele>
        <time>2017-10-10T05:56:46Z</time>
      </trkpt>
      <trkpt lat="45.9243" lon="2.90465">
        <ele>862</ele>
        <time>2017-10-10T05:58:46Z</time>
      </trkpt>
      <trkpt lat="45.92426" lon="2.90461">
        <ele>862</ele>
        <time>2017-10-10T06:00:46Z</time>
      </trkpt>
      <trkpt lat="45.92426" lon="2.90448">
        <ele>862</ele>
        <time>2017-10-10T06:02:46Z</time>
      </trkpt>
      <trkpt lat="45.92427" lon="2.90446">
        <ele>862</ele>
        <time>2017-10-10T06:04:46Z</time>
      </trkpt>
      <trkpt lat="45.92428" lon="2.90445">
        <ele>862</ele>
        <time>2017-10-10T06:06:46Z</time>
      </trkpt>
      <trkpt lat="45.92427" lon="2.90443">
        <ele>862</ele>
        <time>2017-10-10T06:08:46Z</time>
      </trkpt>
      <trkpt lat="45.92427" lon="2.90438">
        <ele>862</ele>
        <time>2017-10-10T06:10:46Z</time>
      </trkpt>
      <trkpt lat="45.92428" lon="2.90433">
        <ele>862</ele>
        <time>2017-10-10T06:12:46Z</time>
      </trkpt>
      <trkpt lat="45.92427" lon="2.90427">
        <ele>862</ele>
        <time>2017-10-10T06:14:46Z</time>
      </trkpt>
      <trkpt lat="45.92425" lon="2.90414">
        <ele>862</ele>
        <time>2017-10-10T06:16:46Z</time>
      </trkpt>
      <trkpt lat="45.92425" lon="2.90406">
        <ele>862</ele>
        <time>2017-10-10T06:18:46Z</time>
      </trkpt>
      <trkpt lat="45.92424" lon="2.90404">
        <ele>862</ele>
        <time>2017-10-10T06:20:46Z</time>
      </trkpt>
      <trkpt lat="45.92423" lon="2.90398">
        <ele>862</ele>
        <time>2017-10-10T06:22:46Z</time>
      </trkpt>
      <trkpt lat="45.92419" lon="2.90392">
        <ele>863</ele>
        <time>2017-10-10T06:24:46Z</time>
      </trkpt>
      <trkpt lat="45.92418" lon="2.90388">
        <ele>863</ele>
        <time>2017-10-10T06:26:46Z</time>
      </trkpt>
      <trkpt lat="45.92413" lon="2.90376">
        <ele>863</ele>
        <time>2017-10-10T06:28:46Z</time>
      </trkpt>
      <trkpt lat="45.92409" lon="2.90367">
        <ele>863</ele>
        <time>2017-10-10T06:30:46Z</time>
      </trkpt>
      <trkpt lat="45.92407" lon="2.90362">
        <ele>863</ele>
        <time>2017-10-10T06:32:46Z</time>
      </trkpt>
      <trkpt lat="45.92402" lon="2.90352">
        <ele>863</ele>
        <time>2017-10-10T06:34:46Z</time>
      </trkpt>
      <trkpt lat="45.92397" lon="2.90337">
        <ele>863</ele>
        <time>2017-10-10T06:36:46Z</time>
      </trkpt>
      <trkpt lat="45.92394" lon="2.90324">
        <ele>862</ele>
        <time>2017-10-10T06:38:46Z</time>
      </trkpt>
      <trkpt lat="45.92391" lon="2.90312">
        <ele>862</ele>
        <time>2017-10-10T06:40:46Z</time>
      </trkpt>
      <trkpt lat="45.92386" lon="2.90292">
        <ele>862</ele>
        <time>2017-10-10T06:42:46Z</time>
      </trkpt>
      <trkpt lat="45.92382" lon="2.9028">
        <ele>862</ele>
        <time>2017-10-10T06:44:46Z</time>
      </trkpt>
      <trkpt lat="45.9238" lon="2.9027">
        <ele>862</ele>
        <time>2017-10-10T06:46:46Z</time>
      </trkpt>
      <trkpt lat="45.92378" lon="2.90264">
        <ele>862</ele>
        <time>2017-10-10T06:48:46Z</time>
      </trkpt>
      <trkpt lat="45.92376" lon="2.90258">
        <ele>862</ele>
        <time>2017-10-10T06:50:46Z</time>
      </trkpt>
      <trkpt lat="45.9237" lon="2.90246">
        <ele>861</ele>
        <time>2017-10-10T06:52:46Z</time>
      </trkpt>
      <trkpt lat="45.92366" lon="2.90241">
        <ele>861</ele>
        <time>2017-10-10T06:54:46Z</time>
      </trkpt>
      <trkpt lat="45.92362" lon="2.90235">
        <ele>860</ele>
        <time>2017-10-10T06:56:46Z</time>
      </trkpt>
      <trkpt lat="45.92357" lon="2.9023">
        <ele>860</ele>
        <time>2017-10-10T06:58:46Z</time>
      </trkpt>
      <trkpt lat="45.92351" lon="2.90225">
        <ele>859</ele>
        <time>2017-10-10T07:00:46Z</time>
      </trkpt>
      <trkpt lat="45.92346" lon="2.9022">
        <ele>859</ele>
        <time>2017-10-10T07:02:46Z</time>
      </trkpt>
      <trkpt lat="45.92334" lon="2.90213">
        <ele>858</ele>
        <time>2017-10-10T07:04:46Z</time>
      </trkpt>
      <trkpt lat="45.9233" lon="2.9021">
        <ele>857</ele>
        <time>2017-10-10T07:06:46Z</time>
      </trkpt>
      <trkpt lat="45.92326" lon="2.90204">
        <ele>857</ele>
        <time>2017-10-10T07:08:46Z</time>
      </trkpt>
      <trkpt lat="45.9232" lon="2.90203">
        <ele>857</ele>
        <time>2017-10-10T07:10:46Z</time>
      </trkpt>
      <trkpt lat="45.92319" lon="2.90205">
        <ele>857</ele>
        <time>2017-10-10T07:12:46Z</time>
      </trkpt>
      <trkpt lat="45.9232" lon="2.90206">
        <ele>857</ele>
        <time>2017-10-10T07:14:46Z</time>
      </trkpt>
      <trkpt lat="45.92319" lon="2.90209">
        <ele>857</ele>
        <time>2017-10-10T07:16:46Z</time>
      </trkpt>
      <trkpt lat="45.92314" lon="2.90217">
        <ele>857</ele>
        <time>2017-10-10T07:18:46Z</time>
      </trkpt>
      <trkpt lat="45.92304" lon="2.90239">
        <ele>858</ele>
        <time>2017-10-10T07:20:46Z</time>
      </trkpt>
      <trkpt lat="45.92299" lon="2.90252">
        <ele>858</ele>
        <time>2017-10-10T07:22:46Z</time>
      </trkpt>
      <trkpt lat="45.92293" lon="2.90267">
        <ele>859</ele>
        <time>2017-10-10T07:24:46Z</time>
      </trkpt>
      <trkpt lat="45.92292" lon="2.9027">
        <ele>859</ele>
        <time>2017-10-10T07:26:46Z</time>
      </trkpt>
      <trkpt lat="45.92286" lon="2.90287">
        <ele>860</ele>
        <time>2017-10-10T07:28:46Z</time>
      </trkpt>
      <trkpt lat="45.92285" lon="2.90288">
        <ele>860</ele>
        <time>2017-10-10T07:30:46Z</time>
      </trkpt>
      <trkpt lat="45.92282" lon="2.90287">
        <ele>859</ele>
        <time>2017-10-10T07:32:46Z</time>
      </trkpt>
      <trkpt lat="45.92279" lon="2.90287">
        <ele>859</ele>
        <time>2017-10-10T07:34:46Z</time>
      </trkpt>
      <trkpt lat="45.92273" lon="2.90287">
        <ele>859</ele>
        <time>2017-10-10T07:36:46Z</time>
      </trkpt>
      <trkpt lat="45.92268" lon="2.90287">
        <ele>859</ele>
        <time>2017-10-10T07:38:46Z</time>
      </trkpt>
      <trkpt lat="45.92255" lon="2.90283">
        <ele>859</ele>
        <time>2017-10-10T07:40:46Z</time>
      </trkpt>
      <trkpt lat="45.92244" lon="2.90282">
        <ele>859</ele>
        <time>2017-10-10T07:42:46Z</time>
      </trkpt>
      <trkpt lat="45.9224" lon="2.90281">
        <ele>858</ele>
        <time>2017-10-10T07:44:46Z</time>
      </trkpt>
      <trkpt lat="45.92232" lon="2.90278">
        <ele>858</ele>
        <time>2017-10-10T07:46:46Z</time>
      </trkpt>
      <trkpt lat="45.92229" lon="2.90276">
        <ele>857</ele>
        <time>2017-10-10T07:48:46Z</time>
      </trkpt>
      <trkpt lat="45.92217" lon="2.90273">
        <ele>857</ele>
        <time>2017-10-10T07:50:46Z</time>
      </trkpt>
      <trkpt lat="45.92214" lon="2.90271">
        <ele>856</ele>
        <time>2017-10-10T07:52:46Z</time>
      </trkpt>
      <trkpt lat="45.92207" lon="2.90267">
        <ele>856</ele>
        <time>2017-10-10T07:54:46Z</time>
      </trkpt>
      <trkpt lat="45.92199" lon="2.90261">
        <ele>855</ele>
        <time>2017-10-10T07:56:46Z</time>
      </trkpt>
      <trkpt lat="45.92195" lon="2.90257">
        <ele>855</ele>
        <time>2017-10-10T07:58:46Z</time>
      </trkpt>
      <trkpt lat="45.92192" lon="2.90253">
        <ele>854</ele>
        <time>2017-10-10T08:00:46Z</time>
      </trkpt>
      <trkpt lat="45.92182" lon="2.90244">
        <ele>853</ele>
        <time>2017-10-10T08:02:46Z</time>
      </trkpt>
      <trkpt lat="45.92176" lon="2.90241">
        <ele>853</ele>
        <time>2017-10-10T08:04:46Z</time>
      </trkpt>
      <trkpt lat="45.92173" lon="2.90241">
        <ele>853</ele>
        <time>2017-10-10T08:06:46Z</time>
      </trkpt>
      <trkpt lat="45.92167" lon="2.90242">
        <ele>853</ele>
        <time>2017-10-10T08:08:46Z</time>
      </trkpt>
      <trkpt lat="45.92157" lon="2.90245">
        <ele>852</ele>
        <time>2017-10-10T08:10:46Z</time>
      </trkpt>
      <trkpt lat="45.92146" lon="2.90251">
        <ele>851</ele>
        <time>2017-10-10T08:12:46Z</time>
      </trkpt>
      <trkpt lat="45.92143" lon="2.90252">
        <ele>851</ele>
        <time>2017-10-10T08:14:46Z</time>
      </trkpt>
      <trkpt lat="45.92138" lon="2.90252">
        <ele>850</ele>
        <time>2017-10-10T08:16:46Z</time>
      </trkpt>
      <trkpt lat="45.92136" lon="2.90254">
        <ele>850</ele>
        <time>2017-10-10T08:18:46Z</time>
      </trkpt>
      <trkpt lat="45.92134" lon="2.90256">
        <ele>850</ele>
        <time>2017-10-10T08:20:46Z</time>
      </trkpt>
      <trkpt lat="45.92133" lon="2.90258">
        <ele>850</ele>
        <time>2017-10-10T08:22:46Z</time>
      </trkpt>
      <trkpt lat="45.92132" lon="2.9026">
        <ele>850</ele>
        <time>2017-10-10T08:24:46Z</time>
      </trkpt>
      <trkpt lat="45.92125" lon="2.90274">
        <ele>850</ele>
        <time>2017-10-10T08:26:46Z</time>
      </trkpt>
      <trkpt lat="45.92122" lon="2.90278">
        <ele>850</ele>
        <time>2017-10-10T08:28:46Z</time>
      </trkpt>
      <trkpt lat="45.9212" lon="2.90283">
        <ele>850</ele>
        <time>2017-10-10T08:30:46Z</time>
      </trkpt>
      <trkpt lat="45.92115" lon="2.90291">
        <ele>850</ele>
        <time>2017-10-10T08:32:46Z</time>
      </trkpt>
      <trkpt lat="45.92104" lon="2.90307">
        <ele>849</ele>
        <time>2017-10-10T08:34:46Z</time>
      </trkpt>
      <trkpt lat="45.92095" lon="2.90318">
        <ele>849</ele>
        <time>2017-10-10T08:36:46Z</time>
      </trkpt>
      <trkpt lat="45.92088" lon="2.90324">
        <ele>849</ele>
        <time>2017-10-10T08:38:46Z</time>
      </trkpt>
      <trkpt lat="45.92084" lon="2.90327">
        <ele>849</ele>
        <time>2017-10-10T08:40:46Z</time>
      </trkpt>
      <trkpt lat="45.92073" lon="2.90333">
        <ele>848</ele>
        <time>2017-10-10T08:42:46Z</time>
      </trkpt>
      <trkpt lat="45.92066" lon="2.90339">
        <ele>848</ele>
        <time>2017-10-10T08:44:46Z</time>
      </trkpt>
      <trkpt lat="45.92062" lon="2.90342">
        <ele>848</ele>
        <time>2017-10-10T08:46:46Z</time>
      </trkpt>
      <trkpt lat="45.9205" lon="2.90356">
        <ele>848</ele>
        <time>2017-10-10T08:48:46Z</time>
      </trkpt>
      <trkpt lat="45.92041" lon="2.90366">
        <ele>848</ele>
        <time>2017-10-10T08:50:46Z</time>
      </trkpt>
      <trkpt lat="45.92037" lon="2.9037">
        <ele>847</ele>
        <time>2017-10-10T08:52:46Z</time>
      </trkpt>
      <trkpt lat="45.9203" lon="2.90375">
        <ele>847</ele>
        <time>2017-10-10T08:54:46Z</time>
      </trkpt>
      <trkpt lat="45.9201" lon="2.90385">
        <ele>846</ele>
        <time>2017-10-10T08:56:46Z</time>
      </trkpt>
      <trkpt lat="45.92003" lon="2.90388">
        <ele>846</ele>
        <time>2017-10-10T08:58:46Z</time>
      </trkpt>
      <trkpt lat="45.91999" lon="2.9039">
        <ele>845</ele>
        <time>2017-10-10T09:00:46Z</time>
      </trkpt>
      <trkpt lat="45.9199" lon="2.90396">
        <ele>845</ele>
        <time>2017-10-10T09:02:46Z</time>
      </trkpt>
      <trkpt lat="45.91982" lon="2.90404">
        <ele>845</ele>
        <time>2017-10-10T09:04:46Z</time>
      </trkpt>
      <trkpt lat="45.91971" lon="2.90417">
        <ele>844</ele>
        <time>2017-10-10T09:06:46Z</time>
      </trkpt>
      <trkpt lat="45.91967" lon="2.9042">
        <ele>844</ele>
        <time>2017-10-10T09:08:46Z</time>
      </trkpt>
      <trkpt lat="45.91947" lon="2.90444">
        <ele>845</ele>
        <time>2017-10-10T09:10:46Z</time>
      </trkpt>
      <trkpt lat="45.91939" lon="2.90452">
        <ele>845</ele>
        <time>2017-10-10T09:12:46Z</time>
      </trkpt>
      <trkpt lat="45.91931" lon="2.90457">
        <ele>845</ele>
        <time>2017-10-10T09:14:46Z</time>
      </trkpt>
      <trkpt lat="45.91919" lon="2.90464">
        <ele>845</ele>
        <time>2017-10-10T09:16:46Z</time>
      </trkpt>
      <trkpt lat="45.9191" lon="2.90467">
        <ele>845</ele>
        <time>2017-10-10T09:18:46Z</time>
      </trkpt>
      <trkpt lat="45.91902" lon="2.90469">
        <ele>845</ele>
        <time>2017-10-10T09:20:46Z</time>
      </trkpt>
      <trkpt lat="45.91894" lon="2.90472">
        <ele>845</ele>
        <time>2017-10-10T09:22:46Z</time>
      </trkpt>
      <trkpt lat="45.91891" lon="2.90474">
        <ele>845</ele>
        <time>2017-10-10T09:24:46Z</time>
      </trkpt>
      <trkpt lat="45.91887" lon="2.90477">
        <ele>845</ele>
        <time>2017-10-10T09:26:46Z</time>
      </trkpt>
      <trkpt lat="45.91885" lon="2.9048">
        <ele>845</ele>
        <time>2017-10-10T09:28:46Z</time>
      </trkpt>
      <trkpt lat="45.91883" lon="2.90484">
        <ele>846</ele>
        <time>2017-10-10T09:30:46Z</time>
      </trkpt>
      <trkpt lat="45.9188" lon="2.90492">
        <ele>846</ele>
        <time>2017-10-10T09:32:46Z</time>
      </trkpt>
      <trkpt lat="45.91876" lon="2.905">
        <ele>847</ele>
        <time>2017-10-10T09:34:46Z</time>
      </trkpt>
      <trkpt lat="45.91873" lon="2.90503">
        <ele>847</ele>
        <time>2017-10-10T09:36:46Z</time>
      </trkpt>
      <trkpt lat="45.91871" lon="2.90507">
        <ele>847</ele>
        <time>2017-10-10T09:38:46Z</time>
      </trkpt>
      <trkpt lat="45.91865" lon="2.90517">
        <ele>847</ele>
        <time>2017-10-10T09:40:46Z</time>
      </trkpt>
      <trkpt lat="45.91863" lon="2.90521">
        <ele>847</ele>
        <time>2017-10-10T09:42:46Z</time>
      </trkpt>
      <trkpt lat="45.91862" lon="2.90526">
        <ele>847</ele>
        <time>2017-10-10T09:44:46Z</time>
      </trkpt>
      <trkpt lat="45.91862" lon="2.90529">
        <ele>847</ele>
        <time>2017-10-10T09:46:46Z</time>
      </trkpt>
      <trkpt lat="45.91863" lon="2.90532">
        <ele>847</ele>
        <time>2017-10-10T09:48:46Z</time>
      </trkpt>
      <trkpt lat="45.91865" lon="2.90535">
        <ele>847</ele>
        <time>2017-10-10T09:50:46Z</time>
      </trkpt>
      <trkpt lat="45.91865" lon="2.90536">
        <ele>847</ele>
        <time>2017-10-10T09:52:46Z</time>
      </trkpt>
      <trkpt lat="45.91866" lon="2.90537">
        <ele>847</ele>
        <time>2017-10-10T09:54:46Z</time>
      </trkpt>
      <trkpt lat="45.91868" lon="2.90542">
        <ele>847</ele>
        <time>2017-10-10T09:56:46Z</time>
      </trkpt>
      <trkpt lat="45.91869" lon="2.90547">
        <ele>847</ele>
        <time>2017-10-10T09:58:46Z</time>
      </trkpt>
      <trkpt lat="45.91869" lon="2.90549">
        <ele>847</ele>
        <time>2017-10-10T10:00:46Z</time>
      </trkpt>
      <trkpt lat="45.91868" lon="2.90557">
        <ele>847</ele>
        <time>2017-10-10T10:02:46Z</time>
      </trkpt>
      <trkpt lat="45.91869" lon="2.9056">
        <ele>847</ele>
        <time>2017-10-10T10:04:46Z</time>
      </trkpt>
      <trkpt lat="45.91869" lon="2.9056">
        <ele>847</ele>
        <time>2017-10-10T10:06:46Z</time>
      </trkpt>
      <trkpt lat="45.9187" lon="2.90561">
        <ele>847</ele>
        <time>2017-10-10T10:08:46Z</time>
      </trkpt>
      <trkpt lat="45.9187" lon="2.90564">
        <ele>847</ele>
        <time>2017-10-10T10:10:46Z</time>
      </trkpt>
      <trkpt lat="45.9187" lon="2.90566">
        <ele>847</ele>
        <time>2017-10-10T10:12:46Z</time>
      </trkpt>
      <trkpt lat="45.9187" lon="2.9057">
        <ele>848</ele>
        <time>2017-10-10T10:14:46Z</time>
      </trkpt>
      <trkpt lat="45.91874" lon="2.9059">
        <ele>848</ele>
        <time>2017-10-10T10:16:46Z</time>
      </trkpt>
      <trkpt lat="45.91877" lon="2.90599">
        <ele>849</ele>
        <time>2017-10-10T10:18:46Z</time>
      </trkpt>
      <trkpt lat="45.9188" lon="2.90616">
        <ele>850</ele>
        <time>2017-10-10T10:20:46Z</time>
      </trkpt>
      <trkpt lat="45.91881" lon="2.90619">
        <ele>850</ele>
        <time>2017-10-10T10:22:46Z</time>
      </trkpt>
      <trkpt lat="45.91882" lon="2.90626">
        <ele>850</ele>
        <time>2017-10-10T10:24:46Z</time>
      </trkpt>
      <trkpt lat="45.91883" lon="2.90629">
        <ele>850</ele>
        <time>2017-10-10T10:26:46Z</time>
      </trkpt>
      <trkpt lat="45.91885" lon="2.90635">
        <ele>851</ele>
        <time>2017-10-10T10:28:46Z</time>
      </trkpt>
      <trkpt lat="45.91886" lon="2.90645">
        <ele>851</ele>
        <time>2017-10-10T10:30:46Z</time>
      </trkpt>
      <trkpt lat="45.91888" lon="2.90654">
        <ele>852</ele>
        <time>2017-10-10T10:32:46Z</time>
      </trkpt>
      <trkpt lat="45.9189" lon="2.90669">
        <ele>853</ele>
        <time>2017-10-10T10:34:46Z</time>
      </trkpt>
      <trkpt lat="45.9189" lon="2.90672">
        <ele>853</ele>
        <time>2017-10-10T10:36:46Z</time>
      </trkpt>
      <trkpt lat="45.91891" lon="2.90678">
        <ele>854</ele>
        <time>2017-10-10T10:38:46Z</time>
      </trkpt>
      <trkpt lat="45.91891" lon="2.90692">
        <ele>855</ele>
        <time>2017-10-10T10:40:46Z</time>
      </trkpt>
      <trkpt lat="45.9189" lon="2.90698">
        <ele>855</ele>
        <time>2017-10-10T10:42:46Z</time>
      </trkpt>
      <trkpt lat="45.91889" lon="2.90701">
        <ele>855</ele>
        <time>2017-10-10T10:44:46Z</time>
      </trkpt>
      <trkpt lat="45.91889" lon="2.90704">
        <ele>856</ele>
        <time>2017-10-10T10:46:46Z</time>
      </trkpt>
      <trkpt lat="45.91888" lon="2.90718">
        <ele>857</ele>
        <time>2017-10-10T10:48:46Z</time>
      </trkpt>
      <trkpt lat="45.91884" lon="2.90738">
        <ele>859</ele>
        <time>2017-10-10T10:50:46Z</time>
      </trkpt>
      <trkpt lat="45.91884" lon="2.90739">
        <ele>859</ele>
        <time>2017-10-10T10:52:46Z</time>
      </trkpt>
      <trkpt lat="45.91883" lon="2.90743">
        <ele>859</ele>
        <time>2017-10-10T10:54:46Z</time>
      </trkpt>
      <trkpt lat="45.91883" lon="2.90748">
        <ele>859</ele>
        <time>2017-10-10T10:56:46Z</time>
      </trkpt>
      <trkpt lat="45.91886" lon="2.90769">
        <ele>860</ele>
        <time>2017-10-10T10:58:46Z</time>
      </trkpt>
      <trkpt lat="45.91889" lon="2.90777">
        <ele>861</ele>
        <time>2017-10-10T11:00:46Z</time>
      </trkpt>
      <trkpt lat="45.91891" lon="2.90785">
        <ele>861</ele>
        <time>2017-10-10T11:02:46Z</time>
      </trkpt>
      <trkpt lat="45.91892" lon="2.9079">
        <ele>862</ele>
        <time>2017-10-10T11:04:46Z</time>
      </trkpt>
      <trkpt lat="45.91892" lon="2.90792">
        <ele>862</ele>
        <time>2017-10-10T11:06:46Z</time>
      </trkpt>
      <trkpt lat="45.91893" lon="2.90794">
        <ele>862</ele>
        <time>2017-10-10T11:08:46Z</time>
      </trkpt>
      <trkpt lat="45.91896" lon="2.90805">
        <ele>862</ele>
        <time>2017-10-10T11:10:46Z</time>
      </trkpt>
      <trkpt lat="45.91899" lon="2.90814">
        <ele>863</ele>
        <time>2017-10-10T11:12:46Z</time>
      </trkpt>
      <trkpt lat="45.91902" lon="2.90819">
        <ele>863</ele>
        <time>2017-10-10T11:14:46Z</time>
      </trkpt>
      <trkpt lat="45.91909" lon="2.90839">
        <ele>865</ele>
        <time>2017-10-10T11:16:46Z</time>
      </trkpt>
      <trkpt lat="45.91911" lon="2.90845">
        <ele>865</ele>
        <time>2017-10-10T11:18:46Z</time>
      </trkpt>
      <trkpt lat="45.91913" lon="2.90851">
        <ele>865</ele>
        <time>2017-10-10T11:20:46Z</time>
      </trkpt>
      <trkpt lat="45.91916" lon="2.9086">
        <ele>866</ele>
        <time>2017-10-10T11:22:46Z</time>
      </trkpt>
      <trkpt lat="45.91919" lon="2.90871">
        <ele>867</ele>
        <time>2017-10-10T11:24:46Z</time>
      </trkpt>
      <trkpt lat="45.9192" lon="2.90875">
        <ele>867</ele>
        <time>2017-10-10T11:26:46Z</time>
      </trkpt>
      <trkpt lat="45.91921" lon="2.90879">
        <ele>867</ele>
        <time>2017-10-10T11:28:46Z</time>
      </trkpt>
      <trkpt lat="45.91922" lon="2.90879">
        <ele>867</ele>
        <time>2017-10-10T11:30:46Z</time>
      </trkpt>
      <trkpt lat="45.91922" lon="2.90882">
        <ele>867</ele>
        <time>2017-10-10T11:32:46Z</time>
      </trkpt>
      <trkpt lat="45.91922" lon="2.90892">
        <ele>868</ele>
        <time>2017-10-10T11:34:46Z</time>
      </trkpt>
      <trkpt lat="45.91923" lon="2.90897">
        <ele>868</ele>
        <time>2017-10-10T11:36:46Z</time>
      </trkpt>
      <trkpt lat="45.91922" lon="2.90902">
        <ele>868</ele>
        <time>2017-10-10T11:38:46Z</time>
      </trkpt>
      <trkpt lat="45.91922" lon="2.90907">
        <ele>868</ele>
        <time>2017-10-10T11:40:46Z</time>
      </trkpt>
      <trkpt lat="45.91923" lon="2.90912">
        <ele>869</ele>
        <time>2017-10-10T11:42:46Z</time>
      </trkpt>
      <trkpt lat="45.91923" lon="2.90929">
        <ele>869</ele>
        <time>2017-10-10T11:44:46Z</time>
      </trkpt>
      <trkpt lat="45.91923" lon="2.90938">
        <ele>870</ele>
        <time>2017-10-10T11:46:46Z</time>
      </trkpt>
      <trkpt lat="45.91924" lon="2.90941">
        <ele>870</ele>
        <time>2017-10-10T11:48:46Z</time>
      </trkpt>
      <trkpt lat="45.91924" lon="2.90944">
        <ele>870</ele>
        <time>2017-10-10T11:50:46Z</time>
      </trkpt>
      <trkpt lat="45.91924" lon="2.90948">
        <ele>870</ele>
        <time>2017-10-10T11:52:46Z</time>
      </trkpt>
      <trkpt lat="45.91924" lon="2.90951">
        <ele>871</ele>
        <time>2017-10-10T11:54:46Z</time>
      </trkpt>
      <trkpt lat="45.91926" lon="2.9096">
        <ele>871</ele>
        <time>2017-10-10T11:56:46Z</time>
      </trkpt>
      <trkpt lat="45.91927" lon="2.9097">
        <ele>872</ele>
        <time>2017-10-10T11:58:46Z</time>
      </trkpt>
      <trkpt lat="45.91928" lon="2.90976">
        <ele>872</ele>
        <time>2017-10-10T12:00:46Z</time>
      </trkpt>
      <trkpt lat="45.91928" lon="2.90979">
        <ele>873</ele>
        <time>2017-10-10T12:02:46Z</time>
      </trkpt>
      <trkpt lat="45.91929" lon="2.90991">
        <ele>873</ele>
        <time>2017-10-10T12:04:46Z</time>
      </trkpt>
      <trkpt lat="45.9193" lon="2.90994">
        <ele>874</ele>
        <time>2017-10-10T12:06:46Z</time>
      </trkpt>
      <trkpt lat="45.91931" lon="2.91005">
        <ele>874</ele>
        <time>2017-10-10T12:08:46Z</time>
      </trkpt>
      <trkpt lat="45.91933" lon="2.91017">
        <ele>875</ele>
        <time>2017-10-10T12:10:46Z</time>
      </trkpt>
      <trkpt lat="45.91934" lon="2.91026">
        <ele>876</ele>
        <time>2017-10-10T12:12:46Z</time>
      </trkpt>
      <trkpt lat="45.91935" lon="2.91031">
        <ele>876</ele>
        <time>2017-10-10T12:14:46Z</time>
      </trkpt>
      <trkpt lat="45.91935" lon="2.91036">
        <ele>877</ele>
        <time>2017-10-10T12:16:46Z</time>
      </trkpt>
      <trkpt lat="45.91935" lon="2.91045">
        <ele>877</ele>
        <time>2017-10-10T12:18:46Z</time>
      </trkpt>
      <trkpt lat="45.91935" lon="2.91051">
        <ele>877</ele>
        <time>2017-10-10T12:20:46Z</time>
      </trkpt>
      <trkpt lat="45.91934" lon="2.91063">
        <ele>878</ele>
        <time>2017-10-10T12:22:46Z</time>
      </trkpt>
      <trkpt lat="45.91933" lon="2.91065">
        <ele>878</ele>
        <time>2017-10-10T12:24:46Z</time>
      </trkpt>
      <trkpt lat="45.91931" lon="2.91073">
        <ele>878</ele>
        <time>2017-10-10T12:26:46Z</time>
      </trkpt>
      <trkpt lat="45.9193" lon="2.91079">
        <ele>878</ele>
        <time>2017-10-10T12:28:46Z</time>
      </trkpt>
      <trkpt lat="45.91928" lon="2.91092">
        <ele>879</ele>
        <time>2017-10-10T12:30:46Z</time>
      </trkpt>
      <trkpt lat="45.91928" lon="2.91098">
        <ele>879</ele>
        <time>2017-10-10T12:32:46Z</time>
      </trkpt>
      <trkpt lat="45.91927" lon="2.91115">
        <ele>880</ele>
        <time>2017-10-10T12:34:46Z</time>
      </trkpt>
      <trkpt lat="45.91928" lon="2.91121">
        <ele>880</ele>
        <time>2017-10-10T12:36:46Z</time>
      </trkpt>
      <trkpt lat="45.91926" lon="2.91133">
        <ele>881</ele>
        <time>2017-10-10T12:38:46Z</time>
      </trkpt>
      <trkpt lat="45.91927" lon="2.91135">
        <ele>881</ele>
        <time>2017-10-10T12:40:46Z</time>
      </trkpt>
      <trkpt lat="45.91926" lon="2.91144">
        <ele>881</ele>
        <time>2017-10-10T12:42:46Z</time>
      </trkpt>
      <trkpt lat="45.91925" lon="2.91155">
        <ele>882</ele>
        <time>2017-10-10T12:44:46Z</time>
      </trkpt>
      <trkpt lat="45.91923" lon="2.91161">
        <ele>882</ele>
        <time>2017-10-10T12:46:46Z</time>
      </trkpt>
      <trkpt lat="45.91919" lon="2.91171">
        <ele>882</ele>
        <time>2017-10-10T12:48:46Z</time>
      </trkpt>
      <trkpt lat="45.91917" lon="2.91176">
        <ele>882</ele>
        <time>2017-10-10T12:50:46Z</time>
      </trkpt>
      <trkpt lat="45.91915" lon="2.91178">
        <ele>882</ele>
        <time>2017-10-10T12:52:46Z</time>
      </trkpt>
      <trkpt lat="45.91913" lon="2.91183">
        <ele>882</ele>
        <time>2017-10-10T12:54:46Z</time>
      </trkpt>
      <trkpt lat="45.91912" lon="2.91186">
        <ele>882</ele>
        <time>2017-10-10T12:56:46Z</time>
      </trkpt>
      <trkpt lat="45.91907" lon="2.91192">
        <ele>882</ele>
        <time>2017-10-10T12:58:46Z</time>
      </trkpt>
      <trkpt lat="45.91904" lon="2.91198">
        <ele>882</ele>
        <time>2017-10-10T13:00:46Z</time>
      </trkpt>
      <trkpt lat="45.91903" lon="2.912">
        <ele>882</ele>
        <time>2017-10-10T13:02:46Z</time>
      </trkpt>
      <trkpt lat="45.91899" lon="2.91207">
        <ele>881</ele>
        <time>2017-10-10T13:04:46Z</time>
      </trkpt>
      <trkpt lat="45.91897" lon="2.91212">
        <ele>881</ele>
        <time>2017-10-10T13:06:46Z</time>
      </trkpt>
      <trkpt lat="45.91894" lon="2.91217">
        <ele>881</ele>
        <time>2017-10-10T13:08:46Z</time>
      </trkpt>
      <trkpt lat="45.91892" lon="2.9122">
        <ele>881</ele>
        <time>2017-10-10T13:10:46Z</time>
      </trkpt>
      <trkpt lat="45.91891" lon="2.91223">
        <ele>881</ele>
        <time>2017-10-10T13:12:46Z</time>
      </trkpt>
      <trkpt lat="45.91885" lon="2.91233">
        <ele>880</ele>
        <time>2017-10-10T13:14:46Z</time>
      </trkpt>
      <trkpt lat="45.91881" lon="2.91242">
        <ele>880</ele>
        <time>2017-10-10T13:16:46Z</time>
      </trkpt>
      <trkpt lat="45.91878" lon="2.9125">
        <ele>880</ele>
        <time>2017-10-10T13:18:46Z</time>
      </trkpt>
      <trkpt lat="45.91878" lon="2.91253">
        <ele>880</ele>
        <time>2017-10-10T13:20:46Z</time>
      </trkpt>
      <trkpt lat="45.91877" lon="2.9126">
        <ele>880</ele>
        <time>2017-10-10T13:22:46Z</time>
      </trkpt>
      <trkpt lat="45.91878" lon="2.91266">
        <ele>880</ele>
        <time>2017-10-10T13:24:46Z</time>
      </trkpt>
      <trkpt lat="45.91878" lon="2.91275">
        <ele>881</ele>
        <time>2017-10-10T13:26:46Z</time>
      </trkpt>
      <trkpt lat="45.91878" lon="2.91277">
        <ele>881</ele>
        <time>2017-10-10T13:28:46Z</time>
      </trkpt>
      <trkpt lat="45.91879" lon="2.91279">
        <ele>881</ele>
        <time>2017-10-10T13:30:46Z</time>
      </trkpt>
      <trkpt lat="45.9188" lon="2.91282">
        <ele>881</ele>
        <time>2017-10-10T13:32:46Z</time>
      </trkpt>
      <trkpt lat="45.91882" lon="2.91286">
        <ele>882</ele>
        <time>2017-10-10T13:34:46Z</time>
      </trkpt>
      <trkpt lat="45.91883" lon="2.91288">
        <ele>882</ele>
        <time>2017-10-10T13:36:46Z</time>
      </trkpt>
      <trkpt lat="45.91884" lon="2.9129">
        <ele>882</ele>
        <time>2017-10-10T13:38:46Z</time>
      </trkpt>
      <trkpt lat="45.91886" lon="2.91297">
        <ele>883</ele>
        <time>2017-10-10T13:40:46Z</time>
      </trkpt>
      <trkpt lat="45.91886" lon="2.913">
        <ele>883</ele>
        <time>2017-10-10T13:42:46Z</time>
      </trkpt>
      <trkpt lat="45.91888" lon="2.91304">
        <ele>883</ele>
        <time>2017-10-10T13:44:46Z</time>
      </trkpt>
      <trkpt lat="45.91888" lon="2.91307">
        <ele>883</ele>
        <time>2017-10-10T13:46:46Z</time>
      </trkpt>
      <trkpt lat="45.91889" lon="2.91312">
        <ele>884</ele>
        <time>2017-10-10T13:48:46Z</time>
      </trkpt>
      <trkpt lat="45.91891" lon="2.91318">
        <ele>884</ele>
        <time>2017-10-10T13:50:46Z</time>
      </trkpt>
      <trkpt lat="45.91891" lon="2.9132">
        <ele>884</ele>
        <time>2017-10-10T13:52:46Z</time>
      </trkpt>
      <trkpt lat="45.91892" lon="2.91323">
        <ele>884</ele>
        <time>2017-10-10T13:54:46Z</time>
      </trkpt>
      <trkpt lat="45.91893" lon="2.91327">
        <ele>885</ele>
        <time>2017-10-10T13:56:46Z</time>
      </trkpt>
      <trkpt lat="45.91894" lon="2.91331">
        <ele>885</ele>
        <time>2017-10-10T13:58:46Z</time>
      </trkpt>
      <trkpt lat="45.91896" lon="2.91335">
        <ele>886</ele>
        <time>2017-10-10T14:00:46Z</time>
      </trkpt>
      <trkpt lat="45.91896" lon="2.9134">
        <ele>886</ele>
        <time>2017-10-10T14:02:46Z</time>
      </trkpt>
      <trkpt lat="45.91897" lon="2.91344">
        <ele>886</ele>
        <time>2017-10-10T14:04:46Z</time>
      </trkpt>
      <trkpt lat="45.919" lon="2.91355">
        <ele>886</ele>
        <time>2017-10-10T14:06:46Z</time>
      </trkpt>
      <trkpt lat="45.919" lon="2.91357">
        <ele>886</ele>
        <time>2017-10-10T14:08:46Z</time>
      </trkpt>
      <trkpt lat="45.91901" lon="2.91359">
        <ele>886</ele>
        <time>2017-10-10T14:10:46Z</time>
      </trkpt>
      <trkpt lat="45.91903" lon="2.91366">
        <ele>887</ele>
        <time>2017-10-10T14:12:46Z</time>
      </trkpt>
      <trkpt lat="45.91904" lon="2.91374">
        <ele>887</ele>
        <time>2017-10-10T14:14:46Z</time>
      </trkpt>
      <trkpt lat="45.91906" lon="2.91379">
        <ele>887</ele>
        <time>2017-10-10T14:16:46Z</time>
      </trkpt>
      <trkpt lat="45.9191" lon="2.91391">
        <ele>888</ele>
        <time>2017-10-10T14:18:46Z</time>
      </trkpt>
      <trkpt lat="45.9191" lon="2.91396">
        <ele>887</ele>
        <time>2017-10-10T14:20:46Z</time>
      </trkpt>
      <trkpt lat="45.91911" lon="2.91401">
        <ele>888</ele>
        <time>2017-10-10T14:22:46Z</time>
      </trkpt>
      <trkpt lat="45.91911" lon="2.91406">
        <ele>887</ele>
        <time>2017-10-10T14:24:46Z</time>
      </trkpt>
      <trkpt lat="45.91912" lon="2.91409">
        <ele>888</ele>
        <time>2017-10-10T14:26:46Z</time>
      </trkpt>
      <trkpt lat="45.91912" lon="2.91412">
        <ele>887</ele>
        <time>2017-10-10T14:28:46Z</time>
      </trkpt>
      <trkpt lat="45.91912" lon="2.91415">
        <ele>887</ele>
        <time>2017-10-10T14:30:46Z</time>
      </trkpt>
      <trkpt lat="45.91913" lon="2.91427">
        <ele>888</ele>
        <time>2017-10-10T14:32:46Z</time>
      </trkpt>
      <trkpt lat="45.91913" lon="2.9143">
        <ele>888</ele>
        <time>2017-10-10T14:34:46Z</time>
      </trkpt>
      <trkpt lat="45.91914" lon="2.91435">
        <ele>888</ele>
        <time>2017-10-10T14:36:46Z</time>
      </trkpt>
      <trkpt lat="45.91913" lon="2.91449">
        <ele>888</ele>
        <time>2017-10-10T14:38:46Z</time>
      </trkpt>
      <trkpt lat="45.91912" lon="2.91458">
        <ele>887</ele>
        <time>2017-10-10T14:40:46Z</time>
      </trkpt>
      <trkpt lat="45.91911" lon="2.91461">
        <ele>887</ele>
        <time>2017-10-10T14:42:46Z</time>
      </trkpt>
      <trkpt lat="45.91909" lon="2.91473">
        <ele>887</ele>
        <time>2017-10-10T14:44:46Z</time>
      </trkpt>
      <trkpt lat="45.91909" lon="2.91479">
        <ele>887</ele>
        <time>2017-10-10T14:46:46Z</time>
      </trkpt>
      <trkpt lat="45.91908" lon="2.91485">
        <ele>887</ele>
        <time>2017-10-10T14:48:46Z</time>
      </trkpt>
      <trkpt lat="45.91907" lon="2.9149">
        <ele>887</ele>
        <time>2017-10-10T14:50:46Z</time>
      </trkpt>
      <trkpt lat="45.91907" lon="2.91499">
        <ele>887</ele>
        <time>2017-10-10T14:52:46Z</time>
      </trkpt>
      <trkpt lat="45.91907" lon="2.91505">
        <ele>887</ele>
        <time>2017-10-10T14:54:46Z</time>
      </trkpt>
      <trkpt lat="45.91907" lon="2.91508">
        <ele>888</ele>
        <time>2017-10-10T14:56:46Z</time>
      </trkpt>
      <trkpt lat="45.91905" lon="2.91522">
        <ele>888</ele>
        <time>2017-10-10T14:58:46Z</time>
      </trkpt>
      <trkpt lat="45.91904" lon="2.91528">
        <ele>889</ele>
        <time>2017-10-10T15:00:46Z</time>
      </trkpt>
      <trkpt lat="45.91904" lon="2.91531">
        <ele>889</ele>
        <time>2017-10-10T15:02:46Z</time>
      </trkpt>
      <trkpt lat="45.91904" lon="2.91534">
        <ele>889</ele>
        <time>2017-10-10T15:04:46Z</time>
      </trkpt>
      <trkpt lat="45.91903" lon="2.91544">
        <ele>890</ele>
        <time>2017-10-10T15:06:46Z</time>
      </trkpt>
      <trkpt lat="45.91902" lon="2.91551">
        <ele>890</ele>
        <time>2017-10-10T15:08:46Z</time>
      </trkpt>
      <trkpt lat="45.91902" lon="2.91554">
        <ele>890</ele>
        <time>2017-10-10T15:10:46Z</time>
      </trkpt>
      <trkpt lat="45.91901" lon="2.9156">
        <ele>890</ele>
        <time>2017-10-10T15:12:46Z</time>
      </trkpt>
      <trkpt lat="45.919" lon="2.91569">
        <ele>891</ele>
        <time>2017-10-10T15:14:46Z</time>
      </trkpt>
      <trkpt lat="45.919" lon="2.91572">
        <ele>891</ele>
        <time>2017-10-10T15:16:46Z</time>
      </trkpt>
      <trkpt lat="45.91899" lon="2.91581">
        <ele>892</ele>
        <time>2017-10-10T15:18:46Z</time>
      </trkpt>
      <trkpt lat="45.91897" lon="2.91601">
        <ele>893</ele>
        <time>2017-10-10T15:20:46Z</time>
      </trkpt>
      <trkpt lat="45.91895" lon="2.91609">
        <ele>893</ele>
        <time>2017-10-10T15:22:46Z</time>
      </trkpt>
      <trkpt lat="45.91894" lon="2.91617">
        <ele>893</ele>
        <time>2017-10-10T15:24:46Z</time>
      </trkpt>
      <trkpt lat="45.91894" lon="2.91623">
        <ele>893</ele>
        <time>2017-10-10T15:26:46Z</time>
      </trkpt>
      <trkpt lat="45.91893" lon="2.91628">
        <ele>894</ele>
        <time>2017-10-10T15:28:46Z</time>
      </trkpt>
      <trkpt lat="45.91889" lon="2.91643">
        <ele>894</ele>
        <time>2017-10-10T15:30:46Z</time>
      </trkpt>
      <trkpt lat="45.91886" lon="2.91649">
        <ele>894</ele>
        <time>2017-10-10T15:32:46Z</time>
      </trkpt>
      <trkpt lat="45.91884" lon="2.91654">
        <ele>894</ele>
        <time>2017-10-10T15:34:46Z</time>
      </trkpt>
      <trkpt lat="45.91884" lon="2.91657">
        <ele>894</ele>
        <time>2017-10-10T15:36:46Z</time>
      </trkpt>
      <trkpt lat="45.91882" lon="2.91661">
        <ele>894</ele>
        <time>2017-10-10T15:38:46Z</time>
      </trkpt>
      <trkpt lat="45.9188" lon="2.91666">
        <ele>894</ele>
        <time>2017-10-10T15:40:46Z</time>
      </trkpt>
      <trkpt lat="45.91878" lon="2.91673">
        <ele>894</ele>
        <time>2017-10-10T15:42:46Z</time>
      </trkpt>
      <trkpt lat="45.91876" lon="2.91675">
        <ele>894</ele>
        <time>2017-10-10T15:44:46Z</time>
      </trkpt>
      <trkpt lat="45.91873" lon="2.91682">
        <ele>894</ele>
        <time>2017-10-10T15:46:46Z</time>
      </trkpt>
      <trkpt lat="45.91866" lon="2.91699">
        <ele>895</ele>
        <time>2017-10-10T15:48:46Z</time>
      </trkpt>
      <trkpt lat="45.91863" lon="2.91709">
        <ele>895</ele>
        <time>2017-10-10T15:50:46Z</time>
      </trkpt>
      <trkpt lat="45.91855" lon="2.91729">
        <ele>896</ele>
        <time>2017-10-10T15:52:46Z</time>
      </trkpt>
      <trkpt lat="45.91854" lon="2.91732">
        <ele>896</ele>
        <time>2017-10-10T15:54:46Z</time>
      </trkpt>
      <trkpt lat="45.91851" lon="2.91738">
        <ele>896</ele>
        <time>2017-10-10T15:56:46Z</time>
      </trkpt>
      <trkpt lat="45.91849" lon="2.91743">
        <ele>896</ele>
        <time>2017-10-10T15:58:46Z</time>
      </trkpt>
      <trkpt lat="45.91846" lon="2.9175">
        <ele>896</ele>
        <time>2017-10-10T16:00:46Z</time>
      </trkpt>
      <trkpt lat="45.91841" lon="2.91762">
        <ele>896</ele>
        <time>2017-10-10T16:02:46Z</time>
      </trkpt>
      <trkpt lat="45.9184" lon="2.91765">
        <ele>896</ele>
        <time>2017-10-10T16:04:46Z</time>
      </trkpt>
      <trkpt lat="45.91838" lon="2.91767">
        <ele>896</ele>
        <time>2017-10-10T16:06:46Z</time>
      </trkpt>
      <trkpt lat="45.91835" lon="2.91779">
        <ele>897</ele>
        <time>2017-10-10T16:08:46Z</time>
      </trkpt>
      <trkpt lat="45.91834" lon="2.91781">
        <ele>897</ele>
        <time>2017-10-10T16:10:46Z</time>
      </trkpt>
      <trkpt lat="45.91832" lon="2.91791">
        <ele>897</ele>
        <time>2017-10-10T16:12:46Z</time>
      </trkpt>
      <trkpt lat="45.91832" lon="2.91794">
        <ele>898</ele>
        <time>2017-10-10T16:14:46Z</time>
      </trkpt>
      <trkpt lat="45.91831" lon="2.91797">
        <ele>898</ele>
        <time>2017-10-10T16:16:46Z</time>
      </trkpt>
      <trkpt lat="45.9183" lon="2.91804">
        <ele>898</ele>
        <time>2017-10-10T16:18:46Z</time>
      </trkpt>
      <trkpt lat="45.91829" lon="2.91809">
        <ele>899</ele>
        <time>2017-10-10T16:20:46Z</time>
      </trkpt>
      <trkpt lat="45.91829" lon="2.91812">
        <ele>899</ele>
        <time>2017-10-10T16:22:46Z</time>
      </trkpt>
      <trkpt lat="45.91828" lon="2.91813">
        <ele>899</ele>
        <time>2017-10-10T16:24:46Z</time>
      </trkpt>
      <trkpt lat="45.91827" lon="2.91817">
        <ele>899</ele>
        <time>2017-10-10T16:26:46Z</time>
      </trkpt>
      <trkpt lat="45.91826" lon="2.91821">
        <ele>899</ele>
        <time>2017-10-10T16:28:46Z</time>
      </trkpt>
      <trkpt lat="45.91824" lon="2.91833">
        <ele>900</ele>
        <time>2017-10-10T16:30:46Z</time>
      </trkpt>
      <trkpt lat="45.91823" lon="2.91837">
        <ele>900</ele>
        <time>2017-10-10T16:32:46Z</time>
      </trkpt>
      <trkpt lat="45.91821" lon="2.91849">
        <ele>901</ele>
        <time>2017-10-10T16:34:46Z</time>
      </trkpt>
      <trkpt lat="45.91818" lon="2.91858">
        <ele>901</ele>
        <time>2017-10-10T16:36:46Z</time>
      </trkpt>
      <trkpt lat="45.91816" lon="2.91867">
        <ele>902</ele>
        <time>2017-10-10T16:38:46Z</time>
      </trkpt>
      <trkpt lat="45.91816" lon="2.91871">
        <ele>902</ele>
        <time>2017-10-10T16:40:46Z</time>
      </trkpt>
      <trkpt lat="45.91816" lon="2.9188">
        <ele>903</ele>
        <time>2017-10-10T16:42:46Z</time>
      </trkpt>
      <trkpt lat="45.91816" lon="2.91886">
        <ele>903</ele>
        <time>2017-10-10T16:44:46Z</time>
      </trkpt>
      <trkpt lat="45.91817" lon="2.9189">
        <ele>904</ele>
        <time>2017-10-10T16:46:46Z</time>
      </trkpt>
      <trkpt lat="45.91818" lon="2.91893">
        <ele>904</ele>
        <time>2017-10-10T16:48:46Z</time>
      </trkpt>
      <trkpt lat="45.91819" lon="2.91896">
        <ele>904</ele>
        <time>2017-10-10T16:50:46Z</time>
      </trkpt>
      <trkpt lat="45.9182" lon="2.91899">
        <ele>904</ele>
        <time>2017-10-10T16:52:46Z</time>
      </trkpt>
      <trkpt lat="45.91821" lon="2.91904">
        <ele>905</ele>
        <time>2017-10-10T16:54:46Z</time>
      </trkpt>
      <trkpt lat="45.91821" lon="2.91906">
        <ele>905</ele>
        <time>2017-10-10T16:56:46Z</time>
      </trkpt>
      <trkpt lat="45.91823" lon="2.91909">
        <ele>905</ele>
        <time>2017-10-10T16:58:46Z</time>
      </trkpt>
      <trkpt lat="45.91827" lon="2.91922">
        <ele>907</ele>
        <time>2017-10-10T17:00:46Z</time>
      </trkpt>
      <trkpt lat="45.91828" lon="2.91927">
        <ele>908</ele>
        <time>2017-10-10T17:02:46Z</time>
      </trkpt>
      <trkpt lat="45.91828" lon="2.91928">
        <ele>908</ele>
        <time>2017-10-10T17:04:46Z</time>
      </trkpt>
      <trkpt lat="45.91829" lon="2.91929">
        <ele>908</ele>
        <time>2017-10-10T17:06:46Z</time>
      </trkpt>
      <trkpt lat="45.9183" lon="2.91933">
        <ele>908</ele>
        <time>2017-10-10T17:08:46Z</time>
      </trkpt>
      <trkpt lat="45.91831" lon="2.91934">
        <ele>909</ele>
        <time>2017-10-10T17:10:46Z</time>
      </trkpt>
      <trkpt lat="45.91832" lon="2.91937">
        <ele>909</ele>
        <time>2017-10-10T17:12:46Z</time>
      </trkpt>
      <trkpt lat="45.91834" lon="2.91944">
        <ele>910</ele>
        <time>2017-10-10T17:14:46Z</time>
      </trkpt>
      <trkpt lat="45.91836" lon="2.91949">
        <ele>911</ele>
        <time>2017-10-10T17:16:46Z</time>
      </trkpt>
      <trkpt lat="45.91837" lon="2.91959">
        <ele>912</ele>
        <time>2017-10-10T17:18:46Z</time>
      </trkpt>
      <trkpt lat="45.91837" lon="2.91962">
        <ele>913</ele>
        <time>2017-10-10T17:20:46Z</time>
      </trkpt>
      <trkpt lat="45.91838" lon="2.91966">
        <ele>913</ele>
        <time>2017-10-10T17:22:46Z</time>
      </trkpt>
      <trkpt lat="45.91838" lon="2.91967">
        <ele>913</ele>
        <time>2017-10-10T17:24:46Z</time>
      </trkpt>
      <trkpt lat="45.91838" lon="2.91972">
        <ele>914</ele>
        <time>2017-10-10T17:26:46Z</time>
      </trkpt>
      <trkpt lat="45.91837" lon="2.91973">
        <ele>914</ele>
        <time>2017-10-10T17:28:46Z</time>
      </trkpt>
      <trkpt lat="45.91837" lon="2.91976">
        <ele>914</ele>
        <time>2017-10-10T17:30:46Z</time>
      </trkpt>
      <trkpt lat="45.91837" lon="2.91978">
        <ele>914</ele>
        <time>2017-10-10T17:32:46Z</time>
      </trkpt>
      <trkpt lat="45.91837" lon="2.91979">
        <ele>914</ele>
        <time>2017-10-10T17:34:46Z</time>
      </trkpt>
      <trkpt lat="45.91837" lon="2.91984">
        <ele>915</ele>
        <time>2017-10-10T17:36:46Z</time>
      </trkpt>
      <trkpt lat="45.91836" lon="2.91989">
        <ele>915</ele>
        <time>2017-10-10T17:38:46Z</time>
      </trkpt>
      <trkpt lat="45.91836" lon="2.92002">
        <ele>917</ele>
        <time>2017-10-10T17:40:46Z</time>
      </trkpt>
      <trkpt lat="45.91836" lon="2.92003">
        <ele>917</ele>
        <time>2017-10-10T17:42:46Z</time>
      </trkpt>
      <trkpt lat="45.91837" lon="2.92011">
        <ele>918</ele>
        <time>2017-10-10T17:44:46Z</time>
      </trkpt>
      <trkpt lat="45.91837" lon="2.92013">
        <ele>918</ele>
        <time>2017-10-10T17:46:46Z</time>
      </trkpt>
      <trkpt lat="45.91838" lon="2.92016">
        <ele>918</ele>
        <time>2017-10-10T17:48:46Z</time>
      </trkpt>
      <trkpt lat="45.91839" lon="2.9202">
        <ele>919</ele>
        <time>2017-10-10T17:50:46Z</time>
      </trkpt>
      <trkpt lat="45.9184" lon="2.92022">
        <ele>919</ele>
        <time>2017-10-10T17:52:46Z</time>
      </trkpt>
      <trkpt lat="45.9184" lon="2.92026">
        <ele>919</ele>
        <time>2017-10-10T17:54:46Z</time>
      </trkpt>
      <trkpt lat="45.91842" lon="2.92034">
        <ele>920</ele>
        <time>2017-10-10T17:56:46Z</time>
      </trkpt>
      <trkpt lat="45.91842" lon="2.92038">
        <ele>921</ele>
        <time>2017-10-10T17:58:46Z</time>
      </trkpt>
      <trkpt lat="45.91845" lon="2.92047">
        <ele>922</ele>
        <time>2017-10-10T18:00:46Z</time>
      </trkpt>
      <trkpt lat="45.91846" lon="2.92051">
        <ele>922</ele>
        <time>2017-10-10T18:02:46Z</time>
      </trkpt>
      <trkpt lat="45.91846" lon="2.92053">
        <ele>922</ele>
        <time>2017-10-10T18:04:46Z</time>
      </trkpt>
      <trkpt lat="45.91847" lon="2.92056">
        <ele>923</ele>
        <time>2017-10-10T18:06:46Z</time>
      </trkpt>
      <trkpt lat="45.91846" lon="2.92064">
        <ele>923</ele>
        <time>2017-10-10T18:08:46Z</time>
      </trkpt>
      <trkpt lat="45.91846" lon="2.92065">
        <ele>923</ele>
        <time>2017-10-10T18:10:46Z</time>
      </trkpt>
      <trkpt lat="45.91846" lon="2.92074">
        <ele>924</ele>
        <time>2017-10-10T18:12:46Z</time>
      </trkpt>
      <trkpt lat="45.91845" lon="2.92077">
        <ele>924</ele>
        <time>2017-10-10T18:14:46Z</time>
      </trkpt>
      <trkpt lat="45.91844" lon="2.92083">
        <ele>924</ele>
        <time>2017-10-10T18:16:46Z</time>
      </trkpt>
      <trkpt lat="45.91843" lon="2.92089">
        <ele>925</ele>
        <time>2017-10-10T18:18:46Z</time>
      </trkpt>
      <trkpt lat="45.91843" lon="2.92091">
        <ele>925</ele>
        <time>2017-10-10T18:20:46Z</time>
      </trkpt>
      <trkpt lat="45.91842" lon="2.92093">
        <ele>925</ele>
        <time>2017-10-10T18:22:46Z</time>
      </trkpt>
      <trkpt lat="45.91841" lon="2.92097">
        <ele>925</ele>
        <time>2017-10-10T18:24:46Z</time>
      </trkpt>
      <trkpt lat="45.91841" lon="2.921">
        <ele>926</ele>
        <time>2017-10-10T18:26:46Z</time>
      </trkpt>
      <trkpt lat="45.9184" lon="2.92105">
        <ele>926</ele>
        <time>2017-10-10T18:28:46Z</time>
      </trkpt>
      <trkpt lat="45.91839" lon="2.92108">
        <ele>926</ele>
        <time>2017-10-10T18:30:46Z</time>
      </trkpt>
      <trkpt lat="45.91838" lon="2.92111">
        <ele>926</ele>
        <time>2017-10-10T18:32:46Z</time>
      </trkpt>
      <trkpt lat="45.91837" lon="2.92113">
        <ele>927</ele>
        <time>2017-10-10T18:34:46Z</time>
      </trkpt>
      <trkpt lat="45.91835" lon="2.92115">
        <ele>927</ele>
        <time>2017-10-10T18:36:46Z</time>
      </trkpt>
      <trkpt lat="45.91834" lon="2.9212">
        <ele>927</ele>
        <time>2017-10-10T18:38:46Z</time>
      </trkpt>
      <trkpt lat="45.91833" lon="2.92121">
        <ele>927</ele>
        <time>2017-10-10T18:40:46Z</time>
      </trkpt>
      <trkpt lat="45.91832" lon="2.92126">
        <ele>927</ele>
        <time>2017-10-10T18:42:46Z</time>
      </trkpt>
      <trkpt lat="45.91828" lon="2.92136">
        <ele>928</ele>
        <time>2017-10-10T18:44:46Z</time>
      </trkpt>
      <trkpt lat="45.91828" lon="2.9214">
        <ele>929</ele>
        <time>2017-10-10T18:46:46Z</time>
      </trkpt>
      <trkpt lat="45.91828" lon="2.92147">
        <ele>929</ele>
        <time>2017-10-10T18:48:46Z</time>
      </trkpt>
      <trkpt lat="45.91827" lon="2.92151">
        <ele>930</ele>
        <time>2017-10-10T18:50:46Z</time>
      </trkpt>
      <trkpt lat="45.91827" lon="2.92157">
        <ele>930</ele>
        <time>2017-10-10T18:52:46Z</time>
      </trkpt>
      <trkpt lat="45.91827" lon="2.92158">
        <ele>930</ele>
        <time>2017-10-10T18:54:46Z</time>
      </trkpt>
      <trkpt lat="45.91827" lon="2.92158">
        <ele>930</ele>
        <time>2017-10-10T18:56:46Z</time>
      </trkpt>
      <trkpt lat="45.91828" lon="2.92164">
        <ele>931</ele>
        <time>2017-10-10T18:58:46Z</time>
      </trkpt>
      <trkpt lat="45.91829" lon="2.92167">
        <ele>932</ele>
        <time>2017-10-10T19:00:46Z</time>
      </trkpt>
      <trkpt lat="45.91829" lon="2.92169">
        <ele>932</ele>
        <time>2017-10-10T19:02:46Z</time>
      </trkpt>
      <trkpt lat="45.91831" lon="2.92178">
        <ele>933</ele>
        <time>2017-10-10T19:04:46Z</time>
      </trkpt>
      <trkpt lat="45.91834" lon="2.92186">
        <ele>933</ele>
        <time>2017-10-10T19:06:46Z</time>
      </trkpt>
      <trkpt lat="45.91835" lon="2.92188">
        <ele>934</ele>
        <time>2017-10-10T19:08:46Z</time>
      </trkpt>
      <trkpt lat="45.91836" lon="2.9219">
        <ele>934</ele>
        <time>2017-10-10T19:10:46Z</time>
      </trkpt>
      <trkpt lat="45.9184" lon="2.92201">
        <ele>935</ele>
        <time>2017-10-10T19:12:46Z</time>
      </trkpt>
      <trkpt lat="45.91843" lon="2.92208">
        <ele>935</ele>
        <time>2017-10-10T19:14:46Z</time>
      </trkpt>
      <trkpt lat="45.91846" lon="2.92213">
        <ele>936</ele>
        <time>2017-10-10T19:16:46Z</time>
      </trkpt>
      <trkpt lat="45.91847" lon="2.92215">
        <ele>936</ele>
        <time>2017-10-10T19:18:46Z</time>
      </trkpt>
      <trkpt lat="45.9185" lon="2.9222">
        <ele>936</ele>
        <time>2017-10-10T19:20:46Z</time>
      </trkpt>
      <trkpt lat="45.91852" lon="2.92226">
        <ele>937</ele>
        <time>2017-10-10T19:22:46Z</time>
      </trkpt>
      <trkpt lat="45.91858" lon="2.92237">
        <ele>938</ele>
        <time>2017-10-10T19:24:46Z</time>
      </trkpt>
      <trkpt lat="45.9186" lon="2.9224">
        <ele>938</ele>
        <time>2017-10-10T19:26:46Z</time>
      </trkpt>
      <trkpt lat="45.91862" lon="2.92246">
        <ele>938</ele>
        <time>2017-10-10T19:28:46Z</time>
      </trkpt>
      <trkpt lat="45.91864" lon="2.92249">
        <ele>939</ele>
        <time>2017-10-10T19:30:46Z</time>
      </trkpt>
      <trkpt lat="45.91866" lon="2.92253">
        <ele>939</ele>
        <time>2017-10-10T19:32:46Z</time>
      </trkpt>
      <trkpt lat="45.9187" lon="2.92258">
        <ele>939</ele>
        <time>2017-10-10T19:34:46Z</time>
      </trkpt>
      <trkpt lat="45.91873" lon="2.9226">
        <ele>939</ele>
        <time>2017-10-10T19:36:46Z</time>
      </trkpt>
      <trkpt lat="45.91876" lon="2.92266">
        <ele>940</ele>
        <time>2017-10-10T19:38:46Z</time>
      </trkpt>
      <trkpt lat="45.91882" lon="2.92272">
        <ele>940</ele>
        <time>2017-10-10T19:40:46Z</time>
      </trkpt>
      <trkpt lat="45.91888" lon="2.92279">
        <ele>940</ele>
        <time>2017-10-10T19:42:46Z</time>
      </trkpt>
      <trkpt lat="45.91895" lon="2.92285">
        <ele>941</ele>
        <time>2017-10-10T19:44:46Z</time>
      </trkpt>
      <trkpt lat="45.91899" lon="2.92288">
        <ele>941</ele>
        <time>2017-10-10T19:46:46Z</time>
      </trkpt>
      <trkpt lat="45.91901" lon="2.9229">
        <ele>941</ele>
        <time>2017-10-10T19:48:46Z</time>
      </trkpt>
      <trkpt lat="45.91905" lon="2.92294">
        <ele>941</ele>
        <time>2017-10-10T19:50:46Z</time>
      </trkpt>
      <trkpt lat="45.9191" lon="2.92301">
        <ele>941</ele>
        <time>2017-10-10T19:52:46Z</time>
      </trkpt>
      <trkpt lat="45.91916" lon="2.92308">
        <ele>941</ele>
        <time>2017-10-10T19:54:46Z</time>
      </trkpt>
      <trkpt lat="45.91919" lon="2.92312">
        <ele>942</ele>
        <time>2017-10-10T19:56:46Z</time>
      </trkpt>
      <trkpt lat="45.91926" lon="2.9232">
        <ele>942</ele>
        <time>2017-10-10T19:58:46Z</time>
      </trkpt>
      <trkpt lat="45.91929" lon="2.92323">
        <ele>942</ele>
        <time>2017-10-10T20:00:46Z</time>
      </trkpt>
      <trkpt lat="45.91934" lon="2.92328">
        <ele>943</ele>
        <time>2017-10-10T20:02:46Z</time>
      </trkpt>
      <trkpt lat="45.91937" lon="2.92331">
        <ele>943</ele>
        <time>2017-10-10T20:04:46Z</time>
      </trkpt>
      <trkpt lat="45.91939" lon="2.92334">
        <ele>943</ele>
        <time>2017-10-10T20:06:46Z</time>
      </trkpt>
      <trkpt lat="45.9194" lon="2.92337">
        <ele>944</ele>
        <time>2017-10-10T20:08:46Z</time>
      </trkpt>
      <trkpt lat="45.91938" lon="2.92341">
        <ele>944</ele>
        <time>2017-10-10T20:10:46Z</time>
      </trkpt>
      <trkpt lat="45.91937" lon="2.92342">
        <ele>944</ele>
        <time>2017-10-10T20:12:46Z</time>
      </trkpt>
      <trkpt lat="45.91936" lon="2.92346">
        <ele>944</ele>
        <time>2017-10-10T20:14:46Z</time>
      </trkpt>
      <trkpt lat="45.91934" lon="2.92351">
        <ele>944</ele>
        <time>2017-10-10T20:16:46Z</time>
      </trkpt>
      <trkpt lat="45.91933" lon="2.92355">
        <ele>945</ele>
        <time>2017-10-10T20:18:46Z</time>
      </trkpt>
      <trkpt lat="45.91931" lon="2.92359">
        <ele>945</ele>
        <time>2017-10-10T20:20:46Z</time>
      </trkpt>
      <trkpt lat="45.9193" lon="2.92367">
        <ele>945</ele>
        <time>2017-10-10T20:22:46Z</time>
      </trkpt>
      <trkpt lat="45.91928" lon="2.9237">
        <ele>945</ele>
        <time>2017-10-10T20:24:46Z</time>
      </trkpt>
      <trkpt lat="45.91927" lon="2.92377">
        <ele>946</ele>
        <time>2017-10-10T20:26:46Z</time>
      </trkpt>
      <trkpt lat="45.91927" lon="2.92378">
        <ele>946</ele>
        <time>2017-10-10T20:28:46Z</time>
      </trkpt>
      <trkpt lat="45.91925" lon="2.92384">
        <ele>946</ele>
        <time>2017-10-10T20:30:46Z</time>
      </trkpt>
      <trkpt lat="45.91923" lon="2.92389">
        <ele>946</ele>
        <time>2017-10-10T20:32:46Z</time>
      </trkpt>
      <trkpt lat="45.91921" lon="2.92397">
        <ele>947</ele>
        <time>2017-10-10T20:34:46Z</time>
      </trkpt>
      <trkpt lat="45.91915" lon="2.92418">
        <ele>948</ele>
        <time>2017-10-10T20:36:46Z</time>
      </trkpt>
      <trkpt lat="45.91913" lon="2.92423">
        <ele>948</ele>
        <time>2017-10-10T20:38:46Z</time>
      </trkpt>
      <trkpt lat="45.91911" lon="2.92431">
        <ele>948</ele>
        <time>2017-10-10T20:40:46Z</time>
      </trkpt>
      <trkpt lat="45.9191" lon="2.92434">
        <ele>948</ele>
        <time>2017-10-10T20:42:46Z</time>
      </trkpt>
      <trkpt lat="45.91906" lon="2.92444">
        <ele>948</ele>
        <time>2017-10-10T20:44:46Z</time>
      </trkpt>
      <trkpt lat="45.91906" lon="2.92448">
        <ele>948</ele>
        <time>2017-10-10T20:46:46Z</time>
      </trkpt>
      <trkpt lat="45.91903" lon="2.92454">
        <ele>948</ele>
        <time>2017-10-10T20:48:46Z</time>
      </trkpt>
      <trkpt lat="45.91896" lon="2.92482">
        <ele>949</ele>
        <time>2017-10-10T20:50:46Z</time>
      </trkpt>
      <trkpt lat="45.91892" lon="2.92495">
        <ele>949</ele>
        <time>2017-10-10T20:52:46Z</time>
      </trkpt>
      <trkpt lat="45.91889" lon="2.92501">
        <ele>949</ele>
        <time>2017-10-10T20:54:46Z</time>
      </trkpt>
      <trkpt lat="45.91885" lon="2.9251">
        <ele>949</ele>
        <time>2017-10-10T20:56:46Z</time>
      </trkpt>
      <trkpt lat="45.91881" lon="2.92519">
        <ele>949</ele>
        <time>2017-10-10T20:58:46Z</time>
      </trkpt>
      <trkpt lat="45.91879" lon="2.92522">
        <ele>949</ele>
        <time>2017-10-10T21:00:46Z</time>
      </trkpt>
      <trkpt lat="45.91873" lon="2.9253">
        <ele>949</ele>
        <time>2017-10-10T21:02:46Z</time>
      </trkpt>
      <trkpt lat="45.91867" lon="2.92537">
        <ele>949</ele>
        <time>2017-10-10T21:04:46Z</time>
      </trkpt>
      <trkpt lat="45.91865" lon="2.92539">
        <ele>949</ele>
        <time>2017-10-10T21:06:46Z</time>
      </trkpt>
      <trkpt lat="45.91859" lon="2.92546">
        <ele>949</ele>
        <time>2017-10-10T21:08:46Z</time>
      </trkpt>
      <trkpt lat="45.91857" lon="2.92548">
        <ele>949</ele>
        <time>2017-10-10T21:10:46Z</time>
      </trkpt>
      <trkpt lat="45.9185" lon="2.92556">
        <ele>949</ele>
        <time>2017-10-10T21:12:46Z</time>
      </trkpt>
      <trkpt lat="45.91848" lon="2.92559">
        <ele>950</ele>
        <time>2017-10-10T21:14:46Z</time>
      </trkpt>
      <trkpt lat="45.91843" lon="2.92565">
        <ele>950</ele>
        <time>2017-10-10T21:16:46Z</time>
      </trkpt>
      <trkpt lat="45.91842" lon="2.92567">
        <ele>950</ele>
        <time>2017-10-10T21:18:46Z</time>
      </trkpt>
      <trkpt lat="45.91836" lon="2.92573">
        <ele>950</ele>
        <time>2017-10-10T21:20:46Z</time>
      </trkpt>
      <trkpt lat="45.91829" lon="2.92582">
        <ele>950</ele>
        <time>2017-10-10T21:22:46Z</time>
      </trkpt>
      <trkpt lat="45.9182" lon="2.92592">
        <ele>951</ele>
        <time>2017-10-10T21:24:46Z</time>
      </trkpt>
      <trkpt lat="45.91818" lon="2.92595">
        <ele>951</ele>
        <time>2017-10-10T21:26:46Z</time>
      </trkpt>
      <trkpt lat="45.91813" lon="2.92601">
        <ele>952</ele>
        <time>2017-10-10T21:28:46Z</time>
      </trkpt>
      <trkpt lat="45.91811" lon="2.92603">
        <ele>952</ele>
        <time>2017-10-10T21:30:46Z</time>
      </trkpt>
      <trkpt lat="45.91802" lon="2.92613">
        <ele>953</ele>
        <time>2017-10-10T21:32:46Z</time>
      </trkpt>
      <trkpt lat="45.91796" lon="2.92621">
        <ele>953</ele>
        <time>2017-10-10T21:34:46Z</time>
      </trkpt>
      <trkpt lat="45.91787" lon="2.9263">
        <ele>954</ele>
        <time>2017-10-10T21:36:46Z</time>
      </trkpt>
      <trkpt lat="45.91785" lon="2.92634">
        <ele>954</ele>
        <time>2017-10-10T21:38:46Z</time>
      </trkpt>
      <trkpt lat="45.91783" lon="2.92635">
        <ele>954</ele>
        <time>2017-10-10T21:40:46Z</time>
      </trkpt>
      <trkpt lat="45.9178" lon="2.9264">
        <ele>955</ele>
        <time>2017-10-10T21:42:46Z</time>
      </trkpt>
      <trkpt lat="45.91774" lon="2.92646">
        <ele>955</ele>
        <time>2017-10-10T21:44:46Z</time>
      </trkpt>
      <trkpt lat="45.91768" lon="2.92654">
        <ele>956</ele>
        <time>2017-10-10T21:46:46Z</time>
      </trkpt>
      <trkpt lat="45.91765" lon="2.92657">
        <ele>956</ele>
        <time>2017-10-10T21:48:46Z</time>
      </trkpt>
      <trkpt lat="45.91757" lon="2.92668">
        <ele>957</ele>
        <time>2017-10-10T21:50:46Z</time>
      </trkpt>
      <trkpt lat="45.91754" lon="2.92672">
        <ele>957</ele>
        <time>2017-10-10T21:52:46Z</time>
      </trkpt>
      <trkpt lat="45.9175" lon="2.92679">
        <ele>958</ele>
        <time>2017-10-10T21:54:46Z</time>
      </trkpt>
      <trkpt lat="45.91747" lon="2.92684">
        <ele>958</ele>
        <time>2017-10-10T21:56:46Z</time>
      </trkpt>
      <trkpt lat="45.91746" lon="2.92687">
        <ele>959</ele>
        <time>2017-10-10T21:58:46Z</time>
      </trkpt>
      <trkpt lat="45.91744" lon="2.92692">
        <ele>959</ele>
        <time>2017-10-10T22:00:46Z</time>
      </trkpt>
      <trkpt lat="45.91743" lon="2.92694">
        <ele>959</ele>
        <time>2017-10-10T22:02:46Z</time>
      </trkpt>
      <trkpt lat="45.91738" lon="2.92707">
        <ele>961</ele>
        <time>2017-10-10T22:04:46Z</time>
      </trkpt>
      <trkpt lat="45.91733" lon="2.9272">
        <ele>962</ele>
        <time>2017-10-10T22:06:46Z</time>
      </trkpt>
      <trkpt lat="45.91732" lon="2.92723">
        <ele>962</ele>
        <time>2017-10-10T22:08:46Z</time>
      </trkpt>
      <trkpt lat="45.91731" lon="2.92727">
        <ele>962</ele>
        <time>2017-10-10T22:10:46Z</time>
      </trkpt>
      <trkpt lat="45.91729" lon="2.92734">
        <ele>963</ele>
        <time>2017-10-10T22:12:46Z</time>
      </trkpt>
      <trkpt lat="45.91725" lon="2.9275">
        <ele>964</ele>
        <time>2017-10-10T22:14:46Z</time>
      </trkpt>
      <trkpt lat="45.91724" lon="2.92754">
        <ele>965</ele>
        <time>2017-10-10T22:16:46Z</time>
      </trkpt>
      <trkpt lat="45.91719" lon="2.92777">
        <ele>966</ele>
        <time>2017-10-10T22:18:46Z</time>
      </trkpt>
      <trkpt lat="45.91718" lon="2.9278">
        <ele>966</ele>
        <time>2017-10-10T22:20:46Z</time>
      </trkpt>
      <trkpt lat="45.91717" lon="2.92786">
        <ele>966</ele>
        <time>2017-10-10T22:22:46Z</time>
      </trkpt>
      <trkpt lat="45.91715" lon="2.92791">
        <ele>967</ele>
        <time>2017-10-10T22:24:46Z</time>
      </trkpt>
      <trkpt lat="45.91713" lon="2.92797">
        <ele>967</ele>
        <time>2017-10-10T22:26:46Z</time>
      </trkpt>
      <trkpt lat="45.9171" lon="2.92806">
        <ele>967</ele>
        <time>2017-10-10T22:28:46Z</time>
      </trkpt>
      <trkpt lat="45.91708" lon="2.92811">
        <ele>968</ele>
        <time>2017-10-10T22:30:46Z</time>
      </trkpt>
      <trkpt lat="45.91705" lon="2.92822">
        <ele>968</ele>
        <time>2017-10-10T22:32:46Z</time>
      </trkpt>
      <trkpt lat="45.91704" lon="2.92826">
        <ele>968</ele>
        <time>2017-10-10T22:34:46Z</time>
      </trkpt>
      <trkpt lat="45.91695" lon="2.92852">
        <ele>968</ele>
        <time>2017-10-10T22:36:46Z</time>
      </trkpt>
      <trkpt lat="45.91693" lon="2.92856">
        <ele>968</ele>
        <time>2017-10-10T22:38:46Z</time>
      </trkpt>
      <trkpt lat="45.9169" lon="2.92865">
        <ele>968</ele>
        <time>2017-10-10T22:40:46Z</time>
      </trkpt>
      <trkpt lat="45.91688" lon="2.9287">
        <ele>968</ele>
        <time>2017-10-10T22:42:46Z</time>
      </trkpt>
      <trkpt lat="45.91684" lon="2.92878">
        <ele>968</ele>
        <time>2017-10-10T22:44:46Z</time>
      </trkpt>
      <trkpt lat="45.91679" lon="2.92891">
        <ele>968</ele>
        <time>2017-10-10T22:46:46Z</time>
      </trkpt>
      <trkpt lat="45.91676" lon="2.929">
        <ele>967</ele>
        <time>2017-10-10T22:48:46Z</time>
      </trkpt>
      <trkpt lat="45.91675" lon="2.92904">
        <ele>967</ele>
        <time>2017-10-10T22:50:46Z</time>
      </trkpt>
      <trkpt lat="45.91673" lon="2.92907">
        <ele>967</ele>
        <time>2017-10-10T22:52:46Z</time>
      </trkpt>
      <trkpt lat="45.91669" lon="2.92915">
        <ele>967</ele>
        <time>2017-10-10T22:54:46Z</time>
      </trkpt>
      <trkpt lat="45.91667" lon="2.92919">
        <ele>967</ele>
        <time>2017-10-10T22:56:46Z</time>
      </trkpt>
      <trkpt lat="45.91657" lon="2.92941">
        <ele>964</ele>
        <time>2017-10-10T22:58:46Z</time>
      </trkpt>
      <trkpt lat="45.91655" lon="2.92945">
        <ele>964</ele>
        <time>2017-10-10T23:00:46Z</time>
      </trkpt>
      <trkpt lat="45.91649" lon="2.92953">
        <ele>963</ele>
        <time>2017-10-10T23:02:46Z</time>
      </trkpt>
      <trkpt lat="45.91638" lon="2.92969">
        <ele>962</ele>
        <time>2017-10-10T23:04:46Z</time>
      </trkpt>
      <trkpt lat="45.91626" lon="2.92989">
        <ele>960</ele>
        <time>2017-10-10T23:06:46Z</time>
      </trkpt>
      <trkpt lat="45.91622" lon="2.92993">
        <ele>960</ele>
        <time>2017-10-10T23:08:46Z</time>
      </trkpt>
      <trkpt lat="45.91612" lon="2.93005">
        <ele>959</ele>
        <time>2017-10-10T23:10:46Z</time>
      </trkpt>
      <trkpt lat="45.91608" lon="2.93008">
        <ele>959</ele>
        <time>2017-10-10T23:12:46Z</time>
      </trkpt>
      <trkpt lat="45.91595" lon="2.9302">
        <ele>958</ele>
        <time>2017-10-10T23:14:46Z</time>
      </trkpt>
      <trkpt lat="45.9159" lon="2.93023">
        <ele>957</ele>
        <time>2017-10-10T23:16:46Z</time>
      </trkpt>
      <trkpt lat="45.91586" lon="2.93024">
        <ele>957</ele>
        <time>2017-10-10T23:18:46Z</time>
      </trkpt>
      <trkpt lat="45.91584" lon="2.93024">
        <ele>957</ele>
        <time>2017-10-10T23:20:46Z</time>
      </trkpt>
      <trkpt lat="45.91583" lon="2.93024">
        <ele>957</ele>
        <time>2017-10-10T23:22:46Z</time>
      </trkpt>
      <trkpt lat="45.91582" lon="2.93022">
        <ele>958</ele>
        <time>2017-10-10T23:24:46Z</time>
      </trkpt>
      <trkpt lat="45.91579" lon="2.93017">
        <ele>958</ele>
        <time>2017-10-10T23:26:46Z</time>
      </trkpt>
      <trkpt lat="45.91578" lon="2.93014">
        <ele>959</ele>
        <time>2017-10-10T23:28:46Z</time>
      </trkpt>
      <trkpt lat="45.91575" lon="2.9301">
        <ele>959</ele>
        <time>2017-10-10T23:30:46Z</time>
      </trkpt>
      <trkpt lat="45.91574" lon="2.93008">
        <ele>959</ele>
        <time>2017-10-10T23:32:46Z</time>
      </trkpt>
      <trkpt lat="45.91574" lon="2.93006">
        <ele>960</ele>
        <time>2017-10-10T23:34:46Z</time>
      </trkpt>
      <trkpt lat="45.91572" lon="2.93001">
        <ele>960</ele>
        <time>2017-10-10T23:36:46Z</time>
      </trkpt>
      <trkpt lat="45.91571" lon="2.92998">
        <ele>960</ele>
        <time>2017-10-10T23:38:46Z</time>
      </trkpt>
      <trkpt lat="45.91571" lon="2.92996">
        <ele>960</ele>
        <time>2017-10-10T23:40:46Z</time>
      </trkpt>
      <trkpt lat="45.91571" lon="2.92991">
        <ele>961</ele>
        <time>2017-10-10T23:42:46Z</time>
      </trkpt>
      <trkpt lat="45.91571" lon="2.92989">
        <ele>961</ele>
        <time>2017-10-10T23:44:46Z</time>
      </trkpt>
      <trkpt lat="45.9157" lon="2.92986">
        <ele>961</ele>
        <time>2017-10-10T23:46:46Z</time>
      </trkpt>
      <trkpt lat="45.9157" lon="2.92978">
        <ele>961</ele>
        <time>2017-10-10T23:48:46Z</time>
      </trkpt>
      <trkpt lat="45.9157" lon="2.9297">
        <ele>962</ele>
        <time>2017-10-10T23:50:46Z</time>
      </trkpt>
      <trkpt lat="45.91569" lon="2.92964">
        <ele>962</ele>
        <time>2017-10-10T23:52:46Z</time>
      </trkpt>
      <trkpt lat="45.91569" lon="2.92962">
        <ele>962</ele>
        <time>2017-10-10T23:54:46Z</time>
      </trkpt>
      <trkpt lat="45.91568" lon="2.92959">
        <ele>962</ele>
        <time>2017-10-10T23:56:46Z</time>
      </trkpt>
      <trkpt lat="45.91567" lon="2.92957">
        <ele>963</ele>
        <time>2017-10-10T23:58:46Z</time>
      </trkpt>
      <trkpt lat="45.91567" lon="2.92954">
        <ele>963</ele>
        <time>2017-10-11T00:00:46Z</time>
      </trkpt>
      <trkpt lat="45.91567" lon="2.92949">
        <ele>963</ele>
        <time>2017-10-11T00:02:46Z</time>
      </trkpt>
      <trkpt lat="45.91566" lon="2.92944">
        <ele>963</ele>
        <time>2017-10-11T00:04:46Z</time>
      </trkpt>
      <trkpt lat="45.91566" lon="2.92941">
        <ele>963</ele>
        <time>2017-10-11T00:06:46Z</time>
      </trkpt>
      <trkpt lat="45.91565" lon="2.92931">
        <ele>964</ele>
        <time>2017-10-11T00:08:46Z</time>
      </trkpt>
      <trkpt lat="45.91565" lon="2.92927">
        <ele>964</ele>
        <time>2017-10-11T00:10:46Z</time>
      </trkpt>
      <trkpt lat="45.91565" lon="2.92923">
        <ele>964</ele>
        <time>2017-10-11T00:12:46Z</time>
      </trkpt>
      <trkpt lat="45.91565" lon="2.92917">
        <ele>965</ele>
        <time>2017-10-11T00:14:46Z</time>
      </trkpt>
      <trkpt lat="45.91565" lon="2.92915">
        <ele>965</ele>
        <time>2017-10-11T00:16:46Z</time>
      </trkpt>
      <trkpt lat="45.91565" lon="2.9291">
        <ele>965</ele>
        <time>2017-10-11T00:18:46Z</time>
      </trkpt>
      <trkpt lat="45.91564" lon="2.92907">
        <ele>965</ele>
        <time>2017-10-11T00:20:46Z</time>
      </trkpt>
      <trkpt lat="45.91564" lon="2.92904">
        <ele>965</ele>
        <time>2017-10-11T00:22:46Z</time>
      </trkpt>
      <trkpt lat="45.91565" lon="2.929">
        <ele>966</ele>
        <time>2017-10-11T00:24:46Z</time>
      </trkpt>
      <trkpt lat="45.91564" lon="2.92897">
        <ele>966</ele>
        <time>2017-10-11T00:26:46Z</time>
      </trkpt>
      <trkpt lat="45.91564" lon="2.9289">
        <ele>966</ele>
        <time>2017-10-11T00:28:46Z</time>
      </trkpt>
      <trkpt lat="45.91564" lon="2.92879">
        <ele>967</ele>
        <time>2017-10-11T00:30:46Z</time>
      </trkpt>
      <trkpt lat="45.91563" lon="2.92877">
        <ele>967</ele>
        <time>2017-10-11T00:32:46Z</time>
      </trkpt>
      <trkpt lat="45.91563" lon="2.92872">
        <ele>967</ele>
        <time>2017-10-11T00:34:46Z</time>
      </trkpt>
      <trkpt lat="45.91563" lon="2.92866">
        <ele>968</ele>
        <time>2017-10-11T00:36:46Z</time>
      </trkpt>
      <trkpt lat="45.91563" lon="2.92863">
        <ele>968</ele>
        <time>2017-10-11T00:38:46Z</time>
      </trkpt>
      <trkpt lat="45.91562" lon="2.92855">
        <ele>968</ele>
        <time>2017-10-11T00:40:46Z</time>
      </trkpt>
      <trkpt lat="45.91562" lon="2.92846">
        <ele>969</ele>
        <time>2017-10-11T00:42:46Z</time>
      </trkpt>
      <trkpt lat="45.91561" lon="2.92843">
        <ele>969</ele>
        <time>2017-10-11T00:44:46Z</time>
      </trkpt>
      <trkpt lat="45.91561" lon="2.92838">
        <ele>970</ele>
        <time>2017-10-11T00:46:46Z</time>
      </trkpt>
      <trkpt lat="45.91561" lon="2.92831">
        <ele>970</ele>
        <time>2017-10-11T00:48:46Z</time>
      </trkpt>
      <trkpt lat="45.9156" lon="2.92827">
        <ele>970</ele>
        <time>2017-10-11T00:50:46Z</time>
      </trkpt>
      <trkpt lat="45.9156" lon="2.92824">
        <ele>970</ele>
        <time>2017-10-11T00:52:46Z</time>
      </trkpt>
      <trkpt lat="45.91559" lon="2.92818">
        <ele>970</ele>
        <time>2017-10-11T00:54:46Z</time>
      </trkpt>
      <trkpt lat="45.91558" lon="2.92813">
        <ele>970</ele>
        <time>2017-10-11T00:56:46Z</time>
      </trkpt>
      <trkpt lat="45.91558" lon="2.92805">
        <ele>970</ele>
        <time>2017-10-11T00:58:46Z</time>
      </trkpt>
      <trkpt lat="45.91556" lon="2.92796">
        <ele>971</ele>
        <time>2017-10-11T01:00:46Z</time>
      </trkpt>
      <trkpt lat="45.91556" lon="2.92793">
        <ele>971</ele>
        <time>2017-10-11T01:02:46Z</time>
      </trkpt>
      <trkpt lat="45.91556" lon="2.92791">
        <ele>971</ele>
        <time>2017-10-11T01:04:46Z</time>
      </trkpt>
      <trkpt lat="45.91556" lon="2.92777">
        <ele>971</ele>
        <time>2017-10-11T01:06:46Z</time>
      </trkpt>
      <trkpt lat="45.91556" lon="2.92773">
        <ele>971</ele>
        <time>2017-10-11T01:08:46Z</time>
      </trkpt>
      <trkpt lat="45.91556" lon="2.92766">
        <ele>971</ele>
        <time>2017-10-11T01:10:46Z</time>
      </trkpt>
      <trkpt lat="45.91554" lon="2.92755">
        <ele>972</ele>
        <time>2017-10-11T01:12:46Z</time>
      </trkpt>
      <trkpt lat="45.91553" lon="2.92734">
        <ele>972</ele>
        <time>2017-10-11T01:14:46Z</time>
      </trkpt>
      <trkpt lat="45.91552" lon="2.92727">
        <ele>972</ele>
        <time>2017-10-11T01:16:46Z</time>
      </trkpt>
      <trkpt lat="45.91551" lon="2.92724">
        <ele>972</ele>
        <time>2017-10-11T01:18:46Z</time>
      </trkpt>
      <trkpt lat="45.91549" lon="2.92722">
        <ele>972</ele>
        <time>2017-10-11T01:20:46Z</time>
      </trkpt>
      <trkpt lat="45.91548" lon="2.9272">
        <ele>972</ele>
        <time>2017-10-11T01:22:46Z</time>
      </trkpt>
      <trkpt lat="45.91541" lon="2.92718">
        <ele>972</ele>
        <time>2017-10-11T01:24:46Z</time>
      </trkpt>
      <trkpt lat="45.91534" lon="2.92713">
        <ele>973</ele>
        <time>2017-10-11T01:26:46Z</time>
      </trkpt>
      <trkpt lat="45.91531" lon="2.92711">
        <ele>973</ele>
        <time>2017-10-11T01:28:46Z</time>
      </trkpt>
      <trkpt lat="45.91529" lon="2.9271">
        <ele>973</ele>
        <time>2017-10-11T01:30:46Z</time>
      </trkpt>
      <trkpt lat="45.91527" lon="2.92709">
        <ele>973</ele>
        <time>2017-10-11T01:32:46Z</time>
      </trkpt>
      <trkpt lat="45.91524" lon="2.92707">
        <ele>973</ele>
        <time>2017-10-11T01:34:46Z</time>
      </trkpt>
      <trkpt lat="45.91522" lon="2.92705">
        <ele>973</ele>
        <time>2017-10-11T01:36:46Z</time>
      </trkpt>
      <trkpt lat="45.91521" lon="2.92703">
        <ele>973</ele>
        <time>2017-10-11T01:38:46Z</time>
      </trkpt>
      <trkpt lat="45.91516" lon="2.927">
        <ele>973</ele>
        <time>2017-10-11T01:40:46Z</time>
      </trkpt>
      <trkpt lat="45.91512" lon="2.92698">
        <ele>973</ele>
        <time>2017-10-11T01:42:46Z</time>
      </trkpt>
      <trkpt lat="45.91502" lon="2.92691">
        <ele>974</ele>
        <time>2017-10-11T01:44:46Z</time>
      </trkpt>
      <trkpt lat="45.91497" lon="2.9269">
        <ele>973</ele>
        <time>2017-10-11T01:46:46Z</time>
      </trkpt>
      <trkpt lat="45.91484" lon="2.9269">
        <ele>972</ele>
        <time>2017-10-11T01:48:46Z</time>
      </trkpt>
      <trkpt lat="45.91477" lon="2.92693">
        <ele>971</ele>
        <time>2017-10-11T01:50:46Z</time>
      </trkpt>
      <trkpt lat="45.91472" lon="2.92693">
        <ele>971</ele>
        <time>2017-10-11T01:52:46Z</time>
      </trkpt>
      <trkpt lat="45.91468" lon="2.92696">
        <ele>971</ele>
        <time>2017-10-11T01:54:46Z</time>
      </trkpt>
      <trkpt lat="45.91454" lon="2.927">
        <ele>970</ele>
        <time>2017-10-11T01:56:46Z</time>
      </trkpt>
      <trkpt lat="45.91451" lon="2.92701">
        <ele>969</ele>
        <time>2017-10-11T01:58:46Z</time>
      </trkpt>
      <trkpt lat="45.91435" lon="2.92706">
        <ele>968</ele>
        <time>2017-10-11T02:00:46Z</time>
      </trkpt>
      <trkpt lat="45.91422" lon="2.92712">
        <ele>968</ele>
        <time>2017-10-11T02:02:46Z</time>
      </trkpt>
      <trkpt lat="45.91414" lon="2.92715">
        <ele>967</ele>
        <time>2017-10-11T02:04:46Z</time>
      </trkpt>
      <trkpt lat="45.91405" lon="2.92719">
        <ele>964</ele>
        <time>2017-10-11T02:06:46Z</time>
      </trkpt>
      <trkpt lat="45.91401" lon="2.9272">
        <ele>963</ele>
        <time>2017-10-11T02:08:46Z</time>
      </trkpt>
      <trkpt lat="45.91402" lon="2.92717">
        <ele>963</ele>
        <time>2017-10-11T02:10:46Z</time>
      </trkpt>
      <trkpt lat="45.91404" lon="2.92712">
        <ele>963</ele>
        <time>2017-10-11T02:12:46Z</time>
      </trkpt>
      <trkpt lat="45.91405" lon="2.9271">
        <ele>964</ele>
        <time>2017-10-11T02:14:46Z</time>
      </trkpt>
      <trkpt lat="45.9141" lon="2.92706">
        <ele>965</ele>
        <time>2017-10-11T02:16:46Z</time>
      </trkpt>
      <trkpt lat="45.91412" lon="2.92703">
        <ele>965</ele>
        <time>2017-10-11T02:18:46Z</time>
      </trkpt>
      <trkpt lat="45.91413" lon="2.927">
        <ele>965</ele>
        <time>2017-10-11T02:20:46Z</time>
      </trkpt>
      <trkpt lat="45.91413" lon="2.92697">
        <ele>965</ele>
        <time>2017-10-11T02:22:46Z</time>
      </trkpt>
      <trkpt lat="45.91415" lon="2.92693">
        <ele>965</ele>
        <time>2017-10-11T02:24:46Z</time>
      </trkpt>
      <trkpt lat="45.91415" lon="2.92692">
        <ele>965</ele>
        <time>2017-10-11T02:26:46Z</time>
      </trkpt>
      <trkpt lat="45.91416" lon="2.92691">
        <ele>965</ele>
        <time>2017-10-11T02:28:46Z</time>
      </trkpt>
      <trkpt lat="45.91415" lon="2.92692">
        <ele>965</ele>
        <time>2017-10-11T02:30:46Z</time>
      </trkpt>
      <trkpt lat="45.91416" lon="2.9269">
        <ele>965</ele>
        <time>2017-10-11T02:32:46Z</time>
      </trkpt>
      <trkpt lat="45.91417" lon="2.92687">
        <ele>965</ele>
        <time>2017-10-11T02:34:46Z</time>
      </trkpt>
      <trkpt lat="45.91417" lon="2.92681">
        <ele>964</ele>
        <time>2017-10-11T02:36:46Z</time>
      </trkpt>
      <trkpt lat="45.91418" lon="2.92676">
        <ele>964</ele>
        <time>2017-10-11T02:38:46Z</time>
      </trkpt>
      <trkpt lat="45.91421" lon="2.92664">
        <ele>963</ele>
        <time>2017-10-11T02:40:46Z</time>
      </trkpt>
      <trkpt lat="45.91422" lon="2.92659">
        <ele>963</ele>
        <time>2017-10-11T02:42:46Z</time>
      </trkpt>
      <trkpt lat="45.91427" lon="2.92642">
        <ele>962</ele>
        <time>2017-10-11T02:44:46Z</time>
      </trkpt>
      <trkpt lat="45.9143" lon="2.92631">
        <ele>961</ele>
        <time>2017-10-11T02:46:46Z</time>
      </trkpt>
      <trkpt lat="45.91432" lon="2.9262">
        <ele>960</ele>
        <time>2017-10-11T02:48:46Z</time>
      </trkpt>
      <trkpt lat="45.91432" lon="2.9261">
        <ele>959</ele>
        <time>2017-10-11T02:50:46Z</time>
      </trkpt>
      <trkpt lat="45.91433" lon="2.92605">
        <ele>959</ele>
        <time>2017-10-11T02:52:46Z</time>
      </trkpt>
      <trkpt lat="45.91435" lon="2.92601">
        <ele>958</ele>
        <time>2017-10-11T02:54:46Z</time>
      </trkpt>
      <trkpt lat="45.9144" lon="2.92581">
        <ele>957</ele>
        <time>2017-10-11T02:56:46Z</time>
      </trkpt>
      <trkpt lat="45.9144" lon="2.9258">
        <ele>957</ele>
        <time>2017-10-11T02:58:46Z</time>
      </trkpt>
      <trkpt lat="45.91436" lon="2.92579">
        <ele>956</ele>
        <time>2017-10-11T03:00:46Z</time>
      </trkpt>
      <trkpt lat="45.91433" lon="2.92578">
        <ele>956</ele>
        <time>2017-10-11T03:02:46Z</time>
      </trkpt>
      <trkpt lat="45.91424" lon="2.9258">
        <ele>955</ele>
        <time>2017-10-11T03:04:46Z</time>
      </trkpt>
      <trkpt lat="45.91418" lon="2.9258">
        <ele>954</ele>
        <time>2017-10-11T03:06:46Z</time>
      </trkpt>
      <trkpt lat="45.91399" lon="2.92591">
        <ele>951</ele>
        <time>2017-10-11T03:08:46Z</time>
      </trkpt>
      <trkpt lat="45.9139" lon="2.92595">
        <ele>950</ele>
        <time>2017-10-11T03:10:46Z</time>
      </trkpt>
      <trkpt lat="45.91385" lon="2.92598">
        <ele>949</ele>
        <time>2017-10-11T03:12:46Z</time>
      </trkpt>
      <trkpt lat="45.9138" lon="2.92601">
        <ele>948</ele>
        <time>2017-10-11T03:14:46Z</time>
      </trkpt>
      <trkpt lat="45.91368" lon="2.92606">
        <ele>946</ele>
        <time>2017-10-11T03:16:46Z</time>
      </trkpt>
      <trkpt lat="45.91362" lon="2.92607">
        <ele>945</ele>
        <time>2017-10-11T03:18:46Z</time>
      </trkpt>
      <trkpt lat="45.91351" lon="2.92605">
        <ele>942</ele>
        <time>2017-10-11T03:20:46Z</time>
      </trkpt>
      <trkpt lat="45.91341" lon="2.92605">
        <ele>940</ele>
        <time>2017-10-11T03:22:46Z</time>
      </trkpt>
      <trkpt lat="45.91337" lon="2.92605">
        <ele>939</ele>
        <time>2017-10-11T03:24:46Z</time>
      </trkpt>
      <trkpt lat="45.9133" lon="2.92608">
        <ele>938</ele>
        <time>2017-10-11T03:26:46Z</time>
      </trkpt>
      <trkpt lat="45.91326" lon="2.9261">
        <ele>937</ele>
        <time>2017-10-11T03:28:46Z</time>
      </trkpt>
      <trkpt lat="45.91323" lon="2.92613">
        <ele>937</ele>
        <time>2017-10-11T03:30:46Z</time>
      </trkpt>
      <trkpt lat="45.9132" lon="2.92618">
        <ele>937</ele>
        <time>2017-10-11T03:32:46Z</time>
      </trkpt>
      <trkpt lat="45.91314" lon="2.92643">
        <ele>936</ele>
        <time>2017-10-11T03:34:46Z</time>
      </trkpt>
      <trkpt lat="45.91313" lon="2.92653">
        <ele>936</ele>
        <time>2017-10-11T03:36:46Z</time>
      </trkpt>
      <trkpt lat="45.91311" lon="2.92659">
        <ele>936</ele>
        <time>2017-10-11T03:38:46Z</time>
      </trkpt>
      <trkpt lat="45.91308" lon="2.92665">
        <ele>936</ele>
        <time>2017-10-11T03:40:46Z</time>
      </trkpt>
      <trkpt lat="45.91303" lon="2.92671">
        <ele>936</ele>
        <time>2017-10-11T03:42:46Z</time>
      </trkpt>
      <trkpt lat="45.91301" lon="2.92672">
        <ele>935</ele>
        <time>2017-10-11T03:44:46Z</time>
      </trkpt>
      <trkpt lat="45.91284" lon="2.92674">
        <ele>933</ele>
        <time>2017-10-11T03:46:46Z</time>
      </trkpt>
      <trkpt lat="45.91266" lon="2.92678">
        <ele>931</ele>
        <time>2017-10-11T03:48:46Z</time>
      </trkpt>
      <trkpt lat="45.91251" lon="2.92682">
        <ele>930</ele>
        <time>2017-10-11T03:50:46Z</time>
      </trkpt>
      <trkpt lat="45.91233" lon="2.9269">
        <ele>927</ele>
        <time>2017-10-11T03:52:46Z</time>
      </trkpt>
      <trkpt lat="45.91227" lon="2.92693">
        <ele>927</ele>
        <time>2017-10-11T03:54:46Z</time>
      </trkpt>
      <trkpt lat="45.91215" lon="2.92705">
        <ele>925</ele>
        <time>2017-10-11T03:56:46Z</time>
      </trkpt>
      <trkpt lat="45.91192" lon="2.92735">
        <ele>924</ele>
        <time>2017-10-11T03:58:46Z</time>
      </trkpt>
      <trkpt lat="45.91186" lon="2.92744">
        <ele>923</ele>
        <time>2017-10-11T04:00:46Z</time>
      </trkpt>
      <trkpt lat="45.91174" lon="2.92761">
        <ele>922</ele>
        <time>2017-10-11T04:02:46Z</time>
      </trkpt>
      <trkpt lat="45.9116" lon="2.92786">
        <ele>920</ele>
        <time>2017-10-11T04:04:46Z</time>
      </trkpt>
      <trkpt lat="45.91147" lon="2.92815">
        <ele>918</ele>
        <time>2017-10-11T04:06:46Z</time>
      </trkpt>
      <trkpt lat="45.91142" lon="2.92829">
        <ele>918</ele>
        <time>2017-10-11T04:08:46Z</time>
      </trkpt>
      <trkpt lat="45.91138" lon="2.92845">
        <ele>916</ele>
        <time>2017-10-11T04:10:46Z</time>
      </trkpt>
      <trkpt lat="45.91138" lon="2.9285">
        <ele>916</ele>
        <time>2017-10-11T04:12:46Z</time>
      </trkpt>
      <trkpt lat="45.91137" lon="2.92852">
        <ele>915</ele>
        <time>2017-10-11T04:14:46Z</time>
      </trkpt>
      <trkpt lat="45.91134" lon="2.9286">
        <ele>914</ele>
        <time>2017-10-11T04:16:46Z</time>
      </trkpt>
      <trkpt lat="45.91129" lon="2.92886">
        <ele>912</ele>
        <time>2017-10-11T04:18:46Z</time>
      </trkpt>
      <trkpt lat="45.9112" lon="2.92939">
        <ele>908</ele>
        <time>2017-10-11T04:20:46Z</time>
      </trkpt>
      <trkpt lat="45.91117" lon="2.92961">
        <ele>908</ele>
        <time>2017-10-11T04:22:46Z</time>
      </trkpt>
      <trkpt lat="45.91111" lon="2.93059">
        <ele>907</ele>
        <time>2017-10-11T04:24:46Z</time>
      </trkpt>
      <trkpt lat="45.91111" lon="2.93071">
        <ele>907</ele>
        <time>2017-10-11T04:26:46Z</time>
      </trkpt>
      <trkpt lat="45.9111" lon="2.93084">
        <ele>907</ele>
        <time>2017-10-11T04:28:46Z</time>
      </trkpt>
      <trkpt lat="45.91105" lon="2.9312">
        <ele>904</ele>
        <time>2017-10-11T04:30:46Z</time>
      </trkpt>
      <trkpt lat="45.91102" lon="2.93145">
        <ele>902</ele>
        <time>2017-10-11T04:32:46Z</time>
      </trkpt>
      <trkpt lat="45.911" lon="2.93173">
        <ele>900</ele>
        <time>2017-10-11T04:34:46Z</time>
      </trkpt>
      <trkpt lat="45.91097" lon="2.93211">
        <ele>898</ele>
        <time>2017-10-11T04:36:46Z</time>
      </trkpt>
      <trkpt lat="45.91096" lon="2.9323">
        <ele>896</ele>
        <time>2017-10-11T04:38:46Z</time>
      </trkpt>
      <trkpt lat="45.91095" lon="2.93239">
        <ele>896</ele>
        <time>2017-10-11T04:40:46Z</time>
      </trkpt>
      <trkpt lat="45.91093" lon="2.93248">
        <ele>895</ele>
        <time>2017-10-11T04:42:46Z</time>
      </trkpt>
      <trkpt lat="45.91089" lon="2.93256">
        <ele>895</ele>
        <time>2017-10-11T04:44:46Z</time>
      </trkpt>
      <trkpt lat="45.91085" lon="2.93265">
        <ele>894</ele>
        <time>2017-10-11T04:46:46Z</time>
      </trkpt>
      <trkpt lat="45.9108" lon="2.93273">
        <ele>893</ele>
        <time>2017-10-11T04:48:46Z</time>
      </trkpt>
      <trkpt lat="45.91054" lon="2.93304">
        <ele>891</ele>
        <time>2017-10-11T04:50:46Z</time>
      </trkpt>
      <trkpt lat="45.91033" lon="2.93332">
        <ele>889</ele>
        <time>2017-10-11T04:52:46Z</time>
      </trkpt>
    </trkseg>
  </trk>
</gpx>